<?xml version="1.0" encoding="UTF-8" standalone="no" ?>
<gpx xmlns="http://www.topografix.com/GPX/1/1" xmlns:xsi="http://www.w3.org/2001/XMLSchema-instance" xsi:schemaLocation="http://www.topografix.com/GPX/1/1 http://www.topografix.com/GPX/1/1/gpx.xsd" version="1.1" creator="VisuGPX - https://www.visugpx.com">
  <metadata>
    <name>Milles Cols 2026 J1 : La Gardiole envers et contre tous</name>
    <desc><![CDATA[Ce fut houleux hier au soir pour choisir le but de la rando du jour.

Olivier et Yves partisant d'une face nord, Joss, moi, la gardienne pour la Gardiole, face sud avec fraîche qui ne durerait pas longtemps.
Ce matin encore on ne savait pas. Mais je suis sur que ce fut le bon choix. Au retour le bas déjà sans neige.
Yves a redescendu sa voiture au gîte ce matin, et Joss l'a suivi au retour. Du coup, nous sommes redescendu à pied jusqu'au gite., pas très loin, puis retourner chercher la voiture.]]></desc>
  </metadata>
  <trk>
    <name><![CDATA[Milles Cols 2026 J1 : La Gardiole envers et contre tous_1]]></name>
    <trkseg>
      <trkpt lat="44.73831" lon="6.83924">
        <ele>1830.3</ele>
        <time>2026-03-23T08:21:20Z</time>
      </trkpt>
      <trkpt lat="44.73831" lon="6.83924">
        <ele>1830.3</ele>
        <time>2026-03-23T08:21:21Z</time>
      </trkpt>
      <trkpt lat="44.73831" lon="6.83924">
        <ele>1830.3</ele>
        <time>2026-03-23T08:21:22Z</time>
      </trkpt>
      <trkpt lat="44.73831" lon="6.83925">
        <ele>1830.3</ele>
        <time>2026-03-23T08:21:23Z</time>
      </trkpt>
      <trkpt lat="44.73831" lon="6.83925">
        <ele>1830.3</ele>
        <time>2026-03-23T08:21:24Z</time>
      </trkpt>
      <trkpt lat="44.73832" lon="6.83925">
        <ele>1830.3</ele>
        <time>2026-03-23T08:21:25Z</time>
      </trkpt>
      <trkpt lat="44.73832" lon="6.83925">
        <ele>1830.3</ele>
        <time>2026-03-23T08:21:26Z</time>
      </trkpt>
      <trkpt lat="44.73833" lon="6.83925">
        <ele>1830.3</ele>
        <time>2026-03-23T08:21:27Z</time>
      </trkpt>
      <trkpt lat="44.73833" lon="6.83925">
        <ele>1830.3</ele>
        <time>2026-03-23T08:21:28Z</time>
      </trkpt>
      <trkpt lat="44.73834" lon="6.83925">
        <ele>1830.3</ele>
        <time>2026-03-23T08:21:29Z</time>
      </trkpt>
      <trkpt lat="44.73833" lon="6.83925">
        <ele>1830.3</ele>
        <time>2026-03-23T08:21:30Z</time>
      </trkpt>
      <trkpt lat="44.73833" lon="6.83925">
        <ele>1830.3</ele>
        <time>2026-03-23T08:21:31Z</time>
      </trkpt>
      <trkpt lat="44.73833" lon="6.83925">
        <ele>1830.3</ele>
        <time>2026-03-23T08:21:32Z</time>
      </trkpt>
      <trkpt lat="44.73833" lon="6.83925">
        <ele>1830.3</ele>
        <time>2026-03-23T08:21:33Z</time>
      </trkpt>
      <trkpt lat="44.73833" lon="6.83925">
        <ele>1830.3</ele>
        <time>2026-03-23T08:21:34Z</time>
      </trkpt>
      <trkpt lat="44.73833" lon="6.83925">
        <ele>1830.3</ele>
        <time>2026-03-23T08:21:35Z</time>
      </trkpt>
      <trkpt lat="44.73833" lon="6.83925">
        <ele>1830.3</ele>
        <time>2026-03-23T08:21:36Z</time>
      </trkpt>
      <trkpt lat="44.73833" lon="6.83925">
        <ele>1830.3</ele>
        <time>2026-03-23T08:21:37Z</time>
      </trkpt>
      <trkpt lat="44.73833" lon="6.83925">
        <ele>1830.3</ele>
        <time>2026-03-23T08:21:38Z</time>
      </trkpt>
      <trkpt lat="44.73832" lon="6.83925">
        <ele>1830.3</ele>
        <time>2026-03-23T08:21:39Z</time>
      </trkpt>
      <trkpt lat="44.73832" lon="6.83925">
        <ele>1830.3</ele>
        <time>2026-03-23T08:21:40Z</time>
      </trkpt>
      <trkpt lat="44.73832" lon="6.83925">
        <ele>1830.3</ele>
        <time>2026-03-23T08:21:41Z</time>
      </trkpt>
      <trkpt lat="44.73832" lon="6.83925">
        <ele>1830.3</ele>
        <time>2026-03-23T08:21:42Z</time>
      </trkpt>
      <trkpt lat="44.73832" lon="6.83925">
        <ele>1830.3</ele>
        <time>2026-03-23T08:21:43Z</time>
      </trkpt>
      <trkpt lat="44.73832" lon="6.83925">
        <ele>1830.3</ele>
        <time>2026-03-23T08:21:44Z</time>
      </trkpt>
      <trkpt lat="44.73832" lon="6.83925">
        <ele>1830.3</ele>
        <time>2026-03-23T08:21:45Z</time>
      </trkpt>
      <trkpt lat="44.73833" lon="6.83925">
        <ele>1830.3</ele>
        <time>2026-03-23T08:21:46Z</time>
      </trkpt>
      <trkpt lat="44.73833" lon="6.83925">
        <ele>1830.3</ele>
        <time>2026-03-23T08:21:47Z</time>
      </trkpt>
      <trkpt lat="44.73833" lon="6.83925">
        <ele>1830.3</ele>
        <time>2026-03-23T08:21:48Z</time>
      </trkpt>
      <trkpt lat="44.73833" lon="6.83925">
        <ele>1830.3</ele>
        <time>2026-03-23T08:21:49Z</time>
      </trkpt>
      <trkpt lat="44.73833" lon="6.83925">
        <ele>1830.3</ele>
        <time>2026-03-23T08:21:50Z</time>
      </trkpt>
      <trkpt lat="44.73833" lon="6.83925">
        <ele>1830.3</ele>
        <time>2026-03-23T08:21:51Z</time>
      </trkpt>
      <trkpt lat="44.73833" lon="6.83925">
        <ele>1830.3</ele>
        <time>2026-03-23T08:21:52Z</time>
      </trkpt>
      <trkpt lat="44.73833" lon="6.83925">
        <ele>1830.3</ele>
        <time>2026-03-23T08:21:53Z</time>
      </trkpt>
      <trkpt lat="44.73833" lon="6.83925">
        <ele>1830.3</ele>
        <time>2026-03-23T08:21:54Z</time>
      </trkpt>
      <trkpt lat="44.73833" lon="6.83925">
        <ele>1830.3</ele>
        <time>2026-03-23T08:21:55Z</time>
      </trkpt>
      <trkpt lat="44.73833" lon="6.83925">
        <ele>1830.3</ele>
        <time>2026-03-23T08:21:56Z</time>
      </trkpt>
      <trkpt lat="44.73833" lon="6.83925">
        <ele>1830.3</ele>
        <time>2026-03-23T08:21:57Z</time>
      </trkpt>
      <trkpt lat="44.73833" lon="6.83925">
        <ele>1830.3</ele>
        <time>2026-03-23T08:21:58Z</time>
      </trkpt>
      <trkpt lat="44.73833" lon="6.83925">
        <ele>1830.3</ele>
        <time>2026-03-23T08:21:59Z</time>
      </trkpt>
      <trkpt lat="44.73833" lon="6.83925">
        <ele>1830.3</ele>
        <time>2026-03-23T08:22:00Z</time>
      </trkpt>
      <trkpt lat="44.73833" lon="6.83925">
        <ele>1830.3</ele>
        <time>2026-03-23T08:22:01Z</time>
      </trkpt>
      <trkpt lat="44.73833" lon="6.83925">
        <ele>1830.3</ele>
        <time>2026-03-23T08:22:02Z</time>
      </trkpt>
      <trkpt lat="44.73833" lon="6.83924">
        <ele>1830.3</ele>
        <time>2026-03-23T08:22:03Z</time>
      </trkpt>
      <trkpt lat="44.73833" lon="6.83924">
        <ele>1830.3</ele>
        <time>2026-03-23T08:22:04Z</time>
      </trkpt>
      <trkpt lat="44.73834" lon="6.83924">
        <ele>1830.3</ele>
        <time>2026-03-23T08:22:05Z</time>
      </trkpt>
      <trkpt lat="44.73834" lon="6.83924">
        <ele>1830.3</ele>
        <time>2026-03-23T08:22:06Z</time>
      </trkpt>
      <trkpt lat="44.73834" lon="6.83924">
        <ele>1830.3</ele>
        <time>2026-03-23T08:22:07Z</time>
      </trkpt>
      <trkpt lat="44.73834" lon="6.83924">
        <ele>1830.3</ele>
        <time>2026-03-23T08:22:08Z</time>
      </trkpt>
      <trkpt lat="44.73834" lon="6.83924">
        <ele>1830.3</ele>
        <time>2026-03-23T08:22:09Z</time>
      </trkpt>
      <trkpt lat="44.73834" lon="6.83924">
        <ele>1830.3</ele>
        <time>2026-03-23T08:22:10Z</time>
      </trkpt>
      <trkpt lat="44.73834" lon="6.83924">
        <ele>1830.3</ele>
        <time>2026-03-23T08:22:11Z</time>
      </trkpt>
      <trkpt lat="44.73834" lon="6.83924">
        <ele>1830.3</ele>
        <time>2026-03-23T08:22:12Z</time>
      </trkpt>
      <trkpt lat="44.73834" lon="6.83924">
        <ele>1830.3</ele>
        <time>2026-03-23T08:22:13Z</time>
      </trkpt>
      <trkpt lat="44.73834" lon="6.83924">
        <ele>1830.3</ele>
        <time>2026-03-23T08:22:14Z</time>
      </trkpt>
      <trkpt lat="44.73834" lon="6.83924">
        <ele>1830.3</ele>
        <time>2026-03-23T08:22:15Z</time>
      </trkpt>
      <trkpt lat="44.73834" lon="6.83925">
        <ele>1830.3</ele>
        <time>2026-03-23T08:22:16Z</time>
      </trkpt>
      <trkpt lat="44.73834" lon="6.83924">
        <ele>1830.3</ele>
        <time>2026-03-23T08:22:17Z</time>
      </trkpt>
      <trkpt lat="44.73834" lon="6.83924">
        <ele>1830.3</ele>
        <time>2026-03-23T08:22:18Z</time>
      </trkpt>
      <trkpt lat="44.73834" lon="6.83924">
        <ele>1830.3</ele>
        <time>2026-03-23T08:22:19Z</time>
      </trkpt>
      <trkpt lat="44.73834" lon="6.83924">
        <ele>1830.3</ele>
        <time>2026-03-23T08:22:20Z</time>
      </trkpt>
      <trkpt lat="44.73834" lon="6.83924">
        <ele>1830.3</ele>
        <time>2026-03-23T08:22:21Z</time>
      </trkpt>
      <trkpt lat="44.73833" lon="6.83924">
        <ele>1830.3</ele>
        <time>2026-03-23T08:22:22Z</time>
      </trkpt>
      <trkpt lat="44.73833" lon="6.83924">
        <ele>1830.3</ele>
        <time>2026-03-23T08:22:23Z</time>
      </trkpt>
      <trkpt lat="44.73832" lon="6.83924">
        <ele>1830.3</ele>
        <time>2026-03-23T08:22:24Z</time>
      </trkpt>
      <trkpt lat="44.73832" lon="6.83924">
        <ele>1830.3</ele>
        <time>2026-03-23T08:22:25Z</time>
      </trkpt>
      <trkpt lat="44.73832" lon="6.83924">
        <ele>1830.3</ele>
        <time>2026-03-23T08:22:26Z</time>
      </trkpt>
      <trkpt lat="44.73833" lon="6.83924">
        <ele>1830.3</ele>
        <time>2026-03-23T08:22:27Z</time>
      </trkpt>
      <trkpt lat="44.73833" lon="6.83923">
        <ele>1830.3</ele>
        <time>2026-03-23T08:22:28Z</time>
      </trkpt>
      <trkpt lat="44.73833" lon="6.83924">
        <ele>1830.3</ele>
        <time>2026-03-23T08:22:29Z</time>
      </trkpt>
      <trkpt lat="44.73833" lon="6.83924">
        <ele>1830.3</ele>
        <time>2026-03-23T08:22:31Z</time>
      </trkpt>
      <trkpt lat="44.73833" lon="6.83924">
        <ele>1830.3</ele>
        <time>2026-03-23T08:22:32Z</time>
      </trkpt>
      <trkpt lat="44.73833" lon="6.83924">
        <ele>1830.3</ele>
        <time>2026-03-23T08:22:33Z</time>
      </trkpt>
      <trkpt lat="44.73833" lon="6.83924">
        <ele>1830.3</ele>
        <time>2026-03-23T08:22:34Z</time>
      </trkpt>
      <trkpt lat="44.73833" lon="6.83925">
        <ele>1830.3</ele>
        <time>2026-03-23T08:22:35Z</time>
      </trkpt>
      <trkpt lat="44.73834" lon="6.83925">
        <ele>1830.3</ele>
        <time>2026-03-23T08:22:36Z</time>
      </trkpt>
      <trkpt lat="44.73834" lon="6.83925">
        <ele>1830.3</ele>
        <time>2026-03-23T08:22:37Z</time>
      </trkpt>
      <trkpt lat="44.73834" lon="6.83925">
        <ele>1830.3</ele>
        <time>2026-03-23T08:22:38Z</time>
      </trkpt>
      <trkpt lat="44.73834" lon="6.83925">
        <ele>1830.3</ele>
        <time>2026-03-23T08:22:39Z</time>
      </trkpt>
      <trkpt lat="44.73834" lon="6.83925">
        <ele>1830.3</ele>
        <time>2026-03-23T08:22:40Z</time>
      </trkpt>
      <trkpt lat="44.73834" lon="6.83925">
        <ele>1830.3</ele>
        <time>2026-03-23T08:22:41Z</time>
      </trkpt>
      <trkpt lat="44.73834" lon="6.83925">
        <ele>1830.3</ele>
        <time>2026-03-23T08:22:42Z</time>
      </trkpt>
      <trkpt lat="44.73834" lon="6.83925">
        <ele>1830.3</ele>
        <time>2026-03-23T08:22:43Z</time>
      </trkpt>
      <trkpt lat="44.73834" lon="6.83925">
        <ele>1830.3</ele>
        <time>2026-03-23T08:22:44Z</time>
      </trkpt>
      <trkpt lat="44.73834" lon="6.83925">
        <ele>1830.3</ele>
        <time>2026-03-23T08:22:45Z</time>
      </trkpt>
      <trkpt lat="44.73834" lon="6.83925">
        <ele>1830.3</ele>
        <time>2026-03-23T08:22:46Z</time>
      </trkpt>
      <trkpt lat="44.73835" lon="6.83925">
        <ele>1830.3</ele>
        <time>2026-03-23T08:22:47Z</time>
      </trkpt>
      <trkpt lat="44.73835" lon="6.83925">
        <ele>1830.3</ele>
        <time>2026-03-23T08:22:48Z</time>
      </trkpt>
      <trkpt lat="44.73835" lon="6.83925">
        <ele>1830.3</ele>
        <time>2026-03-23T08:22:49Z</time>
      </trkpt>
      <trkpt lat="44.73835" lon="6.83925">
        <ele>1830.3</ele>
        <time>2026-03-23T08:22:50Z</time>
      </trkpt>
      <trkpt lat="44.73835" lon="6.83925">
        <ele>1830.3</ele>
        <time>2026-03-23T08:22:51Z</time>
      </trkpt>
      <trkpt lat="44.73835" lon="6.83925">
        <ele>1830.3</ele>
        <time>2026-03-23T08:22:52Z</time>
      </trkpt>
      <trkpt lat="44.73835" lon="6.83925">
        <ele>1830.3</ele>
        <time>2026-03-23T08:22:53Z</time>
      </trkpt>
      <trkpt lat="44.73835" lon="6.83925">
        <ele>1830.3</ele>
        <time>2026-03-23T08:22:54Z</time>
      </trkpt>
      <trkpt lat="44.73835" lon="6.83925">
        <ele>1830.3</ele>
        <time>2026-03-23T08:22:55Z</time>
      </trkpt>
      <trkpt lat="44.73835" lon="6.83925">
        <ele>1830.3</ele>
        <time>2026-03-23T08:22:56Z</time>
      </trkpt>
      <trkpt lat="44.73835" lon="6.83925">
        <ele>1830.3</ele>
        <time>2026-03-23T08:22:57Z</time>
      </trkpt>
      <trkpt lat="44.73835" lon="6.83925">
        <ele>1830.3</ele>
        <time>2026-03-23T08:22:58Z</time>
      </trkpt>
      <trkpt lat="44.73835" lon="6.83925">
        <ele>1830.3</ele>
        <time>2026-03-23T08:22:59Z</time>
      </trkpt>
      <trkpt lat="44.73835" lon="6.83925">
        <ele>1830.3</ele>
        <time>2026-03-23T08:23:00Z</time>
      </trkpt>
      <trkpt lat="44.73835" lon="6.83925">
        <ele>1830.3</ele>
        <time>2026-03-23T08:23:01Z</time>
      </trkpt>
      <trkpt lat="44.73835" lon="6.83925">
        <ele>1830.3</ele>
        <time>2026-03-23T08:23:02Z</time>
      </trkpt>
      <trkpt lat="44.73835" lon="6.83925">
        <ele>1830.3</ele>
        <time>2026-03-23T08:23:03Z</time>
      </trkpt>
      <trkpt lat="44.73835" lon="6.83925">
        <ele>1830.3</ele>
        <time>2026-03-23T08:23:04Z</time>
      </trkpt>
      <trkpt lat="44.73835" lon="6.83925">
        <ele>1830.3</ele>
        <time>2026-03-23T08:23:05Z</time>
      </trkpt>
      <trkpt lat="44.73835" lon="6.83925">
        <ele>1830.3</ele>
        <time>2026-03-23T08:23:06Z</time>
      </trkpt>
      <trkpt lat="44.73835" lon="6.83925">
        <ele>1830.3</ele>
        <time>2026-03-23T08:23:07Z</time>
      </trkpt>
      <trkpt lat="44.73835" lon="6.83925">
        <ele>1830.3</ele>
        <time>2026-03-23T08:23:08Z</time>
      </trkpt>
      <trkpt lat="44.73835" lon="6.83925">
        <ele>1830.3</ele>
        <time>2026-03-23T08:23:09Z</time>
      </trkpt>
      <trkpt lat="44.73835" lon="6.83925">
        <ele>1830.3</ele>
        <time>2026-03-23T08:23:10Z</time>
      </trkpt>
      <trkpt lat="44.73835" lon="6.83925">
        <ele>1830.3</ele>
        <time>2026-03-23T08:23:11Z</time>
      </trkpt>
      <trkpt lat="44.73835" lon="6.83925">
        <ele>1830.3</ele>
        <time>2026-03-23T08:23:12Z</time>
      </trkpt>
      <trkpt lat="44.73835" lon="6.83925">
        <ele>1830.3</ele>
        <time>2026-03-23T08:23:13Z</time>
      </trkpt>
      <trkpt lat="44.73835" lon="6.83925">
        <ele>1830.3</ele>
        <time>2026-03-23T08:23:14Z</time>
      </trkpt>
      <trkpt lat="44.73835" lon="6.83925">
        <ele>1830.3</ele>
        <time>2026-03-23T08:23:15Z</time>
      </trkpt>
      <trkpt lat="44.73835" lon="6.83925">
        <ele>1830.3</ele>
        <time>2026-03-23T08:23:16Z</time>
      </trkpt>
      <trkpt lat="44.73835" lon="6.83925">
        <ele>1830.3</ele>
        <time>2026-03-23T08:23:17Z</time>
      </trkpt>
      <trkpt lat="44.73835" lon="6.83925">
        <ele>1830.3</ele>
        <time>2026-03-23T08:23:18Z</time>
      </trkpt>
      <trkpt lat="44.73835" lon="6.83925">
        <ele>1830.3</ele>
        <time>2026-03-23T08:23:19Z</time>
      </trkpt>
      <trkpt lat="44.73835" lon="6.83925">
        <ele>1830.3</ele>
        <time>2026-03-23T08:23:20Z</time>
      </trkpt>
      <trkpt lat="44.73835" lon="6.83925">
        <ele>1830.3</ele>
        <time>2026-03-23T08:23:21Z</time>
      </trkpt>
      <trkpt lat="44.73835" lon="6.83925">
        <ele>1830.3</ele>
        <time>2026-03-23T08:23:22Z</time>
      </trkpt>
      <trkpt lat="44.73835" lon="6.83925">
        <ele>1830.3</ele>
        <time>2026-03-23T08:23:23Z</time>
      </trkpt>
      <trkpt lat="44.73835" lon="6.83925">
        <ele>1830.3</ele>
        <time>2026-03-23T08:23:24Z</time>
      </trkpt>
      <trkpt lat="44.73835" lon="6.83925">
        <ele>1830.3</ele>
        <time>2026-03-23T08:23:25Z</time>
      </trkpt>
      <trkpt lat="44.73835" lon="6.83925">
        <ele>1830.3</ele>
        <time>2026-03-23T08:23:26Z</time>
      </trkpt>
      <trkpt lat="44.73835" lon="6.83925">
        <ele>1830.3</ele>
        <time>2026-03-23T08:23:27Z</time>
      </trkpt>
      <trkpt lat="44.73835" lon="6.83925">
        <ele>1830.3</ele>
        <time>2026-03-23T08:23:28Z</time>
      </trkpt>
      <trkpt lat="44.73835" lon="6.83925">
        <ele>1830.3</ele>
        <time>2026-03-23T08:23:29Z</time>
      </trkpt>
      <trkpt lat="44.73835" lon="6.83926">
        <ele>1830.3</ele>
        <time>2026-03-23T08:23:30Z</time>
      </trkpt>
      <trkpt lat="44.73835" lon="6.83926">
        <ele>1830.3</ele>
        <time>2026-03-23T08:23:31Z</time>
      </trkpt>
      <trkpt lat="44.73835" lon="6.83926">
        <ele>1830.3</ele>
        <time>2026-03-23T08:23:32Z</time>
      </trkpt>
      <trkpt lat="44.73836" lon="6.83926">
        <ele>1830.3</ele>
        <time>2026-03-23T08:23:33Z</time>
      </trkpt>
      <trkpt lat="44.73836" lon="6.83926">
        <ele>1830.3</ele>
        <time>2026-03-23T08:23:34Z</time>
      </trkpt>
      <trkpt lat="44.73836" lon="6.83926">
        <ele>1830.3</ele>
        <time>2026-03-23T08:23:35Z</time>
      </trkpt>
      <trkpt lat="44.73836" lon="6.83926">
        <ele>1830.3</ele>
        <time>2026-03-23T08:23:36Z</time>
      </trkpt>
      <trkpt lat="44.73836" lon="6.83926">
        <ele>1830.3</ele>
        <time>2026-03-23T08:23:37Z</time>
      </trkpt>
      <trkpt lat="44.73836" lon="6.83926">
        <ele>1830.3</ele>
        <time>2026-03-23T08:23:38Z</time>
      </trkpt>
      <trkpt lat="44.73836" lon="6.83926">
        <ele>1830.3</ele>
        <time>2026-03-23T08:23:39Z</time>
      </trkpt>
      <trkpt lat="44.73836" lon="6.83926">
        <ele>1830.3</ele>
        <time>2026-03-23T08:23:40Z</time>
      </trkpt>
      <trkpt lat="44.73836" lon="6.83926">
        <ele>1830.3</ele>
        <time>2026-03-23T08:23:41Z</time>
      </trkpt>
      <trkpt lat="44.73836" lon="6.83926">
        <ele>1830.3</ele>
        <time>2026-03-23T08:23:42Z</time>
      </trkpt>
      <trkpt lat="44.73836" lon="6.83926">
        <ele>1830.3</ele>
        <time>2026-03-23T08:23:43Z</time>
      </trkpt>
      <trkpt lat="44.73837" lon="6.83926">
        <ele>1830.3</ele>
        <time>2026-03-23T08:23:44Z</time>
      </trkpt>
      <trkpt lat="44.73837" lon="6.83926">
        <ele>1830.3</ele>
        <time>2026-03-23T08:23:45Z</time>
      </trkpt>
      <trkpt lat="44.73837" lon="6.83925">
        <ele>1830.3</ele>
        <time>2026-03-23T08:23:46Z</time>
      </trkpt>
      <trkpt lat="44.73837" lon="6.83925">
        <ele>1830.3</ele>
        <time>2026-03-23T08:23:47Z</time>
      </trkpt>
      <trkpt lat="44.73838" lon="6.83925">
        <ele>1830.3</ele>
        <time>2026-03-23T08:23:48Z</time>
      </trkpt>
      <trkpt lat="44.73838" lon="6.83925">
        <ele>1830.3</ele>
        <time>2026-03-23T08:23:49Z</time>
      </trkpt>
      <trkpt lat="44.73838" lon="6.83925">
        <ele>1830.3</ele>
        <time>2026-03-23T08:23:50Z</time>
      </trkpt>
      <trkpt lat="44.73837" lon="6.83925">
        <ele>1830.3</ele>
        <time>2026-03-23T08:23:51Z</time>
      </trkpt>
      <trkpt lat="44.73837" lon="6.83925">
        <ele>1830.3</ele>
        <time>2026-03-23T08:23:52Z</time>
      </trkpt>
      <trkpt lat="44.73837" lon="6.83925">
        <ele>1830.3</ele>
        <time>2026-03-23T08:23:53Z</time>
      </trkpt>
      <trkpt lat="44.73837" lon="6.83925">
        <ele>1830.3</ele>
        <time>2026-03-23T08:23:54Z</time>
      </trkpt>
      <trkpt lat="44.73837" lon="6.83925">
        <ele>1830.3</ele>
        <time>2026-03-23T08:23:55Z</time>
      </trkpt>
      <trkpt lat="44.73838" lon="6.83926">
        <ele>1830.3</ele>
        <time>2026-03-23T08:23:56Z</time>
      </trkpt>
      <trkpt lat="44.73838" lon="6.83926">
        <ele>1830.3</ele>
        <time>2026-03-23T08:23:57Z</time>
      </trkpt>
      <trkpt lat="44.73839" lon="6.83926">
        <ele>1830.3</ele>
        <time>2026-03-23T08:23:58Z</time>
      </trkpt>
      <trkpt lat="44.73839" lon="6.83925">
        <ele>1830.3</ele>
        <time>2026-03-23T08:23:59Z</time>
      </trkpt>
      <trkpt lat="44.73839" lon="6.83925">
        <ele>1830.3</ele>
        <time>2026-03-23T08:24:00Z</time>
      </trkpt>
      <trkpt lat="44.73838" lon="6.83925">
        <ele>1830.3</ele>
        <time>2026-03-23T08:24:01Z</time>
      </trkpt>
      <trkpt lat="44.73838" lon="6.83925">
        <ele>1830.3</ele>
        <time>2026-03-23T08:24:02Z</time>
      </trkpt>
      <trkpt lat="44.73838" lon="6.83925">
        <ele>1830.3</ele>
        <time>2026-03-23T08:24:03Z</time>
      </trkpt>
      <trkpt lat="44.73838" lon="6.83925">
        <ele>1830.3</ele>
        <time>2026-03-23T08:24:04Z</time>
      </trkpt>
      <trkpt lat="44.73838" lon="6.83925">
        <ele>1830.3</ele>
        <time>2026-03-23T08:24:05Z</time>
      </trkpt>
      <trkpt lat="44.73838" lon="6.83925">
        <ele>1830.3</ele>
        <time>2026-03-23T08:24:06Z</time>
      </trkpt>
      <trkpt lat="44.73838" lon="6.83926">
        <ele>1830.3</ele>
        <time>2026-03-23T08:24:07Z</time>
      </trkpt>
      <trkpt lat="44.73838" lon="6.83926">
        <ele>1830.3</ele>
        <time>2026-03-23T08:24:08Z</time>
      </trkpt>
      <trkpt lat="44.73838" lon="6.83926">
        <ele>1830.3</ele>
        <time>2026-03-23T08:24:09Z</time>
      </trkpt>
      <trkpt lat="44.73838" lon="6.83926">
        <ele>1830.3</ele>
        <time>2026-03-23T08:24:10Z</time>
      </trkpt>
      <trkpt lat="44.73838" lon="6.83926">
        <ele>1830.3</ele>
        <time>2026-03-23T08:24:11Z</time>
      </trkpt>
      <trkpt lat="44.73838" lon="6.83926">
        <ele>1830.3</ele>
        <time>2026-03-23T08:24:12Z</time>
      </trkpt>
      <trkpt lat="44.73838" lon="6.83926">
        <ele>1830.3</ele>
        <time>2026-03-23T08:24:13Z</time>
      </trkpt>
      <trkpt lat="44.73838" lon="6.83926">
        <ele>1830.3</ele>
        <time>2026-03-23T08:24:14Z</time>
      </trkpt>
      <trkpt lat="44.73838" lon="6.83926">
        <ele>1830.3</ele>
        <time>2026-03-23T08:24:15Z</time>
      </trkpt>
      <trkpt lat="44.73838" lon="6.83926">
        <ele>1830.3</ele>
        <time>2026-03-23T08:24:16Z</time>
      </trkpt>
      <trkpt lat="44.73838" lon="6.83926">
        <ele>1830.3</ele>
        <time>2026-03-23T08:24:17Z</time>
      </trkpt>
      <trkpt lat="44.73838" lon="6.83926">
        <ele>1830.3</ele>
        <time>2026-03-23T08:24:18Z</time>
      </trkpt>
      <trkpt lat="44.73837" lon="6.83926">
        <ele>1830.3</ele>
        <time>2026-03-23T08:24:19Z</time>
      </trkpt>
      <trkpt lat="44.73837" lon="6.83926">
        <ele>1830.3</ele>
        <time>2026-03-23T08:24:20Z</time>
      </trkpt>
      <trkpt lat="44.73837" lon="6.83926">
        <ele>1830.3</ele>
        <time>2026-03-23T08:24:21Z</time>
      </trkpt>
      <trkpt lat="44.73837" lon="6.83926">
        <ele>1830.3</ele>
        <time>2026-03-23T08:24:22Z</time>
      </trkpt>
      <trkpt lat="44.73836" lon="6.83926">
        <ele>1830.3</ele>
        <time>2026-03-23T08:24:24Z</time>
      </trkpt>
      <trkpt lat="44.73836" lon="6.83925">
        <ele>1830.3</ele>
        <time>2026-03-23T08:24:25Z</time>
      </trkpt>
      <trkpt lat="44.73835" lon="6.83925">
        <ele>1830.3</ele>
        <time>2026-03-23T08:24:26Z</time>
      </trkpt>
      <trkpt lat="44.73835" lon="6.83925">
        <ele>1830.3</ele>
        <time>2026-03-23T08:24:27Z</time>
      </trkpt>
      <trkpt lat="44.73835" lon="6.83925">
        <ele>1830.3</ele>
        <time>2026-03-23T08:24:28Z</time>
      </trkpt>
      <trkpt lat="44.73834" lon="6.83925">
        <ele>1830.3</ele>
        <time>2026-03-23T08:24:29Z</time>
      </trkpt>
      <trkpt lat="44.73834" lon="6.83925">
        <ele>1830.3</ele>
        <time>2026-03-23T08:24:30Z</time>
      </trkpt>
      <trkpt lat="44.73834" lon="6.83925">
        <ele>1830.3</ele>
        <time>2026-03-23T08:24:31Z</time>
      </trkpt>
      <trkpt lat="44.73834" lon="6.83925">
        <ele>1830.3</ele>
        <time>2026-03-23T08:24:32Z</time>
      </trkpt>
      <trkpt lat="44.73834" lon="6.83925">
        <ele>1830.3</ele>
        <time>2026-03-23T08:24:33Z</time>
      </trkpt>
      <trkpt lat="44.73834" lon="6.83925">
        <ele>1830.3</ele>
        <time>2026-03-23T08:24:34Z</time>
      </trkpt>
      <trkpt lat="44.73834" lon="6.83925">
        <ele>1830.3</ele>
        <time>2026-03-23T08:24:35Z</time>
      </trkpt>
      <trkpt lat="44.73834" lon="6.83925">
        <ele>1830.3</ele>
        <time>2026-03-23T08:24:36Z</time>
      </trkpt>
      <trkpt lat="44.73834" lon="6.83926">
        <ele>1830.3</ele>
        <time>2026-03-23T08:24:37Z</time>
      </trkpt>
      <trkpt lat="44.73834" lon="6.83926">
        <ele>1830.3</ele>
        <time>2026-03-23T08:24:38Z</time>
      </trkpt>
      <trkpt lat="44.73834" lon="6.83926">
        <ele>1830.3</ele>
        <time>2026-03-23T08:24:39Z</time>
      </trkpt>
      <trkpt lat="44.73834" lon="6.83926">
        <ele>1830.3</ele>
        <time>2026-03-23T08:24:40Z</time>
      </trkpt>
      <trkpt lat="44.73834" lon="6.83926">
        <ele>1830.3</ele>
        <time>2026-03-23T08:24:41Z</time>
      </trkpt>
      <trkpt lat="44.73834" lon="6.83926">
        <ele>1830.3</ele>
        <time>2026-03-23T08:24:42Z</time>
      </trkpt>
      <trkpt lat="44.73834" lon="6.83926">
        <ele>1830.3</ele>
        <time>2026-03-23T08:24:43Z</time>
      </trkpt>
      <trkpt lat="44.73834" lon="6.83926">
        <ele>1830.3</ele>
        <time>2026-03-23T08:24:44Z</time>
      </trkpt>
      <trkpt lat="44.73834" lon="6.83926">
        <ele>1830.3</ele>
        <time>2026-03-23T08:24:45Z</time>
      </trkpt>
      <trkpt lat="44.73835" lon="6.83926">
        <ele>1830.3</ele>
        <time>2026-03-23T08:24:46Z</time>
      </trkpt>
      <trkpt lat="44.73835" lon="6.83926">
        <ele>1830.3</ele>
        <time>2026-03-23T08:24:47Z</time>
      </trkpt>
      <trkpt lat="44.73835" lon="6.83926">
        <ele>1830.3</ele>
        <time>2026-03-23T08:24:48Z</time>
      </trkpt>
      <trkpt lat="44.73836" lon="6.83926">
        <ele>1830.3</ele>
        <time>2026-03-23T08:24:49Z</time>
      </trkpt>
      <trkpt lat="44.73837" lon="6.83926">
        <ele>1830.3</ele>
        <time>2026-03-23T08:24:50Z</time>
      </trkpt>
      <trkpt lat="44.73838" lon="6.83925">
        <ele>1830.3</ele>
        <time>2026-03-23T08:24:51Z</time>
      </trkpt>
      <trkpt lat="44.73839" lon="6.83925">
        <ele>1830.3</ele>
        <time>2026-03-23T08:24:52Z</time>
      </trkpt>
      <trkpt lat="44.73839" lon="6.83925">
        <ele>1830.3</ele>
        <time>2026-03-23T08:24:53Z</time>
      </trkpt>
      <trkpt lat="44.73839" lon="6.83925">
        <ele>1830.3</ele>
        <time>2026-03-23T08:24:54Z</time>
      </trkpt>
      <trkpt lat="44.73839" lon="6.83925">
        <ele>1830.3</ele>
        <time>2026-03-23T08:24:55Z</time>
      </trkpt>
      <trkpt lat="44.73839" lon="6.83925">
        <ele>1830.3</ele>
        <time>2026-03-23T08:24:56Z</time>
      </trkpt>
      <trkpt lat="44.73839" lon="6.83925">
        <ele>1830.3</ele>
        <time>2026-03-23T08:24:58Z</time>
      </trkpt>
      <trkpt lat="44.73839" lon="6.83925">
        <ele>1830.3</ele>
        <time>2026-03-23T08:24:59Z</time>
      </trkpt>
      <trkpt lat="44.73839" lon="6.83925">
        <ele>1830.3</ele>
        <time>2026-03-23T08:25:00Z</time>
      </trkpt>
      <trkpt lat="44.73839" lon="6.83925">
        <ele>1830.3</ele>
        <time>2026-03-23T08:25:01Z</time>
      </trkpt>
      <trkpt lat="44.73839" lon="6.83925">
        <ele>1830.3</ele>
        <time>2026-03-23T08:25:02Z</time>
      </trkpt>
      <trkpt lat="44.73839" lon="6.83925">
        <ele>1830.3</ele>
        <time>2026-03-23T08:25:03Z</time>
      </trkpt>
      <trkpt lat="44.73839" lon="6.83925">
        <ele>1830.3</ele>
        <time>2026-03-23T08:25:04Z</time>
      </trkpt>
      <trkpt lat="44.7384" lon="6.83925">
        <ele>1830.3</ele>
        <time>2026-03-23T08:25:05Z</time>
      </trkpt>
      <trkpt lat="44.7384" lon="6.83925">
        <ele>1830.3</ele>
        <time>2026-03-23T08:25:06Z</time>
      </trkpt>
      <trkpt lat="44.7384" lon="6.83925">
        <ele>1830.3</ele>
        <time>2026-03-23T08:25:07Z</time>
      </trkpt>
      <trkpt lat="44.7384" lon="6.83924">
        <ele>1830.3</ele>
        <time>2026-03-23T08:25:08Z</time>
      </trkpt>
      <trkpt lat="44.7384" lon="6.83924">
        <ele>1830.3</ele>
        <time>2026-03-23T08:25:10Z</time>
      </trkpt>
      <trkpt lat="44.7384" lon="6.83923">
        <ele>1830.3</ele>
        <time>2026-03-23T08:25:11Z</time>
      </trkpt>
      <trkpt lat="44.7384" lon="6.83923">
        <ele>1830.3</ele>
        <time>2026-03-23T08:25:12Z</time>
      </trkpt>
      <trkpt lat="44.7384" lon="6.83922">
        <ele>1830.3</ele>
        <time>2026-03-23T08:25:13Z</time>
      </trkpt>
      <trkpt lat="44.73841" lon="6.83921">
        <ele>1830.3</ele>
        <time>2026-03-23T08:25:14Z</time>
      </trkpt>
      <trkpt lat="44.73841" lon="6.8392">
        <ele>1830.3</ele>
        <time>2026-03-23T08:25:15Z</time>
      </trkpt>
      <trkpt lat="44.7384" lon="6.83919">
        <ele>1830.3</ele>
        <time>2026-03-23T08:25:16Z</time>
      </trkpt>
      <trkpt lat="44.73841" lon="6.83919">
        <ele>1830.3</ele>
        <time>2026-03-23T08:25:17Z</time>
      </trkpt>
      <trkpt lat="44.7384" lon="6.83919">
        <ele>1830.3</ele>
        <time>2026-03-23T08:25:18Z</time>
      </trkpt>
      <trkpt lat="44.7384" lon="6.83919">
        <ele>1830.3</ele>
        <time>2026-03-23T08:25:19Z</time>
      </trkpt>
      <trkpt lat="44.7384" lon="6.83919">
        <ele>1830.3</ele>
        <time>2026-03-23T08:25:20Z</time>
      </trkpt>
      <trkpt lat="44.7384" lon="6.83919">
        <ele>1830.3</ele>
        <time>2026-03-23T08:25:21Z</time>
      </trkpt>
      <trkpt lat="44.7384" lon="6.83919">
        <ele>1830.3</ele>
        <time>2026-03-23T08:25:22Z</time>
      </trkpt>
      <trkpt lat="44.7384" lon="6.83919">
        <ele>1830.3</ele>
        <time>2026-03-23T08:25:23Z</time>
      </trkpt>
      <trkpt lat="44.7384" lon="6.83919">
        <ele>1830.3</ele>
        <time>2026-03-23T08:25:24Z</time>
      </trkpt>
      <trkpt lat="44.7384" lon="6.83919">
        <ele>1830.3</ele>
        <time>2026-03-23T08:25:25Z</time>
      </trkpt>
      <trkpt lat="44.7384" lon="6.83919">
        <ele>1830.3</ele>
        <time>2026-03-23T08:25:26Z</time>
      </trkpt>
      <trkpt lat="44.7384" lon="6.8392">
        <ele>1830.3</ele>
        <time>2026-03-23T08:25:27Z</time>
      </trkpt>
      <trkpt lat="44.73839" lon="6.83921">
        <ele>1830.3</ele>
        <time>2026-03-23T08:25:28Z</time>
      </trkpt>
      <trkpt lat="44.73839" lon="6.83922">
        <ele>1830.3</ele>
        <time>2026-03-23T08:25:29Z</time>
      </trkpt>
      <trkpt lat="44.73839" lon="6.83923">
        <ele>1830.3</ele>
        <time>2026-03-23T08:25:30Z</time>
      </trkpt>
      <trkpt lat="44.73838" lon="6.83924">
        <ele>1830.3</ele>
        <time>2026-03-23T08:25:31Z</time>
      </trkpt>
      <trkpt lat="44.73838" lon="6.83924">
        <ele>1830.3</ele>
        <time>2026-03-23T08:25:32Z</time>
      </trkpt>
      <trkpt lat="44.73838" lon="6.83924">
        <ele>1830.3</ele>
        <time>2026-03-23T08:25:33Z</time>
      </trkpt>
      <trkpt lat="44.73838" lon="6.83924">
        <ele>1830.3</ele>
        <time>2026-03-23T08:25:34Z</time>
      </trkpt>
      <trkpt lat="44.73838" lon="6.83924">
        <ele>1830.3</ele>
        <time>2026-03-23T08:25:35Z</time>
      </trkpt>
      <trkpt lat="44.73838" lon="6.83925">
        <ele>1830.3</ele>
        <time>2026-03-23T08:25:36Z</time>
      </trkpt>
      <trkpt lat="44.73838" lon="6.83925">
        <ele>1830.3</ele>
        <time>2026-03-23T08:25:38Z</time>
      </trkpt>
      <trkpt lat="44.73838" lon="6.83926">
        <ele>1830.3</ele>
        <time>2026-03-23T08:25:39Z</time>
      </trkpt>
      <trkpt lat="44.73838" lon="6.83926">
        <ele>1830.3</ele>
        <time>2026-03-23T08:25:40Z</time>
      </trkpt>
      <trkpt lat="44.73836" lon="6.83928">
        <ele>1830.3</ele>
        <time>2026-03-23T08:25:41Z</time>
      </trkpt>
      <trkpt lat="44.73836" lon="6.83928">
        <ele>1830.3</ele>
        <time>2026-03-23T08:25:42Z</time>
      </trkpt>
      <trkpt lat="44.73836" lon="6.83928">
        <ele>1830.3</ele>
        <time>2026-03-23T08:25:43Z</time>
      </trkpt>
      <trkpt lat="44.73835" lon="6.83928">
        <ele>1830.3</ele>
        <time>2026-03-23T08:25:44Z</time>
      </trkpt>
      <trkpt lat="44.73835" lon="6.83929">
        <ele>1830.3</ele>
        <time>2026-03-23T08:25:45Z</time>
      </trkpt>
      <trkpt lat="44.73834" lon="6.83929">
        <ele>1830.3</ele>
        <time>2026-03-23T08:25:46Z</time>
      </trkpt>
      <trkpt lat="44.73832" lon="6.8393">
        <ele>1830.3</ele>
        <time>2026-03-23T08:25:47Z</time>
      </trkpt>
      <trkpt lat="44.73832" lon="6.83931">
        <ele>1830.3</ele>
        <time>2026-03-23T08:25:48Z</time>
      </trkpt>
      <trkpt lat="44.73832" lon="6.83931">
        <ele>1830.3</ele>
        <time>2026-03-23T08:25:49Z</time>
      </trkpt>
      <trkpt lat="44.73832" lon="6.83931">
        <ele>1830.3</ele>
        <time>2026-03-23T08:25:50Z</time>
      </trkpt>
      <trkpt lat="44.73832" lon="6.83931">
        <ele>1830.3</ele>
        <time>2026-03-23T08:25:51Z</time>
      </trkpt>
      <trkpt lat="44.73832" lon="6.83931">
        <ele>1830.3</ele>
        <time>2026-03-23T08:25:52Z</time>
      </trkpt>
      <trkpt lat="44.73832" lon="6.83931">
        <ele>1830.3</ele>
        <time>2026-03-23T08:25:53Z</time>
      </trkpt>
      <trkpt lat="44.73832" lon="6.83931">
        <ele>1830.3</ele>
        <time>2026-03-23T08:25:54Z</time>
      </trkpt>
      <trkpt lat="44.73833" lon="6.8393">
        <ele>1830.3</ele>
        <time>2026-03-23T08:25:55Z</time>
      </trkpt>
      <trkpt lat="44.73833" lon="6.8393">
        <ele>1830.3</ele>
        <time>2026-03-23T08:25:56Z</time>
      </trkpt>
      <trkpt lat="44.73833" lon="6.83929">
        <ele>1830.3</ele>
        <time>2026-03-23T08:25:57Z</time>
      </trkpt>
      <trkpt lat="44.73833" lon="6.83929">
        <ele>1830.3</ele>
        <time>2026-03-23T08:25:58Z</time>
      </trkpt>
      <trkpt lat="44.73834" lon="6.83929">
        <ele>1830.3</ele>
        <time>2026-03-23T08:25:59Z</time>
      </trkpt>
      <trkpt lat="44.73834" lon="6.83929">
        <ele>1830.3</ele>
        <time>2026-03-23T08:26:00Z</time>
      </trkpt>
      <trkpt lat="44.73834" lon="6.83929">
        <ele>1830.3</ele>
        <time>2026-03-23T08:26:01Z</time>
      </trkpt>
      <trkpt lat="44.73834" lon="6.83929">
        <ele>1830.3</ele>
        <time>2026-03-23T08:26:02Z</time>
      </trkpt>
      <trkpt lat="44.73834" lon="6.83929">
        <ele>1830.3</ele>
        <time>2026-03-23T08:26:03Z</time>
      </trkpt>
      <trkpt lat="44.73834" lon="6.83929">
        <ele>1830.3</ele>
        <time>2026-03-23T08:26:04Z</time>
      </trkpt>
      <trkpt lat="44.73834" lon="6.83929">
        <ele>1830.3</ele>
        <time>2026-03-23T08:26:05Z</time>
      </trkpt>
      <trkpt lat="44.73834" lon="6.83929">
        <ele>1830.3</ele>
        <time>2026-03-23T08:26:06Z</time>
      </trkpt>
      <trkpt lat="44.73834" lon="6.83928">
        <ele>1830.3</ele>
        <time>2026-03-23T08:26:07Z</time>
      </trkpt>
      <trkpt lat="44.73834" lon="6.83928">
        <ele>1830.3</ele>
        <time>2026-03-23T08:26:08Z</time>
      </trkpt>
      <trkpt lat="44.73834" lon="6.83928">
        <ele>1830.3</ele>
        <time>2026-03-23T08:26:09Z</time>
      </trkpt>
      <trkpt lat="44.73834" lon="6.83928">
        <ele>1830.3</ele>
        <time>2026-03-23T08:26:10Z</time>
      </trkpt>
      <trkpt lat="44.73834" lon="6.83928">
        <ele>1830.3</ele>
        <time>2026-03-23T08:26:11Z</time>
      </trkpt>
      <trkpt lat="44.73834" lon="6.83929">
        <ele>1830.3</ele>
        <time>2026-03-23T08:26:12Z</time>
      </trkpt>
      <trkpt lat="44.73834" lon="6.83929">
        <ele>1830.2</ele>
        <time>2026-03-23T08:26:13Z</time>
      </trkpt>
      <trkpt lat="44.73834" lon="6.83929">
        <ele>1830.2</ele>
        <time>2026-03-23T08:26:14Z</time>
      </trkpt>
      <trkpt lat="44.73834" lon="6.83929">
        <ele>1830.2</ele>
        <time>2026-03-23T08:26:15Z</time>
      </trkpt>
      <trkpt lat="44.73834" lon="6.83929">
        <ele>1830.2</ele>
        <time>2026-03-23T08:26:16Z</time>
      </trkpt>
      <trkpt lat="44.73834" lon="6.83929">
        <ele>1830.2</ele>
        <time>2026-03-23T08:26:17Z</time>
      </trkpt>
      <trkpt lat="44.73834" lon="6.83929">
        <ele>1830.2</ele>
        <time>2026-03-23T08:26:18Z</time>
      </trkpt>
      <trkpt lat="44.73834" lon="6.83929">
        <ele>1830.2</ele>
        <time>2026-03-23T08:26:19Z</time>
      </trkpt>
      <trkpt lat="44.73834" lon="6.83929">
        <ele>1830.2</ele>
        <time>2026-03-23T08:26:20Z</time>
      </trkpt>
      <trkpt lat="44.73833" lon="6.83929">
        <ele>1830.2</ele>
        <time>2026-03-23T08:26:21Z</time>
      </trkpt>
      <trkpt lat="44.73833" lon="6.83929">
        <ele>1830.2</ele>
        <time>2026-03-23T08:26:22Z</time>
      </trkpt>
      <trkpt lat="44.73833" lon="6.83929">
        <ele>1830.2</ele>
        <time>2026-03-23T08:26:23Z</time>
      </trkpt>
      <trkpt lat="44.73833" lon="6.83928">
        <ele>1830.2</ele>
        <time>2026-03-23T08:26:24Z</time>
      </trkpt>
      <trkpt lat="44.73833" lon="6.83928">
        <ele>1830.2</ele>
        <time>2026-03-23T08:26:25Z</time>
      </trkpt>
      <trkpt lat="44.73833" lon="6.83928">
        <ele>1830.2</ele>
        <time>2026-03-23T08:26:26Z</time>
      </trkpt>
      <trkpt lat="44.73833" lon="6.83928">
        <ele>1830.2</ele>
        <time>2026-03-23T08:26:27Z</time>
      </trkpt>
      <trkpt lat="44.73833" lon="6.83928">
        <ele>1830.2</ele>
        <time>2026-03-23T08:26:28Z</time>
      </trkpt>
      <trkpt lat="44.73833" lon="6.83928">
        <ele>1830.2</ele>
        <time>2026-03-23T08:26:29Z</time>
      </trkpt>
      <trkpt lat="44.73833" lon="6.83928">
        <ele>1830.2</ele>
        <time>2026-03-23T08:26:30Z</time>
      </trkpt>
      <trkpt lat="44.73833" lon="6.83928">
        <ele>1830.2</ele>
        <time>2026-03-23T08:26:31Z</time>
      </trkpt>
      <trkpt lat="44.73833" lon="6.83928">
        <ele>1830.2</ele>
        <time>2026-03-23T08:26:32Z</time>
      </trkpt>
      <trkpt lat="44.73833" lon="6.83928">
        <ele>1830.2</ele>
        <time>2026-03-23T08:26:33Z</time>
      </trkpt>
      <trkpt lat="44.73833" lon="6.83928">
        <ele>1830.2</ele>
        <time>2026-03-23T08:26:34Z</time>
      </trkpt>
      <trkpt lat="44.73833" lon="6.83928">
        <ele>1830.2</ele>
        <time>2026-03-23T08:26:35Z</time>
      </trkpt>
      <trkpt lat="44.73833" lon="6.83928">
        <ele>1830.2</ele>
        <time>2026-03-23T08:26:36Z</time>
      </trkpt>
      <trkpt lat="44.73833" lon="6.83928">
        <ele>1830.2</ele>
        <time>2026-03-23T08:26:37Z</time>
      </trkpt>
      <trkpt lat="44.73833" lon="6.83928">
        <ele>1830.2</ele>
        <time>2026-03-23T08:26:38Z</time>
      </trkpt>
      <trkpt lat="44.73833" lon="6.83928">
        <ele>1830.2</ele>
        <time>2026-03-23T08:26:39Z</time>
      </trkpt>
      <trkpt lat="44.73833" lon="6.83928">
        <ele>1830.2</ele>
        <time>2026-03-23T08:26:40Z</time>
      </trkpt>
      <trkpt lat="44.73833" lon="6.83928">
        <ele>1830.2</ele>
        <time>2026-03-23T08:26:41Z</time>
      </trkpt>
      <trkpt lat="44.73833" lon="6.83928">
        <ele>1830.2</ele>
        <time>2026-03-23T08:26:42Z</time>
      </trkpt>
      <trkpt lat="44.73833" lon="6.83928">
        <ele>1830.2</ele>
        <time>2026-03-23T08:26:43Z</time>
      </trkpt>
      <trkpt lat="44.73833" lon="6.83928">
        <ele>1830.2</ele>
        <time>2026-03-23T08:26:44Z</time>
      </trkpt>
      <trkpt lat="44.73832" lon="6.83927">
        <ele>1830.2</ele>
        <time>2026-03-23T08:26:45Z</time>
      </trkpt>
      <trkpt lat="44.73832" lon="6.83926">
        <ele>1830.2</ele>
        <time>2026-03-23T08:26:46Z</time>
      </trkpt>
      <trkpt lat="44.73832" lon="6.83927">
        <ele>1830.2</ele>
        <time>2026-03-23T08:26:47Z</time>
      </trkpt>
      <trkpt lat="44.73832" lon="6.83927">
        <ele>1830.2</ele>
        <time>2026-03-23T08:26:48Z</time>
      </trkpt>
      <trkpt lat="44.73832" lon="6.83927">
        <ele>1830.2</ele>
        <time>2026-03-23T08:26:49Z</time>
      </trkpt>
      <trkpt lat="44.73832" lon="6.83927">
        <ele>1830.2</ele>
        <time>2026-03-23T08:26:50Z</time>
      </trkpt>
      <trkpt lat="44.73832" lon="6.83927">
        <ele>1830.2</ele>
        <time>2026-03-23T08:26:51Z</time>
      </trkpt>
      <trkpt lat="44.73832" lon="6.83927">
        <ele>1830.2</ele>
        <time>2026-03-23T08:26:52Z</time>
      </trkpt>
      <trkpt lat="44.73832" lon="6.83927">
        <ele>1830.2</ele>
        <time>2026-03-23T08:26:53Z</time>
      </trkpt>
      <trkpt lat="44.73832" lon="6.83926">
        <ele>1830.2</ele>
        <time>2026-03-23T08:26:54Z</time>
      </trkpt>
      <trkpt lat="44.73832" lon="6.83926">
        <ele>1830.2</ele>
        <time>2026-03-23T08:26:55Z</time>
      </trkpt>
      <trkpt lat="44.73832" lon="6.83926">
        <ele>1830.2</ele>
        <time>2026-03-23T08:26:56Z</time>
      </trkpt>
      <trkpt lat="44.73832" lon="6.83926">
        <ele>1830.2</ele>
        <time>2026-03-23T08:26:57Z</time>
      </trkpt>
      <trkpt lat="44.73832" lon="6.83926">
        <ele>1830.2</ele>
        <time>2026-03-23T08:26:58Z</time>
      </trkpt>
      <trkpt lat="44.73832" lon="6.83926">
        <ele>1830.2</ele>
        <time>2026-03-23T08:26:59Z</time>
      </trkpt>
      <trkpt lat="44.73831" lon="6.83926">
        <ele>1830.2</ele>
        <time>2026-03-23T08:27:00Z</time>
      </trkpt>
      <trkpt lat="44.73831" lon="6.83926">
        <ele>1830.2</ele>
        <time>2026-03-23T08:27:01Z</time>
      </trkpt>
      <trkpt lat="44.73831" lon="6.83926">
        <ele>1830.2</ele>
        <time>2026-03-23T08:27:02Z</time>
      </trkpt>
      <trkpt lat="44.73831" lon="6.83926">
        <ele>1830.2</ele>
        <time>2026-03-23T08:27:03Z</time>
      </trkpt>
      <trkpt lat="44.73831" lon="6.83926">
        <ele>1830.2</ele>
        <time>2026-03-23T08:27:04Z</time>
      </trkpt>
      <trkpt lat="44.73832" lon="6.83926">
        <ele>1830.2</ele>
        <time>2026-03-23T08:27:05Z</time>
      </trkpt>
      <trkpt lat="44.73832" lon="6.83926">
        <ele>1830.2</ele>
        <time>2026-03-23T08:27:06Z</time>
      </trkpt>
      <trkpt lat="44.73832" lon="6.83926">
        <ele>1830.2</ele>
        <time>2026-03-23T08:27:07Z</time>
      </trkpt>
      <trkpt lat="44.73832" lon="6.83926">
        <ele>1830.2</ele>
        <time>2026-03-23T08:27:08Z</time>
      </trkpt>
      <trkpt lat="44.73832" lon="6.83926">
        <ele>1830.2</ele>
        <time>2026-03-23T08:27:09Z</time>
      </trkpt>
      <trkpt lat="44.73832" lon="6.83926">
        <ele>1830.2</ele>
        <time>2026-03-23T08:27:10Z</time>
      </trkpt>
      <trkpt lat="44.73832" lon="6.83926">
        <ele>1830.2</ele>
        <time>2026-03-23T08:27:11Z</time>
      </trkpt>
      <trkpt lat="44.73832" lon="6.83926">
        <ele>1830.2</ele>
        <time>2026-03-23T08:27:12Z</time>
      </trkpt>
      <trkpt lat="44.73832" lon="6.83926">
        <ele>1830.2</ele>
        <time>2026-03-23T08:27:13Z</time>
      </trkpt>
      <trkpt lat="44.73832" lon="6.83926">
        <ele>1830.2</ele>
        <time>2026-03-23T08:27:14Z</time>
      </trkpt>
      <trkpt lat="44.73832" lon="6.83926">
        <ele>1830.2</ele>
        <time>2026-03-23T08:27:15Z</time>
      </trkpt>
      <trkpt lat="44.73832" lon="6.83926">
        <ele>1830.2</ele>
        <time>2026-03-23T08:27:16Z</time>
      </trkpt>
      <trkpt lat="44.73832" lon="6.83926">
        <ele>1830.2</ele>
        <time>2026-03-23T08:27:17Z</time>
      </trkpt>
      <trkpt lat="44.73832" lon="6.83926">
        <ele>1830.2</ele>
        <time>2026-03-23T08:27:18Z</time>
      </trkpt>
      <trkpt lat="44.73832" lon="6.83926">
        <ele>1830.2</ele>
        <time>2026-03-23T08:27:19Z</time>
      </trkpt>
      <trkpt lat="44.73832" lon="6.83926">
        <ele>1830.2</ele>
        <time>2026-03-23T08:27:20Z</time>
      </trkpt>
      <trkpt lat="44.73832" lon="6.83926">
        <ele>1830.2</ele>
        <time>2026-03-23T08:27:21Z</time>
      </trkpt>
      <trkpt lat="44.73832" lon="6.83926">
        <ele>1830.2</ele>
        <time>2026-03-23T08:27:22Z</time>
      </trkpt>
      <trkpt lat="44.73832" lon="6.83926">
        <ele>1830.2</ele>
        <time>2026-03-23T08:27:23Z</time>
      </trkpt>
      <trkpt lat="44.73832" lon="6.83926">
        <ele>1830.2</ele>
        <time>2026-03-23T08:27:24Z</time>
      </trkpt>
      <trkpt lat="44.73832" lon="6.83926">
        <ele>1830.2</ele>
        <time>2026-03-23T08:27:25Z</time>
      </trkpt>
      <trkpt lat="44.73832" lon="6.83926">
        <ele>1830.2</ele>
        <time>2026-03-23T08:27:26Z</time>
      </trkpt>
      <trkpt lat="44.73832" lon="6.83926">
        <ele>1830.2</ele>
        <time>2026-03-23T08:27:27Z</time>
      </trkpt>
      <trkpt lat="44.73832" lon="6.83926">
        <ele>1830.2</ele>
        <time>2026-03-23T08:27:28Z</time>
      </trkpt>
      <trkpt lat="44.73832" lon="6.83926">
        <ele>1830.2</ele>
        <time>2026-03-23T08:27:29Z</time>
      </trkpt>
      <trkpt lat="44.73832" lon="6.83926">
        <ele>1830.2</ele>
        <time>2026-03-23T08:27:30Z</time>
      </trkpt>
      <trkpt lat="44.73832" lon="6.83926">
        <ele>1830.2</ele>
        <time>2026-03-23T08:27:31Z</time>
      </trkpt>
      <trkpt lat="44.73831" lon="6.83926">
        <ele>1830.2</ele>
        <time>2026-03-23T08:27:32Z</time>
      </trkpt>
      <trkpt lat="44.73831" lon="6.83926">
        <ele>1830.2</ele>
        <time>2026-03-23T08:27:33Z</time>
      </trkpt>
      <trkpt lat="44.73831" lon="6.83926">
        <ele>1830.2</ele>
        <time>2026-03-23T08:27:34Z</time>
      </trkpt>
      <trkpt lat="44.73831" lon="6.83926">
        <ele>1830.2</ele>
        <time>2026-03-23T08:27:35Z</time>
      </trkpt>
      <trkpt lat="44.73831" lon="6.83925">
        <ele>1830.2</ele>
        <time>2026-03-23T08:27:36Z</time>
      </trkpt>
      <trkpt lat="44.73832" lon="6.83925">
        <ele>1830.2</ele>
        <time>2026-03-23T08:27:37Z</time>
      </trkpt>
      <trkpt lat="44.73832" lon="6.83925">
        <ele>1830.2</ele>
        <time>2026-03-23T08:27:38Z</time>
      </trkpt>
      <trkpt lat="44.73833" lon="6.83926">
        <ele>1830.2</ele>
        <time>2026-03-23T08:27:39Z</time>
      </trkpt>
      <trkpt lat="44.73833" lon="6.83926">
        <ele>1830.2</ele>
        <time>2026-03-23T08:27:40Z</time>
      </trkpt>
      <trkpt lat="44.73833" lon="6.83926">
        <ele>1830.2</ele>
        <time>2026-03-23T08:27:41Z</time>
      </trkpt>
      <trkpt lat="44.73833" lon="6.83926">
        <ele>1830.2</ele>
        <time>2026-03-23T08:27:42Z</time>
      </trkpt>
      <trkpt lat="44.73834" lon="6.83925">
        <ele>1830.2</ele>
        <time>2026-03-23T08:27:43Z</time>
      </trkpt>
      <trkpt lat="44.73834" lon="6.83925">
        <ele>1830.2</ele>
        <time>2026-03-23T08:27:44Z</time>
      </trkpt>
      <trkpt lat="44.73834" lon="6.83926">
        <ele>1830.2</ele>
        <time>2026-03-23T08:27:45Z</time>
      </trkpt>
      <trkpt lat="44.73833" lon="6.83926">
        <ele>1830.2</ele>
        <time>2026-03-23T08:27:46Z</time>
      </trkpt>
      <trkpt lat="44.73833" lon="6.83926">
        <ele>1830.2</ele>
        <time>2026-03-23T08:27:47Z</time>
      </trkpt>
      <trkpt lat="44.73833" lon="6.83926">
        <ele>1830.2</ele>
        <time>2026-03-23T08:27:48Z</time>
      </trkpt>
      <trkpt lat="44.73833" lon="6.83926">
        <ele>1830.2</ele>
        <time>2026-03-23T08:27:49Z</time>
      </trkpt>
      <trkpt lat="44.73833" lon="6.83926">
        <ele>1830.2</ele>
        <time>2026-03-23T08:27:50Z</time>
      </trkpt>
      <trkpt lat="44.73833" lon="6.83926">
        <ele>1830.2</ele>
        <time>2026-03-23T08:27:51Z</time>
      </trkpt>
      <trkpt lat="44.73833" lon="6.83926">
        <ele>1830.2</ele>
        <time>2026-03-23T08:27:52Z</time>
      </trkpt>
      <trkpt lat="44.73833" lon="6.83926">
        <ele>1830.2</ele>
        <time>2026-03-23T08:27:53Z</time>
      </trkpt>
      <trkpt lat="44.73833" lon="6.83926">
        <ele>1830.2</ele>
        <time>2026-03-23T08:27:54Z</time>
      </trkpt>
      <trkpt lat="44.73833" lon="6.83926">
        <ele>1830.2</ele>
        <time>2026-03-23T08:27:55Z</time>
      </trkpt>
      <trkpt lat="44.73833" lon="6.83926">
        <ele>1830.2</ele>
        <time>2026-03-23T08:27:56Z</time>
      </trkpt>
      <trkpt lat="44.73833" lon="6.83926">
        <ele>1830.2</ele>
        <time>2026-03-23T08:27:57Z</time>
      </trkpt>
      <trkpt lat="44.73833" lon="6.83926">
        <ele>1830.2</ele>
        <time>2026-03-23T08:27:58Z</time>
      </trkpt>
      <trkpt lat="44.73833" lon="6.83926">
        <ele>1830.2</ele>
        <time>2026-03-23T08:27:59Z</time>
      </trkpt>
      <trkpt lat="44.73833" lon="6.83926">
        <ele>1830.2</ele>
        <time>2026-03-23T08:28:00Z</time>
      </trkpt>
      <trkpt lat="44.73833" lon="6.83926">
        <ele>1830.2</ele>
        <time>2026-03-23T08:28:01Z</time>
      </trkpt>
      <trkpt lat="44.73833" lon="6.83926">
        <ele>1830.2</ele>
        <time>2026-03-23T08:28:02Z</time>
      </trkpt>
      <trkpt lat="44.73833" lon="6.83926">
        <ele>1830.2</ele>
        <time>2026-03-23T08:28:03Z</time>
      </trkpt>
      <trkpt lat="44.73833" lon="6.83926">
        <ele>1830.2</ele>
        <time>2026-03-23T08:28:04Z</time>
      </trkpt>
      <trkpt lat="44.73833" lon="6.83926">
        <ele>1830.2</ele>
        <time>2026-03-23T08:28:05Z</time>
      </trkpt>
      <trkpt lat="44.73833" lon="6.83926">
        <ele>1830.2</ele>
        <time>2026-03-23T08:28:06Z</time>
      </trkpt>
      <trkpt lat="44.73833" lon="6.83926">
        <ele>1830.2</ele>
        <time>2026-03-23T08:28:07Z</time>
      </trkpt>
      <trkpt lat="44.73833" lon="6.83926">
        <ele>1830.2</ele>
        <time>2026-03-23T08:28:08Z</time>
      </trkpt>
      <trkpt lat="44.73833" lon="6.83926">
        <ele>1830.2</ele>
        <time>2026-03-23T08:28:09Z</time>
      </trkpt>
      <trkpt lat="44.73833" lon="6.83926">
        <ele>1830.2</ele>
        <time>2026-03-23T08:28:10Z</time>
      </trkpt>
      <trkpt lat="44.73833" lon="6.83926">
        <ele>1830.2</ele>
        <time>2026-03-23T08:28:11Z</time>
      </trkpt>
      <trkpt lat="44.73833" lon="6.83926">
        <ele>1830.2</ele>
        <time>2026-03-23T08:28:12Z</time>
      </trkpt>
      <trkpt lat="44.73833" lon="6.83926">
        <ele>1830.2</ele>
        <time>2026-03-23T08:28:13Z</time>
      </trkpt>
      <trkpt lat="44.73833" lon="6.83926">
        <ele>1830.2</ele>
        <time>2026-03-23T08:28:14Z</time>
      </trkpt>
      <trkpt lat="44.73833" lon="6.83926">
        <ele>1830.2</ele>
        <time>2026-03-23T08:28:15Z</time>
      </trkpt>
      <trkpt lat="44.73833" lon="6.83926">
        <ele>1830.2</ele>
        <time>2026-03-23T08:28:16Z</time>
      </trkpt>
      <trkpt lat="44.73833" lon="6.83926">
        <ele>1830.2</ele>
        <time>2026-03-23T08:28:17Z</time>
      </trkpt>
      <trkpt lat="44.73833" lon="6.83926">
        <ele>1830.2</ele>
        <time>2026-03-23T08:28:18Z</time>
      </trkpt>
      <trkpt lat="44.73833" lon="6.83926">
        <ele>1830.2</ele>
        <time>2026-03-23T08:28:19Z</time>
      </trkpt>
      <trkpt lat="44.73833" lon="6.83926">
        <ele>1830.2</ele>
        <time>2026-03-23T08:28:20Z</time>
      </trkpt>
      <trkpt lat="44.73833" lon="6.83926">
        <ele>1830.2</ele>
        <time>2026-03-23T08:28:21Z</time>
      </trkpt>
      <trkpt lat="44.73833" lon="6.83926">
        <ele>1830.2</ele>
        <time>2026-03-23T08:28:22Z</time>
      </trkpt>
      <trkpt lat="44.73833" lon="6.83926">
        <ele>1830.2</ele>
        <time>2026-03-23T08:28:23Z</time>
      </trkpt>
      <trkpt lat="44.73833" lon="6.83926">
        <ele>1830.2</ele>
        <time>2026-03-23T08:28:24Z</time>
      </trkpt>
      <trkpt lat="44.73833" lon="6.83926">
        <ele>1830.2</ele>
        <time>2026-03-23T08:28:25Z</time>
      </trkpt>
      <trkpt lat="44.73833" lon="6.83926">
        <ele>1830.2</ele>
        <time>2026-03-23T08:28:26Z</time>
      </trkpt>
      <trkpt lat="44.73833" lon="6.83926">
        <ele>1830.2</ele>
        <time>2026-03-23T08:28:27Z</time>
      </trkpt>
      <trkpt lat="44.73833" lon="6.83926">
        <ele>1830.2</ele>
        <time>2026-03-23T08:28:28Z</time>
      </trkpt>
      <trkpt lat="44.73833" lon="6.83926">
        <ele>1830.2</ele>
        <time>2026-03-23T08:28:29Z</time>
      </trkpt>
      <trkpt lat="44.73833" lon="6.83926">
        <ele>1830.2</ele>
        <time>2026-03-23T08:28:30Z</time>
      </trkpt>
      <trkpt lat="44.73833" lon="6.83926">
        <ele>1830.2</ele>
        <time>2026-03-23T08:28:31Z</time>
      </trkpt>
      <trkpt lat="44.73833" lon="6.83926">
        <ele>1830.2</ele>
        <time>2026-03-23T08:28:32Z</time>
      </trkpt>
      <trkpt lat="44.73833" lon="6.83926">
        <ele>1830.2</ele>
        <time>2026-03-23T08:28:33Z</time>
      </trkpt>
      <trkpt lat="44.73833" lon="6.83926">
        <ele>1830.2</ele>
        <time>2026-03-23T08:28:34Z</time>
      </trkpt>
      <trkpt lat="44.73833" lon="6.83926">
        <ele>1830.2</ele>
        <time>2026-03-23T08:28:35Z</time>
      </trkpt>
      <trkpt lat="44.73833" lon="6.83926">
        <ele>1830.2</ele>
        <time>2026-03-23T08:28:36Z</time>
      </trkpt>
      <trkpt lat="44.73833" lon="6.83926">
        <ele>1830.2</ele>
        <time>2026-03-23T08:28:37Z</time>
      </trkpt>
      <trkpt lat="44.73833" lon="6.83926">
        <ele>1830.2</ele>
        <time>2026-03-23T08:28:38Z</time>
      </trkpt>
      <trkpt lat="44.73833" lon="6.83926">
        <ele>1830.2</ele>
        <time>2026-03-23T08:28:39Z</time>
      </trkpt>
      <trkpt lat="44.73833" lon="6.83926">
        <ele>1830.2</ele>
        <time>2026-03-23T08:28:40Z</time>
      </trkpt>
      <trkpt lat="44.73833" lon="6.83926">
        <ele>1830.2</ele>
        <time>2026-03-23T08:28:41Z</time>
      </trkpt>
      <trkpt lat="44.73833" lon="6.83926">
        <ele>1830.2</ele>
        <time>2026-03-23T08:28:42Z</time>
      </trkpt>
      <trkpt lat="44.73833" lon="6.83926">
        <ele>1830.2</ele>
        <time>2026-03-23T08:28:43Z</time>
      </trkpt>
      <trkpt lat="44.73833" lon="6.83926">
        <ele>1830.2</ele>
        <time>2026-03-23T08:28:44Z</time>
      </trkpt>
      <trkpt lat="44.73833" lon="6.83926">
        <ele>1830.2</ele>
        <time>2026-03-23T08:28:45Z</time>
      </trkpt>
      <trkpt lat="44.73833" lon="6.83926">
        <ele>1830.2</ele>
        <time>2026-03-23T08:28:46Z</time>
      </trkpt>
      <trkpt lat="44.73833" lon="6.83926">
        <ele>1830.2</ele>
        <time>2026-03-23T08:28:47Z</time>
      </trkpt>
      <trkpt lat="44.73833" lon="6.83926">
        <ele>1830.2</ele>
        <time>2026-03-23T08:28:48Z</time>
      </trkpt>
      <trkpt lat="44.73833" lon="6.83926">
        <ele>1830.2</ele>
        <time>2026-03-23T08:28:49Z</time>
      </trkpt>
      <trkpt lat="44.73833" lon="6.83926">
        <ele>1830.2</ele>
        <time>2026-03-23T08:28:50Z</time>
      </trkpt>
      <trkpt lat="44.73833" lon="6.83926">
        <ele>1830.2</ele>
        <time>2026-03-23T08:28:51Z</time>
      </trkpt>
      <trkpt lat="44.73833" lon="6.83926">
        <ele>1830.2</ele>
        <time>2026-03-23T08:28:52Z</time>
      </trkpt>
      <trkpt lat="44.73833" lon="6.83926">
        <ele>1830.2</ele>
        <time>2026-03-23T08:28:53Z</time>
      </trkpt>
      <trkpt lat="44.73833" lon="6.83926">
        <ele>1830.2</ele>
        <time>2026-03-23T08:28:54Z</time>
      </trkpt>
      <trkpt lat="44.73833" lon="6.83926">
        <ele>1830.2</ele>
        <time>2026-03-23T08:28:55Z</time>
      </trkpt>
      <trkpt lat="44.73833" lon="6.83926">
        <ele>1830.2</ele>
        <time>2026-03-23T08:28:56Z</time>
      </trkpt>
      <trkpt lat="44.73833" lon="6.83926">
        <ele>1830.2</ele>
        <time>2026-03-23T08:28:57Z</time>
      </trkpt>
      <trkpt lat="44.73833" lon="6.83926">
        <ele>1830.2</ele>
        <time>2026-03-23T08:28:58Z</time>
      </trkpt>
      <trkpt lat="44.73833" lon="6.83926">
        <ele>1830.2</ele>
        <time>2026-03-23T08:28:59Z</time>
      </trkpt>
      <trkpt lat="44.73833" lon="6.83926">
        <ele>1830.2</ele>
        <time>2026-03-23T08:29:00Z</time>
      </trkpt>
      <trkpt lat="44.73833" lon="6.83926">
        <ele>1830.2</ele>
        <time>2026-03-23T08:29:01Z</time>
      </trkpt>
      <trkpt lat="44.73833" lon="6.83926">
        <ele>1830.2</ele>
        <time>2026-03-23T08:29:02Z</time>
      </trkpt>
      <trkpt lat="44.73833" lon="6.83926">
        <ele>1830.2</ele>
        <time>2026-03-23T08:29:03Z</time>
      </trkpt>
      <trkpt lat="44.73833" lon="6.83926">
        <ele>1830.2</ele>
        <time>2026-03-23T08:29:04Z</time>
      </trkpt>
      <trkpt lat="44.73833" lon="6.83926">
        <ele>1830.2</ele>
        <time>2026-03-23T08:29:05Z</time>
      </trkpt>
      <trkpt lat="44.73833" lon="6.83926">
        <ele>1830.2</ele>
        <time>2026-03-23T08:29:06Z</time>
      </trkpt>
      <trkpt lat="44.73833" lon="6.83926">
        <ele>1830.2</ele>
        <time>2026-03-23T08:29:07Z</time>
      </trkpt>
      <trkpt lat="44.73833" lon="6.83926">
        <ele>1830.2</ele>
        <time>2026-03-23T08:29:08Z</time>
      </trkpt>
      <trkpt lat="44.73833" lon="6.83926">
        <ele>1830.2</ele>
        <time>2026-03-23T08:29:09Z</time>
      </trkpt>
      <trkpt lat="44.73833" lon="6.83926">
        <ele>1830.2</ele>
        <time>2026-03-23T08:29:10Z</time>
      </trkpt>
      <trkpt lat="44.73833" lon="6.83926">
        <ele>1830.2</ele>
        <time>2026-03-23T08:29:11Z</time>
      </trkpt>
      <trkpt lat="44.73833" lon="6.83926">
        <ele>1830.2</ele>
        <time>2026-03-23T08:29:12Z</time>
      </trkpt>
      <trkpt lat="44.73833" lon="6.83926">
        <ele>1830.2</ele>
        <time>2026-03-23T08:29:13Z</time>
      </trkpt>
      <trkpt lat="44.73833" lon="6.83926">
        <ele>1830.2</ele>
        <time>2026-03-23T08:29:14Z</time>
      </trkpt>
      <trkpt lat="44.73833" lon="6.83926">
        <ele>1830.2</ele>
        <time>2026-03-23T08:29:15Z</time>
      </trkpt>
      <trkpt lat="44.73833" lon="6.83926">
        <ele>1830.2</ele>
        <time>2026-03-23T08:29:16Z</time>
      </trkpt>
      <trkpt lat="44.73833" lon="6.83926">
        <ele>1830.2</ele>
        <time>2026-03-23T08:29:17Z</time>
      </trkpt>
      <trkpt lat="44.73833" lon="6.83926">
        <ele>1830.2</ele>
        <time>2026-03-23T08:29:18Z</time>
      </trkpt>
      <trkpt lat="44.73833" lon="6.83926">
        <ele>1830.2</ele>
        <time>2026-03-23T08:29:19Z</time>
      </trkpt>
      <trkpt lat="44.73833" lon="6.83926">
        <ele>1830.2</ele>
        <time>2026-03-23T08:29:20Z</time>
      </trkpt>
      <trkpt lat="44.73833" lon="6.83926">
        <ele>1830.2</ele>
        <time>2026-03-23T08:29:21Z</time>
      </trkpt>
      <trkpt lat="44.73833" lon="6.83926">
        <ele>1830.2</ele>
        <time>2026-03-23T08:29:22Z</time>
      </trkpt>
      <trkpt lat="44.73833" lon="6.83926">
        <ele>1830.2</ele>
        <time>2026-03-23T08:29:23Z</time>
      </trkpt>
      <trkpt lat="44.73833" lon="6.83926">
        <ele>1830.2</ele>
        <time>2026-03-23T08:29:24Z</time>
      </trkpt>
      <trkpt lat="44.73833" lon="6.83926">
        <ele>1830.2</ele>
        <time>2026-03-23T08:29:25Z</time>
      </trkpt>
      <trkpt lat="44.73833" lon="6.83926">
        <ele>1830.2</ele>
        <time>2026-03-23T08:29:26Z</time>
      </trkpt>
      <trkpt lat="44.73833" lon="6.83926">
        <ele>1830.2</ele>
        <time>2026-03-23T08:29:27Z</time>
      </trkpt>
      <trkpt lat="44.73833" lon="6.83926">
        <ele>1830.2</ele>
        <time>2026-03-23T08:29:28Z</time>
      </trkpt>
      <trkpt lat="44.73833" lon="6.83926">
        <ele>1830.2</ele>
        <time>2026-03-23T08:29:29Z</time>
      </trkpt>
      <trkpt lat="44.73833" lon="6.83926">
        <ele>1830.2</ele>
        <time>2026-03-23T08:29:30Z</time>
      </trkpt>
      <trkpt lat="44.73833" lon="6.83926">
        <ele>1830.2</ele>
        <time>2026-03-23T08:29:31Z</time>
      </trkpt>
      <trkpt lat="44.73833" lon="6.83926">
        <ele>1830.2</ele>
        <time>2026-03-23T08:29:32Z</time>
      </trkpt>
      <trkpt lat="44.73833" lon="6.83926">
        <ele>1830.2</ele>
        <time>2026-03-23T08:29:33Z</time>
      </trkpt>
      <trkpt lat="44.73833" lon="6.83926">
        <ele>1830.2</ele>
        <time>2026-03-23T08:29:34Z</time>
      </trkpt>
      <trkpt lat="44.73833" lon="6.83926">
        <ele>1830.2</ele>
        <time>2026-03-23T08:29:35Z</time>
      </trkpt>
      <trkpt lat="44.73833" lon="6.83926">
        <ele>1830.2</ele>
        <time>2026-03-23T08:29:36Z</time>
      </trkpt>
      <trkpt lat="44.73833" lon="6.83926">
        <ele>1830.2</ele>
        <time>2026-03-23T08:29:37Z</time>
      </trkpt>
      <trkpt lat="44.73833" lon="6.83926">
        <ele>1830.2</ele>
        <time>2026-03-23T08:29:38Z</time>
      </trkpt>
      <trkpt lat="44.73833" lon="6.83926">
        <ele>1830.2</ele>
        <time>2026-03-23T08:29:39Z</time>
      </trkpt>
      <trkpt lat="44.73833" lon="6.83926">
        <ele>1830.2</ele>
        <time>2026-03-23T08:29:40Z</time>
      </trkpt>
      <trkpt lat="44.73833" lon="6.83926">
        <ele>1830.2</ele>
        <time>2026-03-23T08:29:41Z</time>
      </trkpt>
      <trkpt lat="44.73833" lon="6.83926">
        <ele>1830.2</ele>
        <time>2026-03-23T08:29:42Z</time>
      </trkpt>
      <trkpt lat="44.73833" lon="6.83926">
        <ele>1830.2</ele>
        <time>2026-03-23T08:29:43Z</time>
      </trkpt>
      <trkpt lat="44.73833" lon="6.83926">
        <ele>1830.2</ele>
        <time>2026-03-23T08:29:44Z</time>
      </trkpt>
      <trkpt lat="44.73833" lon="6.83926">
        <ele>1830.2</ele>
        <time>2026-03-23T08:29:45Z</time>
      </trkpt>
      <trkpt lat="44.73833" lon="6.83926">
        <ele>1830.2</ele>
        <time>2026-03-23T08:29:46Z</time>
      </trkpt>
      <trkpt lat="44.73833" lon="6.83926">
        <ele>1830.2</ele>
        <time>2026-03-23T08:29:47Z</time>
      </trkpt>
      <trkpt lat="44.73833" lon="6.83927">
        <ele>1830.2</ele>
        <time>2026-03-23T08:29:48Z</time>
      </trkpt>
      <trkpt lat="44.73833" lon="6.83927">
        <ele>1830.2</ele>
        <time>2026-03-23T08:29:49Z</time>
      </trkpt>
      <trkpt lat="44.73833" lon="6.83927">
        <ele>1830.2</ele>
        <time>2026-03-23T08:29:50Z</time>
      </trkpt>
      <trkpt lat="44.73833" lon="6.83927">
        <ele>1830.2</ele>
        <time>2026-03-23T08:29:51Z</time>
      </trkpt>
      <trkpt lat="44.73833" lon="6.83927">
        <ele>1830.2</ele>
        <time>2026-03-23T08:29:52Z</time>
      </trkpt>
      <trkpt lat="44.73833" lon="6.83927">
        <ele>1830.2</ele>
        <time>2026-03-23T08:29:53Z</time>
      </trkpt>
      <trkpt lat="44.73832" lon="6.83928">
        <ele>1830.2</ele>
        <time>2026-03-23T08:29:54Z</time>
      </trkpt>
      <trkpt lat="44.73831" lon="6.83928">
        <ele>1830.2</ele>
        <time>2026-03-23T08:29:55Z</time>
      </trkpt>
      <trkpt lat="44.7383" lon="6.83928">
        <ele>1830.2</ele>
        <time>2026-03-23T08:29:56Z</time>
      </trkpt>
      <trkpt lat="44.73829" lon="6.83929">
        <ele>1830.2</ele>
        <time>2026-03-23T08:29:57Z</time>
      </trkpt>
      <trkpt lat="44.73828" lon="6.83929">
        <ele>1830.2</ele>
        <time>2026-03-23T08:29:58Z</time>
      </trkpt>
      <trkpt lat="44.73828" lon="6.8393">
        <ele>1830.2</ele>
        <time>2026-03-23T08:29:59Z</time>
      </trkpt>
      <trkpt lat="44.73827" lon="6.8393">
        <ele>1830.2</ele>
        <time>2026-03-23T08:30:00Z</time>
      </trkpt>
      <trkpt lat="44.73826" lon="6.83931">
        <ele>1830.2</ele>
        <time>2026-03-23T08:30:01Z</time>
      </trkpt>
      <trkpt lat="44.73825" lon="6.83931">
        <ele>1830.2</ele>
        <time>2026-03-23T08:30:02Z</time>
      </trkpt>
      <trkpt lat="44.73825" lon="6.83932">
        <ele>1830.2</ele>
        <time>2026-03-23T08:30:03Z</time>
      </trkpt>
      <trkpt lat="44.73824" lon="6.83933">
        <ele>1830.2</ele>
        <time>2026-03-23T08:30:04Z</time>
      </trkpt>
      <trkpt lat="44.73824" lon="6.83933">
        <ele>1830.2</ele>
        <time>2026-03-23T08:30:05Z</time>
      </trkpt>
      <trkpt lat="44.73823" lon="6.83933">
        <ele>1830.2</ele>
        <time>2026-03-23T08:30:06Z</time>
      </trkpt>
      <trkpt lat="44.73823" lon="6.83933">
        <ele>1830.2</ele>
        <time>2026-03-23T08:30:07Z</time>
      </trkpt>
      <trkpt lat="44.73824" lon="6.83933">
        <ele>1830.2</ele>
        <time>2026-03-23T08:30:08Z</time>
      </trkpt>
      <trkpt lat="44.73824" lon="6.83933">
        <ele>1830.2</ele>
        <time>2026-03-23T08:30:09Z</time>
      </trkpt>
      <trkpt lat="44.73824" lon="6.83933">
        <ele>1830.2</ele>
        <time>2026-03-23T08:30:10Z</time>
      </trkpt>
      <trkpt lat="44.73824" lon="6.83933">
        <ele>1830.2</ele>
        <time>2026-03-23T08:30:11Z</time>
      </trkpt>
      <trkpt lat="44.73824" lon="6.83933">
        <ele>1830.2</ele>
        <time>2026-03-23T08:30:12Z</time>
      </trkpt>
      <trkpt lat="44.73824" lon="6.83933">
        <ele>1830.2</ele>
        <time>2026-03-23T08:30:13Z</time>
      </trkpt>
      <trkpt lat="44.73824" lon="6.83933">
        <ele>1830.2</ele>
        <time>2026-03-23T08:30:14Z</time>
      </trkpt>
      <trkpt lat="44.73824" lon="6.83933">
        <ele>1830.2</ele>
        <time>2026-03-23T08:30:15Z</time>
      </trkpt>
      <trkpt lat="44.73824" lon="6.83933">
        <ele>1830.2</ele>
        <time>2026-03-23T08:30:16Z</time>
      </trkpt>
      <trkpt lat="44.73824" lon="6.83933">
        <ele>1830.2</ele>
        <time>2026-03-23T08:30:17Z</time>
      </trkpt>
      <trkpt lat="44.73824" lon="6.83933">
        <ele>1830.2</ele>
        <time>2026-03-23T08:30:18Z</time>
      </trkpt>
      <trkpt lat="44.73824" lon="6.83933">
        <ele>1830.2</ele>
        <time>2026-03-23T08:30:19Z</time>
      </trkpt>
      <trkpt lat="44.73824" lon="6.83933">
        <ele>1830.2</ele>
        <time>2026-03-23T08:30:20Z</time>
      </trkpt>
      <trkpt lat="44.73824" lon="6.83933">
        <ele>1830.2</ele>
        <time>2026-03-23T08:30:21Z</time>
      </trkpt>
      <trkpt lat="44.73824" lon="6.83933">
        <ele>1830.2</ele>
        <time>2026-03-23T08:30:22Z</time>
      </trkpt>
      <trkpt lat="44.73824" lon="6.83933">
        <ele>1830.2</ele>
        <time>2026-03-23T08:30:23Z</time>
      </trkpt>
      <trkpt lat="44.73824" lon="6.83933">
        <ele>1830.2</ele>
        <time>2026-03-23T08:30:24Z</time>
      </trkpt>
      <trkpt lat="44.73824" lon="6.83933">
        <ele>1830.2</ele>
        <time>2026-03-23T08:30:25Z</time>
      </trkpt>
      <trkpt lat="44.73824" lon="6.83933">
        <ele>1830.2</ele>
        <time>2026-03-23T08:30:26Z</time>
      </trkpt>
      <trkpt lat="44.73824" lon="6.83933">
        <ele>1830.2</ele>
        <time>2026-03-23T08:30:27Z</time>
      </trkpt>
      <trkpt lat="44.73824" lon="6.83933">
        <ele>1830.2</ele>
        <time>2026-03-23T08:30:28Z</time>
      </trkpt>
      <trkpt lat="44.73824" lon="6.83933">
        <ele>1830.2</ele>
        <time>2026-03-23T08:30:29Z</time>
      </trkpt>
      <trkpt lat="44.73824" lon="6.83933">
        <ele>1830.2</ele>
        <time>2026-03-23T08:30:30Z</time>
      </trkpt>
      <trkpt lat="44.73824" lon="6.83933">
        <ele>1830.2</ele>
        <time>2026-03-23T08:30:31Z</time>
      </trkpt>
      <trkpt lat="44.73824" lon="6.83933">
        <ele>1830.2</ele>
        <time>2026-03-23T08:30:32Z</time>
      </trkpt>
      <trkpt lat="44.73824" lon="6.83933">
        <ele>1830.2</ele>
        <time>2026-03-23T08:30:33Z</time>
      </trkpt>
      <trkpt lat="44.73824" lon="6.83933">
        <ele>1830.2</ele>
        <time>2026-03-23T08:30:34Z</time>
      </trkpt>
      <trkpt lat="44.73824" lon="6.83933">
        <ele>1830.2</ele>
        <time>2026-03-23T08:30:35Z</time>
      </trkpt>
      <trkpt lat="44.73824" lon="6.83933">
        <ele>1830.2</ele>
        <time>2026-03-23T08:30:36Z</time>
      </trkpt>
      <trkpt lat="44.73824" lon="6.83933">
        <ele>1830.2</ele>
        <time>2026-03-23T08:30:37Z</time>
      </trkpt>
      <trkpt lat="44.73824" lon="6.83933">
        <ele>1830.2</ele>
        <time>2026-03-23T08:30:38Z</time>
      </trkpt>
      <trkpt lat="44.73824" lon="6.83933">
        <ele>1830.2</ele>
        <time>2026-03-23T08:30:39Z</time>
      </trkpt>
      <trkpt lat="44.73824" lon="6.83933">
        <ele>1830.2</ele>
        <time>2026-03-23T08:30:40Z</time>
      </trkpt>
      <trkpt lat="44.73824" lon="6.83933">
        <ele>1830.2</ele>
        <time>2026-03-23T08:30:41Z</time>
      </trkpt>
      <trkpt lat="44.73824" lon="6.83933">
        <ele>1830.2</ele>
        <time>2026-03-23T08:30:42Z</time>
      </trkpt>
      <trkpt lat="44.73824" lon="6.83933">
        <ele>1830.2</ele>
        <time>2026-03-23T08:30:43Z</time>
      </trkpt>
      <trkpt lat="44.73824" lon="6.83933">
        <ele>1830.2</ele>
        <time>2026-03-23T08:30:44Z</time>
      </trkpt>
      <trkpt lat="44.73824" lon="6.83933">
        <ele>1830.2</ele>
        <time>2026-03-23T08:30:45Z</time>
      </trkpt>
      <trkpt lat="44.73824" lon="6.83933">
        <ele>1830.2</ele>
        <time>2026-03-23T08:30:46Z</time>
      </trkpt>
      <trkpt lat="44.73824" lon="6.83933">
        <ele>1830.2</ele>
        <time>2026-03-23T08:30:47Z</time>
      </trkpt>
      <trkpt lat="44.73824" lon="6.83933">
        <ele>1830.2</ele>
        <time>2026-03-23T08:30:48Z</time>
      </trkpt>
      <trkpt lat="44.73824" lon="6.83934">
        <ele>1831</ele>
        <time>2026-03-23T08:30:49Z</time>
      </trkpt>
      <trkpt lat="44.73825" lon="6.83934">
        <ele>1831</ele>
        <time>2026-03-23T08:30:50Z</time>
      </trkpt>
      <trkpt lat="44.73825" lon="6.83934">
        <ele>1831</ele>
        <time>2026-03-23T08:30:51Z</time>
      </trkpt>
      <trkpt lat="44.73825" lon="6.83934">
        <ele>1831</ele>
        <time>2026-03-23T08:30:52Z</time>
      </trkpt>
      <trkpt lat="44.73825" lon="6.83934">
        <ele>1831</ele>
        <time>2026-03-23T08:30:53Z</time>
      </trkpt>
      <trkpt lat="44.73825" lon="6.83933">
        <ele>1831</ele>
        <time>2026-03-23T08:30:54Z</time>
      </trkpt>
      <trkpt lat="44.73825" lon="6.83933">
        <ele>1830.2</ele>
        <time>2026-03-23T08:30:55Z</time>
      </trkpt>
      <trkpt lat="44.73825" lon="6.83933">
        <ele>1830.2</ele>
        <time>2026-03-23T08:30:56Z</time>
      </trkpt>
      <trkpt lat="44.73824" lon="6.83933">
        <ele>1830.2</ele>
        <time>2026-03-23T08:30:57Z</time>
      </trkpt>
      <trkpt lat="44.73824" lon="6.83934">
        <ele>1831</ele>
        <time>2026-03-23T08:30:58Z</time>
      </trkpt>
      <trkpt lat="44.73824" lon="6.83934">
        <ele>1831</ele>
        <time>2026-03-23T08:30:59Z</time>
      </trkpt>
      <trkpt lat="44.73824" lon="6.83934">
        <ele>1831</ele>
        <time>2026-03-23T08:31:00Z</time>
      </trkpt>
      <trkpt lat="44.73824" lon="6.83934">
        <ele>1831</ele>
        <time>2026-03-23T08:31:01Z</time>
      </trkpt>
      <trkpt lat="44.73824" lon="6.83934">
        <ele>1831</ele>
        <time>2026-03-23T08:31:02Z</time>
      </trkpt>
      <trkpt lat="44.73824" lon="6.83934">
        <ele>1831</ele>
        <time>2026-03-23T08:31:03Z</time>
      </trkpt>
      <trkpt lat="44.73824" lon="6.83934">
        <ele>1831</ele>
        <time>2026-03-23T08:31:04Z</time>
      </trkpt>
      <trkpt lat="44.73824" lon="6.83934">
        <ele>1831</ele>
        <time>2026-03-23T08:31:05Z</time>
      </trkpt>
      <trkpt lat="44.73824" lon="6.83934">
        <ele>1831</ele>
        <time>2026-03-23T08:31:06Z</time>
      </trkpt>
      <trkpt lat="44.73824" lon="6.83934">
        <ele>1831</ele>
        <time>2026-03-23T08:31:07Z</time>
      </trkpt>
      <trkpt lat="44.73824" lon="6.83934">
        <ele>1831</ele>
        <time>2026-03-23T08:31:08Z</time>
      </trkpt>
      <trkpt lat="44.73824" lon="6.83934">
        <ele>1831</ele>
        <time>2026-03-23T08:31:09Z</time>
      </trkpt>
      <trkpt lat="44.73824" lon="6.83934">
        <ele>1831</ele>
        <time>2026-03-23T08:31:10Z</time>
      </trkpt>
      <trkpt lat="44.73824" lon="6.83934">
        <ele>1831</ele>
        <time>2026-03-23T08:31:11Z</time>
      </trkpt>
      <trkpt lat="44.73824" lon="6.83934">
        <ele>1831</ele>
        <time>2026-03-23T08:31:12Z</time>
      </trkpt>
      <trkpt lat="44.73824" lon="6.83934">
        <ele>1831</ele>
        <time>2026-03-23T08:31:13Z</time>
      </trkpt>
      <trkpt lat="44.73824" lon="6.83934">
        <ele>1831</ele>
        <time>2026-03-23T08:31:14Z</time>
      </trkpt>
      <trkpt lat="44.73824" lon="6.83934">
        <ele>1831</ele>
        <time>2026-03-23T08:31:15Z</time>
      </trkpt>
      <trkpt lat="44.73824" lon="6.83934">
        <ele>1831</ele>
        <time>2026-03-23T08:31:16Z</time>
      </trkpt>
      <trkpt lat="44.73825" lon="6.83934">
        <ele>1831</ele>
        <time>2026-03-23T08:31:17Z</time>
      </trkpt>
      <trkpt lat="44.73825" lon="6.83934">
        <ele>1831</ele>
        <time>2026-03-23T08:31:18Z</time>
      </trkpt>
      <trkpt lat="44.73825" lon="6.83934">
        <ele>1831</ele>
        <time>2026-03-23T08:31:19Z</time>
      </trkpt>
      <trkpt lat="44.73825" lon="6.83934">
        <ele>1831</ele>
        <time>2026-03-23T08:31:20Z</time>
      </trkpt>
      <trkpt lat="44.73825" lon="6.83934">
        <ele>1831</ele>
        <time>2026-03-23T08:31:21Z</time>
      </trkpt>
      <trkpt lat="44.73825" lon="6.83934">
        <ele>1831</ele>
        <time>2026-03-23T08:31:22Z</time>
      </trkpt>
      <trkpt lat="44.73825" lon="6.83934">
        <ele>1831</ele>
        <time>2026-03-23T08:31:23Z</time>
      </trkpt>
      <trkpt lat="44.73825" lon="6.83934">
        <ele>1831</ele>
        <time>2026-03-23T08:31:24Z</time>
      </trkpt>
      <trkpt lat="44.73825" lon="6.83935">
        <ele>1831</ele>
        <time>2026-03-23T08:31:25Z</time>
      </trkpt>
      <trkpt lat="44.73825" lon="6.83935">
        <ele>1831</ele>
        <time>2026-03-23T08:31:26Z</time>
      </trkpt>
      <trkpt lat="44.73825" lon="6.83935">
        <ele>1831</ele>
        <time>2026-03-23T08:31:27Z</time>
      </trkpt>
      <trkpt lat="44.73825" lon="6.83935">
        <ele>1831</ele>
        <time>2026-03-23T08:31:28Z</time>
      </trkpt>
      <trkpt lat="44.73825" lon="6.83935">
        <ele>1831</ele>
        <time>2026-03-23T08:31:29Z</time>
      </trkpt>
      <trkpt lat="44.73825" lon="6.83935">
        <ele>1831</ele>
        <time>2026-03-23T08:31:30Z</time>
      </trkpt>
      <trkpt lat="44.73825" lon="6.83935">
        <ele>1831</ele>
        <time>2026-03-23T08:31:31Z</time>
      </trkpt>
      <trkpt lat="44.73826" lon="6.83935">
        <ele>1831</ele>
        <time>2026-03-23T08:31:32Z</time>
      </trkpt>
      <trkpt lat="44.73826" lon="6.83936">
        <ele>1831</ele>
        <time>2026-03-23T08:31:33Z</time>
      </trkpt>
      <trkpt lat="44.73826" lon="6.83936">
        <ele>1831.1</ele>
        <time>2026-03-23T08:31:34Z</time>
      </trkpt>
      <trkpt lat="44.73827" lon="6.83936">
        <ele>1831.1</ele>
        <time>2026-03-23T08:31:35Z</time>
      </trkpt>
      <trkpt lat="44.73828" lon="6.83936">
        <ele>1831.1</ele>
        <time>2026-03-23T08:31:36Z</time>
      </trkpt>
      <trkpt lat="44.73828" lon="6.83937">
        <ele>1831.1</ele>
        <time>2026-03-23T08:31:37Z</time>
      </trkpt>
      <trkpt lat="44.73828" lon="6.83938">
        <ele>1831.9</ele>
        <time>2026-03-23T08:31:38Z</time>
      </trkpt>
      <trkpt lat="44.73828" lon="6.83939">
        <ele>1831.9</ele>
        <time>2026-03-23T08:31:39Z</time>
      </trkpt>
      <trkpt lat="44.73828" lon="6.8394">
        <ele>1831.9</ele>
        <time>2026-03-23T08:31:40Z</time>
      </trkpt>
      <trkpt lat="44.73828" lon="6.8394">
        <ele>1831.9</ele>
        <time>2026-03-23T08:31:41Z</time>
      </trkpt>
      <trkpt lat="44.73828" lon="6.83941">
        <ele>1831.9</ele>
        <time>2026-03-23T08:31:42Z</time>
      </trkpt>
      <trkpt lat="44.73829" lon="6.83941">
        <ele>1831.9</ele>
        <time>2026-03-23T08:31:43Z</time>
      </trkpt>
      <trkpt lat="44.73828" lon="6.83941">
        <ele>1831.9</ele>
        <time>2026-03-23T08:31:44Z</time>
      </trkpt>
      <trkpt lat="44.73828" lon="6.83941">
        <ele>1831.9</ele>
        <time>2026-03-23T08:31:45Z</time>
      </trkpt>
      <trkpt lat="44.73828" lon="6.83941">
        <ele>1831.9</ele>
        <time>2026-03-23T08:31:46Z</time>
      </trkpt>
      <trkpt lat="44.73828" lon="6.83941">
        <ele>1831.9</ele>
        <time>2026-03-23T08:31:47Z</time>
      </trkpt>
      <trkpt lat="44.73828" lon="6.83941">
        <ele>1831.9</ele>
        <time>2026-03-23T08:31:48Z</time>
      </trkpt>
      <trkpt lat="44.73828" lon="6.83941">
        <ele>1831.9</ele>
        <time>2026-03-23T08:31:49Z</time>
      </trkpt>
      <trkpt lat="44.73828" lon="6.83941">
        <ele>1831.9</ele>
        <time>2026-03-23T08:31:50Z</time>
      </trkpt>
      <trkpt lat="44.73828" lon="6.83941">
        <ele>1831.9</ele>
        <time>2026-03-23T08:31:51Z</time>
      </trkpt>
      <trkpt lat="44.73828" lon="6.83941">
        <ele>1831.9</ele>
        <time>2026-03-23T08:31:52Z</time>
      </trkpt>
      <trkpt lat="44.73828" lon="6.83941">
        <ele>1831.9</ele>
        <time>2026-03-23T08:31:53Z</time>
      </trkpt>
      <trkpt lat="44.73828" lon="6.83941">
        <ele>1831.9</ele>
        <time>2026-03-23T08:31:54Z</time>
      </trkpt>
      <trkpt lat="44.73828" lon="6.83942">
        <ele>1831.9</ele>
        <time>2026-03-23T08:31:55Z</time>
      </trkpt>
      <trkpt lat="44.73828" lon="6.83942">
        <ele>1831.9</ele>
        <time>2026-03-23T08:31:56Z</time>
      </trkpt>
      <trkpt lat="44.73828" lon="6.83942">
        <ele>1831.9</ele>
        <time>2026-03-23T08:31:57Z</time>
      </trkpt>
      <trkpt lat="44.73828" lon="6.83942">
        <ele>1831.9</ele>
        <time>2026-03-23T08:31:58Z</time>
      </trkpt>
      <trkpt lat="44.73828" lon="6.83942">
        <ele>1831.9</ele>
        <time>2026-03-23T08:31:59Z</time>
      </trkpt>
      <trkpt lat="44.73828" lon="6.83942">
        <ele>1831.9</ele>
        <time>2026-03-23T08:32:00Z</time>
      </trkpt>
      <trkpt lat="44.73827" lon="6.83942">
        <ele>1831.9</ele>
        <time>2026-03-23T08:32:01Z</time>
      </trkpt>
      <trkpt lat="44.73828" lon="6.83942">
        <ele>1831.9</ele>
        <time>2026-03-23T08:32:02Z</time>
      </trkpt>
      <trkpt lat="44.73828" lon="6.83942">
        <ele>1831.9</ele>
        <time>2026-03-23T08:32:03Z</time>
      </trkpt>
      <trkpt lat="44.73828" lon="6.83942">
        <ele>1831.9</ele>
        <time>2026-03-23T08:32:04Z</time>
      </trkpt>
      <trkpt lat="44.73828" lon="6.83942">
        <ele>1831.9</ele>
        <time>2026-03-23T08:32:05Z</time>
      </trkpt>
      <trkpt lat="44.73828" lon="6.83942">
        <ele>1831.9</ele>
        <time>2026-03-23T08:32:06Z</time>
      </trkpt>
      <trkpt lat="44.73828" lon="6.83942">
        <ele>1831.9</ele>
        <time>2026-03-23T08:32:07Z</time>
      </trkpt>
      <trkpt lat="44.73828" lon="6.83942">
        <ele>1831.9</ele>
        <time>2026-03-23T08:32:08Z</time>
      </trkpt>
      <trkpt lat="44.73828" lon="6.83942">
        <ele>1831.9</ele>
        <time>2026-03-23T08:32:09Z</time>
      </trkpt>
      <trkpt lat="44.73828" lon="6.83942">
        <ele>1831.9</ele>
        <time>2026-03-23T08:32:10Z</time>
      </trkpt>
      <trkpt lat="44.73828" lon="6.83942">
        <ele>1831.9</ele>
        <time>2026-03-23T08:32:11Z</time>
      </trkpt>
      <trkpt lat="44.73828" lon="6.83942">
        <ele>1831.9</ele>
        <time>2026-03-23T08:32:12Z</time>
      </trkpt>
      <trkpt lat="44.73828" lon="6.83942">
        <ele>1831.9</ele>
        <time>2026-03-23T08:32:13Z</time>
      </trkpt>
      <trkpt lat="44.73827" lon="6.83942">
        <ele>1831.9</ele>
        <time>2026-03-23T08:32:14Z</time>
      </trkpt>
      <trkpt lat="44.73827" lon="6.83942">
        <ele>1831.9</ele>
        <time>2026-03-23T08:32:15Z</time>
      </trkpt>
      <trkpt lat="44.73827" lon="6.83942">
        <ele>1831.9</ele>
        <time>2026-03-23T08:32:16Z</time>
      </trkpt>
      <trkpt lat="44.73827" lon="6.83942">
        <ele>1831.9</ele>
        <time>2026-03-23T08:32:17Z</time>
      </trkpt>
      <trkpt lat="44.73827" lon="6.83942">
        <ele>1831.9</ele>
        <time>2026-03-23T08:32:18Z</time>
      </trkpt>
      <trkpt lat="44.73827" lon="6.83942">
        <ele>1832.7</ele>
        <time>2026-03-23T08:32:19Z</time>
      </trkpt>
      <trkpt lat="44.73827" lon="6.83942">
        <ele>1832.7</ele>
        <time>2026-03-23T08:32:20Z</time>
      </trkpt>
      <trkpt lat="44.73827" lon="6.83942">
        <ele>1832.7</ele>
        <time>2026-03-23T08:32:21Z</time>
      </trkpt>
      <trkpt lat="44.73828" lon="6.83943">
        <ele>1832.7</ele>
        <time>2026-03-23T08:32:22Z</time>
      </trkpt>
      <trkpt lat="44.73827" lon="6.83943">
        <ele>1832.7</ele>
        <time>2026-03-23T08:32:23Z</time>
      </trkpt>
      <trkpt lat="44.73827" lon="6.83943">
        <ele>1832.7</ele>
        <time>2026-03-23T08:32:24Z</time>
      </trkpt>
      <trkpt lat="44.73827" lon="6.83943">
        <ele>1832.7</ele>
        <time>2026-03-23T08:32:25Z</time>
      </trkpt>
      <trkpt lat="44.73827" lon="6.83944">
        <ele>1832.7</ele>
        <time>2026-03-23T08:32:26Z</time>
      </trkpt>
      <trkpt lat="44.73827" lon="6.83944">
        <ele>1832.7</ele>
        <time>2026-03-23T08:32:27Z</time>
      </trkpt>
      <trkpt lat="44.73826" lon="6.83944">
        <ele>1832.7</ele>
        <time>2026-03-23T08:32:28Z</time>
      </trkpt>
      <trkpt lat="44.73826" lon="6.83945">
        <ele>1832.6</ele>
        <time>2026-03-23T08:32:29Z</time>
      </trkpt>
      <trkpt lat="44.73826" lon="6.83945">
        <ele>1832.6</ele>
        <time>2026-03-23T08:32:30Z</time>
      </trkpt>
      <trkpt lat="44.73826" lon="6.83946">
        <ele>1832.6</ele>
        <time>2026-03-23T08:32:31Z</time>
      </trkpt>
      <trkpt lat="44.73826" lon="6.83947">
        <ele>1833.4</ele>
        <time>2026-03-23T08:32:32Z</time>
      </trkpt>
      <trkpt lat="44.73825" lon="6.83947">
        <ele>1833.4</ele>
        <time>2026-03-23T08:32:33Z</time>
      </trkpt>
      <trkpt lat="44.73825" lon="6.83948">
        <ele>1833.4</ele>
        <time>2026-03-23T08:32:34Z</time>
      </trkpt>
      <trkpt lat="44.73825" lon="6.83949">
        <ele>1833.4</ele>
        <time>2026-03-23T08:32:35Z</time>
      </trkpt>
      <trkpt lat="44.73825" lon="6.8395">
        <ele>1833.4</ele>
        <time>2026-03-23T08:32:36Z</time>
      </trkpt>
      <trkpt lat="44.73825" lon="6.8395">
        <ele>1833.4</ele>
        <time>2026-03-23T08:32:37Z</time>
      </trkpt>
      <trkpt lat="44.73825" lon="6.83951">
        <ele>1834.2</ele>
        <time>2026-03-23T08:32:38Z</time>
      </trkpt>
      <trkpt lat="44.73826" lon="6.83951">
        <ele>1834.2</ele>
        <time>2026-03-23T08:32:39Z</time>
      </trkpt>
      <trkpt lat="44.73826" lon="6.83952">
        <ele>1834.2</ele>
        <time>2026-03-23T08:32:40Z</time>
      </trkpt>
      <trkpt lat="44.73826" lon="6.83952">
        <ele>1834.2</ele>
        <time>2026-03-23T08:32:41Z</time>
      </trkpt>
      <trkpt lat="44.73826" lon="6.83953">
        <ele>1834.3</ele>
        <time>2026-03-23T08:32:42Z</time>
      </trkpt>
      <trkpt lat="44.73826" lon="6.83954">
        <ele>1834.2</ele>
        <time>2026-03-23T08:32:43Z</time>
      </trkpt>
      <trkpt lat="44.73826" lon="6.83955">
        <ele>1834.3</ele>
        <time>2026-03-23T08:32:44Z</time>
      </trkpt>
      <trkpt lat="44.73827" lon="6.83955">
        <ele>1835.2</ele>
        <time>2026-03-23T08:32:45Z</time>
      </trkpt>
      <trkpt lat="44.73827" lon="6.83956">
        <ele>1835.2</ele>
        <time>2026-03-23T08:32:46Z</time>
      </trkpt>
      <trkpt lat="44.73827" lon="6.83957">
        <ele>1835.2</ele>
        <time>2026-03-23T08:32:47Z</time>
      </trkpt>
      <trkpt lat="44.73827" lon="6.83958">
        <ele>1835.2</ele>
        <time>2026-03-23T08:32:48Z</time>
      </trkpt>
      <trkpt lat="44.73826" lon="6.83959">
        <ele>1835.2</ele>
        <time>2026-03-23T08:32:49Z</time>
      </trkpt>
      <trkpt lat="44.73826" lon="6.8396">
        <ele>1836</ele>
        <time>2026-03-23T08:32:50Z</time>
      </trkpt>
      <trkpt lat="44.73825" lon="6.8396">
        <ele>1836</ele>
        <time>2026-03-23T08:32:51Z</time>
      </trkpt>
      <trkpt lat="44.73825" lon="6.83961">
        <ele>1836</ele>
        <time>2026-03-23T08:32:52Z</time>
      </trkpt>
      <trkpt lat="44.73825" lon="6.83962">
        <ele>1836</ele>
        <time>2026-03-23T08:32:53Z</time>
      </trkpt>
      <trkpt lat="44.73824" lon="6.83963">
        <ele>1836</ele>
        <time>2026-03-23T08:32:54Z</time>
      </trkpt>
      <trkpt lat="44.73824" lon="6.83963">
        <ele>1836.9</ele>
        <time>2026-03-23T08:32:55Z</time>
      </trkpt>
      <trkpt lat="44.73823" lon="6.83964">
        <ele>1836.9</ele>
        <time>2026-03-23T08:32:56Z</time>
      </trkpt>
      <trkpt lat="44.73823" lon="6.83965">
        <ele>1836.9</ele>
        <time>2026-03-23T08:32:57Z</time>
      </trkpt>
      <trkpt lat="44.73823" lon="6.83966">
        <ele>1836.8</ele>
        <time>2026-03-23T08:32:58Z</time>
      </trkpt>
      <trkpt lat="44.73822" lon="6.83966">
        <ele>1836.8</ele>
        <time>2026-03-23T08:32:59Z</time>
      </trkpt>
      <trkpt lat="44.73822" lon="6.83967">
        <ele>1836.8</ele>
        <time>2026-03-23T08:33:00Z</time>
      </trkpt>
      <trkpt lat="44.73822" lon="6.83968">
        <ele>1837.8</ele>
        <time>2026-03-23T08:33:01Z</time>
      </trkpt>
      <trkpt lat="44.73822" lon="6.83968">
        <ele>1837.7</ele>
        <time>2026-03-23T08:33:02Z</time>
      </trkpt>
      <trkpt lat="44.73822" lon="6.83969">
        <ele>1837.7</ele>
        <time>2026-03-23T08:33:03Z</time>
      </trkpt>
      <trkpt lat="44.73822" lon="6.8397">
        <ele>1837.7</ele>
        <time>2026-03-23T08:33:04Z</time>
      </trkpt>
      <trkpt lat="44.73822" lon="6.83971">
        <ele>1837.7</ele>
        <time>2026-03-23T08:33:05Z</time>
      </trkpt>
      <trkpt lat="44.73823" lon="6.83972">
        <ele>1837.7</ele>
        <time>2026-03-23T08:33:06Z</time>
      </trkpt>
      <trkpt lat="44.73823" lon="6.83973">
        <ele>1838.6</ele>
        <time>2026-03-23T08:33:07Z</time>
      </trkpt>
      <trkpt lat="44.73823" lon="6.83973">
        <ele>1838.7</ele>
        <time>2026-03-23T08:33:08Z</time>
      </trkpt>
      <trkpt lat="44.73823" lon="6.83974">
        <ele>1838.7</ele>
        <time>2026-03-23T08:33:09Z</time>
      </trkpt>
      <trkpt lat="44.73823" lon="6.83975">
        <ele>1838.7</ele>
        <time>2026-03-23T08:33:10Z</time>
      </trkpt>
      <trkpt lat="44.73824" lon="6.83976">
        <ele>1838.7</ele>
        <time>2026-03-23T08:33:11Z</time>
      </trkpt>
      <trkpt lat="44.73825" lon="6.83976">
        <ele>1838.7</ele>
        <time>2026-03-23T08:33:12Z</time>
      </trkpt>
      <trkpt lat="44.73826" lon="6.83976">
        <ele>1839.6</ele>
        <time>2026-03-23T08:33:13Z</time>
      </trkpt>
      <trkpt lat="44.73826" lon="6.83977">
        <ele>1839.7</ele>
        <time>2026-03-23T08:33:14Z</time>
      </trkpt>
      <trkpt lat="44.73827" lon="6.83978">
        <ele>1839.7</ele>
        <time>2026-03-23T08:33:15Z</time>
      </trkpt>
      <trkpt lat="44.73827" lon="6.83977">
        <ele>1839.7</ele>
        <time>2026-03-23T08:33:16Z</time>
      </trkpt>
      <trkpt lat="44.73827" lon="6.83977">
        <ele>1839.7</ele>
        <time>2026-03-23T08:33:17Z</time>
      </trkpt>
      <trkpt lat="44.73827" lon="6.83977">
        <ele>1839.7</ele>
        <time>2026-03-23T08:33:18Z</time>
      </trkpt>
      <trkpt lat="44.73827" lon="6.83977">
        <ele>1839.7</ele>
        <time>2026-03-23T08:33:19Z</time>
      </trkpt>
      <trkpt lat="44.73827" lon="6.83977">
        <ele>1839.7</ele>
        <time>2026-03-23T08:33:20Z</time>
      </trkpt>
      <trkpt lat="44.73827" lon="6.83977">
        <ele>1839.7</ele>
        <time>2026-03-23T08:33:21Z</time>
      </trkpt>
      <trkpt lat="44.73827" lon="6.83977">
        <ele>1839.7</ele>
        <time>2026-03-23T08:33:22Z</time>
      </trkpt>
      <trkpt lat="44.73827" lon="6.83977">
        <ele>1839.7</ele>
        <time>2026-03-23T08:33:23Z</time>
      </trkpt>
      <trkpt lat="44.73827" lon="6.83977">
        <ele>1839.6</ele>
        <time>2026-03-23T08:33:24Z</time>
      </trkpt>
      <trkpt lat="44.73827" lon="6.83977">
        <ele>1839.6</ele>
        <time>2026-03-23T08:33:25Z</time>
      </trkpt>
      <trkpt lat="44.73828" lon="6.83977">
        <ele>1839.6</ele>
        <time>2026-03-23T08:33:26Z</time>
      </trkpt>
      <trkpt lat="44.73828" lon="6.83977">
        <ele>1839.6</ele>
        <time>2026-03-23T08:33:27Z</time>
      </trkpt>
      <trkpt lat="44.73828" lon="6.83977">
        <ele>1839.6</ele>
        <time>2026-03-23T08:33:28Z</time>
      </trkpt>
      <trkpt lat="44.73828" lon="6.83978">
        <ele>1839.6</ele>
        <time>2026-03-23T08:33:29Z</time>
      </trkpt>
      <trkpt lat="44.73828" lon="6.83978">
        <ele>1839.6</ele>
        <time>2026-03-23T08:33:30Z</time>
      </trkpt>
      <trkpt lat="44.73829" lon="6.83979">
        <ele>1839.6</ele>
        <time>2026-03-23T08:33:31Z</time>
      </trkpt>
      <trkpt lat="44.73829" lon="6.83979">
        <ele>1839.6</ele>
        <time>2026-03-23T08:33:32Z</time>
      </trkpt>
      <trkpt lat="44.73829" lon="6.83979">
        <ele>1839.8</ele>
        <time>2026-03-23T08:33:33Z</time>
      </trkpt>
      <trkpt lat="44.7383" lon="6.8398">
        <ele>1839.8</ele>
        <time>2026-03-23T08:33:34Z</time>
      </trkpt>
      <trkpt lat="44.7383" lon="6.8398">
        <ele>1839.8</ele>
        <time>2026-03-23T08:33:35Z</time>
      </trkpt>
      <trkpt lat="44.73831" lon="6.8398">
        <ele>1839.8</ele>
        <time>2026-03-23T08:33:36Z</time>
      </trkpt>
      <trkpt lat="44.73832" lon="6.8398">
        <ele>1839.8</ele>
        <time>2026-03-23T08:33:37Z</time>
      </trkpt>
      <trkpt lat="44.73832" lon="6.8398">
        <ele>1839.8</ele>
        <time>2026-03-23T08:33:38Z</time>
      </trkpt>
      <trkpt lat="44.73833" lon="6.83981">
        <ele>1840.7</ele>
        <time>2026-03-23T08:33:39Z</time>
      </trkpt>
      <trkpt lat="44.73833" lon="6.83981">
        <ele>1840.7</ele>
        <time>2026-03-23T08:33:40Z</time>
      </trkpt>
      <trkpt lat="44.73834" lon="6.83981">
        <ele>1840.7</ele>
        <time>2026-03-23T08:33:41Z</time>
      </trkpt>
      <trkpt lat="44.73834" lon="6.83981">
        <ele>1840.7</ele>
        <time>2026-03-23T08:33:42Z</time>
      </trkpt>
      <trkpt lat="44.73835" lon="6.83981">
        <ele>1840.7</ele>
        <time>2026-03-23T08:33:43Z</time>
      </trkpt>
      <trkpt lat="44.73836" lon="6.83982">
        <ele>1840.9</ele>
        <time>2026-03-23T08:33:44Z</time>
      </trkpt>
      <trkpt lat="44.73836" lon="6.83982">
        <ele>1840.9</ele>
        <time>2026-03-23T08:33:45Z</time>
      </trkpt>
      <trkpt lat="44.73837" lon="6.83982">
        <ele>1840.9</ele>
        <time>2026-03-23T08:33:46Z</time>
      </trkpt>
      <trkpt lat="44.73838" lon="6.83982">
        <ele>1840.9</ele>
        <time>2026-03-23T08:33:47Z</time>
      </trkpt>
      <trkpt lat="44.73838" lon="6.83982">
        <ele>1841</ele>
        <time>2026-03-23T08:33:48Z</time>
      </trkpt>
      <trkpt lat="44.73839" lon="6.83983">
        <ele>1841</ele>
        <time>2026-03-23T08:33:49Z</time>
      </trkpt>
      <trkpt lat="44.73839" lon="6.83983">
        <ele>1841</ele>
        <time>2026-03-23T08:33:50Z</time>
      </trkpt>
      <trkpt lat="44.7384" lon="6.83983">
        <ele>1841</ele>
        <time>2026-03-23T08:33:51Z</time>
      </trkpt>
      <trkpt lat="44.73841" lon="6.83983">
        <ele>1841</ele>
        <time>2026-03-23T08:33:52Z</time>
      </trkpt>
      <trkpt lat="44.73842" lon="6.83982">
        <ele>1841.2</ele>
        <time>2026-03-23T08:33:53Z</time>
      </trkpt>
      <trkpt lat="44.73842" lon="6.83983">
        <ele>1841.2</ele>
        <time>2026-03-23T08:33:54Z</time>
      </trkpt>
      <trkpt lat="44.73843" lon="6.83982">
        <ele>1841.2</ele>
        <time>2026-03-23T08:33:55Z</time>
      </trkpt>
      <trkpt lat="44.73843" lon="6.83981">
        <ele>1841.2</ele>
        <time>2026-03-23T08:33:56Z</time>
      </trkpt>
      <trkpt lat="44.73843" lon="6.83981">
        <ele>1841.2</ele>
        <time>2026-03-23T08:33:57Z</time>
      </trkpt>
      <trkpt lat="44.73844" lon="6.83981">
        <ele>1841.2</ele>
        <time>2026-03-23T08:33:58Z</time>
      </trkpt>
      <trkpt lat="44.73845" lon="6.83981">
        <ele>1841.4</ele>
        <time>2026-03-23T08:33:59Z</time>
      </trkpt>
      <trkpt lat="44.73845" lon="6.8398">
        <ele>1840.5</ele>
        <time>2026-03-23T08:34:00Z</time>
      </trkpt>
      <trkpt lat="44.73846" lon="6.83979">
        <ele>1840.5</ele>
        <time>2026-03-23T08:34:01Z</time>
      </trkpt>
      <trkpt lat="44.73847" lon="6.8398">
        <ele>1840.5</ele>
        <time>2026-03-23T08:34:02Z</time>
      </trkpt>
      <trkpt lat="44.73847" lon="6.8398">
        <ele>1840.5</ele>
        <time>2026-03-23T08:34:03Z</time>
      </trkpt>
      <trkpt lat="44.73848" lon="6.83981">
        <ele>1841.5</ele>
        <time>2026-03-23T08:34:04Z</time>
      </trkpt>
      <trkpt lat="44.73848" lon="6.83982">
        <ele>1841.5</ele>
        <time>2026-03-23T08:34:05Z</time>
      </trkpt>
      <trkpt lat="44.73849" lon="6.83982">
        <ele>1841.5</ele>
        <time>2026-03-23T08:34:06Z</time>
      </trkpt>
      <trkpt lat="44.73849" lon="6.83982">
        <ele>1841.5</ele>
        <time>2026-03-23T08:34:07Z</time>
      </trkpt>
      <trkpt lat="44.7385" lon="6.83982">
        <ele>1841.5</ele>
        <time>2026-03-23T08:34:08Z</time>
      </trkpt>
      <trkpt lat="44.7385" lon="6.83982">
        <ele>1841.5</ele>
        <time>2026-03-23T08:34:09Z</time>
      </trkpt>
      <trkpt lat="44.73851" lon="6.83982">
        <ele>1841.8</ele>
        <time>2026-03-23T08:34:10Z</time>
      </trkpt>
      <trkpt lat="44.73853" lon="6.83982">
        <ele>1841.8</ele>
        <time>2026-03-23T08:34:11Z</time>
      </trkpt>
      <trkpt lat="44.73853" lon="6.83983">
        <ele>1841.7</ele>
        <time>2026-03-23T08:34:13Z</time>
      </trkpt>
      <trkpt lat="44.73854" lon="6.83984">
        <ele>1842</ele>
        <time>2026-03-23T08:34:14Z</time>
      </trkpt>
      <trkpt lat="44.73854" lon="6.83985">
        <ele>1842.8</ele>
        <time>2026-03-23T08:34:15Z</time>
      </trkpt>
      <trkpt lat="44.73855" lon="6.83986">
        <ele>1842.8</ele>
        <time>2026-03-23T08:34:16Z</time>
      </trkpt>
      <trkpt lat="44.73855" lon="6.83987">
        <ele>1842.8</ele>
        <time>2026-03-23T08:34:17Z</time>
      </trkpt>
      <trkpt lat="44.73856" lon="6.83988">
        <ele>1842.8</ele>
        <time>2026-03-23T08:34:18Z</time>
      </trkpt>
      <trkpt lat="44.73857" lon="6.83988">
        <ele>1843.1</ele>
        <time>2026-03-23T08:34:19Z</time>
      </trkpt>
      <trkpt lat="44.73857" lon="6.83989">
        <ele>1843.1</ele>
        <time>2026-03-23T08:34:20Z</time>
      </trkpt>
      <trkpt lat="44.73858" lon="6.83989">
        <ele>1843.9</ele>
        <time>2026-03-23T08:34:21Z</time>
      </trkpt>
      <trkpt lat="44.73858" lon="6.8399">
        <ele>1843.9</ele>
        <time>2026-03-23T08:34:22Z</time>
      </trkpt>
      <trkpt lat="44.73859" lon="6.8399">
        <ele>1843.9</ele>
        <time>2026-03-23T08:34:23Z</time>
      </trkpt>
      <trkpt lat="44.7386" lon="6.83991">
        <ele>1844.2</ele>
        <time>2026-03-23T08:34:24Z</time>
      </trkpt>
      <trkpt lat="44.73861" lon="6.83991">
        <ele>1844.2</ele>
        <time>2026-03-23T08:34:25Z</time>
      </trkpt>
      <trkpt lat="44.73862" lon="6.83992">
        <ele>1844.2</ele>
        <time>2026-03-23T08:34:27Z</time>
      </trkpt>
      <trkpt lat="44.73863" lon="6.83992">
        <ele>1844.4</ele>
        <time>2026-03-23T08:34:28Z</time>
      </trkpt>
      <trkpt lat="44.73863" lon="6.83992">
        <ele>1844.4</ele>
        <time>2026-03-23T08:34:29Z</time>
      </trkpt>
      <trkpt lat="44.73864" lon="6.83992">
        <ele>1844.4</ele>
        <time>2026-03-23T08:34:30Z</time>
      </trkpt>
      <trkpt lat="44.73865" lon="6.83992">
        <ele>1844.4</ele>
        <time>2026-03-23T08:34:31Z</time>
      </trkpt>
      <trkpt lat="44.73866" lon="6.83992">
        <ele>1844.4</ele>
        <time>2026-03-23T08:34:32Z</time>
      </trkpt>
      <trkpt lat="44.73866" lon="6.83993">
        <ele>1844.7</ele>
        <time>2026-03-23T08:34:33Z</time>
      </trkpt>
      <trkpt lat="44.73867" lon="6.83993">
        <ele>1844.7</ele>
        <time>2026-03-23T08:34:34Z</time>
      </trkpt>
      <trkpt lat="44.73868" lon="6.83993">
        <ele>1844.7</ele>
        <time>2026-03-23T08:34:36Z</time>
      </trkpt>
      <trkpt lat="44.73868" lon="6.83993">
        <ele>1845.6</ele>
        <time>2026-03-23T08:34:37Z</time>
      </trkpt>
      <trkpt lat="44.73869" lon="6.83993">
        <ele>1845.9</ele>
        <time>2026-03-23T08:34:38Z</time>
      </trkpt>
      <trkpt lat="44.7387" lon="6.83994">
        <ele>1845.9</ele>
        <time>2026-03-23T08:34:39Z</time>
      </trkpt>
      <trkpt lat="44.7387" lon="6.83994">
        <ele>1845.9</ele>
        <time>2026-03-23T08:34:40Z</time>
      </trkpt>
      <trkpt lat="44.73871" lon="6.83994">
        <ele>1845.9</ele>
        <time>2026-03-23T08:34:41Z</time>
      </trkpt>
      <trkpt lat="44.73871" lon="6.83994">
        <ele>1845.9</ele>
        <time>2026-03-23T08:34:42Z</time>
      </trkpt>
      <trkpt lat="44.73872" lon="6.83994">
        <ele>1846.1</ele>
        <time>2026-03-23T08:34:43Z</time>
      </trkpt>
      <trkpt lat="44.73873" lon="6.83994">
        <ele>1846.1</ele>
        <time>2026-03-23T08:34:44Z</time>
      </trkpt>
      <trkpt lat="44.73874" lon="6.83994">
        <ele>1846.1</ele>
        <time>2026-03-23T08:34:45Z</time>
      </trkpt>
      <trkpt lat="44.73875" lon="6.83994">
        <ele>1846.1</ele>
        <time>2026-03-23T08:34:47Z</time>
      </trkpt>
      <trkpt lat="44.73875" lon="6.83994">
        <ele>1846.3</ele>
        <time>2026-03-23T08:34:48Z</time>
      </trkpt>
      <trkpt lat="44.73876" lon="6.83994">
        <ele>1846.3</ele>
        <time>2026-03-23T08:34:49Z</time>
      </trkpt>
      <trkpt lat="44.73877" lon="6.83994">
        <ele>1846.3</ele>
        <time>2026-03-23T08:34:50Z</time>
      </trkpt>
      <trkpt lat="44.73877" lon="6.83994">
        <ele>1846.3</ele>
        <time>2026-03-23T08:34:51Z</time>
      </trkpt>
      <trkpt lat="44.73878" lon="6.83994">
        <ele>1846.3</ele>
        <time>2026-03-23T08:34:52Z</time>
      </trkpt>
      <trkpt lat="44.73878" lon="6.83994">
        <ele>1846.6</ele>
        <time>2026-03-23T08:34:53Z</time>
      </trkpt>
      <trkpt lat="44.73879" lon="6.83994">
        <ele>1846.6</ele>
        <time>2026-03-23T08:34:54Z</time>
      </trkpt>
      <trkpt lat="44.73879" lon="6.83994">
        <ele>1846.6</ele>
        <time>2026-03-23T08:34:55Z</time>
      </trkpt>
      <trkpt lat="44.7388" lon="6.83995">
        <ele>1846.6</ele>
        <time>2026-03-23T08:34:56Z</time>
      </trkpt>
      <trkpt lat="44.7388" lon="6.83995">
        <ele>1846.6</ele>
        <time>2026-03-23T08:34:57Z</time>
      </trkpt>
      <trkpt lat="44.73881" lon="6.83995">
        <ele>1846.8</ele>
        <time>2026-03-23T08:34:58Z</time>
      </trkpt>
      <trkpt lat="44.73882" lon="6.83995">
        <ele>1846.8</ele>
        <time>2026-03-23T08:34:59Z</time>
      </trkpt>
      <trkpt lat="44.73882" lon="6.83995">
        <ele>1846.8</ele>
        <time>2026-03-23T08:35:00Z</time>
      </trkpt>
      <trkpt lat="44.73883" lon="6.83995">
        <ele>1846.8</ele>
        <time>2026-03-23T08:35:01Z</time>
      </trkpt>
      <trkpt lat="44.73883" lon="6.83995">
        <ele>1846.8</ele>
        <time>2026-03-23T08:35:02Z</time>
      </trkpt>
      <trkpt lat="44.73884" lon="6.83996">
        <ele>1846.8</ele>
        <time>2026-03-23T08:35:03Z</time>
      </trkpt>
      <trkpt lat="44.73884" lon="6.83996">
        <ele>1847</ele>
        <time>2026-03-23T08:35:04Z</time>
      </trkpt>
      <trkpt lat="44.73885" lon="6.83996">
        <ele>1847</ele>
        <time>2026-03-23T08:35:05Z</time>
      </trkpt>
      <trkpt lat="44.73886" lon="6.83996">
        <ele>1847</ele>
        <time>2026-03-23T08:35:06Z</time>
      </trkpt>
      <trkpt lat="44.73887" lon="6.83996">
        <ele>1847</ele>
        <time>2026-03-23T08:35:07Z</time>
      </trkpt>
      <trkpt lat="44.73887" lon="6.83996">
        <ele>1847.2</ele>
        <time>2026-03-23T08:35:09Z</time>
      </trkpt>
      <trkpt lat="44.73888" lon="6.83997">
        <ele>1847.2</ele>
        <time>2026-03-23T08:35:10Z</time>
      </trkpt>
      <trkpt lat="44.73888" lon="6.83997">
        <ele>1847.2</ele>
        <time>2026-03-23T08:35:11Z</time>
      </trkpt>
      <trkpt lat="44.73889" lon="6.83997">
        <ele>1847.2</ele>
        <time>2026-03-23T08:35:12Z</time>
      </trkpt>
      <trkpt lat="44.73889" lon="6.83998">
        <ele>1848.2</ele>
        <time>2026-03-23T08:35:13Z</time>
      </trkpt>
      <trkpt lat="44.7389" lon="6.83998">
        <ele>1848.2</ele>
        <time>2026-03-23T08:35:14Z</time>
      </trkpt>
      <trkpt lat="44.7389" lon="6.83999">
        <ele>1848.5</ele>
        <time>2026-03-23T08:35:15Z</time>
      </trkpt>
      <trkpt lat="44.73891" lon="6.83999">
        <ele>1848.5</ele>
        <time>2026-03-23T08:35:16Z</time>
      </trkpt>
      <trkpt lat="44.73891" lon="6.83999">
        <ele>1848.5</ele>
        <time>2026-03-23T08:35:17Z</time>
      </trkpt>
      <trkpt lat="44.7389" lon="6.83999">
        <ele>1848.5</ele>
        <time>2026-03-23T08:35:18Z</time>
      </trkpt>
      <trkpt lat="44.7389" lon="6.84">
        <ele>1848.5</ele>
        <time>2026-03-23T08:35:19Z</time>
      </trkpt>
      <trkpt lat="44.7389" lon="6.84">
        <ele>1848.5</ele>
        <time>2026-03-23T08:35:20Z</time>
      </trkpt>
      <trkpt lat="44.7389" lon="6.84">
        <ele>1848.5</ele>
        <time>2026-03-23T08:35:21Z</time>
      </trkpt>
      <trkpt lat="44.7389" lon="6.84">
        <ele>1848.5</ele>
        <time>2026-03-23T08:35:22Z</time>
      </trkpt>
      <trkpt lat="44.7389" lon="6.84">
        <ele>1848.5</ele>
        <time>2026-03-23T08:35:23Z</time>
      </trkpt>
      <trkpt lat="44.7389" lon="6.84">
        <ele>1848.5</ele>
        <time>2026-03-23T08:35:24Z</time>
      </trkpt>
      <trkpt lat="44.7389" lon="6.84">
        <ele>1848.5</ele>
        <time>2026-03-23T08:35:25Z</time>
      </trkpt>
      <trkpt lat="44.7389" lon="6.84">
        <ele>1848.5</ele>
        <time>2026-03-23T08:35:26Z</time>
      </trkpt>
      <trkpt lat="44.7389" lon="6.84">
        <ele>1848.5</ele>
        <time>2026-03-23T08:35:27Z</time>
      </trkpt>
      <trkpt lat="44.7389" lon="6.84">
        <ele>1848.5</ele>
        <time>2026-03-23T08:35:28Z</time>
      </trkpt>
      <trkpt lat="44.7389" lon="6.84">
        <ele>1848.5</ele>
        <time>2026-03-23T08:35:29Z</time>
      </trkpt>
      <trkpt lat="44.7389" lon="6.84">
        <ele>1848.5</ele>
        <time>2026-03-23T08:35:30Z</time>
      </trkpt>
      <trkpt lat="44.7389" lon="6.84">
        <ele>1848.5</ele>
        <time>2026-03-23T08:35:31Z</time>
      </trkpt>
      <trkpt lat="44.7389" lon="6.84">
        <ele>1848.5</ele>
        <time>2026-03-23T08:35:32Z</time>
      </trkpt>
      <trkpt lat="44.7389" lon="6.84">
        <ele>1848.5</ele>
        <time>2026-03-23T08:35:33Z</time>
      </trkpt>
      <trkpt lat="44.7389" lon="6.84">
        <ele>1848.5</ele>
        <time>2026-03-23T08:35:34Z</time>
      </trkpt>
      <trkpt lat="44.7389" lon="6.84">
        <ele>1848.5</ele>
        <time>2026-03-23T08:35:35Z</time>
      </trkpt>
      <trkpt lat="44.7389" lon="6.84">
        <ele>1848.5</ele>
        <time>2026-03-23T08:35:36Z</time>
      </trkpt>
      <trkpt lat="44.7389" lon="6.84">
        <ele>1848.5</ele>
        <time>2026-03-23T08:35:37Z</time>
      </trkpt>
      <trkpt lat="44.7389" lon="6.84">
        <ele>1848.5</ele>
        <time>2026-03-23T08:35:38Z</time>
      </trkpt>
      <trkpt lat="44.7389" lon="6.84">
        <ele>1848.5</ele>
        <time>2026-03-23T08:35:39Z</time>
      </trkpt>
      <trkpt lat="44.7389" lon="6.84">
        <ele>1848.5</ele>
        <time>2026-03-23T08:35:40Z</time>
      </trkpt>
      <trkpt lat="44.7389" lon="6.84">
        <ele>1848.5</ele>
        <time>2026-03-23T08:35:41Z</time>
      </trkpt>
      <trkpt lat="44.7389" lon="6.84">
        <ele>1848.5</ele>
        <time>2026-03-23T08:35:42Z</time>
      </trkpt>
      <trkpt lat="44.7389" lon="6.84">
        <ele>1848.5</ele>
        <time>2026-03-23T08:35:43Z</time>
      </trkpt>
      <trkpt lat="44.7389" lon="6.84">
        <ele>1848.5</ele>
        <time>2026-03-23T08:35:44Z</time>
      </trkpt>
      <trkpt lat="44.7389" lon="6.84">
        <ele>1848.5</ele>
        <time>2026-03-23T08:35:45Z</time>
      </trkpt>
      <trkpt lat="44.7389" lon="6.84">
        <ele>1848.5</ele>
        <time>2026-03-23T08:35:46Z</time>
      </trkpt>
      <trkpt lat="44.7389" lon="6.84">
        <ele>1848.5</ele>
        <time>2026-03-23T08:35:47Z</time>
      </trkpt>
      <trkpt lat="44.7389" lon="6.84">
        <ele>1848.5</ele>
        <time>2026-03-23T08:35:48Z</time>
      </trkpt>
      <trkpt lat="44.7389" lon="6.84">
        <ele>1848.5</ele>
        <time>2026-03-23T08:35:49Z</time>
      </trkpt>
      <trkpt lat="44.7389" lon="6.84">
        <ele>1848.5</ele>
        <time>2026-03-23T08:35:50Z</time>
      </trkpt>
      <trkpt lat="44.7389" lon="6.84">
        <ele>1848.5</ele>
        <time>2026-03-23T08:35:51Z</time>
      </trkpt>
      <trkpt lat="44.7389" lon="6.84">
        <ele>1848.5</ele>
        <time>2026-03-23T08:35:52Z</time>
      </trkpt>
      <trkpt lat="44.7389" lon="6.84">
        <ele>1848.5</ele>
        <time>2026-03-23T08:35:53Z</time>
      </trkpt>
      <trkpt lat="44.7389" lon="6.84">
        <ele>1848.5</ele>
        <time>2026-03-23T08:35:54Z</time>
      </trkpt>
      <trkpt lat="44.7389" lon="6.84">
        <ele>1848.4</ele>
        <time>2026-03-23T08:35:55Z</time>
      </trkpt>
      <trkpt lat="44.7389" lon="6.84">
        <ele>1848.4</ele>
        <time>2026-03-23T08:35:56Z</time>
      </trkpt>
      <trkpt lat="44.7389" lon="6.84">
        <ele>1848.4</ele>
        <time>2026-03-23T08:35:57Z</time>
      </trkpt>
      <trkpt lat="44.7389" lon="6.84">
        <ele>1848.4</ele>
        <time>2026-03-23T08:35:58Z</time>
      </trkpt>
      <trkpt lat="44.7389" lon="6.84">
        <ele>1848.4</ele>
        <time>2026-03-23T08:35:59Z</time>
      </trkpt>
      <trkpt lat="44.7389" lon="6.84">
        <ele>1848.4</ele>
        <time>2026-03-23T08:36:00Z</time>
      </trkpt>
      <trkpt lat="44.7389" lon="6.84">
        <ele>1848.4</ele>
        <time>2026-03-23T08:36:01Z</time>
      </trkpt>
      <trkpt lat="44.7389" lon="6.84">
        <ele>1848.4</ele>
        <time>2026-03-23T08:36:02Z</time>
      </trkpt>
      <trkpt lat="44.7389" lon="6.84">
        <ele>1848.4</ele>
        <time>2026-03-23T08:36:03Z</time>
      </trkpt>
      <trkpt lat="44.7389" lon="6.84">
        <ele>1848.4</ele>
        <time>2026-03-23T08:36:04Z</time>
      </trkpt>
      <trkpt lat="44.7389" lon="6.84">
        <ele>1848.4</ele>
        <time>2026-03-23T08:36:05Z</time>
      </trkpt>
      <trkpt lat="44.7389" lon="6.84">
        <ele>1848.4</ele>
        <time>2026-03-23T08:36:06Z</time>
      </trkpt>
      <trkpt lat="44.7389" lon="6.84">
        <ele>1848.4</ele>
        <time>2026-03-23T08:36:07Z</time>
      </trkpt>
      <trkpt lat="44.7389" lon="6.84">
        <ele>1848.4</ele>
        <time>2026-03-23T08:36:08Z</time>
      </trkpt>
      <trkpt lat="44.7389" lon="6.84">
        <ele>1848.4</ele>
        <time>2026-03-23T08:36:09Z</time>
      </trkpt>
      <trkpt lat="44.7389" lon="6.84">
        <ele>1848.4</ele>
        <time>2026-03-23T08:36:10Z</time>
      </trkpt>
      <trkpt lat="44.7389" lon="6.84">
        <ele>1848.4</ele>
        <time>2026-03-23T08:36:11Z</time>
      </trkpt>
      <trkpt lat="44.7389" lon="6.84">
        <ele>1848.4</ele>
        <time>2026-03-23T08:36:12Z</time>
      </trkpt>
      <trkpt lat="44.7389" lon="6.84">
        <ele>1848.4</ele>
        <time>2026-03-23T08:36:13Z</time>
      </trkpt>
      <trkpt lat="44.7389" lon="6.84">
        <ele>1848.4</ele>
        <time>2026-03-23T08:36:14Z</time>
      </trkpt>
      <trkpt lat="44.7389" lon="6.84">
        <ele>1848.4</ele>
        <time>2026-03-23T08:36:15Z</time>
      </trkpt>
      <trkpt lat="44.7389" lon="6.84">
        <ele>1848.4</ele>
        <time>2026-03-23T08:36:16Z</time>
      </trkpt>
      <trkpt lat="44.7389" lon="6.84">
        <ele>1848.4</ele>
        <time>2026-03-23T08:36:17Z</time>
      </trkpt>
      <trkpt lat="44.7389" lon="6.84">
        <ele>1848.4</ele>
        <time>2026-03-23T08:36:18Z</time>
      </trkpt>
      <trkpt lat="44.7389" lon="6.84">
        <ele>1848.4</ele>
        <time>2026-03-23T08:36:19Z</time>
      </trkpt>
      <trkpt lat="44.7389" lon="6.84">
        <ele>1848.4</ele>
        <time>2026-03-23T08:36:20Z</time>
      </trkpt>
      <trkpt lat="44.7389" lon="6.84">
        <ele>1848.4</ele>
        <time>2026-03-23T08:36:21Z</time>
      </trkpt>
      <trkpt lat="44.7389" lon="6.84">
        <ele>1848.4</ele>
        <time>2026-03-23T08:36:22Z</time>
      </trkpt>
      <trkpt lat="44.7389" lon="6.84">
        <ele>1848.4</ele>
        <time>2026-03-23T08:36:23Z</time>
      </trkpt>
      <trkpt lat="44.7389" lon="6.84">
        <ele>1848.4</ele>
        <time>2026-03-23T08:36:24Z</time>
      </trkpt>
      <trkpt lat="44.7389" lon="6.84">
        <ele>1848.4</ele>
        <time>2026-03-23T08:36:25Z</time>
      </trkpt>
      <trkpt lat="44.7389" lon="6.84">
        <ele>1848.4</ele>
        <time>2026-03-23T08:36:26Z</time>
      </trkpt>
      <trkpt lat="44.7389" lon="6.84">
        <ele>1848.4</ele>
        <time>2026-03-23T08:36:27Z</time>
      </trkpt>
      <trkpt lat="44.7389" lon="6.84">
        <ele>1848.4</ele>
        <time>2026-03-23T08:36:28Z</time>
      </trkpt>
      <trkpt lat="44.73891" lon="6.84">
        <ele>1848.4</ele>
        <time>2026-03-23T08:36:29Z</time>
      </trkpt>
      <trkpt lat="44.73892" lon="6.84">
        <ele>1848.4</ele>
        <time>2026-03-23T08:36:30Z</time>
      </trkpt>
      <trkpt lat="44.73892" lon="6.84">
        <ele>1848.4</ele>
        <time>2026-03-23T08:36:31Z</time>
      </trkpt>
      <trkpt lat="44.73891" lon="6.84">
        <ele>1848.4</ele>
        <time>2026-03-23T08:36:32Z</time>
      </trkpt>
      <trkpt lat="44.73892" lon="6.84">
        <ele>1848.4</ele>
        <time>2026-03-23T08:36:33Z</time>
      </trkpt>
      <trkpt lat="44.73892" lon="6.84">
        <ele>1848.4</ele>
        <time>2026-03-23T08:36:34Z</time>
      </trkpt>
      <trkpt lat="44.73894" lon="6.84">
        <ele>1848.8</ele>
        <time>2026-03-23T08:36:35Z</time>
      </trkpt>
      <trkpt lat="44.73895" lon="6.84001">
        <ele>1848.8</ele>
        <time>2026-03-23T08:36:36Z</time>
      </trkpt>
      <trkpt lat="44.73896" lon="6.84001">
        <ele>1848.8</ele>
        <time>2026-03-23T08:36:37Z</time>
      </trkpt>
      <trkpt lat="44.73897" lon="6.84002">
        <ele>1849.1</ele>
        <time>2026-03-23T08:36:38Z</time>
      </trkpt>
      <trkpt lat="44.73898" lon="6.84002">
        <ele>1849.1</ele>
        <time>2026-03-23T08:36:40Z</time>
      </trkpt>
      <trkpt lat="44.73899" lon="6.84002">
        <ele>1849.1</ele>
        <time>2026-03-23T08:36:41Z</time>
      </trkpt>
      <trkpt lat="44.73899" lon="6.84002">
        <ele>1850.5</ele>
        <time>2026-03-23T08:36:42Z</time>
      </trkpt>
      <trkpt lat="44.739" lon="6.84002">
        <ele>1850.5</ele>
        <time>2026-03-23T08:36:43Z</time>
      </trkpt>
      <trkpt lat="44.73901" lon="6.84003">
        <ele>1850.5</ele>
        <time>2026-03-23T08:36:44Z</time>
      </trkpt>
      <trkpt lat="44.73901" lon="6.84003">
        <ele>1850.5</ele>
        <time>2026-03-23T08:36:45Z</time>
      </trkpt>
      <trkpt lat="44.73902" lon="6.84003">
        <ele>1850.5</ele>
        <time>2026-03-23T08:36:46Z</time>
      </trkpt>
      <trkpt lat="44.73903" lon="6.84004">
        <ele>1850.7</ele>
        <time>2026-03-23T08:36:47Z</time>
      </trkpt>
      <trkpt lat="44.73903" lon="6.84004">
        <ele>1850.7</ele>
        <time>2026-03-23T08:36:48Z</time>
      </trkpt>
      <trkpt lat="44.73904" lon="6.84004">
        <ele>1850.7</ele>
        <time>2026-03-23T08:36:49Z</time>
      </trkpt>
      <trkpt lat="44.73905" lon="6.84004">
        <ele>1850.7</ele>
        <time>2026-03-23T08:36:50Z</time>
      </trkpt>
      <trkpt lat="44.73905" lon="6.84005">
        <ele>1850.7</ele>
        <time>2026-03-23T08:36:51Z</time>
      </trkpt>
      <trkpt lat="44.73906" lon="6.84005">
        <ele>1851</ele>
        <time>2026-03-23T08:36:52Z</time>
      </trkpt>
      <trkpt lat="44.73906" lon="6.84005">
        <ele>1851</ele>
        <time>2026-03-23T08:36:53Z</time>
      </trkpt>
      <trkpt lat="44.73907" lon="6.84005">
        <ele>1851</ele>
        <time>2026-03-23T08:36:54Z</time>
      </trkpt>
      <trkpt lat="44.73908" lon="6.84005">
        <ele>1851</ele>
        <time>2026-03-23T08:36:55Z</time>
      </trkpt>
      <trkpt lat="44.73909" lon="6.84006">
        <ele>1851.3</ele>
        <time>2026-03-23T08:36:56Z</time>
      </trkpt>
      <trkpt lat="44.73909" lon="6.84006">
        <ele>1851.3</ele>
        <time>2026-03-23T08:36:57Z</time>
      </trkpt>
      <trkpt lat="44.7391" lon="6.84006">
        <ele>1852.5</ele>
        <time>2026-03-23T08:36:58Z</time>
      </trkpt>
      <trkpt lat="44.73911" lon="6.84007">
        <ele>1852.5</ele>
        <time>2026-03-23T08:36:59Z</time>
      </trkpt>
      <trkpt lat="44.73911" lon="6.84007">
        <ele>1852.5</ele>
        <time>2026-03-23T08:37:00Z</time>
      </trkpt>
      <trkpt lat="44.73912" lon="6.84007">
        <ele>1852.8</ele>
        <time>2026-03-23T08:37:01Z</time>
      </trkpt>
      <trkpt lat="44.73912" lon="6.84007">
        <ele>1852.8</ele>
        <time>2026-03-23T08:37:02Z</time>
      </trkpt>
      <trkpt lat="44.73913" lon="6.84007">
        <ele>1852.8</ele>
        <time>2026-03-23T08:37:03Z</time>
      </trkpt>
      <trkpt lat="44.73913" lon="6.84007">
        <ele>1852.8</ele>
        <time>2026-03-23T08:37:04Z</time>
      </trkpt>
      <trkpt lat="44.73914" lon="6.84007">
        <ele>1852.8</ele>
        <time>2026-03-23T08:37:05Z</time>
      </trkpt>
      <trkpt lat="44.73915" lon="6.84008">
        <ele>1853.1</ele>
        <time>2026-03-23T08:37:06Z</time>
      </trkpt>
      <trkpt lat="44.73915" lon="6.84008">
        <ele>1853.1</ele>
        <time>2026-03-23T08:37:07Z</time>
      </trkpt>
      <trkpt lat="44.73916" lon="6.84009">
        <ele>1853.1</ele>
        <time>2026-03-23T08:37:08Z</time>
      </trkpt>
      <trkpt lat="44.73916" lon="6.84009">
        <ele>1853.1</ele>
        <time>2026-03-23T08:37:09Z</time>
      </trkpt>
      <trkpt lat="44.73917" lon="6.8401">
        <ele>1853.1</ele>
        <time>2026-03-23T08:37:10Z</time>
      </trkpt>
      <trkpt lat="44.73918" lon="6.84009">
        <ele>1853.4</ele>
        <time>2026-03-23T08:37:11Z</time>
      </trkpt>
      <trkpt lat="44.73919" lon="6.84009">
        <ele>1853.4</ele>
        <time>2026-03-23T08:37:12Z</time>
      </trkpt>
      <trkpt lat="44.73921" lon="6.84009">
        <ele>1853.7</ele>
        <time>2026-03-23T08:37:13Z</time>
      </trkpt>
      <trkpt lat="44.73922" lon="6.84009">
        <ele>1853.7</ele>
        <time>2026-03-23T08:37:15Z</time>
      </trkpt>
      <trkpt lat="44.73922" lon="6.84009">
        <ele>1853.7</ele>
        <time>2026-03-23T08:37:16Z</time>
      </trkpt>
      <trkpt lat="44.73923" lon="6.84009">
        <ele>1853.7</ele>
        <time>2026-03-23T08:37:17Z</time>
      </trkpt>
      <trkpt lat="44.73924" lon="6.84009">
        <ele>1853.9</ele>
        <time>2026-03-23T08:37:18Z</time>
      </trkpt>
      <trkpt lat="44.73924" lon="6.84009">
        <ele>1853.9</ele>
        <time>2026-03-23T08:37:19Z</time>
      </trkpt>
      <trkpt lat="44.73925" lon="6.84009">
        <ele>1853.9</ele>
        <time>2026-03-23T08:37:20Z</time>
      </trkpt>
      <trkpt lat="44.73926" lon="6.84009">
        <ele>1853.9</ele>
        <time>2026-03-23T08:37:21Z</time>
      </trkpt>
      <trkpt lat="44.73926" lon="6.8401">
        <ele>1853.9</ele>
        <time>2026-03-23T08:37:22Z</time>
      </trkpt>
      <trkpt lat="44.73927" lon="6.8401">
        <ele>1854.1</ele>
        <time>2026-03-23T08:37:23Z</time>
      </trkpt>
      <trkpt lat="44.73928" lon="6.8401">
        <ele>1854.1</ele>
        <time>2026-03-23T08:37:24Z</time>
      </trkpt>
      <trkpt lat="44.73929" lon="6.8401">
        <ele>1854.1</ele>
        <time>2026-03-23T08:37:25Z</time>
      </trkpt>
      <trkpt lat="44.7393" lon="6.8401">
        <ele>1854.2</ele>
        <time>2026-03-23T08:37:26Z</time>
      </trkpt>
      <trkpt lat="44.73931" lon="6.8401">
        <ele>1854.2</ele>
        <time>2026-03-23T08:37:27Z</time>
      </trkpt>
      <trkpt lat="44.73932" lon="6.8401">
        <ele>1854.2</ele>
        <time>2026-03-23T08:37:28Z</time>
      </trkpt>
      <trkpt lat="44.73933" lon="6.84011">
        <ele>1854.4</ele>
        <time>2026-03-23T08:37:29Z</time>
      </trkpt>
      <trkpt lat="44.73934" lon="6.84011">
        <ele>1855.6</ele>
        <time>2026-03-23T08:37:30Z</time>
      </trkpt>
      <trkpt lat="44.73935" lon="6.84011">
        <ele>1855.6</ele>
        <time>2026-03-23T08:37:31Z</time>
      </trkpt>
      <trkpt lat="44.73936" lon="6.84012">
        <ele>1855.8</ele>
        <time>2026-03-23T08:37:33Z</time>
      </trkpt>
      <trkpt lat="44.73937" lon="6.84012">
        <ele>1855.8</ele>
        <time>2026-03-23T08:37:34Z</time>
      </trkpt>
      <trkpt lat="44.73937" lon="6.84013">
        <ele>1855.8</ele>
        <time>2026-03-23T08:37:35Z</time>
      </trkpt>
      <trkpt lat="44.73938" lon="6.84013">
        <ele>1855.8</ele>
        <time>2026-03-23T08:37:36Z</time>
      </trkpt>
      <trkpt lat="44.73939" lon="6.84014">
        <ele>1855.9</ele>
        <time>2026-03-23T08:37:37Z</time>
      </trkpt>
      <trkpt lat="44.7394" lon="6.84015">
        <ele>1857.1</ele>
        <time>2026-03-23T08:37:38Z</time>
      </trkpt>
      <trkpt lat="44.73941" lon="6.84015">
        <ele>1857.1</ele>
        <time>2026-03-23T08:37:40Z</time>
      </trkpt>
      <trkpt lat="44.73941" lon="6.84016">
        <ele>1857.1</ele>
        <time>2026-03-23T08:37:41Z</time>
      </trkpt>
      <trkpt lat="44.73942" lon="6.84016">
        <ele>1857.2</ele>
        <time>2026-03-23T08:37:42Z</time>
      </trkpt>
      <trkpt lat="44.73943" lon="6.84017">
        <ele>1857.2</ele>
        <time>2026-03-23T08:37:43Z</time>
      </trkpt>
      <trkpt lat="44.73943" lon="6.84017">
        <ele>1857.2</ele>
        <time>2026-03-23T08:37:44Z</time>
      </trkpt>
      <trkpt lat="44.73944" lon="6.84017">
        <ele>1857.2</ele>
        <time>2026-03-23T08:37:45Z</time>
      </trkpt>
      <trkpt lat="44.73945" lon="6.84019">
        <ele>1857.2</ele>
        <time>2026-03-23T08:37:46Z</time>
      </trkpt>
      <trkpt lat="44.73945" lon="6.84019">
        <ele>1858.5</ele>
        <time>2026-03-23T08:37:48Z</time>
      </trkpt>
      <trkpt lat="44.73946" lon="6.8402">
        <ele>1858.5</ele>
        <time>2026-03-23T08:37:49Z</time>
      </trkpt>
      <trkpt lat="44.73946" lon="6.84021">
        <ele>1858.5</ele>
        <time>2026-03-23T08:37:50Z</time>
      </trkpt>
      <trkpt lat="44.73947" lon="6.84022">
        <ele>1858.5</ele>
        <time>2026-03-23T08:37:51Z</time>
      </trkpt>
      <trkpt lat="44.73948" lon="6.84023">
        <ele>1858.5</ele>
        <time>2026-03-23T08:37:52Z</time>
      </trkpt>
      <trkpt lat="44.73948" lon="6.84024">
        <ele>1859.7</ele>
        <time>2026-03-23T08:37:54Z</time>
      </trkpt>
      <trkpt lat="44.73948" lon="6.84024">
        <ele>1859.7</ele>
        <time>2026-03-23T08:37:55Z</time>
      </trkpt>
      <trkpt lat="44.73948" lon="6.84025">
        <ele>1859.7</ele>
        <time>2026-03-23T08:37:56Z</time>
      </trkpt>
      <trkpt lat="44.73948" lon="6.84026">
        <ele>1859.7</ele>
        <time>2026-03-23T08:37:57Z</time>
      </trkpt>
      <trkpt lat="44.73948" lon="6.84026">
        <ele>1859.6</ele>
        <time>2026-03-23T08:37:59Z</time>
      </trkpt>
      <trkpt lat="44.73947" lon="6.84026">
        <ele>1859.6</ele>
        <time>2026-03-23T08:38:00Z</time>
      </trkpt>
      <trkpt lat="44.73947" lon="6.84026">
        <ele>1859.6</ele>
        <time>2026-03-23T08:38:01Z</time>
      </trkpt>
      <trkpt lat="44.73947" lon="6.84027">
        <ele>1859.6</ele>
        <time>2026-03-23T08:38:02Z</time>
      </trkpt>
      <trkpt lat="44.73947" lon="6.84027">
        <ele>1859.6</ele>
        <time>2026-03-23T08:38:03Z</time>
      </trkpt>
      <trkpt lat="44.73946" lon="6.84027">
        <ele>1859.6</ele>
        <time>2026-03-23T08:38:04Z</time>
      </trkpt>
      <trkpt lat="44.73944" lon="6.84027">
        <ele>1859.5</ele>
        <time>2026-03-23T08:38:05Z</time>
      </trkpt>
      <trkpt lat="44.73944" lon="6.84027">
        <ele>1859.5</ele>
        <time>2026-03-23T08:38:07Z</time>
      </trkpt>
      <trkpt lat="44.73943" lon="6.84027">
        <ele>1859.5</ele>
        <time>2026-03-23T08:38:08Z</time>
      </trkpt>
      <trkpt lat="44.73942" lon="6.84027">
        <ele>1859.5</ele>
        <time>2026-03-23T08:38:09Z</time>
      </trkpt>
      <trkpt lat="44.73941" lon="6.84026">
        <ele>1859.4</ele>
        <time>2026-03-23T08:38:11Z</time>
      </trkpt>
      <trkpt lat="44.7394" lon="6.84026">
        <ele>1859.4</ele>
        <time>2026-03-23T08:38:12Z</time>
      </trkpt>
      <trkpt lat="44.7394" lon="6.84025">
        <ele>1859.4</ele>
        <time>2026-03-23T08:38:13Z</time>
      </trkpt>
      <trkpt lat="44.73939" lon="6.84025">
        <ele>1859.4</ele>
        <time>2026-03-23T08:38:14Z</time>
      </trkpt>
      <trkpt lat="44.73937" lon="6.84024">
        <ele>1859.3</ele>
        <time>2026-03-23T08:38:15Z</time>
      </trkpt>
      <trkpt lat="44.73936" lon="6.84024">
        <ele>1859.3</ele>
        <time>2026-03-23T08:38:17Z</time>
      </trkpt>
      <trkpt lat="44.73935" lon="6.84024">
        <ele>1859.1</ele>
        <time>2026-03-23T08:38:18Z</time>
      </trkpt>
      <trkpt lat="44.73934" lon="6.84024">
        <ele>1859.1</ele>
        <time>2026-03-23T08:38:19Z</time>
      </trkpt>
      <trkpt lat="44.73933" lon="6.84024">
        <ele>1859.1</ele>
        <time>2026-03-23T08:38:20Z</time>
      </trkpt>
      <trkpt lat="44.73931" lon="6.84024">
        <ele>1858.9</ele>
        <time>2026-03-23T08:38:21Z</time>
      </trkpt>
      <trkpt lat="44.73931" lon="6.84025">
        <ele>1858.9</ele>
        <time>2026-03-23T08:38:23Z</time>
      </trkpt>
      <trkpt lat="44.7393" lon="6.84025">
        <ele>1858.9</ele>
        <time>2026-03-23T08:38:24Z</time>
      </trkpt>
      <trkpt lat="44.73929" lon="6.84025">
        <ele>1858.7</ele>
        <time>2026-03-23T08:38:25Z</time>
      </trkpt>
      <trkpt lat="44.73929" lon="6.84026">
        <ele>1858.7</ele>
        <time>2026-03-23T08:38:26Z</time>
      </trkpt>
      <trkpt lat="44.73928" lon="6.84026">
        <ele>1858.7</ele>
        <time>2026-03-23T08:38:27Z</time>
      </trkpt>
      <trkpt lat="44.73927" lon="6.84027">
        <ele>1858.7</ele>
        <time>2026-03-23T08:38:28Z</time>
      </trkpt>
      <trkpt lat="44.73927" lon="6.84027">
        <ele>1858.5</ele>
        <time>2026-03-23T08:38:29Z</time>
      </trkpt>
      <trkpt lat="44.73926" lon="6.84027">
        <ele>1858.5</ele>
        <time>2026-03-23T08:38:30Z</time>
      </trkpt>
      <trkpt lat="44.73926" lon="6.84028">
        <ele>1858.5</ele>
        <time>2026-03-23T08:38:31Z</time>
      </trkpt>
      <trkpt lat="44.73925" lon="6.84028">
        <ele>1859.6</ele>
        <time>2026-03-23T08:38:32Z</time>
      </trkpt>
      <trkpt lat="44.73925" lon="6.84028">
        <ele>1859.6</ele>
        <time>2026-03-23T08:38:33Z</time>
      </trkpt>
      <trkpt lat="44.73925" lon="6.84028">
        <ele>1859.6</ele>
        <time>2026-03-23T08:38:34Z</time>
      </trkpt>
      <trkpt lat="44.73924" lon="6.84029">
        <ele>1859.6</ele>
        <time>2026-03-23T08:38:35Z</time>
      </trkpt>
      <trkpt lat="44.73924" lon="6.84029">
        <ele>1859.6</ele>
        <time>2026-03-23T08:38:36Z</time>
      </trkpt>
      <trkpt lat="44.73923" lon="6.8403">
        <ele>1859.3</ele>
        <time>2026-03-23T08:38:37Z</time>
      </trkpt>
      <trkpt lat="44.73923" lon="6.84031">
        <ele>1859.3</ele>
        <time>2026-03-23T08:38:39Z</time>
      </trkpt>
      <trkpt lat="44.73924" lon="6.84031">
        <ele>1859.6</ele>
        <time>2026-03-23T08:38:40Z</time>
      </trkpt>
      <trkpt lat="44.73924" lon="6.84031">
        <ele>1859.6</ele>
        <time>2026-03-23T08:38:41Z</time>
      </trkpt>
      <trkpt lat="44.73924" lon="6.84031">
        <ele>1859.6</ele>
        <time>2026-03-23T08:38:42Z</time>
      </trkpt>
      <trkpt lat="44.73924" lon="6.84031">
        <ele>1859.6</ele>
        <time>2026-03-23T08:38:43Z</time>
      </trkpt>
      <trkpt lat="44.73924" lon="6.84031">
        <ele>1859.6</ele>
        <time>2026-03-23T08:38:44Z</time>
      </trkpt>
      <trkpt lat="44.73925" lon="6.84032">
        <ele>1859.6</ele>
        <time>2026-03-23T08:38:45Z</time>
      </trkpt>
      <trkpt lat="44.73925" lon="6.84032">
        <ele>1860.7</ele>
        <time>2026-03-23T08:38:46Z</time>
      </trkpt>
      <trkpt lat="44.73925" lon="6.84033">
        <ele>1860.7</ele>
        <time>2026-03-23T08:38:47Z</time>
      </trkpt>
      <trkpt lat="44.73926" lon="6.84033">
        <ele>1860.7</ele>
        <time>2026-03-23T08:38:48Z</time>
      </trkpt>
      <trkpt lat="44.73926" lon="6.84033">
        <ele>1860.7</ele>
        <time>2026-03-23T08:38:49Z</time>
      </trkpt>
      <trkpt lat="44.73926" lon="6.84033">
        <ele>1860.7</ele>
        <time>2026-03-23T08:38:50Z</time>
      </trkpt>
      <trkpt lat="44.73927" lon="6.84033">
        <ele>1860.9</ele>
        <time>2026-03-23T08:38:51Z</time>
      </trkpt>
      <trkpt lat="44.73928" lon="6.84034">
        <ele>1860.9</ele>
        <time>2026-03-23T08:38:52Z</time>
      </trkpt>
      <trkpt lat="44.73928" lon="6.84034">
        <ele>1860.9</ele>
        <time>2026-03-23T08:38:53Z</time>
      </trkpt>
      <trkpt lat="44.73928" lon="6.84034">
        <ele>1860.9</ele>
        <time>2026-03-23T08:38:54Z</time>
      </trkpt>
      <trkpt lat="44.73929" lon="6.84035">
        <ele>1860.9</ele>
        <time>2026-03-23T08:38:55Z</time>
      </trkpt>
      <trkpt lat="44.73929" lon="6.84035">
        <ele>1860.9</ele>
        <time>2026-03-23T08:38:56Z</time>
      </trkpt>
      <trkpt lat="44.73929" lon="6.84035">
        <ele>1860.9</ele>
        <time>2026-03-23T08:38:57Z</time>
      </trkpt>
      <trkpt lat="44.73929" lon="6.84036">
        <ele>1860.9</ele>
        <time>2026-03-23T08:38:58Z</time>
      </trkpt>
      <trkpt lat="44.73929" lon="6.84036">
        <ele>1860.9</ele>
        <time>2026-03-23T08:38:59Z</time>
      </trkpt>
      <trkpt lat="44.73929" lon="6.84036">
        <ele>1862</ele>
        <time>2026-03-23T08:39:00Z</time>
      </trkpt>
      <trkpt lat="44.73929" lon="6.84037">
        <ele>1862</ele>
        <time>2026-03-23T08:39:01Z</time>
      </trkpt>
      <trkpt lat="44.73929" lon="6.84038">
        <ele>1862</ele>
        <time>2026-03-23T08:39:03Z</time>
      </trkpt>
      <trkpt lat="44.73929" lon="6.84039">
        <ele>1862</ele>
        <time>2026-03-23T08:39:04Z</time>
      </trkpt>
      <trkpt lat="44.73929" lon="6.84039">
        <ele>1862</ele>
        <time>2026-03-23T08:39:05Z</time>
      </trkpt>
      <trkpt lat="44.73929" lon="6.8404">
        <ele>1862</ele>
        <time>2026-03-23T08:39:06Z</time>
      </trkpt>
      <trkpt lat="44.73928" lon="6.84041">
        <ele>1863.1</ele>
        <time>2026-03-23T08:39:07Z</time>
      </trkpt>
      <trkpt lat="44.73928" lon="6.84041">
        <ele>1863.1</ele>
        <time>2026-03-23T08:39:08Z</time>
      </trkpt>
      <trkpt lat="44.73928" lon="6.84042">
        <ele>1863.1</ele>
        <time>2026-03-23T08:39:09Z</time>
      </trkpt>
      <trkpt lat="44.73927" lon="6.84042">
        <ele>1863.1</ele>
        <time>2026-03-23T08:39:10Z</time>
      </trkpt>
      <trkpt lat="44.73927" lon="6.84043">
        <ele>1863.1</ele>
        <time>2026-03-23T08:39:11Z</time>
      </trkpt>
      <trkpt lat="44.73926" lon="6.84044">
        <ele>1862.9</ele>
        <time>2026-03-23T08:39:12Z</time>
      </trkpt>
      <trkpt lat="44.73926" lon="6.84045">
        <ele>1862.9</ele>
        <time>2026-03-23T08:39:13Z</time>
      </trkpt>
      <trkpt lat="44.73925" lon="6.84045">
        <ele>1864</ele>
        <time>2026-03-23T08:39:14Z</time>
      </trkpt>
      <trkpt lat="44.73925" lon="6.84046">
        <ele>1864</ele>
        <time>2026-03-23T08:39:15Z</time>
      </trkpt>
      <trkpt lat="44.73924" lon="6.84047">
        <ele>1864</ele>
        <time>2026-03-23T08:39:16Z</time>
      </trkpt>
      <trkpt lat="44.73924" lon="6.84047">
        <ele>1864</ele>
        <time>2026-03-23T08:39:17Z</time>
      </trkpt>
      <trkpt lat="44.73924" lon="6.84048">
        <ele>1864</ele>
        <time>2026-03-23T08:39:18Z</time>
      </trkpt>
      <trkpt lat="44.73923" lon="6.84049">
        <ele>1863.8</ele>
        <time>2026-03-23T08:39:19Z</time>
      </trkpt>
      <trkpt lat="44.73923" lon="6.84049">
        <ele>1865</ele>
        <time>2026-03-23T08:39:20Z</time>
      </trkpt>
      <trkpt lat="44.73922" lon="6.8405">
        <ele>1865</ele>
        <time>2026-03-23T08:39:21Z</time>
      </trkpt>
      <trkpt lat="44.73922" lon="6.84051">
        <ele>1865</ele>
        <time>2026-03-23T08:39:22Z</time>
      </trkpt>
      <trkpt lat="44.73921" lon="6.84051">
        <ele>1865</ele>
        <time>2026-03-23T08:39:23Z</time>
      </trkpt>
      <trkpt lat="44.7392" lon="6.84051">
        <ele>1864.6</ele>
        <time>2026-03-23T08:39:24Z</time>
      </trkpt>
      <trkpt lat="44.73919" lon="6.84052">
        <ele>1864.6</ele>
        <time>2026-03-23T08:39:25Z</time>
      </trkpt>
      <trkpt lat="44.73918" lon="6.84052">
        <ele>1864.6</ele>
        <time>2026-03-23T08:39:26Z</time>
      </trkpt>
      <trkpt lat="44.73917" lon="6.84052">
        <ele>1864.3</ele>
        <time>2026-03-23T08:39:27Z</time>
      </trkpt>
      <trkpt lat="44.73916" lon="6.84053">
        <ele>1864.3</ele>
        <time>2026-03-23T08:39:28Z</time>
      </trkpt>
      <trkpt lat="44.73915" lon="6.84053">
        <ele>1864.3</ele>
        <time>2026-03-23T08:39:29Z</time>
      </trkpt>
      <trkpt lat="44.73915" lon="6.84053">
        <ele>1864.3</ele>
        <time>2026-03-23T08:39:30Z</time>
      </trkpt>
      <trkpt lat="44.73914" lon="6.84053">
        <ele>1863.9</ele>
        <time>2026-03-23T08:39:31Z</time>
      </trkpt>
      <trkpt lat="44.73913" lon="6.84053">
        <ele>1863.9</ele>
        <time>2026-03-23T08:39:32Z</time>
      </trkpt>
      <trkpt lat="44.73912" lon="6.84053">
        <ele>1863.9</ele>
        <time>2026-03-23T08:39:33Z</time>
      </trkpt>
      <trkpt lat="44.73912" lon="6.84053">
        <ele>1863.9</ele>
        <time>2026-03-23T08:39:34Z</time>
      </trkpt>
      <trkpt lat="44.73911" lon="6.84053">
        <ele>1863.5</ele>
        <time>2026-03-23T08:39:35Z</time>
      </trkpt>
      <trkpt lat="44.7391" lon="6.84053">
        <ele>1863.5</ele>
        <time>2026-03-23T08:39:36Z</time>
      </trkpt>
      <trkpt lat="44.73909" lon="6.84053">
        <ele>1863.5</ele>
        <time>2026-03-23T08:39:37Z</time>
      </trkpt>
      <trkpt lat="44.73908" lon="6.84053">
        <ele>1863.1</ele>
        <time>2026-03-23T08:39:38Z</time>
      </trkpt>
      <trkpt lat="44.73908" lon="6.84052">
        <ele>1863.1</ele>
        <time>2026-03-23T08:39:39Z</time>
      </trkpt>
      <trkpt lat="44.73906" lon="6.84052">
        <ele>1863.1</ele>
        <time>2026-03-23T08:39:40Z</time>
      </trkpt>
      <trkpt lat="44.73906" lon="6.84052">
        <ele>1863.1</ele>
        <time>2026-03-23T08:39:41Z</time>
      </trkpt>
      <trkpt lat="44.73905" lon="6.84052">
        <ele>1862.8</ele>
        <time>2026-03-23T08:39:43Z</time>
      </trkpt>
      <trkpt lat="44.73904" lon="6.84051">
        <ele>1862.8</ele>
        <time>2026-03-23T08:39:45Z</time>
      </trkpt>
      <trkpt lat="44.73903" lon="6.84051">
        <ele>1862.8</ele>
        <time>2026-03-23T08:39:46Z</time>
      </trkpt>
      <trkpt lat="44.73903" lon="6.84051">
        <ele>1862.8</ele>
        <time>2026-03-23T08:39:47Z</time>
      </trkpt>
      <trkpt lat="44.73902" lon="6.84051">
        <ele>1862.4</ele>
        <time>2026-03-23T08:39:48Z</time>
      </trkpt>
      <trkpt lat="44.73901" lon="6.8405">
        <ele>1862.4</ele>
        <time>2026-03-23T08:39:49Z</time>
      </trkpt>
      <trkpt lat="44.73901" lon="6.8405">
        <ele>1862.4</ele>
        <time>2026-03-23T08:39:50Z</time>
      </trkpt>
      <trkpt lat="44.739" lon="6.8405">
        <ele>1862.4</ele>
        <time>2026-03-23T08:39:51Z</time>
      </trkpt>
      <trkpt lat="44.739" lon="6.8405">
        <ele>1862.4</ele>
        <time>2026-03-23T08:39:52Z</time>
      </trkpt>
      <trkpt lat="44.739" lon="6.8405">
        <ele>1862.4</ele>
        <time>2026-03-23T08:39:53Z</time>
      </trkpt>
      <trkpt lat="44.73899" lon="6.8405">
        <ele>1862.4</ele>
        <time>2026-03-23T08:39:54Z</time>
      </trkpt>
      <trkpt lat="44.73899" lon="6.8405">
        <ele>1862</ele>
        <time>2026-03-23T08:39:55Z</time>
      </trkpt>
      <trkpt lat="44.73898" lon="6.8405">
        <ele>1862</ele>
        <time>2026-03-23T08:39:56Z</time>
      </trkpt>
      <trkpt lat="44.73898" lon="6.8405">
        <ele>1862</ele>
        <time>2026-03-23T08:39:57Z</time>
      </trkpt>
      <trkpt lat="44.73898" lon="6.8405">
        <ele>1862</ele>
        <time>2026-03-23T08:39:58Z</time>
      </trkpt>
      <trkpt lat="44.73898" lon="6.8405">
        <ele>1862</ele>
        <time>2026-03-23T08:39:59Z</time>
      </trkpt>
      <trkpt lat="44.73898" lon="6.8405">
        <ele>1862</ele>
        <time>2026-03-23T08:40:00Z</time>
      </trkpt>
      <trkpt lat="44.73897" lon="6.8405">
        <ele>1862</ele>
        <time>2026-03-23T08:40:01Z</time>
      </trkpt>
      <trkpt lat="44.73897" lon="6.8405">
        <ele>1862</ele>
        <time>2026-03-23T08:40:02Z</time>
      </trkpt>
      <trkpt lat="44.73897" lon="6.8405">
        <ele>1862</ele>
        <time>2026-03-23T08:40:03Z</time>
      </trkpt>
      <trkpt lat="44.73897" lon="6.84049">
        <ele>1862</ele>
        <time>2026-03-23T08:40:04Z</time>
      </trkpt>
      <trkpt lat="44.73896" lon="6.84049">
        <ele>1862</ele>
        <time>2026-03-23T08:40:05Z</time>
      </trkpt>
      <trkpt lat="44.73897" lon="6.84049">
        <ele>1862</ele>
        <time>2026-03-23T08:40:06Z</time>
      </trkpt>
      <trkpt lat="44.73897" lon="6.84049">
        <ele>1862</ele>
        <time>2026-03-23T08:40:07Z</time>
      </trkpt>
      <trkpt lat="44.73897" lon="6.84049">
        <ele>1860.9</ele>
        <time>2026-03-23T08:40:08Z</time>
      </trkpt>
      <trkpt lat="44.73897" lon="6.84049">
        <ele>1860.9</ele>
        <time>2026-03-23T08:40:10Z</time>
      </trkpt>
      <trkpt lat="44.73897" lon="6.84049">
        <ele>1860.9</ele>
        <time>2026-03-23T08:40:11Z</time>
      </trkpt>
      <trkpt lat="44.73897" lon="6.84049">
        <ele>1862</ele>
        <time>2026-03-23T08:40:13Z</time>
      </trkpt>
      <trkpt lat="44.73896" lon="6.84049">
        <ele>1862</ele>
        <time>2026-03-23T08:40:14Z</time>
      </trkpt>
      <trkpt lat="44.73896" lon="6.8405">
        <ele>1862</ele>
        <time>2026-03-23T08:40:15Z</time>
      </trkpt>
      <trkpt lat="44.73896" lon="6.8405">
        <ele>1861.7</ele>
        <time>2026-03-23T08:40:16Z</time>
      </trkpt>
      <trkpt lat="44.73896" lon="6.8405">
        <ele>1861.7</ele>
        <time>2026-03-23T08:40:17Z</time>
      </trkpt>
      <trkpt lat="44.73895" lon="6.84051">
        <ele>1861.7</ele>
        <time>2026-03-23T08:40:18Z</time>
      </trkpt>
      <trkpt lat="44.73895" lon="6.84051">
        <ele>1861.7</ele>
        <time>2026-03-23T08:40:19Z</time>
      </trkpt>
      <trkpt lat="44.73894" lon="6.84053">
        <ele>1861.7</ele>
        <time>2026-03-23T08:40:21Z</time>
      </trkpt>
      <trkpt lat="44.73894" lon="6.84054">
        <ele>1862.8</ele>
        <time>2026-03-23T08:40:22Z</time>
      </trkpt>
      <trkpt lat="44.73894" lon="6.84055">
        <ele>1862.8</ele>
        <time>2026-03-23T08:40:23Z</time>
      </trkpt>
      <trkpt lat="44.73895" lon="6.84057">
        <ele>1862.8</ele>
        <time>2026-03-23T08:40:24Z</time>
      </trkpt>
      <trkpt lat="44.73896" lon="6.84057">
        <ele>1862.8</ele>
        <time>2026-03-23T08:40:25Z</time>
      </trkpt>
      <trkpt lat="44.73896" lon="6.84058">
        <ele>1864.4</ele>
        <time>2026-03-23T08:40:26Z</time>
      </trkpt>
      <trkpt lat="44.73897" lon="6.84059">
        <ele>1864.4</ele>
        <time>2026-03-23T08:40:27Z</time>
      </trkpt>
      <trkpt lat="44.73898" lon="6.84059">
        <ele>1864.4</ele>
        <time>2026-03-23T08:40:28Z</time>
      </trkpt>
      <trkpt lat="44.73898" lon="6.8406">
        <ele>1864.4</ele>
        <time>2026-03-23T08:40:29Z</time>
      </trkpt>
      <trkpt lat="44.73899" lon="6.84061">
        <ele>1864.4</ele>
        <time>2026-03-23T08:40:30Z</time>
      </trkpt>
      <trkpt lat="44.73899" lon="6.84061">
        <ele>1864.4</ele>
        <time>2026-03-23T08:40:31Z</time>
      </trkpt>
      <trkpt lat="44.73899" lon="6.84062">
        <ele>1864.4</ele>
        <time>2026-03-23T08:40:32Z</time>
      </trkpt>
      <trkpt lat="44.73899" lon="6.84063">
        <ele>1865.4</ele>
        <time>2026-03-23T08:40:33Z</time>
      </trkpt>
      <trkpt lat="44.73899" lon="6.84064">
        <ele>1865.4</ele>
        <time>2026-03-23T08:40:34Z</time>
      </trkpt>
      <trkpt lat="44.73899" lon="6.84064">
        <ele>1865.4</ele>
        <time>2026-03-23T08:40:35Z</time>
      </trkpt>
      <trkpt lat="44.73899" lon="6.84065">
        <ele>1865.8</ele>
        <time>2026-03-23T08:40:36Z</time>
      </trkpt>
      <trkpt lat="44.73899" lon="6.84066">
        <ele>1865.4</ele>
        <time>2026-03-23T08:40:37Z</time>
      </trkpt>
      <trkpt lat="44.73899" lon="6.84067">
        <ele>1866.4</ele>
        <time>2026-03-23T08:40:38Z</time>
      </trkpt>
      <trkpt lat="44.73899" lon="6.84067">
        <ele>1866.4</ele>
        <time>2026-03-23T08:40:39Z</time>
      </trkpt>
      <trkpt lat="44.73899" lon="6.84068">
        <ele>1866.4</ele>
        <time>2026-03-23T08:40:40Z</time>
      </trkpt>
      <trkpt lat="44.73899" lon="6.84069">
        <ele>1866.4</ele>
        <time>2026-03-23T08:40:41Z</time>
      </trkpt>
      <trkpt lat="44.73899" lon="6.8407">
        <ele>1866.4</ele>
        <time>2026-03-23T08:40:42Z</time>
      </trkpt>
      <trkpt lat="44.73899" lon="6.8407">
        <ele>1866.4</ele>
        <time>2026-03-23T08:40:43Z</time>
      </trkpt>
      <trkpt lat="44.73899" lon="6.84071">
        <ele>1867.4</ele>
        <time>2026-03-23T08:40:44Z</time>
      </trkpt>
      <trkpt lat="44.73899" lon="6.84072">
        <ele>1867.4</ele>
        <time>2026-03-23T08:40:45Z</time>
      </trkpt>
      <trkpt lat="44.73899" lon="6.84072">
        <ele>1867.8</ele>
        <time>2026-03-23T08:40:46Z</time>
      </trkpt>
      <trkpt lat="44.73899" lon="6.84073">
        <ele>1867.8</ele>
        <time>2026-03-23T08:40:47Z</time>
      </trkpt>
      <trkpt lat="44.739" lon="6.84074">
        <ele>1867.8</ele>
        <time>2026-03-23T08:40:48Z</time>
      </trkpt>
      <trkpt lat="44.739" lon="6.84075">
        <ele>1867.8</ele>
        <time>2026-03-23T08:40:49Z</time>
      </trkpt>
      <trkpt lat="44.739" lon="6.84076">
        <ele>1868.7</ele>
        <time>2026-03-23T08:40:50Z</time>
      </trkpt>
      <trkpt lat="44.73901" lon="6.84076">
        <ele>1868.7</ele>
        <time>2026-03-23T08:40:52Z</time>
      </trkpt>
      <trkpt lat="44.73901" lon="6.84077">
        <ele>1868.7</ele>
        <time>2026-03-23T08:40:53Z</time>
      </trkpt>
      <trkpt lat="44.73901" lon="6.84077">
        <ele>1868.7</ele>
        <time>2026-03-23T08:40:54Z</time>
      </trkpt>
      <trkpt lat="44.73902" lon="6.84078">
        <ele>1868.7</ele>
        <time>2026-03-23T08:40:55Z</time>
      </trkpt>
      <trkpt lat="44.73902" lon="6.84078">
        <ele>1868.7</ele>
        <time>2026-03-23T08:40:56Z</time>
      </trkpt>
      <trkpt lat="44.73902" lon="6.84079">
        <ele>1868.7</ele>
        <time>2026-03-23T08:40:57Z</time>
      </trkpt>
      <trkpt lat="44.73902" lon="6.8408">
        <ele>1869.7</ele>
        <time>2026-03-23T08:40:58Z</time>
      </trkpt>
      <trkpt lat="44.73902" lon="6.84081">
        <ele>1869.7</ele>
        <time>2026-03-23T08:40:59Z</time>
      </trkpt>
      <trkpt lat="44.73902" lon="6.84082">
        <ele>1869.7</ele>
        <time>2026-03-23T08:41:00Z</time>
      </trkpt>
      <trkpt lat="44.73902" lon="6.84082">
        <ele>1869.7</ele>
        <time>2026-03-23T08:41:01Z</time>
      </trkpt>
      <trkpt lat="44.73902" lon="6.84082">
        <ele>1869.7</ele>
        <time>2026-03-23T08:41:02Z</time>
      </trkpt>
      <trkpt lat="44.73902" lon="6.84084">
        <ele>1870.7</ele>
        <time>2026-03-23T08:41:03Z</time>
      </trkpt>
      <trkpt lat="44.73902" lon="6.84085">
        <ele>1871.1</ele>
        <time>2026-03-23T08:41:04Z</time>
      </trkpt>
      <trkpt lat="44.73902" lon="6.84086">
        <ele>1871.1</ele>
        <time>2026-03-23T08:41:05Z</time>
      </trkpt>
      <trkpt lat="44.73902" lon="6.84087">
        <ele>1871.1</ele>
        <time>2026-03-23T08:41:06Z</time>
      </trkpt>
      <trkpt lat="44.73902" lon="6.84088">
        <ele>1870.7</ele>
        <time>2026-03-23T08:41:07Z</time>
      </trkpt>
      <trkpt lat="44.73902" lon="6.84089">
        <ele>1871.7</ele>
        <time>2026-03-23T08:41:08Z</time>
      </trkpt>
      <trkpt lat="44.73902" lon="6.8409">
        <ele>1871.7</ele>
        <time>2026-03-23T08:41:10Z</time>
      </trkpt>
      <trkpt lat="44.73901" lon="6.84091">
        <ele>1871.7</ele>
        <time>2026-03-23T08:41:11Z</time>
      </trkpt>
      <trkpt lat="44.73901" lon="6.84091">
        <ele>1871.7</ele>
        <time>2026-03-23T08:41:12Z</time>
      </trkpt>
      <trkpt lat="44.73901" lon="6.84092">
        <ele>1871.7</ele>
        <time>2026-03-23T08:41:13Z</time>
      </trkpt>
      <trkpt lat="44.739" lon="6.84093">
        <ele>1872.8</ele>
        <time>2026-03-23T08:41:14Z</time>
      </trkpt>
      <trkpt lat="44.73899" lon="6.84093">
        <ele>1872.4</ele>
        <time>2026-03-23T08:41:15Z</time>
      </trkpt>
      <trkpt lat="44.73898" lon="6.84094">
        <ele>1872.4</ele>
        <time>2026-03-23T08:41:16Z</time>
      </trkpt>
      <trkpt lat="44.73897" lon="6.84095">
        <ele>1872.4</ele>
        <time>2026-03-23T08:41:17Z</time>
      </trkpt>
      <trkpt lat="44.73896" lon="6.84095">
        <ele>1872</ele>
        <time>2026-03-23T08:41:18Z</time>
      </trkpt>
      <trkpt lat="44.73895" lon="6.84095">
        <ele>1872</ele>
        <time>2026-03-23T08:41:19Z</time>
      </trkpt>
      <trkpt lat="44.73894" lon="6.84096">
        <ele>1872</ele>
        <time>2026-03-23T08:41:20Z</time>
      </trkpt>
      <trkpt lat="44.73894" lon="6.84096">
        <ele>1872</ele>
        <time>2026-03-23T08:41:21Z</time>
      </trkpt>
      <trkpt lat="44.73893" lon="6.84096">
        <ele>1871.4</ele>
        <time>2026-03-23T08:41:22Z</time>
      </trkpt>
      <trkpt lat="44.73892" lon="6.84097">
        <ele>1872.5</ele>
        <time>2026-03-23T08:41:23Z</time>
      </trkpt>
      <trkpt lat="44.73891" lon="6.84097">
        <ele>1872.5</ele>
        <time>2026-03-23T08:41:24Z</time>
      </trkpt>
      <trkpt lat="44.7389" lon="6.84098">
        <ele>1872.5</ele>
        <time>2026-03-23T08:41:25Z</time>
      </trkpt>
      <trkpt lat="44.7389" lon="6.84098">
        <ele>1872.1</ele>
        <time>2026-03-23T08:41:26Z</time>
      </trkpt>
      <trkpt lat="44.73889" lon="6.84099">
        <ele>1872.1</ele>
        <time>2026-03-23T08:41:27Z</time>
      </trkpt>
      <trkpt lat="44.73889" lon="6.841">
        <ele>1872.1</ele>
        <time>2026-03-23T08:41:28Z</time>
      </trkpt>
      <trkpt lat="44.73889" lon="6.841">
        <ele>1872.1</ele>
        <time>2026-03-23T08:41:29Z</time>
      </trkpt>
      <trkpt lat="44.73888" lon="6.84101">
        <ele>1873.2</ele>
        <time>2026-03-23T08:41:30Z</time>
      </trkpt>
      <trkpt lat="44.73887" lon="6.84101">
        <ele>1873.2</ele>
        <time>2026-03-23T08:41:31Z</time>
      </trkpt>
      <trkpt lat="44.73886" lon="6.84102">
        <ele>1872.8</ele>
        <time>2026-03-23T08:41:32Z</time>
      </trkpt>
      <trkpt lat="44.73885" lon="6.84103">
        <ele>1872.8</ele>
        <time>2026-03-23T08:41:33Z</time>
      </trkpt>
      <trkpt lat="44.73884" lon="6.84104">
        <ele>1872.8</ele>
        <time>2026-03-23T08:41:34Z</time>
      </trkpt>
      <trkpt lat="44.73884" lon="6.84104">
        <ele>1872.8</ele>
        <time>2026-03-23T08:41:35Z</time>
      </trkpt>
      <trkpt lat="44.73883" lon="6.84104">
        <ele>1872.4</ele>
        <time>2026-03-23T08:41:36Z</time>
      </trkpt>
      <trkpt lat="44.73883" lon="6.84104">
        <ele>1872.4</ele>
        <time>2026-03-23T08:41:37Z</time>
      </trkpt>
      <trkpt lat="44.73882" lon="6.84105">
        <ele>1872.4</ele>
        <time>2026-03-23T08:41:38Z</time>
      </trkpt>
      <trkpt lat="44.73881" lon="6.84105">
        <ele>1872.4</ele>
        <time>2026-03-23T08:41:39Z</time>
      </trkpt>
      <trkpt lat="44.73881" lon="6.84104">
        <ele>1872.4</ele>
        <time>2026-03-23T08:41:40Z</time>
      </trkpt>
      <trkpt lat="44.73881" lon="6.84104">
        <ele>1872</ele>
        <time>2026-03-23T08:41:41Z</time>
      </trkpt>
      <trkpt lat="44.7388" lon="6.84104">
        <ele>1872</ele>
        <time>2026-03-23T08:41:42Z</time>
      </trkpt>
      <trkpt lat="44.7388" lon="6.84104">
        <ele>1872</ele>
        <time>2026-03-23T08:41:43Z</time>
      </trkpt>
      <trkpt lat="44.73879" lon="6.84104">
        <ele>1872</ele>
        <time>2026-03-23T08:41:44Z</time>
      </trkpt>
      <trkpt lat="44.73879" lon="6.84105">
        <ele>1872</ele>
        <time>2026-03-23T08:41:45Z</time>
      </trkpt>
      <trkpt lat="44.73878" lon="6.84105">
        <ele>1872</ele>
        <time>2026-03-23T08:41:46Z</time>
      </trkpt>
      <trkpt lat="44.73878" lon="6.84105">
        <ele>1873.1</ele>
        <time>2026-03-23T08:41:47Z</time>
      </trkpt>
      <trkpt lat="44.73878" lon="6.84105">
        <ele>1872.7</ele>
        <time>2026-03-23T08:41:48Z</time>
      </trkpt>
      <trkpt lat="44.73877" lon="6.84106">
        <ele>1872.7</ele>
        <time>2026-03-23T08:41:49Z</time>
      </trkpt>
      <trkpt lat="44.73876" lon="6.84106">
        <ele>1872.7</ele>
        <time>2026-03-23T08:41:50Z</time>
      </trkpt>
      <trkpt lat="44.73875" lon="6.84107">
        <ele>1872.7</ele>
        <time>2026-03-23T08:41:51Z</time>
      </trkpt>
      <trkpt lat="44.73875" lon="6.84107">
        <ele>1872.3</ele>
        <time>2026-03-23T08:41:52Z</time>
      </trkpt>
      <trkpt lat="44.73874" lon="6.84108">
        <ele>1872.3</ele>
        <time>2026-03-23T08:41:53Z</time>
      </trkpt>
      <trkpt lat="44.73873" lon="6.84108">
        <ele>1872.3</ele>
        <time>2026-03-23T08:41:54Z</time>
      </trkpt>
      <trkpt lat="44.73872" lon="6.8411">
        <ele>1873.4</ele>
        <time>2026-03-23T08:41:55Z</time>
      </trkpt>
      <trkpt lat="44.73871" lon="6.84111">
        <ele>1872.9</ele>
        <time>2026-03-23T08:41:57Z</time>
      </trkpt>
      <trkpt lat="44.7387" lon="6.84113">
        <ele>1872.9</ele>
        <time>2026-03-23T08:41:58Z</time>
      </trkpt>
      <trkpt lat="44.73869" lon="6.84113">
        <ele>1872.9</ele>
        <time>2026-03-23T08:41:59Z</time>
      </trkpt>
      <trkpt lat="44.73868" lon="6.84114">
        <ele>1873.5</ele>
        <time>2026-03-23T08:42:00Z</time>
      </trkpt>
      <trkpt lat="44.73868" lon="6.84115">
        <ele>1873.5</ele>
        <time>2026-03-23T08:42:01Z</time>
      </trkpt>
      <trkpt lat="44.73867" lon="6.84115">
        <ele>1873.5</ele>
        <time>2026-03-23T08:42:02Z</time>
      </trkpt>
      <trkpt lat="44.73867" lon="6.84116">
        <ele>1873.5</ele>
        <time>2026-03-23T08:42:03Z</time>
      </trkpt>
      <trkpt lat="44.73866" lon="6.84116">
        <ele>1873.4</ele>
        <time>2026-03-23T08:42:04Z</time>
      </trkpt>
      <trkpt lat="44.73866" lon="6.84117">
        <ele>1873.4</ele>
        <time>2026-03-23T08:42:06Z</time>
      </trkpt>
      <trkpt lat="44.73865" lon="6.84117">
        <ele>1873</ele>
        <time>2026-03-23T08:42:07Z</time>
      </trkpt>
      <trkpt lat="44.73865" lon="6.84117">
        <ele>1873</ele>
        <time>2026-03-23T08:42:08Z</time>
      </trkpt>
      <trkpt lat="44.73864" lon="6.84117">
        <ele>1873</ele>
        <time>2026-03-23T08:42:09Z</time>
      </trkpt>
      <trkpt lat="44.73864" lon="6.84117">
        <ele>1873</ele>
        <time>2026-03-23T08:42:10Z</time>
      </trkpt>
      <trkpt lat="44.73863" lon="6.84117">
        <ele>1873</ele>
        <time>2026-03-23T08:42:11Z</time>
      </trkpt>
      <trkpt lat="44.73862" lon="6.84117">
        <ele>1872.5</ele>
        <time>2026-03-23T08:42:12Z</time>
      </trkpt>
      <trkpt lat="44.73862" lon="6.84118">
        <ele>1872.5</ele>
        <time>2026-03-23T08:42:13Z</time>
      </trkpt>
      <trkpt lat="44.73861" lon="6.84118">
        <ele>1873.5</ele>
        <time>2026-03-23T08:42:14Z</time>
      </trkpt>
      <trkpt lat="44.7386" lon="6.84118">
        <ele>1873.4</ele>
        <time>2026-03-23T08:42:15Z</time>
      </trkpt>
      <trkpt lat="44.7386" lon="6.84118">
        <ele>1873.4</ele>
        <time>2026-03-23T08:42:16Z</time>
      </trkpt>
      <trkpt lat="44.73859" lon="6.84118">
        <ele>1873</ele>
        <time>2026-03-23T08:42:17Z</time>
      </trkpt>
      <trkpt lat="44.73859" lon="6.84119">
        <ele>1873</ele>
        <time>2026-03-23T08:42:18Z</time>
      </trkpt>
      <trkpt lat="44.73858" lon="6.84119">
        <ele>1872.9</ele>
        <time>2026-03-23T08:42:19Z</time>
      </trkpt>
      <trkpt lat="44.73858" lon="6.84118">
        <ele>1872.9</ele>
        <time>2026-03-23T08:42:20Z</time>
      </trkpt>
      <trkpt lat="44.73857" lon="6.84118">
        <ele>1872.9</ele>
        <time>2026-03-23T08:42:21Z</time>
      </trkpt>
      <trkpt lat="44.73857" lon="6.84118">
        <ele>1872.9</ele>
        <time>2026-03-23T08:42:22Z</time>
      </trkpt>
      <trkpt lat="44.73857" lon="6.84118">
        <ele>1872.9</ele>
        <time>2026-03-23T08:42:23Z</time>
      </trkpt>
      <trkpt lat="44.73857" lon="6.84118">
        <ele>1872.9</ele>
        <time>2026-03-23T08:42:24Z</time>
      </trkpt>
      <trkpt lat="44.73856" lon="6.84118">
        <ele>1872.5</ele>
        <time>2026-03-23T08:42:25Z</time>
      </trkpt>
      <trkpt lat="44.73856" lon="6.84118">
        <ele>1872.5</ele>
        <time>2026-03-23T08:42:26Z</time>
      </trkpt>
      <trkpt lat="44.73856" lon="6.84119">
        <ele>1872.5</ele>
        <time>2026-03-23T08:42:27Z</time>
      </trkpt>
      <trkpt lat="44.73855" lon="6.8412">
        <ele>1872.5</ele>
        <time>2026-03-23T08:42:28Z</time>
      </trkpt>
      <trkpt lat="44.73855" lon="6.84121">
        <ele>1872.5</ele>
        <time>2026-03-23T08:42:29Z</time>
      </trkpt>
      <trkpt lat="44.73854" lon="6.84122">
        <ele>1873.5</ele>
        <time>2026-03-23T08:42:30Z</time>
      </trkpt>
      <trkpt lat="44.73854" lon="6.84124">
        <ele>1873.5</ele>
        <time>2026-03-23T08:42:31Z</time>
      </trkpt>
      <trkpt lat="44.73854" lon="6.84125">
        <ele>1873.5</ele>
        <time>2026-03-23T08:42:32Z</time>
      </trkpt>
      <trkpt lat="44.73855" lon="6.84125">
        <ele>1873.5</ele>
        <time>2026-03-23T08:42:33Z</time>
      </trkpt>
      <trkpt lat="44.73855" lon="6.84126">
        <ele>1873.5</ele>
        <time>2026-03-23T08:42:34Z</time>
      </trkpt>
      <trkpt lat="44.73855" lon="6.84127">
        <ele>1874.5</ele>
        <time>2026-03-23T08:42:35Z</time>
      </trkpt>
      <trkpt lat="44.73856" lon="6.84128">
        <ele>1874.5</ele>
        <time>2026-03-23T08:42:36Z</time>
      </trkpt>
      <trkpt lat="44.73856" lon="6.84128">
        <ele>1874.5</ele>
        <time>2026-03-23T08:42:37Z</time>
      </trkpt>
      <trkpt lat="44.73856" lon="6.84129">
        <ele>1874.5</ele>
        <time>2026-03-23T08:42:38Z</time>
      </trkpt>
      <trkpt lat="44.73857" lon="6.8413">
        <ele>1875</ele>
        <time>2026-03-23T08:42:39Z</time>
      </trkpt>
      <trkpt lat="44.73857" lon="6.84131">
        <ele>1875</ele>
        <time>2026-03-23T08:42:40Z</time>
      </trkpt>
      <trkpt lat="44.73858" lon="6.84131">
        <ele>1876.1</ele>
        <time>2026-03-23T08:42:41Z</time>
      </trkpt>
      <trkpt lat="44.73858" lon="6.84132">
        <ele>1876.1</ele>
        <time>2026-03-23T08:42:42Z</time>
      </trkpt>
      <trkpt lat="44.73859" lon="6.84132">
        <ele>1876.1</ele>
        <time>2026-03-23T08:42:43Z</time>
      </trkpt>
      <trkpt lat="44.73859" lon="6.84133">
        <ele>1876.1</ele>
        <time>2026-03-23T08:42:44Z</time>
      </trkpt>
      <trkpt lat="44.7386" lon="6.84133">
        <ele>1876.6</ele>
        <time>2026-03-23T08:42:45Z</time>
      </trkpt>
      <trkpt lat="44.7386" lon="6.84132">
        <ele>1876.6</ele>
        <time>2026-03-23T08:42:46Z</time>
      </trkpt>
      <trkpt lat="44.7386" lon="6.84133">
        <ele>1876.6</ele>
        <time>2026-03-23T08:42:47Z</time>
      </trkpt>
      <trkpt lat="44.73861" lon="6.84133">
        <ele>1876.6</ele>
        <time>2026-03-23T08:42:48Z</time>
      </trkpt>
      <trkpt lat="44.73861" lon="6.84133">
        <ele>1876.6</ele>
        <time>2026-03-23T08:42:49Z</time>
      </trkpt>
      <trkpt lat="44.73862" lon="6.84133">
        <ele>1876.6</ele>
        <time>2026-03-23T08:42:50Z</time>
      </trkpt>
      <trkpt lat="44.73862" lon="6.84134">
        <ele>1876.6</ele>
        <time>2026-03-23T08:42:51Z</time>
      </trkpt>
      <trkpt lat="44.73863" lon="6.84134">
        <ele>1877.1</ele>
        <time>2026-03-23T08:42:52Z</time>
      </trkpt>
      <trkpt lat="44.73864" lon="6.84135">
        <ele>1877.1</ele>
        <time>2026-03-23T08:42:53Z</time>
      </trkpt>
      <trkpt lat="44.73864" lon="6.84135">
        <ele>1877.1</ele>
        <time>2026-03-23T08:42:54Z</time>
      </trkpt>
      <trkpt lat="44.73865" lon="6.84135">
        <ele>1878.2</ele>
        <time>2026-03-23T08:42:55Z</time>
      </trkpt>
      <trkpt lat="44.73865" lon="6.84136">
        <ele>1878.2</ele>
        <time>2026-03-23T08:42:56Z</time>
      </trkpt>
      <trkpt lat="44.73866" lon="6.84136">
        <ele>1878.7</ele>
        <time>2026-03-23T08:42:57Z</time>
      </trkpt>
      <trkpt lat="44.73866" lon="6.84136">
        <ele>1878.7</ele>
        <time>2026-03-23T08:42:58Z</time>
      </trkpt>
      <trkpt lat="44.73867" lon="6.84137">
        <ele>1878.7</ele>
        <time>2026-03-23T08:42:59Z</time>
      </trkpt>
      <trkpt lat="44.73867" lon="6.84137">
        <ele>1878.7</ele>
        <time>2026-03-23T08:43:00Z</time>
      </trkpt>
      <trkpt lat="44.73868" lon="6.84137">
        <ele>1878.7</ele>
        <time>2026-03-23T08:43:01Z</time>
      </trkpt>
      <trkpt lat="44.73868" lon="6.84138">
        <ele>1878.7</ele>
        <time>2026-03-23T08:43:02Z</time>
      </trkpt>
      <trkpt lat="44.73869" lon="6.84138">
        <ele>1879.2</ele>
        <time>2026-03-23T08:43:03Z</time>
      </trkpt>
      <trkpt lat="44.73869" lon="6.84138">
        <ele>1879.2</ele>
        <time>2026-03-23T08:43:04Z</time>
      </trkpt>
      <trkpt lat="44.7387" lon="6.84139">
        <ele>1879.2</ele>
        <time>2026-03-23T08:43:05Z</time>
      </trkpt>
      <trkpt lat="44.7387" lon="6.84139">
        <ele>1879.2</ele>
        <time>2026-03-23T08:43:06Z</time>
      </trkpt>
      <trkpt lat="44.73871" lon="6.84139">
        <ele>1879.2</ele>
        <time>2026-03-23T08:43:07Z</time>
      </trkpt>
      <trkpt lat="44.73871" lon="6.84139">
        <ele>1880.3</ele>
        <time>2026-03-23T08:43:08Z</time>
      </trkpt>
      <trkpt lat="44.73871" lon="6.8414">
        <ele>1880.3</ele>
        <time>2026-03-23T08:43:09Z</time>
      </trkpt>
      <trkpt lat="44.73872" lon="6.8414">
        <ele>1880.7</ele>
        <time>2026-03-23T08:43:10Z</time>
      </trkpt>
      <trkpt lat="44.73873" lon="6.8414">
        <ele>1880.7</ele>
        <time>2026-03-23T08:43:11Z</time>
      </trkpt>
      <trkpt lat="44.73873" lon="6.84141">
        <ele>1880.7</ele>
        <time>2026-03-23T08:43:12Z</time>
      </trkpt>
      <trkpt lat="44.73874" lon="6.84141">
        <ele>1880.7</ele>
        <time>2026-03-23T08:43:13Z</time>
      </trkpt>
      <trkpt lat="44.73874" lon="6.84141">
        <ele>1880.7</ele>
        <time>2026-03-23T08:43:14Z</time>
      </trkpt>
      <trkpt lat="44.73874" lon="6.84142">
        <ele>1880.7</ele>
        <time>2026-03-23T08:43:15Z</time>
      </trkpt>
      <trkpt lat="44.73875" lon="6.84142">
        <ele>1881.1</ele>
        <time>2026-03-23T08:43:16Z</time>
      </trkpt>
      <trkpt lat="44.73875" lon="6.84143">
        <ele>1881.1</ele>
        <time>2026-03-23T08:43:17Z</time>
      </trkpt>
      <trkpt lat="44.73876" lon="6.84144">
        <ele>1881.1</ele>
        <time>2026-03-23T08:43:18Z</time>
      </trkpt>
      <trkpt lat="44.73877" lon="6.84144">
        <ele>1882.3</ele>
        <time>2026-03-23T08:43:20Z</time>
      </trkpt>
      <trkpt lat="44.73878" lon="6.84145">
        <ele>1882.3</ele>
        <time>2026-03-23T08:43:21Z</time>
      </trkpt>
      <trkpt lat="44.73878" lon="6.84145">
        <ele>1882.6</ele>
        <time>2026-03-23T08:43:22Z</time>
      </trkpt>
      <trkpt lat="44.73878" lon="6.84146">
        <ele>1882.6</ele>
        <time>2026-03-23T08:43:23Z</time>
      </trkpt>
      <trkpt lat="44.73879" lon="6.84146">
        <ele>1882.6</ele>
        <time>2026-03-23T08:43:24Z</time>
      </trkpt>
      <trkpt lat="44.73879" lon="6.84147">
        <ele>1882.6</ele>
        <time>2026-03-23T08:43:25Z</time>
      </trkpt>
      <trkpt lat="44.73879" lon="6.84147">
        <ele>1882.6</ele>
        <time>2026-03-23T08:43:26Z</time>
      </trkpt>
      <trkpt lat="44.7388" lon="6.84148">
        <ele>1882.6</ele>
        <time>2026-03-23T08:43:27Z</time>
      </trkpt>
      <trkpt lat="44.7388" lon="6.84148">
        <ele>1883.8</ele>
        <time>2026-03-23T08:43:28Z</time>
      </trkpt>
      <trkpt lat="44.73881" lon="6.84149">
        <ele>1884.1</ele>
        <time>2026-03-23T08:43:30Z</time>
      </trkpt>
      <trkpt lat="44.73882" lon="6.84149">
        <ele>1884.1</ele>
        <time>2026-03-23T08:43:31Z</time>
      </trkpt>
      <trkpt lat="44.73882" lon="6.84149">
        <ele>1884.1</ele>
        <time>2026-03-23T08:43:32Z</time>
      </trkpt>
      <trkpt lat="44.73883" lon="6.8415">
        <ele>1884.1</ele>
        <time>2026-03-23T08:43:33Z</time>
      </trkpt>
      <trkpt lat="44.73883" lon="6.8415">
        <ele>1884.1</ele>
        <time>2026-03-23T08:43:34Z</time>
      </trkpt>
      <trkpt lat="44.73884" lon="6.84151">
        <ele>1884.1</ele>
        <time>2026-03-23T08:43:35Z</time>
      </trkpt>
      <trkpt lat="44.73884" lon="6.84151">
        <ele>1884.4</ele>
        <time>2026-03-23T08:43:36Z</time>
      </trkpt>
      <trkpt lat="44.73885" lon="6.84152">
        <ele>1884.4</ele>
        <time>2026-03-23T08:43:37Z</time>
      </trkpt>
      <trkpt lat="44.73885" lon="6.84152">
        <ele>1884.4</ele>
        <time>2026-03-23T08:43:38Z</time>
      </trkpt>
      <trkpt lat="44.73885" lon="6.84152">
        <ele>1885.5</ele>
        <time>2026-03-23T08:43:39Z</time>
      </trkpt>
      <trkpt lat="44.73885" lon="6.84153">
        <ele>1885.5</ele>
        <time>2026-03-23T08:43:40Z</time>
      </trkpt>
      <trkpt lat="44.73886" lon="6.84153">
        <ele>1885.5</ele>
        <time>2026-03-23T08:43:41Z</time>
      </trkpt>
      <trkpt lat="44.73886" lon="6.84153">
        <ele>1885.5</ele>
        <time>2026-03-23T08:43:42Z</time>
      </trkpt>
      <trkpt lat="44.73886" lon="6.84153">
        <ele>1885.5</ele>
        <time>2026-03-23T08:43:43Z</time>
      </trkpt>
      <trkpt lat="44.73887" lon="6.84153">
        <ele>1885.5</ele>
        <time>2026-03-23T08:43:44Z</time>
      </trkpt>
      <trkpt lat="44.73887" lon="6.84154">
        <ele>1885.8</ele>
        <time>2026-03-23T08:43:45Z</time>
      </trkpt>
      <trkpt lat="44.73888" lon="6.84154">
        <ele>1885.8</ele>
        <time>2026-03-23T08:43:46Z</time>
      </trkpt>
      <trkpt lat="44.73888" lon="6.84154">
        <ele>1885.8</ele>
        <time>2026-03-23T08:43:47Z</time>
      </trkpt>
      <trkpt lat="44.73888" lon="6.84154">
        <ele>1885.8</ele>
        <time>2026-03-23T08:43:48Z</time>
      </trkpt>
      <trkpt lat="44.73889" lon="6.84155">
        <ele>1885.8</ele>
        <time>2026-03-23T08:43:50Z</time>
      </trkpt>
      <trkpt lat="44.7389" lon="6.84156">
        <ele>1885.8</ele>
        <time>2026-03-23T08:43:52Z</time>
      </trkpt>
      <trkpt lat="44.7389" lon="6.84156">
        <ele>1885.8</ele>
        <time>2026-03-23T08:43:53Z</time>
      </trkpt>
      <trkpt lat="44.7389" lon="6.84157">
        <ele>1887.3</ele>
        <time>2026-03-23T08:43:54Z</time>
      </trkpt>
      <trkpt lat="44.7389" lon="6.84157">
        <ele>1887.3</ele>
        <time>2026-03-23T08:43:55Z</time>
      </trkpt>
      <trkpt lat="44.7389" lon="6.84158">
        <ele>1887.3</ele>
        <time>2026-03-23T08:43:56Z</time>
      </trkpt>
      <trkpt lat="44.7389" lon="6.84158">
        <ele>1887.3</ele>
        <time>2026-03-23T08:43:57Z</time>
      </trkpt>
      <trkpt lat="44.7389" lon="6.84159">
        <ele>1886.9</ele>
        <time>2026-03-23T08:43:58Z</time>
      </trkpt>
      <trkpt lat="44.7389" lon="6.84159">
        <ele>1886.9</ele>
        <time>2026-03-23T08:43:59Z</time>
      </trkpt>
      <trkpt lat="44.73889" lon="6.8416">
        <ele>1886.9</ele>
        <time>2026-03-23T08:44:00Z</time>
      </trkpt>
      <trkpt lat="44.73889" lon="6.8416">
        <ele>1886.9</ele>
        <time>2026-03-23T08:44:01Z</time>
      </trkpt>
      <trkpt lat="44.73889" lon="6.8416">
        <ele>1886.9</ele>
        <time>2026-03-23T08:44:02Z</time>
      </trkpt>
      <trkpt lat="44.73888" lon="6.84161">
        <ele>1886.9</ele>
        <time>2026-03-23T08:44:03Z</time>
      </trkpt>
      <trkpt lat="44.73888" lon="6.84161">
        <ele>1888</ele>
        <time>2026-03-23T08:44:04Z</time>
      </trkpt>
      <trkpt lat="44.73887" lon="6.84161">
        <ele>1887.7</ele>
        <time>2026-03-23T08:44:05Z</time>
      </trkpt>
      <trkpt lat="44.73886" lon="6.84161">
        <ele>1887.7</ele>
        <time>2026-03-23T08:44:06Z</time>
      </trkpt>
      <trkpt lat="44.73885" lon="6.84161">
        <ele>1887.7</ele>
        <time>2026-03-23T08:44:07Z</time>
      </trkpt>
      <trkpt lat="44.73885" lon="6.84162">
        <ele>1887.7</ele>
        <time>2026-03-23T08:44:08Z</time>
      </trkpt>
      <trkpt lat="44.73884" lon="6.84162">
        <ele>1887.4</ele>
        <time>2026-03-23T08:44:09Z</time>
      </trkpt>
      <trkpt lat="44.73883" lon="6.84162">
        <ele>1887.4</ele>
        <time>2026-03-23T08:44:10Z</time>
      </trkpt>
      <trkpt lat="44.73883" lon="6.84162">
        <ele>1887.4</ele>
        <time>2026-03-23T08:44:11Z</time>
      </trkpt>
      <trkpt lat="44.73882" lon="6.84162">
        <ele>1887.4</ele>
        <time>2026-03-23T08:44:12Z</time>
      </trkpt>
      <trkpt lat="44.73881" lon="6.84162">
        <ele>1887.4</ele>
        <time>2026-03-23T08:44:13Z</time>
      </trkpt>
      <trkpt lat="44.73881" lon="6.84163">
        <ele>1887.1</ele>
        <time>2026-03-23T08:44:14Z</time>
      </trkpt>
      <trkpt lat="44.7388" lon="6.84163">
        <ele>1887.1</ele>
        <time>2026-03-23T08:44:15Z</time>
      </trkpt>
      <trkpt lat="44.73879" lon="6.84163">
        <ele>1887.1</ele>
        <time>2026-03-23T08:44:16Z</time>
      </trkpt>
      <trkpt lat="44.73879" lon="6.84164">
        <ele>1887.1</ele>
        <time>2026-03-23T08:44:17Z</time>
      </trkpt>
      <trkpt lat="44.73878" lon="6.84164">
        <ele>1887.1</ele>
        <time>2026-03-23T08:44:18Z</time>
      </trkpt>
      <trkpt lat="44.73878" lon="6.84164">
        <ele>1886.7</ele>
        <time>2026-03-23T08:44:19Z</time>
      </trkpt>
      <trkpt lat="44.73877" lon="6.84165">
        <ele>1886.7</ele>
        <time>2026-03-23T08:44:20Z</time>
      </trkpt>
      <trkpt lat="44.73876" lon="6.84165">
        <ele>1887.9</ele>
        <time>2026-03-23T08:44:21Z</time>
      </trkpt>
      <trkpt lat="44.73876" lon="6.84165">
        <ele>1887.9</ele>
        <time>2026-03-23T08:44:22Z</time>
      </trkpt>
      <trkpt lat="44.73875" lon="6.84166">
        <ele>1887.9</ele>
        <time>2026-03-23T08:44:23Z</time>
      </trkpt>
      <trkpt lat="44.73875" lon="6.84166">
        <ele>1887.6</ele>
        <time>2026-03-23T08:44:24Z</time>
      </trkpt>
      <trkpt lat="44.73874" lon="6.84167">
        <ele>1887.6</ele>
        <time>2026-03-23T08:44:25Z</time>
      </trkpt>
      <trkpt lat="44.73873" lon="6.84167">
        <ele>1887.6</ele>
        <time>2026-03-23T08:44:26Z</time>
      </trkpt>
      <trkpt lat="44.73873" lon="6.84168">
        <ele>1887.6</ele>
        <time>2026-03-23T08:44:27Z</time>
      </trkpt>
      <trkpt lat="44.73872" lon="6.84169">
        <ele>1887.6</ele>
        <time>2026-03-23T08:44:28Z</time>
      </trkpt>
      <trkpt lat="44.73872" lon="6.84169">
        <ele>1888.5</ele>
        <time>2026-03-23T08:44:29Z</time>
      </trkpt>
      <trkpt lat="44.7387" lon="6.8417">
        <ele>1888.5</ele>
        <time>2026-03-23T08:44:30Z</time>
      </trkpt>
      <trkpt lat="44.7387" lon="6.84171">
        <ele>1888.5</ele>
        <time>2026-03-23T08:44:32Z</time>
      </trkpt>
      <trkpt lat="44.73869" lon="6.84171">
        <ele>1888.5</ele>
        <time>2026-03-23T08:44:33Z</time>
      </trkpt>
      <trkpt lat="44.73868" lon="6.84171">
        <ele>1888.1</ele>
        <time>2026-03-23T08:44:34Z</time>
      </trkpt>
      <trkpt lat="44.73868" lon="6.84172">
        <ele>1888.1</ele>
        <time>2026-03-23T08:44:35Z</time>
      </trkpt>
      <trkpt lat="44.73867" lon="6.84172">
        <ele>1888.1</ele>
        <time>2026-03-23T08:44:36Z</time>
      </trkpt>
      <trkpt lat="44.73866" lon="6.84172">
        <ele>1888.1</ele>
        <time>2026-03-23T08:44:37Z</time>
      </trkpt>
      <trkpt lat="44.73866" lon="6.84172">
        <ele>1888.1</ele>
        <time>2026-03-23T08:44:38Z</time>
      </trkpt>
      <trkpt lat="44.73865" lon="6.84173">
        <ele>1887.7</ele>
        <time>2026-03-23T08:44:39Z</time>
      </trkpt>
      <trkpt lat="44.73864" lon="6.84173">
        <ele>1887.7</ele>
        <time>2026-03-23T08:44:40Z</time>
      </trkpt>
      <trkpt lat="44.73864" lon="6.84174">
        <ele>1889.1</ele>
        <time>2026-03-23T08:44:41Z</time>
      </trkpt>
      <trkpt lat="44.73863" lon="6.84174">
        <ele>1889.1</ele>
        <time>2026-03-23T08:44:42Z</time>
      </trkpt>
      <trkpt lat="44.73862" lon="6.84175">
        <ele>1888.7</ele>
        <time>2026-03-23T08:44:43Z</time>
      </trkpt>
      <trkpt lat="44.73862" lon="6.84175">
        <ele>1888.7</ele>
        <time>2026-03-23T08:44:44Z</time>
      </trkpt>
      <trkpt lat="44.73861" lon="6.84175">
        <ele>1888.7</ele>
        <time>2026-03-23T08:44:45Z</time>
      </trkpt>
      <trkpt lat="44.73861" lon="6.84175">
        <ele>1888.7</ele>
        <time>2026-03-23T08:44:46Z</time>
      </trkpt>
      <trkpt lat="44.7386" lon="6.84175">
        <ele>1888.7</ele>
        <time>2026-03-23T08:44:47Z</time>
      </trkpt>
      <trkpt lat="44.73859" lon="6.84175">
        <ele>1888.3</ele>
        <time>2026-03-23T08:44:48Z</time>
      </trkpt>
      <trkpt lat="44.73859" lon="6.84175">
        <ele>1888.3</ele>
        <time>2026-03-23T08:44:49Z</time>
      </trkpt>
      <trkpt lat="44.73858" lon="6.84175">
        <ele>1888.3</ele>
        <time>2026-03-23T08:44:50Z</time>
      </trkpt>
      <trkpt lat="44.73858" lon="6.84175">
        <ele>1888.3</ele>
        <time>2026-03-23T08:44:51Z</time>
      </trkpt>
      <trkpt lat="44.73857" lon="6.84175">
        <ele>1888.3</ele>
        <time>2026-03-23T08:44:52Z</time>
      </trkpt>
      <trkpt lat="44.73857" lon="6.84175">
        <ele>1888.3</ele>
        <time>2026-03-23T08:44:53Z</time>
      </trkpt>
      <trkpt lat="44.73856" lon="6.84176">
        <ele>1887.9</ele>
        <time>2026-03-23T08:44:54Z</time>
      </trkpt>
      <trkpt lat="44.73856" lon="6.84176">
        <ele>1887.9</ele>
        <time>2026-03-23T08:44:55Z</time>
      </trkpt>
      <trkpt lat="44.73856" lon="6.84177">
        <ele>1887.9</ele>
        <time>2026-03-23T08:44:56Z</time>
      </trkpt>
      <trkpt lat="44.73856" lon="6.84177">
        <ele>1887.9</ele>
        <time>2026-03-23T08:44:57Z</time>
      </trkpt>
      <trkpt lat="44.73856" lon="6.84177">
        <ele>1887.9</ele>
        <time>2026-03-23T08:44:58Z</time>
      </trkpt>
      <trkpt lat="44.73856" lon="6.84177">
        <ele>1887.9</ele>
        <time>2026-03-23T08:44:59Z</time>
      </trkpt>
      <trkpt lat="44.73856" lon="6.84177">
        <ele>1887.9</ele>
        <time>2026-03-23T08:45:00Z</time>
      </trkpt>
      <trkpt lat="44.73855" lon="6.84177">
        <ele>1887.9</ele>
        <time>2026-03-23T08:45:01Z</time>
      </trkpt>
      <trkpt lat="44.73854" lon="6.84177">
        <ele>1887.9</ele>
        <time>2026-03-23T08:45:02Z</time>
      </trkpt>
      <trkpt lat="44.73853" lon="6.84177">
        <ele>1887.6</ele>
        <time>2026-03-23T08:45:03Z</time>
      </trkpt>
      <trkpt lat="44.73851" lon="6.84177">
        <ele>1887.6</ele>
        <time>2026-03-23T08:45:04Z</time>
      </trkpt>
      <trkpt lat="44.7385" lon="6.84177">
        <ele>1887.2</ele>
        <time>2026-03-23T08:45:05Z</time>
      </trkpt>
      <trkpt lat="44.73849" lon="6.84177">
        <ele>1887.2</ele>
        <time>2026-03-23T08:45:06Z</time>
      </trkpt>
      <trkpt lat="44.73849" lon="6.84177">
        <ele>1887.2</ele>
        <time>2026-03-23T08:45:07Z</time>
      </trkpt>
      <trkpt lat="44.73848" lon="6.84176">
        <ele>1887.2</ele>
        <time>2026-03-23T08:45:08Z</time>
      </trkpt>
      <trkpt lat="44.73848" lon="6.84176">
        <ele>1887.2</ele>
        <time>2026-03-23T08:45:09Z</time>
      </trkpt>
      <trkpt lat="44.73847" lon="6.84175">
        <ele>1887</ele>
        <time>2026-03-23T08:45:10Z</time>
      </trkpt>
      <trkpt lat="44.73847" lon="6.84175">
        <ele>1887</ele>
        <time>2026-03-23T08:45:12Z</time>
      </trkpt>
      <trkpt lat="44.73846" lon="6.84175">
        <ele>1887</ele>
        <time>2026-03-23T08:45:13Z</time>
      </trkpt>
      <trkpt lat="44.73846" lon="6.84175">
        <ele>1887</ele>
        <time>2026-03-23T08:45:14Z</time>
      </trkpt>
      <trkpt lat="44.73845" lon="6.84174">
        <ele>1886.9</ele>
        <time>2026-03-23T08:45:15Z</time>
      </trkpt>
      <trkpt lat="44.73845" lon="6.84174">
        <ele>1886.9</ele>
        <time>2026-03-23T08:45:16Z</time>
      </trkpt>
      <trkpt lat="44.73844" lon="6.84174">
        <ele>1886.7</ele>
        <time>2026-03-23T08:45:17Z</time>
      </trkpt>
      <trkpt lat="44.73843" lon="6.84173">
        <ele>1885.3</ele>
        <time>2026-03-23T08:45:18Z</time>
      </trkpt>
      <trkpt lat="44.73843" lon="6.84173">
        <ele>1885.3</ele>
        <time>2026-03-23T08:45:19Z</time>
      </trkpt>
      <trkpt lat="44.73842" lon="6.84173">
        <ele>1885.3</ele>
        <time>2026-03-23T08:45:21Z</time>
      </trkpt>
      <trkpt lat="44.73842" lon="6.84173">
        <ele>1885.3</ele>
        <time>2026-03-23T08:45:22Z</time>
      </trkpt>
      <trkpt lat="44.73842" lon="6.84173">
        <ele>1885.3</ele>
        <time>2026-03-23T08:45:23Z</time>
      </trkpt>
      <trkpt lat="44.73841" lon="6.84173">
        <ele>1885</ele>
        <time>2026-03-23T08:45:24Z</time>
      </trkpt>
      <trkpt lat="44.73841" lon="6.84173">
        <ele>1885</ele>
        <time>2026-03-23T08:45:25Z</time>
      </trkpt>
      <trkpt lat="44.73841" lon="6.84173">
        <ele>1885</ele>
        <time>2026-03-23T08:45:26Z</time>
      </trkpt>
      <trkpt lat="44.73841" lon="6.84173">
        <ele>1885</ele>
        <time>2026-03-23T08:45:27Z</time>
      </trkpt>
      <trkpt lat="44.7384" lon="6.84172">
        <ele>1885</ele>
        <time>2026-03-23T08:45:28Z</time>
      </trkpt>
      <trkpt lat="44.7384" lon="6.84172">
        <ele>1885</ele>
        <time>2026-03-23T08:45:29Z</time>
      </trkpt>
      <trkpt lat="44.7384" lon="6.84172">
        <ele>1885</ele>
        <time>2026-03-23T08:45:30Z</time>
      </trkpt>
      <trkpt lat="44.7384" lon="6.84172">
        <ele>1885</ele>
        <time>2026-03-23T08:45:31Z</time>
      </trkpt>
      <trkpt lat="44.73839" lon="6.84172">
        <ele>1885</ele>
        <time>2026-03-23T08:45:32Z</time>
      </trkpt>
      <trkpt lat="44.73839" lon="6.84171">
        <ele>1885</ele>
        <time>2026-03-23T08:45:33Z</time>
      </trkpt>
      <trkpt lat="44.73838" lon="6.84171">
        <ele>1885</ele>
        <time>2026-03-23T08:45:34Z</time>
      </trkpt>
      <trkpt lat="44.73838" lon="6.84171">
        <ele>1884.7</ele>
        <time>2026-03-23T08:45:35Z</time>
      </trkpt>
      <trkpt lat="44.73837" lon="6.84171">
        <ele>1884.7</ele>
        <time>2026-03-23T08:45:36Z</time>
      </trkpt>
      <trkpt lat="44.73837" lon="6.84171">
        <ele>1884.7</ele>
        <time>2026-03-23T08:45:37Z</time>
      </trkpt>
      <trkpt lat="44.73837" lon="6.84171">
        <ele>1884.7</ele>
        <time>2026-03-23T08:45:38Z</time>
      </trkpt>
      <trkpt lat="44.73836" lon="6.84171">
        <ele>1884.7</ele>
        <time>2026-03-23T08:45:39Z</time>
      </trkpt>
      <trkpt lat="44.73836" lon="6.84171">
        <ele>1884.7</ele>
        <time>2026-03-23T08:45:40Z</time>
      </trkpt>
      <trkpt lat="44.73835" lon="6.84171">
        <ele>1884.7</ele>
        <time>2026-03-23T08:45:41Z</time>
      </trkpt>
      <trkpt lat="44.73835" lon="6.84171">
        <ele>1884.7</ele>
        <time>2026-03-23T08:45:42Z</time>
      </trkpt>
      <trkpt lat="44.73835" lon="6.84172">
        <ele>1884.4</ele>
        <time>2026-03-23T08:45:43Z</time>
      </trkpt>
      <trkpt lat="44.73834" lon="6.84172">
        <ele>1884.4</ele>
        <time>2026-03-23T08:45:44Z</time>
      </trkpt>
      <trkpt lat="44.73834" lon="6.84172">
        <ele>1884.4</ele>
        <time>2026-03-23T08:45:45Z</time>
      </trkpt>
      <trkpt lat="44.73834" lon="6.84173">
        <ele>1884.4</ele>
        <time>2026-03-23T08:45:46Z</time>
      </trkpt>
      <trkpt lat="44.73834" lon="6.84173">
        <ele>1884.4</ele>
        <time>2026-03-23T08:45:48Z</time>
      </trkpt>
      <trkpt lat="44.73834" lon="6.84173">
        <ele>1884.4</ele>
        <time>2026-03-23T08:45:49Z</time>
      </trkpt>
      <trkpt lat="44.73834" lon="6.84174">
        <ele>1884.4</ele>
        <time>2026-03-23T08:45:50Z</time>
      </trkpt>
      <trkpt lat="44.73833" lon="6.84174">
        <ele>1885.8</ele>
        <time>2026-03-23T08:45:51Z</time>
      </trkpt>
      <trkpt lat="44.73833" lon="6.84174">
        <ele>1885.8</ele>
        <time>2026-03-23T08:45:52Z</time>
      </trkpt>
      <trkpt lat="44.73833" lon="6.84175">
        <ele>1885.8</ele>
        <time>2026-03-23T08:45:53Z</time>
      </trkpt>
      <trkpt lat="44.73832" lon="6.84175">
        <ele>1885.8</ele>
        <time>2026-03-23T08:45:54Z</time>
      </trkpt>
      <trkpt lat="44.73832" lon="6.84175">
        <ele>1885.5</ele>
        <time>2026-03-23T08:45:55Z</time>
      </trkpt>
      <trkpt lat="44.73831" lon="6.84176">
        <ele>1885.5</ele>
        <time>2026-03-23T08:45:56Z</time>
      </trkpt>
      <trkpt lat="44.73831" lon="6.84176">
        <ele>1885.5</ele>
        <time>2026-03-23T08:45:57Z</time>
      </trkpt>
      <trkpt lat="44.73831" lon="6.84177">
        <ele>1885.5</ele>
        <time>2026-03-23T08:45:58Z</time>
      </trkpt>
      <trkpt lat="44.73831" lon="6.84177">
        <ele>1885.5</ele>
        <time>2026-03-23T08:45:59Z</time>
      </trkpt>
      <trkpt lat="44.7383" lon="6.84178">
        <ele>1886.9</ele>
        <time>2026-03-23T08:46:00Z</time>
      </trkpt>
      <trkpt lat="44.7383" lon="6.84179">
        <ele>1886.9</ele>
        <time>2026-03-23T08:46:01Z</time>
      </trkpt>
      <trkpt lat="44.7383" lon="6.84178">
        <ele>1886.9</ele>
        <time>2026-03-23T08:46:02Z</time>
      </trkpt>
      <trkpt lat="44.7383" lon="6.84179">
        <ele>1886.9</ele>
        <time>2026-03-23T08:46:03Z</time>
      </trkpt>
      <trkpt lat="44.73829" lon="6.84179">
        <ele>1886.9</ele>
        <time>2026-03-23T08:46:04Z</time>
      </trkpt>
      <trkpt lat="44.73829" lon="6.8418">
        <ele>1886.6</ele>
        <time>2026-03-23T08:46:05Z</time>
      </trkpt>
      <trkpt lat="44.73829" lon="6.8418">
        <ele>1886.6</ele>
        <time>2026-03-23T08:46:06Z</time>
      </trkpt>
      <trkpt lat="44.73828" lon="6.84181">
        <ele>1886.6</ele>
        <time>2026-03-23T08:46:07Z</time>
      </trkpt>
      <trkpt lat="44.73828" lon="6.84182">
        <ele>1886.6</ele>
        <time>2026-03-23T08:46:08Z</time>
      </trkpt>
      <trkpt lat="44.73828" lon="6.84182">
        <ele>1886.6</ele>
        <time>2026-03-23T08:46:09Z</time>
      </trkpt>
      <trkpt lat="44.73828" lon="6.84183">
        <ele>1888.1</ele>
        <time>2026-03-23T08:46:10Z</time>
      </trkpt>
      <trkpt lat="44.73828" lon="6.84183">
        <ele>1888.1</ele>
        <time>2026-03-23T08:46:11Z</time>
      </trkpt>
      <trkpt lat="44.73827" lon="6.84183">
        <ele>1888.1</ele>
        <time>2026-03-23T08:46:12Z</time>
      </trkpt>
      <trkpt lat="44.73827" lon="6.84184">
        <ele>1888.1</ele>
        <time>2026-03-23T08:46:13Z</time>
      </trkpt>
      <trkpt lat="44.73827" lon="6.84184">
        <ele>1888.1</ele>
        <time>2026-03-23T08:46:15Z</time>
      </trkpt>
      <trkpt lat="44.73827" lon="6.84185">
        <ele>1888.1</ele>
        <time>2026-03-23T08:46:16Z</time>
      </trkpt>
      <trkpt lat="44.73827" lon="6.84186">
        <ele>1888.1</ele>
        <time>2026-03-23T08:46:17Z</time>
      </trkpt>
      <trkpt lat="44.73827" lon="6.84186">
        <ele>1888.1</ele>
        <time>2026-03-23T08:46:18Z</time>
      </trkpt>
      <trkpt lat="44.73827" lon="6.84187">
        <ele>1889.6</ele>
        <time>2026-03-23T08:46:19Z</time>
      </trkpt>
      <trkpt lat="44.73827" lon="6.84187">
        <ele>1889.6</ele>
        <time>2026-03-23T08:46:20Z</time>
      </trkpt>
      <trkpt lat="44.73827" lon="6.84187">
        <ele>1889.6</ele>
        <time>2026-03-23T08:46:21Z</time>
      </trkpt>
      <trkpt lat="44.73827" lon="6.84187">
        <ele>1889.6</ele>
        <time>2026-03-23T08:46:22Z</time>
      </trkpt>
      <trkpt lat="44.73827" lon="6.84187">
        <ele>1889.6</ele>
        <time>2026-03-23T08:46:23Z</time>
      </trkpt>
      <trkpt lat="44.73828" lon="6.84187">
        <ele>1889.6</ele>
        <time>2026-03-23T08:46:24Z</time>
      </trkpt>
      <trkpt lat="44.73828" lon="6.84188">
        <ele>1889.6</ele>
        <time>2026-03-23T08:46:25Z</time>
      </trkpt>
      <trkpt lat="44.73828" lon="6.84188">
        <ele>1889.6</ele>
        <time>2026-03-23T08:46:26Z</time>
      </trkpt>
      <trkpt lat="44.73829" lon="6.84187">
        <ele>1889.6</ele>
        <time>2026-03-23T08:46:27Z</time>
      </trkpt>
      <trkpt lat="44.73829" lon="6.84187">
        <ele>1889.9</ele>
        <time>2026-03-23T08:46:28Z</time>
      </trkpt>
      <trkpt lat="44.73829" lon="6.84187">
        <ele>1889.9</ele>
        <time>2026-03-23T08:46:29Z</time>
      </trkpt>
      <trkpt lat="44.7383" lon="6.84187">
        <ele>1889.9</ele>
        <time>2026-03-23T08:46:30Z</time>
      </trkpt>
      <trkpt lat="44.7383" lon="6.84187">
        <ele>1889.9</ele>
        <time>2026-03-23T08:46:31Z</time>
      </trkpt>
      <trkpt lat="44.7383" lon="6.84187">
        <ele>1889.9</ele>
        <time>2026-03-23T08:46:32Z</time>
      </trkpt>
      <trkpt lat="44.7383" lon="6.84188">
        <ele>1889.9</ele>
        <time>2026-03-23T08:46:33Z</time>
      </trkpt>
      <trkpt lat="44.7383" lon="6.84188">
        <ele>1889.9</ele>
        <time>2026-03-23T08:46:34Z</time>
      </trkpt>
      <trkpt lat="44.73831" lon="6.84188">
        <ele>1889.9</ele>
        <time>2026-03-23T08:46:35Z</time>
      </trkpt>
      <trkpt lat="44.73831" lon="6.84188">
        <ele>1889.9</ele>
        <time>2026-03-23T08:46:36Z</time>
      </trkpt>
      <trkpt lat="44.73831" lon="6.84188">
        <ele>1889.9</ele>
        <time>2026-03-23T08:46:37Z</time>
      </trkpt>
      <trkpt lat="44.73831" lon="6.84188">
        <ele>1889.9</ele>
        <time>2026-03-23T08:46:38Z</time>
      </trkpt>
      <trkpt lat="44.73831" lon="6.84188">
        <ele>1889.9</ele>
        <time>2026-03-23T08:46:39Z</time>
      </trkpt>
      <trkpt lat="44.73831" lon="6.84188">
        <ele>1889.9</ele>
        <time>2026-03-23T08:46:40Z</time>
      </trkpt>
      <trkpt lat="44.73831" lon="6.84188">
        <ele>1889.9</ele>
        <time>2026-03-23T08:46:41Z</time>
      </trkpt>
      <trkpt lat="44.73831" lon="6.84188">
        <ele>1889.9</ele>
        <time>2026-03-23T08:46:42Z</time>
      </trkpt>
      <trkpt lat="44.73831" lon="6.84188">
        <ele>1889.9</ele>
        <time>2026-03-23T08:46:43Z</time>
      </trkpt>
      <trkpt lat="44.73831" lon="6.84188">
        <ele>1889.9</ele>
        <time>2026-03-23T08:46:44Z</time>
      </trkpt>
      <trkpt lat="44.73831" lon="6.84188">
        <ele>1889.9</ele>
        <time>2026-03-23T08:46:45Z</time>
      </trkpt>
      <trkpt lat="44.73831" lon="6.84188">
        <ele>1889.9</ele>
        <time>2026-03-23T08:46:47Z</time>
      </trkpt>
      <trkpt lat="44.73831" lon="6.84188">
        <ele>1889.9</ele>
        <time>2026-03-23T08:46:48Z</time>
      </trkpt>
      <trkpt lat="44.73832" lon="6.84189">
        <ele>1889.9</ele>
        <time>2026-03-23T08:46:49Z</time>
      </trkpt>
      <trkpt lat="44.73833" lon="6.84189">
        <ele>1890.1</ele>
        <time>2026-03-23T08:46:51Z</time>
      </trkpt>
      <trkpt lat="44.73833" lon="6.84189">
        <ele>1890.1</ele>
        <time>2026-03-23T08:46:52Z</time>
      </trkpt>
      <trkpt lat="44.73833" lon="6.84189">
        <ele>1890.1</ele>
        <time>2026-03-23T08:46:53Z</time>
      </trkpt>
      <trkpt lat="44.73833" lon="6.84189">
        <ele>1890.1</ele>
        <time>2026-03-23T08:46:54Z</time>
      </trkpt>
      <trkpt lat="44.73833" lon="6.84189">
        <ele>1890.1</ele>
        <time>2026-03-23T08:46:55Z</time>
      </trkpt>
      <trkpt lat="44.73833" lon="6.84189">
        <ele>1890.1</ele>
        <time>2026-03-23T08:46:56Z</time>
      </trkpt>
      <trkpt lat="44.73834" lon="6.84189">
        <ele>1890.1</ele>
        <time>2026-03-23T08:46:57Z</time>
      </trkpt>
      <trkpt lat="44.73834" lon="6.84189">
        <ele>1890.1</ele>
        <time>2026-03-23T08:46:59Z</time>
      </trkpt>
      <trkpt lat="44.73834" lon="6.84188">
        <ele>1890.1</ele>
        <time>2026-03-23T08:47:00Z</time>
      </trkpt>
      <trkpt lat="44.73834" lon="6.84188">
        <ele>1890.1</ele>
        <time>2026-03-23T08:47:01Z</time>
      </trkpt>
      <trkpt lat="44.73835" lon="6.84188">
        <ele>1890.1</ele>
        <time>2026-03-23T08:47:02Z</time>
      </trkpt>
      <trkpt lat="44.73835" lon="6.84188">
        <ele>1890.1</ele>
        <time>2026-03-23T08:47:03Z</time>
      </trkpt>
      <trkpt lat="44.73835" lon="6.84188">
        <ele>1890.4</ele>
        <time>2026-03-23T08:47:04Z</time>
      </trkpt>
      <trkpt lat="44.73836" lon="6.84188">
        <ele>1890.4</ele>
        <time>2026-03-23T08:47:05Z</time>
      </trkpt>
      <trkpt lat="44.73836" lon="6.84188">
        <ele>1890.4</ele>
        <time>2026-03-23T08:47:06Z</time>
      </trkpt>
      <trkpt lat="44.73836" lon="6.84188">
        <ele>1890.4</ele>
        <time>2026-03-23T08:47:07Z</time>
      </trkpt>
      <trkpt lat="44.73836" lon="6.84188">
        <ele>1890.4</ele>
        <time>2026-03-23T08:47:08Z</time>
      </trkpt>
      <trkpt lat="44.73836" lon="6.84188">
        <ele>1890.4</ele>
        <time>2026-03-23T08:47:09Z</time>
      </trkpt>
      <trkpt lat="44.73837" lon="6.84188">
        <ele>1890.4</ele>
        <time>2026-03-23T08:47:10Z</time>
      </trkpt>
      <trkpt lat="44.73837" lon="6.84189">
        <ele>1890.4</ele>
        <time>2026-03-23T08:47:11Z</time>
      </trkpt>
      <trkpt lat="44.73837" lon="6.84189">
        <ele>1890.4</ele>
        <time>2026-03-23T08:47:12Z</time>
      </trkpt>
      <trkpt lat="44.73838" lon="6.84189">
        <ele>1890.4</ele>
        <time>2026-03-23T08:47:13Z</time>
      </trkpt>
      <trkpt lat="44.73838" lon="6.8419">
        <ele>1890.7</ele>
        <time>2026-03-23T08:47:14Z</time>
      </trkpt>
      <trkpt lat="44.73839" lon="6.8419">
        <ele>1890.7</ele>
        <time>2026-03-23T08:47:15Z</time>
      </trkpt>
      <trkpt lat="44.7384" lon="6.84191">
        <ele>1892.2</ele>
        <time>2026-03-23T08:47:17Z</time>
      </trkpt>
      <trkpt lat="44.7384" lon="6.84192">
        <ele>1892.2</ele>
        <time>2026-03-23T08:47:18Z</time>
      </trkpt>
      <trkpt lat="44.73841" lon="6.84192">
        <ele>1892.2</ele>
        <time>2026-03-23T08:47:19Z</time>
      </trkpt>
      <trkpt lat="44.73841" lon="6.84193">
        <ele>1892.2</ele>
        <time>2026-03-23T08:47:20Z</time>
      </trkpt>
      <trkpt lat="44.73842" lon="6.84193">
        <ele>1892.5</ele>
        <time>2026-03-23T08:47:21Z</time>
      </trkpt>
      <trkpt lat="44.73842" lon="6.84193">
        <ele>1892.5</ele>
        <time>2026-03-23T08:47:22Z</time>
      </trkpt>
      <trkpt lat="44.73843" lon="6.84194">
        <ele>1892.5</ele>
        <time>2026-03-23T08:47:23Z</time>
      </trkpt>
      <trkpt lat="44.73844" lon="6.84194">
        <ele>1892.5</ele>
        <time>2026-03-23T08:47:24Z</time>
      </trkpt>
      <trkpt lat="44.73844" lon="6.84195">
        <ele>1892.5</ele>
        <time>2026-03-23T08:47:26Z</time>
      </trkpt>
      <trkpt lat="44.73845" lon="6.84195">
        <ele>1894.3</ele>
        <time>2026-03-23T08:47:27Z</time>
      </trkpt>
      <trkpt lat="44.73845" lon="6.84195">
        <ele>1894.3</ele>
        <time>2026-03-23T08:47:28Z</time>
      </trkpt>
      <trkpt lat="44.73845" lon="6.84195">
        <ele>1894.3</ele>
        <time>2026-03-23T08:47:29Z</time>
      </trkpt>
      <trkpt lat="44.73846" lon="6.84195">
        <ele>1892.7</ele>
        <time>2026-03-23T08:47:30Z</time>
      </trkpt>
      <trkpt lat="44.73846" lon="6.84195">
        <ele>1892.7</ele>
        <time>2026-03-23T08:47:31Z</time>
      </trkpt>
      <trkpt lat="44.73847" lon="6.84195">
        <ele>1894.3</ele>
        <time>2026-03-23T08:47:32Z</time>
      </trkpt>
      <trkpt lat="44.73847" lon="6.84195">
        <ele>1892.7</ele>
        <time>2026-03-23T08:47:33Z</time>
      </trkpt>
      <trkpt lat="44.73847" lon="6.84195">
        <ele>1892.7</ele>
        <time>2026-03-23T08:47:34Z</time>
      </trkpt>
      <trkpt lat="44.73847" lon="6.84194">
        <ele>1893</ele>
        <time>2026-03-23T08:47:35Z</time>
      </trkpt>
      <trkpt lat="44.73847" lon="6.84194">
        <ele>1893</ele>
        <time>2026-03-23T08:47:36Z</time>
      </trkpt>
      <trkpt lat="44.73847" lon="6.84194">
        <ele>1893</ele>
        <time>2026-03-23T08:47:37Z</time>
      </trkpt>
      <trkpt lat="44.73847" lon="6.84193">
        <ele>1893</ele>
        <time>2026-03-23T08:47:38Z</time>
      </trkpt>
      <trkpt lat="44.73847" lon="6.84193">
        <ele>1893</ele>
        <time>2026-03-23T08:47:39Z</time>
      </trkpt>
      <trkpt lat="44.73847" lon="6.84193">
        <ele>1893</ele>
        <time>2026-03-23T08:47:40Z</time>
      </trkpt>
      <trkpt lat="44.73847" lon="6.84193">
        <ele>1893</ele>
        <time>2026-03-23T08:47:41Z</time>
      </trkpt>
      <trkpt lat="44.73848" lon="6.84192">
        <ele>1893</ele>
        <time>2026-03-23T08:47:42Z</time>
      </trkpt>
      <trkpt lat="44.73847" lon="6.84192">
        <ele>1893</ele>
        <time>2026-03-23T08:47:43Z</time>
      </trkpt>
      <trkpt lat="44.73847" lon="6.84192">
        <ele>1893</ele>
        <time>2026-03-23T08:47:44Z</time>
      </trkpt>
      <trkpt lat="44.73847" lon="6.84192">
        <ele>1893</ele>
        <time>2026-03-23T08:47:45Z</time>
      </trkpt>
      <trkpt lat="44.73847" lon="6.84192">
        <ele>1893</ele>
        <time>2026-03-23T08:47:46Z</time>
      </trkpt>
      <trkpt lat="44.73847" lon="6.84192">
        <ele>1893</ele>
        <time>2026-03-23T08:47:47Z</time>
      </trkpt>
      <trkpt lat="44.73848" lon="6.84192">
        <ele>1893</ele>
        <time>2026-03-23T08:47:48Z</time>
      </trkpt>
      <trkpt lat="44.73848" lon="6.84192">
        <ele>1893</ele>
        <time>2026-03-23T08:47:49Z</time>
      </trkpt>
      <trkpt lat="44.73847" lon="6.84192">
        <ele>1893</ele>
        <time>2026-03-23T08:47:50Z</time>
      </trkpt>
      <trkpt lat="44.73848" lon="6.84192">
        <ele>1893</ele>
        <time>2026-03-23T08:47:51Z</time>
      </trkpt>
      <trkpt lat="44.73848" lon="6.84192">
        <ele>1893</ele>
        <time>2026-03-23T08:47:52Z</time>
      </trkpt>
      <trkpt lat="44.73848" lon="6.84192">
        <ele>1893</ele>
        <time>2026-03-23T08:47:53Z</time>
      </trkpt>
      <trkpt lat="44.73848" lon="6.84192">
        <ele>1893</ele>
        <time>2026-03-23T08:47:54Z</time>
      </trkpt>
      <trkpt lat="44.73848" lon="6.84192">
        <ele>1893</ele>
        <time>2026-03-23T08:47:55Z</time>
      </trkpt>
      <trkpt lat="44.73848" lon="6.84192">
        <ele>1893</ele>
        <time>2026-03-23T08:47:56Z</time>
      </trkpt>
      <trkpt lat="44.73848" lon="6.84192">
        <ele>1893</ele>
        <time>2026-03-23T08:47:57Z</time>
      </trkpt>
      <trkpt lat="44.73848" lon="6.84192">
        <ele>1893</ele>
        <time>2026-03-23T08:47:58Z</time>
      </trkpt>
      <trkpt lat="44.73848" lon="6.84192">
        <ele>1893</ele>
        <time>2026-03-23T08:47:59Z</time>
      </trkpt>
      <trkpt lat="44.73848" lon="6.84192">
        <ele>1893</ele>
        <time>2026-03-23T08:48:00Z</time>
      </trkpt>
      <trkpt lat="44.73848" lon="6.84192">
        <ele>1893</ele>
        <time>2026-03-23T08:48:01Z</time>
      </trkpt>
      <trkpt lat="44.73848" lon="6.84192">
        <ele>1893</ele>
        <time>2026-03-23T08:48:02Z</time>
      </trkpt>
      <trkpt lat="44.73848" lon="6.84192">
        <ele>1893</ele>
        <time>2026-03-23T08:48:03Z</time>
      </trkpt>
      <trkpt lat="44.73848" lon="6.84192">
        <ele>1893</ele>
        <time>2026-03-23T08:48:04Z</time>
      </trkpt>
      <trkpt lat="44.73848" lon="6.84192">
        <ele>1893</ele>
        <time>2026-03-23T08:48:05Z</time>
      </trkpt>
      <trkpt lat="44.73848" lon="6.84192">
        <ele>1893</ele>
        <time>2026-03-23T08:48:06Z</time>
      </trkpt>
      <trkpt lat="44.73848" lon="6.84192">
        <ele>1893</ele>
        <time>2026-03-23T08:48:07Z</time>
      </trkpt>
      <trkpt lat="44.73848" lon="6.84192">
        <ele>1893</ele>
        <time>2026-03-23T08:48:08Z</time>
      </trkpt>
      <trkpt lat="44.73848" lon="6.84192">
        <ele>1893</ele>
        <time>2026-03-23T08:48:09Z</time>
      </trkpt>
      <trkpt lat="44.73848" lon="6.84192">
        <ele>1893</ele>
        <time>2026-03-23T08:48:10Z</time>
      </trkpt>
      <trkpt lat="44.73848" lon="6.84192">
        <ele>1893</ele>
        <time>2026-03-23T08:48:11Z</time>
      </trkpt>
      <trkpt lat="44.73848" lon="6.84192">
        <ele>1893</ele>
        <time>2026-03-23T08:48:12Z</time>
      </trkpt>
      <trkpt lat="44.73848" lon="6.84192">
        <ele>1893</ele>
        <time>2026-03-23T08:48:13Z</time>
      </trkpt>
      <trkpt lat="44.73848" lon="6.84192">
        <ele>1893</ele>
        <time>2026-03-23T08:48:14Z</time>
      </trkpt>
      <trkpt lat="44.73848" lon="6.84192">
        <ele>1893</ele>
        <time>2026-03-23T08:48:15Z</time>
      </trkpt>
      <trkpt lat="44.73848" lon="6.84192">
        <ele>1893</ele>
        <time>2026-03-23T08:48:16Z</time>
      </trkpt>
      <trkpt lat="44.73848" lon="6.84192">
        <ele>1893</ele>
        <time>2026-03-23T08:48:17Z</time>
      </trkpt>
      <trkpt lat="44.73848" lon="6.84192">
        <ele>1893</ele>
        <time>2026-03-23T08:48:18Z</time>
      </trkpt>
      <trkpt lat="44.73848" lon="6.84192">
        <ele>1893</ele>
        <time>2026-03-23T08:48:19Z</time>
      </trkpt>
      <trkpt lat="44.73848" lon="6.84192">
        <ele>1893</ele>
        <time>2026-03-23T08:48:20Z</time>
      </trkpt>
      <trkpt lat="44.73848" lon="6.84192">
        <ele>1893</ele>
        <time>2026-03-23T08:48:21Z</time>
      </trkpt>
      <trkpt lat="44.73848" lon="6.84192">
        <ele>1893</ele>
        <time>2026-03-23T08:48:22Z</time>
      </trkpt>
      <trkpt lat="44.73848" lon="6.84192">
        <ele>1893</ele>
        <time>2026-03-23T08:48:23Z</time>
      </trkpt>
      <trkpt lat="44.73848" lon="6.84192">
        <ele>1893</ele>
        <time>2026-03-23T08:48:24Z</time>
      </trkpt>
      <trkpt lat="44.73848" lon="6.84192">
        <ele>1893</ele>
        <time>2026-03-23T08:48:25Z</time>
      </trkpt>
      <trkpt lat="44.73848" lon="6.84192">
        <ele>1893</ele>
        <time>2026-03-23T08:48:26Z</time>
      </trkpt>
      <trkpt lat="44.73848" lon="6.84192">
        <ele>1893</ele>
        <time>2026-03-23T08:48:27Z</time>
      </trkpt>
      <trkpt lat="44.73848" lon="6.84192">
        <ele>1893</ele>
        <time>2026-03-23T08:48:28Z</time>
      </trkpt>
      <trkpt lat="44.73848" lon="6.84192">
        <ele>1893</ele>
        <time>2026-03-23T08:48:29Z</time>
      </trkpt>
      <trkpt lat="44.73848" lon="6.84192">
        <ele>1893</ele>
        <time>2026-03-23T08:48:30Z</time>
      </trkpt>
      <trkpt lat="44.73848" lon="6.84193">
        <ele>1893</ele>
        <time>2026-03-23T08:48:31Z</time>
      </trkpt>
      <trkpt lat="44.73848" lon="6.84193">
        <ele>1893</ele>
        <time>2026-03-23T08:48:32Z</time>
      </trkpt>
      <trkpt lat="44.73848" lon="6.84193">
        <ele>1893</ele>
        <time>2026-03-23T08:48:33Z</time>
      </trkpt>
      <trkpt lat="44.73848" lon="6.84193">
        <ele>1893</ele>
        <time>2026-03-23T08:48:34Z</time>
      </trkpt>
      <trkpt lat="44.73848" lon="6.84193">
        <ele>1893</ele>
        <time>2026-03-23T08:48:35Z</time>
      </trkpt>
      <trkpt lat="44.73848" lon="6.84193">
        <ele>1893</ele>
        <time>2026-03-23T08:48:36Z</time>
      </trkpt>
      <trkpt lat="44.73848" lon="6.84193">
        <ele>1893</ele>
        <time>2026-03-23T08:48:37Z</time>
      </trkpt>
      <trkpt lat="44.73848" lon="6.84193">
        <ele>1893</ele>
        <time>2026-03-23T08:48:38Z</time>
      </trkpt>
      <trkpt lat="44.73848" lon="6.84193">
        <ele>1893</ele>
        <time>2026-03-23T08:48:39Z</time>
      </trkpt>
      <trkpt lat="44.73848" lon="6.84193">
        <ele>1893</ele>
        <time>2026-03-23T08:48:40Z</time>
      </trkpt>
      <trkpt lat="44.73848" lon="6.84193">
        <ele>1893</ele>
        <time>2026-03-23T08:48:41Z</time>
      </trkpt>
      <trkpt lat="44.73848" lon="6.84193">
        <ele>1893</ele>
        <time>2026-03-23T08:48:42Z</time>
      </trkpt>
      <trkpt lat="44.73848" lon="6.84193">
        <ele>1893</ele>
        <time>2026-03-23T08:48:43Z</time>
      </trkpt>
      <trkpt lat="44.73848" lon="6.84193">
        <ele>1893</ele>
        <time>2026-03-23T08:48:44Z</time>
      </trkpt>
      <trkpt lat="44.73848" lon="6.84193">
        <ele>1892.9</ele>
        <time>2026-03-23T08:48:45Z</time>
      </trkpt>
      <trkpt lat="44.73848" lon="6.84193">
        <ele>1892.9</ele>
        <time>2026-03-23T08:48:46Z</time>
      </trkpt>
      <trkpt lat="44.73848" lon="6.84193">
        <ele>1892.9</ele>
        <time>2026-03-23T08:48:47Z</time>
      </trkpt>
      <trkpt lat="44.73848" lon="6.84193">
        <ele>1892.9</ele>
        <time>2026-03-23T08:48:48Z</time>
      </trkpt>
      <trkpt lat="44.73848" lon="6.84193">
        <ele>1892.9</ele>
        <time>2026-03-23T08:48:49Z</time>
      </trkpt>
      <trkpt lat="44.73848" lon="6.84193">
        <ele>1892.9</ele>
        <time>2026-03-23T08:48:50Z</time>
      </trkpt>
      <trkpt lat="44.73848" lon="6.84193">
        <ele>1892.9</ele>
        <time>2026-03-23T08:48:51Z</time>
      </trkpt>
      <trkpt lat="44.73848" lon="6.84193">
        <ele>1892.9</ele>
        <time>2026-03-23T08:48:52Z</time>
      </trkpt>
      <trkpt lat="44.73848" lon="6.84193">
        <ele>1892.9</ele>
        <time>2026-03-23T08:48:53Z</time>
      </trkpt>
      <trkpt lat="44.73848" lon="6.84193">
        <ele>1892.9</ele>
        <time>2026-03-23T08:48:54Z</time>
      </trkpt>
      <trkpt lat="44.73848" lon="6.84193">
        <ele>1892.9</ele>
        <time>2026-03-23T08:48:55Z</time>
      </trkpt>
      <trkpt lat="44.73848" lon="6.84193">
        <ele>1892.9</ele>
        <time>2026-03-23T08:48:56Z</time>
      </trkpt>
      <trkpt lat="44.73848" lon="6.84193">
        <ele>1892.9</ele>
        <time>2026-03-23T08:48:57Z</time>
      </trkpt>
      <trkpt lat="44.73848" lon="6.84193">
        <ele>1892.9</ele>
        <time>2026-03-23T08:48:58Z</time>
      </trkpt>
      <trkpt lat="44.73848" lon="6.84194">
        <ele>1892.9</ele>
        <time>2026-03-23T08:48:59Z</time>
      </trkpt>
      <trkpt lat="44.73848" lon="6.84194">
        <ele>1892.9</ele>
        <time>2026-03-23T08:49:00Z</time>
      </trkpt>
      <trkpt lat="44.73848" lon="6.84194">
        <ele>1892.9</ele>
        <time>2026-03-23T08:49:01Z</time>
      </trkpt>
      <trkpt lat="44.73848" lon="6.84194">
        <ele>1892.9</ele>
        <time>2026-03-23T08:49:02Z</time>
      </trkpt>
      <trkpt lat="44.73848" lon="6.84194">
        <ele>1892.9</ele>
        <time>2026-03-23T08:49:03Z</time>
      </trkpt>
      <trkpt lat="44.73848" lon="6.84194">
        <ele>1892.9</ele>
        <time>2026-03-23T08:49:04Z</time>
      </trkpt>
      <trkpt lat="44.73848" lon="6.84194">
        <ele>1892.9</ele>
        <time>2026-03-23T08:49:05Z</time>
      </trkpt>
      <trkpt lat="44.73848" lon="6.84194">
        <ele>1892.9</ele>
        <time>2026-03-23T08:49:06Z</time>
      </trkpt>
      <trkpt lat="44.73848" lon="6.84194">
        <ele>1892.9</ele>
        <time>2026-03-23T08:49:07Z</time>
      </trkpt>
      <trkpt lat="44.73848" lon="6.84194">
        <ele>1892.9</ele>
        <time>2026-03-23T08:49:08Z</time>
      </trkpt>
      <trkpt lat="44.73848" lon="6.84194">
        <ele>1892.9</ele>
        <time>2026-03-23T08:49:09Z</time>
      </trkpt>
      <trkpt lat="44.73848" lon="6.84194">
        <ele>1892.9</ele>
        <time>2026-03-23T08:49:10Z</time>
      </trkpt>
      <trkpt lat="44.73848" lon="6.84194">
        <ele>1892.9</ele>
        <time>2026-03-23T08:49:11Z</time>
      </trkpt>
      <trkpt lat="44.73848" lon="6.84194">
        <ele>1892.9</ele>
        <time>2026-03-23T08:49:12Z</time>
      </trkpt>
      <trkpt lat="44.73848" lon="6.84194">
        <ele>1892.9</ele>
        <time>2026-03-23T08:49:13Z</time>
      </trkpt>
      <trkpt lat="44.73848" lon="6.84194">
        <ele>1892.9</ele>
        <time>2026-03-23T08:49:14Z</time>
      </trkpt>
      <trkpt lat="44.73848" lon="6.84194">
        <ele>1892.9</ele>
        <time>2026-03-23T08:49:15Z</time>
      </trkpt>
      <trkpt lat="44.73848" lon="6.84194">
        <ele>1892.9</ele>
        <time>2026-03-23T08:49:16Z</time>
      </trkpt>
      <trkpt lat="44.73848" lon="6.84194">
        <ele>1892.9</ele>
        <time>2026-03-23T08:49:17Z</time>
      </trkpt>
      <trkpt lat="44.73848" lon="6.84194">
        <ele>1892.9</ele>
        <time>2026-03-23T08:49:18Z</time>
      </trkpt>
      <trkpt lat="44.73848" lon="6.84194">
        <ele>1892.9</ele>
        <time>2026-03-23T08:49:19Z</time>
      </trkpt>
      <trkpt lat="44.73848" lon="6.84194">
        <ele>1892.9</ele>
        <time>2026-03-23T08:49:20Z</time>
      </trkpt>
      <trkpt lat="44.73848" lon="6.84194">
        <ele>1892.9</ele>
        <time>2026-03-23T08:49:21Z</time>
      </trkpt>
      <trkpt lat="44.73848" lon="6.84194">
        <ele>1892.9</ele>
        <time>2026-03-23T08:49:22Z</time>
      </trkpt>
      <trkpt lat="44.73848" lon="6.84194">
        <ele>1892.9</ele>
        <time>2026-03-23T08:49:23Z</time>
      </trkpt>
      <trkpt lat="44.73848" lon="6.84194">
        <ele>1892.9</ele>
        <time>2026-03-23T08:49:24Z</time>
      </trkpt>
      <trkpt lat="44.73848" lon="6.84194">
        <ele>1892.9</ele>
        <time>2026-03-23T08:49:25Z</time>
      </trkpt>
      <trkpt lat="44.73848" lon="6.84194">
        <ele>1892.9</ele>
        <time>2026-03-23T08:49:26Z</time>
      </trkpt>
      <trkpt lat="44.73848" lon="6.84195">
        <ele>1892.9</ele>
        <time>2026-03-23T08:49:27Z</time>
      </trkpt>
      <trkpt lat="44.73848" lon="6.84195">
        <ele>1892.9</ele>
        <time>2026-03-23T08:49:28Z</time>
      </trkpt>
      <trkpt lat="44.73848" lon="6.84195">
        <ele>1892.9</ele>
        <time>2026-03-23T08:49:29Z</time>
      </trkpt>
      <trkpt lat="44.73848" lon="6.84195">
        <ele>1892.9</ele>
        <time>2026-03-23T08:49:30Z</time>
      </trkpt>
      <trkpt lat="44.73848" lon="6.84195">
        <ele>1892.9</ele>
        <time>2026-03-23T08:49:31Z</time>
      </trkpt>
      <trkpt lat="44.73848" lon="6.84195">
        <ele>1892.9</ele>
        <time>2026-03-23T08:49:32Z</time>
      </trkpt>
      <trkpt lat="44.73848" lon="6.84195">
        <ele>1892.9</ele>
        <time>2026-03-23T08:49:33Z</time>
      </trkpt>
      <trkpt lat="44.73848" lon="6.84195">
        <ele>1892.9</ele>
        <time>2026-03-23T08:49:34Z</time>
      </trkpt>
      <trkpt lat="44.73848" lon="6.84195">
        <ele>1892.9</ele>
        <time>2026-03-23T08:49:35Z</time>
      </trkpt>
      <trkpt lat="44.73848" lon="6.84195">
        <ele>1892.9</ele>
        <time>2026-03-23T08:49:36Z</time>
      </trkpt>
      <trkpt lat="44.73848" lon="6.84195">
        <ele>1892.9</ele>
        <time>2026-03-23T08:49:37Z</time>
      </trkpt>
      <trkpt lat="44.73848" lon="6.84195">
        <ele>1892.9</ele>
        <time>2026-03-23T08:49:38Z</time>
      </trkpt>
      <trkpt lat="44.73848" lon="6.84195">
        <ele>1892.9</ele>
        <time>2026-03-23T08:49:39Z</time>
      </trkpt>
      <trkpt lat="44.73848" lon="6.84195">
        <ele>1892.9</ele>
        <time>2026-03-23T08:49:40Z</time>
      </trkpt>
      <trkpt lat="44.73848" lon="6.84195">
        <ele>1892.9</ele>
        <time>2026-03-23T08:49:41Z</time>
      </trkpt>
      <trkpt lat="44.73848" lon="6.84195">
        <ele>1892.9</ele>
        <time>2026-03-23T08:49:42Z</time>
      </trkpt>
      <trkpt lat="44.73848" lon="6.84195">
        <ele>1892.9</ele>
        <time>2026-03-23T08:49:43Z</time>
      </trkpt>
      <trkpt lat="44.73848" lon="6.84195">
        <ele>1894.4</ele>
        <time>2026-03-23T08:49:44Z</time>
      </trkpt>
      <trkpt lat="44.73848" lon="6.84195">
        <ele>1894.4</ele>
        <time>2026-03-23T08:49:45Z</time>
      </trkpt>
      <trkpt lat="44.73848" lon="6.84195">
        <ele>1894.4</ele>
        <time>2026-03-23T08:49:46Z</time>
      </trkpt>
      <trkpt lat="44.73848" lon="6.84195">
        <ele>1894.4</ele>
        <time>2026-03-23T08:49:47Z</time>
      </trkpt>
      <trkpt lat="44.73848" lon="6.84195">
        <ele>1894.4</ele>
        <time>2026-03-23T08:49:48Z</time>
      </trkpt>
      <trkpt lat="44.73848" lon="6.84195">
        <ele>1894.4</ele>
        <time>2026-03-23T08:49:49Z</time>
      </trkpt>
      <trkpt lat="44.73848" lon="6.84195">
        <ele>1894.4</ele>
        <time>2026-03-23T08:49:50Z</time>
      </trkpt>
      <trkpt lat="44.73848" lon="6.84195">
        <ele>1894.4</ele>
        <time>2026-03-23T08:49:51Z</time>
      </trkpt>
      <trkpt lat="44.73848" lon="6.84195">
        <ele>1894.4</ele>
        <time>2026-03-23T08:49:52Z</time>
      </trkpt>
      <trkpt lat="44.73848" lon="6.84195">
        <ele>1894.4</ele>
        <time>2026-03-23T08:49:53Z</time>
      </trkpt>
      <trkpt lat="44.73848" lon="6.84195">
        <ele>1894.4</ele>
        <time>2026-03-23T08:49:54Z</time>
      </trkpt>
      <trkpt lat="44.73848" lon="6.84196">
        <ele>1894.4</ele>
        <time>2026-03-23T08:49:55Z</time>
      </trkpt>
      <trkpt lat="44.73848" lon="6.84196">
        <ele>1894.4</ele>
        <time>2026-03-23T08:49:56Z</time>
      </trkpt>
      <trkpt lat="44.73848" lon="6.84196">
        <ele>1894.4</ele>
        <time>2026-03-23T08:49:57Z</time>
      </trkpt>
      <trkpt lat="44.73848" lon="6.84196">
        <ele>1894.4</ele>
        <time>2026-03-23T08:49:58Z</time>
      </trkpt>
      <trkpt lat="44.73848" lon="6.84196">
        <ele>1894.4</ele>
        <time>2026-03-23T08:49:59Z</time>
      </trkpt>
      <trkpt lat="44.73848" lon="6.84196">
        <ele>1894.4</ele>
        <time>2026-03-23T08:50:00Z</time>
      </trkpt>
      <trkpt lat="44.73848" lon="6.84196">
        <ele>1894.4</ele>
        <time>2026-03-23T08:50:01Z</time>
      </trkpt>
      <trkpt lat="44.73848" lon="6.84196">
        <ele>1894.4</ele>
        <time>2026-03-23T08:50:02Z</time>
      </trkpt>
      <trkpt lat="44.73848" lon="6.84196">
        <ele>1894.4</ele>
        <time>2026-03-23T08:50:03Z</time>
      </trkpt>
      <trkpt lat="44.73848" lon="6.84196">
        <ele>1894.4</ele>
        <time>2026-03-23T08:50:04Z</time>
      </trkpt>
      <trkpt lat="44.73848" lon="6.84196">
        <ele>1894.4</ele>
        <time>2026-03-23T08:50:05Z</time>
      </trkpt>
      <trkpt lat="44.73848" lon="6.84196">
        <ele>1894.4</ele>
        <time>2026-03-23T08:50:06Z</time>
      </trkpt>
      <trkpt lat="44.73848" lon="6.84196">
        <ele>1894.4</ele>
        <time>2026-03-23T08:50:07Z</time>
      </trkpt>
      <trkpt lat="44.73848" lon="6.84196">
        <ele>1894.4</ele>
        <time>2026-03-23T08:50:08Z</time>
      </trkpt>
      <trkpt lat="44.73848" lon="6.84196">
        <ele>1894.4</ele>
        <time>2026-03-23T08:50:09Z</time>
      </trkpt>
      <trkpt lat="44.73848" lon="6.84196">
        <ele>1894.4</ele>
        <time>2026-03-23T08:50:10Z</time>
      </trkpt>
      <trkpt lat="44.73848" lon="6.84196">
        <ele>1894.4</ele>
        <time>2026-03-23T08:50:11Z</time>
      </trkpt>
      <trkpt lat="44.73848" lon="6.84196">
        <ele>1894.4</ele>
        <time>2026-03-23T08:50:12Z</time>
      </trkpt>
      <trkpt lat="44.73848" lon="6.84196">
        <ele>1894.4</ele>
        <time>2026-03-23T08:50:13Z</time>
      </trkpt>
      <trkpt lat="44.73848" lon="6.84196">
        <ele>1894.4</ele>
        <time>2026-03-23T08:50:14Z</time>
      </trkpt>
      <trkpt lat="44.73848" lon="6.84196">
        <ele>1894.4</ele>
        <time>2026-03-23T08:50:15Z</time>
      </trkpt>
      <trkpt lat="44.73848" lon="6.84196">
        <ele>1894.4</ele>
        <time>2026-03-23T08:50:16Z</time>
      </trkpt>
      <trkpt lat="44.73848" lon="6.84196">
        <ele>1894.4</ele>
        <time>2026-03-23T08:50:17Z</time>
      </trkpt>
      <trkpt lat="44.73848" lon="6.84196">
        <ele>1894.4</ele>
        <time>2026-03-23T08:50:18Z</time>
      </trkpt>
      <trkpt lat="44.73848" lon="6.84196">
        <ele>1894.4</ele>
        <time>2026-03-23T08:50:19Z</time>
      </trkpt>
      <trkpt lat="44.73848" lon="6.84196">
        <ele>1894.4</ele>
        <time>2026-03-23T08:50:20Z</time>
      </trkpt>
      <trkpt lat="44.73848" lon="6.84196">
        <ele>1894.4</ele>
        <time>2026-03-23T08:50:21Z</time>
      </trkpt>
      <trkpt lat="44.73848" lon="6.84196">
        <ele>1894.4</ele>
        <time>2026-03-23T08:50:22Z</time>
      </trkpt>
      <trkpt lat="44.73848" lon="6.84197">
        <ele>1894.4</ele>
        <time>2026-03-23T08:50:23Z</time>
      </trkpt>
      <trkpt lat="44.73848" lon="6.84197">
        <ele>1894.4</ele>
        <time>2026-03-23T08:50:24Z</time>
      </trkpt>
      <trkpt lat="44.73848" lon="6.84197">
        <ele>1894.4</ele>
        <time>2026-03-23T08:50:25Z</time>
      </trkpt>
      <trkpt lat="44.73848" lon="6.84197">
        <ele>1894.4</ele>
        <time>2026-03-23T08:50:26Z</time>
      </trkpt>
      <trkpt lat="44.73848" lon="6.84197">
        <ele>1894.4</ele>
        <time>2026-03-23T08:50:27Z</time>
      </trkpt>
      <trkpt lat="44.73848" lon="6.84197">
        <ele>1894.4</ele>
        <time>2026-03-23T08:50:28Z</time>
      </trkpt>
      <trkpt lat="44.73848" lon="6.84197">
        <ele>1894.4</ele>
        <time>2026-03-23T08:50:29Z</time>
      </trkpt>
      <trkpt lat="44.73848" lon="6.84197">
        <ele>1894.4</ele>
        <time>2026-03-23T08:50:30Z</time>
      </trkpt>
      <trkpt lat="44.73848" lon="6.84197">
        <ele>1894.4</ele>
        <time>2026-03-23T08:50:31Z</time>
      </trkpt>
      <trkpt lat="44.73848" lon="6.84197">
        <ele>1894.4</ele>
        <time>2026-03-23T08:50:32Z</time>
      </trkpt>
      <trkpt lat="44.73848" lon="6.84197">
        <ele>1894.4</ele>
        <time>2026-03-23T08:50:33Z</time>
      </trkpt>
      <trkpt lat="44.73848" lon="6.84197">
        <ele>1894.4</ele>
        <time>2026-03-23T08:50:34Z</time>
      </trkpt>
      <trkpt lat="44.73848" lon="6.84197">
        <ele>1894.4</ele>
        <time>2026-03-23T08:50:35Z</time>
      </trkpt>
      <trkpt lat="44.73847" lon="6.84198">
        <ele>1894.1</ele>
        <time>2026-03-23T08:50:36Z</time>
      </trkpt>
      <trkpt lat="44.73849" lon="6.84201">
        <ele>1895.8</ele>
        <time>2026-03-23T08:50:37Z</time>
      </trkpt>
      <trkpt lat="44.73849" lon="6.84202">
        <ele>1895.8</ele>
        <time>2026-03-23T08:50:38Z</time>
      </trkpt>
      <trkpt lat="44.73848" lon="6.84203">
        <ele>1895.8</ele>
        <time>2026-03-23T08:50:39Z</time>
      </trkpt>
      <trkpt lat="44.73848" lon="6.84204">
        <ele>1897.3</ele>
        <time>2026-03-23T08:50:40Z</time>
      </trkpt>
      <trkpt lat="44.73847" lon="6.84205">
        <ele>1897</ele>
        <time>2026-03-23T08:50:41Z</time>
      </trkpt>
      <trkpt lat="44.73846" lon="6.84205">
        <ele>1897</ele>
        <time>2026-03-23T08:50:42Z</time>
      </trkpt>
      <trkpt lat="44.73844" lon="6.84207">
        <ele>1896.7</ele>
        <time>2026-03-23T08:50:43Z</time>
      </trkpt>
      <trkpt lat="44.73843" lon="6.84206">
        <ele>1896.7</ele>
        <time>2026-03-23T08:50:45Z</time>
      </trkpt>
      <trkpt lat="44.73842" lon="6.84207">
        <ele>1896.7</ele>
        <time>2026-03-23T08:50:46Z</time>
      </trkpt>
      <trkpt lat="44.73842" lon="6.84207">
        <ele>1896.7</ele>
        <time>2026-03-23T08:50:47Z</time>
      </trkpt>
      <trkpt lat="44.73841" lon="6.84207">
        <ele>1896.7</ele>
        <time>2026-03-23T08:50:48Z</time>
      </trkpt>
      <trkpt lat="44.7384" lon="6.84207">
        <ele>1896.5</ele>
        <time>2026-03-23T08:50:49Z</time>
      </trkpt>
      <trkpt lat="44.7384" lon="6.84207">
        <ele>1896.5</ele>
        <time>2026-03-23T08:50:50Z</time>
      </trkpt>
      <trkpt lat="44.73839" lon="6.84208">
        <ele>1896.5</ele>
        <time>2026-03-23T08:50:51Z</time>
      </trkpt>
      <trkpt lat="44.73839" lon="6.84207">
        <ele>1896.5</ele>
        <time>2026-03-23T08:50:52Z</time>
      </trkpt>
      <trkpt lat="44.73838" lon="6.84207">
        <ele>1896.2</ele>
        <time>2026-03-23T08:50:53Z</time>
      </trkpt>
      <trkpt lat="44.73838" lon="6.84207">
        <ele>1896.2</ele>
        <time>2026-03-23T08:50:55Z</time>
      </trkpt>
      <trkpt lat="44.73836" lon="6.84207">
        <ele>1896.2</ele>
        <time>2026-03-23T08:50:56Z</time>
      </trkpt>
      <trkpt lat="44.73836" lon="6.84207">
        <ele>1896.2</ele>
        <time>2026-03-23T08:50:58Z</time>
      </trkpt>
      <trkpt lat="44.73836" lon="6.84207">
        <ele>1896.2</ele>
        <time>2026-03-23T08:50:59Z</time>
      </trkpt>
      <trkpt lat="44.73836" lon="6.84207">
        <ele>1896.2</ele>
        <time>2026-03-23T08:51:00Z</time>
      </trkpt>
      <trkpt lat="44.73835" lon="6.84208">
        <ele>1895.9</ele>
        <time>2026-03-23T08:51:01Z</time>
      </trkpt>
      <trkpt lat="44.73835" lon="6.84208">
        <ele>1895.8</ele>
        <time>2026-03-23T08:51:02Z</time>
      </trkpt>
      <trkpt lat="44.73834" lon="6.84208">
        <ele>1895.8</ele>
        <time>2026-03-23T08:51:03Z</time>
      </trkpt>
      <trkpt lat="44.73834" lon="6.84208">
        <ele>1897.2</ele>
        <time>2026-03-23T08:51:04Z</time>
      </trkpt>
      <trkpt lat="44.73833" lon="6.84208">
        <ele>1897.2</ele>
        <time>2026-03-23T08:51:05Z</time>
      </trkpt>
      <trkpt lat="44.73833" lon="6.84209">
        <ele>1897.2</ele>
        <time>2026-03-23T08:51:06Z</time>
      </trkpt>
      <trkpt lat="44.73832" lon="6.84209">
        <ele>1897.2</ele>
        <time>2026-03-23T08:51:07Z</time>
      </trkpt>
      <trkpt lat="44.73831" lon="6.8421">
        <ele>1896.9</ele>
        <time>2026-03-23T08:51:08Z</time>
      </trkpt>
      <trkpt lat="44.73831" lon="6.8421">
        <ele>1896.9</ele>
        <time>2026-03-23T08:51:09Z</time>
      </trkpt>
      <trkpt lat="44.7383" lon="6.8421">
        <ele>1896.9</ele>
        <time>2026-03-23T08:51:10Z</time>
      </trkpt>
      <trkpt lat="44.7383" lon="6.84211">
        <ele>1896.9</ele>
        <time>2026-03-23T08:51:11Z</time>
      </trkpt>
      <trkpt lat="44.73829" lon="6.84211">
        <ele>1896.9</ele>
        <time>2026-03-23T08:51:12Z</time>
      </trkpt>
      <trkpt lat="44.73829" lon="6.84211">
        <ele>1896.9</ele>
        <time>2026-03-23T08:51:13Z</time>
      </trkpt>
      <trkpt lat="44.73829" lon="6.84212">
        <ele>1896.6</ele>
        <time>2026-03-23T08:51:14Z</time>
      </trkpt>
      <trkpt lat="44.73828" lon="6.84212">
        <ele>1896.6</ele>
        <time>2026-03-23T08:51:15Z</time>
      </trkpt>
      <trkpt lat="44.73828" lon="6.84212">
        <ele>1898</ele>
        <time>2026-03-23T08:51:16Z</time>
      </trkpt>
      <trkpt lat="44.73828" lon="6.84213">
        <ele>1898</ele>
        <time>2026-03-23T08:51:17Z</time>
      </trkpt>
      <trkpt lat="44.73827" lon="6.84213">
        <ele>1898</ele>
        <time>2026-03-23T08:51:18Z</time>
      </trkpt>
      <trkpt lat="44.73827" lon="6.84213">
        <ele>1898</ele>
        <time>2026-03-23T08:51:19Z</time>
      </trkpt>
      <trkpt lat="44.73826" lon="6.84214">
        <ele>1898</ele>
        <time>2026-03-23T08:51:20Z</time>
      </trkpt>
      <trkpt lat="44.73826" lon="6.84214">
        <ele>1897.6</ele>
        <time>2026-03-23T08:51:21Z</time>
      </trkpt>
      <trkpt lat="44.73825" lon="6.84215">
        <ele>1897.6</ele>
        <time>2026-03-23T08:51:22Z</time>
      </trkpt>
      <trkpt lat="44.73825" lon="6.84215">
        <ele>1897.6</ele>
        <time>2026-03-23T08:51:23Z</time>
      </trkpt>
      <trkpt lat="44.73825" lon="6.84216">
        <ele>1897.6</ele>
        <time>2026-03-23T08:51:24Z</time>
      </trkpt>
      <trkpt lat="44.73824" lon="6.84217">
        <ele>1899.1</ele>
        <time>2026-03-23T08:51:25Z</time>
      </trkpt>
      <trkpt lat="44.73824" lon="6.84218">
        <ele>1899.1</ele>
        <time>2026-03-23T08:51:26Z</time>
      </trkpt>
      <trkpt lat="44.73824" lon="6.84218">
        <ele>1899.1</ele>
        <time>2026-03-23T08:51:27Z</time>
      </trkpt>
      <trkpt lat="44.73824" lon="6.84219">
        <ele>1899.1</ele>
        <time>2026-03-23T08:51:29Z</time>
      </trkpt>
      <trkpt lat="44.73825" lon="6.84219">
        <ele>1899.1</ele>
        <time>2026-03-23T08:51:30Z</time>
      </trkpt>
      <trkpt lat="44.73825" lon="6.84219">
        <ele>1899.1</ele>
        <time>2026-03-23T08:51:31Z</time>
      </trkpt>
      <trkpt lat="44.73826" lon="6.8422">
        <ele>1899.4</ele>
        <time>2026-03-23T08:51:32Z</time>
      </trkpt>
      <trkpt lat="44.73827" lon="6.8422">
        <ele>1899.4</ele>
        <time>2026-03-23T08:51:33Z</time>
      </trkpt>
      <trkpt lat="44.73828" lon="6.8422">
        <ele>1899.4</ele>
        <time>2026-03-23T08:51:35Z</time>
      </trkpt>
      <trkpt lat="44.73829" lon="6.8422">
        <ele>1899.4</ele>
        <time>2026-03-23T08:51:36Z</time>
      </trkpt>
      <trkpt lat="44.73829" lon="6.8422">
        <ele>1899.7</ele>
        <time>2026-03-23T08:51:37Z</time>
      </trkpt>
      <trkpt lat="44.7383" lon="6.8422">
        <ele>1899.7</ele>
        <time>2026-03-23T08:51:38Z</time>
      </trkpt>
      <trkpt lat="44.7383" lon="6.84221">
        <ele>1899.7</ele>
        <time>2026-03-23T08:51:39Z</time>
      </trkpt>
      <trkpt lat="44.73831" lon="6.84221">
        <ele>1901.3</ele>
        <time>2026-03-23T08:51:40Z</time>
      </trkpt>
      <trkpt lat="44.73832" lon="6.84221">
        <ele>1901.7</ele>
        <time>2026-03-23T08:51:41Z</time>
      </trkpt>
      <trkpt lat="44.73833" lon="6.84221">
        <ele>1901.7</ele>
        <time>2026-03-23T08:51:42Z</time>
      </trkpt>
      <trkpt lat="44.73833" lon="6.84221">
        <ele>1901.7</ele>
        <time>2026-03-23T08:51:44Z</time>
      </trkpt>
      <trkpt lat="44.73834" lon="6.84222">
        <ele>1901.7</ele>
        <time>2026-03-23T08:51:45Z</time>
      </trkpt>
      <trkpt lat="44.73834" lon="6.84222">
        <ele>1901.7</ele>
        <time>2026-03-23T08:51:46Z</time>
      </trkpt>
      <trkpt lat="44.73835" lon="6.84222">
        <ele>1901.7</ele>
        <time>2026-03-23T08:51:47Z</time>
      </trkpt>
      <trkpt lat="44.73835" lon="6.84222">
        <ele>1901.7</ele>
        <time>2026-03-23T08:51:48Z</time>
      </trkpt>
      <trkpt lat="44.73835" lon="6.84222">
        <ele>1902</ele>
        <time>2026-03-23T08:51:49Z</time>
      </trkpt>
      <trkpt lat="44.73835" lon="6.84222">
        <ele>1901.7</ele>
        <time>2026-03-23T08:51:50Z</time>
      </trkpt>
      <trkpt lat="44.73835" lon="6.84222">
        <ele>1902</ele>
        <time>2026-03-23T08:51:51Z</time>
      </trkpt>
      <trkpt lat="44.73835" lon="6.84222">
        <ele>1901.7</ele>
        <time>2026-03-23T08:51:52Z</time>
      </trkpt>
      <trkpt lat="44.73835" lon="6.84222">
        <ele>1901.7</ele>
        <time>2026-03-23T08:51:53Z</time>
      </trkpt>
      <trkpt lat="44.73834" lon="6.84223">
        <ele>1901.7</ele>
        <time>2026-03-23T08:51:54Z</time>
      </trkpt>
      <trkpt lat="44.73833" lon="6.84223">
        <ele>1901.7</ele>
        <time>2026-03-23T08:51:55Z</time>
      </trkpt>
      <trkpt lat="44.73832" lon="6.84223">
        <ele>1901.7</ele>
        <time>2026-03-23T08:51:56Z</time>
      </trkpt>
      <trkpt lat="44.73831" lon="6.84223">
        <ele>1901.3</ele>
        <time>2026-03-23T08:51:57Z</time>
      </trkpt>
      <trkpt lat="44.73831" lon="6.84223">
        <ele>1901.3</ele>
        <time>2026-03-23T08:51:58Z</time>
      </trkpt>
      <trkpt lat="44.7383" lon="6.84223">
        <ele>1901.3</ele>
        <time>2026-03-23T08:51:59Z</time>
      </trkpt>
      <trkpt lat="44.73829" lon="6.84223">
        <ele>1901.3</ele>
        <time>2026-03-23T08:52:00Z</time>
      </trkpt>
      <trkpt lat="44.73828" lon="6.84223">
        <ele>1900.9</ele>
        <time>2026-03-23T08:52:01Z</time>
      </trkpt>
      <trkpt lat="44.73828" lon="6.84224">
        <ele>1900.9</ele>
        <time>2026-03-23T08:52:02Z</time>
      </trkpt>
      <trkpt lat="44.73827" lon="6.84224">
        <ele>1900.9</ele>
        <time>2026-03-23T08:52:03Z</time>
      </trkpt>
      <trkpt lat="44.73827" lon="6.84224">
        <ele>1900.9</ele>
        <time>2026-03-23T08:52:04Z</time>
      </trkpt>
      <trkpt lat="44.73825" lon="6.84224">
        <ele>1900.6</ele>
        <time>2026-03-23T08:52:05Z</time>
      </trkpt>
      <trkpt lat="44.73825" lon="6.84225">
        <ele>1900.6</ele>
        <time>2026-03-23T08:52:06Z</time>
      </trkpt>
      <trkpt lat="44.73825" lon="6.84225">
        <ele>1900.6</ele>
        <time>2026-03-23T08:52:07Z</time>
      </trkpt>
      <trkpt lat="44.73825" lon="6.84225">
        <ele>1902.1</ele>
        <time>2026-03-23T08:52:08Z</time>
      </trkpt>
      <trkpt lat="44.73825" lon="6.84226">
        <ele>1902.1</ele>
        <time>2026-03-23T08:52:09Z</time>
      </trkpt>
      <trkpt lat="44.73825" lon="6.84226">
        <ele>1902.1</ele>
        <time>2026-03-23T08:52:10Z</time>
      </trkpt>
      <trkpt lat="44.73824" lon="6.84227">
        <ele>1902.1</ele>
        <time>2026-03-23T08:52:11Z</time>
      </trkpt>
      <trkpt lat="44.73824" lon="6.84227">
        <ele>1902.1</ele>
        <time>2026-03-23T08:52:13Z</time>
      </trkpt>
      <trkpt lat="44.73824" lon="6.84227">
        <ele>1902.1</ele>
        <time>2026-03-23T08:52:14Z</time>
      </trkpt>
      <trkpt lat="44.73823" lon="6.84228">
        <ele>1902.1</ele>
        <time>2026-03-23T08:52:15Z</time>
      </trkpt>
      <trkpt lat="44.73823" lon="6.84228">
        <ele>1902.1</ele>
        <time>2026-03-23T08:52:16Z</time>
      </trkpt>
      <trkpt lat="44.73822" lon="6.84228">
        <ele>1901.8</ele>
        <time>2026-03-23T08:52:17Z</time>
      </trkpt>
      <trkpt lat="44.73822" lon="6.84229">
        <ele>1901.8</ele>
        <time>2026-03-23T08:52:18Z</time>
      </trkpt>
      <trkpt lat="44.73821" lon="6.8423">
        <ele>1903.3</ele>
        <time>2026-03-23T08:52:19Z</time>
      </trkpt>
      <trkpt lat="44.73821" lon="6.84231">
        <ele>1903.3</ele>
        <time>2026-03-23T08:52:20Z</time>
      </trkpt>
      <trkpt lat="44.7382" lon="6.84231">
        <ele>1903.3</ele>
        <time>2026-03-23T08:52:21Z</time>
      </trkpt>
      <trkpt lat="44.7382" lon="6.84231">
        <ele>1903.3</ele>
        <time>2026-03-23T08:52:22Z</time>
      </trkpt>
      <trkpt lat="44.7382" lon="6.84232">
        <ele>1903.3</ele>
        <time>2026-03-23T08:52:23Z</time>
      </trkpt>
      <trkpt lat="44.7382" lon="6.84232">
        <ele>1903</ele>
        <time>2026-03-23T08:52:24Z</time>
      </trkpt>
      <trkpt lat="44.7382" lon="6.84232">
        <ele>1903</ele>
        <time>2026-03-23T08:52:25Z</time>
      </trkpt>
      <trkpt lat="44.73819" lon="6.84233">
        <ele>1903</ele>
        <time>2026-03-23T08:52:26Z</time>
      </trkpt>
      <trkpt lat="44.73819" lon="6.84233">
        <ele>1903</ele>
        <time>2026-03-23T08:52:27Z</time>
      </trkpt>
      <trkpt lat="44.73819" lon="6.84234">
        <ele>1904.6</ele>
        <time>2026-03-23T08:52:28Z</time>
      </trkpt>
      <trkpt lat="44.73819" lon="6.84234">
        <ele>1904.6</ele>
        <time>2026-03-23T08:52:29Z</time>
      </trkpt>
      <trkpt lat="44.73819" lon="6.84235">
        <ele>1904.6</ele>
        <time>2026-03-23T08:52:30Z</time>
      </trkpt>
      <trkpt lat="44.73818" lon="6.84235">
        <ele>1904.6</ele>
        <time>2026-03-23T08:52:31Z</time>
      </trkpt>
      <trkpt lat="44.73818" lon="6.84235">
        <ele>1904.6</ele>
        <time>2026-03-23T08:52:32Z</time>
      </trkpt>
      <trkpt lat="44.73818" lon="6.84235">
        <ele>1904.6</ele>
        <time>2026-03-23T08:52:33Z</time>
      </trkpt>
      <trkpt lat="44.73818" lon="6.84235">
        <ele>1904.6</ele>
        <time>2026-03-23T08:52:34Z</time>
      </trkpt>
      <trkpt lat="44.73818" lon="6.84236">
        <ele>1904.5</ele>
        <time>2026-03-23T08:52:35Z</time>
      </trkpt>
      <trkpt lat="44.73818" lon="6.84236">
        <ele>1904.5</ele>
        <time>2026-03-23T08:52:36Z</time>
      </trkpt>
      <trkpt lat="44.73818" lon="6.84236">
        <ele>1904.5</ele>
        <time>2026-03-23T08:52:37Z</time>
      </trkpt>
      <trkpt lat="44.73818" lon="6.84237">
        <ele>1904.5</ele>
        <time>2026-03-23T08:52:38Z</time>
      </trkpt>
      <trkpt lat="44.73818" lon="6.84237">
        <ele>1904.5</ele>
        <time>2026-03-23T08:52:39Z</time>
      </trkpt>
      <trkpt lat="44.73819" lon="6.84237">
        <ele>1904.5</ele>
        <time>2026-03-23T08:52:40Z</time>
      </trkpt>
      <trkpt lat="44.73819" lon="6.84237">
        <ele>1904.5</ele>
        <time>2026-03-23T08:52:41Z</time>
      </trkpt>
      <trkpt lat="44.73819" lon="6.84237">
        <ele>1904.5</ele>
        <time>2026-03-23T08:52:42Z</time>
      </trkpt>
      <trkpt lat="44.7382" lon="6.84237">
        <ele>1904.5</ele>
        <time>2026-03-23T08:52:43Z</time>
      </trkpt>
      <trkpt lat="44.7382" lon="6.84238">
        <ele>1904.9</ele>
        <time>2026-03-23T08:52:44Z</time>
      </trkpt>
      <trkpt lat="44.73821" lon="6.84238">
        <ele>1904.9</ele>
        <time>2026-03-23T08:52:45Z</time>
      </trkpt>
      <trkpt lat="44.73822" lon="6.84238">
        <ele>1906.4</ele>
        <time>2026-03-23T08:52:46Z</time>
      </trkpt>
      <trkpt lat="44.73822" lon="6.84239">
        <ele>1906.4</ele>
        <time>2026-03-23T08:52:47Z</time>
      </trkpt>
      <trkpt lat="44.73823" lon="6.84239">
        <ele>1906.7</ele>
        <time>2026-03-23T08:52:48Z</time>
      </trkpt>
      <trkpt lat="44.73824" lon="6.8424">
        <ele>1906.7</ele>
        <time>2026-03-23T08:52:49Z</time>
      </trkpt>
      <trkpt lat="44.73824" lon="6.8424">
        <ele>1906.7</ele>
        <time>2026-03-23T08:52:50Z</time>
      </trkpt>
      <trkpt lat="44.73825" lon="6.84241">
        <ele>1906.7</ele>
        <time>2026-03-23T08:52:51Z</time>
      </trkpt>
      <trkpt lat="44.73826" lon="6.84242">
        <ele>1906.7</ele>
        <time>2026-03-23T08:52:52Z</time>
      </trkpt>
      <trkpt lat="44.73827" lon="6.84243">
        <ele>1908.6</ele>
        <time>2026-03-23T08:52:53Z</time>
      </trkpt>
      <trkpt lat="44.73827" lon="6.84244">
        <ele>1908.6</ele>
        <time>2026-03-23T08:52:54Z</time>
      </trkpt>
      <trkpt lat="44.73827" lon="6.84244">
        <ele>1908.6</ele>
        <time>2026-03-23T08:52:56Z</time>
      </trkpt>
      <trkpt lat="44.73828" lon="6.84244">
        <ele>1908.6</ele>
        <time>2026-03-23T08:52:57Z</time>
      </trkpt>
      <trkpt lat="44.73828" lon="6.84243">
        <ele>1908.6</ele>
        <time>2026-03-23T08:52:58Z</time>
      </trkpt>
      <trkpt lat="44.73829" lon="6.84243">
        <ele>1908.6</ele>
        <time>2026-03-23T08:52:59Z</time>
      </trkpt>
      <trkpt lat="44.73829" lon="6.84243">
        <ele>1908.6</ele>
        <time>2026-03-23T08:53:00Z</time>
      </trkpt>
      <trkpt lat="44.73829" lon="6.84243">
        <ele>1909</ele>
        <time>2026-03-23T08:53:01Z</time>
      </trkpt>
      <trkpt lat="44.7383" lon="6.84243">
        <ele>1909</ele>
        <time>2026-03-23T08:53:02Z</time>
      </trkpt>
      <trkpt lat="44.7383" lon="6.84243">
        <ele>1909</ele>
        <time>2026-03-23T08:53:03Z</time>
      </trkpt>
      <trkpt lat="44.7383" lon="6.84243">
        <ele>1909</ele>
        <time>2026-03-23T08:53:04Z</time>
      </trkpt>
      <trkpt lat="44.73831" lon="6.84243">
        <ele>1909</ele>
        <time>2026-03-23T08:53:05Z</time>
      </trkpt>
      <trkpt lat="44.73832" lon="6.84242">
        <ele>1909</ele>
        <time>2026-03-23T08:53:06Z</time>
      </trkpt>
      <trkpt lat="44.73833" lon="6.84243">
        <ele>1909.4</ele>
        <time>2026-03-23T08:53:07Z</time>
      </trkpt>
      <trkpt lat="44.73833" lon="6.84242">
        <ele>1909.4</ele>
        <time>2026-03-23T08:53:08Z</time>
      </trkpt>
      <trkpt lat="44.73834" lon="6.84243">
        <ele>1909.4</ele>
        <time>2026-03-23T08:53:09Z</time>
      </trkpt>
      <trkpt lat="44.73835" lon="6.84242">
        <ele>1909.4</ele>
        <time>2026-03-23T08:53:10Z</time>
      </trkpt>
      <trkpt lat="44.73836" lon="6.84242">
        <ele>1908.3</ele>
        <time>2026-03-23T08:53:11Z</time>
      </trkpt>
      <trkpt lat="44.73836" lon="6.84242">
        <ele>1908.3</ele>
        <time>2026-03-23T08:53:12Z</time>
      </trkpt>
      <trkpt lat="44.73837" lon="6.84242">
        <ele>1908.3</ele>
        <time>2026-03-23T08:53:13Z</time>
      </trkpt>
      <trkpt lat="44.73837" lon="6.84242">
        <ele>1908.3</ele>
        <time>2026-03-23T08:53:14Z</time>
      </trkpt>
      <trkpt lat="44.73838" lon="6.84242">
        <ele>1908.3</ele>
        <time>2026-03-23T08:53:15Z</time>
      </trkpt>
      <trkpt lat="44.73838" lon="6.84242">
        <ele>1908.3</ele>
        <time>2026-03-23T08:53:16Z</time>
      </trkpt>
      <trkpt lat="44.73838" lon="6.84242">
        <ele>1908.6</ele>
        <time>2026-03-23T08:53:17Z</time>
      </trkpt>
      <trkpt lat="44.73839" lon="6.84242">
        <ele>1908.6</ele>
        <time>2026-03-23T08:53:18Z</time>
      </trkpt>
      <trkpt lat="44.73839" lon="6.84242">
        <ele>1908.6</ele>
        <time>2026-03-23T08:53:19Z</time>
      </trkpt>
      <trkpt lat="44.73839" lon="6.84242">
        <ele>1908.6</ele>
        <time>2026-03-23T08:53:20Z</time>
      </trkpt>
      <trkpt lat="44.73839" lon="6.84242">
        <ele>1908.6</ele>
        <time>2026-03-23T08:53:21Z</time>
      </trkpt>
      <trkpt lat="44.7384" lon="6.84242">
        <ele>1908.6</ele>
        <time>2026-03-23T08:53:22Z</time>
      </trkpt>
      <trkpt lat="44.7384" lon="6.84242">
        <ele>1908.6</ele>
        <time>2026-03-23T08:53:23Z</time>
      </trkpt>
      <trkpt lat="44.7384" lon="6.84242">
        <ele>1910.1</ele>
        <time>2026-03-23T08:53:24Z</time>
      </trkpt>
      <trkpt lat="44.7384" lon="6.84243">
        <ele>1910.1</ele>
        <time>2026-03-23T08:53:25Z</time>
      </trkpt>
      <trkpt lat="44.7384" lon="6.84243">
        <ele>1910.1</ele>
        <time>2026-03-23T08:53:26Z</time>
      </trkpt>
      <trkpt lat="44.7384" lon="6.84243">
        <ele>1910.1</ele>
        <time>2026-03-23T08:53:27Z</time>
      </trkpt>
      <trkpt lat="44.7384" lon="6.84243">
        <ele>1910.1</ele>
        <time>2026-03-23T08:53:28Z</time>
      </trkpt>
      <trkpt lat="44.7384" lon="6.84243">
        <ele>1910.1</ele>
        <time>2026-03-23T08:53:29Z</time>
      </trkpt>
      <trkpt lat="44.73841" lon="6.84243">
        <ele>1910.1</ele>
        <time>2026-03-23T08:53:30Z</time>
      </trkpt>
      <trkpt lat="44.73841" lon="6.84244">
        <ele>1910.1</ele>
        <time>2026-03-23T08:53:31Z</time>
      </trkpt>
      <trkpt lat="44.73842" lon="6.84244">
        <ele>1910.3</ele>
        <time>2026-03-23T08:53:33Z</time>
      </trkpt>
      <trkpt lat="44.73842" lon="6.84245">
        <ele>1910.3</ele>
        <time>2026-03-23T08:53:34Z</time>
      </trkpt>
      <trkpt lat="44.73843" lon="6.84245">
        <ele>1910.3</ele>
        <time>2026-03-23T08:53:35Z</time>
      </trkpt>
      <trkpt lat="44.73843" lon="6.84245">
        <ele>1910.3</ele>
        <time>2026-03-23T08:53:36Z</time>
      </trkpt>
      <trkpt lat="44.73844" lon="6.84245">
        <ele>1910.3</ele>
        <time>2026-03-23T08:53:37Z</time>
      </trkpt>
      <trkpt lat="44.73844" lon="6.84246">
        <ele>1910.3</ele>
        <time>2026-03-23T08:53:38Z</time>
      </trkpt>
      <trkpt lat="44.73845" lon="6.84246">
        <ele>1910.6</ele>
        <time>2026-03-23T08:53:39Z</time>
      </trkpt>
      <trkpt lat="44.73845" lon="6.84246">
        <ele>1910.6</ele>
        <time>2026-03-23T08:53:40Z</time>
      </trkpt>
      <trkpt lat="44.73845" lon="6.84246">
        <ele>1910.6</ele>
        <time>2026-03-23T08:53:41Z</time>
      </trkpt>
      <trkpt lat="44.73846" lon="6.84247">
        <ele>1910.6</ele>
        <time>2026-03-23T08:53:42Z</time>
      </trkpt>
      <trkpt lat="44.73846" lon="6.84247">
        <ele>1912</ele>
        <time>2026-03-23T08:53:43Z</time>
      </trkpt>
      <trkpt lat="44.73846" lon="6.84247">
        <ele>1912</ele>
        <time>2026-03-23T08:53:44Z</time>
      </trkpt>
      <trkpt lat="44.73846" lon="6.84247">
        <ele>1912</ele>
        <time>2026-03-23T08:53:45Z</time>
      </trkpt>
      <trkpt lat="44.73846" lon="6.84248">
        <ele>1912</ele>
        <time>2026-03-23T08:53:46Z</time>
      </trkpt>
      <trkpt lat="44.73846" lon="6.84248">
        <ele>1912</ele>
        <time>2026-03-23T08:53:47Z</time>
      </trkpt>
      <trkpt lat="44.73845" lon="6.84248">
        <ele>1912</ele>
        <time>2026-03-23T08:53:48Z</time>
      </trkpt>
      <trkpt lat="44.73845" lon="6.84248">
        <ele>1912</ele>
        <time>2026-03-23T08:53:49Z</time>
      </trkpt>
      <trkpt lat="44.73846" lon="6.84248">
        <ele>1912</ele>
        <time>2026-03-23T08:53:50Z</time>
      </trkpt>
      <trkpt lat="44.73846" lon="6.84249">
        <ele>1912</ele>
        <time>2026-03-23T08:53:51Z</time>
      </trkpt>
      <trkpt lat="44.73846" lon="6.84249">
        <ele>1912</ele>
        <time>2026-03-23T08:53:52Z</time>
      </trkpt>
      <trkpt lat="44.73846" lon="6.8425">
        <ele>1912</ele>
        <time>2026-03-23T08:53:53Z</time>
      </trkpt>
      <trkpt lat="44.73846" lon="6.8425">
        <ele>1912</ele>
        <time>2026-03-23T08:53:54Z</time>
      </trkpt>
      <trkpt lat="44.73846" lon="6.84251">
        <ele>1912</ele>
        <time>2026-03-23T08:53:55Z</time>
      </trkpt>
      <trkpt lat="44.73845" lon="6.84251">
        <ele>1913.3</ele>
        <time>2026-03-23T08:53:56Z</time>
      </trkpt>
      <trkpt lat="44.73844" lon="6.84252">
        <ele>1913.3</ele>
        <time>2026-03-23T08:53:57Z</time>
      </trkpt>
      <trkpt lat="44.73844" lon="6.84252">
        <ele>1913.1</ele>
        <time>2026-03-23T08:53:58Z</time>
      </trkpt>
      <trkpt lat="44.73843" lon="6.84253">
        <ele>1913.1</ele>
        <time>2026-03-23T08:53:59Z</time>
      </trkpt>
      <trkpt lat="44.73842" lon="6.84254">
        <ele>1913.1</ele>
        <time>2026-03-23T08:54:00Z</time>
      </trkpt>
      <trkpt lat="44.73842" lon="6.84255">
        <ele>1914.4</ele>
        <time>2026-03-23T08:54:01Z</time>
      </trkpt>
      <trkpt lat="44.73841" lon="6.84257">
        <ele>1914.4</ele>
        <time>2026-03-23T08:54:02Z</time>
      </trkpt>
      <trkpt lat="44.73841" lon="6.84258">
        <ele>1914.2</ele>
        <time>2026-03-23T08:54:03Z</time>
      </trkpt>
      <trkpt lat="44.7384" lon="6.84259">
        <ele>1914.2</ele>
        <time>2026-03-23T08:54:04Z</time>
      </trkpt>
      <trkpt lat="44.7384" lon="6.8426">
        <ele>1915.6</ele>
        <time>2026-03-23T08:54:05Z</time>
      </trkpt>
      <trkpt lat="44.73839" lon="6.8426">
        <ele>1915.5</ele>
        <time>2026-03-23T08:54:06Z</time>
      </trkpt>
      <trkpt lat="44.73839" lon="6.84261">
        <ele>1915.5</ele>
        <time>2026-03-23T08:54:07Z</time>
      </trkpt>
      <trkpt lat="44.73838" lon="6.84261">
        <ele>1915.5</ele>
        <time>2026-03-23T08:54:08Z</time>
      </trkpt>
      <trkpt lat="44.73838" lon="6.84262">
        <ele>1915.3</ele>
        <time>2026-03-23T08:54:09Z</time>
      </trkpt>
      <trkpt lat="44.73838" lon="6.84262">
        <ele>1915.3</ele>
        <time>2026-03-23T08:54:10Z</time>
      </trkpt>
      <trkpt lat="44.73837" lon="6.84262">
        <ele>1915.3</ele>
        <time>2026-03-23T08:54:11Z</time>
      </trkpt>
      <trkpt lat="44.73837" lon="6.84263">
        <ele>1915.3</ele>
        <time>2026-03-23T08:54:12Z</time>
      </trkpt>
      <trkpt lat="44.73837" lon="6.84263">
        <ele>1915.3</ele>
        <time>2026-03-23T08:54:13Z</time>
      </trkpt>
      <trkpt lat="44.73836" lon="6.84264">
        <ele>1915.3</ele>
        <time>2026-03-23T08:54:14Z</time>
      </trkpt>
      <trkpt lat="44.73836" lon="6.84264">
        <ele>1916.7</ele>
        <time>2026-03-23T08:54:15Z</time>
      </trkpt>
      <trkpt lat="44.73835" lon="6.84265">
        <ele>1916.7</ele>
        <time>2026-03-23T08:54:16Z</time>
      </trkpt>
      <trkpt lat="44.73835" lon="6.84265">
        <ele>1916.7</ele>
        <time>2026-03-23T08:54:17Z</time>
      </trkpt>
      <trkpt lat="44.73835" lon="6.84265">
        <ele>1916.3</ele>
        <time>2026-03-23T08:54:18Z</time>
      </trkpt>
      <trkpt lat="44.73834" lon="6.84266">
        <ele>1916.3</ele>
        <time>2026-03-23T08:54:19Z</time>
      </trkpt>
      <trkpt lat="44.73834" lon="6.84266">
        <ele>1916.3</ele>
        <time>2026-03-23T08:54:20Z</time>
      </trkpt>
      <trkpt lat="44.73833" lon="6.84267">
        <ele>1916.3</ele>
        <time>2026-03-23T08:54:21Z</time>
      </trkpt>
      <trkpt lat="44.73833" lon="6.84267">
        <ele>1916.3</ele>
        <time>2026-03-23T08:54:22Z</time>
      </trkpt>
      <trkpt lat="44.73832" lon="6.84268">
        <ele>1916.3</ele>
        <time>2026-03-23T08:54:23Z</time>
      </trkpt>
      <trkpt lat="44.73832" lon="6.84268">
        <ele>1917.5</ele>
        <time>2026-03-23T08:54:24Z</time>
      </trkpt>
      <trkpt lat="44.73831" lon="6.84269">
        <ele>1917.5</ele>
        <time>2026-03-23T08:54:26Z</time>
      </trkpt>
      <trkpt lat="44.73831" lon="6.84269">
        <ele>1917.5</ele>
        <time>2026-03-23T08:54:27Z</time>
      </trkpt>
      <trkpt lat="44.73831" lon="6.84269">
        <ele>1917.5</ele>
        <time>2026-03-23T08:54:28Z</time>
      </trkpt>
      <trkpt lat="44.7383" lon="6.84269">
        <ele>1917.5</ele>
        <time>2026-03-23T08:54:29Z</time>
      </trkpt>
      <trkpt lat="44.7383" lon="6.8427">
        <ele>1917.5</ele>
        <time>2026-03-23T08:54:30Z</time>
      </trkpt>
      <trkpt lat="44.7383" lon="6.8427">
        <ele>1917.5</ele>
        <time>2026-03-23T08:54:31Z</time>
      </trkpt>
      <trkpt lat="44.7383" lon="6.8427">
        <ele>1917.5</ele>
        <time>2026-03-23T08:54:32Z</time>
      </trkpt>
      <trkpt lat="44.73829" lon="6.8427">
        <ele>1917.5</ele>
        <time>2026-03-23T08:54:33Z</time>
      </trkpt>
      <trkpt lat="44.73829" lon="6.84271">
        <ele>1917.2</ele>
        <time>2026-03-23T08:54:34Z</time>
      </trkpt>
      <trkpt lat="44.73829" lon="6.84271">
        <ele>1917.2</ele>
        <time>2026-03-23T08:54:35Z</time>
      </trkpt>
      <trkpt lat="44.73828" lon="6.84272">
        <ele>1917.2</ele>
        <time>2026-03-23T08:54:36Z</time>
      </trkpt>
      <trkpt lat="44.73828" lon="6.84272">
        <ele>1917.2</ele>
        <time>2026-03-23T08:54:37Z</time>
      </trkpt>
      <trkpt lat="44.73827" lon="6.84273">
        <ele>1918.7</ele>
        <time>2026-03-23T08:54:38Z</time>
      </trkpt>
      <trkpt lat="44.73827" lon="6.84273">
        <ele>1918.7</ele>
        <time>2026-03-23T08:54:39Z</time>
      </trkpt>
      <trkpt lat="44.73826" lon="6.84274">
        <ele>1918.7</ele>
        <time>2026-03-23T08:54:40Z</time>
      </trkpt>
      <trkpt lat="44.73826" lon="6.84275">
        <ele>1918.4</ele>
        <time>2026-03-23T08:54:41Z</time>
      </trkpt>
      <trkpt lat="44.73826" lon="6.84275">
        <ele>1918.4</ele>
        <time>2026-03-23T08:54:42Z</time>
      </trkpt>
      <trkpt lat="44.73825" lon="6.84276">
        <ele>1918.4</ele>
        <time>2026-03-23T08:54:43Z</time>
      </trkpt>
      <trkpt lat="44.73825" lon="6.84276">
        <ele>1918.4</ele>
        <time>2026-03-23T08:54:44Z</time>
      </trkpt>
      <trkpt lat="44.73824" lon="6.84276">
        <ele>1918.4</ele>
        <time>2026-03-23T08:54:45Z</time>
      </trkpt>
      <trkpt lat="44.73824" lon="6.84276">
        <ele>1918.4</ele>
        <time>2026-03-23T08:54:46Z</time>
      </trkpt>
      <trkpt lat="44.73823" lon="6.84277">
        <ele>1919.9</ele>
        <time>2026-03-23T08:54:47Z</time>
      </trkpt>
      <trkpt lat="44.73823" lon="6.84277">
        <ele>1919.9</ele>
        <time>2026-03-23T08:54:48Z</time>
      </trkpt>
      <trkpt lat="44.73822" lon="6.84278">
        <ele>1919.6</ele>
        <time>2026-03-23T08:54:50Z</time>
      </trkpt>
      <trkpt lat="44.73822" lon="6.84278">
        <ele>1919.6</ele>
        <time>2026-03-23T08:54:51Z</time>
      </trkpt>
      <trkpt lat="44.73822" lon="6.84279">
        <ele>1919.6</ele>
        <time>2026-03-23T08:54:52Z</time>
      </trkpt>
      <trkpt lat="44.73821" lon="6.84279">
        <ele>1919.6</ele>
        <time>2026-03-23T08:54:53Z</time>
      </trkpt>
      <trkpt lat="44.73821" lon="6.84279">
        <ele>1919.6</ele>
        <time>2026-03-23T08:54:54Z</time>
      </trkpt>
      <trkpt lat="44.7382" lon="6.8428">
        <ele>1919.6</ele>
        <time>2026-03-23T08:54:55Z</time>
      </trkpt>
      <trkpt lat="44.7382" lon="6.84281">
        <ele>1919.3</ele>
        <time>2026-03-23T08:54:56Z</time>
      </trkpt>
      <trkpt lat="44.73819" lon="6.84281">
        <ele>1920.8</ele>
        <time>2026-03-23T08:54:57Z</time>
      </trkpt>
      <trkpt lat="44.73819" lon="6.84281">
        <ele>1920.8</ele>
        <time>2026-03-23T08:54:58Z</time>
      </trkpt>
      <trkpt lat="44.73818" lon="6.84282">
        <ele>1920.8</ele>
        <time>2026-03-23T08:54:59Z</time>
      </trkpt>
      <trkpt lat="44.73818" lon="6.84282">
        <ele>1920.8</ele>
        <time>2026-03-23T08:55:00Z</time>
      </trkpt>
      <trkpt lat="44.73818" lon="6.84281">
        <ele>1920.8</ele>
        <time>2026-03-23T08:55:01Z</time>
      </trkpt>
      <trkpt lat="44.73817" lon="6.84281">
        <ele>1920.8</ele>
        <time>2026-03-23T08:55:02Z</time>
      </trkpt>
      <trkpt lat="44.73817" lon="6.84282">
        <ele>1920.5</ele>
        <time>2026-03-23T08:55:03Z</time>
      </trkpt>
      <trkpt lat="44.73816" lon="6.84282">
        <ele>1920.5</ele>
        <time>2026-03-23T08:55:04Z</time>
      </trkpt>
      <trkpt lat="44.73815" lon="6.84282">
        <ele>1920.5</ele>
        <time>2026-03-23T08:55:06Z</time>
      </trkpt>
      <trkpt lat="44.73815" lon="6.84282">
        <ele>1920.5</ele>
        <time>2026-03-23T08:55:07Z</time>
      </trkpt>
      <trkpt lat="44.73814" lon="6.84283">
        <ele>1920.5</ele>
        <time>2026-03-23T08:55:08Z</time>
      </trkpt>
      <trkpt lat="44.73814" lon="6.84283">
        <ele>1920.2</ele>
        <time>2026-03-23T08:55:09Z</time>
      </trkpt>
      <trkpt lat="44.73813" lon="6.84284">
        <ele>1920.2</ele>
        <time>2026-03-23T08:55:10Z</time>
      </trkpt>
      <trkpt lat="44.73813" lon="6.84284">
        <ele>1920.2</ele>
        <time>2026-03-23T08:55:11Z</time>
      </trkpt>
      <trkpt lat="44.73812" lon="6.84285">
        <ele>1920.2</ele>
        <time>2026-03-23T08:55:12Z</time>
      </trkpt>
      <trkpt lat="44.73812" lon="6.84285">
        <ele>1921.6</ele>
        <time>2026-03-23T08:55:13Z</time>
      </trkpt>
      <trkpt lat="44.73812" lon="6.84286">
        <ele>1921.6</ele>
        <time>2026-03-23T08:55:14Z</time>
      </trkpt>
      <trkpt lat="44.73811" lon="6.84286">
        <ele>1921.6</ele>
        <time>2026-03-23T08:55:15Z</time>
      </trkpt>
      <trkpt lat="44.73811" lon="6.84287">
        <ele>1921.6</ele>
        <time>2026-03-23T08:55:16Z</time>
      </trkpt>
      <trkpt lat="44.73811" lon="6.84288">
        <ele>1921.2</ele>
        <time>2026-03-23T08:55:17Z</time>
      </trkpt>
      <trkpt lat="44.7381" lon="6.84289">
        <ele>1921.2</ele>
        <time>2026-03-23T08:55:18Z</time>
      </trkpt>
      <trkpt lat="44.7381" lon="6.8429">
        <ele>1922.5</ele>
        <time>2026-03-23T08:55:20Z</time>
      </trkpt>
      <trkpt lat="44.7381" lon="6.84291">
        <ele>1922.5</ele>
        <time>2026-03-23T08:55:21Z</time>
      </trkpt>
      <trkpt lat="44.73809" lon="6.84291">
        <ele>1922.5</ele>
        <time>2026-03-23T08:55:22Z</time>
      </trkpt>
      <trkpt lat="44.73809" lon="6.84292">
        <ele>1922.5</ele>
        <time>2026-03-23T08:55:23Z</time>
      </trkpt>
      <trkpt lat="44.73809" lon="6.84292">
        <ele>1922.5</ele>
        <time>2026-03-23T08:55:24Z</time>
      </trkpt>
      <trkpt lat="44.73809" lon="6.84293">
        <ele>1922.5</ele>
        <time>2026-03-23T08:55:25Z</time>
      </trkpt>
      <trkpt lat="44.73809" lon="6.84293">
        <ele>1922.5</ele>
        <time>2026-03-23T08:55:26Z</time>
      </trkpt>
      <trkpt lat="44.73809" lon="6.84294">
        <ele>1923.8</ele>
        <time>2026-03-23T08:55:27Z</time>
      </trkpt>
      <trkpt lat="44.73809" lon="6.84295">
        <ele>1923.8</ele>
        <time>2026-03-23T08:55:28Z</time>
      </trkpt>
      <trkpt lat="44.73809" lon="6.84295">
        <ele>1923.8</ele>
        <time>2026-03-23T08:55:29Z</time>
      </trkpt>
      <trkpt lat="44.73809" lon="6.84296">
        <ele>1923.8</ele>
        <time>2026-03-23T08:55:30Z</time>
      </trkpt>
      <trkpt lat="44.73809" lon="6.84296">
        <ele>1923.8</ele>
        <time>2026-03-23T08:55:31Z</time>
      </trkpt>
      <trkpt lat="44.73808" lon="6.84296">
        <ele>1923.8</ele>
        <time>2026-03-23T08:55:32Z</time>
      </trkpt>
      <trkpt lat="44.73808" lon="6.84297">
        <ele>1923.8</ele>
        <time>2026-03-23T08:55:33Z</time>
      </trkpt>
      <trkpt lat="44.73808" lon="6.84297">
        <ele>1923.8</ele>
        <time>2026-03-23T08:55:34Z</time>
      </trkpt>
      <trkpt lat="44.73808" lon="6.84298">
        <ele>1923.8</ele>
        <time>2026-03-23T08:55:35Z</time>
      </trkpt>
      <trkpt lat="44.73808" lon="6.84299">
        <ele>1925</ele>
        <time>2026-03-23T08:55:36Z</time>
      </trkpt>
      <trkpt lat="44.73808" lon="6.84299">
        <ele>1925</ele>
        <time>2026-03-23T08:55:37Z</time>
      </trkpt>
      <trkpt lat="44.73808" lon="6.843">
        <ele>1924.6</ele>
        <time>2026-03-23T08:55:38Z</time>
      </trkpt>
      <trkpt lat="44.73808" lon="6.843">
        <ele>1924.6</ele>
        <time>2026-03-23T08:55:39Z</time>
      </trkpt>
      <trkpt lat="44.73807" lon="6.84301">
        <ele>1924.6</ele>
        <time>2026-03-23T08:55:40Z</time>
      </trkpt>
      <trkpt lat="44.73807" lon="6.84301">
        <ele>1924.6</ele>
        <time>2026-03-23T08:55:41Z</time>
      </trkpt>
      <trkpt lat="44.73807" lon="6.84302">
        <ele>1924.6</ele>
        <time>2026-03-23T08:55:42Z</time>
      </trkpt>
      <trkpt lat="44.73807" lon="6.84302">
        <ele>1925.8</ele>
        <time>2026-03-23T08:55:43Z</time>
      </trkpt>
      <trkpt lat="44.73808" lon="6.84305">
        <ele>1926.2</ele>
        <time>2026-03-23T08:55:44Z</time>
      </trkpt>
      <trkpt lat="44.73809" lon="6.84307">
        <ele>1927.5</ele>
        <time>2026-03-23T08:55:45Z</time>
      </trkpt>
      <trkpt lat="44.73809" lon="6.84308">
        <ele>1927.5</ele>
        <time>2026-03-23T08:55:46Z</time>
      </trkpt>
      <trkpt lat="44.73809" lon="6.84308">
        <ele>1927.5</ele>
        <time>2026-03-23T08:55:47Z</time>
      </trkpt>
      <trkpt lat="44.7381" lon="6.84309">
        <ele>1927.5</ele>
        <time>2026-03-23T08:55:49Z</time>
      </trkpt>
      <trkpt lat="44.7381" lon="6.84311">
        <ele>1927.5</ele>
        <time>2026-03-23T08:55:50Z</time>
      </trkpt>
      <trkpt lat="44.7381" lon="6.84311">
        <ele>1927.5</ele>
        <time>2026-03-23T08:55:51Z</time>
      </trkpt>
      <trkpt lat="44.73811" lon="6.84311">
        <ele>1927.5</ele>
        <time>2026-03-23T08:55:52Z</time>
      </trkpt>
      <trkpt lat="44.73811" lon="6.84311">
        <ele>1929.1</ele>
        <time>2026-03-23T08:55:53Z</time>
      </trkpt>
      <trkpt lat="44.73811" lon="6.84312">
        <ele>1929.1</ele>
        <time>2026-03-23T08:55:54Z</time>
      </trkpt>
      <trkpt lat="44.73811" lon="6.84312">
        <ele>1929.1</ele>
        <time>2026-03-23T08:55:55Z</time>
      </trkpt>
      <trkpt lat="44.73811" lon="6.84312">
        <ele>1929.1</ele>
        <time>2026-03-23T08:55:56Z</time>
      </trkpt>
      <trkpt lat="44.73811" lon="6.84312">
        <ele>1929.1</ele>
        <time>2026-03-23T08:55:57Z</time>
      </trkpt>
      <trkpt lat="44.73812" lon="6.84312">
        <ele>1929.1</ele>
        <time>2026-03-23T08:55:58Z</time>
      </trkpt>
      <trkpt lat="44.73812" lon="6.84312">
        <ele>1929.1</ele>
        <time>2026-03-23T08:55:59Z</time>
      </trkpt>
      <trkpt lat="44.73814" lon="6.84312">
        <ele>1929.1</ele>
        <time>2026-03-23T08:56:00Z</time>
      </trkpt>
      <trkpt lat="44.73815" lon="6.84312">
        <ele>1929.5</ele>
        <time>2026-03-23T08:56:02Z</time>
      </trkpt>
      <trkpt lat="44.73816" lon="6.84312">
        <ele>1929.5</ele>
        <time>2026-03-23T08:56:04Z</time>
      </trkpt>
      <trkpt lat="44.73816" lon="6.84312">
        <ele>1929.5</ele>
        <time>2026-03-23T08:56:05Z</time>
      </trkpt>
      <trkpt lat="44.73817" lon="6.84312">
        <ele>1929.8</ele>
        <time>2026-03-23T08:56:06Z</time>
      </trkpt>
      <trkpt lat="44.73818" lon="6.84313">
        <ele>1929.8</ele>
        <time>2026-03-23T08:56:07Z</time>
      </trkpt>
      <trkpt lat="44.73819" lon="6.84313">
        <ele>1929.8</ele>
        <time>2026-03-23T08:56:08Z</time>
      </trkpt>
      <trkpt lat="44.73821" lon="6.84313">
        <ele>1930</ele>
        <time>2026-03-23T08:56:09Z</time>
      </trkpt>
      <trkpt lat="44.73822" lon="6.84313">
        <ele>1930</ele>
        <time>2026-03-23T08:56:10Z</time>
      </trkpt>
      <trkpt lat="44.73823" lon="6.84313">
        <ele>1930</ele>
        <time>2026-03-23T08:56:11Z</time>
      </trkpt>
      <trkpt lat="44.73824" lon="6.84313">
        <ele>1930.2</ele>
        <time>2026-03-23T08:56:12Z</time>
      </trkpt>
      <trkpt lat="44.73824" lon="6.84313">
        <ele>1930.2</ele>
        <time>2026-03-23T08:56:13Z</time>
      </trkpt>
      <trkpt lat="44.73826" lon="6.84313">
        <ele>1930.4</ele>
        <time>2026-03-23T08:56:14Z</time>
      </trkpt>
      <trkpt lat="44.73827" lon="6.84314">
        <ele>1930.4</ele>
        <time>2026-03-23T08:56:15Z</time>
      </trkpt>
      <trkpt lat="44.73828" lon="6.84314">
        <ele>1930.4</ele>
        <time>2026-03-23T08:56:16Z</time>
      </trkpt>
      <trkpt lat="44.73828" lon="6.84315">
        <ele>1931.7</ele>
        <time>2026-03-23T08:56:17Z</time>
      </trkpt>
      <trkpt lat="44.73829" lon="6.84316">
        <ele>1931.7</ele>
        <time>2026-03-23T08:56:18Z</time>
      </trkpt>
      <trkpt lat="44.73828" lon="6.84317">
        <ele>1931.7</ele>
        <time>2026-03-23T08:56:19Z</time>
      </trkpt>
      <trkpt lat="44.73828" lon="6.84316">
        <ele>1931.7</ele>
        <time>2026-03-23T08:56:20Z</time>
      </trkpt>
      <trkpt lat="44.73828" lon="6.84316">
        <ele>1931.7</ele>
        <time>2026-03-23T08:56:21Z</time>
      </trkpt>
      <trkpt lat="44.73828" lon="6.84316">
        <ele>1931.7</ele>
        <time>2026-03-23T08:56:22Z</time>
      </trkpt>
      <trkpt lat="44.73829" lon="6.84316">
        <ele>1931.7</ele>
        <time>2026-03-23T08:56:23Z</time>
      </trkpt>
      <trkpt lat="44.73829" lon="6.84316">
        <ele>1931.9</ele>
        <time>2026-03-23T08:56:25Z</time>
      </trkpt>
      <trkpt lat="44.73829" lon="6.84316">
        <ele>1931.9</ele>
        <time>2026-03-23T08:56:26Z</time>
      </trkpt>
      <trkpt lat="44.7383" lon="6.84315">
        <ele>1931.9</ele>
        <time>2026-03-23T08:56:27Z</time>
      </trkpt>
      <trkpt lat="44.7383" lon="6.84315">
        <ele>1931.9</ele>
        <time>2026-03-23T08:56:28Z</time>
      </trkpt>
      <trkpt lat="44.73831" lon="6.84315">
        <ele>1931.9</ele>
        <time>2026-03-23T08:56:29Z</time>
      </trkpt>
      <trkpt lat="44.73831" lon="6.84315">
        <ele>1931.9</ele>
        <time>2026-03-23T08:56:30Z</time>
      </trkpt>
      <trkpt lat="44.73832" lon="6.84315">
        <ele>1931.9</ele>
        <time>2026-03-23T08:56:31Z</time>
      </trkpt>
      <trkpt lat="44.73833" lon="6.84316">
        <ele>1932.1</ele>
        <time>2026-03-23T08:56:32Z</time>
      </trkpt>
      <trkpt lat="44.73833" lon="6.84316">
        <ele>1932.1</ele>
        <time>2026-03-23T08:56:33Z</time>
      </trkpt>
      <trkpt lat="44.73833" lon="6.84316">
        <ele>1932.1</ele>
        <time>2026-03-23T08:56:34Z</time>
      </trkpt>
      <trkpt lat="44.73833" lon="6.84316">
        <ele>1932.1</ele>
        <time>2026-03-23T08:56:35Z</time>
      </trkpt>
      <trkpt lat="44.73833" lon="6.84316">
        <ele>1932.1</ele>
        <time>2026-03-23T08:56:36Z</time>
      </trkpt>
      <trkpt lat="44.73833" lon="6.84316">
        <ele>1932.1</ele>
        <time>2026-03-23T08:56:37Z</time>
      </trkpt>
      <trkpt lat="44.73833" lon="6.84316">
        <ele>1932.1</ele>
        <time>2026-03-23T08:56:38Z</time>
      </trkpt>
      <trkpt lat="44.73833" lon="6.84316">
        <ele>1932.1</ele>
        <time>2026-03-23T08:56:39Z</time>
      </trkpt>
      <trkpt lat="44.73833" lon="6.84317">
        <ele>1932.1</ele>
        <time>2026-03-23T08:56:40Z</time>
      </trkpt>
      <trkpt lat="44.73833" lon="6.84317">
        <ele>1932.1</ele>
        <time>2026-03-23T08:56:41Z</time>
      </trkpt>
      <trkpt lat="44.73833" lon="6.84318">
        <ele>1932.1</ele>
        <time>2026-03-23T08:56:42Z</time>
      </trkpt>
      <trkpt lat="44.73833" lon="6.84318">
        <ele>1932.1</ele>
        <time>2026-03-23T08:56:43Z</time>
      </trkpt>
      <trkpt lat="44.73832" lon="6.84318">
        <ele>1932.1</ele>
        <time>2026-03-23T08:56:44Z</time>
      </trkpt>
      <trkpt lat="44.73832" lon="6.84318">
        <ele>1932.1</ele>
        <time>2026-03-23T08:56:45Z</time>
      </trkpt>
      <trkpt lat="44.73832" lon="6.84318">
        <ele>1931.9</ele>
        <time>2026-03-23T08:56:46Z</time>
      </trkpt>
      <trkpt lat="44.73832" lon="6.84319">
        <ele>1931.9</ele>
        <time>2026-03-23T08:56:47Z</time>
      </trkpt>
      <trkpt lat="44.73832" lon="6.84319">
        <ele>1931.9</ele>
        <time>2026-03-23T08:56:48Z</time>
      </trkpt>
      <trkpt lat="44.73832" lon="6.8432">
        <ele>1933.1</ele>
        <time>2026-03-23T08:56:49Z</time>
      </trkpt>
      <trkpt lat="44.73831" lon="6.84321">
        <ele>1933.1</ele>
        <time>2026-03-23T08:56:50Z</time>
      </trkpt>
      <trkpt lat="44.73831" lon="6.84321">
        <ele>1933.1</ele>
        <time>2026-03-23T08:56:51Z</time>
      </trkpt>
      <trkpt lat="44.73831" lon="6.84322">
        <ele>1933.1</ele>
        <time>2026-03-23T08:56:52Z</time>
      </trkpt>
      <trkpt lat="44.73831" lon="6.84322">
        <ele>1933.1</ele>
        <time>2026-03-23T08:56:53Z</time>
      </trkpt>
      <trkpt lat="44.7383" lon="6.84323">
        <ele>1933.1</ele>
        <time>2026-03-23T08:56:54Z</time>
      </trkpt>
      <trkpt lat="44.7383" lon="6.84324">
        <ele>1933.1</ele>
        <time>2026-03-23T08:56:55Z</time>
      </trkpt>
      <trkpt lat="44.7383" lon="6.84324">
        <ele>1934.3</ele>
        <time>2026-03-23T08:56:56Z</time>
      </trkpt>
      <trkpt lat="44.7383" lon="6.84326">
        <ele>1934.3</ele>
        <time>2026-03-23T08:56:57Z</time>
      </trkpt>
      <trkpt lat="44.7383" lon="6.84326">
        <ele>1934.3</ele>
        <time>2026-03-23T08:56:58Z</time>
      </trkpt>
      <trkpt lat="44.7383" lon="6.84327">
        <ele>1934.3</ele>
        <time>2026-03-23T08:57:00Z</time>
      </trkpt>
      <trkpt lat="44.7383" lon="6.84327">
        <ele>1934.3</ele>
        <time>2026-03-23T08:57:01Z</time>
      </trkpt>
      <trkpt lat="44.7383" lon="6.84328">
        <ele>1934.3</ele>
        <time>2026-03-23T08:57:02Z</time>
      </trkpt>
      <trkpt lat="44.7383" lon="6.84329">
        <ele>1935.4</ele>
        <time>2026-03-23T08:57:03Z</time>
      </trkpt>
      <trkpt lat="44.7383" lon="6.84329">
        <ele>1935.4</ele>
        <time>2026-03-23T08:57:04Z</time>
      </trkpt>
      <trkpt lat="44.73829" lon="6.8433">
        <ele>1935.4</ele>
        <time>2026-03-23T08:57:05Z</time>
      </trkpt>
      <trkpt lat="44.73829" lon="6.8433">
        <ele>1935.4</ele>
        <time>2026-03-23T08:57:06Z</time>
      </trkpt>
      <trkpt lat="44.73829" lon="6.84331">
        <ele>1935.4</ele>
        <time>2026-03-23T08:57:07Z</time>
      </trkpt>
      <trkpt lat="44.73829" lon="6.84331">
        <ele>1935.4</ele>
        <time>2026-03-23T08:57:08Z</time>
      </trkpt>
      <trkpt lat="44.73829" lon="6.84332">
        <ele>1935.4</ele>
        <time>2026-03-23T08:57:09Z</time>
      </trkpt>
      <trkpt lat="44.73829" lon="6.84332">
        <ele>1935.2</ele>
        <time>2026-03-23T08:57:11Z</time>
      </trkpt>
      <trkpt lat="44.73828" lon="6.84332">
        <ele>1935.2</ele>
        <time>2026-03-23T08:57:12Z</time>
      </trkpt>
      <trkpt lat="44.73828" lon="6.84332">
        <ele>1935.2</ele>
        <time>2026-03-23T08:57:13Z</time>
      </trkpt>
      <trkpt lat="44.73828" lon="6.84333">
        <ele>1936.3</ele>
        <time>2026-03-23T08:57:14Z</time>
      </trkpt>
      <trkpt lat="44.73828" lon="6.84333">
        <ele>1936.3</ele>
        <time>2026-03-23T08:57:15Z</time>
      </trkpt>
      <trkpt lat="44.73827" lon="6.84333">
        <ele>1936.3</ele>
        <time>2026-03-23T08:57:16Z</time>
      </trkpt>
      <trkpt lat="44.73827" lon="6.84333">
        <ele>1936.3</ele>
        <time>2026-03-23T08:57:17Z</time>
      </trkpt>
      <trkpt lat="44.73827" lon="6.84334">
        <ele>1936.3</ele>
        <time>2026-03-23T08:57:18Z</time>
      </trkpt>
      <trkpt lat="44.73826" lon="6.84334">
        <ele>1936.3</ele>
        <time>2026-03-23T08:57:19Z</time>
      </trkpt>
      <trkpt lat="44.73826" lon="6.84335">
        <ele>1936.1</ele>
        <time>2026-03-23T08:57:20Z</time>
      </trkpt>
      <trkpt lat="44.73826" lon="6.84335">
        <ele>1936.1</ele>
        <time>2026-03-23T08:57:21Z</time>
      </trkpt>
      <trkpt lat="44.73825" lon="6.84336">
        <ele>1936.1</ele>
        <time>2026-03-23T08:57:23Z</time>
      </trkpt>
      <trkpt lat="44.73825" lon="6.84336">
        <ele>1936.1</ele>
        <time>2026-03-23T08:57:24Z</time>
      </trkpt>
      <trkpt lat="44.73824" lon="6.84336">
        <ele>1936.1</ele>
        <time>2026-03-23T08:57:25Z</time>
      </trkpt>
      <trkpt lat="44.73824" lon="6.84337">
        <ele>1936.1</ele>
        <time>2026-03-23T08:57:26Z</time>
      </trkpt>
      <trkpt lat="44.73824" lon="6.84337">
        <ele>1937.2</ele>
        <time>2026-03-23T08:57:27Z</time>
      </trkpt>
      <trkpt lat="44.73824" lon="6.84337">
        <ele>1937.2</ele>
        <time>2026-03-23T08:57:28Z</time>
      </trkpt>
      <trkpt lat="44.73824" lon="6.84338">
        <ele>1937.2</ele>
        <time>2026-03-23T08:57:29Z</time>
      </trkpt>
      <trkpt lat="44.73823" lon="6.84338">
        <ele>1937.2</ele>
        <time>2026-03-23T08:57:30Z</time>
      </trkpt>
      <trkpt lat="44.73823" lon="6.84339">
        <ele>1937.2</ele>
        <time>2026-03-23T08:57:31Z</time>
      </trkpt>
      <trkpt lat="44.73823" lon="6.84339">
        <ele>1937.2</ele>
        <time>2026-03-23T08:57:32Z</time>
      </trkpt>
      <trkpt lat="44.73823" lon="6.84339">
        <ele>1936.9</ele>
        <time>2026-03-23T08:57:33Z</time>
      </trkpt>
      <trkpt lat="44.73823" lon="6.8434">
        <ele>1936.9</ele>
        <time>2026-03-23T08:57:34Z</time>
      </trkpt>
      <trkpt lat="44.73822" lon="6.8434">
        <ele>1936.9</ele>
        <time>2026-03-23T08:57:35Z</time>
      </trkpt>
      <trkpt lat="44.73822" lon="6.8434">
        <ele>1936.9</ele>
        <time>2026-03-23T08:57:36Z</time>
      </trkpt>
      <trkpt lat="44.73822" lon="6.84341">
        <ele>1936.9</ele>
        <time>2026-03-23T08:57:37Z</time>
      </trkpt>
      <trkpt lat="44.73822" lon="6.84341">
        <ele>1937.9</ele>
        <time>2026-03-23T08:57:38Z</time>
      </trkpt>
      <trkpt lat="44.73822" lon="6.84342">
        <ele>1937.9</ele>
        <time>2026-03-23T08:57:40Z</time>
      </trkpt>
      <trkpt lat="44.73821" lon="6.84342">
        <ele>1937.9</ele>
        <time>2026-03-23T08:57:41Z</time>
      </trkpt>
      <trkpt lat="44.73821" lon="6.84342">
        <ele>1937.9</ele>
        <time>2026-03-23T08:57:42Z</time>
      </trkpt>
      <trkpt lat="44.73821" lon="6.84343">
        <ele>1937.9</ele>
        <time>2026-03-23T08:57:43Z</time>
      </trkpt>
      <trkpt lat="44.73821" lon="6.84343">
        <ele>1937.9</ele>
        <time>2026-03-23T08:57:44Z</time>
      </trkpt>
      <trkpt lat="44.7382" lon="6.84344">
        <ele>1937.9</ele>
        <time>2026-03-23T08:57:45Z</time>
      </trkpt>
      <trkpt lat="44.7382" lon="6.84344">
        <ele>1937.9</ele>
        <time>2026-03-23T08:57:46Z</time>
      </trkpt>
      <trkpt lat="44.7382" lon="6.84344">
        <ele>1937.7</ele>
        <time>2026-03-23T08:57:47Z</time>
      </trkpt>
      <trkpt lat="44.7382" lon="6.84345">
        <ele>1937.7</ele>
        <time>2026-03-23T08:57:48Z</time>
      </trkpt>
      <trkpt lat="44.73819" lon="6.84345">
        <ele>1937.7</ele>
        <time>2026-03-23T08:57:49Z</time>
      </trkpt>
      <trkpt lat="44.73819" lon="6.84346">
        <ele>1938.7</ele>
        <time>2026-03-23T08:57:50Z</time>
      </trkpt>
      <trkpt lat="44.73819" lon="6.84346">
        <ele>1938.7</ele>
        <time>2026-03-23T08:57:51Z</time>
      </trkpt>
      <trkpt lat="44.73818" lon="6.84347">
        <ele>1938.7</ele>
        <time>2026-03-23T08:57:52Z</time>
      </trkpt>
      <trkpt lat="44.73817" lon="6.84348">
        <ele>1938.7</ele>
        <time>2026-03-23T08:57:53Z</time>
      </trkpt>
      <trkpt lat="44.73817" lon="6.84349">
        <ele>1938.4</ele>
        <time>2026-03-23T08:57:54Z</time>
      </trkpt>
      <trkpt lat="44.73816" lon="6.8435">
        <ele>1938.4</ele>
        <time>2026-03-23T08:57:55Z</time>
      </trkpt>
      <trkpt lat="44.73816" lon="6.8435">
        <ele>1939.4</ele>
        <time>2026-03-23T08:57:56Z</time>
      </trkpt>
      <trkpt lat="44.73816" lon="6.84351">
        <ele>1939.4</ele>
        <time>2026-03-23T08:57:57Z</time>
      </trkpt>
      <trkpt lat="44.73815" lon="6.84352">
        <ele>1939.4</ele>
        <time>2026-03-23T08:57:58Z</time>
      </trkpt>
      <trkpt lat="44.73815" lon="6.84352">
        <ele>1939.4</ele>
        <time>2026-03-23T08:57:59Z</time>
      </trkpt>
      <trkpt lat="44.73815" lon="6.84353">
        <ele>1939.4</ele>
        <time>2026-03-23T08:58:00Z</time>
      </trkpt>
      <trkpt lat="44.73815" lon="6.84354">
        <ele>1940.4</ele>
        <time>2026-03-23T08:58:01Z</time>
      </trkpt>
      <trkpt lat="44.73814" lon="6.84354">
        <ele>1940.4</ele>
        <time>2026-03-23T08:58:02Z</time>
      </trkpt>
      <trkpt lat="44.73814" lon="6.84355">
        <ele>1940.4</ele>
        <time>2026-03-23T08:58:03Z</time>
      </trkpt>
      <trkpt lat="44.73814" lon="6.84355">
        <ele>1940.4</ele>
        <time>2026-03-23T08:58:04Z</time>
      </trkpt>
      <trkpt lat="44.73814" lon="6.84355">
        <ele>1940.1</ele>
        <time>2026-03-23T08:58:05Z</time>
      </trkpt>
      <trkpt lat="44.73813" lon="6.84356">
        <ele>1940.1</ele>
        <time>2026-03-23T08:58:06Z</time>
      </trkpt>
      <trkpt lat="44.73813" lon="6.84356">
        <ele>1940.1</ele>
        <time>2026-03-23T08:58:07Z</time>
      </trkpt>
      <trkpt lat="44.73813" lon="6.84357">
        <ele>1940.1</ele>
        <time>2026-03-23T08:58:08Z</time>
      </trkpt>
      <trkpt lat="44.73812" lon="6.84358">
        <ele>1940.1</ele>
        <time>2026-03-23T08:58:09Z</time>
      </trkpt>
      <trkpt lat="44.73812" lon="6.84359">
        <ele>1941.2</ele>
        <time>2026-03-23T08:58:10Z</time>
      </trkpt>
      <trkpt lat="44.73812" lon="6.84359">
        <ele>1941.2</ele>
        <time>2026-03-23T08:58:11Z</time>
      </trkpt>
      <trkpt lat="44.73812" lon="6.8436">
        <ele>1941.2</ele>
        <time>2026-03-23T08:58:12Z</time>
      </trkpt>
      <trkpt lat="44.73812" lon="6.8436">
        <ele>1941.2</ele>
        <time>2026-03-23T08:58:13Z</time>
      </trkpt>
      <trkpt lat="44.73811" lon="6.84361">
        <ele>1941.2</ele>
        <time>2026-03-23T08:58:14Z</time>
      </trkpt>
      <trkpt lat="44.73811" lon="6.84361">
        <ele>1941.2</ele>
        <time>2026-03-23T08:58:16Z</time>
      </trkpt>
      <trkpt lat="44.73811" lon="6.84361">
        <ele>1941.2</ele>
        <time>2026-03-23T08:58:17Z</time>
      </trkpt>
      <trkpt lat="44.73811" lon="6.84361">
        <ele>1941.2</ele>
        <time>2026-03-23T08:58:18Z</time>
      </trkpt>
      <trkpt lat="44.73811" lon="6.84361">
        <ele>1941.2</ele>
        <time>2026-03-23T08:58:19Z</time>
      </trkpt>
      <trkpt lat="44.73811" lon="6.84361">
        <ele>1941.2</ele>
        <time>2026-03-23T08:58:20Z</time>
      </trkpt>
      <trkpt lat="44.73811" lon="6.84361">
        <ele>1941.2</ele>
        <time>2026-03-23T08:58:21Z</time>
      </trkpt>
      <trkpt lat="44.73811" lon="6.84362">
        <ele>1941.2</ele>
        <time>2026-03-23T08:58:22Z</time>
      </trkpt>
      <trkpt lat="44.73811" lon="6.84362">
        <ele>1941.2</ele>
        <time>2026-03-23T08:58:23Z</time>
      </trkpt>
      <trkpt lat="44.73811" lon="6.84363">
        <ele>1941.9</ele>
        <time>2026-03-23T08:58:24Z</time>
      </trkpt>
      <trkpt lat="44.7381" lon="6.84364">
        <ele>1941.9</ele>
        <time>2026-03-23T08:58:25Z</time>
      </trkpt>
      <trkpt lat="44.7381" lon="6.84365">
        <ele>1941.9</ele>
        <time>2026-03-23T08:58:27Z</time>
      </trkpt>
      <trkpt lat="44.73809" lon="6.84367">
        <ele>1943</ele>
        <time>2026-03-23T08:58:28Z</time>
      </trkpt>
      <trkpt lat="44.73809" lon="6.84368">
        <ele>1943</ele>
        <time>2026-03-23T08:58:29Z</time>
      </trkpt>
      <trkpt lat="44.73809" lon="6.84369">
        <ele>1943</ele>
        <time>2026-03-23T08:58:30Z</time>
      </trkpt>
      <trkpt lat="44.73809" lon="6.84369">
        <ele>1943</ele>
        <time>2026-03-23T08:58:31Z</time>
      </trkpt>
      <trkpt lat="44.73809" lon="6.8437">
        <ele>1943</ele>
        <time>2026-03-23T08:58:32Z</time>
      </trkpt>
      <trkpt lat="44.73809" lon="6.84371">
        <ele>1943</ele>
        <time>2026-03-23T08:58:33Z</time>
      </trkpt>
      <trkpt lat="44.73809" lon="6.84371">
        <ele>1944</ele>
        <time>2026-03-23T08:58:34Z</time>
      </trkpt>
      <trkpt lat="44.73809" lon="6.84371">
        <ele>1944</ele>
        <time>2026-03-23T08:58:35Z</time>
      </trkpt>
      <trkpt lat="44.73809" lon="6.84371">
        <ele>1943</ele>
        <time>2026-03-23T08:58:36Z</time>
      </trkpt>
      <trkpt lat="44.73809" lon="6.84371">
        <ele>1943</ele>
        <time>2026-03-23T08:58:37Z</time>
      </trkpt>
      <trkpt lat="44.73809" lon="6.84371">
        <ele>1943</ele>
        <time>2026-03-23T08:58:38Z</time>
      </trkpt>
      <trkpt lat="44.73809" lon="6.84371">
        <ele>1943</ele>
        <time>2026-03-23T08:58:39Z</time>
      </trkpt>
      <trkpt lat="44.73809" lon="6.84371">
        <ele>1943</ele>
        <time>2026-03-23T08:58:40Z</time>
      </trkpt>
      <trkpt lat="44.73809" lon="6.84371">
        <ele>1943</ele>
        <time>2026-03-23T08:58:41Z</time>
      </trkpt>
      <trkpt lat="44.73809" lon="6.84371">
        <ele>1943</ele>
        <time>2026-03-23T08:58:42Z</time>
      </trkpt>
      <trkpt lat="44.73809" lon="6.84371">
        <ele>1943</ele>
        <time>2026-03-23T08:58:43Z</time>
      </trkpt>
      <trkpt lat="44.73809" lon="6.84371">
        <ele>1943</ele>
        <time>2026-03-23T08:58:44Z</time>
      </trkpt>
      <trkpt lat="44.73809" lon="6.84371">
        <ele>1943</ele>
        <time>2026-03-23T08:58:45Z</time>
      </trkpt>
      <trkpt lat="44.7381" lon="6.84371">
        <ele>1943</ele>
        <time>2026-03-23T08:58:47Z</time>
      </trkpt>
      <trkpt lat="44.7381" lon="6.84371">
        <ele>1944</ele>
        <time>2026-03-23T08:58:48Z</time>
      </trkpt>
      <trkpt lat="44.7381" lon="6.84371">
        <ele>1944</ele>
        <time>2026-03-23T08:58:49Z</time>
      </trkpt>
      <trkpt lat="44.73811" lon="6.84371">
        <ele>1944.4</ele>
        <time>2026-03-23T08:58:50Z</time>
      </trkpt>
      <trkpt lat="44.73811" lon="6.84371">
        <ele>1944.4</ele>
        <time>2026-03-23T08:58:51Z</time>
      </trkpt>
      <trkpt lat="44.73813" lon="6.84372">
        <ele>1944.4</ele>
        <time>2026-03-23T08:58:52Z</time>
      </trkpt>
      <trkpt lat="44.73814" lon="6.84373">
        <ele>1944.7</ele>
        <time>2026-03-23T08:58:53Z</time>
      </trkpt>
      <trkpt lat="44.73815" lon="6.84373">
        <ele>1944.7</ele>
        <time>2026-03-23T08:58:54Z</time>
      </trkpt>
      <trkpt lat="44.73816" lon="6.84374">
        <ele>1944.7</ele>
        <time>2026-03-23T08:58:55Z</time>
      </trkpt>
      <trkpt lat="44.73816" lon="6.84375">
        <ele>1944.7</ele>
        <time>2026-03-23T08:58:56Z</time>
      </trkpt>
      <trkpt lat="44.73817" lon="6.84375">
        <ele>1945</ele>
        <time>2026-03-23T08:58:57Z</time>
      </trkpt>
      <trkpt lat="44.73818" lon="6.84376">
        <ele>1946</ele>
        <time>2026-03-23T08:58:58Z</time>
      </trkpt>
      <trkpt lat="44.73818" lon="6.84376">
        <ele>1946</ele>
        <time>2026-03-23T08:58:59Z</time>
      </trkpt>
      <trkpt lat="44.73818" lon="6.84376">
        <ele>1946</ele>
        <time>2026-03-23T08:59:00Z</time>
      </trkpt>
      <trkpt lat="44.73819" lon="6.84376">
        <ele>1946</ele>
        <time>2026-03-23T08:59:01Z</time>
      </trkpt>
      <trkpt lat="44.73819" lon="6.84376">
        <ele>1946</ele>
        <time>2026-03-23T08:59:02Z</time>
      </trkpt>
      <trkpt lat="44.7382" lon="6.84376">
        <ele>1946.3</ele>
        <time>2026-03-23T08:59:03Z</time>
      </trkpt>
      <trkpt lat="44.73821" lon="6.84376">
        <ele>1946.3</ele>
        <time>2026-03-23T08:59:04Z</time>
      </trkpt>
      <trkpt lat="44.73822" lon="6.84376">
        <ele>1946.3</ele>
        <time>2026-03-23T08:59:05Z</time>
      </trkpt>
      <trkpt lat="44.73823" lon="6.84376">
        <ele>1946.3</ele>
        <time>2026-03-23T08:59:07Z</time>
      </trkpt>
      <trkpt lat="44.73823" lon="6.84377">
        <ele>1946.5</ele>
        <time>2026-03-23T08:59:08Z</time>
      </trkpt>
      <trkpt lat="44.73823" lon="6.84377">
        <ele>1946.5</ele>
        <time>2026-03-23T08:59:09Z</time>
      </trkpt>
      <trkpt lat="44.73824" lon="6.84377">
        <ele>1946.5</ele>
        <time>2026-03-23T08:59:10Z</time>
      </trkpt>
      <trkpt lat="44.73824" lon="6.84378">
        <ele>1946.5</ele>
        <time>2026-03-23T08:59:11Z</time>
      </trkpt>
      <trkpt lat="44.73825" lon="6.84378">
        <ele>1946.5</ele>
        <time>2026-03-23T08:59:12Z</time>
      </trkpt>
      <trkpt lat="44.73825" lon="6.84379">
        <ele>1946.5</ele>
        <time>2026-03-23T08:59:13Z</time>
      </trkpt>
      <trkpt lat="44.73825" lon="6.8438">
        <ele>1947.5</ele>
        <time>2026-03-23T08:59:14Z</time>
      </trkpt>
      <trkpt lat="44.73826" lon="6.8438">
        <ele>1947.5</ele>
        <time>2026-03-23T08:59:15Z</time>
      </trkpt>
      <trkpt lat="44.73826" lon="6.84381">
        <ele>1947.7</ele>
        <time>2026-03-23T08:59:16Z</time>
      </trkpt>
      <trkpt lat="44.73827" lon="6.84382">
        <ele>1947.7</ele>
        <time>2026-03-23T08:59:17Z</time>
      </trkpt>
      <trkpt lat="44.73827" lon="6.84382">
        <ele>1947.7</ele>
        <time>2026-03-23T08:59:18Z</time>
      </trkpt>
      <trkpt lat="44.73828" lon="6.84382">
        <ele>1947.7</ele>
        <time>2026-03-23T08:59:19Z</time>
      </trkpt>
      <trkpt lat="44.73828" lon="6.84383">
        <ele>1947.7</ele>
        <time>2026-03-23T08:59:20Z</time>
      </trkpt>
      <trkpt lat="44.73829" lon="6.84383">
        <ele>1947.7</ele>
        <time>2026-03-23T08:59:21Z</time>
      </trkpt>
      <trkpt lat="44.73829" lon="6.84383">
        <ele>1948</ele>
        <time>2026-03-23T08:59:22Z</time>
      </trkpt>
      <trkpt lat="44.7383" lon="6.84382">
        <ele>1948</ele>
        <time>2026-03-23T08:59:23Z</time>
      </trkpt>
      <trkpt lat="44.73831" lon="6.84382">
        <ele>1948</ele>
        <time>2026-03-23T08:59:24Z</time>
      </trkpt>
      <trkpt lat="44.73831" lon="6.84382">
        <ele>1948</ele>
        <time>2026-03-23T08:59:25Z</time>
      </trkpt>
      <trkpt lat="44.73832" lon="6.84382">
        <ele>1948</ele>
        <time>2026-03-23T08:59:26Z</time>
      </trkpt>
      <trkpt lat="44.73832" lon="6.84382">
        <ele>1948.3</ele>
        <time>2026-03-23T08:59:27Z</time>
      </trkpt>
      <trkpt lat="44.73833" lon="6.84382">
        <ele>1948.3</ele>
        <time>2026-03-23T08:59:28Z</time>
      </trkpt>
      <trkpt lat="44.73834" lon="6.84383">
        <ele>1948.3</ele>
        <time>2026-03-23T08:59:29Z</time>
      </trkpt>
      <trkpt lat="44.73834" lon="6.84383">
        <ele>1948.3</ele>
        <time>2026-03-23T08:59:30Z</time>
      </trkpt>
      <trkpt lat="44.73834" lon="6.84383">
        <ele>1948.3</ele>
        <time>2026-03-23T08:59:31Z</time>
      </trkpt>
      <trkpt lat="44.73835" lon="6.84383">
        <ele>1948.3</ele>
        <time>2026-03-23T08:59:32Z</time>
      </trkpt>
      <trkpt lat="44.73835" lon="6.84383">
        <ele>1948.6</ele>
        <time>2026-03-23T08:59:33Z</time>
      </trkpt>
      <trkpt lat="44.73836" lon="6.84383">
        <ele>1948.6</ele>
        <time>2026-03-23T08:59:34Z</time>
      </trkpt>
      <trkpt lat="44.73836" lon="6.84382">
        <ele>1948.6</ele>
        <time>2026-03-23T08:59:35Z</time>
      </trkpt>
      <trkpt lat="44.73837" lon="6.84382">
        <ele>1948.6</ele>
        <time>2026-03-23T08:59:36Z</time>
      </trkpt>
      <trkpt lat="44.73837" lon="6.84382">
        <ele>1948.6</ele>
        <time>2026-03-23T08:59:37Z</time>
      </trkpt>
      <trkpt lat="44.73838" lon="6.84381">
        <ele>1948.6</ele>
        <time>2026-03-23T08:59:38Z</time>
      </trkpt>
      <trkpt lat="44.73838" lon="6.84381">
        <ele>1948.9</ele>
        <time>2026-03-23T08:59:39Z</time>
      </trkpt>
      <trkpt lat="44.73839" lon="6.84381">
        <ele>1948.9</ele>
        <time>2026-03-23T08:59:40Z</time>
      </trkpt>
      <trkpt lat="44.73839" lon="6.84381">
        <ele>1948.9</ele>
        <time>2026-03-23T08:59:41Z</time>
      </trkpt>
      <trkpt lat="44.73839" lon="6.8438">
        <ele>1948.9</ele>
        <time>2026-03-23T08:59:42Z</time>
      </trkpt>
      <trkpt lat="44.73839" lon="6.8438">
        <ele>1948.9</ele>
        <time>2026-03-23T08:59:43Z</time>
      </trkpt>
      <trkpt lat="44.73839" lon="6.8438">
        <ele>1948.9</ele>
        <time>2026-03-23T08:59:44Z</time>
      </trkpt>
      <trkpt lat="44.7384" lon="6.8438">
        <ele>1948.9</ele>
        <time>2026-03-23T08:59:45Z</time>
      </trkpt>
      <trkpt lat="44.73841" lon="6.84379">
        <ele>1947.9</ele>
        <time>2026-03-23T08:59:46Z</time>
      </trkpt>
      <trkpt lat="44.73841" lon="6.84379">
        <ele>1948.1</ele>
        <time>2026-03-23T08:59:47Z</time>
      </trkpt>
      <trkpt lat="44.73842" lon="6.84378">
        <ele>1948.1</ele>
        <time>2026-03-23T08:59:49Z</time>
      </trkpt>
      <trkpt lat="44.73842" lon="6.84378">
        <ele>1948.1</ele>
        <time>2026-03-23T08:59:50Z</time>
      </trkpt>
      <trkpt lat="44.73843" lon="6.84378">
        <ele>1948.1</ele>
        <time>2026-03-23T08:59:51Z</time>
      </trkpt>
      <trkpt lat="44.73844" lon="6.84378">
        <ele>1948.1</ele>
        <time>2026-03-23T08:59:52Z</time>
      </trkpt>
      <trkpt lat="44.73844" lon="6.84378">
        <ele>1948.1</ele>
        <time>2026-03-23T08:59:53Z</time>
      </trkpt>
      <trkpt lat="44.73845" lon="6.84377">
        <ele>1948.2</ele>
        <time>2026-03-23T08:59:54Z</time>
      </trkpt>
      <trkpt lat="44.73845" lon="6.84377">
        <ele>1948.2</ele>
        <time>2026-03-23T08:59:55Z</time>
      </trkpt>
      <trkpt lat="44.73846" lon="6.84377">
        <ele>1948.2</ele>
        <time>2026-03-23T08:59:56Z</time>
      </trkpt>
      <trkpt lat="44.73846" lon="6.84376">
        <ele>1948.2</ele>
        <time>2026-03-23T08:59:57Z</time>
      </trkpt>
      <trkpt lat="44.73847" lon="6.84376">
        <ele>1948.2</ele>
        <time>2026-03-23T08:59:58Z</time>
      </trkpt>
      <trkpt lat="44.73848" lon="6.84376">
        <ele>1948.4</ele>
        <time>2026-03-23T08:59:59Z</time>
      </trkpt>
      <trkpt lat="44.73848" lon="6.84376">
        <ele>1948.4</ele>
        <time>2026-03-23T09:00:00Z</time>
      </trkpt>
      <trkpt lat="44.73849" lon="6.84376">
        <ele>1948.4</ele>
        <time>2026-03-23T09:00:01Z</time>
      </trkpt>
      <trkpt lat="44.7385" lon="6.84376">
        <ele>1948.4</ele>
        <time>2026-03-23T09:00:02Z</time>
      </trkpt>
      <trkpt lat="44.7385" lon="6.84376">
        <ele>1948.4</ele>
        <time>2026-03-23T09:00:03Z</time>
      </trkpt>
      <trkpt lat="44.73851" lon="6.84376">
        <ele>1948.6</ele>
        <time>2026-03-23T09:00:04Z</time>
      </trkpt>
      <trkpt lat="44.73852" lon="6.84376">
        <ele>1948.6</ele>
        <time>2026-03-23T09:00:05Z</time>
      </trkpt>
      <trkpt lat="44.73852" lon="6.84377">
        <ele>1948.6</ele>
        <time>2026-03-23T09:00:06Z</time>
      </trkpt>
      <trkpt lat="44.73853" lon="6.84377">
        <ele>1948.6</ele>
        <time>2026-03-23T09:00:07Z</time>
      </trkpt>
      <trkpt lat="44.73854" lon="6.84377">
        <ele>1948.7</ele>
        <time>2026-03-23T09:00:08Z</time>
      </trkpt>
      <trkpt lat="44.73854" lon="6.84378">
        <ele>1948.7</ele>
        <time>2026-03-23T09:00:09Z</time>
      </trkpt>
      <trkpt lat="44.73855" lon="6.84378">
        <ele>1948.7</ele>
        <time>2026-03-23T09:00:10Z</time>
      </trkpt>
      <trkpt lat="44.73856" lon="6.84378">
        <ele>1948.7</ele>
        <time>2026-03-23T09:00:11Z</time>
      </trkpt>
      <trkpt lat="44.73857" lon="6.84378">
        <ele>1948.9</ele>
        <time>2026-03-23T09:00:12Z</time>
      </trkpt>
      <trkpt lat="44.73858" lon="6.84378">
        <ele>1948.9</ele>
        <time>2026-03-23T09:00:13Z</time>
      </trkpt>
      <trkpt lat="44.73858" lon="6.84378">
        <ele>1948.9</ele>
        <time>2026-03-23T09:00:14Z</time>
      </trkpt>
      <trkpt lat="44.73859" lon="6.84378">
        <ele>1948.9</ele>
        <time>2026-03-23T09:00:15Z</time>
      </trkpt>
      <trkpt lat="44.73859" lon="6.84379">
        <ele>1948.9</ele>
        <time>2026-03-23T09:00:16Z</time>
      </trkpt>
      <trkpt lat="44.7386" lon="6.84379">
        <ele>1949</ele>
        <time>2026-03-23T09:00:17Z</time>
      </trkpt>
      <trkpt lat="44.7386" lon="6.84379">
        <ele>1949</ele>
        <time>2026-03-23T09:00:18Z</time>
      </trkpt>
      <trkpt lat="44.7386" lon="6.84379">
        <ele>1949</ele>
        <time>2026-03-23T09:00:19Z</time>
      </trkpt>
      <trkpt lat="44.73861" lon="6.84379">
        <ele>1949</ele>
        <time>2026-03-23T09:00:20Z</time>
      </trkpt>
      <trkpt lat="44.73861" lon="6.84379">
        <ele>1949</ele>
        <time>2026-03-23T09:00:21Z</time>
      </trkpt>
      <trkpt lat="44.73861" lon="6.84379">
        <ele>1949</ele>
        <time>2026-03-23T09:00:22Z</time>
      </trkpt>
      <trkpt lat="44.73861" lon="6.84379">
        <ele>1949</ele>
        <time>2026-03-23T09:00:23Z</time>
      </trkpt>
      <trkpt lat="44.73861" lon="6.8438">
        <ele>1950.1</ele>
        <time>2026-03-23T09:00:24Z</time>
      </trkpt>
      <trkpt lat="44.73861" lon="6.8438">
        <ele>1950.1</ele>
        <time>2026-03-23T09:00:25Z</time>
      </trkpt>
      <trkpt lat="44.73861" lon="6.8438">
        <ele>1950.1</ele>
        <time>2026-03-23T09:00:26Z</time>
      </trkpt>
      <trkpt lat="44.73861" lon="6.84381">
        <ele>1950.1</ele>
        <time>2026-03-23T09:00:27Z</time>
      </trkpt>
      <trkpt lat="44.73862" lon="6.84381">
        <ele>1950.1</ele>
        <time>2026-03-23T09:00:28Z</time>
      </trkpt>
      <trkpt lat="44.73863" lon="6.84381">
        <ele>1950.1</ele>
        <time>2026-03-23T09:00:29Z</time>
      </trkpt>
      <trkpt lat="44.73863" lon="6.84382">
        <ele>1950.1</ele>
        <time>2026-03-23T09:00:30Z</time>
      </trkpt>
      <trkpt lat="44.73863" lon="6.84382">
        <ele>1950.2</ele>
        <time>2026-03-23T09:00:31Z</time>
      </trkpt>
      <trkpt lat="44.73863" lon="6.84382">
        <ele>1950.2</ele>
        <time>2026-03-23T09:00:32Z</time>
      </trkpt>
      <trkpt lat="44.73863" lon="6.84383">
        <ele>1950.2</ele>
        <time>2026-03-23T09:00:33Z</time>
      </trkpt>
      <trkpt lat="44.73863" lon="6.84383">
        <ele>1950.2</ele>
        <time>2026-03-23T09:00:34Z</time>
      </trkpt>
      <trkpt lat="44.73864" lon="6.84384">
        <ele>1950.2</ele>
        <time>2026-03-23T09:00:35Z</time>
      </trkpt>
      <trkpt lat="44.73864" lon="6.84384">
        <ele>1951.3</ele>
        <time>2026-03-23T09:00:37Z</time>
      </trkpt>
      <trkpt lat="44.73865" lon="6.84385">
        <ele>1951.3</ele>
        <time>2026-03-23T09:00:38Z</time>
      </trkpt>
      <trkpt lat="44.73865" lon="6.84385">
        <ele>1951.3</ele>
        <time>2026-03-23T09:00:39Z</time>
      </trkpt>
      <trkpt lat="44.73866" lon="6.84386">
        <ele>1951.4</ele>
        <time>2026-03-23T09:00:40Z</time>
      </trkpt>
      <trkpt lat="44.73866" lon="6.84386">
        <ele>1951.4</ele>
        <time>2026-03-23T09:00:41Z</time>
      </trkpt>
      <trkpt lat="44.73867" lon="6.84387">
        <ele>1951.4</ele>
        <time>2026-03-23T09:00:42Z</time>
      </trkpt>
      <trkpt lat="44.73868" lon="6.84387">
        <ele>1951.4</ele>
        <time>2026-03-23T09:00:43Z</time>
      </trkpt>
      <trkpt lat="44.73868" lon="6.84387">
        <ele>1951.4</ele>
        <time>2026-03-23T09:00:44Z</time>
      </trkpt>
      <trkpt lat="44.73869" lon="6.84388">
        <ele>1951.5</ele>
        <time>2026-03-23T09:00:45Z</time>
      </trkpt>
      <trkpt lat="44.7387" lon="6.84388">
        <ele>1951.5</ele>
        <time>2026-03-23T09:00:46Z</time>
      </trkpt>
      <trkpt lat="44.73871" lon="6.84388">
        <ele>1951.5</ele>
        <time>2026-03-23T09:00:47Z</time>
      </trkpt>
      <trkpt lat="44.73871" lon="6.84388">
        <ele>1952.6</ele>
        <time>2026-03-23T09:00:48Z</time>
      </trkpt>
      <trkpt lat="44.73872" lon="6.84389">
        <ele>1952.7</ele>
        <time>2026-03-23T09:00:49Z</time>
      </trkpt>
      <trkpt lat="44.73873" lon="6.84389">
        <ele>1952.7</ele>
        <time>2026-03-23T09:00:51Z</time>
      </trkpt>
      <trkpt lat="44.73873" lon="6.8439">
        <ele>1952.7</ele>
        <time>2026-03-23T09:00:52Z</time>
      </trkpt>
      <trkpt lat="44.73873" lon="6.8439">
        <ele>1952.7</ele>
        <time>2026-03-23T09:00:53Z</time>
      </trkpt>
      <trkpt lat="44.73873" lon="6.84391">
        <ele>1952.7</ele>
        <time>2026-03-23T09:00:54Z</time>
      </trkpt>
      <trkpt lat="44.73874" lon="6.84391">
        <ele>1952.7</ele>
        <time>2026-03-23T09:00:55Z</time>
      </trkpt>
      <trkpt lat="44.73874" lon="6.84392">
        <ele>1952.7</ele>
        <time>2026-03-23T09:00:56Z</time>
      </trkpt>
      <trkpt lat="44.73875" lon="6.84392">
        <ele>1952.7</ele>
        <time>2026-03-23T09:00:57Z</time>
      </trkpt>
      <trkpt lat="44.73875" lon="6.84392">
        <ele>1952.8</ele>
        <time>2026-03-23T09:00:58Z</time>
      </trkpt>
      <trkpt lat="44.73875" lon="6.84392">
        <ele>1952.8</ele>
        <time>2026-03-23T09:00:59Z</time>
      </trkpt>
      <trkpt lat="44.73876" lon="6.84393">
        <ele>1953.9</ele>
        <time>2026-03-23T09:01:00Z</time>
      </trkpt>
      <trkpt lat="44.73876" lon="6.84394">
        <ele>1953.9</ele>
        <time>2026-03-23T09:01:01Z</time>
      </trkpt>
      <trkpt lat="44.73877" lon="6.84394">
        <ele>1953.9</ele>
        <time>2026-03-23T09:01:02Z</time>
      </trkpt>
      <trkpt lat="44.73877" lon="6.84395">
        <ele>1953.9</ele>
        <time>2026-03-23T09:01:03Z</time>
      </trkpt>
      <trkpt lat="44.73878" lon="6.84396">
        <ele>1954</ele>
        <time>2026-03-23T09:01:04Z</time>
      </trkpt>
      <trkpt lat="44.73878" lon="6.84396">
        <ele>1954</ele>
        <time>2026-03-23T09:01:05Z</time>
      </trkpt>
      <trkpt lat="44.73879" lon="6.84397">
        <ele>1955.1</ele>
        <time>2026-03-23T09:01:06Z</time>
      </trkpt>
      <trkpt lat="44.73879" lon="6.84398">
        <ele>1955.1</ele>
        <time>2026-03-23T09:01:07Z</time>
      </trkpt>
      <trkpt lat="44.73879" lon="6.84398">
        <ele>1955.1</ele>
        <time>2026-03-23T09:01:08Z</time>
      </trkpt>
      <trkpt lat="44.73879" lon="6.84399">
        <ele>1955.1</ele>
        <time>2026-03-23T09:01:09Z</time>
      </trkpt>
      <trkpt lat="44.73879" lon="6.84399">
        <ele>1955.1</ele>
        <time>2026-03-23T09:01:10Z</time>
      </trkpt>
      <trkpt lat="44.73879" lon="6.84399">
        <ele>1955.1</ele>
        <time>2026-03-23T09:01:11Z</time>
      </trkpt>
      <trkpt lat="44.7388" lon="6.84399">
        <ele>1955.1</ele>
        <time>2026-03-23T09:01:12Z</time>
      </trkpt>
      <trkpt lat="44.7388" lon="6.84399">
        <ele>1955.1</ele>
        <time>2026-03-23T09:01:13Z</time>
      </trkpt>
      <trkpt lat="44.7388" lon="6.84399">
        <ele>1955.1</ele>
        <time>2026-03-23T09:01:14Z</time>
      </trkpt>
      <trkpt lat="44.7388" lon="6.84399">
        <ele>1955.1</ele>
        <time>2026-03-23T09:01:15Z</time>
      </trkpt>
      <trkpt lat="44.7388" lon="6.84399">
        <ele>1955.1</ele>
        <time>2026-03-23T09:01:16Z</time>
      </trkpt>
      <trkpt lat="44.73881" lon="6.844">
        <ele>1955.1</ele>
        <time>2026-03-23T09:01:17Z</time>
      </trkpt>
      <trkpt lat="44.73881" lon="6.844">
        <ele>1955.2</ele>
        <time>2026-03-23T09:01:18Z</time>
      </trkpt>
      <trkpt lat="44.73881" lon="6.844">
        <ele>1955.2</ele>
        <time>2026-03-23T09:01:19Z</time>
      </trkpt>
      <trkpt lat="44.73882" lon="6.844">
        <ele>1955.2</ele>
        <time>2026-03-23T09:01:20Z</time>
      </trkpt>
      <trkpt lat="44.73882" lon="6.844">
        <ele>1955.2</ele>
        <time>2026-03-23T09:01:21Z</time>
      </trkpt>
      <trkpt lat="44.73882" lon="6.84401">
        <ele>1955.2</ele>
        <time>2026-03-23T09:01:22Z</time>
      </trkpt>
      <trkpt lat="44.73883" lon="6.84401">
        <ele>1956.4</ele>
        <time>2026-03-23T09:01:23Z</time>
      </trkpt>
      <trkpt lat="44.73883" lon="6.84402">
        <ele>1956.3</ele>
        <time>2026-03-23T09:01:24Z</time>
      </trkpt>
      <trkpt lat="44.73884" lon="6.84402">
        <ele>1956.3</ele>
        <time>2026-03-23T09:01:25Z</time>
      </trkpt>
      <trkpt lat="44.73884" lon="6.84403">
        <ele>1956.5</ele>
        <time>2026-03-23T09:01:26Z</time>
      </trkpt>
      <trkpt lat="44.73885" lon="6.84403">
        <ele>1956.5</ele>
        <time>2026-03-23T09:01:27Z</time>
      </trkpt>
      <trkpt lat="44.73885" lon="6.84404">
        <ele>1956.5</ele>
        <time>2026-03-23T09:01:28Z</time>
      </trkpt>
      <trkpt lat="44.73886" lon="6.84405">
        <ele>1956.5</ele>
        <time>2026-03-23T09:01:29Z</time>
      </trkpt>
      <trkpt lat="44.73887" lon="6.84406">
        <ele>1957.7</ele>
        <time>2026-03-23T09:01:30Z</time>
      </trkpt>
      <trkpt lat="44.73887" lon="6.84406">
        <ele>1957.8</ele>
        <time>2026-03-23T09:01:31Z</time>
      </trkpt>
      <trkpt lat="44.73888" lon="6.84407">
        <ele>1957.8</ele>
        <time>2026-03-23T09:01:32Z</time>
      </trkpt>
      <trkpt lat="44.73889" lon="6.84408">
        <ele>1957.8</ele>
        <time>2026-03-23T09:01:33Z</time>
      </trkpt>
      <trkpt lat="44.73889" lon="6.84408">
        <ele>1957.8</ele>
        <time>2026-03-23T09:01:34Z</time>
      </trkpt>
      <trkpt lat="44.7389" lon="6.84408">
        <ele>1957.8</ele>
        <time>2026-03-23T09:01:36Z</time>
      </trkpt>
      <trkpt lat="44.7389" lon="6.84409">
        <ele>1957.9</ele>
        <time>2026-03-23T09:01:37Z</time>
      </trkpt>
      <trkpt lat="44.73891" lon="6.84409">
        <ele>1957.9</ele>
        <time>2026-03-23T09:01:38Z</time>
      </trkpt>
      <trkpt lat="44.73892" lon="6.8441">
        <ele>1957.9</ele>
        <time>2026-03-23T09:01:39Z</time>
      </trkpt>
      <trkpt lat="44.73892" lon="6.8441">
        <ele>1959.1</ele>
        <time>2026-03-23T09:01:40Z</time>
      </trkpt>
      <trkpt lat="44.73893" lon="6.8441">
        <ele>1959.1</ele>
        <time>2026-03-23T09:01:41Z</time>
      </trkpt>
      <trkpt lat="44.73893" lon="6.8441">
        <ele>1959.1</ele>
        <time>2026-03-23T09:01:42Z</time>
      </trkpt>
      <trkpt lat="44.73893" lon="6.8441">
        <ele>1959.1</ele>
        <time>2026-03-23T09:01:43Z</time>
      </trkpt>
      <trkpt lat="44.73893" lon="6.8441">
        <ele>1959.1</ele>
        <time>2026-03-23T09:01:44Z</time>
      </trkpt>
      <trkpt lat="44.73893" lon="6.8441">
        <ele>1957.9</ele>
        <time>2026-03-23T09:01:45Z</time>
      </trkpt>
      <trkpt lat="44.73893" lon="6.8441">
        <ele>1958.2</ele>
        <time>2026-03-23T09:01:46Z</time>
      </trkpt>
      <trkpt lat="44.73893" lon="6.84409">
        <ele>1957.9</ele>
        <time>2026-03-23T09:01:48Z</time>
      </trkpt>
      <trkpt lat="44.73894" lon="6.8441">
        <ele>1958.2</ele>
        <time>2026-03-23T09:01:49Z</time>
      </trkpt>
      <trkpt lat="44.73894" lon="6.8441">
        <ele>1959.3</ele>
        <time>2026-03-23T09:01:50Z</time>
      </trkpt>
      <trkpt lat="44.73896" lon="6.8441">
        <ele>1959.3</ele>
        <time>2026-03-23T09:01:51Z</time>
      </trkpt>
      <trkpt lat="44.73896" lon="6.84411">
        <ele>1959.3</ele>
        <time>2026-03-23T09:01:53Z</time>
      </trkpt>
      <trkpt lat="44.73896" lon="6.84411">
        <ele>1959.5</ele>
        <time>2026-03-23T09:01:54Z</time>
      </trkpt>
      <trkpt lat="44.73897" lon="6.84411">
        <ele>1959.5</ele>
        <time>2026-03-23T09:01:55Z</time>
      </trkpt>
      <trkpt lat="44.73897" lon="6.84411">
        <ele>1959.5</ele>
        <time>2026-03-23T09:01:56Z</time>
      </trkpt>
      <trkpt lat="44.73897" lon="6.8441">
        <ele>1959.5</ele>
        <time>2026-03-23T09:01:57Z</time>
      </trkpt>
      <trkpt lat="44.73897" lon="6.8441">
        <ele>1959.5</ele>
        <time>2026-03-23T09:01:58Z</time>
      </trkpt>
      <trkpt lat="44.73898" lon="6.8441">
        <ele>1959.5</ele>
        <time>2026-03-23T09:01:59Z</time>
      </trkpt>
      <trkpt lat="44.73899" lon="6.8441">
        <ele>1958.3</ele>
        <time>2026-03-23T09:02:00Z</time>
      </trkpt>
      <trkpt lat="44.73899" lon="6.84409">
        <ele>1958.4</ele>
        <time>2026-03-23T09:02:01Z</time>
      </trkpt>
      <trkpt lat="44.739" lon="6.84409">
        <ele>1958.4</ele>
        <time>2026-03-23T09:02:02Z</time>
      </trkpt>
      <trkpt lat="44.73901" lon="6.84409">
        <ele>1958.4</ele>
        <time>2026-03-23T09:02:03Z</time>
      </trkpt>
      <trkpt lat="44.73901" lon="6.84408">
        <ele>1958.4</ele>
        <time>2026-03-23T09:02:05Z</time>
      </trkpt>
      <trkpt lat="44.73902" lon="6.84408">
        <ele>1958.4</ele>
        <time>2026-03-23T09:02:06Z</time>
      </trkpt>
      <trkpt lat="44.73902" lon="6.84408">
        <ele>1958.4</ele>
        <time>2026-03-23T09:02:07Z</time>
      </trkpt>
      <trkpt lat="44.73902" lon="6.84408">
        <ele>1958.4</ele>
        <time>2026-03-23T09:02:08Z</time>
      </trkpt>
      <trkpt lat="44.73902" lon="6.84408">
        <ele>1958.5</ele>
        <time>2026-03-23T09:02:09Z</time>
      </trkpt>
      <trkpt lat="44.73902" lon="6.84408">
        <ele>1958.5</ele>
        <time>2026-03-23T09:02:10Z</time>
      </trkpt>
      <trkpt lat="44.73904" lon="6.84409">
        <ele>1958.5</ele>
        <time>2026-03-23T09:02:11Z</time>
      </trkpt>
      <trkpt lat="44.73904" lon="6.8441">
        <ele>1959.7</ele>
        <time>2026-03-23T09:02:13Z</time>
      </trkpt>
      <trkpt lat="44.73904" lon="6.84411">
        <ele>1959.7</ele>
        <time>2026-03-23T09:02:14Z</time>
      </trkpt>
      <trkpt lat="44.73904" lon="6.84412">
        <ele>1959.7</ele>
        <time>2026-03-23T09:02:15Z</time>
      </trkpt>
      <trkpt lat="44.73904" lon="6.84412">
        <ele>1959.7</ele>
        <time>2026-03-23T09:02:16Z</time>
      </trkpt>
      <trkpt lat="44.73904" lon="6.84413">
        <ele>1959.7</ele>
        <time>2026-03-23T09:02:17Z</time>
      </trkpt>
      <trkpt lat="44.73905" lon="6.84414">
        <ele>1960.9</ele>
        <time>2026-03-23T09:02:18Z</time>
      </trkpt>
      <trkpt lat="44.73905" lon="6.84415">
        <ele>1960.9</ele>
        <time>2026-03-23T09:02:20Z</time>
      </trkpt>
      <trkpt lat="44.73905" lon="6.84415">
        <ele>1960.9</ele>
        <time>2026-03-23T09:02:21Z</time>
      </trkpt>
      <trkpt lat="44.73905" lon="6.84415">
        <ele>1960.9</ele>
        <time>2026-03-23T09:02:22Z</time>
      </trkpt>
      <trkpt lat="44.73905" lon="6.84416">
        <ele>1960.9</ele>
        <time>2026-03-23T09:02:23Z</time>
      </trkpt>
      <trkpt lat="44.73905" lon="6.84417">
        <ele>1960.9</ele>
        <time>2026-03-23T09:02:24Z</time>
      </trkpt>
      <trkpt lat="44.73905" lon="6.84418">
        <ele>1961</ele>
        <time>2026-03-23T09:02:25Z</time>
      </trkpt>
      <trkpt lat="44.73906" lon="6.84419">
        <ele>1962.1</ele>
        <time>2026-03-23T09:02:26Z</time>
      </trkpt>
      <trkpt lat="44.73906" lon="6.8442">
        <ele>1962.1</ele>
        <time>2026-03-23T09:02:27Z</time>
      </trkpt>
      <trkpt lat="44.73906" lon="6.8442">
        <ele>1962.1</ele>
        <time>2026-03-23T09:02:28Z</time>
      </trkpt>
      <trkpt lat="44.73907" lon="6.84422">
        <ele>1962.1</ele>
        <time>2026-03-23T09:02:29Z</time>
      </trkpt>
      <trkpt lat="44.73907" lon="6.84422">
        <ele>1962.1</ele>
        <time>2026-03-23T09:02:30Z</time>
      </trkpt>
      <trkpt lat="44.73907" lon="6.84423">
        <ele>1963.3</ele>
        <time>2026-03-23T09:02:31Z</time>
      </trkpt>
      <trkpt lat="44.73908" lon="6.84424">
        <ele>1963.3</ele>
        <time>2026-03-23T09:02:32Z</time>
      </trkpt>
      <trkpt lat="44.73908" lon="6.84424">
        <ele>1963.4</ele>
        <time>2026-03-23T09:02:33Z</time>
      </trkpt>
      <trkpt lat="44.73909" lon="6.84425">
        <ele>1963.4</ele>
        <time>2026-03-23T09:02:34Z</time>
      </trkpt>
      <trkpt lat="44.73909" lon="6.84426">
        <ele>1963.4</ele>
        <time>2026-03-23T09:02:35Z</time>
      </trkpt>
      <trkpt lat="44.7391" lon="6.84427">
        <ele>1963.4</ele>
        <time>2026-03-23T09:02:36Z</time>
      </trkpt>
      <trkpt lat="44.7391" lon="6.84427">
        <ele>1964.5</ele>
        <time>2026-03-23T09:02:37Z</time>
      </trkpt>
      <trkpt lat="44.7391" lon="6.84428">
        <ele>1964.5</ele>
        <time>2026-03-23T09:02:38Z</time>
      </trkpt>
      <trkpt lat="44.73911" lon="6.84429">
        <ele>1964.5</ele>
        <time>2026-03-23T09:02:39Z</time>
      </trkpt>
      <trkpt lat="44.73911" lon="6.84429">
        <ele>1964.5</ele>
        <time>2026-03-23T09:02:40Z</time>
      </trkpt>
      <trkpt lat="44.73911" lon="6.84429">
        <ele>1964.7</ele>
        <time>2026-03-23T09:02:41Z</time>
      </trkpt>
      <trkpt lat="44.73911" lon="6.8443">
        <ele>1964.7</ele>
        <time>2026-03-23T09:02:42Z</time>
      </trkpt>
      <trkpt lat="44.73912" lon="6.84431">
        <ele>1964.7</ele>
        <time>2026-03-23T09:02:43Z</time>
      </trkpt>
      <trkpt lat="44.73911" lon="6.84431">
        <ele>1964.7</ele>
        <time>2026-03-23T09:02:44Z</time>
      </trkpt>
      <trkpt lat="44.73911" lon="6.84431">
        <ele>1965.5</ele>
        <time>2026-03-23T09:02:45Z</time>
      </trkpt>
      <trkpt lat="44.73911" lon="6.84432">
        <ele>1965.5</ele>
        <time>2026-03-23T09:02:46Z</time>
      </trkpt>
      <trkpt lat="44.73911" lon="6.84432">
        <ele>1965.5</ele>
        <time>2026-03-23T09:02:47Z</time>
      </trkpt>
      <trkpt lat="44.7391" lon="6.84433">
        <ele>1965.5</ele>
        <time>2026-03-23T09:02:48Z</time>
      </trkpt>
      <trkpt lat="44.7391" lon="6.84434">
        <ele>1965.5</ele>
        <time>2026-03-23T09:02:49Z</time>
      </trkpt>
      <trkpt lat="44.73909" lon="6.84434">
        <ele>1965.5</ele>
        <time>2026-03-23T09:02:50Z</time>
      </trkpt>
      <trkpt lat="44.73909" lon="6.84435">
        <ele>1966.5</ele>
        <time>2026-03-23T09:02:51Z</time>
      </trkpt>
      <trkpt lat="44.73908" lon="6.84436">
        <ele>1966.4</ele>
        <time>2026-03-23T09:02:52Z</time>
      </trkpt>
      <trkpt lat="44.73907" lon="6.84437">
        <ele>1966.4</ele>
        <time>2026-03-23T09:02:53Z</time>
      </trkpt>
      <trkpt lat="44.73907" lon="6.84438">
        <ele>1966.4</ele>
        <time>2026-03-23T09:02:54Z</time>
      </trkpt>
      <trkpt lat="44.73906" lon="6.84438">
        <ele>1966.4</ele>
        <time>2026-03-23T09:02:55Z</time>
      </trkpt>
      <trkpt lat="44.73906" lon="6.84439">
        <ele>1966.4</ele>
        <time>2026-03-23T09:02:56Z</time>
      </trkpt>
      <trkpt lat="44.73905" lon="6.8444">
        <ele>1967.5</ele>
        <time>2026-03-23T09:02:57Z</time>
      </trkpt>
      <trkpt lat="44.73904" lon="6.84441">
        <ele>1967.3</ele>
        <time>2026-03-23T09:02:58Z</time>
      </trkpt>
      <trkpt lat="44.73904" lon="6.84442">
        <ele>1967.3</ele>
        <time>2026-03-23T09:02:59Z</time>
      </trkpt>
      <trkpt lat="44.73903" lon="6.84442">
        <ele>1967.3</ele>
        <time>2026-03-23T09:03:00Z</time>
      </trkpt>
      <trkpt lat="44.73902" lon="6.84443">
        <ele>1967.2</ele>
        <time>2026-03-23T09:03:01Z</time>
      </trkpt>
      <trkpt lat="44.73901" lon="6.84444">
        <ele>1967.2</ele>
        <time>2026-03-23T09:03:02Z</time>
      </trkpt>
      <trkpt lat="44.739" lon="6.84445">
        <ele>1968.3</ele>
        <time>2026-03-23T09:03:03Z</time>
      </trkpt>
      <trkpt lat="44.73899" lon="6.84445">
        <ele>1968.3</ele>
        <time>2026-03-23T09:03:04Z</time>
      </trkpt>
      <trkpt lat="44.73898" lon="6.84446">
        <ele>1968.2</ele>
        <time>2026-03-23T09:03:05Z</time>
      </trkpt>
      <trkpt lat="44.73898" lon="6.84447">
        <ele>1968.2</ele>
        <time>2026-03-23T09:03:06Z</time>
      </trkpt>
      <trkpt lat="44.73897" lon="6.84447">
        <ele>1968.2</ele>
        <time>2026-03-23T09:03:07Z</time>
      </trkpt>
      <trkpt lat="44.73896" lon="6.84448">
        <ele>1968.2</ele>
        <time>2026-03-23T09:03:08Z</time>
      </trkpt>
      <trkpt lat="44.73896" lon="6.84449">
        <ele>1969.9</ele>
        <time>2026-03-23T09:03:09Z</time>
      </trkpt>
      <trkpt lat="44.73895" lon="6.84449">
        <ele>1969.9</ele>
        <time>2026-03-23T09:03:10Z</time>
      </trkpt>
      <trkpt lat="44.73894" lon="6.8445">
        <ele>1969.9</ele>
        <time>2026-03-23T09:03:11Z</time>
      </trkpt>
      <trkpt lat="44.73894" lon="6.8445">
        <ele>1969.9</ele>
        <time>2026-03-23T09:03:12Z</time>
      </trkpt>
      <trkpt lat="44.73893" lon="6.84451">
        <ele>1969.9</ele>
        <time>2026-03-23T09:03:13Z</time>
      </trkpt>
      <trkpt lat="44.73893" lon="6.84451">
        <ele>1969.6</ele>
        <time>2026-03-23T09:03:14Z</time>
      </trkpt>
      <trkpt lat="44.73892" lon="6.84452">
        <ele>1969.6</ele>
        <time>2026-03-23T09:03:15Z</time>
      </trkpt>
      <trkpt lat="44.73892" lon="6.84453">
        <ele>1970.8</ele>
        <time>2026-03-23T09:03:16Z</time>
      </trkpt>
      <trkpt lat="44.73892" lon="6.84453">
        <ele>1970.8</ele>
        <time>2026-03-23T09:03:17Z</time>
      </trkpt>
      <trkpt lat="44.73891" lon="6.84455">
        <ele>1970.8</ele>
        <time>2026-03-23T09:03:18Z</time>
      </trkpt>
      <trkpt lat="44.73891" lon="6.84455">
        <ele>1970.8</ele>
        <time>2026-03-23T09:03:19Z</time>
      </trkpt>
      <trkpt lat="44.7389" lon="6.84456">
        <ele>1970.8</ele>
        <time>2026-03-23T09:03:20Z</time>
      </trkpt>
      <trkpt lat="44.7389" lon="6.84456">
        <ele>1970.8</ele>
        <time>2026-03-23T09:03:21Z</time>
      </trkpt>
      <trkpt lat="44.7389" lon="6.84457">
        <ele>1971.7</ele>
        <time>2026-03-23T09:03:22Z</time>
      </trkpt>
      <trkpt lat="44.73889" lon="6.84458">
        <ele>1971.7</ele>
        <time>2026-03-23T09:03:23Z</time>
      </trkpt>
      <trkpt lat="44.73889" lon="6.84459">
        <ele>1971.7</ele>
        <time>2026-03-23T09:03:24Z</time>
      </trkpt>
      <trkpt lat="44.73888" lon="6.8446">
        <ele>1971.7</ele>
        <time>2026-03-23T09:03:25Z</time>
      </trkpt>
      <trkpt lat="44.73888" lon="6.8446">
        <ele>1971.7</ele>
        <time>2026-03-23T09:03:26Z</time>
      </trkpt>
      <trkpt lat="44.73888" lon="6.84461">
        <ele>1971.7</ele>
        <time>2026-03-23T09:03:27Z</time>
      </trkpt>
      <trkpt lat="44.73887" lon="6.84462">
        <ele>1972.8</ele>
        <time>2026-03-23T09:03:28Z</time>
      </trkpt>
      <trkpt lat="44.73887" lon="6.84462">
        <ele>1972.8</ele>
        <time>2026-03-23T09:03:29Z</time>
      </trkpt>
      <trkpt lat="44.73887" lon="6.84463">
        <ele>1972.6</ele>
        <time>2026-03-23T09:03:30Z</time>
      </trkpt>
      <trkpt lat="44.73886" lon="6.84463">
        <ele>1972.6</ele>
        <time>2026-03-23T09:03:31Z</time>
      </trkpt>
      <trkpt lat="44.73886" lon="6.84464">
        <ele>1972.6</ele>
        <time>2026-03-23T09:03:32Z</time>
      </trkpt>
      <trkpt lat="44.73886" lon="6.84465">
        <ele>1972.6</ele>
        <time>2026-03-23T09:03:33Z</time>
      </trkpt>
      <trkpt lat="44.73886" lon="6.84466">
        <ele>1973.6</ele>
        <time>2026-03-23T09:03:34Z</time>
      </trkpt>
      <trkpt lat="44.73885" lon="6.84466">
        <ele>1973.6</ele>
        <time>2026-03-23T09:03:35Z</time>
      </trkpt>
      <trkpt lat="44.73885" lon="6.84467">
        <ele>1973.6</ele>
        <time>2026-03-23T09:03:36Z</time>
      </trkpt>
      <trkpt lat="44.73885" lon="6.84468">
        <ele>1973.6</ele>
        <time>2026-03-23T09:03:37Z</time>
      </trkpt>
      <trkpt lat="44.73884" lon="6.84468">
        <ele>1973.6</ele>
        <time>2026-03-23T09:03:38Z</time>
      </trkpt>
      <trkpt lat="44.73884" lon="6.84469">
        <ele>1973.6</ele>
        <time>2026-03-23T09:03:39Z</time>
      </trkpt>
      <trkpt lat="44.73884" lon="6.84469">
        <ele>1973.4</ele>
        <time>2026-03-23T09:03:40Z</time>
      </trkpt>
      <trkpt lat="44.73883" lon="6.8447">
        <ele>1974.4</ele>
        <time>2026-03-23T09:03:41Z</time>
      </trkpt>
      <trkpt lat="44.73883" lon="6.84471">
        <ele>1974.4</ele>
        <time>2026-03-23T09:03:42Z</time>
      </trkpt>
      <trkpt lat="44.73883" lon="6.84471">
        <ele>1974.4</ele>
        <time>2026-03-23T09:03:43Z</time>
      </trkpt>
      <trkpt lat="44.73882" lon="6.84472">
        <ele>1974.4</ele>
        <time>2026-03-23T09:03:44Z</time>
      </trkpt>
      <trkpt lat="44.73882" lon="6.84473">
        <ele>1974.4</ele>
        <time>2026-03-23T09:03:45Z</time>
      </trkpt>
      <trkpt lat="44.73881" lon="6.84473">
        <ele>1974.4</ele>
        <time>2026-03-23T09:03:47Z</time>
      </trkpt>
      <trkpt lat="44.73881" lon="6.84474">
        <ele>1974.1</ele>
        <time>2026-03-23T09:03:48Z</time>
      </trkpt>
      <trkpt lat="44.7388" lon="6.84475">
        <ele>1975.1</ele>
        <time>2026-03-23T09:03:49Z</time>
      </trkpt>
      <trkpt lat="44.7388" lon="6.84475">
        <ele>1975.1</ele>
        <time>2026-03-23T09:03:50Z</time>
      </trkpt>
      <trkpt lat="44.7388" lon="6.84476">
        <ele>1975.1</ele>
        <time>2026-03-23T09:03:51Z</time>
      </trkpt>
      <trkpt lat="44.7388" lon="6.84476">
        <ele>1975.1</ele>
        <time>2026-03-23T09:03:52Z</time>
      </trkpt>
      <trkpt lat="44.73879" lon="6.84477">
        <ele>1975.1</ele>
        <time>2026-03-23T09:03:53Z</time>
      </trkpt>
      <trkpt lat="44.73879" lon="6.84477">
        <ele>1975.1</ele>
        <time>2026-03-23T09:03:54Z</time>
      </trkpt>
      <trkpt lat="44.73879" lon="6.84478">
        <ele>1975.1</ele>
        <time>2026-03-23T09:03:55Z</time>
      </trkpt>
      <trkpt lat="44.73879" lon="6.84478">
        <ele>1975.1</ele>
        <time>2026-03-23T09:03:56Z</time>
      </trkpt>
      <trkpt lat="44.73878" lon="6.84479">
        <ele>1976.1</ele>
        <time>2026-03-23T09:03:57Z</time>
      </trkpt>
      <trkpt lat="44.73878" lon="6.84479">
        <ele>1976.1</ele>
        <time>2026-03-23T09:03:58Z</time>
      </trkpt>
      <trkpt lat="44.73877" lon="6.84479">
        <ele>1975.8</ele>
        <time>2026-03-23T09:03:59Z</time>
      </trkpt>
      <trkpt lat="44.73877" lon="6.8448">
        <ele>1975.8</ele>
        <time>2026-03-23T09:04:00Z</time>
      </trkpt>
      <trkpt lat="44.73876" lon="6.84481">
        <ele>1975.8</ele>
        <time>2026-03-23T09:04:01Z</time>
      </trkpt>
      <trkpt lat="44.73876" lon="6.84481">
        <ele>1975.8</ele>
        <time>2026-03-23T09:04:02Z</time>
      </trkpt>
      <trkpt lat="44.73875" lon="6.84482">
        <ele>1975.5</ele>
        <time>2026-03-23T09:04:04Z</time>
      </trkpt>
      <trkpt lat="44.73874" lon="6.84482">
        <ele>1975.5</ele>
        <time>2026-03-23T09:04:05Z</time>
      </trkpt>
      <trkpt lat="44.73874" lon="6.84482">
        <ele>1975.5</ele>
        <time>2026-03-23T09:04:06Z</time>
      </trkpt>
      <trkpt lat="44.73874" lon="6.84483">
        <ele>1976.5</ele>
        <time>2026-03-23T09:04:07Z</time>
      </trkpt>
      <trkpt lat="44.73873" lon="6.84483">
        <ele>1976.5</ele>
        <time>2026-03-23T09:04:08Z</time>
      </trkpt>
      <trkpt lat="44.73873" lon="6.84484">
        <ele>1976.5</ele>
        <time>2026-03-23T09:04:09Z</time>
      </trkpt>
      <trkpt lat="44.73872" lon="6.84484">
        <ele>1976.5</ele>
        <time>2026-03-23T09:04:11Z</time>
      </trkpt>
      <trkpt lat="44.73872" lon="6.84485">
        <ele>1976.5</ele>
        <time>2026-03-23T09:04:12Z</time>
      </trkpt>
      <trkpt lat="44.73871" lon="6.84486">
        <ele>1976.1</ele>
        <time>2026-03-23T09:04:13Z</time>
      </trkpt>
      <trkpt lat="44.73871" lon="6.84486">
        <ele>1976.1</ele>
        <time>2026-03-23T09:04:14Z</time>
      </trkpt>
      <trkpt lat="44.7387" lon="6.84487">
        <ele>1977.1</ele>
        <time>2026-03-23T09:04:16Z</time>
      </trkpt>
      <trkpt lat="44.7387" lon="6.84488">
        <ele>1977.1</ele>
        <time>2026-03-23T09:04:18Z</time>
      </trkpt>
      <trkpt lat="44.7387" lon="6.84489">
        <ele>1977.1</ele>
        <time>2026-03-23T09:04:19Z</time>
      </trkpt>
      <trkpt lat="44.73869" lon="6.8449">
        <ele>1977.1</ele>
        <time>2026-03-23T09:04:20Z</time>
      </trkpt>
      <trkpt lat="44.73869" lon="6.84491">
        <ele>1977.1</ele>
        <time>2026-03-23T09:04:21Z</time>
      </trkpt>
      <trkpt lat="44.73869" lon="6.84492">
        <ele>1978.2</ele>
        <time>2026-03-23T09:04:22Z</time>
      </trkpt>
      <trkpt lat="44.73869" lon="6.84492">
        <ele>1978.2</ele>
        <time>2026-03-23T09:04:23Z</time>
      </trkpt>
      <trkpt lat="44.73869" lon="6.84493">
        <ele>1978.2</ele>
        <time>2026-03-23T09:04:24Z</time>
      </trkpt>
      <trkpt lat="44.73869" lon="6.84493">
        <ele>1977.7</ele>
        <time>2026-03-23T09:04:25Z</time>
      </trkpt>
      <trkpt lat="44.73868" lon="6.84494">
        <ele>1977.7</ele>
        <time>2026-03-23T09:04:26Z</time>
      </trkpt>
      <trkpt lat="44.73868" lon="6.84495">
        <ele>1977.7</ele>
        <time>2026-03-23T09:04:27Z</time>
      </trkpt>
      <trkpt lat="44.73868" lon="6.84495">
        <ele>1977.7</ele>
        <time>2026-03-23T09:04:29Z</time>
      </trkpt>
      <trkpt lat="44.73867" lon="6.84497">
        <ele>1978.8</ele>
        <time>2026-03-23T09:04:30Z</time>
      </trkpt>
      <trkpt lat="44.73867" lon="6.84499">
        <ele>1978.8</ele>
        <time>2026-03-23T09:04:32Z</time>
      </trkpt>
      <trkpt lat="44.73867" lon="6.84499">
        <ele>1978.8</ele>
        <time>2026-03-23T09:04:33Z</time>
      </trkpt>
      <trkpt lat="44.73867" lon="6.845">
        <ele>1979.9</ele>
        <time>2026-03-23T09:04:34Z</time>
      </trkpt>
      <trkpt lat="44.73866" lon="6.84501">
        <ele>1979.9</ele>
        <time>2026-03-23T09:04:35Z</time>
      </trkpt>
      <trkpt lat="44.73866" lon="6.84502">
        <ele>1979.9</ele>
        <time>2026-03-23T09:04:37Z</time>
      </trkpt>
      <trkpt lat="44.73866" lon="6.84502">
        <ele>1979.9</ele>
        <time>2026-03-23T09:04:38Z</time>
      </trkpt>
      <trkpt lat="44.73866" lon="6.84503">
        <ele>1979.4</ele>
        <time>2026-03-23T09:04:39Z</time>
      </trkpt>
      <trkpt lat="44.73865" lon="6.84504">
        <ele>1979.4</ele>
        <time>2026-03-23T09:04:40Z</time>
      </trkpt>
      <trkpt lat="44.73865" lon="6.84505">
        <ele>1980.5</ele>
        <time>2026-03-23T09:04:41Z</time>
      </trkpt>
      <trkpt lat="44.73865" lon="6.84505">
        <ele>1980.5</ele>
        <time>2026-03-23T09:04:42Z</time>
      </trkpt>
      <trkpt lat="44.73864" lon="6.84507">
        <ele>1980.5</ele>
        <time>2026-03-23T09:04:44Z</time>
      </trkpt>
      <trkpt lat="44.73864" lon="6.84508">
        <ele>1980.5</ele>
        <time>2026-03-23T09:04:45Z</time>
      </trkpt>
      <trkpt lat="44.73864" lon="6.84509">
        <ele>1981.5</ele>
        <time>2026-03-23T09:04:47Z</time>
      </trkpt>
      <trkpt lat="44.73863" lon="6.8451">
        <ele>1981.5</ele>
        <time>2026-03-23T09:04:48Z</time>
      </trkpt>
      <trkpt lat="44.73863" lon="6.84512">
        <ele>1981.5</ele>
        <time>2026-03-23T09:04:49Z</time>
      </trkpt>
      <trkpt lat="44.73863" lon="6.84512">
        <ele>1981.5</ele>
        <time>2026-03-23T09:04:50Z</time>
      </trkpt>
      <trkpt lat="44.73863" lon="6.84513">
        <ele>1982.5</ele>
        <time>2026-03-23T09:04:52Z</time>
      </trkpt>
      <trkpt lat="44.73862" lon="6.84514">
        <ele>1982</ele>
        <time>2026-03-23T09:04:53Z</time>
      </trkpt>
      <trkpt lat="44.73862" lon="6.84516">
        <ele>1982</ele>
        <time>2026-03-23T09:04:54Z</time>
      </trkpt>
      <trkpt lat="44.73862" lon="6.84517">
        <ele>1982</ele>
        <time>2026-03-23T09:04:55Z</time>
      </trkpt>
      <trkpt lat="44.73862" lon="6.84517">
        <ele>1983</ele>
        <time>2026-03-23T09:04:56Z</time>
      </trkpt>
      <trkpt lat="44.73862" lon="6.84518">
        <ele>1983</ele>
        <time>2026-03-23T09:04:57Z</time>
      </trkpt>
      <trkpt lat="44.73862" lon="6.84518">
        <ele>1983</ele>
        <time>2026-03-23T09:04:58Z</time>
      </trkpt>
      <trkpt lat="44.73861" lon="6.84519">
        <ele>1983</ele>
        <time>2026-03-23T09:04:59Z</time>
      </trkpt>
      <trkpt lat="44.73861" lon="6.8452">
        <ele>1983</ele>
        <time>2026-03-23T09:05:01Z</time>
      </trkpt>
      <trkpt lat="44.73861" lon="6.8452">
        <ele>1982.9</ele>
        <time>2026-03-23T09:05:02Z</time>
      </trkpt>
      <trkpt lat="44.73861" lon="6.84521">
        <ele>1982.9</ele>
        <time>2026-03-23T09:05:03Z</time>
      </trkpt>
      <trkpt lat="44.73861" lon="6.84521">
        <ele>1982.9</ele>
        <time>2026-03-23T09:05:04Z</time>
      </trkpt>
      <trkpt lat="44.73861" lon="6.84521">
        <ele>1983.9</ele>
        <time>2026-03-23T09:05:05Z</time>
      </trkpt>
      <trkpt lat="44.7386" lon="6.84522">
        <ele>1983.9</ele>
        <time>2026-03-23T09:05:06Z</time>
      </trkpt>
      <trkpt lat="44.7386" lon="6.84522">
        <ele>1983.9</ele>
        <time>2026-03-23T09:05:07Z</time>
      </trkpt>
      <trkpt lat="44.7386" lon="6.84522">
        <ele>1983.9</ele>
        <time>2026-03-23T09:05:08Z</time>
      </trkpt>
      <trkpt lat="44.73859" lon="6.84523">
        <ele>1983.4</ele>
        <time>2026-03-23T09:05:09Z</time>
      </trkpt>
      <trkpt lat="44.73859" lon="6.84523">
        <ele>1983.4</ele>
        <time>2026-03-23T09:05:10Z</time>
      </trkpt>
      <trkpt lat="44.73859" lon="6.84524">
        <ele>1983.4</ele>
        <time>2026-03-23T09:05:11Z</time>
      </trkpt>
      <trkpt lat="44.73858" lon="6.84524">
        <ele>1983.4</ele>
        <time>2026-03-23T09:05:12Z</time>
      </trkpt>
      <trkpt lat="44.73858" lon="6.84525">
        <ele>1983.4</ele>
        <time>2026-03-23T09:05:13Z</time>
      </trkpt>
      <trkpt lat="44.73858" lon="6.84525">
        <ele>1983.4</ele>
        <time>2026-03-23T09:05:14Z</time>
      </trkpt>
      <trkpt lat="44.73857" lon="6.84526">
        <ele>1984.4</ele>
        <time>2026-03-23T09:05:15Z</time>
      </trkpt>
      <trkpt lat="44.73857" lon="6.84526">
        <ele>1984.4</ele>
        <time>2026-03-23T09:05:16Z</time>
      </trkpt>
      <trkpt lat="44.73857" lon="6.84527">
        <ele>1984.4</ele>
        <time>2026-03-23T09:05:17Z</time>
      </trkpt>
      <trkpt lat="44.73857" lon="6.84528">
        <ele>1984.4</ele>
        <time>2026-03-23T09:05:18Z</time>
      </trkpt>
      <trkpt lat="44.73856" lon="6.84528">
        <ele>1983.9</ele>
        <time>2026-03-23T09:05:19Z</time>
      </trkpt>
      <trkpt lat="44.73856" lon="6.84529">
        <ele>1983.9</ele>
        <time>2026-03-23T09:05:20Z</time>
      </trkpt>
      <trkpt lat="44.73856" lon="6.8453">
        <ele>1984.9</ele>
        <time>2026-03-23T09:05:21Z</time>
      </trkpt>
      <trkpt lat="44.73856" lon="6.84531">
        <ele>1984.9</ele>
        <time>2026-03-23T09:05:22Z</time>
      </trkpt>
      <trkpt lat="44.73856" lon="6.84531">
        <ele>1984.9</ele>
        <time>2026-03-23T09:05:23Z</time>
      </trkpt>
      <trkpt lat="44.73856" lon="6.84532">
        <ele>1984.9</ele>
        <time>2026-03-23T09:05:24Z</time>
      </trkpt>
      <trkpt lat="44.73856" lon="6.84532">
        <ele>1984.9</ele>
        <time>2026-03-23T09:05:25Z</time>
      </trkpt>
      <trkpt lat="44.73856" lon="6.84533">
        <ele>1984.9</ele>
        <time>2026-03-23T09:05:26Z</time>
      </trkpt>
      <trkpt lat="44.73856" lon="6.84534">
        <ele>1984.9</ele>
        <time>2026-03-23T09:05:27Z</time>
      </trkpt>
      <trkpt lat="44.73855" lon="6.84534">
        <ele>1986</ele>
        <time>2026-03-23T09:05:28Z</time>
      </trkpt>
      <trkpt lat="44.73855" lon="6.84535">
        <ele>1986</ele>
        <time>2026-03-23T09:05:29Z</time>
      </trkpt>
      <trkpt lat="44.73855" lon="6.84536">
        <ele>1986</ele>
        <time>2026-03-23T09:05:30Z</time>
      </trkpt>
      <trkpt lat="44.73855" lon="6.84536">
        <ele>1986</ele>
        <time>2026-03-23T09:05:31Z</time>
      </trkpt>
      <trkpt lat="44.73855" lon="6.84537">
        <ele>1986</ele>
        <time>2026-03-23T09:05:32Z</time>
      </trkpt>
      <trkpt lat="44.73855" lon="6.84538">
        <ele>1986</ele>
        <time>2026-03-23T09:05:33Z</time>
      </trkpt>
      <trkpt lat="44.73854" lon="6.84539">
        <ele>1987.1</ele>
        <time>2026-03-23T09:05:34Z</time>
      </trkpt>
      <trkpt lat="44.73854" lon="6.8454">
        <ele>1987.1</ele>
        <time>2026-03-23T09:05:35Z</time>
      </trkpt>
      <trkpt lat="44.73854" lon="6.84541">
        <ele>1987.1</ele>
        <time>2026-03-23T09:05:36Z</time>
      </trkpt>
      <trkpt lat="44.73854" lon="6.84541">
        <ele>1987.1</ele>
        <time>2026-03-23T09:05:37Z</time>
      </trkpt>
      <trkpt lat="44.73854" lon="6.84541">
        <ele>1987.1</ele>
        <time>2026-03-23T09:05:38Z</time>
      </trkpt>
      <trkpt lat="44.73854" lon="6.84543">
        <ele>1988.2</ele>
        <time>2026-03-23T09:05:39Z</time>
      </trkpt>
      <trkpt lat="44.73854" lon="6.84543">
        <ele>1988.2</ele>
        <time>2026-03-23T09:05:41Z</time>
      </trkpt>
      <trkpt lat="44.73854" lon="6.84544">
        <ele>1988.2</ele>
        <time>2026-03-23T09:05:42Z</time>
      </trkpt>
      <trkpt lat="44.73854" lon="6.84545">
        <ele>1988.2</ele>
        <time>2026-03-23T09:05:43Z</time>
      </trkpt>
      <trkpt lat="44.73854" lon="6.84545">
        <ele>1988.2</ele>
        <time>2026-03-23T09:05:44Z</time>
      </trkpt>
      <trkpt lat="44.73854" lon="6.84546">
        <ele>1988.2</ele>
        <time>2026-03-23T09:05:45Z</time>
      </trkpt>
      <trkpt lat="44.73854" lon="6.84546">
        <ele>1988.2</ele>
        <time>2026-03-23T09:05:46Z</time>
      </trkpt>
      <trkpt lat="44.73853" lon="6.84547">
        <ele>1988.2</ele>
        <time>2026-03-23T09:05:47Z</time>
      </trkpt>
      <trkpt lat="44.73854" lon="6.84548">
        <ele>1989.3</ele>
        <time>2026-03-23T09:05:48Z</time>
      </trkpt>
      <trkpt lat="44.73854" lon="6.84548">
        <ele>1989.3</ele>
        <time>2026-03-23T09:05:49Z</time>
      </trkpt>
      <trkpt lat="44.73854" lon="6.84549">
        <ele>1989.3</ele>
        <time>2026-03-23T09:05:50Z</time>
      </trkpt>
      <trkpt lat="44.73854" lon="6.84549">
        <ele>1989.3</ele>
        <time>2026-03-23T09:05:51Z</time>
      </trkpt>
      <trkpt lat="44.73854" lon="6.8455">
        <ele>1989.3</ele>
        <time>2026-03-23T09:05:52Z</time>
      </trkpt>
      <trkpt lat="44.73853" lon="6.8455">
        <ele>1989.3</ele>
        <time>2026-03-23T09:05:53Z</time>
      </trkpt>
      <trkpt lat="44.73853" lon="6.84551">
        <ele>1989.3</ele>
        <time>2026-03-23T09:05:54Z</time>
      </trkpt>
      <trkpt lat="44.73853" lon="6.84551">
        <ele>1988.7</ele>
        <time>2026-03-23T09:05:55Z</time>
      </trkpt>
      <trkpt lat="44.73853" lon="6.84552">
        <ele>1989.8</ele>
        <time>2026-03-23T09:05:56Z</time>
      </trkpt>
      <trkpt lat="44.73852" lon="6.84552">
        <ele>1989.8</ele>
        <time>2026-03-23T09:05:57Z</time>
      </trkpt>
      <trkpt lat="44.73852" lon="6.84553">
        <ele>1989.8</ele>
        <time>2026-03-23T09:05:58Z</time>
      </trkpt>
      <trkpt lat="44.73852" lon="6.84554">
        <ele>1989.8</ele>
        <time>2026-03-23T09:05:59Z</time>
      </trkpt>
      <trkpt lat="44.73851" lon="6.84554">
        <ele>1989.8</ele>
        <time>2026-03-23T09:06:00Z</time>
      </trkpt>
      <trkpt lat="44.73851" lon="6.84555">
        <ele>1989.8</ele>
        <time>2026-03-23T09:06:01Z</time>
      </trkpt>
      <trkpt lat="44.7385" lon="6.84556">
        <ele>1990.9</ele>
        <time>2026-03-23T09:06:02Z</time>
      </trkpt>
      <trkpt lat="44.7385" lon="6.84556">
        <ele>1990.4</ele>
        <time>2026-03-23T09:06:03Z</time>
      </trkpt>
      <trkpt lat="44.7385" lon="6.84557">
        <ele>1990.4</ele>
        <time>2026-03-23T09:06:04Z</time>
      </trkpt>
      <trkpt lat="44.7385" lon="6.84558">
        <ele>1990.4</ele>
        <time>2026-03-23T09:06:05Z</time>
      </trkpt>
      <trkpt lat="44.7385" lon="6.84559">
        <ele>1990.4</ele>
        <time>2026-03-23T09:06:06Z</time>
      </trkpt>
      <trkpt lat="44.73849" lon="6.8456">
        <ele>1990.4</ele>
        <time>2026-03-23T09:06:07Z</time>
      </trkpt>
      <trkpt lat="44.73849" lon="6.8456">
        <ele>1991.4</ele>
        <time>2026-03-23T09:06:08Z</time>
      </trkpt>
      <trkpt lat="44.73849" lon="6.84561">
        <ele>1991.4</ele>
        <time>2026-03-23T09:06:09Z</time>
      </trkpt>
      <trkpt lat="44.73849" lon="6.84562">
        <ele>1991.4</ele>
        <time>2026-03-23T09:06:10Z</time>
      </trkpt>
      <trkpt lat="44.73849" lon="6.84563">
        <ele>1991.4</ele>
        <time>2026-03-23T09:06:11Z</time>
      </trkpt>
      <trkpt lat="44.73848" lon="6.84564">
        <ele>1991.4</ele>
        <time>2026-03-23T09:06:12Z</time>
      </trkpt>
      <trkpt lat="44.73848" lon="6.84564">
        <ele>1992.4</ele>
        <time>2026-03-23T09:06:13Z</time>
      </trkpt>
      <trkpt lat="44.73848" lon="6.84565">
        <ele>1992.4</ele>
        <time>2026-03-23T09:06:14Z</time>
      </trkpt>
      <trkpt lat="44.73848" lon="6.84565">
        <ele>1992.4</ele>
        <time>2026-03-23T09:06:15Z</time>
      </trkpt>
      <trkpt lat="44.73848" lon="6.84566">
        <ele>1992.3</ele>
        <time>2026-03-23T09:06:16Z</time>
      </trkpt>
      <trkpt lat="44.73848" lon="6.84566">
        <ele>1992.3</ele>
        <time>2026-03-23T09:06:17Z</time>
      </trkpt>
      <trkpt lat="44.73848" lon="6.84567">
        <ele>1992.3</ele>
        <time>2026-03-23T09:06:18Z</time>
      </trkpt>
      <trkpt lat="44.73848" lon="6.84568">
        <ele>1992.3</ele>
        <time>2026-03-23T09:06:19Z</time>
      </trkpt>
      <trkpt lat="44.73848" lon="6.84568">
        <ele>1992.3</ele>
        <time>2026-03-23T09:06:20Z</time>
      </trkpt>
      <trkpt lat="44.73848" lon="6.84568">
        <ele>1992.3</ele>
        <time>2026-03-23T09:06:21Z</time>
      </trkpt>
      <trkpt lat="44.73849" lon="6.84568">
        <ele>1992.3</ele>
        <time>2026-03-23T09:06:22Z</time>
      </trkpt>
      <trkpt lat="44.73849" lon="6.84569">
        <ele>1993.3</ele>
        <time>2026-03-23T09:06:23Z</time>
      </trkpt>
      <trkpt lat="44.7385" lon="6.84569">
        <ele>1993.3</ele>
        <time>2026-03-23T09:06:24Z</time>
      </trkpt>
      <trkpt lat="44.73851" lon="6.8457">
        <ele>1993.8</ele>
        <time>2026-03-23T09:06:25Z</time>
      </trkpt>
      <trkpt lat="44.73852" lon="6.8457">
        <ele>1993.8</ele>
        <time>2026-03-23T09:06:26Z</time>
      </trkpt>
      <trkpt lat="44.73853" lon="6.8457">
        <ele>1993.8</ele>
        <time>2026-03-23T09:06:27Z</time>
      </trkpt>
      <trkpt lat="44.73853" lon="6.8457">
        <ele>1993.8</ele>
        <time>2026-03-23T09:06:28Z</time>
      </trkpt>
      <trkpt lat="44.73854" lon="6.8457">
        <ele>1994.4</ele>
        <time>2026-03-23T09:06:29Z</time>
      </trkpt>
      <trkpt lat="44.73855" lon="6.8457">
        <ele>1994.4</ele>
        <time>2026-03-23T09:06:30Z</time>
      </trkpt>
      <trkpt lat="44.73855" lon="6.84569">
        <ele>1994.4</ele>
        <time>2026-03-23T09:06:31Z</time>
      </trkpt>
      <trkpt lat="44.73855" lon="6.84569">
        <ele>1994.4</ele>
        <time>2026-03-23T09:06:32Z</time>
      </trkpt>
      <trkpt lat="44.73856" lon="6.84569">
        <ele>1994.4</ele>
        <time>2026-03-23T09:06:33Z</time>
      </trkpt>
      <trkpt lat="44.73857" lon="6.84569">
        <ele>1994.9</ele>
        <time>2026-03-23T09:06:34Z</time>
      </trkpt>
      <trkpt lat="44.73858" lon="6.84568">
        <ele>1993.9</ele>
        <time>2026-03-23T09:06:35Z</time>
      </trkpt>
      <trkpt lat="44.73859" lon="6.84568">
        <ele>1993.9</ele>
        <time>2026-03-23T09:06:36Z</time>
      </trkpt>
      <trkpt lat="44.73859" lon="6.84568">
        <ele>1993.9</ele>
        <time>2026-03-23T09:06:37Z</time>
      </trkpt>
      <trkpt lat="44.7386" lon="6.84568">
        <ele>1994.4</ele>
        <time>2026-03-23T09:06:38Z</time>
      </trkpt>
      <trkpt lat="44.73861" lon="6.84568">
        <ele>1994.4</ele>
        <time>2026-03-23T09:06:39Z</time>
      </trkpt>
      <trkpt lat="44.73861" lon="6.84568">
        <ele>1994.4</ele>
        <time>2026-03-23T09:06:40Z</time>
      </trkpt>
      <trkpt lat="44.73862" lon="6.84568">
        <ele>1994.4</ele>
        <time>2026-03-23T09:06:41Z</time>
      </trkpt>
      <trkpt lat="44.73863" lon="6.84568">
        <ele>1995</ele>
        <time>2026-03-23T09:06:42Z</time>
      </trkpt>
      <trkpt lat="44.73863" lon="6.84567">
        <ele>1995</ele>
        <time>2026-03-23T09:06:43Z</time>
      </trkpt>
      <trkpt lat="44.73865" lon="6.84567">
        <ele>1995</ele>
        <time>2026-03-23T09:06:44Z</time>
      </trkpt>
      <trkpt lat="44.73865" lon="6.84567">
        <ele>1995</ele>
        <time>2026-03-23T09:06:46Z</time>
      </trkpt>
      <trkpt lat="44.73866" lon="6.84567">
        <ele>1995.4</ele>
        <time>2026-03-23T09:06:47Z</time>
      </trkpt>
      <trkpt lat="44.73866" lon="6.84568">
        <ele>1995.4</ele>
        <time>2026-03-23T09:06:48Z</time>
      </trkpt>
      <trkpt lat="44.73867" lon="6.84568">
        <ele>1995.4</ele>
        <time>2026-03-23T09:06:49Z</time>
      </trkpt>
      <trkpt lat="44.73866" lon="6.84569">
        <ele>1996.4</ele>
        <time>2026-03-23T09:06:50Z</time>
      </trkpt>
      <trkpt lat="44.73866" lon="6.84569">
        <ele>1996.4</ele>
        <time>2026-03-23T09:06:51Z</time>
      </trkpt>
      <trkpt lat="44.73866" lon="6.8457">
        <ele>1996.4</ele>
        <time>2026-03-23T09:06:52Z</time>
      </trkpt>
      <trkpt lat="44.73866" lon="6.84571">
        <ele>1996.4</ele>
        <time>2026-03-23T09:06:53Z</time>
      </trkpt>
      <trkpt lat="44.73866" lon="6.84572">
        <ele>1996.4</ele>
        <time>2026-03-23T09:06:54Z</time>
      </trkpt>
      <trkpt lat="44.73866" lon="6.84572">
        <ele>1995.9</ele>
        <time>2026-03-23T09:06:55Z</time>
      </trkpt>
      <trkpt lat="44.73866" lon="6.84573">
        <ele>1997</ele>
        <time>2026-03-23T09:06:56Z</time>
      </trkpt>
      <trkpt lat="44.73865" lon="6.84574">
        <ele>1997</ele>
        <time>2026-03-23T09:06:57Z</time>
      </trkpt>
      <trkpt lat="44.73865" lon="6.84574">
        <ele>1997</ele>
        <time>2026-03-23T09:06:58Z</time>
      </trkpt>
      <trkpt lat="44.73865" lon="6.84575">
        <ele>1997</ele>
        <time>2026-03-23T09:06:59Z</time>
      </trkpt>
      <trkpt lat="44.73865" lon="6.84575">
        <ele>1997</ele>
        <time>2026-03-23T09:07:00Z</time>
      </trkpt>
      <trkpt lat="44.73865" lon="6.84576">
        <ele>1997</ele>
        <time>2026-03-23T09:07:01Z</time>
      </trkpt>
      <trkpt lat="44.73865" lon="6.84576">
        <ele>1997</ele>
        <time>2026-03-23T09:07:02Z</time>
      </trkpt>
      <trkpt lat="44.73865" lon="6.84577">
        <ele>1997</ele>
        <time>2026-03-23T09:07:03Z</time>
      </trkpt>
      <trkpt lat="44.73865" lon="6.84578">
        <ele>1998.1</ele>
        <time>2026-03-23T09:07:04Z</time>
      </trkpt>
      <trkpt lat="44.73864" lon="6.84578">
        <ele>1998.1</ele>
        <time>2026-03-23T09:07:05Z</time>
      </trkpt>
      <trkpt lat="44.73864" lon="6.84579">
        <ele>1998.1</ele>
        <time>2026-03-23T09:07:06Z</time>
      </trkpt>
      <trkpt lat="44.73864" lon="6.8458">
        <ele>1998.1</ele>
        <time>2026-03-23T09:07:07Z</time>
      </trkpt>
      <trkpt lat="44.73864" lon="6.8458">
        <ele>1998</ele>
        <time>2026-03-23T09:07:08Z</time>
      </trkpt>
      <trkpt lat="44.73863" lon="6.84581">
        <ele>1998</ele>
        <time>2026-03-23T09:07:09Z</time>
      </trkpt>
      <trkpt lat="44.73863" lon="6.84582">
        <ele>1999.2</ele>
        <time>2026-03-23T09:07:10Z</time>
      </trkpt>
      <trkpt lat="44.73863" lon="6.84583">
        <ele>1999.2</ele>
        <time>2026-03-23T09:07:11Z</time>
      </trkpt>
      <trkpt lat="44.73862" lon="6.84584">
        <ele>1998.7</ele>
        <time>2026-03-23T09:07:12Z</time>
      </trkpt>
      <trkpt lat="44.73862" lon="6.84584">
        <ele>1998.7</ele>
        <time>2026-03-23T09:07:13Z</time>
      </trkpt>
      <trkpt lat="44.73862" lon="6.84585">
        <ele>1998.7</ele>
        <time>2026-03-23T09:07:14Z</time>
      </trkpt>
      <trkpt lat="44.73862" lon="6.84586">
        <ele>1999.9</ele>
        <time>2026-03-23T09:07:15Z</time>
      </trkpt>
      <trkpt lat="44.73861" lon="6.84587">
        <ele>1999.9</ele>
        <time>2026-03-23T09:07:16Z</time>
      </trkpt>
      <trkpt lat="44.73861" lon="6.84588">
        <ele>1999.9</ele>
        <time>2026-03-23T09:07:17Z</time>
      </trkpt>
      <trkpt lat="44.73861" lon="6.84589">
        <ele>1999.9</ele>
        <time>2026-03-23T09:07:18Z</time>
      </trkpt>
      <trkpt lat="44.73861" lon="6.8459">
        <ele>2001.1</ele>
        <time>2026-03-23T09:07:19Z</time>
      </trkpt>
      <trkpt lat="44.7386" lon="6.84591">
        <ele>2001.1</ele>
        <time>2026-03-23T09:07:20Z</time>
      </trkpt>
      <trkpt lat="44.7386" lon="6.84591">
        <ele>2001.1</ele>
        <time>2026-03-23T09:07:21Z</time>
      </trkpt>
      <trkpt lat="44.73859" lon="6.84593">
        <ele>2000.6</ele>
        <time>2026-03-23T09:07:22Z</time>
      </trkpt>
      <trkpt lat="44.73859" lon="6.84594">
        <ele>2000.6</ele>
        <time>2026-03-23T09:07:23Z</time>
      </trkpt>
      <trkpt lat="44.73858" lon="6.84594">
        <ele>2001.7</ele>
        <time>2026-03-23T09:07:25Z</time>
      </trkpt>
      <trkpt lat="44.73858" lon="6.84595">
        <ele>2001.7</ele>
        <time>2026-03-23T09:07:26Z</time>
      </trkpt>
      <trkpt lat="44.73858" lon="6.84595">
        <ele>2001.7</ele>
        <time>2026-03-23T09:07:27Z</time>
      </trkpt>
      <trkpt lat="44.73857" lon="6.84596">
        <ele>2001.7</ele>
        <time>2026-03-23T09:07:28Z</time>
      </trkpt>
      <trkpt lat="44.73857" lon="6.84597">
        <ele>2001.7</ele>
        <time>2026-03-23T09:07:30Z</time>
      </trkpt>
      <trkpt lat="44.73856" lon="6.84598">
        <ele>2001.3</ele>
        <time>2026-03-23T09:07:32Z</time>
      </trkpt>
      <trkpt lat="44.73856" lon="6.84599">
        <ele>2002.4</ele>
        <time>2026-03-23T09:07:33Z</time>
      </trkpt>
      <trkpt lat="44.73856" lon="6.84599">
        <ele>2002.4</ele>
        <time>2026-03-23T09:07:34Z</time>
      </trkpt>
      <trkpt lat="44.73856" lon="6.84599">
        <ele>2002.4</ele>
        <time>2026-03-23T09:07:35Z</time>
      </trkpt>
      <trkpt lat="44.73856" lon="6.846">
        <ele>2002.4</ele>
        <time>2026-03-23T09:07:36Z</time>
      </trkpt>
      <trkpt lat="44.73856" lon="6.84601">
        <ele>2002.4</ele>
        <time>2026-03-23T09:07:38Z</time>
      </trkpt>
      <trkpt lat="44.73856" lon="6.84601">
        <ele>2002.4</ele>
        <time>2026-03-23T09:07:39Z</time>
      </trkpt>
      <trkpt lat="44.73855" lon="6.84602">
        <ele>2002.4</ele>
        <time>2026-03-23T09:07:40Z</time>
      </trkpt>
      <trkpt lat="44.73855" lon="6.84602">
        <ele>2002.4</ele>
        <time>2026-03-23T09:07:41Z</time>
      </trkpt>
      <trkpt lat="44.73855" lon="6.84603">
        <ele>2003.5</ele>
        <time>2026-03-23T09:07:42Z</time>
      </trkpt>
      <trkpt lat="44.73855" lon="6.84603">
        <ele>2003.5</ele>
        <time>2026-03-23T09:07:43Z</time>
      </trkpt>
      <trkpt lat="44.73855" lon="6.84603">
        <ele>2003.5</ele>
        <time>2026-03-23T09:07:44Z</time>
      </trkpt>
      <trkpt lat="44.73854" lon="6.84604">
        <ele>2003.5</ele>
        <time>2026-03-23T09:07:45Z</time>
      </trkpt>
      <trkpt lat="44.73854" lon="6.84605">
        <ele>2003.5</ele>
        <time>2026-03-23T09:07:46Z</time>
      </trkpt>
      <trkpt lat="44.73853" lon="6.84606">
        <ele>2003.5</ele>
        <time>2026-03-23T09:07:47Z</time>
      </trkpt>
      <trkpt lat="44.73853" lon="6.84606">
        <ele>2003.1</ele>
        <time>2026-03-23T09:07:48Z</time>
      </trkpt>
      <trkpt lat="44.73853" lon="6.84607">
        <ele>2003.1</ele>
        <time>2026-03-23T09:07:49Z</time>
      </trkpt>
      <trkpt lat="44.73852" lon="6.84607">
        <ele>2003.1</ele>
        <time>2026-03-23T09:07:51Z</time>
      </trkpt>
      <trkpt lat="44.73852" lon="6.84608">
        <ele>2004.2</ele>
        <time>2026-03-23T09:07:52Z</time>
      </trkpt>
      <trkpt lat="44.73852" lon="6.84608">
        <ele>2004.2</ele>
        <time>2026-03-23T09:07:53Z</time>
      </trkpt>
      <trkpt lat="44.73851" lon="6.84609">
        <ele>2004.2</ele>
        <time>2026-03-23T09:07:54Z</time>
      </trkpt>
      <trkpt lat="44.73851" lon="6.84609">
        <ele>2004.2</ele>
        <time>2026-03-23T09:07:55Z</time>
      </trkpt>
      <trkpt lat="44.73851" lon="6.8461">
        <ele>2004.2</ele>
        <time>2026-03-23T09:07:56Z</time>
      </trkpt>
      <trkpt lat="44.73851" lon="6.8461">
        <ele>2004.2</ele>
        <time>2026-03-23T09:07:57Z</time>
      </trkpt>
      <trkpt lat="44.7385" lon="6.84611">
        <ele>2003.8</ele>
        <time>2026-03-23T09:07:58Z</time>
      </trkpt>
      <trkpt lat="44.7385" lon="6.84611">
        <ele>2003.8</ele>
        <time>2026-03-23T09:07:59Z</time>
      </trkpt>
      <trkpt lat="44.7385" lon="6.84612">
        <ele>2004.9</ele>
        <time>2026-03-23T09:08:00Z</time>
      </trkpt>
      <trkpt lat="44.7385" lon="6.84612">
        <ele>2004.9</ele>
        <time>2026-03-23T09:08:01Z</time>
      </trkpt>
      <trkpt lat="44.73849" lon="6.84613">
        <ele>2004.9</ele>
        <time>2026-03-23T09:08:03Z</time>
      </trkpt>
      <trkpt lat="44.73849" lon="6.84613">
        <ele>2004.9</ele>
        <time>2026-03-23T09:08:04Z</time>
      </trkpt>
      <trkpt lat="44.73849" lon="6.84613">
        <ele>2004.9</ele>
        <time>2026-03-23T09:08:05Z</time>
      </trkpt>
      <trkpt lat="44.73849" lon="6.84614">
        <ele>2004.9</ele>
        <time>2026-03-23T09:08:06Z</time>
      </trkpt>
      <trkpt lat="44.73849" lon="6.84614">
        <ele>2004.9</ele>
        <time>2026-03-23T09:08:07Z</time>
      </trkpt>
      <trkpt lat="44.7385" lon="6.84614">
        <ele>2004.9</ele>
        <time>2026-03-23T09:08:08Z</time>
      </trkpt>
      <trkpt lat="44.7385" lon="6.84615">
        <ele>2004.9</ele>
        <time>2026-03-23T09:08:09Z</time>
      </trkpt>
      <trkpt lat="44.7385" lon="6.84615">
        <ele>2004.9</ele>
        <time>2026-03-23T09:08:10Z</time>
      </trkpt>
      <trkpt lat="44.7385" lon="6.84615">
        <ele>2004.9</ele>
        <time>2026-03-23T09:08:11Z</time>
      </trkpt>
      <trkpt lat="44.7385" lon="6.84616">
        <ele>2006.1</ele>
        <time>2026-03-23T09:08:12Z</time>
      </trkpt>
      <trkpt lat="44.73851" lon="6.84616">
        <ele>2006.4</ele>
        <time>2026-03-23T09:08:13Z</time>
      </trkpt>
      <trkpt lat="44.73851" lon="6.84617">
        <ele>2006.4</ele>
        <time>2026-03-23T09:08:14Z</time>
      </trkpt>
      <trkpt lat="44.73851" lon="6.84617">
        <ele>2006.4</ele>
        <time>2026-03-23T09:08:15Z</time>
      </trkpt>
      <trkpt lat="44.73851" lon="6.84617">
        <ele>2006.4</ele>
        <time>2026-03-23T09:08:16Z</time>
      </trkpt>
      <trkpt lat="44.73851" lon="6.84617">
        <ele>2006.4</ele>
        <time>2026-03-23T09:08:17Z</time>
      </trkpt>
      <trkpt lat="44.73852" lon="6.84617">
        <ele>2006.4</ele>
        <time>2026-03-23T09:08:18Z</time>
      </trkpt>
      <trkpt lat="44.73852" lon="6.84618">
        <ele>2006.4</ele>
        <time>2026-03-23T09:08:19Z</time>
      </trkpt>
      <trkpt lat="44.73852" lon="6.84618">
        <ele>2006.4</ele>
        <time>2026-03-23T09:08:20Z</time>
      </trkpt>
      <trkpt lat="44.73852" lon="6.84618">
        <ele>2006.4</ele>
        <time>2026-03-23T09:08:21Z</time>
      </trkpt>
      <trkpt lat="44.73852" lon="6.84619">
        <ele>2006.4</ele>
        <time>2026-03-23T09:08:22Z</time>
      </trkpt>
      <trkpt lat="44.73853" lon="6.84621">
        <ele>2007.6</ele>
        <time>2026-03-23T09:08:23Z</time>
      </trkpt>
      <trkpt lat="44.73853" lon="6.84622">
        <ele>2007.6</ele>
        <time>2026-03-23T09:08:24Z</time>
      </trkpt>
      <trkpt lat="44.73853" lon="6.84623">
        <ele>2007.6</ele>
        <time>2026-03-23T09:08:25Z</time>
      </trkpt>
      <trkpt lat="44.73854" lon="6.84624">
        <ele>2008</ele>
        <time>2026-03-23T09:08:26Z</time>
      </trkpt>
      <trkpt lat="44.73854" lon="6.84625">
        <ele>2009.1</ele>
        <time>2026-03-23T09:08:27Z</time>
      </trkpt>
      <trkpt lat="44.73854" lon="6.84626">
        <ele>2009.1</ele>
        <time>2026-03-23T09:08:28Z</time>
      </trkpt>
      <trkpt lat="44.73854" lon="6.84628">
        <ele>2009.1</ele>
        <time>2026-03-23T09:08:29Z</time>
      </trkpt>
      <trkpt lat="44.73853" lon="6.8463">
        <ele>2010.4</ele>
        <time>2026-03-23T09:08:31Z</time>
      </trkpt>
      <trkpt lat="44.73853" lon="6.84631">
        <ele>2010.4</ele>
        <time>2026-03-23T09:08:32Z</time>
      </trkpt>
      <trkpt lat="44.73853" lon="6.84631">
        <ele>2010.4</ele>
        <time>2026-03-23T09:08:33Z</time>
      </trkpt>
      <trkpt lat="44.73853" lon="6.84633">
        <ele>2010</ele>
        <time>2026-03-23T09:08:34Z</time>
      </trkpt>
      <trkpt lat="44.73853" lon="6.84633">
        <ele>2011.3</ele>
        <time>2026-03-23T09:08:35Z</time>
      </trkpt>
      <trkpt lat="44.73853" lon="6.84633">
        <ele>2011.3</ele>
        <time>2026-03-23T09:08:36Z</time>
      </trkpt>
      <trkpt lat="44.73852" lon="6.84634">
        <ele>2011.3</ele>
        <time>2026-03-23T09:08:37Z</time>
      </trkpt>
      <trkpt lat="44.73852" lon="6.84634">
        <ele>2011.3</ele>
        <time>2026-03-23T09:08:38Z</time>
      </trkpt>
      <trkpt lat="44.73852" lon="6.84634">
        <ele>2011.3</ele>
        <time>2026-03-23T09:08:39Z</time>
      </trkpt>
      <trkpt lat="44.73852" lon="6.84634">
        <ele>2011.3</ele>
        <time>2026-03-23T09:08:40Z</time>
      </trkpt>
      <trkpt lat="44.73852" lon="6.84633">
        <ele>2011.3</ele>
        <time>2026-03-23T09:08:41Z</time>
      </trkpt>
      <trkpt lat="44.73852" lon="6.84633">
        <ele>2010</ele>
        <time>2026-03-23T09:08:42Z</time>
      </trkpt>
      <trkpt lat="44.73851" lon="6.84633">
        <ele>2010</ele>
        <time>2026-03-23T09:08:43Z</time>
      </trkpt>
      <trkpt lat="44.73851" lon="6.84633">
        <ele>2010</ele>
        <time>2026-03-23T09:08:44Z</time>
      </trkpt>
      <trkpt lat="44.73851" lon="6.84633">
        <ele>2011.3</ele>
        <time>2026-03-23T09:08:45Z</time>
      </trkpt>
      <trkpt lat="44.73851" lon="6.84633">
        <ele>2011.3</ele>
        <time>2026-03-23T09:08:47Z</time>
      </trkpt>
      <trkpt lat="44.73851" lon="6.84633">
        <ele>2011.3</ele>
        <time>2026-03-23T09:08:48Z</time>
      </trkpt>
      <trkpt lat="44.73851" lon="6.84633">
        <ele>2011.2</ele>
        <time>2026-03-23T09:08:49Z</time>
      </trkpt>
      <trkpt lat="44.73851" lon="6.84633">
        <ele>2011.2</ele>
        <time>2026-03-23T09:08:50Z</time>
      </trkpt>
      <trkpt lat="44.73851" lon="6.84633">
        <ele>2011.2</ele>
        <time>2026-03-23T09:08:51Z</time>
      </trkpt>
      <trkpt lat="44.73851" lon="6.84634">
        <ele>2011.2</ele>
        <time>2026-03-23T09:08:52Z</time>
      </trkpt>
      <trkpt lat="44.73851" lon="6.84634">
        <ele>2011.2</ele>
        <time>2026-03-23T09:08:53Z</time>
      </trkpt>
      <trkpt lat="44.73851" lon="6.84635">
        <ele>2011.2</ele>
        <time>2026-03-23T09:08:54Z</time>
      </trkpt>
      <trkpt lat="44.73851" lon="6.84635">
        <ele>2011.2</ele>
        <time>2026-03-23T09:08:55Z</time>
      </trkpt>
      <trkpt lat="44.73851" lon="6.84636">
        <ele>2011.2</ele>
        <time>2026-03-23T09:08:56Z</time>
      </trkpt>
      <trkpt lat="44.73851" lon="6.84637">
        <ele>2011.2</ele>
        <time>2026-03-23T09:08:57Z</time>
      </trkpt>
      <trkpt lat="44.73852" lon="6.84638">
        <ele>2012.5</ele>
        <time>2026-03-23T09:08:58Z</time>
      </trkpt>
      <trkpt lat="44.73852" lon="6.84639">
        <ele>2012.5</ele>
        <time>2026-03-23T09:08:59Z</time>
      </trkpt>
      <trkpt lat="44.73852" lon="6.8464">
        <ele>2012.5</ele>
        <time>2026-03-23T09:09:00Z</time>
      </trkpt>
      <trkpt lat="44.73852" lon="6.84641">
        <ele>2012.5</ele>
        <time>2026-03-23T09:09:01Z</time>
      </trkpt>
      <trkpt lat="44.73852" lon="6.84642">
        <ele>2013.7</ele>
        <time>2026-03-23T09:09:02Z</time>
      </trkpt>
      <trkpt lat="44.73852" lon="6.84643">
        <ele>2013.7</ele>
        <time>2026-03-23T09:09:03Z</time>
      </trkpt>
      <trkpt lat="44.73852" lon="6.84644">
        <ele>2013.7</ele>
        <time>2026-03-23T09:09:04Z</time>
      </trkpt>
      <trkpt lat="44.73852" lon="6.84645">
        <ele>2013.7</ele>
        <time>2026-03-23T09:09:05Z</time>
      </trkpt>
      <trkpt lat="44.73851" lon="6.84646">
        <ele>2014.9</ele>
        <time>2026-03-23T09:09:06Z</time>
      </trkpt>
      <trkpt lat="44.73851" lon="6.84647">
        <ele>2014.9</ele>
        <time>2026-03-23T09:09:07Z</time>
      </trkpt>
      <trkpt lat="44.73851" lon="6.84648">
        <ele>2014.9</ele>
        <time>2026-03-23T09:09:08Z</time>
      </trkpt>
      <trkpt lat="44.73851" lon="6.84649">
        <ele>2014.9</ele>
        <time>2026-03-23T09:09:09Z</time>
      </trkpt>
      <trkpt lat="44.73851" lon="6.8465">
        <ele>2016</ele>
        <time>2026-03-23T09:09:10Z</time>
      </trkpt>
      <trkpt lat="44.73851" lon="6.84652">
        <ele>2016</ele>
        <time>2026-03-23T09:09:11Z</time>
      </trkpt>
      <trkpt lat="44.73851" lon="6.84653">
        <ele>2016</ele>
        <time>2026-03-23T09:09:12Z</time>
      </trkpt>
      <trkpt lat="44.73851" lon="6.84653">
        <ele>2016</ele>
        <time>2026-03-23T09:09:14Z</time>
      </trkpt>
      <trkpt lat="44.73851" lon="6.84653">
        <ele>2016</ele>
        <time>2026-03-23T09:09:15Z</time>
      </trkpt>
      <trkpt lat="44.73851" lon="6.84653">
        <ele>2016</ele>
        <time>2026-03-23T09:09:16Z</time>
      </trkpt>
      <trkpt lat="44.73852" lon="6.84652">
        <ele>2016</ele>
        <time>2026-03-23T09:09:17Z</time>
      </trkpt>
      <trkpt lat="44.73852" lon="6.84652">
        <ele>2016</ele>
        <time>2026-03-23T09:09:18Z</time>
      </trkpt>
      <trkpt lat="44.73852" lon="6.84652">
        <ele>2016</ele>
        <time>2026-03-23T09:09:19Z</time>
      </trkpt>
      <trkpt lat="44.73853" lon="6.84652">
        <ele>2016</ele>
        <time>2026-03-23T09:09:20Z</time>
      </trkpt>
      <trkpt lat="44.73853" lon="6.84651">
        <ele>2016</ele>
        <time>2026-03-23T09:09:21Z</time>
      </trkpt>
      <trkpt lat="44.73853" lon="6.84651">
        <ele>2016.3</ele>
        <time>2026-03-23T09:09:22Z</time>
      </trkpt>
      <trkpt lat="44.73854" lon="6.84651">
        <ele>2016.3</ele>
        <time>2026-03-23T09:09:23Z</time>
      </trkpt>
      <trkpt lat="44.73854" lon="6.84651">
        <ele>2016.3</ele>
        <time>2026-03-23T09:09:24Z</time>
      </trkpt>
      <trkpt lat="44.73854" lon="6.84651">
        <ele>2016.3</ele>
        <time>2026-03-23T09:09:25Z</time>
      </trkpt>
      <trkpt lat="44.73855" lon="6.84651">
        <ele>2016.3</ele>
        <time>2026-03-23T09:09:26Z</time>
      </trkpt>
      <trkpt lat="44.73855" lon="6.84651">
        <ele>2016.3</ele>
        <time>2026-03-23T09:09:27Z</time>
      </trkpt>
      <trkpt lat="44.73856" lon="6.84651">
        <ele>2016.3</ele>
        <time>2026-03-23T09:09:28Z</time>
      </trkpt>
      <trkpt lat="44.73856" lon="6.84652">
        <ele>2016.3</ele>
        <time>2026-03-23T09:09:29Z</time>
      </trkpt>
      <trkpt lat="44.73857" lon="6.84651">
        <ele>2016.6</ele>
        <time>2026-03-23T09:09:30Z</time>
      </trkpt>
      <trkpt lat="44.73857" lon="6.84651">
        <ele>2016.6</ele>
        <time>2026-03-23T09:09:31Z</time>
      </trkpt>
      <trkpt lat="44.73857" lon="6.84651">
        <ele>2016.6</ele>
        <time>2026-03-23T09:09:32Z</time>
      </trkpt>
      <trkpt lat="44.73858" lon="6.84651">
        <ele>2016.6</ele>
        <time>2026-03-23T09:09:33Z</time>
      </trkpt>
      <trkpt lat="44.73858" lon="6.8465">
        <ele>2016.6</ele>
        <time>2026-03-23T09:09:34Z</time>
      </trkpt>
      <trkpt lat="44.73859" lon="6.8465">
        <ele>2016.6</ele>
        <time>2026-03-23T09:09:36Z</time>
      </trkpt>
      <trkpt lat="44.7386" lon="6.8465">
        <ele>2015.8</ele>
        <time>2026-03-23T09:09:37Z</time>
      </trkpt>
      <trkpt lat="44.73861" lon="6.84649">
        <ele>2015.8</ele>
        <time>2026-03-23T09:09:38Z</time>
      </trkpt>
      <trkpt lat="44.73861" lon="6.84649">
        <ele>2015.8</ele>
        <time>2026-03-23T09:09:39Z</time>
      </trkpt>
      <trkpt lat="44.73862" lon="6.84649">
        <ele>2015.8</ele>
        <time>2026-03-23T09:09:40Z</time>
      </trkpt>
      <trkpt lat="44.73863" lon="6.84649">
        <ele>2016.1</ele>
        <time>2026-03-23T09:09:41Z</time>
      </trkpt>
      <trkpt lat="44.73863" lon="6.84648">
        <ele>2016.1</ele>
        <time>2026-03-23T09:09:42Z</time>
      </trkpt>
      <trkpt lat="44.73864" lon="6.84647">
        <ele>2016.1</ele>
        <time>2026-03-23T09:09:43Z</time>
      </trkpt>
      <trkpt lat="44.73865" lon="6.84647">
        <ele>2016.1</ele>
        <time>2026-03-23T09:09:44Z</time>
      </trkpt>
      <trkpt lat="44.73865" lon="6.84647">
        <ele>2016.1</ele>
        <time>2026-03-23T09:09:45Z</time>
      </trkpt>
      <trkpt lat="44.73867" lon="6.84647">
        <ele>2016.4</ele>
        <time>2026-03-23T09:09:46Z</time>
      </trkpt>
      <trkpt lat="44.73867" lon="6.84646">
        <ele>2016.4</ele>
        <time>2026-03-23T09:09:47Z</time>
      </trkpt>
      <trkpt lat="44.73868" lon="6.84646">
        <ele>2016.4</ele>
        <time>2026-03-23T09:09:48Z</time>
      </trkpt>
      <trkpt lat="44.73869" lon="6.84646">
        <ele>2016.6</ele>
        <time>2026-03-23T09:09:49Z</time>
      </trkpt>
      <trkpt lat="44.73872" lon="6.84646">
        <ele>2016.6</ele>
        <time>2026-03-23T09:09:50Z</time>
      </trkpt>
      <trkpt lat="44.73872" lon="6.84646">
        <ele>2016.9</ele>
        <time>2026-03-23T09:09:51Z</time>
      </trkpt>
      <trkpt lat="44.73873" lon="6.84646">
        <ele>2016.9</ele>
        <time>2026-03-23T09:09:52Z</time>
      </trkpt>
      <trkpt lat="44.73876" lon="6.84645">
        <ele>2016</ele>
        <time>2026-03-23T09:09:53Z</time>
      </trkpt>
      <trkpt lat="44.73877" lon="6.84644">
        <ele>2016</ele>
        <time>2026-03-23T09:09:54Z</time>
      </trkpt>
      <trkpt lat="44.73879" lon="6.84643">
        <ele>2016.2</ele>
        <time>2026-03-23T09:09:55Z</time>
      </trkpt>
      <trkpt lat="44.7388" lon="6.84642">
        <ele>2016.2</ele>
        <time>2026-03-23T09:09:56Z</time>
      </trkpt>
      <trkpt lat="44.73881" lon="6.84642">
        <ele>2016.5</ele>
        <time>2026-03-23T09:09:57Z</time>
      </trkpt>
      <trkpt lat="44.73881" lon="6.84642">
        <ele>2016.5</ele>
        <time>2026-03-23T09:09:58Z</time>
      </trkpt>
      <trkpt lat="44.73883" lon="6.84641">
        <ele>2015.3</ele>
        <time>2026-03-23T09:09:59Z</time>
      </trkpt>
      <trkpt lat="44.73883" lon="6.84641">
        <ele>2015.3</ele>
        <time>2026-03-23T09:10:00Z</time>
      </trkpt>
      <trkpt lat="44.73884" lon="6.8464">
        <ele>2015.6</ele>
        <time>2026-03-23T09:10:01Z</time>
      </trkpt>
      <trkpt lat="44.73885" lon="6.8464">
        <ele>2015.6</ele>
        <time>2026-03-23T09:10:02Z</time>
      </trkpt>
      <trkpt lat="44.73885" lon="6.84639">
        <ele>2015.6</ele>
        <time>2026-03-23T09:10:03Z</time>
      </trkpt>
      <trkpt lat="44.73886" lon="6.84638">
        <ele>2015.6</ele>
        <time>2026-03-23T09:10:04Z</time>
      </trkpt>
      <trkpt lat="44.73887" lon="6.84638">
        <ele>2015.9</ele>
        <time>2026-03-23T09:10:05Z</time>
      </trkpt>
      <trkpt lat="44.73888" lon="6.84637">
        <ele>2014.7</ele>
        <time>2026-03-23T09:10:06Z</time>
      </trkpt>
      <trkpt lat="44.73889" lon="6.84636">
        <ele>2014.7</ele>
        <time>2026-03-23T09:10:07Z</time>
      </trkpt>
      <trkpt lat="44.7389" lon="6.84636">
        <ele>2014.7</ele>
        <time>2026-03-23T09:10:08Z</time>
      </trkpt>
      <trkpt lat="44.73891" lon="6.84635">
        <ele>2015</ele>
        <time>2026-03-23T09:10:09Z</time>
      </trkpt>
      <trkpt lat="44.73892" lon="6.84634">
        <ele>2015</ele>
        <time>2026-03-23T09:10:11Z</time>
      </trkpt>
      <trkpt lat="44.73893" lon="6.84634">
        <ele>2015</ele>
        <time>2026-03-23T09:10:12Z</time>
      </trkpt>
      <trkpt lat="44.73894" lon="6.84633">
        <ele>2015.4</ele>
        <time>2026-03-23T09:10:13Z</time>
      </trkpt>
      <trkpt lat="44.73894" lon="6.84633">
        <ele>2015.4</ele>
        <time>2026-03-23T09:10:14Z</time>
      </trkpt>
      <trkpt lat="44.73895" lon="6.84633">
        <ele>2014.3</ele>
        <time>2026-03-23T09:10:15Z</time>
      </trkpt>
      <trkpt lat="44.73895" lon="6.84633">
        <ele>2014.3</ele>
        <time>2026-03-23T09:10:16Z</time>
      </trkpt>
      <trkpt lat="44.73896" lon="6.84633">
        <ele>2014.3</ele>
        <time>2026-03-23T09:10:17Z</time>
      </trkpt>
      <trkpt lat="44.73897" lon="6.84632">
        <ele>2014.5</ele>
        <time>2026-03-23T09:10:18Z</time>
      </trkpt>
      <trkpt lat="44.73897" lon="6.84632">
        <ele>2014.5</ele>
        <time>2026-03-23T09:10:19Z</time>
      </trkpt>
      <trkpt lat="44.73897" lon="6.84632">
        <ele>2014.5</ele>
        <time>2026-03-23T09:10:20Z</time>
      </trkpt>
      <trkpt lat="44.73898" lon="6.84632">
        <ele>2014.5</ele>
        <time>2026-03-23T09:10:21Z</time>
      </trkpt>
      <trkpt lat="44.73898" lon="6.84632">
        <ele>2014.5</ele>
        <time>2026-03-23T09:10:22Z</time>
      </trkpt>
      <trkpt lat="44.73899" lon="6.84632">
        <ele>2014.5</ele>
        <time>2026-03-23T09:10:23Z</time>
      </trkpt>
      <trkpt lat="44.73899" lon="6.84631">
        <ele>2014.7</ele>
        <time>2026-03-23T09:10:24Z</time>
      </trkpt>
      <trkpt lat="44.739" lon="6.84631">
        <ele>2014.7</ele>
        <time>2026-03-23T09:10:25Z</time>
      </trkpt>
      <trkpt lat="44.739" lon="6.84631">
        <ele>2014.7</ele>
        <time>2026-03-23T09:10:26Z</time>
      </trkpt>
      <trkpt lat="44.73901" lon="6.84631">
        <ele>2014.7</ele>
        <time>2026-03-23T09:10:27Z</time>
      </trkpt>
      <trkpt lat="44.73902" lon="6.84631">
        <ele>2014.7</ele>
        <time>2026-03-23T09:10:28Z</time>
      </trkpt>
      <trkpt lat="44.73902" lon="6.8463">
        <ele>2014.7</ele>
        <time>2026-03-23T09:10:29Z</time>
      </trkpt>
      <trkpt lat="44.73903" lon="6.8463">
        <ele>2014.8</ele>
        <time>2026-03-23T09:10:30Z</time>
      </trkpt>
      <trkpt lat="44.73904" lon="6.8463">
        <ele>2014.8</ele>
        <time>2026-03-23T09:10:31Z</time>
      </trkpt>
      <trkpt lat="44.73904" lon="6.8463">
        <ele>2014.8</ele>
        <time>2026-03-23T09:10:32Z</time>
      </trkpt>
      <trkpt lat="44.73905" lon="6.8463">
        <ele>2014.8</ele>
        <time>2026-03-23T09:10:33Z</time>
      </trkpt>
      <trkpt lat="44.73905" lon="6.8463">
        <ele>2014.9</ele>
        <time>2026-03-23T09:10:34Z</time>
      </trkpt>
      <trkpt lat="44.73906" lon="6.8463">
        <ele>2014.9</ele>
        <time>2026-03-23T09:10:35Z</time>
      </trkpt>
      <trkpt lat="44.73906" lon="6.8463">
        <ele>2014.9</ele>
        <time>2026-03-23T09:10:36Z</time>
      </trkpt>
      <trkpt lat="44.73905" lon="6.84631">
        <ele>2014.9</ele>
        <time>2026-03-23T09:10:37Z</time>
      </trkpt>
      <trkpt lat="44.73905" lon="6.84631">
        <ele>2014.9</ele>
        <time>2026-03-23T09:10:38Z</time>
      </trkpt>
      <trkpt lat="44.73905" lon="6.84631">
        <ele>2014.9</ele>
        <time>2026-03-23T09:10:39Z</time>
      </trkpt>
      <trkpt lat="44.73905" lon="6.84631">
        <ele>2014.9</ele>
        <time>2026-03-23T09:10:40Z</time>
      </trkpt>
      <trkpt lat="44.73905" lon="6.84632">
        <ele>2014.9</ele>
        <time>2026-03-23T09:10:41Z</time>
      </trkpt>
      <trkpt lat="44.73905" lon="6.84632">
        <ele>2014.9</ele>
        <time>2026-03-23T09:10:42Z</time>
      </trkpt>
      <trkpt lat="44.73905" lon="6.84632">
        <ele>2014.9</ele>
        <time>2026-03-23T09:10:43Z</time>
      </trkpt>
      <trkpt lat="44.73905" lon="6.84633">
        <ele>2014.8</ele>
        <time>2026-03-23T09:10:44Z</time>
      </trkpt>
      <trkpt lat="44.73905" lon="6.84633">
        <ele>2015.9</ele>
        <time>2026-03-23T09:10:45Z</time>
      </trkpt>
      <trkpt lat="44.73905" lon="6.84633">
        <ele>2015.9</ele>
        <time>2026-03-23T09:10:46Z</time>
      </trkpt>
      <trkpt lat="44.73905" lon="6.84633">
        <ele>2015.9</ele>
        <time>2026-03-23T09:10:47Z</time>
      </trkpt>
      <trkpt lat="44.73905" lon="6.84634">
        <ele>2015.9</ele>
        <time>2026-03-23T09:10:49Z</time>
      </trkpt>
      <trkpt lat="44.73905" lon="6.84634">
        <ele>2015.9</ele>
        <time>2026-03-23T09:10:50Z</time>
      </trkpt>
      <trkpt lat="44.73905" lon="6.84634">
        <ele>2015.9</ele>
        <time>2026-03-23T09:10:51Z</time>
      </trkpt>
      <trkpt lat="44.73905" lon="6.84634">
        <ele>2015.9</ele>
        <time>2026-03-23T09:10:52Z</time>
      </trkpt>
      <trkpt lat="44.73905" lon="6.84635">
        <ele>2015.9</ele>
        <time>2026-03-23T09:10:54Z</time>
      </trkpt>
      <trkpt lat="44.73905" lon="6.84635">
        <ele>2015.9</ele>
        <time>2026-03-23T09:10:55Z</time>
      </trkpt>
      <trkpt lat="44.73905" lon="6.84635">
        <ele>2015.9</ele>
        <time>2026-03-23T09:10:56Z</time>
      </trkpt>
      <trkpt lat="44.73905" lon="6.84635">
        <ele>2015.9</ele>
        <time>2026-03-23T09:10:58Z</time>
      </trkpt>
      <trkpt lat="44.73905" lon="6.84636">
        <ele>2015.9</ele>
        <time>2026-03-23T09:10:59Z</time>
      </trkpt>
      <trkpt lat="44.73905" lon="6.84636">
        <ele>2015.9</ele>
        <time>2026-03-23T09:11:00Z</time>
      </trkpt>
      <trkpt lat="44.73905" lon="6.84636">
        <ele>2015.9</ele>
        <time>2026-03-23T09:11:01Z</time>
      </trkpt>
      <trkpt lat="44.73905" lon="6.84637">
        <ele>2015.9</ele>
        <time>2026-03-23T09:11:02Z</time>
      </trkpt>
      <trkpt lat="44.73904" lon="6.84637">
        <ele>2015.9</ele>
        <time>2026-03-23T09:11:03Z</time>
      </trkpt>
      <trkpt lat="44.73904" lon="6.84637">
        <ele>2015.9</ele>
        <time>2026-03-23T09:11:04Z</time>
      </trkpt>
      <trkpt lat="44.73904" lon="6.84638">
        <ele>2017</ele>
        <time>2026-03-23T09:11:05Z</time>
      </trkpt>
      <trkpt lat="44.73902" lon="6.84639">
        <ele>2017</ele>
        <time>2026-03-23T09:11:06Z</time>
      </trkpt>
      <trkpt lat="44.73901" lon="6.84639">
        <ele>2016.9</ele>
        <time>2026-03-23T09:11:07Z</time>
      </trkpt>
      <trkpt lat="44.73901" lon="6.8464">
        <ele>2016.9</ele>
        <time>2026-03-23T09:11:08Z</time>
      </trkpt>
      <trkpt lat="44.739" lon="6.84641">
        <ele>2016.9</ele>
        <time>2026-03-23T09:11:09Z</time>
      </trkpt>
      <trkpt lat="44.73899" lon="6.84642">
        <ele>2018</ele>
        <time>2026-03-23T09:11:10Z</time>
      </trkpt>
      <trkpt lat="44.73899" lon="6.84642">
        <ele>2017.8</ele>
        <time>2026-03-23T09:11:11Z</time>
      </trkpt>
      <trkpt lat="44.73898" lon="6.84643">
        <ele>2017.8</ele>
        <time>2026-03-23T09:11:12Z</time>
      </trkpt>
      <trkpt lat="44.73897" lon="6.84644">
        <ele>2017.8</ele>
        <time>2026-03-23T09:11:13Z</time>
      </trkpt>
      <trkpt lat="44.73896" lon="6.84644">
        <ele>2017.8</ele>
        <time>2026-03-23T09:11:14Z</time>
      </trkpt>
      <trkpt lat="44.73896" lon="6.84645">
        <ele>2017.6</ele>
        <time>2026-03-23T09:11:15Z</time>
      </trkpt>
      <trkpt lat="44.73895" lon="6.84646">
        <ele>2017.6</ele>
        <time>2026-03-23T09:11:16Z</time>
      </trkpt>
      <trkpt lat="44.73894" lon="6.84647">
        <ele>2018.7</ele>
        <time>2026-03-23T09:11:17Z</time>
      </trkpt>
      <trkpt lat="44.73893" lon="6.84648">
        <ele>2018.7</ele>
        <time>2026-03-23T09:11:19Z</time>
      </trkpt>
      <trkpt lat="44.73893" lon="6.84649">
        <ele>2018.3</ele>
        <time>2026-03-23T09:11:20Z</time>
      </trkpt>
      <trkpt lat="44.73892" lon="6.84649">
        <ele>2018.3</ele>
        <time>2026-03-23T09:11:21Z</time>
      </trkpt>
      <trkpt lat="44.73892" lon="6.84649">
        <ele>2018.3</ele>
        <time>2026-03-23T09:11:22Z</time>
      </trkpt>
      <trkpt lat="44.73891" lon="6.84649">
        <ele>2018.3</ele>
        <time>2026-03-23T09:11:23Z</time>
      </trkpt>
      <trkpt lat="44.7389" lon="6.84649">
        <ele>2018.3</ele>
        <time>2026-03-23T09:11:24Z</time>
      </trkpt>
      <trkpt lat="44.73889" lon="6.8465">
        <ele>2018.1</ele>
        <time>2026-03-23T09:11:25Z</time>
      </trkpt>
      <trkpt lat="44.73889" lon="6.8465">
        <ele>2018.1</ele>
        <time>2026-03-23T09:11:27Z</time>
      </trkpt>
      <trkpt lat="44.73888" lon="6.8465">
        <ele>2019.1</ele>
        <time>2026-03-23T09:11:28Z</time>
      </trkpt>
      <trkpt lat="44.73889" lon="6.84651">
        <ele>2019.1</ele>
        <time>2026-03-23T09:11:29Z</time>
      </trkpt>
      <trkpt lat="44.73889" lon="6.84651">
        <ele>2019.1</ele>
        <time>2026-03-23T09:11:30Z</time>
      </trkpt>
      <trkpt lat="44.7389" lon="6.84651">
        <ele>2019.1</ele>
        <time>2026-03-23T09:11:31Z</time>
      </trkpt>
      <trkpt lat="44.7389" lon="6.84651">
        <ele>2019.1</ele>
        <time>2026-03-23T09:11:32Z</time>
      </trkpt>
      <trkpt lat="44.73889" lon="6.84651">
        <ele>2019.1</ele>
        <time>2026-03-23T09:11:33Z</time>
      </trkpt>
      <trkpt lat="44.73889" lon="6.8465">
        <ele>2019.1</ele>
        <time>2026-03-23T09:11:34Z</time>
      </trkpt>
      <trkpt lat="44.73889" lon="6.8465">
        <ele>2019.1</ele>
        <time>2026-03-23T09:11:35Z</time>
      </trkpt>
      <trkpt lat="44.73889" lon="6.8465">
        <ele>2019.1</ele>
        <time>2026-03-23T09:11:36Z</time>
      </trkpt>
      <trkpt lat="44.73889" lon="6.84651">
        <ele>2019.1</ele>
        <time>2026-03-23T09:11:37Z</time>
      </trkpt>
      <trkpt lat="44.73889" lon="6.8465">
        <ele>2019.1</ele>
        <time>2026-03-23T09:11:38Z</time>
      </trkpt>
      <trkpt lat="44.73889" lon="6.84651">
        <ele>2019.1</ele>
        <time>2026-03-23T09:11:39Z</time>
      </trkpt>
      <trkpt lat="44.7389" lon="6.8465">
        <ele>2019.1</ele>
        <time>2026-03-23T09:11:40Z</time>
      </trkpt>
      <trkpt lat="44.7389" lon="6.8465">
        <ele>2019.1</ele>
        <time>2026-03-23T09:11:41Z</time>
      </trkpt>
      <trkpt lat="44.7389" lon="6.8465">
        <ele>2019.1</ele>
        <time>2026-03-23T09:11:42Z</time>
      </trkpt>
      <trkpt lat="44.7389" lon="6.8465">
        <ele>2019.1</ele>
        <time>2026-03-23T09:11:43Z</time>
      </trkpt>
      <trkpt lat="44.7389" lon="6.84651">
        <ele>2019.1</ele>
        <time>2026-03-23T09:11:44Z</time>
      </trkpt>
      <trkpt lat="44.73891" lon="6.84651">
        <ele>2019.3</ele>
        <time>2026-03-23T09:11:46Z</time>
      </trkpt>
      <trkpt lat="44.73891" lon="6.84651">
        <ele>2019.3</ele>
        <time>2026-03-23T09:11:47Z</time>
      </trkpt>
      <trkpt lat="44.73891" lon="6.84651">
        <ele>2019.3</ele>
        <time>2026-03-23T09:11:49Z</time>
      </trkpt>
      <trkpt lat="44.73891" lon="6.84652">
        <ele>2019.3</ele>
        <time>2026-03-23T09:11:51Z</time>
      </trkpt>
      <trkpt lat="44.73892" lon="6.84651">
        <ele>2019.3</ele>
        <time>2026-03-23T09:11:52Z</time>
      </trkpt>
      <trkpt lat="44.73892" lon="6.84652">
        <ele>2019.3</ele>
        <time>2026-03-23T09:11:53Z</time>
      </trkpt>
      <trkpt lat="44.73892" lon="6.84652">
        <ele>2019.3</ele>
        <time>2026-03-23T09:11:54Z</time>
      </trkpt>
      <trkpt lat="44.73893" lon="6.84652">
        <ele>2019.3</ele>
        <time>2026-03-23T09:11:55Z</time>
      </trkpt>
      <trkpt lat="44.73893" lon="6.84652">
        <ele>2019.7</ele>
        <time>2026-03-23T09:11:56Z</time>
      </trkpt>
      <trkpt lat="44.73894" lon="6.84652">
        <ele>2019.7</ele>
        <time>2026-03-23T09:11:57Z</time>
      </trkpt>
      <trkpt lat="44.73894" lon="6.84652">
        <ele>2019.7</ele>
        <time>2026-03-23T09:11:58Z</time>
      </trkpt>
      <trkpt lat="44.73895" lon="6.84652">
        <ele>2019.7</ele>
        <time>2026-03-23T09:11:59Z</time>
      </trkpt>
      <trkpt lat="44.73895" lon="6.84652">
        <ele>2019.7</ele>
        <time>2026-03-23T09:12:00Z</time>
      </trkpt>
      <trkpt lat="44.73896" lon="6.84653">
        <ele>2019.7</ele>
        <time>2026-03-23T09:12:02Z</time>
      </trkpt>
      <trkpt lat="44.73896" lon="6.84653">
        <ele>2019.7</ele>
        <time>2026-03-23T09:12:03Z</time>
      </trkpt>
      <trkpt lat="44.73896" lon="6.84653">
        <ele>2019.9</ele>
        <time>2026-03-23T09:12:04Z</time>
      </trkpt>
      <trkpt lat="44.73897" lon="6.84653">
        <ele>2019.9</ele>
        <time>2026-03-23T09:12:05Z</time>
      </trkpt>
      <trkpt lat="44.73897" lon="6.84653">
        <ele>2019.8</ele>
        <time>2026-03-23T09:12:06Z</time>
      </trkpt>
      <trkpt lat="44.73897" lon="6.84653">
        <ele>2019.8</ele>
        <time>2026-03-23T09:12:07Z</time>
      </trkpt>
      <trkpt lat="44.73897" lon="6.84653">
        <ele>2019.8</ele>
        <time>2026-03-23T09:12:08Z</time>
      </trkpt>
      <trkpt lat="44.73898" lon="6.84653">
        <ele>2019.8</ele>
        <time>2026-03-23T09:12:09Z</time>
      </trkpt>
      <trkpt lat="44.73898" lon="6.84654">
        <ele>2019.8</ele>
        <time>2026-03-23T09:12:10Z</time>
      </trkpt>
      <trkpt lat="44.73898" lon="6.84654">
        <ele>2019.8</ele>
        <time>2026-03-23T09:12:11Z</time>
      </trkpt>
      <trkpt lat="44.73898" lon="6.84654">
        <ele>2019.8</ele>
        <time>2026-03-23T09:12:12Z</time>
      </trkpt>
      <trkpt lat="44.73899" lon="6.84654">
        <ele>2019.8</ele>
        <time>2026-03-23T09:12:14Z</time>
      </trkpt>
      <trkpt lat="44.73899" lon="6.84654">
        <ele>2021</ele>
        <time>2026-03-23T09:12:15Z</time>
      </trkpt>
      <trkpt lat="44.739" lon="6.84655">
        <ele>2021</ele>
        <time>2026-03-23T09:12:17Z</time>
      </trkpt>
      <trkpt lat="44.739" lon="6.84655">
        <ele>2021</ele>
        <time>2026-03-23T09:12:18Z</time>
      </trkpt>
      <trkpt lat="44.739" lon="6.84655">
        <ele>2021</ele>
        <time>2026-03-23T09:12:19Z</time>
      </trkpt>
      <trkpt lat="44.739" lon="6.84655">
        <ele>2021</ele>
        <time>2026-03-23T09:12:20Z</time>
      </trkpt>
      <trkpt lat="44.739" lon="6.84655">
        <ele>2021</ele>
        <time>2026-03-23T09:12:21Z</time>
      </trkpt>
      <trkpt lat="44.73901" lon="6.84655">
        <ele>2021</ele>
        <time>2026-03-23T09:12:22Z</time>
      </trkpt>
      <trkpt lat="44.73901" lon="6.84655">
        <ele>2021</ele>
        <time>2026-03-23T09:12:23Z</time>
      </trkpt>
      <trkpt lat="44.73901" lon="6.84655">
        <ele>2021</ele>
        <time>2026-03-23T09:12:24Z</time>
      </trkpt>
      <trkpt lat="44.73902" lon="6.84655">
        <ele>2021</ele>
        <time>2026-03-23T09:12:25Z</time>
      </trkpt>
      <trkpt lat="44.73902" lon="6.84656">
        <ele>2021</ele>
        <time>2026-03-23T09:12:26Z</time>
      </trkpt>
      <trkpt lat="44.73902" lon="6.84656">
        <ele>2021.1</ele>
        <time>2026-03-23T09:12:27Z</time>
      </trkpt>
      <trkpt lat="44.73903" lon="6.84656">
        <ele>2021.1</ele>
        <time>2026-03-23T09:12:28Z</time>
      </trkpt>
      <trkpt lat="44.73903" lon="6.84656">
        <ele>2021.1</ele>
        <time>2026-03-23T09:12:29Z</time>
      </trkpt>
      <trkpt lat="44.73903" lon="6.84656">
        <ele>2021.1</ele>
        <time>2026-03-23T09:12:30Z</time>
      </trkpt>
      <trkpt lat="44.73903" lon="6.84657">
        <ele>2021.1</ele>
        <time>2026-03-23T09:12:31Z</time>
      </trkpt>
      <trkpt lat="44.73904" lon="6.84657">
        <ele>2021.1</ele>
        <time>2026-03-23T09:12:32Z</time>
      </trkpt>
      <trkpt lat="44.73904" lon="6.84657">
        <ele>2021.1</ele>
        <time>2026-03-23T09:12:33Z</time>
      </trkpt>
      <trkpt lat="44.73905" lon="6.84658">
        <ele>2021.1</ele>
        <time>2026-03-23T09:12:34Z</time>
      </trkpt>
      <trkpt lat="44.73905" lon="6.84658">
        <ele>2021.1</ele>
        <time>2026-03-23T09:12:35Z</time>
      </trkpt>
      <trkpt lat="44.73905" lon="6.84658">
        <ele>2021.1</ele>
        <time>2026-03-23T09:12:36Z</time>
      </trkpt>
      <trkpt lat="44.73906" lon="6.84658">
        <ele>2021.1</ele>
        <time>2026-03-23T09:12:37Z</time>
      </trkpt>
      <trkpt lat="44.73906" lon="6.84658">
        <ele>2021.1</ele>
        <time>2026-03-23T09:12:38Z</time>
      </trkpt>
      <trkpt lat="44.73906" lon="6.84659">
        <ele>2021.1</ele>
        <time>2026-03-23T09:12:39Z</time>
      </trkpt>
      <trkpt lat="44.73907" lon="6.84659">
        <ele>2022.1</ele>
        <time>2026-03-23T09:12:40Z</time>
      </trkpt>
      <trkpt lat="44.73908" lon="6.84659">
        <ele>2022.1</ele>
        <time>2026-03-23T09:12:41Z</time>
      </trkpt>
      <trkpt lat="44.73908" lon="6.84659">
        <ele>2022.2</ele>
        <time>2026-03-23T09:12:42Z</time>
      </trkpt>
      <trkpt lat="44.73909" lon="6.8466">
        <ele>2022.2</ele>
        <time>2026-03-23T09:12:43Z</time>
      </trkpt>
      <trkpt lat="44.73909" lon="6.8466">
        <ele>2022.2</ele>
        <time>2026-03-23T09:12:44Z</time>
      </trkpt>
      <trkpt lat="44.73909" lon="6.84659">
        <ele>2022.2</ele>
        <time>2026-03-23T09:12:45Z</time>
      </trkpt>
      <trkpt lat="44.73909" lon="6.84659">
        <ele>2022.2</ele>
        <time>2026-03-23T09:12:46Z</time>
      </trkpt>
      <trkpt lat="44.73909" lon="6.84659">
        <ele>2022.1</ele>
        <time>2026-03-23T09:12:47Z</time>
      </trkpt>
      <trkpt lat="44.73909" lon="6.84659">
        <ele>2022.1</ele>
        <time>2026-03-23T09:12:48Z</time>
      </trkpt>
      <trkpt lat="44.73909" lon="6.84659">
        <ele>2022.1</ele>
        <time>2026-03-23T09:12:49Z</time>
      </trkpt>
      <trkpt lat="44.73909" lon="6.84659">
        <ele>2022.1</ele>
        <time>2026-03-23T09:12:50Z</time>
      </trkpt>
      <trkpt lat="44.73909" lon="6.84659">
        <ele>2022.1</ele>
        <time>2026-03-23T09:12:51Z</time>
      </trkpt>
      <trkpt lat="44.73909" lon="6.84659">
        <ele>2022.1</ele>
        <time>2026-03-23T09:12:52Z</time>
      </trkpt>
      <trkpt lat="44.73909" lon="6.84659">
        <ele>2022.1</ele>
        <time>2026-03-23T09:12:53Z</time>
      </trkpt>
      <trkpt lat="44.73909" lon="6.84659">
        <ele>2022.1</ele>
        <time>2026-03-23T09:12:54Z</time>
      </trkpt>
      <trkpt lat="44.73909" lon="6.84659">
        <ele>2022.1</ele>
        <time>2026-03-23T09:12:55Z</time>
      </trkpt>
      <trkpt lat="44.73909" lon="6.84659">
        <ele>2022.1</ele>
        <time>2026-03-23T09:12:56Z</time>
      </trkpt>
      <trkpt lat="44.73909" lon="6.84659">
        <ele>2022.1</ele>
        <time>2026-03-23T09:12:57Z</time>
      </trkpt>
      <trkpt lat="44.73909" lon="6.84659">
        <ele>2022.1</ele>
        <time>2026-03-23T09:12:58Z</time>
      </trkpt>
      <trkpt lat="44.73909" lon="6.84659">
        <ele>2022.1</ele>
        <time>2026-03-23T09:12:59Z</time>
      </trkpt>
      <trkpt lat="44.73909" lon="6.84659">
        <ele>2022.1</ele>
        <time>2026-03-23T09:13:00Z</time>
      </trkpt>
      <trkpt lat="44.73909" lon="6.84659">
        <ele>2022.1</ele>
        <time>2026-03-23T09:13:01Z</time>
      </trkpt>
      <trkpt lat="44.73909" lon="6.84659">
        <ele>2022.1</ele>
        <time>2026-03-23T09:13:02Z</time>
      </trkpt>
      <trkpt lat="44.73909" lon="6.84659">
        <ele>2022.1</ele>
        <time>2026-03-23T09:13:03Z</time>
      </trkpt>
      <trkpt lat="44.73909" lon="6.84659">
        <ele>2022.1</ele>
        <time>2026-03-23T09:13:04Z</time>
      </trkpt>
      <trkpt lat="44.73909" lon="6.84659">
        <ele>2022.1</ele>
        <time>2026-03-23T09:13:05Z</time>
      </trkpt>
      <trkpt lat="44.73909" lon="6.84659">
        <ele>2022.1</ele>
        <time>2026-03-23T09:13:06Z</time>
      </trkpt>
      <trkpt lat="44.73909" lon="6.84659">
        <ele>2022.1</ele>
        <time>2026-03-23T09:13:07Z</time>
      </trkpt>
      <trkpt lat="44.73909" lon="6.84659">
        <ele>2022.1</ele>
        <time>2026-03-23T09:13:08Z</time>
      </trkpt>
      <trkpt lat="44.73909" lon="6.84659">
        <ele>2022.1</ele>
        <time>2026-03-23T09:13:09Z</time>
      </trkpt>
      <trkpt lat="44.73909" lon="6.84659">
        <ele>2022.1</ele>
        <time>2026-03-23T09:13:10Z</time>
      </trkpt>
      <trkpt lat="44.73909" lon="6.84659">
        <ele>2022.1</ele>
        <time>2026-03-23T09:13:11Z</time>
      </trkpt>
      <trkpt lat="44.73909" lon="6.84659">
        <ele>2022.1</ele>
        <time>2026-03-23T09:13:12Z</time>
      </trkpt>
      <trkpt lat="44.73909" lon="6.84659">
        <ele>2022.1</ele>
        <time>2026-03-23T09:13:13Z</time>
      </trkpt>
      <trkpt lat="44.73909" lon="6.84659">
        <ele>2022.1</ele>
        <time>2026-03-23T09:13:14Z</time>
      </trkpt>
      <trkpt lat="44.73909" lon="6.84659">
        <ele>2022.1</ele>
        <time>2026-03-23T09:13:15Z</time>
      </trkpt>
      <trkpt lat="44.73909" lon="6.84659">
        <ele>2022.1</ele>
        <time>2026-03-23T09:13:16Z</time>
      </trkpt>
      <trkpt lat="44.73909" lon="6.84659">
        <ele>2022.1</ele>
        <time>2026-03-23T09:13:17Z</time>
      </trkpt>
      <trkpt lat="44.73909" lon="6.84659">
        <ele>2022.1</ele>
        <time>2026-03-23T09:13:18Z</time>
      </trkpt>
      <trkpt lat="44.73909" lon="6.84659">
        <ele>2022.1</ele>
        <time>2026-03-23T09:13:19Z</time>
      </trkpt>
      <trkpt lat="44.73909" lon="6.84659">
        <ele>2022.1</ele>
        <time>2026-03-23T09:13:20Z</time>
      </trkpt>
      <trkpt lat="44.73909" lon="6.84659">
        <ele>2022.1</ele>
        <time>2026-03-23T09:13:21Z</time>
      </trkpt>
      <trkpt lat="44.73909" lon="6.84659">
        <ele>2022.1</ele>
        <time>2026-03-23T09:13:22Z</time>
      </trkpt>
      <trkpt lat="44.73909" lon="6.84659">
        <ele>2022.1</ele>
        <time>2026-03-23T09:13:23Z</time>
      </trkpt>
      <trkpt lat="44.73909" lon="6.84659">
        <ele>2022.1</ele>
        <time>2026-03-23T09:13:24Z</time>
      </trkpt>
      <trkpt lat="44.73909" lon="6.84659">
        <ele>2022.1</ele>
        <time>2026-03-23T09:13:25Z</time>
      </trkpt>
      <trkpt lat="44.73909" lon="6.84659">
        <ele>2022.1</ele>
        <time>2026-03-23T09:13:26Z</time>
      </trkpt>
      <trkpt lat="44.73909" lon="6.84659">
        <ele>2022.1</ele>
        <time>2026-03-23T09:13:27Z</time>
      </trkpt>
      <trkpt lat="44.73909" lon="6.84659">
        <ele>2022.1</ele>
        <time>2026-03-23T09:13:28Z</time>
      </trkpt>
      <trkpt lat="44.73909" lon="6.84659">
        <ele>2022.1</ele>
        <time>2026-03-23T09:13:29Z</time>
      </trkpt>
      <trkpt lat="44.73909" lon="6.84659">
        <ele>2022.1</ele>
        <time>2026-03-23T09:13:30Z</time>
      </trkpt>
      <trkpt lat="44.73909" lon="6.84659">
        <ele>2022.1</ele>
        <time>2026-03-23T09:13:31Z</time>
      </trkpt>
      <trkpt lat="44.73909" lon="6.84659">
        <ele>2022.1</ele>
        <time>2026-03-23T09:13:32Z</time>
      </trkpt>
      <trkpt lat="44.73909" lon="6.84659">
        <ele>2022.1</ele>
        <time>2026-03-23T09:13:33Z</time>
      </trkpt>
      <trkpt lat="44.73909" lon="6.84659">
        <ele>2022.1</ele>
        <time>2026-03-23T09:13:34Z</time>
      </trkpt>
      <trkpt lat="44.73909" lon="6.84659">
        <ele>2022.1</ele>
        <time>2026-03-23T09:13:35Z</time>
      </trkpt>
      <trkpt lat="44.73909" lon="6.84659">
        <ele>2022.1</ele>
        <time>2026-03-23T09:13:36Z</time>
      </trkpt>
      <trkpt lat="44.73909" lon="6.84659">
        <ele>2022.1</ele>
        <time>2026-03-23T09:13:37Z</time>
      </trkpt>
      <trkpt lat="44.73909" lon="6.84659">
        <ele>2022.1</ele>
        <time>2026-03-23T09:13:38Z</time>
      </trkpt>
      <trkpt lat="44.73909" lon="6.84659">
        <ele>2022.1</ele>
        <time>2026-03-23T09:13:39Z</time>
      </trkpt>
      <trkpt lat="44.73909" lon="6.84659">
        <ele>2022.1</ele>
        <time>2026-03-23T09:13:40Z</time>
      </trkpt>
      <trkpt lat="44.7391" lon="6.84659">
        <ele>2022.1</ele>
        <time>2026-03-23T09:13:41Z</time>
      </trkpt>
      <trkpt lat="44.7391" lon="6.84659">
        <ele>2022.1</ele>
        <time>2026-03-23T09:13:42Z</time>
      </trkpt>
      <trkpt lat="44.7391" lon="6.8466">
        <ele>2022.1</ele>
        <time>2026-03-23T09:13:43Z</time>
      </trkpt>
      <trkpt lat="44.7391" lon="6.8466">
        <ele>2022.1</ele>
        <time>2026-03-23T09:13:44Z</time>
      </trkpt>
      <trkpt lat="44.7391" lon="6.8466">
        <ele>2022.1</ele>
        <time>2026-03-23T09:13:45Z</time>
      </trkpt>
      <trkpt lat="44.73909" lon="6.84661">
        <ele>2022.1</ele>
        <time>2026-03-23T09:13:46Z</time>
      </trkpt>
      <trkpt lat="44.73909" lon="6.84661">
        <ele>2022.1</ele>
        <time>2026-03-23T09:13:47Z</time>
      </trkpt>
      <trkpt lat="44.73909" lon="6.84661">
        <ele>2022.1</ele>
        <time>2026-03-23T09:13:48Z</time>
      </trkpt>
      <trkpt lat="44.73909" lon="6.84661">
        <ele>2022.1</ele>
        <time>2026-03-23T09:13:49Z</time>
      </trkpt>
      <trkpt lat="44.73909" lon="6.8466">
        <ele>2022.1</ele>
        <time>2026-03-23T09:13:50Z</time>
      </trkpt>
      <trkpt lat="44.73908" lon="6.84661">
        <ele>2022</ele>
        <time>2026-03-23T09:13:51Z</time>
      </trkpt>
      <trkpt lat="44.73907" lon="6.84662">
        <ele>2022</ele>
        <time>2026-03-23T09:13:52Z</time>
      </trkpt>
      <trkpt lat="44.73906" lon="6.84663">
        <ele>2022</ele>
        <time>2026-03-23T09:13:53Z</time>
      </trkpt>
      <trkpt lat="44.73906" lon="6.84664">
        <ele>2023</ele>
        <time>2026-03-23T09:13:54Z</time>
      </trkpt>
      <trkpt lat="44.73905" lon="6.84665">
        <ele>2023</ele>
        <time>2026-03-23T09:13:55Z</time>
      </trkpt>
      <trkpt lat="44.73904" lon="6.84666">
        <ele>2023</ele>
        <time>2026-03-23T09:13:56Z</time>
      </trkpt>
      <trkpt lat="44.73904" lon="6.84666">
        <ele>2023</ele>
        <time>2026-03-23T09:13:57Z</time>
      </trkpt>
      <trkpt lat="44.73903" lon="6.84667">
        <ele>2023</ele>
        <time>2026-03-23T09:13:58Z</time>
      </trkpt>
      <trkpt lat="44.73903" lon="6.84668">
        <ele>2024</ele>
        <time>2026-03-23T09:13:59Z</time>
      </trkpt>
      <trkpt lat="44.73903" lon="6.84668">
        <ele>2024</ele>
        <time>2026-03-23T09:14:00Z</time>
      </trkpt>
      <trkpt lat="44.73902" lon="6.84669">
        <ele>2024</ele>
        <time>2026-03-23T09:14:01Z</time>
      </trkpt>
      <trkpt lat="44.73902" lon="6.8467">
        <ele>2024</ele>
        <time>2026-03-23T09:14:02Z</time>
      </trkpt>
      <trkpt lat="44.73901" lon="6.84671">
        <ele>2024</ele>
        <time>2026-03-23T09:14:03Z</time>
      </trkpt>
      <trkpt lat="44.739" lon="6.84671">
        <ele>2024</ele>
        <time>2026-03-23T09:14:04Z</time>
      </trkpt>
      <trkpt lat="44.73899" lon="6.84672">
        <ele>2025</ele>
        <time>2026-03-23T09:14:05Z</time>
      </trkpt>
      <trkpt lat="44.73899" lon="6.84671">
        <ele>2023.9</ele>
        <time>2026-03-23T09:14:06Z</time>
      </trkpt>
      <trkpt lat="44.73898" lon="6.84671">
        <ele>2023.9</ele>
        <time>2026-03-23T09:14:07Z</time>
      </trkpt>
      <trkpt lat="44.73898" lon="6.84671">
        <ele>2023.9</ele>
        <time>2026-03-23T09:14:08Z</time>
      </trkpt>
      <trkpt lat="44.73898" lon="6.84671">
        <ele>2023.9</ele>
        <time>2026-03-23T09:14:09Z</time>
      </trkpt>
      <trkpt lat="44.73897" lon="6.84671">
        <ele>2023.9</ele>
        <time>2026-03-23T09:14:11Z</time>
      </trkpt>
      <trkpt lat="44.73897" lon="6.84672">
        <ele>2025</ele>
        <time>2026-03-23T09:14:12Z</time>
      </trkpt>
      <trkpt lat="44.73897" lon="6.84672">
        <ele>2025</ele>
        <time>2026-03-23T09:14:13Z</time>
      </trkpt>
      <trkpt lat="44.73896" lon="6.84672">
        <ele>2025</ele>
        <time>2026-03-23T09:14:14Z</time>
      </trkpt>
      <trkpt lat="44.73896" lon="6.84673">
        <ele>2025</ele>
        <time>2026-03-23T09:14:15Z</time>
      </trkpt>
      <trkpt lat="44.73896" lon="6.84673">
        <ele>2025</ele>
        <time>2026-03-23T09:14:16Z</time>
      </trkpt>
      <trkpt lat="44.73895" lon="6.84674">
        <ele>2024.9</ele>
        <time>2026-03-23T09:14:17Z</time>
      </trkpt>
      <trkpt lat="44.73895" lon="6.84675">
        <ele>2024.9</ele>
        <time>2026-03-23T09:14:18Z</time>
      </trkpt>
      <trkpt lat="44.73895" lon="6.84675">
        <ele>2024.9</ele>
        <time>2026-03-23T09:14:20Z</time>
      </trkpt>
      <trkpt lat="44.73894" lon="6.84675">
        <ele>2024.9</ele>
        <time>2026-03-23T09:14:21Z</time>
      </trkpt>
      <trkpt lat="44.73894" lon="6.84675">
        <ele>2024.9</ele>
        <time>2026-03-23T09:14:22Z</time>
      </trkpt>
      <trkpt lat="44.73894" lon="6.84675">
        <ele>2024.9</ele>
        <time>2026-03-23T09:14:23Z</time>
      </trkpt>
      <trkpt lat="44.73893" lon="6.84675">
        <ele>2024.9</ele>
        <time>2026-03-23T09:14:24Z</time>
      </trkpt>
      <trkpt lat="44.73893" lon="6.84675">
        <ele>2024.7</ele>
        <time>2026-03-23T09:14:25Z</time>
      </trkpt>
      <trkpt lat="44.73892" lon="6.84675">
        <ele>2024.7</ele>
        <time>2026-03-23T09:14:26Z</time>
      </trkpt>
      <trkpt lat="44.73892" lon="6.84675">
        <ele>2024.7</ele>
        <time>2026-03-23T09:14:27Z</time>
      </trkpt>
      <trkpt lat="44.73892" lon="6.84675">
        <ele>2024.7</ele>
        <time>2026-03-23T09:14:28Z</time>
      </trkpt>
      <trkpt lat="44.73892" lon="6.84675">
        <ele>2024.7</ele>
        <time>2026-03-23T09:14:29Z</time>
      </trkpt>
      <trkpt lat="44.73892" lon="6.84674">
        <ele>2024.7</ele>
        <time>2026-03-23T09:14:30Z</time>
      </trkpt>
      <trkpt lat="44.73891" lon="6.84674">
        <ele>2024.7</ele>
        <time>2026-03-23T09:14:31Z</time>
      </trkpt>
      <trkpt lat="44.73891" lon="6.84674">
        <ele>2024.7</ele>
        <time>2026-03-23T09:14:32Z</time>
      </trkpt>
      <trkpt lat="44.7389" lon="6.84674">
        <ele>2024.7</ele>
        <time>2026-03-23T09:14:33Z</time>
      </trkpt>
      <trkpt lat="44.7389" lon="6.84675">
        <ele>2024.7</ele>
        <time>2026-03-23T09:14:34Z</time>
      </trkpt>
      <trkpt lat="44.7389" lon="6.84675">
        <ele>2024.5</ele>
        <time>2026-03-23T09:14:35Z</time>
      </trkpt>
      <trkpt lat="44.73889" lon="6.84675">
        <ele>2024.5</ele>
        <time>2026-03-23T09:14:36Z</time>
      </trkpt>
      <trkpt lat="44.73888" lon="6.84675">
        <ele>2024.5</ele>
        <time>2026-03-23T09:14:37Z</time>
      </trkpt>
      <trkpt lat="44.73888" lon="6.84676">
        <ele>2024.5</ele>
        <time>2026-03-23T09:14:38Z</time>
      </trkpt>
      <trkpt lat="44.73887" lon="6.84676">
        <ele>2025.7</ele>
        <time>2026-03-23T09:14:39Z</time>
      </trkpt>
      <trkpt lat="44.73887" lon="6.84676">
        <ele>2025.6</ele>
        <time>2026-03-23T09:14:40Z</time>
      </trkpt>
      <trkpt lat="44.73886" lon="6.84677">
        <ele>2025.6</ele>
        <time>2026-03-23T09:14:41Z</time>
      </trkpt>
      <trkpt lat="44.73886" lon="6.84677">
        <ele>2025.6</ele>
        <time>2026-03-23T09:14:42Z</time>
      </trkpt>
      <trkpt lat="44.73886" lon="6.84677">
        <ele>2025.6</ele>
        <time>2026-03-23T09:14:43Z</time>
      </trkpt>
      <trkpt lat="44.73885" lon="6.84678">
        <ele>2025.6</ele>
        <time>2026-03-23T09:14:44Z</time>
      </trkpt>
      <trkpt lat="44.73885" lon="6.84678">
        <ele>2025.5</ele>
        <time>2026-03-23T09:14:45Z</time>
      </trkpt>
      <trkpt lat="44.73884" lon="6.84678">
        <ele>2025.5</ele>
        <time>2026-03-23T09:14:46Z</time>
      </trkpt>
      <trkpt lat="44.73884" lon="6.84679">
        <ele>2025.4</ele>
        <time>2026-03-23T09:14:47Z</time>
      </trkpt>
      <trkpt lat="44.73883" lon="6.84679">
        <ele>2025.4</ele>
        <time>2026-03-23T09:14:48Z</time>
      </trkpt>
      <trkpt lat="44.73883" lon="6.84679">
        <ele>2025.4</ele>
        <time>2026-03-23T09:14:49Z</time>
      </trkpt>
      <trkpt lat="44.73884" lon="6.84679">
        <ele>2025.5</ele>
        <time>2026-03-23T09:14:50Z</time>
      </trkpt>
      <trkpt lat="44.73884" lon="6.84679">
        <ele>2025.5</ele>
        <time>2026-03-23T09:14:51Z</time>
      </trkpt>
      <trkpt lat="44.73884" lon="6.84679">
        <ele>2025.5</ele>
        <time>2026-03-23T09:14:52Z</time>
      </trkpt>
      <trkpt lat="44.73884" lon="6.84679">
        <ele>2025.5</ele>
        <time>2026-03-23T09:14:53Z</time>
      </trkpt>
      <trkpt lat="44.73884" lon="6.84679">
        <ele>2025.5</ele>
        <time>2026-03-23T09:14:54Z</time>
      </trkpt>
      <trkpt lat="44.73884" lon="6.84679">
        <ele>2025.4</ele>
        <time>2026-03-23T09:14:55Z</time>
      </trkpt>
      <trkpt lat="44.73884" lon="6.84679">
        <ele>2025.4</ele>
        <time>2026-03-23T09:14:56Z</time>
      </trkpt>
      <trkpt lat="44.73884" lon="6.84679">
        <ele>2025.4</ele>
        <time>2026-03-23T09:14:57Z</time>
      </trkpt>
      <trkpt lat="44.73883" lon="6.8468">
        <ele>2025.4</ele>
        <time>2026-03-23T09:14:58Z</time>
      </trkpt>
      <trkpt lat="44.73883" lon="6.8468">
        <ele>2025.4</ele>
        <time>2026-03-23T09:14:59Z</time>
      </trkpt>
      <trkpt lat="44.73882" lon="6.8468">
        <ele>2026.6</ele>
        <time>2026-03-23T09:15:00Z</time>
      </trkpt>
      <trkpt lat="44.73882" lon="6.84681">
        <ele>2026.6</ele>
        <time>2026-03-23T09:15:01Z</time>
      </trkpt>
      <trkpt lat="44.73882" lon="6.84681">
        <ele>2026.6</ele>
        <time>2026-03-23T09:15:02Z</time>
      </trkpt>
      <trkpt lat="44.73883" lon="6.84682">
        <ele>2026.6</ele>
        <time>2026-03-23T09:15:03Z</time>
      </trkpt>
      <trkpt lat="44.73883" lon="6.84682">
        <ele>2026.6</ele>
        <time>2026-03-23T09:15:04Z</time>
      </trkpt>
      <trkpt lat="44.73884" lon="6.84682">
        <ele>2026.6</ele>
        <time>2026-03-23T09:15:05Z</time>
      </trkpt>
      <trkpt lat="44.73884" lon="6.84682">
        <ele>2026.7</ele>
        <time>2026-03-23T09:15:06Z</time>
      </trkpt>
      <trkpt lat="44.73885" lon="6.84682">
        <ele>2026.7</ele>
        <time>2026-03-23T09:15:07Z</time>
      </trkpt>
      <trkpt lat="44.73885" lon="6.84682">
        <ele>2026.7</ele>
        <time>2026-03-23T09:15:08Z</time>
      </trkpt>
      <trkpt lat="44.73885" lon="6.84682">
        <ele>2026.7</ele>
        <time>2026-03-23T09:15:09Z</time>
      </trkpt>
      <trkpt lat="44.73886" lon="6.84681">
        <ele>2026.7</ele>
        <time>2026-03-23T09:15:10Z</time>
      </trkpt>
      <trkpt lat="44.73887" lon="6.84681">
        <ele>2026.7</ele>
        <time>2026-03-23T09:15:11Z</time>
      </trkpt>
      <trkpt lat="44.73887" lon="6.84681">
        <ele>2026.8</ele>
        <time>2026-03-23T09:15:12Z</time>
      </trkpt>
      <trkpt lat="44.73888" lon="6.8468">
        <ele>2026.8</ele>
        <time>2026-03-23T09:15:13Z</time>
      </trkpt>
      <trkpt lat="44.73889" lon="6.8468">
        <ele>2026.8</ele>
        <time>2026-03-23T09:15:14Z</time>
      </trkpt>
      <trkpt lat="44.7389" lon="6.8468">
        <ele>2025.7</ele>
        <time>2026-03-23T09:15:15Z</time>
      </trkpt>
      <trkpt lat="44.7389" lon="6.8468">
        <ele>2025.8</ele>
        <time>2026-03-23T09:15:16Z</time>
      </trkpt>
      <trkpt lat="44.73891" lon="6.84679">
        <ele>2025.8</ele>
        <time>2026-03-23T09:15:17Z</time>
      </trkpt>
      <trkpt lat="44.73892" lon="6.84679">
        <ele>2025.8</ele>
        <time>2026-03-23T09:15:18Z</time>
      </trkpt>
      <trkpt lat="44.73894" lon="6.84679">
        <ele>2025.9</ele>
        <time>2026-03-23T09:15:19Z</time>
      </trkpt>
      <trkpt lat="44.73895" lon="6.84679">
        <ele>2025.9</ele>
        <time>2026-03-23T09:15:20Z</time>
      </trkpt>
      <trkpt lat="44.73894" lon="6.84679">
        <ele>2025.9</ele>
        <time>2026-03-23T09:15:21Z</time>
      </trkpt>
      <trkpt lat="44.73894" lon="6.8468">
        <ele>2025.9</ele>
        <time>2026-03-23T09:15:22Z</time>
      </trkpt>
      <trkpt lat="44.73893" lon="6.84681">
        <ele>2027</ele>
        <time>2026-03-23T09:15:24Z</time>
      </trkpt>
      <trkpt lat="44.73893" lon="6.84681">
        <ele>2026.9</ele>
        <time>2026-03-23T09:15:25Z</time>
      </trkpt>
      <trkpt lat="44.73892" lon="6.84682">
        <ele>2026.9</ele>
        <time>2026-03-23T09:15:26Z</time>
      </trkpt>
      <trkpt lat="44.73892" lon="6.84683">
        <ele>2026.9</ele>
        <time>2026-03-23T09:15:27Z</time>
      </trkpt>
      <trkpt lat="44.73892" lon="6.84684">
        <ele>2026.9</ele>
        <time>2026-03-23T09:15:28Z</time>
      </trkpt>
      <trkpt lat="44.73891" lon="6.84684">
        <ele>2028</ele>
        <time>2026-03-23T09:15:29Z</time>
      </trkpt>
      <trkpt lat="44.73891" lon="6.84685">
        <ele>2028</ele>
        <time>2026-03-23T09:15:30Z</time>
      </trkpt>
      <trkpt lat="44.7389" lon="6.84686">
        <ele>2028</ele>
        <time>2026-03-23T09:15:31Z</time>
      </trkpt>
      <trkpt lat="44.7389" lon="6.84686">
        <ele>2028</ele>
        <time>2026-03-23T09:15:32Z</time>
      </trkpt>
      <trkpt lat="44.7389" lon="6.84687">
        <ele>2027.9</ele>
        <time>2026-03-23T09:15:33Z</time>
      </trkpt>
      <trkpt lat="44.7389" lon="6.84688">
        <ele>2027.9</ele>
        <time>2026-03-23T09:15:34Z</time>
      </trkpt>
      <trkpt lat="44.73889" lon="6.84688">
        <ele>2027.9</ele>
        <time>2026-03-23T09:15:35Z</time>
      </trkpt>
      <trkpt lat="44.73889" lon="6.84689">
        <ele>2029</ele>
        <time>2026-03-23T09:15:36Z</time>
      </trkpt>
      <trkpt lat="44.73889" lon="6.84689">
        <ele>2029</ele>
        <time>2026-03-23T09:15:37Z</time>
      </trkpt>
      <trkpt lat="44.73889" lon="6.84689">
        <ele>2029</ele>
        <time>2026-03-23T09:15:38Z</time>
      </trkpt>
      <trkpt lat="44.73888" lon="6.8469">
        <ele>2029</ele>
        <time>2026-03-23T09:15:39Z</time>
      </trkpt>
      <trkpt lat="44.73888" lon="6.8469">
        <ele>2029</ele>
        <time>2026-03-23T09:15:40Z</time>
      </trkpt>
      <trkpt lat="44.73888" lon="6.8469">
        <ele>2029</ele>
        <time>2026-03-23T09:15:41Z</time>
      </trkpt>
      <trkpt lat="44.73888" lon="6.8469">
        <ele>2029</ele>
        <time>2026-03-23T09:15:42Z</time>
      </trkpt>
      <trkpt lat="44.73887" lon="6.84691">
        <ele>2029</ele>
        <time>2026-03-23T09:15:43Z</time>
      </trkpt>
      <trkpt lat="44.73887" lon="6.84691">
        <ele>2029</ele>
        <time>2026-03-23T09:15:44Z</time>
      </trkpt>
      <trkpt lat="44.73887" lon="6.84691">
        <ele>2029</ele>
        <time>2026-03-23T09:15:45Z</time>
      </trkpt>
      <trkpt lat="44.73887" lon="6.84692">
        <ele>2028.9</ele>
        <time>2026-03-23T09:15:46Z</time>
      </trkpt>
      <trkpt lat="44.73886" lon="6.84692">
        <ele>2028.9</ele>
        <time>2026-03-23T09:15:47Z</time>
      </trkpt>
      <trkpt lat="44.73886" lon="6.84693">
        <ele>2028.9</ele>
        <time>2026-03-23T09:15:48Z</time>
      </trkpt>
      <trkpt lat="44.73885" lon="6.84693">
        <ele>2029.9</ele>
        <time>2026-03-23T09:15:49Z</time>
      </trkpt>
      <trkpt lat="44.73885" lon="6.84694">
        <ele>2029.9</ele>
        <time>2026-03-23T09:15:50Z</time>
      </trkpt>
      <trkpt lat="44.73884" lon="6.84695">
        <ele>2029.9</ele>
        <time>2026-03-23T09:15:51Z</time>
      </trkpt>
      <trkpt lat="44.73883" lon="6.84695">
        <ele>2029.8</ele>
        <time>2026-03-23T09:15:52Z</time>
      </trkpt>
      <trkpt lat="44.73883" lon="6.84696">
        <ele>2029.8</ele>
        <time>2026-03-23T09:15:53Z</time>
      </trkpt>
      <trkpt lat="44.73882" lon="6.84697">
        <ele>2029.8</ele>
        <time>2026-03-23T09:15:54Z</time>
      </trkpt>
      <trkpt lat="44.73881" lon="6.84697">
        <ele>2029.8</ele>
        <time>2026-03-23T09:15:56Z</time>
      </trkpt>
      <trkpt lat="44.73881" lon="6.84697">
        <ele>2030.8</ele>
        <time>2026-03-23T09:15:57Z</time>
      </trkpt>
      <trkpt lat="44.73881" lon="6.84698">
        <ele>2030.7</ele>
        <time>2026-03-23T09:15:58Z</time>
      </trkpt>
      <trkpt lat="44.7388" lon="6.84698">
        <ele>2030.7</ele>
        <time>2026-03-23T09:15:59Z</time>
      </trkpt>
      <trkpt lat="44.7388" lon="6.84698">
        <ele>2030.7</ele>
        <time>2026-03-23T09:16:00Z</time>
      </trkpt>
      <trkpt lat="44.7388" lon="6.84699">
        <ele>2030.7</ele>
        <time>2026-03-23T09:16:01Z</time>
      </trkpt>
      <trkpt lat="44.7388" lon="6.84699">
        <ele>2030.7</ele>
        <time>2026-03-23T09:16:02Z</time>
      </trkpt>
      <trkpt lat="44.7388" lon="6.847">
        <ele>2030.7</ele>
        <time>2026-03-23T09:16:03Z</time>
      </trkpt>
      <trkpt lat="44.73879" lon="6.847">
        <ele>2030.7</ele>
        <time>2026-03-23T09:16:04Z</time>
      </trkpt>
      <trkpt lat="44.73879" lon="6.847">
        <ele>2030.7</ele>
        <time>2026-03-23T09:16:05Z</time>
      </trkpt>
      <trkpt lat="44.73879" lon="6.847">
        <ele>2030.7</ele>
        <time>2026-03-23T09:16:06Z</time>
      </trkpt>
      <trkpt lat="44.73879" lon="6.847">
        <ele>2030.7</ele>
        <time>2026-03-23T09:16:07Z</time>
      </trkpt>
      <trkpt lat="44.73879" lon="6.84701">
        <ele>2030.7</ele>
        <time>2026-03-23T09:16:08Z</time>
      </trkpt>
      <trkpt lat="44.73879" lon="6.84701">
        <ele>2030.7</ele>
        <time>2026-03-23T09:16:09Z</time>
      </trkpt>
      <trkpt lat="44.73878" lon="6.84702">
        <ele>2031.7</ele>
        <time>2026-03-23T09:16:11Z</time>
      </trkpt>
      <trkpt lat="44.73878" lon="6.84702">
        <ele>2031.7</ele>
        <time>2026-03-23T09:16:12Z</time>
      </trkpt>
      <trkpt lat="44.73878" lon="6.84702">
        <ele>2031.7</ele>
        <time>2026-03-23T09:16:13Z</time>
      </trkpt>
      <trkpt lat="44.73878" lon="6.84702">
        <ele>2031.7</ele>
        <time>2026-03-23T09:16:14Z</time>
      </trkpt>
      <trkpt lat="44.73879" lon="6.84702">
        <ele>2031.7</ele>
        <time>2026-03-23T09:16:16Z</time>
      </trkpt>
      <trkpt lat="44.73879" lon="6.84702">
        <ele>2031.7</ele>
        <time>2026-03-23T09:16:17Z</time>
      </trkpt>
      <trkpt lat="44.7388" lon="6.84702">
        <ele>2031.7</ele>
        <time>2026-03-23T09:16:18Z</time>
      </trkpt>
      <trkpt lat="44.7388" lon="6.84702">
        <ele>2031.7</ele>
        <time>2026-03-23T09:16:19Z</time>
      </trkpt>
      <trkpt lat="44.73881" lon="6.84702">
        <ele>2031.7</ele>
        <time>2026-03-23T09:16:21Z</time>
      </trkpt>
      <trkpt lat="44.73881" lon="6.84702">
        <ele>2031.7</ele>
        <time>2026-03-23T09:16:22Z</time>
      </trkpt>
      <trkpt lat="44.73882" lon="6.84702">
        <ele>2031.7</ele>
        <time>2026-03-23T09:16:23Z</time>
      </trkpt>
      <trkpt lat="44.73882" lon="6.84701">
        <ele>2030.8</ele>
        <time>2026-03-23T09:16:24Z</time>
      </trkpt>
      <trkpt lat="44.73882" lon="6.84701">
        <ele>2030.8</ele>
        <time>2026-03-23T09:16:25Z</time>
      </trkpt>
      <trkpt lat="44.73883" lon="6.84701">
        <ele>2030.8</ele>
        <time>2026-03-23T09:16:26Z</time>
      </trkpt>
      <trkpt lat="44.73884" lon="6.84701">
        <ele>2030.8</ele>
        <time>2026-03-23T09:16:27Z</time>
      </trkpt>
      <trkpt lat="44.73884" lon="6.84701">
        <ele>2030.9</ele>
        <time>2026-03-23T09:16:28Z</time>
      </trkpt>
      <trkpt lat="44.73885" lon="6.84702">
        <ele>2031.8</ele>
        <time>2026-03-23T09:16:29Z</time>
      </trkpt>
      <trkpt lat="44.73885" lon="6.84702">
        <ele>2031.8</ele>
        <time>2026-03-23T09:16:30Z</time>
      </trkpt>
      <trkpt lat="44.73886" lon="6.84702">
        <ele>2031.8</ele>
        <time>2026-03-23T09:16:31Z</time>
      </trkpt>
      <trkpt lat="44.73886" lon="6.84702">
        <ele>2031.8</ele>
        <time>2026-03-23T09:16:32Z</time>
      </trkpt>
      <trkpt lat="44.73887" lon="6.84702">
        <ele>2031.8</ele>
        <time>2026-03-23T09:16:33Z</time>
      </trkpt>
      <trkpt lat="44.73887" lon="6.84703">
        <ele>2031.8</ele>
        <time>2026-03-23T09:16:34Z</time>
      </trkpt>
      <trkpt lat="44.73888" lon="6.84703">
        <ele>2031.8</ele>
        <time>2026-03-23T09:16:35Z</time>
      </trkpt>
      <trkpt lat="44.73889" lon="6.84703">
        <ele>2031.8</ele>
        <time>2026-03-23T09:16:36Z</time>
      </trkpt>
      <trkpt lat="44.73889" lon="6.84704">
        <ele>2031.8</ele>
        <time>2026-03-23T09:16:37Z</time>
      </trkpt>
      <trkpt lat="44.73889" lon="6.84704">
        <ele>2031.8</ele>
        <time>2026-03-23T09:16:38Z</time>
      </trkpt>
      <trkpt lat="44.7389" lon="6.84705">
        <ele>2031.8</ele>
        <time>2026-03-23T09:16:39Z</time>
      </trkpt>
      <trkpt lat="44.7389" lon="6.84705">
        <ele>2031.8</ele>
        <time>2026-03-23T09:16:40Z</time>
      </trkpt>
      <trkpt lat="44.7389" lon="6.84706">
        <ele>2031.8</ele>
        <time>2026-03-23T09:16:41Z</time>
      </trkpt>
      <trkpt lat="44.73891" lon="6.84706">
        <ele>2032.6</ele>
        <time>2026-03-23T09:16:42Z</time>
      </trkpt>
      <trkpt lat="44.73891" lon="6.84707">
        <ele>2032.6</ele>
        <time>2026-03-23T09:16:43Z</time>
      </trkpt>
      <trkpt lat="44.73892" lon="6.84707">
        <ele>2032.6</ele>
        <time>2026-03-23T09:16:44Z</time>
      </trkpt>
      <trkpt lat="44.73892" lon="6.84708">
        <ele>2032.6</ele>
        <time>2026-03-23T09:16:45Z</time>
      </trkpt>
      <trkpt lat="44.73893" lon="6.84709">
        <ele>2032.6</ele>
        <time>2026-03-23T09:16:46Z</time>
      </trkpt>
      <trkpt lat="44.73893" lon="6.8471">
        <ele>2032.6</ele>
        <time>2026-03-23T09:16:47Z</time>
      </trkpt>
      <trkpt lat="44.73893" lon="6.84711">
        <ele>2033.5</ele>
        <time>2026-03-23T09:16:48Z</time>
      </trkpt>
      <trkpt lat="44.73893" lon="6.84712">
        <ele>2033.5</ele>
        <time>2026-03-23T09:16:49Z</time>
      </trkpt>
      <trkpt lat="44.73893" lon="6.84713">
        <ele>2033.5</ele>
        <time>2026-03-23T09:16:50Z</time>
      </trkpt>
      <trkpt lat="44.73893" lon="6.84714">
        <ele>2033.5</ele>
        <time>2026-03-23T09:16:51Z</time>
      </trkpt>
      <trkpt lat="44.73892" lon="6.84715">
        <ele>2034.3</ele>
        <time>2026-03-23T09:16:52Z</time>
      </trkpt>
      <trkpt lat="44.73892" lon="6.84716">
        <ele>2034.3</ele>
        <time>2026-03-23T09:16:53Z</time>
      </trkpt>
      <trkpt lat="44.73892" lon="6.84717">
        <ele>2034.3</ele>
        <time>2026-03-23T09:16:55Z</time>
      </trkpt>
      <trkpt lat="44.73892" lon="6.84718">
        <ele>2034.3</ele>
        <time>2026-03-23T09:16:56Z</time>
      </trkpt>
      <trkpt lat="44.73892" lon="6.84718">
        <ele>2034.3</ele>
        <time>2026-03-23T09:16:57Z</time>
      </trkpt>
      <trkpt lat="44.73891" lon="6.84719">
        <ele>2035.2</ele>
        <time>2026-03-23T09:16:58Z</time>
      </trkpt>
      <trkpt lat="44.73891" lon="6.8472">
        <ele>2035.2</ele>
        <time>2026-03-23T09:16:59Z</time>
      </trkpt>
      <trkpt lat="44.73891" lon="6.84721">
        <ele>2035.2</ele>
        <time>2026-03-23T09:17:00Z</time>
      </trkpt>
      <trkpt lat="44.73891" lon="6.84721">
        <ele>2035.2</ele>
        <time>2026-03-23T09:17:01Z</time>
      </trkpt>
      <trkpt lat="44.7389" lon="6.84722">
        <ele>2035.2</ele>
        <time>2026-03-23T09:17:02Z</time>
      </trkpt>
      <trkpt lat="44.7389" lon="6.84723">
        <ele>2036.2</ele>
        <time>2026-03-23T09:17:03Z</time>
      </trkpt>
      <trkpt lat="44.73889" lon="6.84724">
        <ele>2036.2</ele>
        <time>2026-03-23T09:17:04Z</time>
      </trkpt>
      <trkpt lat="44.73889" lon="6.84725">
        <ele>2036.2</ele>
        <time>2026-03-23T09:17:05Z</time>
      </trkpt>
      <trkpt lat="44.73889" lon="6.84726">
        <ele>2036.2</ele>
        <time>2026-03-23T09:17:06Z</time>
      </trkpt>
      <trkpt lat="44.73888" lon="6.84727">
        <ele>2036.2</ele>
        <time>2026-03-23T09:17:07Z</time>
      </trkpt>
      <trkpt lat="44.73888" lon="6.84728">
        <ele>2037.1</ele>
        <time>2026-03-23T09:17:08Z</time>
      </trkpt>
      <trkpt lat="44.73888" lon="6.84728">
        <ele>2037.1</ele>
        <time>2026-03-23T09:17:09Z</time>
      </trkpt>
      <trkpt lat="44.73887" lon="6.84729">
        <ele>2037.1</ele>
        <time>2026-03-23T09:17:10Z</time>
      </trkpt>
      <trkpt lat="44.73887" lon="6.8473">
        <ele>2037.1</ele>
        <time>2026-03-23T09:17:11Z</time>
      </trkpt>
      <trkpt lat="44.73887" lon="6.84731">
        <ele>2037.2</ele>
        <time>2026-03-23T09:17:12Z</time>
      </trkpt>
      <trkpt lat="44.73886" lon="6.84733">
        <ele>2038</ele>
        <time>2026-03-23T09:17:13Z</time>
      </trkpt>
      <trkpt lat="44.73886" lon="6.84733">
        <ele>2038</ele>
        <time>2026-03-23T09:17:14Z</time>
      </trkpt>
      <trkpt lat="44.73886" lon="6.84734">
        <ele>2038</ele>
        <time>2026-03-23T09:17:15Z</time>
      </trkpt>
      <trkpt lat="44.73886" lon="6.84735">
        <ele>2038</ele>
        <time>2026-03-23T09:17:16Z</time>
      </trkpt>
      <trkpt lat="44.73886" lon="6.84736">
        <ele>2038</ele>
        <time>2026-03-23T09:17:17Z</time>
      </trkpt>
      <trkpt lat="44.73885" lon="6.84736">
        <ele>2038.9</ele>
        <time>2026-03-23T09:17:18Z</time>
      </trkpt>
      <trkpt lat="44.73885" lon="6.84737">
        <ele>2038.9</ele>
        <time>2026-03-23T09:17:20Z</time>
      </trkpt>
      <trkpt lat="44.73885" lon="6.84738">
        <ele>2038.9</ele>
        <time>2026-03-23T09:17:21Z</time>
      </trkpt>
      <trkpt lat="44.73885" lon="6.84739">
        <ele>2038.9</ele>
        <time>2026-03-23T09:17:22Z</time>
      </trkpt>
      <trkpt lat="44.73885" lon="6.8474">
        <ele>2039.7</ele>
        <time>2026-03-23T09:17:23Z</time>
      </trkpt>
      <trkpt lat="44.73884" lon="6.84742">
        <ele>2039.6</ele>
        <time>2026-03-23T09:17:24Z</time>
      </trkpt>
      <trkpt lat="44.73884" lon="6.84743">
        <ele>2039.8</ele>
        <time>2026-03-23T09:17:25Z</time>
      </trkpt>
      <trkpt lat="44.73883" lon="6.84744">
        <ele>2039.8</ele>
        <time>2026-03-23T09:17:27Z</time>
      </trkpt>
      <trkpt lat="44.73883" lon="6.84746">
        <ele>2040.6</ele>
        <time>2026-03-23T09:17:28Z</time>
      </trkpt>
      <trkpt lat="44.73882" lon="6.84747">
        <ele>2040.6</ele>
        <time>2026-03-23T09:17:29Z</time>
      </trkpt>
      <trkpt lat="44.73882" lon="6.84747">
        <ele>2040.6</ele>
        <time>2026-03-23T09:17:30Z</time>
      </trkpt>
      <trkpt lat="44.73882" lon="6.84748">
        <ele>2040.6</ele>
        <time>2026-03-23T09:17:31Z</time>
      </trkpt>
      <trkpt lat="44.73881" lon="6.84749">
        <ele>2041.4</ele>
        <time>2026-03-23T09:17:33Z</time>
      </trkpt>
      <trkpt lat="44.73881" lon="6.8475">
        <ele>2041.4</ele>
        <time>2026-03-23T09:17:34Z</time>
      </trkpt>
      <trkpt lat="44.73881" lon="6.84751">
        <ele>2041.5</ele>
        <time>2026-03-23T09:17:35Z</time>
      </trkpt>
      <trkpt lat="44.7388" lon="6.84751">
        <ele>2041.5</ele>
        <time>2026-03-23T09:17:37Z</time>
      </trkpt>
      <trkpt lat="44.7388" lon="6.84752">
        <ele>2041.5</ele>
        <time>2026-03-23T09:17:38Z</time>
      </trkpt>
      <trkpt lat="44.73879" lon="6.84753">
        <ele>2041.5</ele>
        <time>2026-03-23T09:17:39Z</time>
      </trkpt>
      <trkpt lat="44.73879" lon="6.84753">
        <ele>2042.3</ele>
        <time>2026-03-23T09:17:40Z</time>
      </trkpt>
      <trkpt lat="44.73879" lon="6.84754">
        <ele>2042.3</ele>
        <time>2026-03-23T09:17:41Z</time>
      </trkpt>
      <trkpt lat="44.73878" lon="6.84755">
        <ele>2042.3</ele>
        <time>2026-03-23T09:17:42Z</time>
      </trkpt>
      <trkpt lat="44.73878" lon="6.84756">
        <ele>2042.3</ele>
        <time>2026-03-23T09:17:43Z</time>
      </trkpt>
      <trkpt lat="44.73878" lon="6.84757">
        <ele>2042.4</ele>
        <time>2026-03-23T09:17:45Z</time>
      </trkpt>
      <trkpt lat="44.73877" lon="6.84758">
        <ele>2043.2</ele>
        <time>2026-03-23T09:17:46Z</time>
      </trkpt>
      <trkpt lat="44.73877" lon="6.84759">
        <ele>2043.2</ele>
        <time>2026-03-23T09:17:47Z</time>
      </trkpt>
      <trkpt lat="44.73877" lon="6.84759">
        <ele>2043.2</ele>
        <time>2026-03-23T09:17:48Z</time>
      </trkpt>
      <trkpt lat="44.73876" lon="6.8476">
        <ele>2043.2</ele>
        <time>2026-03-23T09:17:49Z</time>
      </trkpt>
      <trkpt lat="44.73876" lon="6.84761">
        <ele>2043.2</ele>
        <time>2026-03-23T09:17:50Z</time>
      </trkpt>
      <trkpt lat="44.73876" lon="6.84762">
        <ele>2044</ele>
        <time>2026-03-23T09:17:51Z</time>
      </trkpt>
      <trkpt lat="44.73875" lon="6.84762">
        <ele>2044</ele>
        <time>2026-03-23T09:17:52Z</time>
      </trkpt>
      <trkpt lat="44.73875" lon="6.84763">
        <ele>2044</ele>
        <time>2026-03-23T09:17:53Z</time>
      </trkpt>
      <trkpt lat="44.73875" lon="6.84764">
        <ele>2044.1</ele>
        <time>2026-03-23T09:17:54Z</time>
      </trkpt>
      <trkpt lat="44.73875" lon="6.84764">
        <ele>2044.1</ele>
        <time>2026-03-23T09:17:55Z</time>
      </trkpt>
      <trkpt lat="44.73874" lon="6.84764">
        <ele>2044.1</ele>
        <time>2026-03-23T09:17:57Z</time>
      </trkpt>
      <trkpt lat="44.73874" lon="6.84765">
        <ele>2044.1</ele>
        <time>2026-03-23T09:17:58Z</time>
      </trkpt>
      <trkpt lat="44.73874" lon="6.84765">
        <ele>2044.1</ele>
        <time>2026-03-23T09:17:59Z</time>
      </trkpt>
      <trkpt lat="44.73874" lon="6.84765">
        <ele>2044.1</ele>
        <time>2026-03-23T09:18:00Z</time>
      </trkpt>
      <trkpt lat="44.73873" lon="6.84766">
        <ele>2044.1</ele>
        <time>2026-03-23T09:18:01Z</time>
      </trkpt>
      <trkpt lat="44.73873" lon="6.84766">
        <ele>2045</ele>
        <time>2026-03-23T09:18:02Z</time>
      </trkpt>
      <trkpt lat="44.73873" lon="6.84767">
        <ele>2045</ele>
        <time>2026-03-23T09:18:03Z</time>
      </trkpt>
      <trkpt lat="44.73872" lon="6.84767">
        <ele>2045</ele>
        <time>2026-03-23T09:18:04Z</time>
      </trkpt>
      <trkpt lat="44.73872" lon="6.84768">
        <ele>2045</ele>
        <time>2026-03-23T09:18:05Z</time>
      </trkpt>
      <trkpt lat="44.73872" lon="6.84768">
        <ele>2045</ele>
        <time>2026-03-23T09:18:06Z</time>
      </trkpt>
      <trkpt lat="44.73871" lon="6.84769">
        <ele>2045</ele>
        <time>2026-03-23T09:18:07Z</time>
      </trkpt>
      <trkpt lat="44.73871" lon="6.84769">
        <ele>2045</ele>
        <time>2026-03-23T09:18:08Z</time>
      </trkpt>
      <trkpt lat="44.73871" lon="6.84769">
        <ele>2045</ele>
        <time>2026-03-23T09:18:09Z</time>
      </trkpt>
      <trkpt lat="44.7387" lon="6.8477">
        <ele>2045</ele>
        <time>2026-03-23T09:18:10Z</time>
      </trkpt>
      <trkpt lat="44.73869" lon="6.84771">
        <ele>2045.9</ele>
        <time>2026-03-23T09:18:11Z</time>
      </trkpt>
      <trkpt lat="44.73866" lon="6.84772">
        <ele>2046</ele>
        <time>2026-03-23T09:18:12Z</time>
      </trkpt>
      <trkpt lat="44.73865" lon="6.84772">
        <ele>2046</ele>
        <time>2026-03-23T09:18:13Z</time>
      </trkpt>
      <trkpt lat="44.73864" lon="6.84773">
        <ele>2046</ele>
        <time>2026-03-23T09:18:14Z</time>
      </trkpt>
      <trkpt lat="44.73863" lon="6.84773">
        <ele>2046</ele>
        <time>2026-03-23T09:18:16Z</time>
      </trkpt>
      <trkpt lat="44.73861" lon="6.84773">
        <ele>2046.1</ele>
        <time>2026-03-23T09:18:17Z</time>
      </trkpt>
      <trkpt lat="44.73861" lon="6.84774">
        <ele>2046.1</ele>
        <time>2026-03-23T09:18:19Z</time>
      </trkpt>
      <trkpt lat="44.7386" lon="6.84774">
        <ele>2046.1</ele>
        <time>2026-03-23T09:18:20Z</time>
      </trkpt>
      <trkpt lat="44.73859" lon="6.84775">
        <ele>2047</ele>
        <time>2026-03-23T09:18:21Z</time>
      </trkpt>
      <trkpt lat="44.73859" lon="6.84775">
        <ele>2047</ele>
        <time>2026-03-23T09:18:22Z</time>
      </trkpt>
      <trkpt lat="44.73858" lon="6.84776">
        <ele>2047</ele>
        <time>2026-03-23T09:18:23Z</time>
      </trkpt>
      <trkpt lat="44.73857" lon="6.84776">
        <ele>2047</ele>
        <time>2026-03-23T09:18:24Z</time>
      </trkpt>
      <trkpt lat="44.73856" lon="6.84777">
        <ele>2047</ele>
        <time>2026-03-23T09:18:25Z</time>
      </trkpt>
      <trkpt lat="44.73855" lon="6.84777">
        <ele>2047</ele>
        <time>2026-03-23T09:18:26Z</time>
      </trkpt>
      <trkpt lat="44.73855" lon="6.84777">
        <ele>2047</ele>
        <time>2026-03-23T09:18:27Z</time>
      </trkpt>
      <trkpt lat="44.73854" lon="6.84778">
        <ele>2047</ele>
        <time>2026-03-23T09:18:28Z</time>
      </trkpt>
      <trkpt lat="44.73854" lon="6.84778">
        <ele>2047</ele>
        <time>2026-03-23T09:18:29Z</time>
      </trkpt>
      <trkpt lat="44.73853" lon="6.84779">
        <ele>2047.9</ele>
        <time>2026-03-23T09:18:30Z</time>
      </trkpt>
      <trkpt lat="44.73852" lon="6.84779">
        <ele>2047.9</ele>
        <time>2026-03-23T09:18:31Z</time>
      </trkpt>
      <trkpt lat="44.73851" lon="6.8478">
        <ele>2047.9</ele>
        <time>2026-03-23T09:18:32Z</time>
      </trkpt>
      <trkpt lat="44.73851" lon="6.8478">
        <ele>2047.9</ele>
        <time>2026-03-23T09:18:33Z</time>
      </trkpt>
      <trkpt lat="44.7385" lon="6.84781">
        <ele>2047.9</ele>
        <time>2026-03-23T09:18:34Z</time>
      </trkpt>
      <trkpt lat="44.73849" lon="6.84782">
        <ele>2047.9</ele>
        <time>2026-03-23T09:18:35Z</time>
      </trkpt>
      <trkpt lat="44.73849" lon="6.84782">
        <ele>2047.9</ele>
        <time>2026-03-23T09:18:36Z</time>
      </trkpt>
      <trkpt lat="44.73849" lon="6.84782">
        <ele>2047.9</ele>
        <time>2026-03-23T09:18:38Z</time>
      </trkpt>
      <trkpt lat="44.73848" lon="6.84782">
        <ele>2047.9</ele>
        <time>2026-03-23T09:18:39Z</time>
      </trkpt>
      <trkpt lat="44.73848" lon="6.84783">
        <ele>2047.9</ele>
        <time>2026-03-23T09:18:40Z</time>
      </trkpt>
      <trkpt lat="44.73848" lon="6.84783">
        <ele>2048.7</ele>
        <time>2026-03-23T09:18:41Z</time>
      </trkpt>
      <trkpt lat="44.73847" lon="6.84783">
        <ele>2048.7</ele>
        <time>2026-03-23T09:18:42Z</time>
      </trkpt>
      <trkpt lat="44.73847" lon="6.84784">
        <ele>2048.7</ele>
        <time>2026-03-23T09:18:43Z</time>
      </trkpt>
      <trkpt lat="44.73846" lon="6.84784">
        <ele>2048.7</ele>
        <time>2026-03-23T09:18:44Z</time>
      </trkpt>
      <trkpt lat="44.73845" lon="6.84784">
        <ele>2048.7</ele>
        <time>2026-03-23T09:18:45Z</time>
      </trkpt>
      <trkpt lat="44.73844" lon="6.84784">
        <ele>2048.6</ele>
        <time>2026-03-23T09:18:46Z</time>
      </trkpt>
      <trkpt lat="44.73843" lon="6.84785">
        <ele>2048.6</ele>
        <time>2026-03-23T09:18:47Z</time>
      </trkpt>
      <trkpt lat="44.73842" lon="6.84786">
        <ele>2048.6</ele>
        <time>2026-03-23T09:18:49Z</time>
      </trkpt>
      <trkpt lat="44.73841" lon="6.84786">
        <ele>2048.4</ele>
        <time>2026-03-23T09:18:51Z</time>
      </trkpt>
      <trkpt lat="44.7384" lon="6.84786">
        <ele>2048.4</ele>
        <time>2026-03-23T09:18:52Z</time>
      </trkpt>
      <trkpt lat="44.7384" lon="6.84787">
        <ele>2048.4</ele>
        <time>2026-03-23T09:18:53Z</time>
      </trkpt>
      <trkpt lat="44.73838" lon="6.84788">
        <ele>2049.2</ele>
        <time>2026-03-23T09:18:54Z</time>
      </trkpt>
      <trkpt lat="44.73838" lon="6.84788">
        <ele>2049</ele>
        <time>2026-03-23T09:18:55Z</time>
      </trkpt>
      <trkpt lat="44.73837" lon="6.84789">
        <ele>2049</ele>
        <time>2026-03-23T09:18:56Z</time>
      </trkpt>
      <trkpt lat="44.73836" lon="6.8479">
        <ele>2049</ele>
        <time>2026-03-23T09:18:57Z</time>
      </trkpt>
      <trkpt lat="44.73836" lon="6.8479">
        <ele>2049</ele>
        <time>2026-03-23T09:18:58Z</time>
      </trkpt>
      <trkpt lat="44.73835" lon="6.84791">
        <ele>2049</ele>
        <time>2026-03-23T09:18:59Z</time>
      </trkpt>
      <trkpt lat="44.73834" lon="6.84792">
        <ele>2049.6</ele>
        <time>2026-03-23T09:19:00Z</time>
      </trkpt>
      <trkpt lat="44.73834" lon="6.84793">
        <ele>2049.6</ele>
        <time>2026-03-23T09:19:01Z</time>
      </trkpt>
      <trkpt lat="44.73833" lon="6.84794">
        <ele>2049.6</ele>
        <time>2026-03-23T09:19:02Z</time>
      </trkpt>
      <trkpt lat="44.73833" lon="6.84794">
        <ele>2049.6</ele>
        <time>2026-03-23T09:19:03Z</time>
      </trkpt>
      <trkpt lat="44.73833" lon="6.84795">
        <ele>2049.6</ele>
        <time>2026-03-23T09:19:04Z</time>
      </trkpt>
      <trkpt lat="44.73832" lon="6.84795">
        <ele>2049.6</ele>
        <time>2026-03-23T09:19:05Z</time>
      </trkpt>
      <trkpt lat="44.73832" lon="6.84796">
        <ele>2049.3</ele>
        <time>2026-03-23T09:19:06Z</time>
      </trkpt>
      <trkpt lat="44.73831" lon="6.84796">
        <ele>2050.1</ele>
        <time>2026-03-23T09:19:07Z</time>
      </trkpt>
      <trkpt lat="44.73831" lon="6.84797">
        <ele>2050.1</ele>
        <time>2026-03-23T09:19:08Z</time>
      </trkpt>
      <trkpt lat="44.7383" lon="6.84798">
        <ele>2050.1</ele>
        <time>2026-03-23T09:19:09Z</time>
      </trkpt>
      <trkpt lat="44.7383" lon="6.84799">
        <ele>2050.1</ele>
        <time>2026-03-23T09:19:10Z</time>
      </trkpt>
      <trkpt lat="44.7383" lon="6.848">
        <ele>2050.1</ele>
        <time>2026-03-23T09:19:11Z</time>
      </trkpt>
      <trkpt lat="44.7383" lon="6.84801">
        <ele>2050.9</ele>
        <time>2026-03-23T09:19:12Z</time>
      </trkpt>
      <trkpt lat="44.7383" lon="6.84802">
        <ele>2050.9</ele>
        <time>2026-03-23T09:19:13Z</time>
      </trkpt>
      <trkpt lat="44.7383" lon="6.84802">
        <ele>2050.9</ele>
        <time>2026-03-23T09:19:14Z</time>
      </trkpt>
      <trkpt lat="44.7383" lon="6.84803">
        <ele>2050.9</ele>
        <time>2026-03-23T09:19:15Z</time>
      </trkpt>
      <trkpt lat="44.7383" lon="6.84803">
        <ele>2050.9</ele>
        <time>2026-03-23T09:19:16Z</time>
      </trkpt>
      <trkpt lat="44.7383" lon="6.84804">
        <ele>2050.9</ele>
        <time>2026-03-23T09:19:17Z</time>
      </trkpt>
      <trkpt lat="44.7383" lon="6.84805">
        <ele>2051.8</ele>
        <time>2026-03-23T09:19:18Z</time>
      </trkpt>
      <trkpt lat="44.73829" lon="6.84805">
        <ele>2051.8</ele>
        <time>2026-03-23T09:19:20Z</time>
      </trkpt>
      <trkpt lat="44.73829" lon="6.84806">
        <ele>2051.8</ele>
        <time>2026-03-23T09:19:21Z</time>
      </trkpt>
      <trkpt lat="44.73829" lon="6.84806">
        <ele>2051.8</ele>
        <time>2026-03-23T09:19:22Z</time>
      </trkpt>
      <trkpt lat="44.73829" lon="6.84807">
        <ele>2051.6</ele>
        <time>2026-03-23T09:19:23Z</time>
      </trkpt>
      <trkpt lat="44.73828" lon="6.84808">
        <ele>2051.6</ele>
        <time>2026-03-23T09:19:24Z</time>
      </trkpt>
      <trkpt lat="44.73828" lon="6.8481">
        <ele>2052.4</ele>
        <time>2026-03-23T09:19:25Z</time>
      </trkpt>
      <trkpt lat="44.73828" lon="6.84811">
        <ele>2052.4</ele>
        <time>2026-03-23T09:19:26Z</time>
      </trkpt>
      <trkpt lat="44.73828" lon="6.84811">
        <ele>2052.4</ele>
        <time>2026-03-23T09:19:27Z</time>
      </trkpt>
      <trkpt lat="44.73827" lon="6.84812">
        <ele>2052.4</ele>
        <time>2026-03-23T09:19:28Z</time>
      </trkpt>
      <trkpt lat="44.73827" lon="6.84813">
        <ele>2053.3</ele>
        <time>2026-03-23T09:19:29Z</time>
      </trkpt>
      <trkpt lat="44.73827" lon="6.84814">
        <ele>2053.3</ele>
        <time>2026-03-23T09:19:30Z</time>
      </trkpt>
      <trkpt lat="44.73827" lon="6.84815">
        <ele>2053.3</ele>
        <time>2026-03-23T09:19:31Z</time>
      </trkpt>
      <trkpt lat="44.73826" lon="6.84815">
        <ele>2053.3</ele>
        <time>2026-03-23T09:19:32Z</time>
      </trkpt>
      <trkpt lat="44.73826" lon="6.84816">
        <ele>2053.3</ele>
        <time>2026-03-23T09:19:33Z</time>
      </trkpt>
      <trkpt lat="44.73826" lon="6.84817">
        <ele>2053.3</ele>
        <time>2026-03-23T09:19:34Z</time>
      </trkpt>
      <trkpt lat="44.73826" lon="6.84818">
        <ele>2054.1</ele>
        <time>2026-03-23T09:19:35Z</time>
      </trkpt>
      <trkpt lat="44.73826" lon="6.84818">
        <ele>2054.1</ele>
        <time>2026-03-23T09:19:36Z</time>
      </trkpt>
      <trkpt lat="44.73826" lon="6.84819">
        <ele>2053.9</ele>
        <time>2026-03-23T09:19:37Z</time>
      </trkpt>
      <trkpt lat="44.73826" lon="6.84819">
        <ele>2053.9</ele>
        <time>2026-03-23T09:19:38Z</time>
      </trkpt>
      <trkpt lat="44.73826" lon="6.8482">
        <ele>2053.9</ele>
        <time>2026-03-23T09:19:39Z</time>
      </trkpt>
      <trkpt lat="44.73826" lon="6.84821">
        <ele>2053.9</ele>
        <time>2026-03-23T09:19:40Z</time>
      </trkpt>
      <trkpt lat="44.73826" lon="6.84822">
        <ele>2053.9</ele>
        <time>2026-03-23T09:19:41Z</time>
      </trkpt>
      <trkpt lat="44.73826" lon="6.84823">
        <ele>2054.7</ele>
        <time>2026-03-23T09:19:42Z</time>
      </trkpt>
      <trkpt lat="44.73826" lon="6.84824">
        <ele>2054.7</ele>
        <time>2026-03-23T09:19:43Z</time>
      </trkpt>
      <trkpt lat="44.73826" lon="6.84824">
        <ele>2054.9</ele>
        <time>2026-03-23T09:19:44Z</time>
      </trkpt>
      <trkpt lat="44.73826" lon="6.84825">
        <ele>2054.9</ele>
        <time>2026-03-23T09:19:45Z</time>
      </trkpt>
      <trkpt lat="44.73826" lon="6.84826">
        <ele>2054.9</ele>
        <time>2026-03-23T09:19:46Z</time>
      </trkpt>
      <trkpt lat="44.73827" lon="6.84827">
        <ele>2055.7</ele>
        <time>2026-03-23T09:19:47Z</time>
      </trkpt>
      <trkpt lat="44.73827" lon="6.84828">
        <ele>2055.7</ele>
        <time>2026-03-23T09:19:48Z</time>
      </trkpt>
      <trkpt lat="44.73827" lon="6.84829">
        <ele>2055.7</ele>
        <time>2026-03-23T09:19:49Z</time>
      </trkpt>
      <trkpt lat="44.73827" lon="6.8483">
        <ele>2055.7</ele>
        <time>2026-03-23T09:19:51Z</time>
      </trkpt>
      <trkpt lat="44.73828" lon="6.84831">
        <ele>2056.4</ele>
        <time>2026-03-23T09:19:52Z</time>
      </trkpt>
      <trkpt lat="44.73828" lon="6.84831">
        <ele>2056.4</ele>
        <time>2026-03-23T09:19:53Z</time>
      </trkpt>
      <trkpt lat="44.73829" lon="6.84831">
        <ele>2056.5</ele>
        <time>2026-03-23T09:19:54Z</time>
      </trkpt>
      <trkpt lat="44.7383" lon="6.84831">
        <ele>2056.5</ele>
        <time>2026-03-23T09:19:55Z</time>
      </trkpt>
      <trkpt lat="44.7383" lon="6.84831">
        <ele>2056.5</ele>
        <time>2026-03-23T09:19:56Z</time>
      </trkpt>
      <trkpt lat="44.73831" lon="6.84831">
        <ele>2056.5</ele>
        <time>2026-03-23T09:19:57Z</time>
      </trkpt>
      <trkpt lat="44.73831" lon="6.8483">
        <ele>2056.5</ele>
        <time>2026-03-23T09:19:58Z</time>
      </trkpt>
      <trkpt lat="44.73832" lon="6.8483">
        <ele>2055.9</ele>
        <time>2026-03-23T09:19:59Z</time>
      </trkpt>
      <trkpt lat="44.73833" lon="6.8483">
        <ele>2055.9</ele>
        <time>2026-03-23T09:20:00Z</time>
      </trkpt>
      <trkpt lat="44.73833" lon="6.84829">
        <ele>2055.9</ele>
        <time>2026-03-23T09:20:01Z</time>
      </trkpt>
      <trkpt lat="44.73833" lon="6.84829">
        <ele>2055.9</ele>
        <time>2026-03-23T09:20:02Z</time>
      </trkpt>
      <trkpt lat="44.73834" lon="6.84828">
        <ele>2055.9</ele>
        <time>2026-03-23T09:20:03Z</time>
      </trkpt>
      <trkpt lat="44.73835" lon="6.84828">
        <ele>2055.9</ele>
        <time>2026-03-23T09:20:04Z</time>
      </trkpt>
      <trkpt lat="44.73835" lon="6.84827">
        <ele>2056</ele>
        <time>2026-03-23T09:20:05Z</time>
      </trkpt>
      <trkpt lat="44.73836" lon="6.84827">
        <ele>2056</ele>
        <time>2026-03-23T09:20:06Z</time>
      </trkpt>
      <trkpt lat="44.73836" lon="6.84827">
        <ele>2056</ele>
        <time>2026-03-23T09:20:07Z</time>
      </trkpt>
      <trkpt lat="44.73837" lon="6.84827">
        <ele>2056</ele>
        <time>2026-03-23T09:20:08Z</time>
      </trkpt>
      <trkpt lat="44.73837" lon="6.84826">
        <ele>2056</ele>
        <time>2026-03-23T09:20:09Z</time>
      </trkpt>
      <trkpt lat="44.73837" lon="6.84826">
        <ele>2055.3</ele>
        <time>2026-03-23T09:20:10Z</time>
      </trkpt>
      <trkpt lat="44.73838" lon="6.84825">
        <ele>2055.3</ele>
        <time>2026-03-23T09:20:11Z</time>
      </trkpt>
      <trkpt lat="44.73838" lon="6.84824">
        <ele>2055.3</ele>
        <time>2026-03-23T09:20:13Z</time>
      </trkpt>
      <trkpt lat="44.73838" lon="6.84824">
        <ele>2055.4</ele>
        <time>2026-03-23T09:20:14Z</time>
      </trkpt>
      <trkpt lat="44.73839" lon="6.84823">
        <ele>2055.4</ele>
        <time>2026-03-23T09:20:15Z</time>
      </trkpt>
      <trkpt lat="44.73839" lon="6.84823">
        <ele>2055.4</ele>
        <time>2026-03-23T09:20:16Z</time>
      </trkpt>
      <trkpt lat="44.73839" lon="6.84823">
        <ele>2055.4</ele>
        <time>2026-03-23T09:20:17Z</time>
      </trkpt>
      <trkpt lat="44.73839" lon="6.84823">
        <ele>2055.4</ele>
        <time>2026-03-23T09:20:18Z</time>
      </trkpt>
      <trkpt lat="44.73839" lon="6.84823">
        <ele>2055.4</ele>
        <time>2026-03-23T09:20:19Z</time>
      </trkpt>
      <trkpt lat="44.73839" lon="6.84823">
        <ele>2055.4</ele>
        <time>2026-03-23T09:20:20Z</time>
      </trkpt>
      <trkpt lat="44.7384" lon="6.84823">
        <ele>2055.4</ele>
        <time>2026-03-23T09:20:21Z</time>
      </trkpt>
      <trkpt lat="44.7384" lon="6.84822">
        <ele>2055.4</ele>
        <time>2026-03-23T09:20:22Z</time>
      </trkpt>
      <trkpt lat="44.73841" lon="6.84822">
        <ele>2055.4</ele>
        <time>2026-03-23T09:20:23Z</time>
      </trkpt>
      <trkpt lat="44.73841" lon="6.84822">
        <ele>2055.4</ele>
        <time>2026-03-23T09:20:24Z</time>
      </trkpt>
      <trkpt lat="44.73842" lon="6.84822">
        <ele>2055.5</ele>
        <time>2026-03-23T09:20:25Z</time>
      </trkpt>
      <trkpt lat="44.73842" lon="6.84822">
        <ele>2055.5</ele>
        <time>2026-03-23T09:20:26Z</time>
      </trkpt>
      <trkpt lat="44.73842" lon="6.84822">
        <ele>2054.8</ele>
        <time>2026-03-23T09:20:27Z</time>
      </trkpt>
      <trkpt lat="44.73842" lon="6.84821">
        <ele>2054.8</ele>
        <time>2026-03-23T09:20:28Z</time>
      </trkpt>
      <trkpt lat="44.73843" lon="6.84821">
        <ele>2054.8</ele>
        <time>2026-03-23T09:20:29Z</time>
      </trkpt>
      <trkpt lat="44.73843" lon="6.84821">
        <ele>2054.8</ele>
        <time>2026-03-23T09:20:30Z</time>
      </trkpt>
      <trkpt lat="44.73843" lon="6.84821">
        <ele>2054.8</ele>
        <time>2026-03-23T09:20:31Z</time>
      </trkpt>
      <trkpt lat="44.73843" lon="6.84821">
        <ele>2054.8</ele>
        <time>2026-03-23T09:20:32Z</time>
      </trkpt>
      <trkpt lat="44.73843" lon="6.84821">
        <ele>2054.8</ele>
        <time>2026-03-23T09:20:33Z</time>
      </trkpt>
      <trkpt lat="44.73843" lon="6.8482">
        <ele>2054.8</ele>
        <time>2026-03-23T09:20:34Z</time>
      </trkpt>
      <trkpt lat="44.73843" lon="6.8482">
        <ele>2054.8</ele>
        <time>2026-03-23T09:20:35Z</time>
      </trkpt>
      <trkpt lat="44.73843" lon="6.8482">
        <ele>2054.8</ele>
        <time>2026-03-23T09:20:36Z</time>
      </trkpt>
      <trkpt lat="44.73844" lon="6.8482">
        <ele>2054.7</ele>
        <time>2026-03-23T09:20:37Z</time>
      </trkpt>
      <trkpt lat="44.73844" lon="6.8482">
        <ele>2054.8</ele>
        <time>2026-03-23T09:20:39Z</time>
      </trkpt>
      <trkpt lat="44.73845" lon="6.8482">
        <ele>2054.8</ele>
        <time>2026-03-23T09:20:40Z</time>
      </trkpt>
      <trkpt lat="44.73845" lon="6.8482">
        <ele>2054.8</ele>
        <time>2026-03-23T09:20:41Z</time>
      </trkpt>
      <trkpt lat="44.73846" lon="6.8482">
        <ele>2054.8</ele>
        <time>2026-03-23T09:20:42Z</time>
      </trkpt>
      <trkpt lat="44.73846" lon="6.8482">
        <ele>2054.8</ele>
        <time>2026-03-23T09:20:43Z</time>
      </trkpt>
      <trkpt lat="44.73847" lon="6.8482">
        <ele>2054.8</ele>
        <time>2026-03-23T09:20:44Z</time>
      </trkpt>
      <trkpt lat="44.73848" lon="6.8482">
        <ele>2054.8</ele>
        <time>2026-03-23T09:20:45Z</time>
      </trkpt>
      <trkpt lat="44.73849" lon="6.8482">
        <ele>2054.8</ele>
        <time>2026-03-23T09:20:46Z</time>
      </trkpt>
      <trkpt lat="44.73849" lon="6.84821">
        <ele>2054.8</ele>
        <time>2026-03-23T09:20:47Z</time>
      </trkpt>
      <trkpt lat="44.7385" lon="6.84821">
        <ele>2054.8</ele>
        <time>2026-03-23T09:20:48Z</time>
      </trkpt>
      <trkpt lat="44.7385" lon="6.84821">
        <ele>2054.8</ele>
        <time>2026-03-23T09:20:49Z</time>
      </trkpt>
      <trkpt lat="44.73851" lon="6.84821">
        <ele>2054.8</ele>
        <time>2026-03-23T09:20:50Z</time>
      </trkpt>
      <trkpt lat="44.73852" lon="6.84822">
        <ele>2054.8</ele>
        <time>2026-03-23T09:20:51Z</time>
      </trkpt>
      <trkpt lat="44.73852" lon="6.84822">
        <ele>2055.5</ele>
        <time>2026-03-23T09:20:52Z</time>
      </trkpt>
      <trkpt lat="44.73853" lon="6.84822">
        <ele>2055.5</ele>
        <time>2026-03-23T09:20:53Z</time>
      </trkpt>
      <trkpt lat="44.73853" lon="6.84823">
        <ele>2055.5</ele>
        <time>2026-03-23T09:20:54Z</time>
      </trkpt>
      <trkpt lat="44.73854" lon="6.84823">
        <ele>2055.5</ele>
        <time>2026-03-23T09:20:55Z</time>
      </trkpt>
      <trkpt lat="44.73855" lon="6.84823">
        <ele>2055.5</ele>
        <time>2026-03-23T09:20:56Z</time>
      </trkpt>
      <trkpt lat="44.73855" lon="6.84824">
        <ele>2055.5</ele>
        <time>2026-03-23T09:20:57Z</time>
      </trkpt>
      <trkpt lat="44.73856" lon="6.84824">
        <ele>2055.5</ele>
        <time>2026-03-23T09:20:58Z</time>
      </trkpt>
      <trkpt lat="44.73856" lon="6.84824">
        <ele>2055.5</ele>
        <time>2026-03-23T09:20:59Z</time>
      </trkpt>
      <trkpt lat="44.73857" lon="6.84825">
        <ele>2055.4</ele>
        <time>2026-03-23T09:21:00Z</time>
      </trkpt>
      <trkpt lat="44.73857" lon="6.84825">
        <ele>2055.4</ele>
        <time>2026-03-23T09:21:01Z</time>
      </trkpt>
      <trkpt lat="44.73858" lon="6.84825">
        <ele>2055.4</ele>
        <time>2026-03-23T09:21:02Z</time>
      </trkpt>
      <trkpt lat="44.73858" lon="6.84825">
        <ele>2055.4</ele>
        <time>2026-03-23T09:21:03Z</time>
      </trkpt>
      <trkpt lat="44.73859" lon="6.84825">
        <ele>2055.4</ele>
        <time>2026-03-23T09:21:04Z</time>
      </trkpt>
      <trkpt lat="44.73859" lon="6.84825">
        <ele>2055.4</ele>
        <time>2026-03-23T09:21:05Z</time>
      </trkpt>
      <trkpt lat="44.73859" lon="6.84825">
        <ele>2055.4</ele>
        <time>2026-03-23T09:21:06Z</time>
      </trkpt>
      <trkpt lat="44.7386" lon="6.84826">
        <ele>2055.4</ele>
        <time>2026-03-23T09:21:07Z</time>
      </trkpt>
      <trkpt lat="44.7386" lon="6.84825">
        <ele>2055.4</ele>
        <time>2026-03-23T09:21:08Z</time>
      </trkpt>
      <trkpt lat="44.73861" lon="6.84826">
        <ele>2055.4</ele>
        <time>2026-03-23T09:21:09Z</time>
      </trkpt>
      <trkpt lat="44.73861" lon="6.84826">
        <ele>2055.4</ele>
        <time>2026-03-23T09:21:11Z</time>
      </trkpt>
      <trkpt lat="44.73861" lon="6.84826">
        <ele>2055.4</ele>
        <time>2026-03-23T09:21:12Z</time>
      </trkpt>
      <trkpt lat="44.73862" lon="6.84826">
        <ele>2056.1</ele>
        <time>2026-03-23T09:21:13Z</time>
      </trkpt>
      <trkpt lat="44.73862" lon="6.84826">
        <ele>2056.1</ele>
        <time>2026-03-23T09:21:14Z</time>
      </trkpt>
      <trkpt lat="44.73863" lon="6.84827">
        <ele>2056</ele>
        <time>2026-03-23T09:21:15Z</time>
      </trkpt>
      <trkpt lat="44.73863" lon="6.84827">
        <ele>2056</ele>
        <time>2026-03-23T09:21:16Z</time>
      </trkpt>
      <trkpt lat="44.73864" lon="6.84828">
        <ele>2056</ele>
        <time>2026-03-23T09:21:17Z</time>
      </trkpt>
      <trkpt lat="44.73865" lon="6.84829">
        <ele>2056</ele>
        <time>2026-03-23T09:21:18Z</time>
      </trkpt>
      <trkpt lat="44.73865" lon="6.8483">
        <ele>2056.7</ele>
        <time>2026-03-23T09:21:19Z</time>
      </trkpt>
      <trkpt lat="44.73865" lon="6.84831">
        <ele>2056.7</ele>
        <time>2026-03-23T09:21:20Z</time>
      </trkpt>
      <trkpt lat="44.73866" lon="6.84832">
        <ele>2056.7</ele>
        <time>2026-03-23T09:21:21Z</time>
      </trkpt>
      <trkpt lat="44.73866" lon="6.84832">
        <ele>2056.7</ele>
        <time>2026-03-23T09:21:22Z</time>
      </trkpt>
      <trkpt lat="44.73865" lon="6.84833">
        <ele>2056.7</ele>
        <time>2026-03-23T09:21:23Z</time>
      </trkpt>
      <trkpt lat="44.73865" lon="6.84834">
        <ele>2056.7</ele>
        <time>2026-03-23T09:21:24Z</time>
      </trkpt>
      <trkpt lat="44.73865" lon="6.84834">
        <ele>2056.7</ele>
        <time>2026-03-23T09:21:25Z</time>
      </trkpt>
      <trkpt lat="44.73865" lon="6.84834">
        <ele>2056.7</ele>
        <time>2026-03-23T09:21:26Z</time>
      </trkpt>
      <trkpt lat="44.73866" lon="6.84835">
        <ele>2057.3</ele>
        <time>2026-03-23T09:21:27Z</time>
      </trkpt>
      <trkpt lat="44.73866" lon="6.84835">
        <ele>2057.3</ele>
        <time>2026-03-23T09:21:28Z</time>
      </trkpt>
      <trkpt lat="44.73866" lon="6.84836">
        <ele>2057.3</ele>
        <time>2026-03-23T09:21:29Z</time>
      </trkpt>
      <trkpt lat="44.73866" lon="6.84837">
        <ele>2057.3</ele>
        <time>2026-03-23T09:21:30Z</time>
      </trkpt>
      <trkpt lat="44.73866" lon="6.84838">
        <ele>2057.3</ele>
        <time>2026-03-23T09:21:31Z</time>
      </trkpt>
      <trkpt lat="44.73866" lon="6.84839">
        <ele>2058</ele>
        <time>2026-03-23T09:21:32Z</time>
      </trkpt>
      <trkpt lat="44.73866" lon="6.84839">
        <ele>2058</ele>
        <time>2026-03-23T09:21:33Z</time>
      </trkpt>
      <trkpt lat="44.73867" lon="6.8484">
        <ele>2058</ele>
        <time>2026-03-23T09:21:34Z</time>
      </trkpt>
      <trkpt lat="44.73867" lon="6.84841">
        <ele>2058</ele>
        <time>2026-03-23T09:21:35Z</time>
      </trkpt>
      <trkpt lat="44.73866" lon="6.84841">
        <ele>2058</ele>
        <time>2026-03-23T09:21:36Z</time>
      </trkpt>
      <trkpt lat="44.73866" lon="6.84842">
        <ele>2058</ele>
        <time>2026-03-23T09:21:37Z</time>
      </trkpt>
      <trkpt lat="44.73866" lon="6.84842">
        <ele>2058</ele>
        <time>2026-03-23T09:21:38Z</time>
      </trkpt>
      <trkpt lat="44.73866" lon="6.84842">
        <ele>2058</ele>
        <time>2026-03-23T09:21:39Z</time>
      </trkpt>
      <trkpt lat="44.73866" lon="6.84843">
        <ele>2058</ele>
        <time>2026-03-23T09:21:40Z</time>
      </trkpt>
      <trkpt lat="44.73866" lon="6.84843">
        <ele>2058</ele>
        <time>2026-03-23T09:21:41Z</time>
      </trkpt>
      <trkpt lat="44.73866" lon="6.84844">
        <ele>2058.7</ele>
        <time>2026-03-23T09:21:42Z</time>
      </trkpt>
      <trkpt lat="44.73865" lon="6.84845">
        <ele>2058.7</ele>
        <time>2026-03-23T09:21:43Z</time>
      </trkpt>
      <trkpt lat="44.73865" lon="6.84845">
        <ele>2058.7</ele>
        <time>2026-03-23T09:21:44Z</time>
      </trkpt>
      <trkpt lat="44.73865" lon="6.84846">
        <ele>2058.7</ele>
        <time>2026-03-23T09:21:45Z</time>
      </trkpt>
      <trkpt lat="44.73864" lon="6.84846">
        <ele>2058.7</ele>
        <time>2026-03-23T09:21:46Z</time>
      </trkpt>
      <trkpt lat="44.73864" lon="6.84847">
        <ele>2058.7</ele>
        <time>2026-03-23T09:21:47Z</time>
      </trkpt>
      <trkpt lat="44.73864" lon="6.84847">
        <ele>2058.7</ele>
        <time>2026-03-23T09:21:48Z</time>
      </trkpt>
      <trkpt lat="44.73863" lon="6.84848">
        <ele>2059.4</ele>
        <time>2026-03-23T09:21:49Z</time>
      </trkpt>
      <trkpt lat="44.73862" lon="6.84849">
        <ele>2059.4</ele>
        <time>2026-03-23T09:21:50Z</time>
      </trkpt>
      <trkpt lat="44.73862" lon="6.84849">
        <ele>2059.4</ele>
        <time>2026-03-23T09:21:51Z</time>
      </trkpt>
      <trkpt lat="44.73861" lon="6.8485">
        <ele>2059.4</ele>
        <time>2026-03-23T09:21:52Z</time>
      </trkpt>
      <trkpt lat="44.7386" lon="6.8485">
        <ele>2059.4</ele>
        <time>2026-03-23T09:21:53Z</time>
      </trkpt>
      <trkpt lat="44.7386" lon="6.84851">
        <ele>2059.4</ele>
        <time>2026-03-23T09:21:54Z</time>
      </trkpt>
      <trkpt lat="44.73859" lon="6.84852">
        <ele>2060.2</ele>
        <time>2026-03-23T09:21:55Z</time>
      </trkpt>
      <trkpt lat="44.73859" lon="6.84852">
        <ele>2060.2</ele>
        <time>2026-03-23T09:21:56Z</time>
      </trkpt>
      <trkpt lat="44.73859" lon="6.84853">
        <ele>2060.2</ele>
        <time>2026-03-23T09:21:57Z</time>
      </trkpt>
      <trkpt lat="44.73858" lon="6.84853">
        <ele>2060.2</ele>
        <time>2026-03-23T09:21:58Z</time>
      </trkpt>
      <trkpt lat="44.73858" lon="6.84854">
        <ele>2060.2</ele>
        <time>2026-03-23T09:21:59Z</time>
      </trkpt>
      <trkpt lat="44.73858" lon="6.84854">
        <ele>2060.2</ele>
        <time>2026-03-23T09:22:00Z</time>
      </trkpt>
      <trkpt lat="44.73857" lon="6.84855">
        <ele>2060.2</ele>
        <time>2026-03-23T09:22:01Z</time>
      </trkpt>
      <trkpt lat="44.73857" lon="6.84855">
        <ele>2060.2</ele>
        <time>2026-03-23T09:22:02Z</time>
      </trkpt>
      <trkpt lat="44.73857" lon="6.84856">
        <ele>2060.2</ele>
        <time>2026-03-23T09:22:03Z</time>
      </trkpt>
      <trkpt lat="44.73856" lon="6.84856">
        <ele>2060.9</ele>
        <time>2026-03-23T09:22:04Z</time>
      </trkpt>
      <trkpt lat="44.73856" lon="6.84857">
        <ele>2060.9</ele>
        <time>2026-03-23T09:22:06Z</time>
      </trkpt>
      <trkpt lat="44.73856" lon="6.84857">
        <ele>2060.9</ele>
        <time>2026-03-23T09:22:07Z</time>
      </trkpt>
      <trkpt lat="44.73856" lon="6.84859">
        <ele>2060.9</ele>
        <time>2026-03-23T09:22:08Z</time>
      </trkpt>
      <trkpt lat="44.73855" lon="6.84859">
        <ele>2060.9</ele>
        <time>2026-03-23T09:22:09Z</time>
      </trkpt>
      <trkpt lat="44.73855" lon="6.8486">
        <ele>2060.9</ele>
        <time>2026-03-23T09:22:10Z</time>
      </trkpt>
      <trkpt lat="44.73855" lon="6.84861">
        <ele>2061.7</ele>
        <time>2026-03-23T09:22:11Z</time>
      </trkpt>
      <trkpt lat="44.73855" lon="6.84861">
        <ele>2061.7</ele>
        <time>2026-03-23T09:22:12Z</time>
      </trkpt>
      <trkpt lat="44.73854" lon="6.84862">
        <ele>2061.7</ele>
        <time>2026-03-23T09:22:13Z</time>
      </trkpt>
      <trkpt lat="44.73854" lon="6.84862">
        <ele>2061.7</ele>
        <time>2026-03-23T09:22:14Z</time>
      </trkpt>
      <trkpt lat="44.73854" lon="6.84863">
        <ele>2061.7</ele>
        <time>2026-03-23T09:22:15Z</time>
      </trkpt>
      <trkpt lat="44.73854" lon="6.84864">
        <ele>2061.7</ele>
        <time>2026-03-23T09:22:16Z</time>
      </trkpt>
      <trkpt lat="44.73854" lon="6.84864">
        <ele>2061.7</ele>
        <time>2026-03-23T09:22:17Z</time>
      </trkpt>
      <trkpt lat="44.73854" lon="6.84865">
        <ele>2062.4</ele>
        <time>2026-03-23T09:22:18Z</time>
      </trkpt>
      <trkpt lat="44.73855" lon="6.84865">
        <ele>2062.4</ele>
        <time>2026-03-23T09:22:19Z</time>
      </trkpt>
      <trkpt lat="44.73855" lon="6.84866">
        <ele>2062.4</ele>
        <time>2026-03-23T09:22:20Z</time>
      </trkpt>
      <trkpt lat="44.73855" lon="6.84867">
        <ele>2062.4</ele>
        <time>2026-03-23T09:22:21Z</time>
      </trkpt>
      <trkpt lat="44.73855" lon="6.84867">
        <ele>2062.4</ele>
        <time>2026-03-23T09:22:22Z</time>
      </trkpt>
      <trkpt lat="44.73856" lon="6.84869">
        <ele>2062.4</ele>
        <time>2026-03-23T09:22:23Z</time>
      </trkpt>
      <trkpt lat="44.73856" lon="6.84869">
        <ele>2063.1</ele>
        <time>2026-03-23T09:22:24Z</time>
      </trkpt>
      <trkpt lat="44.73856" lon="6.8487">
        <ele>2063.1</ele>
        <time>2026-03-23T09:22:25Z</time>
      </trkpt>
      <trkpt lat="44.73857" lon="6.8487">
        <ele>2063.1</ele>
        <time>2026-03-23T09:22:26Z</time>
      </trkpt>
      <trkpt lat="44.73857" lon="6.84871">
        <ele>2063.1</ele>
        <time>2026-03-23T09:22:27Z</time>
      </trkpt>
      <trkpt lat="44.73858" lon="6.84872">
        <ele>2063.1</ele>
        <time>2026-03-23T09:22:28Z</time>
      </trkpt>
      <trkpt lat="44.73858" lon="6.84873">
        <ele>2063.1</ele>
        <time>2026-03-23T09:22:29Z</time>
      </trkpt>
      <trkpt lat="44.73859" lon="6.84874">
        <ele>2063.8</ele>
        <time>2026-03-23T09:22:30Z</time>
      </trkpt>
      <trkpt lat="44.7386" lon="6.84874">
        <ele>2063.7</ele>
        <time>2026-03-23T09:22:32Z</time>
      </trkpt>
      <trkpt lat="44.7386" lon="6.84874">
        <ele>2063.7</ele>
        <time>2026-03-23T09:22:33Z</time>
      </trkpt>
      <trkpt lat="44.7386" lon="6.84874">
        <ele>2063.7</ele>
        <time>2026-03-23T09:22:34Z</time>
      </trkpt>
      <trkpt lat="44.7386" lon="6.84874">
        <ele>2063.7</ele>
        <time>2026-03-23T09:22:35Z</time>
      </trkpt>
      <trkpt lat="44.7386" lon="6.84874">
        <ele>2063.7</ele>
        <time>2026-03-23T09:22:36Z</time>
      </trkpt>
      <trkpt lat="44.73861" lon="6.84875">
        <ele>2063.7</ele>
        <time>2026-03-23T09:22:37Z</time>
      </trkpt>
      <trkpt lat="44.73861" lon="6.84875">
        <ele>2063.7</ele>
        <time>2026-03-23T09:22:38Z</time>
      </trkpt>
      <trkpt lat="44.73861" lon="6.84875">
        <ele>2063.7</ele>
        <time>2026-03-23T09:22:39Z</time>
      </trkpt>
      <trkpt lat="44.73861" lon="6.84875">
        <ele>2063.7</ele>
        <time>2026-03-23T09:22:40Z</time>
      </trkpt>
      <trkpt lat="44.73861" lon="6.84875">
        <ele>2063.7</ele>
        <time>2026-03-23T09:22:41Z</time>
      </trkpt>
      <trkpt lat="44.73861" lon="6.84875">
        <ele>2063.7</ele>
        <time>2026-03-23T09:22:42Z</time>
      </trkpt>
      <trkpt lat="44.73861" lon="6.84875">
        <ele>2063.7</ele>
        <time>2026-03-23T09:22:43Z</time>
      </trkpt>
      <trkpt lat="44.73861" lon="6.84875">
        <ele>2063.7</ele>
        <time>2026-03-23T09:22:44Z</time>
      </trkpt>
      <trkpt lat="44.73861" lon="6.84875">
        <ele>2063.7</ele>
        <time>2026-03-23T09:22:45Z</time>
      </trkpt>
      <trkpt lat="44.73861" lon="6.84875">
        <ele>2063.7</ele>
        <time>2026-03-23T09:22:46Z</time>
      </trkpt>
      <trkpt lat="44.73861" lon="6.84874">
        <ele>2063.7</ele>
        <time>2026-03-23T09:22:47Z</time>
      </trkpt>
      <trkpt lat="44.73861" lon="6.84874">
        <ele>2063.7</ele>
        <time>2026-03-23T09:22:48Z</time>
      </trkpt>
      <trkpt lat="44.73861" lon="6.84874">
        <ele>2063.7</ele>
        <time>2026-03-23T09:22:49Z</time>
      </trkpt>
      <trkpt lat="44.73861" lon="6.84874">
        <ele>2063.7</ele>
        <time>2026-03-23T09:22:50Z</time>
      </trkpt>
      <trkpt lat="44.73861" lon="6.84874">
        <ele>2063.7</ele>
        <time>2026-03-23T09:22:51Z</time>
      </trkpt>
      <trkpt lat="44.73861" lon="6.84874">
        <ele>2063.7</ele>
        <time>2026-03-23T09:22:52Z</time>
      </trkpt>
      <trkpt lat="44.73861" lon="6.84874">
        <ele>2063.7</ele>
        <time>2026-03-23T09:22:53Z</time>
      </trkpt>
      <trkpt lat="44.73861" lon="6.84874">
        <ele>2063.7</ele>
        <time>2026-03-23T09:22:54Z</time>
      </trkpt>
      <trkpt lat="44.73861" lon="6.84874">
        <ele>2063.7</ele>
        <time>2026-03-23T09:22:55Z</time>
      </trkpt>
      <trkpt lat="44.73861" lon="6.84874">
        <ele>2063.7</ele>
        <time>2026-03-23T09:22:56Z</time>
      </trkpt>
      <trkpt lat="44.73861" lon="6.84874">
        <ele>2063.7</ele>
        <time>2026-03-23T09:22:57Z</time>
      </trkpt>
      <trkpt lat="44.73861" lon="6.84874">
        <ele>2063.7</ele>
        <time>2026-03-23T09:22:58Z</time>
      </trkpt>
      <trkpt lat="44.73861" lon="6.84874">
        <ele>2063.7</ele>
        <time>2026-03-23T09:22:59Z</time>
      </trkpt>
      <trkpt lat="44.73861" lon="6.84874">
        <ele>2063.7</ele>
        <time>2026-03-23T09:23:00Z</time>
      </trkpt>
      <trkpt lat="44.73861" lon="6.84874">
        <ele>2063.7</ele>
        <time>2026-03-23T09:23:01Z</time>
      </trkpt>
      <trkpt lat="44.73861" lon="6.84874">
        <ele>2063.7</ele>
        <time>2026-03-23T09:23:02Z</time>
      </trkpt>
      <trkpt lat="44.73861" lon="6.84874">
        <ele>2063.7</ele>
        <time>2026-03-23T09:23:03Z</time>
      </trkpt>
      <trkpt lat="44.73861" lon="6.84874">
        <ele>2063.7</ele>
        <time>2026-03-23T09:23:04Z</time>
      </trkpt>
      <trkpt lat="44.73861" lon="6.84874">
        <ele>2063.7</ele>
        <time>2026-03-23T09:23:05Z</time>
      </trkpt>
      <trkpt lat="44.73861" lon="6.84874">
        <ele>2063.7</ele>
        <time>2026-03-23T09:23:06Z</time>
      </trkpt>
      <trkpt lat="44.73861" lon="6.84874">
        <ele>2063.7</ele>
        <time>2026-03-23T09:23:07Z</time>
      </trkpt>
      <trkpt lat="44.73861" lon="6.84874">
        <ele>2063.7</ele>
        <time>2026-03-23T09:23:08Z</time>
      </trkpt>
      <trkpt lat="44.73861" lon="6.84874">
        <ele>2063.7</ele>
        <time>2026-03-23T09:23:09Z</time>
      </trkpt>
      <trkpt lat="44.73861" lon="6.84874">
        <ele>2063.7</ele>
        <time>2026-03-23T09:23:10Z</time>
      </trkpt>
      <trkpt lat="44.73861" lon="6.84874">
        <ele>2063.7</ele>
        <time>2026-03-23T09:23:11Z</time>
      </trkpt>
      <trkpt lat="44.73861" lon="6.84874">
        <ele>2063.7</ele>
        <time>2026-03-23T09:23:12Z</time>
      </trkpt>
      <trkpt lat="44.73861" lon="6.84874">
        <ele>2063.7</ele>
        <time>2026-03-23T09:23:13Z</time>
      </trkpt>
      <trkpt lat="44.73861" lon="6.84874">
        <ele>2063.7</ele>
        <time>2026-03-23T09:23:14Z</time>
      </trkpt>
      <trkpt lat="44.73861" lon="6.84874">
        <ele>2063.7</ele>
        <time>2026-03-23T09:23:15Z</time>
      </trkpt>
      <trkpt lat="44.7386" lon="6.84874">
        <ele>2063.7</ele>
        <time>2026-03-23T09:23:16Z</time>
      </trkpt>
      <trkpt lat="44.7386" lon="6.84874">
        <ele>2063.7</ele>
        <time>2026-03-23T09:23:17Z</time>
      </trkpt>
      <trkpt lat="44.7386" lon="6.84874">
        <ele>2063.7</ele>
        <time>2026-03-23T09:23:18Z</time>
      </trkpt>
      <trkpt lat="44.7386" lon="6.84874">
        <ele>2063.7</ele>
        <time>2026-03-23T09:23:19Z</time>
      </trkpt>
      <trkpt lat="44.7386" lon="6.84874">
        <ele>2063.7</ele>
        <time>2026-03-23T09:23:20Z</time>
      </trkpt>
      <trkpt lat="44.7386" lon="6.84874">
        <ele>2063.7</ele>
        <time>2026-03-23T09:23:21Z</time>
      </trkpt>
      <trkpt lat="44.7386" lon="6.84874">
        <ele>2063.7</ele>
        <time>2026-03-23T09:23:22Z</time>
      </trkpt>
      <trkpt lat="44.7386" lon="6.84873">
        <ele>2063.7</ele>
        <time>2026-03-23T09:23:23Z</time>
      </trkpt>
      <trkpt lat="44.7386" lon="6.84873">
        <ele>2063.7</ele>
        <time>2026-03-23T09:23:24Z</time>
      </trkpt>
      <trkpt lat="44.7386" lon="6.84873">
        <ele>2063.7</ele>
        <time>2026-03-23T09:23:25Z</time>
      </trkpt>
      <trkpt lat="44.7386" lon="6.84873">
        <ele>2063.7</ele>
        <time>2026-03-23T09:23:26Z</time>
      </trkpt>
      <trkpt lat="44.7386" lon="6.84873">
        <ele>2063.7</ele>
        <time>2026-03-23T09:23:27Z</time>
      </trkpt>
      <trkpt lat="44.7386" lon="6.84873">
        <ele>2063.7</ele>
        <time>2026-03-23T09:23:28Z</time>
      </trkpt>
      <trkpt lat="44.7386" lon="6.84873">
        <ele>2063.7</ele>
        <time>2026-03-23T09:23:29Z</time>
      </trkpt>
      <trkpt lat="44.7386" lon="6.84873">
        <ele>2063.7</ele>
        <time>2026-03-23T09:23:30Z</time>
      </trkpt>
      <trkpt lat="44.7386" lon="6.84873">
        <ele>2063.7</ele>
        <time>2026-03-23T09:23:31Z</time>
      </trkpt>
      <trkpt lat="44.7386" lon="6.84873">
        <ele>2063.7</ele>
        <time>2026-03-23T09:23:32Z</time>
      </trkpt>
      <trkpt lat="44.73859" lon="6.84874">
        <ele>2063.7</ele>
        <time>2026-03-23T09:23:33Z</time>
      </trkpt>
      <trkpt lat="44.73859" lon="6.84874">
        <ele>2063.7</ele>
        <time>2026-03-23T09:23:34Z</time>
      </trkpt>
      <trkpt lat="44.73859" lon="6.84874">
        <ele>2063.7</ele>
        <time>2026-03-23T09:23:35Z</time>
      </trkpt>
      <trkpt lat="44.73859" lon="6.84874">
        <ele>2063.7</ele>
        <time>2026-03-23T09:23:36Z</time>
      </trkpt>
      <trkpt lat="44.73859" lon="6.84874">
        <ele>2063.7</ele>
        <time>2026-03-23T09:23:37Z</time>
      </trkpt>
      <trkpt lat="44.7386" lon="6.84874">
        <ele>2063.7</ele>
        <time>2026-03-23T09:23:38Z</time>
      </trkpt>
      <trkpt lat="44.73859" lon="6.84874">
        <ele>2063.7</ele>
        <time>2026-03-23T09:23:39Z</time>
      </trkpt>
      <trkpt lat="44.73859" lon="6.84874">
        <ele>2063.7</ele>
        <time>2026-03-23T09:23:40Z</time>
      </trkpt>
      <trkpt lat="44.73859" lon="6.84874">
        <ele>2063.7</ele>
        <time>2026-03-23T09:23:41Z</time>
      </trkpt>
      <trkpt lat="44.73859" lon="6.84874">
        <ele>2063.7</ele>
        <time>2026-03-23T09:23:42Z</time>
      </trkpt>
      <trkpt lat="44.73859" lon="6.84874">
        <ele>2063.7</ele>
        <time>2026-03-23T09:23:43Z</time>
      </trkpt>
      <trkpt lat="44.73859" lon="6.84874">
        <ele>2063.7</ele>
        <time>2026-03-23T09:23:44Z</time>
      </trkpt>
      <trkpt lat="44.73859" lon="6.84874">
        <ele>2063.7</ele>
        <time>2026-03-23T09:23:45Z</time>
      </trkpt>
      <trkpt lat="44.73859" lon="6.84874">
        <ele>2063.7</ele>
        <time>2026-03-23T09:23:46Z</time>
      </trkpt>
      <trkpt lat="44.73859" lon="6.84874">
        <ele>2063.7</ele>
        <time>2026-03-23T09:23:47Z</time>
      </trkpt>
      <trkpt lat="44.73859" lon="6.84874">
        <ele>2063.7</ele>
        <time>2026-03-23T09:23:48Z</time>
      </trkpt>
      <trkpt lat="44.73859" lon="6.84874">
        <ele>2063.7</ele>
        <time>2026-03-23T09:23:49Z</time>
      </trkpt>
      <trkpt lat="44.73859" lon="6.84874">
        <ele>2063.7</ele>
        <time>2026-03-23T09:23:50Z</time>
      </trkpt>
      <trkpt lat="44.73859" lon="6.84874">
        <ele>2063.7</ele>
        <time>2026-03-23T09:23:51Z</time>
      </trkpt>
      <trkpt lat="44.73859" lon="6.84873">
        <ele>2063.7</ele>
        <time>2026-03-23T09:23:52Z</time>
      </trkpt>
      <trkpt lat="44.73859" lon="6.84873">
        <ele>2063.7</ele>
        <time>2026-03-23T09:23:53Z</time>
      </trkpt>
      <trkpt lat="44.73859" lon="6.84873">
        <ele>2063.7</ele>
        <time>2026-03-23T09:23:54Z</time>
      </trkpt>
      <trkpt lat="44.73859" lon="6.84873">
        <ele>2063.7</ele>
        <time>2026-03-23T09:23:55Z</time>
      </trkpt>
      <trkpt lat="44.73859" lon="6.84873">
        <ele>2063.7</ele>
        <time>2026-03-23T09:23:56Z</time>
      </trkpt>
      <trkpt lat="44.73859" lon="6.84873">
        <ele>2063.7</ele>
        <time>2026-03-23T09:23:57Z</time>
      </trkpt>
      <trkpt lat="44.73859" lon="6.84873">
        <ele>2063.7</ele>
        <time>2026-03-23T09:23:58Z</time>
      </trkpt>
      <trkpt lat="44.73859" lon="6.84873">
        <ele>2063.7</ele>
        <time>2026-03-23T09:23:59Z</time>
      </trkpt>
      <trkpt lat="44.73859" lon="6.84873">
        <ele>2063.7</ele>
        <time>2026-03-23T09:24:00Z</time>
      </trkpt>
      <trkpt lat="44.73859" lon="6.84873">
        <ele>2063.7</ele>
        <time>2026-03-23T09:24:01Z</time>
      </trkpt>
      <trkpt lat="44.73859" lon="6.84873">
        <ele>2063.7</ele>
        <time>2026-03-23T09:24:02Z</time>
      </trkpt>
      <trkpt lat="44.73859" lon="6.84873">
        <ele>2063.7</ele>
        <time>2026-03-23T09:24:03Z</time>
      </trkpt>
      <trkpt lat="44.73859" lon="6.84873">
        <ele>2063.7</ele>
        <time>2026-03-23T09:24:04Z</time>
      </trkpt>
      <trkpt lat="44.73859" lon="6.84873">
        <ele>2063.7</ele>
        <time>2026-03-23T09:24:05Z</time>
      </trkpt>
      <trkpt lat="44.73859" lon="6.84873">
        <ele>2063.7</ele>
        <time>2026-03-23T09:24:06Z</time>
      </trkpt>
      <trkpt lat="44.73859" lon="6.84873">
        <ele>2063.7</ele>
        <time>2026-03-23T09:24:07Z</time>
      </trkpt>
      <trkpt lat="44.73859" lon="6.84873">
        <ele>2063.7</ele>
        <time>2026-03-23T09:24:08Z</time>
      </trkpt>
      <trkpt lat="44.73859" lon="6.84873">
        <ele>2063.7</ele>
        <time>2026-03-23T09:24:09Z</time>
      </trkpt>
      <trkpt lat="44.73859" lon="6.84873">
        <ele>2063.7</ele>
        <time>2026-03-23T09:24:10Z</time>
      </trkpt>
      <trkpt lat="44.73859" lon="6.84873">
        <ele>2063.7</ele>
        <time>2026-03-23T09:24:11Z</time>
      </trkpt>
      <trkpt lat="44.73859" lon="6.84873">
        <ele>2063.7</ele>
        <time>2026-03-23T09:24:12Z</time>
      </trkpt>
      <trkpt lat="44.73859" lon="6.84873">
        <ele>2063.7</ele>
        <time>2026-03-23T09:24:13Z</time>
      </trkpt>
      <trkpt lat="44.73859" lon="6.84873">
        <ele>2063</ele>
        <time>2026-03-23T09:24:14Z</time>
      </trkpt>
      <trkpt lat="44.73859" lon="6.84873">
        <ele>2063</ele>
        <time>2026-03-23T09:24:15Z</time>
      </trkpt>
      <trkpt lat="44.73859" lon="6.84873">
        <ele>2063</ele>
        <time>2026-03-23T09:24:16Z</time>
      </trkpt>
      <trkpt lat="44.73859" lon="6.84873">
        <ele>2063</ele>
        <time>2026-03-23T09:24:17Z</time>
      </trkpt>
      <trkpt lat="44.7386" lon="6.84873">
        <ele>2063</ele>
        <time>2026-03-23T09:24:18Z</time>
      </trkpt>
      <trkpt lat="44.7386" lon="6.84873">
        <ele>2063</ele>
        <time>2026-03-23T09:24:19Z</time>
      </trkpt>
      <trkpt lat="44.7386" lon="6.84873">
        <ele>2063</ele>
        <time>2026-03-23T09:24:20Z</time>
      </trkpt>
      <trkpt lat="44.7386" lon="6.84873">
        <ele>2063</ele>
        <time>2026-03-23T09:24:21Z</time>
      </trkpt>
      <trkpt lat="44.7386" lon="6.84873">
        <ele>2063</ele>
        <time>2026-03-23T09:24:22Z</time>
      </trkpt>
      <trkpt lat="44.7386" lon="6.84873">
        <ele>2063</ele>
        <time>2026-03-23T09:24:23Z</time>
      </trkpt>
      <trkpt lat="44.7386" lon="6.84873">
        <ele>2063</ele>
        <time>2026-03-23T09:24:24Z</time>
      </trkpt>
      <trkpt lat="44.7386" lon="6.84873">
        <ele>2063</ele>
        <time>2026-03-23T09:24:25Z</time>
      </trkpt>
      <trkpt lat="44.7386" lon="6.84873">
        <ele>2063</ele>
        <time>2026-03-23T09:24:26Z</time>
      </trkpt>
      <trkpt lat="44.7386" lon="6.84873">
        <ele>2063</ele>
        <time>2026-03-23T09:24:27Z</time>
      </trkpt>
      <trkpt lat="44.7386" lon="6.84873">
        <ele>2063</ele>
        <time>2026-03-23T09:24:28Z</time>
      </trkpt>
      <trkpt lat="44.7386" lon="6.84873">
        <ele>2063</ele>
        <time>2026-03-23T09:24:29Z</time>
      </trkpt>
      <trkpt lat="44.7386" lon="6.84873">
        <ele>2063</ele>
        <time>2026-03-23T09:24:30Z</time>
      </trkpt>
      <trkpt lat="44.7386" lon="6.84873">
        <ele>2063</ele>
        <time>2026-03-23T09:24:31Z</time>
      </trkpt>
      <trkpt lat="44.7386" lon="6.84873">
        <ele>2063</ele>
        <time>2026-03-23T09:24:32Z</time>
      </trkpt>
      <trkpt lat="44.7386" lon="6.84873">
        <ele>2063</ele>
        <time>2026-03-23T09:24:33Z</time>
      </trkpt>
      <trkpt lat="44.7386" lon="6.84873">
        <ele>2063</ele>
        <time>2026-03-23T09:24:34Z</time>
      </trkpt>
      <trkpt lat="44.7386" lon="6.84873">
        <ele>2063</ele>
        <time>2026-03-23T09:24:35Z</time>
      </trkpt>
      <trkpt lat="44.7386" lon="6.84873">
        <ele>2063</ele>
        <time>2026-03-23T09:24:36Z</time>
      </trkpt>
      <trkpt lat="44.7386" lon="6.84873">
        <ele>2063</ele>
        <time>2026-03-23T09:24:37Z</time>
      </trkpt>
      <trkpt lat="44.7386" lon="6.84873">
        <ele>2063</ele>
        <time>2026-03-23T09:24:38Z</time>
      </trkpt>
      <trkpt lat="44.73859" lon="6.84872">
        <ele>2063</ele>
        <time>2026-03-23T09:24:39Z</time>
      </trkpt>
      <trkpt lat="44.73859" lon="6.84872">
        <ele>2063</ele>
        <time>2026-03-23T09:24:40Z</time>
      </trkpt>
      <trkpt lat="44.73859" lon="6.84872">
        <ele>2063</ele>
        <time>2026-03-23T09:24:41Z</time>
      </trkpt>
      <trkpt lat="44.73859" lon="6.84872">
        <ele>2063</ele>
        <time>2026-03-23T09:24:42Z</time>
      </trkpt>
      <trkpt lat="44.73859" lon="6.84872">
        <ele>2063</ele>
        <time>2026-03-23T09:24:43Z</time>
      </trkpt>
      <trkpt lat="44.73859" lon="6.84872">
        <ele>2063</ele>
        <time>2026-03-23T09:24:44Z</time>
      </trkpt>
      <trkpt lat="44.73859" lon="6.84872">
        <ele>2063</ele>
        <time>2026-03-23T09:24:45Z</time>
      </trkpt>
      <trkpt lat="44.73859" lon="6.84872">
        <ele>2063</ele>
        <time>2026-03-23T09:24:46Z</time>
      </trkpt>
      <trkpt lat="44.73859" lon="6.84872">
        <ele>2063</ele>
        <time>2026-03-23T09:24:47Z</time>
      </trkpt>
      <trkpt lat="44.73859" lon="6.84872">
        <ele>2063</ele>
        <time>2026-03-23T09:24:48Z</time>
      </trkpt>
      <trkpt lat="44.73859" lon="6.84872">
        <ele>2063</ele>
        <time>2026-03-23T09:24:49Z</time>
      </trkpt>
      <trkpt lat="44.73859" lon="6.84872">
        <ele>2063</ele>
        <time>2026-03-23T09:24:50Z</time>
      </trkpt>
      <trkpt lat="44.73859" lon="6.84872">
        <ele>2063</ele>
        <time>2026-03-23T09:24:51Z</time>
      </trkpt>
      <trkpt lat="44.73859" lon="6.84872">
        <ele>2063</ele>
        <time>2026-03-23T09:24:52Z</time>
      </trkpt>
      <trkpt lat="44.73859" lon="6.84872">
        <ele>2063</ele>
        <time>2026-03-23T09:24:53Z</time>
      </trkpt>
      <trkpt lat="44.73859" lon="6.84872">
        <ele>2063</ele>
        <time>2026-03-23T09:24:54Z</time>
      </trkpt>
      <trkpt lat="44.73859" lon="6.84872">
        <ele>2063</ele>
        <time>2026-03-23T09:24:55Z</time>
      </trkpt>
      <trkpt lat="44.73859" lon="6.84872">
        <ele>2063</ele>
        <time>2026-03-23T09:24:56Z</time>
      </trkpt>
      <trkpt lat="44.73859" lon="6.84872">
        <ele>2063</ele>
        <time>2026-03-23T09:24:57Z</time>
      </trkpt>
      <trkpt lat="44.73859" lon="6.84872">
        <ele>2063</ele>
        <time>2026-03-23T09:24:58Z</time>
      </trkpt>
      <trkpt lat="44.73859" lon="6.84872">
        <ele>2063</ele>
        <time>2026-03-23T09:24:59Z</time>
      </trkpt>
      <trkpt lat="44.73859" lon="6.84872">
        <ele>2063</ele>
        <time>2026-03-23T09:25:00Z</time>
      </trkpt>
      <trkpt lat="44.73859" lon="6.84872">
        <ele>2063</ele>
        <time>2026-03-23T09:25:01Z</time>
      </trkpt>
      <trkpt lat="44.73859" lon="6.84872">
        <ele>2063</ele>
        <time>2026-03-23T09:25:02Z</time>
      </trkpt>
      <trkpt lat="44.73859" lon="6.84872">
        <ele>2063</ele>
        <time>2026-03-23T09:25:03Z</time>
      </trkpt>
      <trkpt lat="44.73859" lon="6.84872">
        <ele>2063</ele>
        <time>2026-03-23T09:25:04Z</time>
      </trkpt>
      <trkpt lat="44.73859" lon="6.84872">
        <ele>2063</ele>
        <time>2026-03-23T09:25:05Z</time>
      </trkpt>
      <trkpt lat="44.73859" lon="6.84872">
        <ele>2063</ele>
        <time>2026-03-23T09:25:06Z</time>
      </trkpt>
      <trkpt lat="44.73859" lon="6.84872">
        <ele>2063</ele>
        <time>2026-03-23T09:25:07Z</time>
      </trkpt>
      <trkpt lat="44.73859" lon="6.84872">
        <ele>2063</ele>
        <time>2026-03-23T09:25:08Z</time>
      </trkpt>
      <trkpt lat="44.73859" lon="6.84872">
        <ele>2063</ele>
        <time>2026-03-23T09:25:09Z</time>
      </trkpt>
      <trkpt lat="44.73859" lon="6.84872">
        <ele>2063</ele>
        <time>2026-03-23T09:25:10Z</time>
      </trkpt>
      <trkpt lat="44.73859" lon="6.84872">
        <ele>2063</ele>
        <time>2026-03-23T09:25:11Z</time>
      </trkpt>
      <trkpt lat="44.73859" lon="6.84872">
        <ele>2063</ele>
        <time>2026-03-23T09:25:12Z</time>
      </trkpt>
      <trkpt lat="44.73859" lon="6.84872">
        <ele>2063</ele>
        <time>2026-03-23T09:25:13Z</time>
      </trkpt>
      <trkpt lat="44.73859" lon="6.84872">
        <ele>2063</ele>
        <time>2026-03-23T09:25:14Z</time>
      </trkpt>
      <trkpt lat="44.73859" lon="6.84872">
        <ele>2063</ele>
        <time>2026-03-23T09:25:15Z</time>
      </trkpt>
      <trkpt lat="44.73859" lon="6.84872">
        <ele>2063</ele>
        <time>2026-03-23T09:25:16Z</time>
      </trkpt>
      <trkpt lat="44.73859" lon="6.84872">
        <ele>2063</ele>
        <time>2026-03-23T09:25:17Z</time>
      </trkpt>
      <trkpt lat="44.73859" lon="6.84872">
        <ele>2063</ele>
        <time>2026-03-23T09:25:18Z</time>
      </trkpt>
      <trkpt lat="44.73859" lon="6.84872">
        <ele>2063</ele>
        <time>2026-03-23T09:25:19Z</time>
      </trkpt>
      <trkpt lat="44.73859" lon="6.84872">
        <ele>2063</ele>
        <time>2026-03-23T09:25:20Z</time>
      </trkpt>
      <trkpt lat="44.73859" lon="6.84872">
        <ele>2063</ele>
        <time>2026-03-23T09:25:21Z</time>
      </trkpt>
      <trkpt lat="44.73859" lon="6.84872">
        <ele>2063</ele>
        <time>2026-03-23T09:25:22Z</time>
      </trkpt>
      <trkpt lat="44.73859" lon="6.84872">
        <ele>2063</ele>
        <time>2026-03-23T09:25:23Z</time>
      </trkpt>
      <trkpt lat="44.73859" lon="6.84872">
        <ele>2063</ele>
        <time>2026-03-23T09:25:24Z</time>
      </trkpt>
      <trkpt lat="44.73859" lon="6.84872">
        <ele>2063</ele>
        <time>2026-03-23T09:25:25Z</time>
      </trkpt>
      <trkpt lat="44.73859" lon="6.84872">
        <ele>2063</ele>
        <time>2026-03-23T09:25:26Z</time>
      </trkpt>
      <trkpt lat="44.73859" lon="6.84872">
        <ele>2062.9</ele>
        <time>2026-03-23T09:25:27Z</time>
      </trkpt>
      <trkpt lat="44.73859" lon="6.84872">
        <ele>2062.9</ele>
        <time>2026-03-23T09:25:28Z</time>
      </trkpt>
      <trkpt lat="44.73859" lon="6.84872">
        <ele>2062.9</ele>
        <time>2026-03-23T09:25:29Z</time>
      </trkpt>
      <trkpt lat="44.73859" lon="6.84872">
        <ele>2062.9</ele>
        <time>2026-03-23T09:25:30Z</time>
      </trkpt>
      <trkpt lat="44.73859" lon="6.84872">
        <ele>2062.9</ele>
        <time>2026-03-23T09:25:31Z</time>
      </trkpt>
      <trkpt lat="44.73859" lon="6.84872">
        <ele>2062.9</ele>
        <time>2026-03-23T09:25:32Z</time>
      </trkpt>
      <trkpt lat="44.73859" lon="6.84872">
        <ele>2062.9</ele>
        <time>2026-03-23T09:25:33Z</time>
      </trkpt>
      <trkpt lat="44.73859" lon="6.84872">
        <ele>2062.9</ele>
        <time>2026-03-23T09:25:34Z</time>
      </trkpt>
      <trkpt lat="44.73859" lon="6.84873">
        <ele>2062.9</ele>
        <time>2026-03-23T09:25:35Z</time>
      </trkpt>
      <trkpt lat="44.73859" lon="6.84873">
        <ele>2062.9</ele>
        <time>2026-03-23T09:25:36Z</time>
      </trkpt>
      <trkpt lat="44.7386" lon="6.84874">
        <ele>2063.6</ele>
        <time>2026-03-23T09:25:37Z</time>
      </trkpt>
      <trkpt lat="44.73861" lon="6.84875">
        <ele>2063.6</ele>
        <time>2026-03-23T09:25:38Z</time>
      </trkpt>
      <trkpt lat="44.73862" lon="6.84875">
        <ele>2063.6</ele>
        <time>2026-03-23T09:25:39Z</time>
      </trkpt>
      <trkpt lat="44.73862" lon="6.84875">
        <ele>2063.6</ele>
        <time>2026-03-23T09:25:40Z</time>
      </trkpt>
      <trkpt lat="44.73862" lon="6.84875">
        <ele>2063.6</ele>
        <time>2026-03-23T09:25:41Z</time>
      </trkpt>
      <trkpt lat="44.73862" lon="6.84875">
        <ele>2063.6</ele>
        <time>2026-03-23T09:25:42Z</time>
      </trkpt>
      <trkpt lat="44.73861" lon="6.84875">
        <ele>2063.6</ele>
        <time>2026-03-23T09:25:43Z</time>
      </trkpt>
      <trkpt lat="44.7386" lon="6.84875">
        <ele>2063.6</ele>
        <time>2026-03-23T09:25:44Z</time>
      </trkpt>
      <trkpt lat="44.7386" lon="6.84875">
        <ele>2063.6</ele>
        <time>2026-03-23T09:25:45Z</time>
      </trkpt>
      <trkpt lat="44.7386" lon="6.84875">
        <ele>2063.6</ele>
        <time>2026-03-23T09:25:46Z</time>
      </trkpt>
      <trkpt lat="44.7386" lon="6.84875">
        <ele>2063.6</ele>
        <time>2026-03-23T09:25:47Z</time>
      </trkpt>
      <trkpt lat="44.7386" lon="6.84875">
        <ele>2063.6</ele>
        <time>2026-03-23T09:25:48Z</time>
      </trkpt>
      <trkpt lat="44.7386" lon="6.84875">
        <ele>2063.6</ele>
        <time>2026-03-23T09:25:49Z</time>
      </trkpt>
      <trkpt lat="44.7386" lon="6.84875">
        <ele>2063.6</ele>
        <time>2026-03-23T09:25:50Z</time>
      </trkpt>
      <trkpt lat="44.7386" lon="6.84875">
        <ele>2063.6</ele>
        <time>2026-03-23T09:25:51Z</time>
      </trkpt>
      <trkpt lat="44.7386" lon="6.84875">
        <ele>2063.6</ele>
        <time>2026-03-23T09:25:52Z</time>
      </trkpt>
      <trkpt lat="44.73861" lon="6.84875">
        <ele>2063.6</ele>
        <time>2026-03-23T09:25:53Z</time>
      </trkpt>
      <trkpt lat="44.73861" lon="6.84875">
        <ele>2063.6</ele>
        <time>2026-03-23T09:25:54Z</time>
      </trkpt>
      <trkpt lat="44.73861" lon="6.84875">
        <ele>2063.6</ele>
        <time>2026-03-23T09:25:55Z</time>
      </trkpt>
      <trkpt lat="44.73861" lon="6.84875">
        <ele>2063.6</ele>
        <time>2026-03-23T09:25:56Z</time>
      </trkpt>
      <trkpt lat="44.73861" lon="6.84875">
        <ele>2063.6</ele>
        <time>2026-03-23T09:25:57Z</time>
      </trkpt>
      <trkpt lat="44.73861" lon="6.84875">
        <ele>2063.6</ele>
        <time>2026-03-23T09:25:58Z</time>
      </trkpt>
      <trkpt lat="44.73861" lon="6.84875">
        <ele>2063.6</ele>
        <time>2026-03-23T09:25:59Z</time>
      </trkpt>
      <trkpt lat="44.73861" lon="6.84875">
        <ele>2063.6</ele>
        <time>2026-03-23T09:26:00Z</time>
      </trkpt>
      <trkpt lat="44.73861" lon="6.84875">
        <ele>2063.6</ele>
        <time>2026-03-23T09:26:01Z</time>
      </trkpt>
      <trkpt lat="44.73861" lon="6.84875">
        <ele>2063.5</ele>
        <time>2026-03-23T09:26:02Z</time>
      </trkpt>
      <trkpt lat="44.73861" lon="6.84875">
        <ele>2063.5</ele>
        <time>2026-03-23T09:26:03Z</time>
      </trkpt>
      <trkpt lat="44.73861" lon="6.84875">
        <ele>2063.5</ele>
        <time>2026-03-23T09:26:04Z</time>
      </trkpt>
      <trkpt lat="44.73861" lon="6.84875">
        <ele>2063.5</ele>
        <time>2026-03-23T09:26:05Z</time>
      </trkpt>
      <trkpt lat="44.73861" lon="6.84875">
        <ele>2063.5</ele>
        <time>2026-03-23T09:26:06Z</time>
      </trkpt>
      <trkpt lat="44.73861" lon="6.84875">
        <ele>2063.5</ele>
        <time>2026-03-23T09:26:07Z</time>
      </trkpt>
      <trkpt lat="44.73861" lon="6.84875">
        <ele>2063.5</ele>
        <time>2026-03-23T09:26:08Z</time>
      </trkpt>
      <trkpt lat="44.73861" lon="6.84875">
        <ele>2063.5</ele>
        <time>2026-03-23T09:26:09Z</time>
      </trkpt>
      <trkpt lat="44.73861" lon="6.84875">
        <ele>2063.5</ele>
        <time>2026-03-23T09:26:10Z</time>
      </trkpt>
      <trkpt lat="44.73861" lon="6.84875">
        <ele>2063.5</ele>
        <time>2026-03-23T09:26:11Z</time>
      </trkpt>
      <trkpt lat="44.73861" lon="6.84875">
        <ele>2063.5</ele>
        <time>2026-03-23T09:26:12Z</time>
      </trkpt>
      <trkpt lat="44.73861" lon="6.84875">
        <ele>2063.5</ele>
        <time>2026-03-23T09:26:13Z</time>
      </trkpt>
      <trkpt lat="44.73861" lon="6.84876">
        <ele>2063.5</ele>
        <time>2026-03-23T09:26:14Z</time>
      </trkpt>
      <trkpt lat="44.73861" lon="6.84876">
        <ele>2063.5</ele>
        <time>2026-03-23T09:26:15Z</time>
      </trkpt>
      <trkpt lat="44.73861" lon="6.84876">
        <ele>2063.5</ele>
        <time>2026-03-23T09:26:16Z</time>
      </trkpt>
      <trkpt lat="44.73861" lon="6.84876">
        <ele>2063.5</ele>
        <time>2026-03-23T09:26:17Z</time>
      </trkpt>
      <trkpt lat="44.73861" lon="6.84876">
        <ele>2063.5</ele>
        <time>2026-03-23T09:26:18Z</time>
      </trkpt>
      <trkpt lat="44.7386" lon="6.84876">
        <ele>2063.5</ele>
        <time>2026-03-23T09:26:19Z</time>
      </trkpt>
      <trkpt lat="44.7386" lon="6.84876">
        <ele>2063.5</ele>
        <time>2026-03-23T09:26:20Z</time>
      </trkpt>
      <trkpt lat="44.7386" lon="6.84875">
        <ele>2063.5</ele>
        <time>2026-03-23T09:26:21Z</time>
      </trkpt>
      <trkpt lat="44.7386" lon="6.84875">
        <ele>2063.5</ele>
        <time>2026-03-23T09:26:22Z</time>
      </trkpt>
      <trkpt lat="44.7386" lon="6.84875">
        <ele>2063.5</ele>
        <time>2026-03-23T09:26:23Z</time>
      </trkpt>
      <trkpt lat="44.7386" lon="6.84875">
        <ele>2063.5</ele>
        <time>2026-03-23T09:26:24Z</time>
      </trkpt>
      <trkpt lat="44.7386" lon="6.84875">
        <ele>2063.5</ele>
        <time>2026-03-23T09:26:25Z</time>
      </trkpt>
      <trkpt lat="44.7386" lon="6.84875">
        <ele>2063.5</ele>
        <time>2026-03-23T09:26:26Z</time>
      </trkpt>
      <trkpt lat="44.7386" lon="6.84875">
        <ele>2063.5</ele>
        <time>2026-03-23T09:26:27Z</time>
      </trkpt>
      <trkpt lat="44.7386" lon="6.84875">
        <ele>2063.5</ele>
        <time>2026-03-23T09:26:28Z</time>
      </trkpt>
      <trkpt lat="44.7386" lon="6.84874">
        <ele>2063.5</ele>
        <time>2026-03-23T09:26:29Z</time>
      </trkpt>
      <trkpt lat="44.73861" lon="6.84874">
        <ele>2063.5</ele>
        <time>2026-03-23T09:26:30Z</time>
      </trkpt>
      <trkpt lat="44.73861" lon="6.84874">
        <ele>2063.5</ele>
        <time>2026-03-23T09:26:31Z</time>
      </trkpt>
      <trkpt lat="44.73861" lon="6.84874">
        <ele>2063.5</ele>
        <time>2026-03-23T09:26:32Z</time>
      </trkpt>
      <trkpt lat="44.7386" lon="6.84873">
        <ele>2063.5</ele>
        <time>2026-03-23T09:26:33Z</time>
      </trkpt>
      <trkpt lat="44.7386" lon="6.84873">
        <ele>2063.5</ele>
        <time>2026-03-23T09:26:34Z</time>
      </trkpt>
      <trkpt lat="44.7386" lon="6.84873">
        <ele>2063.5</ele>
        <time>2026-03-23T09:26:35Z</time>
      </trkpt>
      <trkpt lat="44.7386" lon="6.84873">
        <ele>2063.5</ele>
        <time>2026-03-23T09:26:36Z</time>
      </trkpt>
      <trkpt lat="44.7386" lon="6.84873">
        <ele>2063.5</ele>
        <time>2026-03-23T09:26:37Z</time>
      </trkpt>
      <trkpt lat="44.7386" lon="6.84873">
        <ele>2063.5</ele>
        <time>2026-03-23T09:26:38Z</time>
      </trkpt>
      <trkpt lat="44.7386" lon="6.84873">
        <ele>2063.5</ele>
        <time>2026-03-23T09:26:39Z</time>
      </trkpt>
      <trkpt lat="44.7386" lon="6.84873">
        <ele>2062.9</ele>
        <time>2026-03-23T09:26:40Z</time>
      </trkpt>
      <trkpt lat="44.7386" lon="6.84873">
        <ele>2062.9</ele>
        <time>2026-03-23T09:26:41Z</time>
      </trkpt>
      <trkpt lat="44.7386" lon="6.84873">
        <ele>2062.9</ele>
        <time>2026-03-23T09:26:42Z</time>
      </trkpt>
      <trkpt lat="44.7386" lon="6.84873">
        <ele>2062.9</ele>
        <time>2026-03-23T09:26:43Z</time>
      </trkpt>
      <trkpt lat="44.7386" lon="6.84873">
        <ele>2062.9</ele>
        <time>2026-03-23T09:26:44Z</time>
      </trkpt>
      <trkpt lat="44.7386" lon="6.84873">
        <ele>2062.9</ele>
        <time>2026-03-23T09:26:45Z</time>
      </trkpt>
      <trkpt lat="44.7386" lon="6.84873">
        <ele>2062.9</ele>
        <time>2026-03-23T09:26:46Z</time>
      </trkpt>
      <trkpt lat="44.7386" lon="6.84873">
        <ele>2062.9</ele>
        <time>2026-03-23T09:26:47Z</time>
      </trkpt>
      <trkpt lat="44.7386" lon="6.84873">
        <ele>2062.9</ele>
        <time>2026-03-23T09:26:48Z</time>
      </trkpt>
      <trkpt lat="44.7386" lon="6.84873">
        <ele>2062.9</ele>
        <time>2026-03-23T09:26:49Z</time>
      </trkpt>
      <trkpt lat="44.7386" lon="6.84873">
        <ele>2062.9</ele>
        <time>2026-03-23T09:26:50Z</time>
      </trkpt>
      <trkpt lat="44.7386" lon="6.84873">
        <ele>2062.9</ele>
        <time>2026-03-23T09:26:51Z</time>
      </trkpt>
      <trkpt lat="44.7386" lon="6.84873">
        <ele>2062.9</ele>
        <time>2026-03-23T09:26:52Z</time>
      </trkpt>
      <trkpt lat="44.7386" lon="6.84873">
        <ele>2062.9</ele>
        <time>2026-03-23T09:26:53Z</time>
      </trkpt>
      <trkpt lat="44.7386" lon="6.84873">
        <ele>2062.9</ele>
        <time>2026-03-23T09:26:54Z</time>
      </trkpt>
      <trkpt lat="44.7386" lon="6.84873">
        <ele>2062.8</ele>
        <time>2026-03-23T09:26:55Z</time>
      </trkpt>
      <trkpt lat="44.7386" lon="6.84873">
        <ele>2062.8</ele>
        <time>2026-03-23T09:26:56Z</time>
      </trkpt>
      <trkpt lat="44.7386" lon="6.84873">
        <ele>2062.8</ele>
        <time>2026-03-23T09:26:57Z</time>
      </trkpt>
      <trkpt lat="44.7386" lon="6.84873">
        <ele>2062.8</ele>
        <time>2026-03-23T09:26:58Z</time>
      </trkpt>
      <trkpt lat="44.7386" lon="6.84873">
        <ele>2062.8</ele>
        <time>2026-03-23T09:26:59Z</time>
      </trkpt>
      <trkpt lat="44.7386" lon="6.84873">
        <ele>2062.8</ele>
        <time>2026-03-23T09:27:00Z</time>
      </trkpt>
      <trkpt lat="44.7386" lon="6.84873">
        <ele>2062.8</ele>
        <time>2026-03-23T09:27:01Z</time>
      </trkpt>
      <trkpt lat="44.7386" lon="6.84873">
        <ele>2062.8</ele>
        <time>2026-03-23T09:27:02Z</time>
      </trkpt>
      <trkpt lat="44.7386" lon="6.84873">
        <ele>2062.8</ele>
        <time>2026-03-23T09:27:03Z</time>
      </trkpt>
      <trkpt lat="44.73861" lon="6.84873">
        <ele>2063.5</ele>
        <time>2026-03-23T09:27:04Z</time>
      </trkpt>
      <trkpt lat="44.73861" lon="6.84874">
        <ele>2063.5</ele>
        <time>2026-03-23T09:27:05Z</time>
      </trkpt>
      <trkpt lat="44.73861" lon="6.84874">
        <ele>2063.5</ele>
        <time>2026-03-23T09:27:06Z</time>
      </trkpt>
      <trkpt lat="44.73861" lon="6.84874">
        <ele>2063.5</ele>
        <time>2026-03-23T09:27:07Z</time>
      </trkpt>
      <trkpt lat="44.73861" lon="6.84874">
        <ele>2063.5</ele>
        <time>2026-03-23T09:27:08Z</time>
      </trkpt>
      <trkpt lat="44.73861" lon="6.84874">
        <ele>2063.5</ele>
        <time>2026-03-23T09:27:09Z</time>
      </trkpt>
      <trkpt lat="44.73861" lon="6.84874">
        <ele>2063.5</ele>
        <time>2026-03-23T09:27:10Z</time>
      </trkpt>
      <trkpt lat="44.73861" lon="6.84875">
        <ele>2063.5</ele>
        <time>2026-03-23T09:27:11Z</time>
      </trkpt>
      <trkpt lat="44.73861" lon="6.84876">
        <ele>2063.5</ele>
        <time>2026-03-23T09:27:12Z</time>
      </trkpt>
      <trkpt lat="44.73862" lon="6.84876">
        <ele>2063.5</ele>
        <time>2026-03-23T09:27:13Z</time>
      </trkpt>
      <trkpt lat="44.73862" lon="6.84876">
        <ele>2063.5</ele>
        <time>2026-03-23T09:27:14Z</time>
      </trkpt>
      <trkpt lat="44.73862" lon="6.84876">
        <ele>2063.5</ele>
        <time>2026-03-23T09:27:15Z</time>
      </trkpt>
      <trkpt lat="44.73862" lon="6.84876">
        <ele>2063.5</ele>
        <time>2026-03-23T09:27:16Z</time>
      </trkpt>
      <trkpt lat="44.73862" lon="6.84876">
        <ele>2063.5</ele>
        <time>2026-03-23T09:27:17Z</time>
      </trkpt>
      <trkpt lat="44.73862" lon="6.84876">
        <ele>2063.5</ele>
        <time>2026-03-23T09:27:18Z</time>
      </trkpt>
      <trkpt lat="44.73862" lon="6.84876">
        <ele>2063.5</ele>
        <time>2026-03-23T09:27:19Z</time>
      </trkpt>
      <trkpt lat="44.73862" lon="6.84876">
        <ele>2063.5</ele>
        <time>2026-03-23T09:27:20Z</time>
      </trkpt>
      <trkpt lat="44.73862" lon="6.84877">
        <ele>2063.5</ele>
        <time>2026-03-23T09:27:21Z</time>
      </trkpt>
      <trkpt lat="44.73863" lon="6.84877">
        <ele>2063.5</ele>
        <time>2026-03-23T09:27:22Z</time>
      </trkpt>
      <trkpt lat="44.73862" lon="6.84876">
        <ele>2063.5</ele>
        <time>2026-03-23T09:27:23Z</time>
      </trkpt>
      <trkpt lat="44.73862" lon="6.84876">
        <ele>2063.5</ele>
        <time>2026-03-23T09:27:24Z</time>
      </trkpt>
      <trkpt lat="44.73862" lon="6.84876">
        <ele>2063.5</ele>
        <time>2026-03-23T09:27:25Z</time>
      </trkpt>
      <trkpt lat="44.73862" lon="6.84876">
        <ele>2063.5</ele>
        <time>2026-03-23T09:27:26Z</time>
      </trkpt>
      <trkpt lat="44.73862" lon="6.84876">
        <ele>2063.5</ele>
        <time>2026-03-23T09:27:27Z</time>
      </trkpt>
      <trkpt lat="44.73862" lon="6.84876">
        <ele>2063.5</ele>
        <time>2026-03-23T09:27:28Z</time>
      </trkpt>
      <trkpt lat="44.73862" lon="6.84876">
        <ele>2063.5</ele>
        <time>2026-03-23T09:27:29Z</time>
      </trkpt>
      <trkpt lat="44.73862" lon="6.84876">
        <ele>2063.5</ele>
        <time>2026-03-23T09:27:30Z</time>
      </trkpt>
      <trkpt lat="44.73862" lon="6.84876">
        <ele>2063.5</ele>
        <time>2026-03-23T09:27:32Z</time>
      </trkpt>
      <trkpt lat="44.73862" lon="6.84876">
        <ele>2063.5</ele>
        <time>2026-03-23T09:27:33Z</time>
      </trkpt>
      <trkpt lat="44.73862" lon="6.84877">
        <ele>2063.5</ele>
        <time>2026-03-23T09:27:34Z</time>
      </trkpt>
      <trkpt lat="44.73862" lon="6.84877">
        <ele>2063.5</ele>
        <time>2026-03-23T09:27:35Z</time>
      </trkpt>
      <trkpt lat="44.73862" lon="6.84876">
        <ele>2063.5</ele>
        <time>2026-03-23T09:27:36Z</time>
      </trkpt>
      <trkpt lat="44.73862" lon="6.84877">
        <ele>2063.5</ele>
        <time>2026-03-23T09:27:37Z</time>
      </trkpt>
      <trkpt lat="44.73862" lon="6.84877">
        <ele>2063.5</ele>
        <time>2026-03-23T09:27:38Z</time>
      </trkpt>
      <trkpt lat="44.73862" lon="6.84877">
        <ele>2063.5</ele>
        <time>2026-03-23T09:27:39Z</time>
      </trkpt>
      <trkpt lat="44.73862" lon="6.84876">
        <ele>2063.5</ele>
        <time>2026-03-23T09:27:40Z</time>
      </trkpt>
      <trkpt lat="44.73862" lon="6.84876">
        <ele>2063.5</ele>
        <time>2026-03-23T09:27:41Z</time>
      </trkpt>
      <trkpt lat="44.73862" lon="6.84876">
        <ele>2063.5</ele>
        <time>2026-03-23T09:27:42Z</time>
      </trkpt>
      <trkpt lat="44.73862" lon="6.84876">
        <ele>2063.5</ele>
        <time>2026-03-23T09:27:43Z</time>
      </trkpt>
      <trkpt lat="44.73862" lon="6.84876">
        <ele>2063.5</ele>
        <time>2026-03-23T09:27:44Z</time>
      </trkpt>
      <trkpt lat="44.73862" lon="6.84877">
        <ele>2063.5</ele>
        <time>2026-03-23T09:27:45Z</time>
      </trkpt>
      <trkpt lat="44.73862" lon="6.84878">
        <ele>2064.1</ele>
        <time>2026-03-23T09:27:46Z</time>
      </trkpt>
      <trkpt lat="44.73863" lon="6.84878">
        <ele>2064.1</ele>
        <time>2026-03-23T09:27:47Z</time>
      </trkpt>
      <trkpt lat="44.73863" lon="6.84878">
        <ele>2064.1</ele>
        <time>2026-03-23T09:27:48Z</time>
      </trkpt>
      <trkpt lat="44.73863" lon="6.84878">
        <ele>2064.1</ele>
        <time>2026-03-23T09:27:49Z</time>
      </trkpt>
      <trkpt lat="44.73863" lon="6.84878">
        <ele>2064.1</ele>
        <time>2026-03-23T09:27:50Z</time>
      </trkpt>
      <trkpt lat="44.73863" lon="6.84878">
        <ele>2064.1</ele>
        <time>2026-03-23T09:27:51Z</time>
      </trkpt>
      <trkpt lat="44.73863" lon="6.84878">
        <ele>2064.1</ele>
        <time>2026-03-23T09:27:52Z</time>
      </trkpt>
      <trkpt lat="44.73863" lon="6.84878">
        <ele>2064.1</ele>
        <time>2026-03-23T09:27:53Z</time>
      </trkpt>
      <trkpt lat="44.73863" lon="6.84878">
        <ele>2064.1</ele>
        <time>2026-03-23T09:27:54Z</time>
      </trkpt>
      <trkpt lat="44.73863" lon="6.84878">
        <ele>2064.1</ele>
        <time>2026-03-23T09:27:55Z</time>
      </trkpt>
      <trkpt lat="44.73863" lon="6.84878">
        <ele>2064.1</ele>
        <time>2026-03-23T09:27:56Z</time>
      </trkpt>
      <trkpt lat="44.73863" lon="6.84878">
        <ele>2064.1</ele>
        <time>2026-03-23T09:27:57Z</time>
      </trkpt>
      <trkpt lat="44.73863" lon="6.84878">
        <ele>2064.1</ele>
        <time>2026-03-23T09:27:58Z</time>
      </trkpt>
      <trkpt lat="44.73863" lon="6.84878">
        <ele>2064.1</ele>
        <time>2026-03-23T09:27:59Z</time>
      </trkpt>
      <trkpt lat="44.73863" lon="6.84878">
        <ele>2064.1</ele>
        <time>2026-03-23T09:28:00Z</time>
      </trkpt>
      <trkpt lat="44.73863" lon="6.84878">
        <ele>2064.1</ele>
        <time>2026-03-23T09:28:01Z</time>
      </trkpt>
      <trkpt lat="44.73863" lon="6.84878">
        <ele>2064.1</ele>
        <time>2026-03-23T09:28:02Z</time>
      </trkpt>
      <trkpt lat="44.73863" lon="6.84878">
        <ele>2064.1</ele>
        <time>2026-03-23T09:28:03Z</time>
      </trkpt>
      <trkpt lat="44.73863" lon="6.84878">
        <ele>2064.1</ele>
        <time>2026-03-23T09:28:04Z</time>
      </trkpt>
      <trkpt lat="44.73863" lon="6.84878">
        <ele>2064.1</ele>
        <time>2026-03-23T09:28:05Z</time>
      </trkpt>
      <trkpt lat="44.73863" lon="6.84878">
        <ele>2064.1</ele>
        <time>2026-03-23T09:28:06Z</time>
      </trkpt>
      <trkpt lat="44.73863" lon="6.84878">
        <ele>2064.1</ele>
        <time>2026-03-23T09:28:07Z</time>
      </trkpt>
      <trkpt lat="44.73863" lon="6.84878">
        <ele>2064.1</ele>
        <time>2026-03-23T09:28:08Z</time>
      </trkpt>
      <trkpt lat="44.73863" lon="6.84878">
        <ele>2064.1</ele>
        <time>2026-03-23T09:28:09Z</time>
      </trkpt>
      <trkpt lat="44.73863" lon="6.84878">
        <ele>2064</ele>
        <time>2026-03-23T09:28:10Z</time>
      </trkpt>
      <trkpt lat="44.73863" lon="6.84878">
        <ele>2064</ele>
        <time>2026-03-23T09:28:11Z</time>
      </trkpt>
      <trkpt lat="44.73863" lon="6.84878">
        <ele>2064</ele>
        <time>2026-03-23T09:28:12Z</time>
      </trkpt>
      <trkpt lat="44.73863" lon="6.84878">
        <ele>2064</ele>
        <time>2026-03-23T09:28:13Z</time>
      </trkpt>
      <trkpt lat="44.73863" lon="6.84878">
        <ele>2064</ele>
        <time>2026-03-23T09:28:14Z</time>
      </trkpt>
      <trkpt lat="44.73864" lon="6.84879">
        <ele>2064</ele>
        <time>2026-03-23T09:28:15Z</time>
      </trkpt>
      <trkpt lat="44.73864" lon="6.84879">
        <ele>2064</ele>
        <time>2026-03-23T09:28:16Z</time>
      </trkpt>
      <trkpt lat="44.73864" lon="6.84879">
        <ele>2064</ele>
        <time>2026-03-23T09:28:17Z</time>
      </trkpt>
      <trkpt lat="44.73864" lon="6.84879">
        <ele>2064</ele>
        <time>2026-03-23T09:28:18Z</time>
      </trkpt>
      <trkpt lat="44.73865" lon="6.8488">
        <ele>2064</ele>
        <time>2026-03-23T09:28:19Z</time>
      </trkpt>
      <trkpt lat="44.73866" lon="6.84881">
        <ele>2064</ele>
        <time>2026-03-23T09:28:20Z</time>
      </trkpt>
      <trkpt lat="44.73866" lon="6.84881">
        <ele>2064</ele>
        <time>2026-03-23T09:28:21Z</time>
      </trkpt>
      <trkpt lat="44.73866" lon="6.84881">
        <ele>2064</ele>
        <time>2026-03-23T09:28:22Z</time>
      </trkpt>
      <trkpt lat="44.73866" lon="6.84881">
        <ele>2064</ele>
        <time>2026-03-23T09:28:23Z</time>
      </trkpt>
      <trkpt lat="44.73866" lon="6.84881">
        <ele>2064</ele>
        <time>2026-03-23T09:28:24Z</time>
      </trkpt>
      <trkpt lat="44.73866" lon="6.84881">
        <ele>2064</ele>
        <time>2026-03-23T09:28:25Z</time>
      </trkpt>
      <trkpt lat="44.73866" lon="6.84881">
        <ele>2064</ele>
        <time>2026-03-23T09:28:26Z</time>
      </trkpt>
      <trkpt lat="44.73866" lon="6.84882">
        <ele>2064</ele>
        <time>2026-03-23T09:28:27Z</time>
      </trkpt>
      <trkpt lat="44.73867" lon="6.84882">
        <ele>2064.7</ele>
        <time>2026-03-23T09:28:28Z</time>
      </trkpt>
      <trkpt lat="44.73867" lon="6.84882">
        <ele>2064.7</ele>
        <time>2026-03-23T09:28:29Z</time>
      </trkpt>
      <trkpt lat="44.73867" lon="6.84882">
        <ele>2064.7</ele>
        <time>2026-03-23T09:28:30Z</time>
      </trkpt>
      <trkpt lat="44.73867" lon="6.84882">
        <ele>2064.6</ele>
        <time>2026-03-23T09:28:31Z</time>
      </trkpt>
      <trkpt lat="44.73867" lon="6.84883">
        <ele>2064.6</ele>
        <time>2026-03-23T09:28:32Z</time>
      </trkpt>
      <trkpt lat="44.73867" lon="6.84883">
        <ele>2064.6</ele>
        <time>2026-03-23T09:28:33Z</time>
      </trkpt>
      <trkpt lat="44.73867" lon="6.84883">
        <ele>2064.6</ele>
        <time>2026-03-23T09:28:34Z</time>
      </trkpt>
      <trkpt lat="44.73867" lon="6.84883">
        <ele>2064.6</ele>
        <time>2026-03-23T09:28:35Z</time>
      </trkpt>
      <trkpt lat="44.73867" lon="6.84883">
        <ele>2064.6</ele>
        <time>2026-03-23T09:28:36Z</time>
      </trkpt>
      <trkpt lat="44.73868" lon="6.84883">
        <ele>2064.6</ele>
        <time>2026-03-23T09:28:37Z</time>
      </trkpt>
      <trkpt lat="44.73868" lon="6.84884">
        <ele>2064.6</ele>
        <time>2026-03-23T09:28:38Z</time>
      </trkpt>
      <trkpt lat="44.73869" lon="6.84884">
        <ele>2064.6</ele>
        <time>2026-03-23T09:28:39Z</time>
      </trkpt>
      <trkpt lat="44.73869" lon="6.84884">
        <ele>2064.6</ele>
        <time>2026-03-23T09:28:40Z</time>
      </trkpt>
      <trkpt lat="44.73869" lon="6.84884">
        <ele>2064.6</ele>
        <time>2026-03-23T09:28:41Z</time>
      </trkpt>
      <trkpt lat="44.73869" lon="6.84884">
        <ele>2064.6</ele>
        <time>2026-03-23T09:28:42Z</time>
      </trkpt>
      <trkpt lat="44.73869" lon="6.84884">
        <ele>2064.6</ele>
        <time>2026-03-23T09:28:43Z</time>
      </trkpt>
      <trkpt lat="44.73869" lon="6.84884">
        <ele>2064.6</ele>
        <time>2026-03-23T09:28:44Z</time>
      </trkpt>
      <trkpt lat="44.73869" lon="6.84884">
        <ele>2064.6</ele>
        <time>2026-03-23T09:28:45Z</time>
      </trkpt>
      <trkpt lat="44.73869" lon="6.84884">
        <ele>2064.6</ele>
        <time>2026-03-23T09:28:46Z</time>
      </trkpt>
      <trkpt lat="44.73869" lon="6.84885">
        <ele>2064.6</ele>
        <time>2026-03-23T09:28:47Z</time>
      </trkpt>
      <trkpt lat="44.73869" lon="6.84885">
        <ele>2064.6</ele>
        <time>2026-03-23T09:28:48Z</time>
      </trkpt>
      <trkpt lat="44.73868" lon="6.84885">
        <ele>2064.6</ele>
        <time>2026-03-23T09:28:49Z</time>
      </trkpt>
      <trkpt lat="44.73868" lon="6.84886">
        <ele>2064.6</ele>
        <time>2026-03-23T09:28:50Z</time>
      </trkpt>
      <trkpt lat="44.73868" lon="6.84887">
        <ele>2065.3</ele>
        <time>2026-03-23T09:28:51Z</time>
      </trkpt>
      <trkpt lat="44.73868" lon="6.84888">
        <ele>2065.3</ele>
        <time>2026-03-23T09:28:52Z</time>
      </trkpt>
      <trkpt lat="44.73869" lon="6.84889">
        <ele>2065.3</ele>
        <time>2026-03-23T09:28:53Z</time>
      </trkpt>
      <trkpt lat="44.73869" lon="6.84888">
        <ele>2065.3</ele>
        <time>2026-03-23T09:28:54Z</time>
      </trkpt>
      <trkpt lat="44.7387" lon="6.84889">
        <ele>2065.3</ele>
        <time>2026-03-23T09:28:55Z</time>
      </trkpt>
      <trkpt lat="44.7387" lon="6.8489">
        <ele>2065.3</ele>
        <time>2026-03-23T09:28:56Z</time>
      </trkpt>
      <trkpt lat="44.73871" lon="6.8489">
        <ele>2066.1</ele>
        <time>2026-03-23T09:28:57Z</time>
      </trkpt>
      <trkpt lat="44.73872" lon="6.84891">
        <ele>2066.1</ele>
        <time>2026-03-23T09:28:58Z</time>
      </trkpt>
      <trkpt lat="44.73872" lon="6.84892">
        <ele>2066.1</ele>
        <time>2026-03-23T09:28:59Z</time>
      </trkpt>
      <trkpt lat="44.73873" lon="6.84892">
        <ele>2066.1</ele>
        <time>2026-03-23T09:29:00Z</time>
      </trkpt>
      <trkpt lat="44.73874" lon="6.84893">
        <ele>2066.1</ele>
        <time>2026-03-23T09:29:02Z</time>
      </trkpt>
      <trkpt lat="44.73874" lon="6.84894">
        <ele>2066.1</ele>
        <time>2026-03-23T09:29:03Z</time>
      </trkpt>
      <trkpt lat="44.73875" lon="6.84895">
        <ele>2066.9</ele>
        <time>2026-03-23T09:29:04Z</time>
      </trkpt>
      <trkpt lat="44.73875" lon="6.84895">
        <ele>2066.9</ele>
        <time>2026-03-23T09:29:05Z</time>
      </trkpt>
      <trkpt lat="44.73875" lon="6.84895">
        <ele>2066.9</ele>
        <time>2026-03-23T09:29:06Z</time>
      </trkpt>
      <trkpt lat="44.73875" lon="6.84896">
        <ele>2066.9</ele>
        <time>2026-03-23T09:29:07Z</time>
      </trkpt>
      <trkpt lat="44.73876" lon="6.84896">
        <ele>2066.9</ele>
        <time>2026-03-23T09:29:08Z</time>
      </trkpt>
      <trkpt lat="44.73875" lon="6.84898">
        <ele>2066.9</ele>
        <time>2026-03-23T09:29:09Z</time>
      </trkpt>
      <trkpt lat="44.73875" lon="6.84898">
        <ele>2066.9</ele>
        <time>2026-03-23T09:29:11Z</time>
      </trkpt>
      <trkpt lat="44.73876" lon="6.84898">
        <ele>2066.9</ele>
        <time>2026-03-23T09:29:12Z</time>
      </trkpt>
      <trkpt lat="44.73876" lon="6.84899">
        <ele>2067.8</ele>
        <time>2026-03-23T09:29:13Z</time>
      </trkpt>
      <trkpt lat="44.73876" lon="6.849">
        <ele>2067.8</ele>
        <time>2026-03-23T09:29:14Z</time>
      </trkpt>
      <trkpt lat="44.73876" lon="6.84901">
        <ele>2067.8</ele>
        <time>2026-03-23T09:29:15Z</time>
      </trkpt>
      <trkpt lat="44.73876" lon="6.84902">
        <ele>2067.8</ele>
        <time>2026-03-23T09:29:16Z</time>
      </trkpt>
      <trkpt lat="44.73876" lon="6.84902">
        <ele>2067.8</ele>
        <time>2026-03-23T09:29:17Z</time>
      </trkpt>
      <trkpt lat="44.73876" lon="6.84903">
        <ele>2067.8</ele>
        <time>2026-03-23T09:29:18Z</time>
      </trkpt>
      <trkpt lat="44.73876" lon="6.84903">
        <ele>2067.8</ele>
        <time>2026-03-23T09:29:19Z</time>
      </trkpt>
      <trkpt lat="44.73877" lon="6.84904">
        <ele>2068.8</ele>
        <time>2026-03-23T09:29:20Z</time>
      </trkpt>
      <trkpt lat="44.73877" lon="6.84905">
        <ele>2068.8</ele>
        <time>2026-03-23T09:29:22Z</time>
      </trkpt>
      <trkpt lat="44.73877" lon="6.84906">
        <ele>2068.7</ele>
        <time>2026-03-23T09:29:23Z</time>
      </trkpt>
      <trkpt lat="44.73877" lon="6.84907">
        <ele>2068.7</ele>
        <time>2026-03-23T09:29:25Z</time>
      </trkpt>
      <trkpt lat="44.73877" lon="6.84907">
        <ele>2068.7</ele>
        <time>2026-03-23T09:29:26Z</time>
      </trkpt>
      <trkpt lat="44.73877" lon="6.84908">
        <ele>2069.7</ele>
        <time>2026-03-23T09:29:27Z</time>
      </trkpt>
      <trkpt lat="44.73878" lon="6.84909">
        <ele>2069.7</ele>
        <time>2026-03-23T09:29:28Z</time>
      </trkpt>
      <trkpt lat="44.73878" lon="6.8491">
        <ele>2069.8</ele>
        <time>2026-03-23T09:29:29Z</time>
      </trkpt>
      <trkpt lat="44.73878" lon="6.8491">
        <ele>2069.8</ele>
        <time>2026-03-23T09:29:30Z</time>
      </trkpt>
      <trkpt lat="44.73879" lon="6.84911">
        <ele>2069.8</ele>
        <time>2026-03-23T09:29:31Z</time>
      </trkpt>
      <trkpt lat="44.73879" lon="6.84911">
        <ele>2069.8</ele>
        <time>2026-03-23T09:29:32Z</time>
      </trkpt>
      <trkpt lat="44.73879" lon="6.84912">
        <ele>2070.8</ele>
        <time>2026-03-23T09:29:33Z</time>
      </trkpt>
      <trkpt lat="44.73879" lon="6.84913">
        <ele>2070.8</ele>
        <time>2026-03-23T09:29:35Z</time>
      </trkpt>
      <trkpt lat="44.7388" lon="6.84913">
        <ele>2070.8</ele>
        <time>2026-03-23T09:29:36Z</time>
      </trkpt>
      <trkpt lat="44.7388" lon="6.84914">
        <ele>2070.8</ele>
        <time>2026-03-23T09:29:37Z</time>
      </trkpt>
      <trkpt lat="44.7388" lon="6.84914">
        <ele>2070.8</ele>
        <time>2026-03-23T09:29:39Z</time>
      </trkpt>
      <trkpt lat="44.7388" lon="6.84915">
        <ele>2070.8</ele>
        <time>2026-03-23T09:29:40Z</time>
      </trkpt>
      <trkpt lat="44.7388" lon="6.84915">
        <ele>2070.8</ele>
        <time>2026-03-23T09:29:41Z</time>
      </trkpt>
      <trkpt lat="44.7388" lon="6.84915">
        <ele>2070.8</ele>
        <time>2026-03-23T09:29:42Z</time>
      </trkpt>
      <trkpt lat="44.7388" lon="6.84916">
        <ele>2070.8</ele>
        <time>2026-03-23T09:29:43Z</time>
      </trkpt>
      <trkpt lat="44.7388" lon="6.84916">
        <ele>2071.8</ele>
        <time>2026-03-23T09:29:44Z</time>
      </trkpt>
      <trkpt lat="44.7388" lon="6.84917">
        <ele>2071.8</ele>
        <time>2026-03-23T09:29:45Z</time>
      </trkpt>
      <trkpt lat="44.7388" lon="6.84917">
        <ele>2071.8</ele>
        <time>2026-03-23T09:29:46Z</time>
      </trkpt>
      <trkpt lat="44.73881" lon="6.84918">
        <ele>2071.8</ele>
        <time>2026-03-23T09:29:47Z</time>
      </trkpt>
      <trkpt lat="44.73881" lon="6.84918">
        <ele>2071.8</ele>
        <time>2026-03-23T09:29:48Z</time>
      </trkpt>
      <trkpt lat="44.73881" lon="6.84919">
        <ele>2072</ele>
        <time>2026-03-23T09:29:49Z</time>
      </trkpt>
      <trkpt lat="44.73881" lon="6.84919">
        <ele>2072</ele>
        <time>2026-03-23T09:29:50Z</time>
      </trkpt>
      <trkpt lat="44.73881" lon="6.8492">
        <ele>2072</ele>
        <time>2026-03-23T09:29:51Z</time>
      </trkpt>
      <trkpt lat="44.73881" lon="6.8492">
        <ele>2072</ele>
        <time>2026-03-23T09:29:52Z</time>
      </trkpt>
      <trkpt lat="44.73881" lon="6.8492">
        <ele>2072</ele>
        <time>2026-03-23T09:29:53Z</time>
      </trkpt>
      <trkpt lat="44.73882" lon="6.84921">
        <ele>2072.9</ele>
        <time>2026-03-23T09:29:54Z</time>
      </trkpt>
      <trkpt lat="44.73882" lon="6.84921">
        <ele>2072.9</ele>
        <time>2026-03-23T09:29:56Z</time>
      </trkpt>
      <trkpt lat="44.73882" lon="6.84922">
        <ele>2072.9</ele>
        <time>2026-03-23T09:29:57Z</time>
      </trkpt>
      <trkpt lat="44.73881" lon="6.84922">
        <ele>2072.9</ele>
        <time>2026-03-23T09:29:58Z</time>
      </trkpt>
      <trkpt lat="44.73881" lon="6.84922">
        <ele>2072.9</ele>
        <time>2026-03-23T09:29:59Z</time>
      </trkpt>
      <trkpt lat="44.73881" lon="6.84923">
        <ele>2072.7</ele>
        <time>2026-03-23T09:30:00Z</time>
      </trkpt>
      <trkpt lat="44.73881" lon="6.84923">
        <ele>2072.9</ele>
        <time>2026-03-23T09:30:01Z</time>
      </trkpt>
      <trkpt lat="44.73881" lon="6.84924">
        <ele>2072.7</ele>
        <time>2026-03-23T09:30:02Z</time>
      </trkpt>
      <trkpt lat="44.73881" lon="6.84925">
        <ele>2072.7</ele>
        <time>2026-03-23T09:30:03Z</time>
      </trkpt>
      <trkpt lat="44.7388" lon="6.84926">
        <ele>2073.7</ele>
        <time>2026-03-23T09:30:04Z</time>
      </trkpt>
      <trkpt lat="44.7388" lon="6.84926">
        <ele>2073.7</ele>
        <time>2026-03-23T09:30:05Z</time>
      </trkpt>
      <trkpt lat="44.7388" lon="6.84927">
        <ele>2073.7</ele>
        <time>2026-03-23T09:30:06Z</time>
      </trkpt>
      <trkpt lat="44.73881" lon="6.84928">
        <ele>2073.7</ele>
        <time>2026-03-23T09:30:07Z</time>
      </trkpt>
      <trkpt lat="44.73881" lon="6.84928">
        <ele>2073.7</ele>
        <time>2026-03-23T09:30:08Z</time>
      </trkpt>
      <trkpt lat="44.73881" lon="6.84929">
        <ele>2073.7</ele>
        <time>2026-03-23T09:30:09Z</time>
      </trkpt>
      <trkpt lat="44.73881" lon="6.84929">
        <ele>2074.6</ele>
        <time>2026-03-23T09:30:10Z</time>
      </trkpt>
      <trkpt lat="44.73881" lon="6.84929">
        <ele>2074.6</ele>
        <time>2026-03-23T09:30:11Z</time>
      </trkpt>
      <trkpt lat="44.73881" lon="6.8493">
        <ele>2074.6</ele>
        <time>2026-03-23T09:30:12Z</time>
      </trkpt>
      <trkpt lat="44.73881" lon="6.8493">
        <ele>2074.6</ele>
        <time>2026-03-23T09:30:14Z</time>
      </trkpt>
      <trkpt lat="44.73881" lon="6.8493">
        <ele>2074.6</ele>
        <time>2026-03-23T09:30:15Z</time>
      </trkpt>
      <trkpt lat="44.73881" lon="6.8493">
        <ele>2074.6</ele>
        <time>2026-03-23T09:30:16Z</time>
      </trkpt>
      <trkpt lat="44.73881" lon="6.8493">
        <ele>2074.6</ele>
        <time>2026-03-23T09:30:17Z</time>
      </trkpt>
      <trkpt lat="44.73881" lon="6.84931">
        <ele>2074.8</ele>
        <time>2026-03-23T09:30:18Z</time>
      </trkpt>
      <trkpt lat="44.73881" lon="6.84931">
        <ele>2074.6</ele>
        <time>2026-03-23T09:30:19Z</time>
      </trkpt>
      <trkpt lat="44.73881" lon="6.84931">
        <ele>2074.6</ele>
        <time>2026-03-23T09:30:20Z</time>
      </trkpt>
      <trkpt lat="44.73881" lon="6.84932">
        <ele>2074.6</ele>
        <time>2026-03-23T09:30:21Z</time>
      </trkpt>
      <trkpt lat="44.73881" lon="6.84932">
        <ele>2074.6</ele>
        <time>2026-03-23T09:30:22Z</time>
      </trkpt>
      <trkpt lat="44.73881" lon="6.84932">
        <ele>2074.6</ele>
        <time>2026-03-23T09:30:24Z</time>
      </trkpt>
      <trkpt lat="44.73881" lon="6.84933">
        <ele>2074.6</ele>
        <time>2026-03-23T09:30:25Z</time>
      </trkpt>
      <trkpt lat="44.73881" lon="6.84933">
        <ele>2074.6</ele>
        <time>2026-03-23T09:30:27Z</time>
      </trkpt>
      <trkpt lat="44.73881" lon="6.84933">
        <ele>2075.6</ele>
        <time>2026-03-23T09:30:28Z</time>
      </trkpt>
      <trkpt lat="44.73881" lon="6.84934">
        <ele>2075.6</ele>
        <time>2026-03-23T09:30:29Z</time>
      </trkpt>
      <trkpt lat="44.73881" lon="6.84934">
        <ele>2075.6</ele>
        <time>2026-03-23T09:30:30Z</time>
      </trkpt>
      <trkpt lat="44.73881" lon="6.84935">
        <ele>2075.6</ele>
        <time>2026-03-23T09:30:31Z</time>
      </trkpt>
      <trkpt lat="44.73881" lon="6.84936">
        <ele>2075.6</ele>
        <time>2026-03-23T09:30:32Z</time>
      </trkpt>
      <trkpt lat="44.73881" lon="6.84936">
        <ele>2075.8</ele>
        <time>2026-03-23T09:30:33Z</time>
      </trkpt>
      <trkpt lat="44.73881" lon="6.84937">
        <ele>2075.8</ele>
        <time>2026-03-23T09:30:34Z</time>
      </trkpt>
      <trkpt lat="44.73881" lon="6.84938">
        <ele>2076.8</ele>
        <time>2026-03-23T09:30:35Z</time>
      </trkpt>
      <trkpt lat="44.73882" lon="6.84939">
        <ele>2076.8</ele>
        <time>2026-03-23T09:30:36Z</time>
      </trkpt>
      <trkpt lat="44.73882" lon="6.84939">
        <ele>2076.8</ele>
        <time>2026-03-23T09:30:37Z</time>
      </trkpt>
      <trkpt lat="44.73882" lon="6.8494">
        <ele>2076.8</ele>
        <time>2026-03-23T09:30:38Z</time>
      </trkpt>
      <trkpt lat="44.73882" lon="6.8494">
        <ele>2076.8</ele>
        <time>2026-03-23T09:30:39Z</time>
      </trkpt>
      <trkpt lat="44.73882" lon="6.84941">
        <ele>2076.8</ele>
        <time>2026-03-23T09:30:40Z</time>
      </trkpt>
      <trkpt lat="44.73882" lon="6.84942">
        <ele>2077.9</ele>
        <time>2026-03-23T09:30:41Z</time>
      </trkpt>
      <trkpt lat="44.73882" lon="6.84943">
        <ele>2077.9</ele>
        <time>2026-03-23T09:30:42Z</time>
      </trkpt>
      <trkpt lat="44.73882" lon="6.84944">
        <ele>2077.9</ele>
        <time>2026-03-23T09:30:43Z</time>
      </trkpt>
      <trkpt lat="44.73882" lon="6.84945">
        <ele>2077.9</ele>
        <time>2026-03-23T09:30:44Z</time>
      </trkpt>
      <trkpt lat="44.73882" lon="6.84945">
        <ele>2077.9</ele>
        <time>2026-03-23T09:30:45Z</time>
      </trkpt>
      <trkpt lat="44.73882" lon="6.84945">
        <ele>2077.9</ele>
        <time>2026-03-23T09:30:46Z</time>
      </trkpt>
      <trkpt lat="44.73882" lon="6.84946">
        <ele>2079</ele>
        <time>2026-03-23T09:30:47Z</time>
      </trkpt>
      <trkpt lat="44.73882" lon="6.84947">
        <ele>2079</ele>
        <time>2026-03-23T09:30:48Z</time>
      </trkpt>
      <trkpt lat="44.73882" lon="6.84947">
        <ele>2079</ele>
        <time>2026-03-23T09:30:49Z</time>
      </trkpt>
      <trkpt lat="44.73882" lon="6.84948">
        <ele>2079</ele>
        <time>2026-03-23T09:30:50Z</time>
      </trkpt>
      <trkpt lat="44.73882" lon="6.84949">
        <ele>2079</ele>
        <time>2026-03-23T09:30:51Z</time>
      </trkpt>
      <trkpt lat="44.73882" lon="6.84949">
        <ele>2079</ele>
        <time>2026-03-23T09:30:52Z</time>
      </trkpt>
      <trkpt lat="44.73882" lon="6.84949">
        <ele>2079</ele>
        <time>2026-03-23T09:30:53Z</time>
      </trkpt>
      <trkpt lat="44.73881" lon="6.8495">
        <ele>2079</ele>
        <time>2026-03-23T09:30:54Z</time>
      </trkpt>
      <trkpt lat="44.73881" lon="6.84951">
        <ele>2080.1</ele>
        <time>2026-03-23T09:30:55Z</time>
      </trkpt>
      <trkpt lat="44.73881" lon="6.84951">
        <ele>2079.8</ele>
        <time>2026-03-23T09:30:56Z</time>
      </trkpt>
      <trkpt lat="44.7388" lon="6.84952">
        <ele>2079.8</ele>
        <time>2026-03-23T09:30:57Z</time>
      </trkpt>
      <trkpt lat="44.7388" lon="6.84952">
        <ele>2079.8</ele>
        <time>2026-03-23T09:30:58Z</time>
      </trkpt>
      <trkpt lat="44.7388" lon="6.84953">
        <ele>2079.8</ele>
        <time>2026-03-23T09:30:59Z</time>
      </trkpt>
      <trkpt lat="44.73879" lon="6.84954">
        <ele>2079.8</ele>
        <time>2026-03-23T09:31:00Z</time>
      </trkpt>
      <trkpt lat="44.73879" lon="6.84954">
        <ele>2079.8</ele>
        <time>2026-03-23T09:31:01Z</time>
      </trkpt>
      <trkpt lat="44.73879" lon="6.84955">
        <ele>2080.9</ele>
        <time>2026-03-23T09:31:02Z</time>
      </trkpt>
      <trkpt lat="44.73878" lon="6.84955">
        <ele>2080.9</ele>
        <time>2026-03-23T09:31:03Z</time>
      </trkpt>
      <trkpt lat="44.73878" lon="6.84957">
        <ele>2080.7</ele>
        <time>2026-03-23T09:31:04Z</time>
      </trkpt>
      <trkpt lat="44.73878" lon="6.84957">
        <ele>2080.7</ele>
        <time>2026-03-23T09:31:05Z</time>
      </trkpt>
      <trkpt lat="44.73877" lon="6.84959">
        <ele>2080.7</ele>
        <time>2026-03-23T09:31:06Z</time>
      </trkpt>
      <trkpt lat="44.73876" lon="6.8496">
        <ele>2081.7</ele>
        <time>2026-03-23T09:31:07Z</time>
      </trkpt>
      <trkpt lat="44.73876" lon="6.84961">
        <ele>2081.7</ele>
        <time>2026-03-23T09:31:08Z</time>
      </trkpt>
      <trkpt lat="44.73876" lon="6.84961">
        <ele>2081.7</ele>
        <time>2026-03-23T09:31:09Z</time>
      </trkpt>
      <trkpt lat="44.73876" lon="6.84962">
        <ele>2081.7</ele>
        <time>2026-03-23T09:31:11Z</time>
      </trkpt>
      <trkpt lat="44.73875" lon="6.84963">
        <ele>2082.7</ele>
        <time>2026-03-23T09:31:12Z</time>
      </trkpt>
      <trkpt lat="44.73875" lon="6.84964">
        <ele>2082.7</ele>
        <time>2026-03-23T09:31:14Z</time>
      </trkpt>
      <trkpt lat="44.73875" lon="6.84965">
        <ele>2082.7</ele>
        <time>2026-03-23T09:31:15Z</time>
      </trkpt>
      <trkpt lat="44.73875" lon="6.84966">
        <ele>2082.4</ele>
        <time>2026-03-23T09:31:16Z</time>
      </trkpt>
      <trkpt lat="44.73874" lon="6.84967">
        <ele>2082.4</ele>
        <time>2026-03-23T09:31:17Z</time>
      </trkpt>
      <trkpt lat="44.73874" lon="6.84968">
        <ele>2083.4</ele>
        <time>2026-03-23T09:31:18Z</time>
      </trkpt>
      <trkpt lat="44.73874" lon="6.84969">
        <ele>2083.4</ele>
        <time>2026-03-23T09:31:19Z</time>
      </trkpt>
      <trkpt lat="44.73874" lon="6.8497">
        <ele>2083.4</ele>
        <time>2026-03-23T09:31:20Z</time>
      </trkpt>
      <trkpt lat="44.73874" lon="6.84971">
        <ele>2083.4</ele>
        <time>2026-03-23T09:31:21Z</time>
      </trkpt>
      <trkpt lat="44.73874" lon="6.84971">
        <ele>2083.4</ele>
        <time>2026-03-23T09:31:22Z</time>
      </trkpt>
      <trkpt lat="44.73873" lon="6.84972">
        <ele>2084.4</ele>
        <time>2026-03-23T09:31:23Z</time>
      </trkpt>
      <trkpt lat="44.73873" lon="6.84973">
        <ele>2084.4</ele>
        <time>2026-03-23T09:31:24Z</time>
      </trkpt>
      <trkpt lat="44.73873" lon="6.84973">
        <ele>2084.4</ele>
        <time>2026-03-23T09:31:25Z</time>
      </trkpt>
      <trkpt lat="44.73873" lon="6.84974">
        <ele>2084.4</ele>
        <time>2026-03-23T09:31:26Z</time>
      </trkpt>
      <trkpt lat="44.73873" lon="6.84974">
        <ele>2084.4</ele>
        <time>2026-03-23T09:31:27Z</time>
      </trkpt>
      <trkpt lat="44.73872" lon="6.84975">
        <ele>2084.4</ele>
        <time>2026-03-23T09:31:28Z</time>
      </trkpt>
      <trkpt lat="44.73872" lon="6.84975">
        <ele>2084.4</ele>
        <time>2026-03-23T09:31:29Z</time>
      </trkpt>
      <trkpt lat="44.73872" lon="6.84976">
        <ele>2084.4</ele>
        <time>2026-03-23T09:31:30Z</time>
      </trkpt>
      <trkpt lat="44.73872" lon="6.84976">
        <ele>2084.4</ele>
        <time>2026-03-23T09:31:31Z</time>
      </trkpt>
      <trkpt lat="44.73872" lon="6.84976">
        <ele>2085.3</ele>
        <time>2026-03-23T09:31:32Z</time>
      </trkpt>
      <trkpt lat="44.73872" lon="6.84977">
        <ele>2085.3</ele>
        <time>2026-03-23T09:31:33Z</time>
      </trkpt>
      <trkpt lat="44.73872" lon="6.84977">
        <ele>2085.3</ele>
        <time>2026-03-23T09:31:34Z</time>
      </trkpt>
      <trkpt lat="44.73872" lon="6.84978">
        <ele>2085.3</ele>
        <time>2026-03-23T09:31:35Z</time>
      </trkpt>
      <trkpt lat="44.73872" lon="6.84979">
        <ele>2085.3</ele>
        <time>2026-03-23T09:31:36Z</time>
      </trkpt>
      <trkpt lat="44.73872" lon="6.8498">
        <ele>2085.3</ele>
        <time>2026-03-23T09:31:37Z</time>
      </trkpt>
      <trkpt lat="44.73872" lon="6.84981">
        <ele>2086.3</ele>
        <time>2026-03-23T09:31:38Z</time>
      </trkpt>
      <trkpt lat="44.73872" lon="6.84982">
        <ele>2086.3</ele>
        <time>2026-03-23T09:31:39Z</time>
      </trkpt>
      <trkpt lat="44.73873" lon="6.84983">
        <ele>2086.3</ele>
        <time>2026-03-23T09:31:40Z</time>
      </trkpt>
      <trkpt lat="44.73873" lon="6.84984">
        <ele>2086.3</ele>
        <time>2026-03-23T09:31:41Z</time>
      </trkpt>
      <trkpt lat="44.73873" lon="6.84985">
        <ele>2087.3</ele>
        <time>2026-03-23T09:31:42Z</time>
      </trkpt>
      <trkpt lat="44.73873" lon="6.84985">
        <ele>2087.3</ele>
        <time>2026-03-23T09:31:43Z</time>
      </trkpt>
      <trkpt lat="44.73874" lon="6.84987">
        <ele>2087.3</ele>
        <time>2026-03-23T09:31:45Z</time>
      </trkpt>
      <trkpt lat="44.73874" lon="6.84987">
        <ele>2087.3</ele>
        <time>2026-03-23T09:31:46Z</time>
      </trkpt>
      <trkpt lat="44.73874" lon="6.84989">
        <ele>2087.3</ele>
        <time>2026-03-23T09:31:47Z</time>
      </trkpt>
      <trkpt lat="44.73875" lon="6.84989">
        <ele>2088.3</ele>
        <time>2026-03-23T09:31:48Z</time>
      </trkpt>
      <trkpt lat="44.73875" lon="6.8499">
        <ele>2088.6</ele>
        <time>2026-03-23T09:31:49Z</time>
      </trkpt>
      <trkpt lat="44.73875" lon="6.84992">
        <ele>2088.6</ele>
        <time>2026-03-23T09:31:50Z</time>
      </trkpt>
      <trkpt lat="44.73876" lon="6.84994">
        <ele>2089.6</ele>
        <time>2026-03-23T09:31:52Z</time>
      </trkpt>
      <trkpt lat="44.73876" lon="6.84995">
        <ele>2089.6</ele>
        <time>2026-03-23T09:31:53Z</time>
      </trkpt>
      <trkpt lat="44.73877" lon="6.84996">
        <ele>2089.6</ele>
        <time>2026-03-23T09:31:54Z</time>
      </trkpt>
      <trkpt lat="44.73877" lon="6.84997">
        <ele>2089.6</ele>
        <time>2026-03-23T09:31:55Z</time>
      </trkpt>
      <trkpt lat="44.73877" lon="6.84998">
        <ele>2090.6</ele>
        <time>2026-03-23T09:31:56Z</time>
      </trkpt>
      <trkpt lat="44.73878" lon="6.84999">
        <ele>2091</ele>
        <time>2026-03-23T09:31:57Z</time>
      </trkpt>
      <trkpt lat="44.73878" lon="6.85001">
        <ele>2091</ele>
        <time>2026-03-23T09:31:58Z</time>
      </trkpt>
      <trkpt lat="44.73879" lon="6.85002">
        <ele>2091</ele>
        <time>2026-03-23T09:31:59Z</time>
      </trkpt>
      <trkpt lat="44.73879" lon="6.85002">
        <ele>2092</ele>
        <time>2026-03-23T09:32:00Z</time>
      </trkpt>
      <trkpt lat="44.7388" lon="6.85003">
        <ele>2092</ele>
        <time>2026-03-23T09:32:01Z</time>
      </trkpt>
      <trkpt lat="44.7388" lon="6.85005">
        <ele>2092</ele>
        <time>2026-03-23T09:32:02Z</time>
      </trkpt>
      <trkpt lat="44.73881" lon="6.85007">
        <ele>2092.9</ele>
        <time>2026-03-23T09:32:03Z</time>
      </trkpt>
      <trkpt lat="44.73881" lon="6.85008">
        <ele>2093.2</ele>
        <time>2026-03-23T09:32:04Z</time>
      </trkpt>
      <trkpt lat="44.73881" lon="6.85009">
        <ele>2093.2</ele>
        <time>2026-03-23T09:32:05Z</time>
      </trkpt>
      <trkpt lat="44.73882" lon="6.85011">
        <ele>2094.1</ele>
        <time>2026-03-23T09:32:06Z</time>
      </trkpt>
      <trkpt lat="44.73883" lon="6.85013">
        <ele>2094.1</ele>
        <time>2026-03-23T09:32:07Z</time>
      </trkpt>
      <trkpt lat="44.73883" lon="6.85014">
        <ele>2094.1</ele>
        <time>2026-03-23T09:32:08Z</time>
      </trkpt>
      <trkpt lat="44.73884" lon="6.85015">
        <ele>2094.9</ele>
        <time>2026-03-23T09:32:09Z</time>
      </trkpt>
      <trkpt lat="44.73884" lon="6.85017">
        <ele>2095.3</ele>
        <time>2026-03-23T09:32:10Z</time>
      </trkpt>
      <trkpt lat="44.73885" lon="6.85018">
        <ele>2095.3</ele>
        <time>2026-03-23T09:32:11Z</time>
      </trkpt>
      <trkpt lat="44.73885" lon="6.85018">
        <ele>2095.3</ele>
        <time>2026-03-23T09:32:12Z</time>
      </trkpt>
      <trkpt lat="44.73886" lon="6.85019">
        <ele>2095.3</ele>
        <time>2026-03-23T09:32:13Z</time>
      </trkpt>
      <trkpt lat="44.73886" lon="6.85019">
        <ele>2095.3</ele>
        <time>2026-03-23T09:32:14Z</time>
      </trkpt>
      <trkpt lat="44.73886" lon="6.85019">
        <ele>2095.3</ele>
        <time>2026-03-23T09:32:16Z</time>
      </trkpt>
      <trkpt lat="44.73886" lon="6.85019">
        <ele>2095.3</ele>
        <time>2026-03-23T09:32:17Z</time>
      </trkpt>
      <trkpt lat="44.73887" lon="6.8502">
        <ele>2096.1</ele>
        <time>2026-03-23T09:32:18Z</time>
      </trkpt>
      <trkpt lat="44.73887" lon="6.8502">
        <ele>2096.1</ele>
        <time>2026-03-23T09:32:19Z</time>
      </trkpt>
      <trkpt lat="44.73887" lon="6.8502">
        <ele>2096.5</ele>
        <time>2026-03-23T09:32:20Z</time>
      </trkpt>
      <trkpt lat="44.73887" lon="6.8502">
        <ele>2096.5</ele>
        <time>2026-03-23T09:32:21Z</time>
      </trkpt>
      <trkpt lat="44.73887" lon="6.85021">
        <ele>2096.5</ele>
        <time>2026-03-23T09:32:22Z</time>
      </trkpt>
      <trkpt lat="44.73888" lon="6.85021">
        <ele>2096.5</ele>
        <time>2026-03-23T09:32:23Z</time>
      </trkpt>
      <trkpt lat="44.73888" lon="6.85021">
        <ele>2096.5</ele>
        <time>2026-03-23T09:32:24Z</time>
      </trkpt>
      <trkpt lat="44.73888" lon="6.85021">
        <ele>2096.5</ele>
        <time>2026-03-23T09:32:25Z</time>
      </trkpt>
      <trkpt lat="44.73888" lon="6.85022">
        <ele>2096.5</ele>
        <time>2026-03-23T09:32:26Z</time>
      </trkpt>
      <trkpt lat="44.73888" lon="6.85022">
        <ele>2096.5</ele>
        <time>2026-03-23T09:32:27Z</time>
      </trkpt>
      <trkpt lat="44.73888" lon="6.85022">
        <ele>2096.5</ele>
        <time>2026-03-23T09:32:28Z</time>
      </trkpt>
      <trkpt lat="44.73888" lon="6.85022">
        <ele>2096.5</ele>
        <time>2026-03-23T09:32:29Z</time>
      </trkpt>
      <trkpt lat="44.73888" lon="6.85022">
        <ele>2096.5</ele>
        <time>2026-03-23T09:32:30Z</time>
      </trkpt>
      <trkpt lat="44.73888" lon="6.85022">
        <ele>2096.5</ele>
        <time>2026-03-23T09:32:31Z</time>
      </trkpt>
      <trkpt lat="44.73888" lon="6.85022">
        <ele>2096.5</ele>
        <time>2026-03-23T09:32:32Z</time>
      </trkpt>
      <trkpt lat="44.73888" lon="6.85022">
        <ele>2096.5</ele>
        <time>2026-03-23T09:32:33Z</time>
      </trkpt>
      <trkpt lat="44.73889" lon="6.85022">
        <ele>2096.5</ele>
        <time>2026-03-23T09:32:34Z</time>
      </trkpt>
      <trkpt lat="44.73889" lon="6.85022">
        <ele>2096.5</ele>
        <time>2026-03-23T09:32:35Z</time>
      </trkpt>
      <trkpt lat="44.73889" lon="6.85022">
        <ele>2096.5</ele>
        <time>2026-03-23T09:32:36Z</time>
      </trkpt>
      <trkpt lat="44.73889" lon="6.85022">
        <ele>2096.5</ele>
        <time>2026-03-23T09:32:37Z</time>
      </trkpt>
      <trkpt lat="44.73889" lon="6.85022">
        <ele>2096.5</ele>
        <time>2026-03-23T09:32:38Z</time>
      </trkpt>
      <trkpt lat="44.73889" lon="6.85022">
        <ele>2096.5</ele>
        <time>2026-03-23T09:32:39Z</time>
      </trkpt>
      <trkpt lat="44.7389" lon="6.85022">
        <ele>2096.5</ele>
        <time>2026-03-23T09:32:40Z</time>
      </trkpt>
      <trkpt lat="44.7389" lon="6.85022">
        <ele>2096.5</ele>
        <time>2026-03-23T09:32:41Z</time>
      </trkpt>
      <trkpt lat="44.7389" lon="6.85022">
        <ele>2096.8</ele>
        <time>2026-03-23T09:32:42Z</time>
      </trkpt>
      <trkpt lat="44.7389" lon="6.85022">
        <ele>2096.8</ele>
        <time>2026-03-23T09:32:43Z</time>
      </trkpt>
      <trkpt lat="44.73891" lon="6.85022">
        <ele>2096.8</ele>
        <time>2026-03-23T09:32:44Z</time>
      </trkpt>
      <trkpt lat="44.73891" lon="6.85023">
        <ele>2096.8</ele>
        <time>2026-03-23T09:32:46Z</time>
      </trkpt>
      <trkpt lat="44.73892" lon="6.85023">
        <ele>2096.8</ele>
        <time>2026-03-23T09:32:47Z</time>
      </trkpt>
      <trkpt lat="44.73892" lon="6.85023">
        <ele>2096.8</ele>
        <time>2026-03-23T09:32:48Z</time>
      </trkpt>
      <trkpt lat="44.73892" lon="6.85024">
        <ele>2097.7</ele>
        <time>2026-03-23T09:32:49Z</time>
      </trkpt>
      <trkpt lat="44.73893" lon="6.85025">
        <ele>2097.7</ele>
        <time>2026-03-23T09:32:50Z</time>
      </trkpt>
      <trkpt lat="44.73893" lon="6.85025">
        <ele>2098.3</ele>
        <time>2026-03-23T09:32:51Z</time>
      </trkpt>
      <trkpt lat="44.73894" lon="6.85026">
        <ele>2098.3</ele>
        <time>2026-03-23T09:32:52Z</time>
      </trkpt>
      <trkpt lat="44.73895" lon="6.85027">
        <ele>2098.3</ele>
        <time>2026-03-23T09:32:53Z</time>
      </trkpt>
      <trkpt lat="44.73896" lon="6.85028">
        <ele>2099.1</ele>
        <time>2026-03-23T09:32:54Z</time>
      </trkpt>
      <trkpt lat="44.73896" lon="6.85029">
        <ele>2099.5</ele>
        <time>2026-03-23T09:32:55Z</time>
      </trkpt>
      <trkpt lat="44.73897" lon="6.8503">
        <ele>2099.5</ele>
        <time>2026-03-23T09:32:56Z</time>
      </trkpt>
      <trkpt lat="44.73898" lon="6.85031">
        <ele>2099.5</ele>
        <time>2026-03-23T09:32:57Z</time>
      </trkpt>
      <trkpt lat="44.73898" lon="6.85032">
        <ele>2100.3</ele>
        <time>2026-03-23T09:32:58Z</time>
      </trkpt>
      <trkpt lat="44.73899" lon="6.85033">
        <ele>2100.3</ele>
        <time>2026-03-23T09:32:59Z</time>
      </trkpt>
      <trkpt lat="44.739" lon="6.85035">
        <ele>2100.7</ele>
        <time>2026-03-23T09:33:00Z</time>
      </trkpt>
      <trkpt lat="44.739" lon="6.85036">
        <ele>2100.6</ele>
        <time>2026-03-23T09:33:01Z</time>
      </trkpt>
      <trkpt lat="44.73901" lon="6.85036">
        <ele>2101.5</ele>
        <time>2026-03-23T09:33:02Z</time>
      </trkpt>
      <trkpt lat="44.73901" lon="6.85037">
        <ele>2101.5</ele>
        <time>2026-03-23T09:33:03Z</time>
      </trkpt>
      <trkpt lat="44.73902" lon="6.85038">
        <ele>2101.5</ele>
        <time>2026-03-23T09:33:04Z</time>
      </trkpt>
      <trkpt lat="44.73903" lon="6.85039">
        <ele>2101.8</ele>
        <time>2026-03-23T09:33:05Z</time>
      </trkpt>
      <trkpt lat="44.73903" lon="6.8504">
        <ele>2101.8</ele>
        <time>2026-03-23T09:33:06Z</time>
      </trkpt>
      <trkpt lat="44.73904" lon="6.85041">
        <ele>2102.7</ele>
        <time>2026-03-23T09:33:07Z</time>
      </trkpt>
      <trkpt lat="44.73904" lon="6.85041">
        <ele>2102.7</ele>
        <time>2026-03-23T09:33:08Z</time>
      </trkpt>
      <trkpt lat="44.73904" lon="6.85041">
        <ele>2102.7</ele>
        <time>2026-03-23T09:33:09Z</time>
      </trkpt>
      <trkpt lat="44.73904" lon="6.85041">
        <ele>2102.7</ele>
        <time>2026-03-23T09:33:10Z</time>
      </trkpt>
      <trkpt lat="44.73904" lon="6.85041">
        <ele>2102.7</ele>
        <time>2026-03-23T09:33:12Z</time>
      </trkpt>
      <trkpt lat="44.73905" lon="6.85042">
        <ele>2102.7</ele>
        <time>2026-03-23T09:33:13Z</time>
      </trkpt>
      <trkpt lat="44.73905" lon="6.85043">
        <ele>2103</ele>
        <time>2026-03-23T09:33:14Z</time>
      </trkpt>
      <trkpt lat="44.73906" lon="6.85044">
        <ele>2103</ele>
        <time>2026-03-23T09:33:15Z</time>
      </trkpt>
      <trkpt lat="44.73907" lon="6.85045">
        <ele>2103.8</ele>
        <time>2026-03-23T09:33:16Z</time>
      </trkpt>
      <trkpt lat="44.73907" lon="6.85047">
        <ele>2103.8</ele>
        <time>2026-03-23T09:33:17Z</time>
      </trkpt>
      <trkpt lat="44.73908" lon="6.85048">
        <ele>2103.8</ele>
        <time>2026-03-23T09:33:18Z</time>
      </trkpt>
      <trkpt lat="44.73908" lon="6.85049">
        <ele>2103.8</ele>
        <time>2026-03-23T09:33:19Z</time>
      </trkpt>
      <trkpt lat="44.73909" lon="6.85049">
        <ele>2105</ele>
        <time>2026-03-23T09:33:20Z</time>
      </trkpt>
      <trkpt lat="44.73909" lon="6.8505">
        <ele>2105</ele>
        <time>2026-03-23T09:33:21Z</time>
      </trkpt>
      <trkpt lat="44.73909" lon="6.85051">
        <ele>2105</ele>
        <time>2026-03-23T09:33:22Z</time>
      </trkpt>
      <trkpt lat="44.7391" lon="6.85052">
        <ele>2105</ele>
        <time>2026-03-23T09:33:23Z</time>
      </trkpt>
      <trkpt lat="44.7391" lon="6.85053">
        <ele>2105</ele>
        <time>2026-03-23T09:33:24Z</time>
      </trkpt>
      <trkpt lat="44.73911" lon="6.85054">
        <ele>2105.7</ele>
        <time>2026-03-23T09:33:25Z</time>
      </trkpt>
      <trkpt lat="44.73912" lon="6.85055">
        <ele>2106.1</ele>
        <time>2026-03-23T09:33:26Z</time>
      </trkpt>
      <trkpt lat="44.73913" lon="6.85057">
        <ele>2106.1</ele>
        <time>2026-03-23T09:33:27Z</time>
      </trkpt>
      <trkpt lat="44.73914" lon="6.85058">
        <ele>2106.8</ele>
        <time>2026-03-23T09:33:29Z</time>
      </trkpt>
      <trkpt lat="44.73914" lon="6.8506">
        <ele>2107.2</ele>
        <time>2026-03-23T09:33:30Z</time>
      </trkpt>
      <trkpt lat="44.73915" lon="6.8506">
        <ele>2107.2</ele>
        <time>2026-03-23T09:33:31Z</time>
      </trkpt>
      <trkpt lat="44.73916" lon="6.85061">
        <ele>2107.2</ele>
        <time>2026-03-23T09:33:32Z</time>
      </trkpt>
      <trkpt lat="44.73916" lon="6.85063">
        <ele>2107.9</ele>
        <time>2026-03-23T09:33:33Z</time>
      </trkpt>
      <trkpt lat="44.73917" lon="6.85063">
        <ele>2107.9</ele>
        <time>2026-03-23T09:33:34Z</time>
      </trkpt>
      <trkpt lat="44.73917" lon="6.85064">
        <ele>2107.9</ele>
        <time>2026-03-23T09:33:35Z</time>
      </trkpt>
      <trkpt lat="44.73918" lon="6.85065">
        <ele>2108.3</ele>
        <time>2026-03-23T09:33:36Z</time>
      </trkpt>
      <trkpt lat="44.73918" lon="6.85066">
        <ele>2108.3</ele>
        <time>2026-03-23T09:33:37Z</time>
      </trkpt>
      <trkpt lat="44.73918" lon="6.85066">
        <ele>2108.3</ele>
        <time>2026-03-23T09:33:38Z</time>
      </trkpt>
      <trkpt lat="44.73919" lon="6.85068">
        <ele>2109</ele>
        <time>2026-03-23T09:33:39Z</time>
      </trkpt>
      <trkpt lat="44.7392" lon="6.85069">
        <ele>2109</ele>
        <time>2026-03-23T09:33:40Z</time>
      </trkpt>
      <trkpt lat="44.7392" lon="6.8507">
        <ele>2109</ele>
        <time>2026-03-23T09:33:41Z</time>
      </trkpt>
      <trkpt lat="44.73921" lon="6.85072">
        <ele>2110.1</ele>
        <time>2026-03-23T09:33:42Z</time>
      </trkpt>
      <trkpt lat="44.73921" lon="6.85072">
        <ele>2110.1</ele>
        <time>2026-03-23T09:33:43Z</time>
      </trkpt>
      <trkpt lat="44.73922" lon="6.85073">
        <ele>2110.1</ele>
        <time>2026-03-23T09:33:44Z</time>
      </trkpt>
      <trkpt lat="44.73922" lon="6.85073">
        <ele>2110.1</ele>
        <time>2026-03-23T09:33:45Z</time>
      </trkpt>
      <trkpt lat="44.73923" lon="6.85074">
        <ele>2110.1</ele>
        <time>2026-03-23T09:33:46Z</time>
      </trkpt>
      <trkpt lat="44.73923" lon="6.85075">
        <ele>2110.8</ele>
        <time>2026-03-23T09:33:47Z</time>
      </trkpt>
      <trkpt lat="44.73923" lon="6.85076">
        <ele>2110.8</ele>
        <time>2026-03-23T09:33:48Z</time>
      </trkpt>
      <trkpt lat="44.73924" lon="6.85076">
        <ele>2111.2</ele>
        <time>2026-03-23T09:33:49Z</time>
      </trkpt>
      <trkpt lat="44.73924" lon="6.85076">
        <ele>2111.2</ele>
        <time>2026-03-23T09:33:50Z</time>
      </trkpt>
      <trkpt lat="44.73924" lon="6.85077">
        <ele>2111.2</ele>
        <time>2026-03-23T09:33:51Z</time>
      </trkpt>
      <trkpt lat="44.73925" lon="6.85077">
        <ele>2111.2</ele>
        <time>2026-03-23T09:33:52Z</time>
      </trkpt>
      <trkpt lat="44.73925" lon="6.85078">
        <ele>2111.2</ele>
        <time>2026-03-23T09:33:53Z</time>
      </trkpt>
      <trkpt lat="44.73925" lon="6.85078">
        <ele>2111.2</ele>
        <time>2026-03-23T09:33:54Z</time>
      </trkpt>
      <trkpt lat="44.73925" lon="6.85079">
        <ele>2111.2</ele>
        <time>2026-03-23T09:33:55Z</time>
      </trkpt>
      <trkpt lat="44.73925" lon="6.85079">
        <ele>2111.2</ele>
        <time>2026-03-23T09:33:56Z</time>
      </trkpt>
      <trkpt lat="44.73925" lon="6.85079">
        <ele>2111.9</ele>
        <time>2026-03-23T09:33:57Z</time>
      </trkpt>
      <trkpt lat="44.73926" lon="6.8508">
        <ele>2111.9</ele>
        <time>2026-03-23T09:33:58Z</time>
      </trkpt>
      <trkpt lat="44.73926" lon="6.8508">
        <ele>2111.9</ele>
        <time>2026-03-23T09:33:59Z</time>
      </trkpt>
      <trkpt lat="44.73926" lon="6.8508">
        <ele>2111.9</ele>
        <time>2026-03-23T09:34:00Z</time>
      </trkpt>
      <trkpt lat="44.73926" lon="6.8508">
        <ele>2111.9</ele>
        <time>2026-03-23T09:34:01Z</time>
      </trkpt>
      <trkpt lat="44.73926" lon="6.85081">
        <ele>2111.9</ele>
        <time>2026-03-23T09:34:02Z</time>
      </trkpt>
      <trkpt lat="44.73927" lon="6.85081">
        <ele>2112.3</ele>
        <time>2026-03-23T09:34:03Z</time>
      </trkpt>
      <trkpt lat="44.73927" lon="6.85082">
        <ele>2112.3</ele>
        <time>2026-03-23T09:34:04Z</time>
      </trkpt>
      <trkpt lat="44.73927" lon="6.85083">
        <ele>2112.3</ele>
        <time>2026-03-23T09:34:06Z</time>
      </trkpt>
      <trkpt lat="44.73927" lon="6.85084">
        <ele>2113.1</ele>
        <time>2026-03-23T09:34:07Z</time>
      </trkpt>
      <trkpt lat="44.73928" lon="6.85085">
        <ele>2113.1</ele>
        <time>2026-03-23T09:34:08Z</time>
      </trkpt>
      <trkpt lat="44.73928" lon="6.85085">
        <ele>2113.1</ele>
        <time>2026-03-23T09:34:09Z</time>
      </trkpt>
      <trkpt lat="44.73928" lon="6.85086">
        <ele>2113.1</ele>
        <time>2026-03-23T09:34:10Z</time>
      </trkpt>
      <trkpt lat="44.73928" lon="6.85088">
        <ele>2113.1</ele>
        <time>2026-03-23T09:34:11Z</time>
      </trkpt>
      <trkpt lat="44.73929" lon="6.85089">
        <ele>2113.8</ele>
        <time>2026-03-23T09:34:12Z</time>
      </trkpt>
      <trkpt lat="44.73929" lon="6.85089">
        <ele>2113.8</ele>
        <time>2026-03-23T09:34:13Z</time>
      </trkpt>
      <trkpt lat="44.73929" lon="6.8509">
        <ele>2113.8</ele>
        <time>2026-03-23T09:34:14Z</time>
      </trkpt>
      <trkpt lat="44.73929" lon="6.85091">
        <ele>2113.8</ele>
        <time>2026-03-23T09:34:15Z</time>
      </trkpt>
      <trkpt lat="44.73929" lon="6.85091">
        <ele>2113.8</ele>
        <time>2026-03-23T09:34:16Z</time>
      </trkpt>
      <trkpt lat="44.7393" lon="6.85092">
        <ele>2114.6</ele>
        <time>2026-03-23T09:34:17Z</time>
      </trkpt>
      <trkpt lat="44.7393" lon="6.85093">
        <ele>2114.9</ele>
        <time>2026-03-23T09:34:18Z</time>
      </trkpt>
      <trkpt lat="44.7393" lon="6.85093">
        <ele>2114.9</ele>
        <time>2026-03-23T09:34:19Z</time>
      </trkpt>
      <trkpt lat="44.7393" lon="6.85094">
        <ele>2114.9</ele>
        <time>2026-03-23T09:34:20Z</time>
      </trkpt>
      <trkpt lat="44.7393" lon="6.85094">
        <ele>2114.9</ele>
        <time>2026-03-23T09:34:21Z</time>
      </trkpt>
      <trkpt lat="44.7393" lon="6.85095">
        <ele>2114.9</ele>
        <time>2026-03-23T09:34:22Z</time>
      </trkpt>
      <trkpt lat="44.73931" lon="6.85096">
        <ele>2114.9</ele>
        <time>2026-03-23T09:34:23Z</time>
      </trkpt>
      <trkpt lat="44.73931" lon="6.85096">
        <ele>2115.6</ele>
        <time>2026-03-23T09:34:24Z</time>
      </trkpt>
      <trkpt lat="44.73931" lon="6.85097">
        <ele>2115.6</ele>
        <time>2026-03-23T09:34:25Z</time>
      </trkpt>
      <trkpt lat="44.73931" lon="6.85098">
        <ele>2115.6</ele>
        <time>2026-03-23T09:34:26Z</time>
      </trkpt>
      <trkpt lat="44.73931" lon="6.85099">
        <ele>2115.6</ele>
        <time>2026-03-23T09:34:27Z</time>
      </trkpt>
      <trkpt lat="44.73931" lon="6.85099">
        <ele>2115.6</ele>
        <time>2026-03-23T09:34:28Z</time>
      </trkpt>
      <trkpt lat="44.73932" lon="6.851">
        <ele>2115.6</ele>
        <time>2026-03-23T09:34:29Z</time>
      </trkpt>
      <trkpt lat="44.73932" lon="6.85101">
        <ele>2116.3</ele>
        <time>2026-03-23T09:34:30Z</time>
      </trkpt>
      <trkpt lat="44.73932" lon="6.85102">
        <ele>2116.3</ele>
        <time>2026-03-23T09:34:31Z</time>
      </trkpt>
      <trkpt lat="44.73932" lon="6.85103">
        <ele>2116.3</ele>
        <time>2026-03-23T09:34:32Z</time>
      </trkpt>
      <trkpt lat="44.73932" lon="6.85104">
        <ele>2116.3</ele>
        <time>2026-03-23T09:34:33Z</time>
      </trkpt>
      <trkpt lat="44.73932" lon="6.85104">
        <ele>2116.3</ele>
        <time>2026-03-23T09:34:34Z</time>
      </trkpt>
      <trkpt lat="44.73932" lon="6.85105">
        <ele>2117</ele>
        <time>2026-03-23T09:34:35Z</time>
      </trkpt>
      <trkpt lat="44.73933" lon="6.85106">
        <ele>2117</ele>
        <time>2026-03-23T09:34:36Z</time>
      </trkpt>
      <trkpt lat="44.73933" lon="6.85106">
        <ele>2117.3</ele>
        <time>2026-03-23T09:34:37Z</time>
      </trkpt>
      <trkpt lat="44.73933" lon="6.85107">
        <ele>2117.3</ele>
        <time>2026-03-23T09:34:38Z</time>
      </trkpt>
      <trkpt lat="44.73933" lon="6.85107">
        <ele>2117.3</ele>
        <time>2026-03-23T09:34:39Z</time>
      </trkpt>
      <trkpt lat="44.73933" lon="6.85107">
        <ele>2117.3</ele>
        <time>2026-03-23T09:34:40Z</time>
      </trkpt>
      <trkpt lat="44.73933" lon="6.85108">
        <ele>2117.3</ele>
        <time>2026-03-23T09:34:41Z</time>
      </trkpt>
      <trkpt lat="44.73933" lon="6.85108">
        <ele>2117.3</ele>
        <time>2026-03-23T09:34:42Z</time>
      </trkpt>
      <trkpt lat="44.73934" lon="6.85108">
        <ele>2117.3</ele>
        <time>2026-03-23T09:34:43Z</time>
      </trkpt>
      <trkpt lat="44.73934" lon="6.85109">
        <ele>2117.3</ele>
        <time>2026-03-23T09:34:44Z</time>
      </trkpt>
      <trkpt lat="44.73934" lon="6.85109">
        <ele>2117.3</ele>
        <time>2026-03-23T09:34:45Z</time>
      </trkpt>
      <trkpt lat="44.73934" lon="6.85109">
        <ele>2118</ele>
        <time>2026-03-23T09:34:46Z</time>
      </trkpt>
      <trkpt lat="44.73934" lon="6.8511">
        <ele>2118</ele>
        <time>2026-03-23T09:34:47Z</time>
      </trkpt>
      <trkpt lat="44.73934" lon="6.85111">
        <ele>2118</ele>
        <time>2026-03-23T09:34:48Z</time>
      </trkpt>
      <trkpt lat="44.73934" lon="6.85112">
        <ele>2118</ele>
        <time>2026-03-23T09:34:49Z</time>
      </trkpt>
      <trkpt lat="44.73934" lon="6.85112">
        <ele>2118</ele>
        <time>2026-03-23T09:34:50Z</time>
      </trkpt>
      <trkpt lat="44.73935" lon="6.85113">
        <ele>2118</ele>
        <time>2026-03-23T09:34:51Z</time>
      </trkpt>
      <trkpt lat="44.73935" lon="6.85114">
        <ele>2118.7</ele>
        <time>2026-03-23T09:34:52Z</time>
      </trkpt>
      <trkpt lat="44.73935" lon="6.85115">
        <ele>2118.7</ele>
        <time>2026-03-23T09:34:53Z</time>
      </trkpt>
      <trkpt lat="44.73935" lon="6.85115">
        <ele>2118.7</ele>
        <time>2026-03-23T09:34:54Z</time>
      </trkpt>
      <trkpt lat="44.73935" lon="6.85116">
        <ele>2118.7</ele>
        <time>2026-03-23T09:34:55Z</time>
      </trkpt>
      <trkpt lat="44.73935" lon="6.85117">
        <ele>2118.7</ele>
        <time>2026-03-23T09:34:56Z</time>
      </trkpt>
      <trkpt lat="44.73936" lon="6.85118">
        <ele>2119</ele>
        <time>2026-03-23T09:34:57Z</time>
      </trkpt>
      <trkpt lat="44.73936" lon="6.85118">
        <ele>2119.8</ele>
        <time>2026-03-23T09:34:58Z</time>
      </trkpt>
      <trkpt lat="44.73936" lon="6.85119">
        <ele>2119.8</ele>
        <time>2026-03-23T09:34:59Z</time>
      </trkpt>
      <trkpt lat="44.73937" lon="6.8512">
        <ele>2119.8</ele>
        <time>2026-03-23T09:35:01Z</time>
      </trkpt>
      <trkpt lat="44.73937" lon="6.85121">
        <ele>2119.8</ele>
        <time>2026-03-23T09:35:02Z</time>
      </trkpt>
      <trkpt lat="44.73937" lon="6.85121">
        <ele>2119.8</ele>
        <time>2026-03-23T09:35:03Z</time>
      </trkpt>
      <trkpt lat="44.73938" lon="6.85122">
        <ele>2119.8</ele>
        <time>2026-03-23T09:35:04Z</time>
      </trkpt>
      <trkpt lat="44.73938" lon="6.85122">
        <ele>2119.8</ele>
        <time>2026-03-23T09:35:05Z</time>
      </trkpt>
      <trkpt lat="44.73938" lon="6.85123">
        <ele>2120.6</ele>
        <time>2026-03-23T09:35:06Z</time>
      </trkpt>
      <trkpt lat="44.73939" lon="6.85123">
        <ele>2120.6</ele>
        <time>2026-03-23T09:35:07Z</time>
      </trkpt>
      <trkpt lat="44.73939" lon="6.85123">
        <ele>2120.6</ele>
        <time>2026-03-23T09:35:08Z</time>
      </trkpt>
      <trkpt lat="44.73939" lon="6.85124">
        <ele>2120.9</ele>
        <time>2026-03-23T09:35:09Z</time>
      </trkpt>
      <trkpt lat="44.73939" lon="6.85125">
        <ele>2120.9</ele>
        <time>2026-03-23T09:35:10Z</time>
      </trkpt>
      <trkpt lat="44.7394" lon="6.85125">
        <ele>2120.9</ele>
        <time>2026-03-23T09:35:11Z</time>
      </trkpt>
      <trkpt lat="44.7394" lon="6.85126">
        <ele>2120.9</ele>
        <time>2026-03-23T09:35:12Z</time>
      </trkpt>
      <trkpt lat="44.73941" lon="6.85126">
        <ele>2120.9</ele>
        <time>2026-03-23T09:35:13Z</time>
      </trkpt>
      <trkpt lat="44.73941" lon="6.85126">
        <ele>2120.9</ele>
        <time>2026-03-23T09:35:15Z</time>
      </trkpt>
      <trkpt lat="44.73941" lon="6.85126">
        <ele>2120.9</ele>
        <time>2026-03-23T09:35:16Z</time>
      </trkpt>
      <trkpt lat="44.7394" lon="6.85125">
        <ele>2120.9</ele>
        <time>2026-03-23T09:35:17Z</time>
      </trkpt>
      <trkpt lat="44.7394" lon="6.85125">
        <ele>2120.9</ele>
        <time>2026-03-23T09:35:18Z</time>
      </trkpt>
      <trkpt lat="44.7394" lon="6.85125">
        <ele>2120.9</ele>
        <time>2026-03-23T09:35:19Z</time>
      </trkpt>
      <trkpt lat="44.73941" lon="6.85125">
        <ele>2120.9</ele>
        <time>2026-03-23T09:35:20Z</time>
      </trkpt>
      <trkpt lat="44.73941" lon="6.85126">
        <ele>2120.9</ele>
        <time>2026-03-23T09:35:21Z</time>
      </trkpt>
      <trkpt lat="44.73941" lon="6.85126">
        <ele>2120.9</ele>
        <time>2026-03-23T09:35:22Z</time>
      </trkpt>
      <trkpt lat="44.73941" lon="6.85126">
        <ele>2120.9</ele>
        <time>2026-03-23T09:35:23Z</time>
      </trkpt>
      <trkpt lat="44.73942" lon="6.85126">
        <ele>2120.9</ele>
        <time>2026-03-23T09:35:24Z</time>
      </trkpt>
      <trkpt lat="44.73942" lon="6.85126">
        <ele>2120.9</ele>
        <time>2026-03-23T09:35:25Z</time>
      </trkpt>
      <trkpt lat="44.73942" lon="6.85126">
        <ele>2121.9</ele>
        <time>2026-03-23T09:35:26Z</time>
      </trkpt>
      <trkpt lat="44.73942" lon="6.85126">
        <ele>2121.2</ele>
        <time>2026-03-23T09:35:27Z</time>
      </trkpt>
      <trkpt lat="44.73942" lon="6.85126">
        <ele>2121.2</ele>
        <time>2026-03-23T09:35:28Z</time>
      </trkpt>
      <trkpt lat="44.73942" lon="6.85126">
        <ele>2121.2</ele>
        <time>2026-03-23T09:35:30Z</time>
      </trkpt>
      <trkpt lat="44.73942" lon="6.85126">
        <ele>2121.2</ele>
        <time>2026-03-23T09:35:31Z</time>
      </trkpt>
      <trkpt lat="44.73942" lon="6.85126">
        <ele>2121.9</ele>
        <time>2026-03-23T09:35:32Z</time>
      </trkpt>
      <trkpt lat="44.73943" lon="6.85127">
        <ele>2121.9</ele>
        <time>2026-03-23T09:35:33Z</time>
      </trkpt>
      <trkpt lat="44.73943" lon="6.85127">
        <ele>2121.9</ele>
        <time>2026-03-23T09:35:34Z</time>
      </trkpt>
      <trkpt lat="44.73943" lon="6.85127">
        <ele>2121.9</ele>
        <time>2026-03-23T09:35:35Z</time>
      </trkpt>
      <trkpt lat="44.73943" lon="6.85127">
        <ele>2121.9</ele>
        <time>2026-03-23T09:35:36Z</time>
      </trkpt>
      <trkpt lat="44.73943" lon="6.85127">
        <ele>2121.9</ele>
        <time>2026-03-23T09:35:37Z</time>
      </trkpt>
      <trkpt lat="44.73943" lon="6.85127">
        <ele>2121.9</ele>
        <time>2026-03-23T09:35:38Z</time>
      </trkpt>
      <trkpt lat="44.73942" lon="6.85126">
        <ele>2121.9</ele>
        <time>2026-03-23T09:35:39Z</time>
      </trkpt>
      <trkpt lat="44.73942" lon="6.85127">
        <ele>2121.9</ele>
        <time>2026-03-23T09:35:40Z</time>
      </trkpt>
      <trkpt lat="44.73943" lon="6.85127">
        <ele>2121.9</ele>
        <time>2026-03-23T09:35:41Z</time>
      </trkpt>
      <trkpt lat="44.73943" lon="6.85127">
        <ele>2121.9</ele>
        <time>2026-03-23T09:35:42Z</time>
      </trkpt>
      <trkpt lat="44.73943" lon="6.85127">
        <ele>2121.9</ele>
        <time>2026-03-23T09:35:43Z</time>
      </trkpt>
      <trkpt lat="44.73943" lon="6.85127">
        <ele>2121.9</ele>
        <time>2026-03-23T09:35:44Z</time>
      </trkpt>
      <trkpt lat="44.73943" lon="6.85127">
        <ele>2121.9</ele>
        <time>2026-03-23T09:35:45Z</time>
      </trkpt>
      <trkpt lat="44.73943" lon="6.85127">
        <ele>2121.9</ele>
        <time>2026-03-23T09:35:46Z</time>
      </trkpt>
      <trkpt lat="44.73943" lon="6.85127">
        <ele>2121.9</ele>
        <time>2026-03-23T09:35:47Z</time>
      </trkpt>
      <trkpt lat="44.73943" lon="6.85127">
        <ele>2121.9</ele>
        <time>2026-03-23T09:35:48Z</time>
      </trkpt>
      <trkpt lat="44.73943" lon="6.85127">
        <ele>2121.9</ele>
        <time>2026-03-23T09:35:49Z</time>
      </trkpt>
      <trkpt lat="44.73943" lon="6.85128">
        <ele>2121.9</ele>
        <time>2026-03-23T09:35:50Z</time>
      </trkpt>
      <trkpt lat="44.73943" lon="6.85128">
        <ele>2121.9</ele>
        <time>2026-03-23T09:35:51Z</time>
      </trkpt>
      <trkpt lat="44.73944" lon="6.85128">
        <ele>2121.9</ele>
        <time>2026-03-23T09:35:52Z</time>
      </trkpt>
      <trkpt lat="44.73944" lon="6.85128">
        <ele>2121.9</ele>
        <time>2026-03-23T09:35:53Z</time>
      </trkpt>
      <trkpt lat="44.73944" lon="6.85128">
        <ele>2121.9</ele>
        <time>2026-03-23T09:35:54Z</time>
      </trkpt>
      <trkpt lat="44.73944" lon="6.85128">
        <ele>2121.9</ele>
        <time>2026-03-23T09:35:55Z</time>
      </trkpt>
      <trkpt lat="44.73944" lon="6.85129">
        <ele>2121.9</ele>
        <time>2026-03-23T09:35:56Z</time>
      </trkpt>
      <trkpt lat="44.73944" lon="6.85129">
        <ele>2121.9</ele>
        <time>2026-03-23T09:35:57Z</time>
      </trkpt>
      <trkpt lat="44.73944" lon="6.85129">
        <ele>2121.9</ele>
        <time>2026-03-23T09:35:58Z</time>
      </trkpt>
      <trkpt lat="44.73944" lon="6.8513">
        <ele>2121.9</ele>
        <time>2026-03-23T09:35:59Z</time>
      </trkpt>
      <trkpt lat="44.73944" lon="6.8513">
        <ele>2121.9</ele>
        <time>2026-03-23T09:36:00Z</time>
      </trkpt>
      <trkpt lat="44.73944" lon="6.85131">
        <ele>2122.7</ele>
        <time>2026-03-23T09:36:01Z</time>
      </trkpt>
      <trkpt lat="44.73945" lon="6.85131">
        <ele>2122.7</ele>
        <time>2026-03-23T09:36:02Z</time>
      </trkpt>
      <trkpt lat="44.73945" lon="6.85131">
        <ele>2122.7</ele>
        <time>2026-03-23T09:36:03Z</time>
      </trkpt>
      <trkpt lat="44.73945" lon="6.85132">
        <ele>2122.7</ele>
        <time>2026-03-23T09:36:04Z</time>
      </trkpt>
      <trkpt lat="44.73944" lon="6.85132">
        <ele>2122.7</ele>
        <time>2026-03-23T09:36:05Z</time>
      </trkpt>
      <trkpt lat="44.73944" lon="6.85132">
        <ele>2122.7</ele>
        <time>2026-03-23T09:36:06Z</time>
      </trkpt>
      <trkpt lat="44.73944" lon="6.85133">
        <ele>2122.7</ele>
        <time>2026-03-23T09:36:07Z</time>
      </trkpt>
      <trkpt lat="44.73945" lon="6.85133">
        <ele>2122.7</ele>
        <time>2026-03-23T09:36:08Z</time>
      </trkpt>
      <trkpt lat="44.73944" lon="6.85133">
        <ele>2122.7</ele>
        <time>2026-03-23T09:36:09Z</time>
      </trkpt>
      <trkpt lat="44.73945" lon="6.85133">
        <ele>2122.7</ele>
        <time>2026-03-23T09:36:10Z</time>
      </trkpt>
      <trkpt lat="44.73944" lon="6.85134">
        <ele>2122.7</ele>
        <time>2026-03-23T09:36:11Z</time>
      </trkpt>
      <trkpt lat="44.73945" lon="6.85134">
        <ele>2122.7</ele>
        <time>2026-03-23T09:36:12Z</time>
      </trkpt>
      <trkpt lat="44.73944" lon="6.85134">
        <ele>2122.7</ele>
        <time>2026-03-23T09:36:13Z</time>
      </trkpt>
      <trkpt lat="44.73944" lon="6.85135">
        <ele>2122.7</ele>
        <time>2026-03-23T09:36:14Z</time>
      </trkpt>
      <trkpt lat="44.73944" lon="6.85135">
        <ele>2122.7</ele>
        <time>2026-03-23T09:36:15Z</time>
      </trkpt>
      <trkpt lat="44.73944" lon="6.85135">
        <ele>2123.5</ele>
        <time>2026-03-23T09:36:16Z</time>
      </trkpt>
      <trkpt lat="44.73944" lon="6.85136">
        <ele>2123.5</ele>
        <time>2026-03-23T09:36:17Z</time>
      </trkpt>
      <trkpt lat="44.73944" lon="6.85136">
        <ele>2123.5</ele>
        <time>2026-03-23T09:36:18Z</time>
      </trkpt>
      <trkpt lat="44.73943" lon="6.85137">
        <ele>2123.5</ele>
        <time>2026-03-23T09:36:20Z</time>
      </trkpt>
      <trkpt lat="44.73943" lon="6.85137">
        <ele>2123.5</ele>
        <time>2026-03-23T09:36:21Z</time>
      </trkpt>
      <trkpt lat="44.73943" lon="6.85138">
        <ele>2123.5</ele>
        <time>2026-03-23T09:36:22Z</time>
      </trkpt>
      <trkpt lat="44.73943" lon="6.85138">
        <ele>2123.5</ele>
        <time>2026-03-23T09:36:23Z</time>
      </trkpt>
      <trkpt lat="44.73943" lon="6.8514">
        <ele>2124.2</ele>
        <time>2026-03-23T09:36:24Z</time>
      </trkpt>
      <trkpt lat="44.73943" lon="6.8514">
        <ele>2124.2</ele>
        <time>2026-03-23T09:36:25Z</time>
      </trkpt>
      <trkpt lat="44.73943" lon="6.85141">
        <ele>2124.2</ele>
        <time>2026-03-23T09:36:26Z</time>
      </trkpt>
      <trkpt lat="44.73943" lon="6.85142">
        <ele>2124.2</ele>
        <time>2026-03-23T09:36:27Z</time>
      </trkpt>
      <trkpt lat="44.73943" lon="6.85143">
        <ele>2124.2</ele>
        <time>2026-03-23T09:36:28Z</time>
      </trkpt>
      <trkpt lat="44.73943" lon="6.85143">
        <ele>2124.2</ele>
        <time>2026-03-23T09:36:29Z</time>
      </trkpt>
      <trkpt lat="44.73943" lon="6.85144">
        <ele>2125</ele>
        <time>2026-03-23T09:36:30Z</time>
      </trkpt>
      <trkpt lat="44.73943" lon="6.85145">
        <ele>2125</ele>
        <time>2026-03-23T09:36:31Z</time>
      </trkpt>
      <trkpt lat="44.73943" lon="6.85145">
        <ele>2125</ele>
        <time>2026-03-23T09:36:32Z</time>
      </trkpt>
      <trkpt lat="44.73943" lon="6.85146">
        <ele>2125</ele>
        <time>2026-03-23T09:36:33Z</time>
      </trkpt>
      <trkpt lat="44.73943" lon="6.85147">
        <ele>2125</ele>
        <time>2026-03-23T09:36:34Z</time>
      </trkpt>
      <trkpt lat="44.73943" lon="6.85148">
        <ele>2125.7</ele>
        <time>2026-03-23T09:36:35Z</time>
      </trkpt>
      <trkpt lat="44.73943" lon="6.85148">
        <ele>2125.7</ele>
        <time>2026-03-23T09:36:36Z</time>
      </trkpt>
      <trkpt lat="44.73943" lon="6.85149">
        <ele>2125.7</ele>
        <time>2026-03-23T09:36:37Z</time>
      </trkpt>
      <trkpt lat="44.73943" lon="6.85151">
        <ele>2125.7</ele>
        <time>2026-03-23T09:36:39Z</time>
      </trkpt>
      <trkpt lat="44.73943" lon="6.85152">
        <ele>2125.7</ele>
        <time>2026-03-23T09:36:40Z</time>
      </trkpt>
      <trkpt lat="44.73943" lon="6.85153">
        <ele>2126.4</ele>
        <time>2026-03-23T09:36:41Z</time>
      </trkpt>
      <trkpt lat="44.73943" lon="6.85154">
        <ele>2126.4</ele>
        <time>2026-03-23T09:36:42Z</time>
      </trkpt>
      <trkpt lat="44.73943" lon="6.85156">
        <ele>2126.4</ele>
        <time>2026-03-23T09:36:43Z</time>
      </trkpt>
      <trkpt lat="44.73943" lon="6.85157">
        <ele>2127.1</ele>
        <time>2026-03-23T09:36:44Z</time>
      </trkpt>
      <trkpt lat="44.73943" lon="6.85158">
        <ele>2127.1</ele>
        <time>2026-03-23T09:36:45Z</time>
      </trkpt>
      <trkpt lat="44.73943" lon="6.85159">
        <ele>2127.1</ele>
        <time>2026-03-23T09:36:46Z</time>
      </trkpt>
      <trkpt lat="44.73943" lon="6.8516">
        <ele>2127.1</ele>
        <time>2026-03-23T09:36:47Z</time>
      </trkpt>
      <trkpt lat="44.73943" lon="6.8516">
        <ele>2127.1</ele>
        <time>2026-03-23T09:36:48Z</time>
      </trkpt>
      <trkpt lat="44.73943" lon="6.85161">
        <ele>2127.9</ele>
        <time>2026-03-23T09:36:49Z</time>
      </trkpt>
      <trkpt lat="44.73943" lon="6.85162">
        <ele>2127.9</ele>
        <time>2026-03-23T09:36:50Z</time>
      </trkpt>
      <trkpt lat="44.73943" lon="6.85163">
        <ele>2127.9</ele>
        <time>2026-03-23T09:36:51Z</time>
      </trkpt>
      <trkpt lat="44.73943" lon="6.85165">
        <ele>2127.9</ele>
        <time>2026-03-23T09:36:52Z</time>
      </trkpt>
      <trkpt lat="44.73944" lon="6.85166">
        <ele>2128.7</ele>
        <time>2026-03-23T09:36:53Z</time>
      </trkpt>
      <trkpt lat="44.73944" lon="6.85167">
        <ele>2128.7</ele>
        <time>2026-03-23T09:36:54Z</time>
      </trkpt>
      <trkpt lat="44.73944" lon="6.85168">
        <ele>2128.7</ele>
        <time>2026-03-23T09:36:55Z</time>
      </trkpt>
      <trkpt lat="44.73944" lon="6.8517">
        <ele>2129.5</ele>
        <time>2026-03-23T09:36:56Z</time>
      </trkpt>
      <trkpt lat="44.73945" lon="6.85171">
        <ele>2129.5</ele>
        <time>2026-03-23T09:36:57Z</time>
      </trkpt>
      <trkpt lat="44.73945" lon="6.85172">
        <ele>2129.8</ele>
        <time>2026-03-23T09:36:58Z</time>
      </trkpt>
      <trkpt lat="44.73946" lon="6.85173">
        <ele>2129.8</ele>
        <time>2026-03-23T09:37:00Z</time>
      </trkpt>
      <trkpt lat="44.73946" lon="6.85174">
        <ele>2130.6</ele>
        <time>2026-03-23T09:37:01Z</time>
      </trkpt>
      <trkpt lat="44.73947" lon="6.85175">
        <ele>2130.6</ele>
        <time>2026-03-23T09:37:02Z</time>
      </trkpt>
      <trkpt lat="44.73947" lon="6.85176">
        <ele>2130.6</ele>
        <time>2026-03-23T09:37:03Z</time>
      </trkpt>
      <trkpt lat="44.73947" lon="6.85177">
        <ele>2130.6</ele>
        <time>2026-03-23T09:37:04Z</time>
      </trkpt>
      <trkpt lat="44.73947" lon="6.85178">
        <ele>2130.6</ele>
        <time>2026-03-23T09:37:05Z</time>
      </trkpt>
      <trkpt lat="44.73947" lon="6.85178">
        <ele>2131.3</ele>
        <time>2026-03-23T09:37:06Z</time>
      </trkpt>
      <trkpt lat="44.73947" lon="6.85179">
        <ele>2131.3</ele>
        <time>2026-03-23T09:37:07Z</time>
      </trkpt>
      <trkpt lat="44.73947" lon="6.85179">
        <ele>2131.3</ele>
        <time>2026-03-23T09:37:08Z</time>
      </trkpt>
      <trkpt lat="44.73947" lon="6.8518">
        <ele>2131.3</ele>
        <time>2026-03-23T09:37:09Z</time>
      </trkpt>
      <trkpt lat="44.73947" lon="6.8518">
        <ele>2131.3</ele>
        <time>2026-03-23T09:37:10Z</time>
      </trkpt>
      <trkpt lat="44.73947" lon="6.85181">
        <ele>2131.3</ele>
        <time>2026-03-23T09:37:11Z</time>
      </trkpt>
      <trkpt lat="44.73947" lon="6.85181">
        <ele>2131.3</ele>
        <time>2026-03-23T09:37:12Z</time>
      </trkpt>
      <trkpt lat="44.73947" lon="6.85182">
        <ele>2131.3</ele>
        <time>2026-03-23T09:37:13Z</time>
      </trkpt>
      <trkpt lat="44.73947" lon="6.85182">
        <ele>2132.1</ele>
        <time>2026-03-23T09:37:14Z</time>
      </trkpt>
      <trkpt lat="44.73946" lon="6.85183">
        <ele>2132.1</ele>
        <time>2026-03-23T09:37:15Z</time>
      </trkpt>
      <trkpt lat="44.73946" lon="6.85184">
        <ele>2132.1</ele>
        <time>2026-03-23T09:37:16Z</time>
      </trkpt>
      <trkpt lat="44.73946" lon="6.85184">
        <ele>2132.1</ele>
        <time>2026-03-23T09:37:17Z</time>
      </trkpt>
      <trkpt lat="44.73946" lon="6.85185">
        <ele>2132.1</ele>
        <time>2026-03-23T09:37:18Z</time>
      </trkpt>
      <trkpt lat="44.73946" lon="6.85185">
        <ele>2132.1</ele>
        <time>2026-03-23T09:37:19Z</time>
      </trkpt>
      <trkpt lat="44.73946" lon="6.85186">
        <ele>2132.1</ele>
        <time>2026-03-23T09:37:20Z</time>
      </trkpt>
      <trkpt lat="44.73946" lon="6.85187">
        <ele>2132.8</ele>
        <time>2026-03-23T09:37:21Z</time>
      </trkpt>
      <trkpt lat="44.73946" lon="6.85188">
        <ele>2132.8</ele>
        <time>2026-03-23T09:37:22Z</time>
      </trkpt>
      <trkpt lat="44.73946" lon="6.85189">
        <ele>2132.8</ele>
        <time>2026-03-23T09:37:23Z</time>
      </trkpt>
      <trkpt lat="44.73946" lon="6.85189">
        <ele>2132.8</ele>
        <time>2026-03-23T09:37:24Z</time>
      </trkpt>
      <trkpt lat="44.73946" lon="6.85191">
        <ele>2133.5</ele>
        <time>2026-03-23T09:37:25Z</time>
      </trkpt>
      <trkpt lat="44.73946" lon="6.85191">
        <ele>2133.5</ele>
        <time>2026-03-23T09:37:26Z</time>
      </trkpt>
      <trkpt lat="44.73946" lon="6.85191">
        <ele>2133.5</ele>
        <time>2026-03-23T09:37:27Z</time>
      </trkpt>
      <trkpt lat="44.73946" lon="6.85192">
        <ele>2133.5</ele>
        <time>2026-03-23T09:37:28Z</time>
      </trkpt>
      <trkpt lat="44.73947" lon="6.85192">
        <ele>2133.4</ele>
        <time>2026-03-23T09:37:29Z</time>
      </trkpt>
      <trkpt lat="44.73947" lon="6.85192">
        <ele>2133.4</ele>
        <time>2026-03-23T09:37:30Z</time>
      </trkpt>
      <trkpt lat="44.73947" lon="6.85192">
        <ele>2133.4</ele>
        <time>2026-03-23T09:37:31Z</time>
      </trkpt>
      <trkpt lat="44.73947" lon="6.85193">
        <ele>2133.4</ele>
        <time>2026-03-23T09:37:32Z</time>
      </trkpt>
      <trkpt lat="44.73947" lon="6.85193">
        <ele>2133.4</ele>
        <time>2026-03-23T09:37:33Z</time>
      </trkpt>
      <trkpt lat="44.73947" lon="6.85193">
        <ele>2133.4</ele>
        <time>2026-03-23T09:37:34Z</time>
      </trkpt>
      <trkpt lat="44.73947" lon="6.85193">
        <ele>2133.4</ele>
        <time>2026-03-23T09:37:35Z</time>
      </trkpt>
      <trkpt lat="44.73947" lon="6.85194">
        <ele>2133.4</ele>
        <time>2026-03-23T09:37:36Z</time>
      </trkpt>
      <trkpt lat="44.73947" lon="6.85194">
        <ele>2133.4</ele>
        <time>2026-03-23T09:37:37Z</time>
      </trkpt>
      <trkpt lat="44.73947" lon="6.85194">
        <ele>2133.4</ele>
        <time>2026-03-23T09:37:38Z</time>
      </trkpt>
      <trkpt lat="44.73948" lon="6.85194">
        <ele>2133.4</ele>
        <time>2026-03-23T09:37:39Z</time>
      </trkpt>
      <trkpt lat="44.73948" lon="6.85194">
        <ele>2133.4</ele>
        <time>2026-03-23T09:37:40Z</time>
      </trkpt>
      <trkpt lat="44.73948" lon="6.85195">
        <ele>2133.4</ele>
        <time>2026-03-23T09:37:41Z</time>
      </trkpt>
      <trkpt lat="44.73948" lon="6.85195">
        <ele>2133.4</ele>
        <time>2026-03-23T09:37:42Z</time>
      </trkpt>
      <trkpt lat="44.73948" lon="6.85195">
        <ele>2133.4</ele>
        <time>2026-03-23T09:37:43Z</time>
      </trkpt>
      <trkpt lat="44.73948" lon="6.85195">
        <ele>2133.4</ele>
        <time>2026-03-23T09:37:44Z</time>
      </trkpt>
      <trkpt lat="44.73948" lon="6.85195">
        <ele>2133.4</ele>
        <time>2026-03-23T09:37:45Z</time>
      </trkpt>
      <trkpt lat="44.73948" lon="6.85195">
        <ele>2133.4</ele>
        <time>2026-03-23T09:37:46Z</time>
      </trkpt>
      <trkpt lat="44.73948" lon="6.85195">
        <ele>2133.4</ele>
        <time>2026-03-23T09:37:47Z</time>
      </trkpt>
      <trkpt lat="44.73948" lon="6.85195">
        <ele>2133.4</ele>
        <time>2026-03-23T09:37:48Z</time>
      </trkpt>
      <trkpt lat="44.73948" lon="6.85195">
        <ele>2133.4</ele>
        <time>2026-03-23T09:37:49Z</time>
      </trkpt>
      <trkpt lat="44.73948" lon="6.85195">
        <ele>2133.4</ele>
        <time>2026-03-23T09:37:50Z</time>
      </trkpt>
      <trkpt lat="44.73948" lon="6.85195">
        <ele>2133.4</ele>
        <time>2026-03-23T09:37:51Z</time>
      </trkpt>
      <trkpt lat="44.73948" lon="6.85195">
        <ele>2134.4</ele>
        <time>2026-03-23T09:37:52Z</time>
      </trkpt>
      <trkpt lat="44.73948" lon="6.85196">
        <ele>2134.4</ele>
        <time>2026-03-23T09:37:53Z</time>
      </trkpt>
      <trkpt lat="44.73949" lon="6.85196">
        <ele>2134.4</ele>
        <time>2026-03-23T09:37:54Z</time>
      </trkpt>
      <trkpt lat="44.73949" lon="6.85196">
        <ele>2134.4</ele>
        <time>2026-03-23T09:37:55Z</time>
      </trkpt>
      <trkpt lat="44.73949" lon="6.85197">
        <ele>2134.4</ele>
        <time>2026-03-23T09:37:56Z</time>
      </trkpt>
      <trkpt lat="44.73948" lon="6.85196">
        <ele>2134.4</ele>
        <time>2026-03-23T09:37:57Z</time>
      </trkpt>
      <trkpt lat="44.73948" lon="6.85196">
        <ele>2134.4</ele>
        <time>2026-03-23T09:37:58Z</time>
      </trkpt>
      <trkpt lat="44.73948" lon="6.85197">
        <ele>2134.4</ele>
        <time>2026-03-23T09:37:59Z</time>
      </trkpt>
      <trkpt lat="44.73949" lon="6.85197">
        <ele>2134.4</ele>
        <time>2026-03-23T09:38:00Z</time>
      </trkpt>
      <trkpt lat="44.73949" lon="6.85197">
        <ele>2134.4</ele>
        <time>2026-03-23T09:38:02Z</time>
      </trkpt>
      <trkpt lat="44.73949" lon="6.85197">
        <ele>2134.4</ele>
        <time>2026-03-23T09:38:03Z</time>
      </trkpt>
      <trkpt lat="44.73949" lon="6.85198">
        <ele>2134.4</ele>
        <time>2026-03-23T09:38:04Z</time>
      </trkpt>
      <trkpt lat="44.73949" lon="6.85198">
        <ele>2134.4</ele>
        <time>2026-03-23T09:38:06Z</time>
      </trkpt>
      <trkpt lat="44.73949" lon="6.85199">
        <ele>2134.4</ele>
        <time>2026-03-23T09:38:07Z</time>
      </trkpt>
      <trkpt lat="44.73949" lon="6.85199">
        <ele>2134.4</ele>
        <time>2026-03-23T09:38:08Z</time>
      </trkpt>
      <trkpt lat="44.73949" lon="6.852">
        <ele>2135</ele>
        <time>2026-03-23T09:38:09Z</time>
      </trkpt>
      <trkpt lat="44.73949" lon="6.852">
        <ele>2135</ele>
        <time>2026-03-23T09:38:10Z</time>
      </trkpt>
      <trkpt lat="44.73949" lon="6.852">
        <ele>2135</ele>
        <time>2026-03-23T09:38:11Z</time>
      </trkpt>
      <trkpt lat="44.73949" lon="6.85201">
        <ele>2135</ele>
        <time>2026-03-23T09:38:13Z</time>
      </trkpt>
      <trkpt lat="44.7395" lon="6.85202">
        <ele>2135</ele>
        <time>2026-03-23T09:38:14Z</time>
      </trkpt>
      <trkpt lat="44.7395" lon="6.85202">
        <ele>2135</ele>
        <time>2026-03-23T09:38:15Z</time>
      </trkpt>
      <trkpt lat="44.7395" lon="6.85203">
        <ele>2135</ele>
        <time>2026-03-23T09:38:16Z</time>
      </trkpt>
      <trkpt lat="44.7395" lon="6.85204">
        <ele>2135.7</ele>
        <time>2026-03-23T09:38:17Z</time>
      </trkpt>
      <trkpt lat="44.7395" lon="6.85205">
        <ele>2135.7</ele>
        <time>2026-03-23T09:38:18Z</time>
      </trkpt>
      <trkpt lat="44.7395" lon="6.85206">
        <ele>2135.7</ele>
        <time>2026-03-23T09:38:19Z</time>
      </trkpt>
      <trkpt lat="44.7395" lon="6.85207">
        <ele>2135.7</ele>
        <time>2026-03-23T09:38:20Z</time>
      </trkpt>
      <trkpt lat="44.73951" lon="6.85207">
        <ele>2135.7</ele>
        <time>2026-03-23T09:38:21Z</time>
      </trkpt>
      <trkpt lat="44.73951" lon="6.85208">
        <ele>2136.5</ele>
        <time>2026-03-23T09:38:22Z</time>
      </trkpt>
      <trkpt lat="44.73951" lon="6.85209">
        <ele>2136.5</ele>
        <time>2026-03-23T09:38:23Z</time>
      </trkpt>
      <trkpt lat="44.73951" lon="6.85209">
        <ele>2136.5</ele>
        <time>2026-03-23T09:38:24Z</time>
      </trkpt>
      <trkpt lat="44.73951" lon="6.85209">
        <ele>2136.5</ele>
        <time>2026-03-23T09:38:25Z</time>
      </trkpt>
      <trkpt lat="44.73951" lon="6.8521">
        <ele>2136.7</ele>
        <time>2026-03-23T09:38:26Z</time>
      </trkpt>
      <trkpt lat="44.73951" lon="6.8521">
        <ele>2136.7</ele>
        <time>2026-03-23T09:38:27Z</time>
      </trkpt>
      <trkpt lat="44.73951" lon="6.8521">
        <ele>2136.7</ele>
        <time>2026-03-23T09:38:28Z</time>
      </trkpt>
      <trkpt lat="44.73952" lon="6.85211">
        <ele>2136.7</ele>
        <time>2026-03-23T09:38:29Z</time>
      </trkpt>
      <trkpt lat="44.73952" lon="6.85211">
        <ele>2136.7</ele>
        <time>2026-03-23T09:38:30Z</time>
      </trkpt>
      <trkpt lat="44.73952" lon="6.85211">
        <ele>2136.7</ele>
        <time>2026-03-23T09:38:31Z</time>
      </trkpt>
      <trkpt lat="44.73952" lon="6.85212">
        <ele>2136.7</ele>
        <time>2026-03-23T09:38:32Z</time>
      </trkpt>
      <trkpt lat="44.73953" lon="6.85212">
        <ele>2136.7</ele>
        <time>2026-03-23T09:38:33Z</time>
      </trkpt>
      <trkpt lat="44.73953" lon="6.85212">
        <ele>2136.7</ele>
        <time>2026-03-23T09:38:34Z</time>
      </trkpt>
      <trkpt lat="44.73953" lon="6.85212">
        <ele>2136.7</ele>
        <time>2026-03-23T09:38:35Z</time>
      </trkpt>
      <trkpt lat="44.73953" lon="6.85212">
        <ele>2136.7</ele>
        <time>2026-03-23T09:38:36Z</time>
      </trkpt>
      <trkpt lat="44.73953" lon="6.85212">
        <ele>2136.7</ele>
        <time>2026-03-23T09:38:37Z</time>
      </trkpt>
      <trkpt lat="44.73953" lon="6.85211">
        <ele>2136.7</ele>
        <time>2026-03-23T09:38:38Z</time>
      </trkpt>
      <trkpt lat="44.73953" lon="6.85211">
        <ele>2136.7</ele>
        <time>2026-03-23T09:38:39Z</time>
      </trkpt>
      <trkpt lat="44.73953" lon="6.85211">
        <ele>2136.7</ele>
        <time>2026-03-23T09:38:40Z</time>
      </trkpt>
      <trkpt lat="44.73953" lon="6.85211">
        <ele>2136.7</ele>
        <time>2026-03-23T09:38:41Z</time>
      </trkpt>
      <trkpt lat="44.73954" lon="6.85212">
        <ele>2136.7</ele>
        <time>2026-03-23T09:38:42Z</time>
      </trkpt>
      <trkpt lat="44.73954" lon="6.85212">
        <ele>2137</ele>
        <time>2026-03-23T09:38:43Z</time>
      </trkpt>
      <trkpt lat="44.73954" lon="6.85212">
        <ele>2137.7</ele>
        <time>2026-03-23T09:38:44Z</time>
      </trkpt>
      <trkpt lat="44.73955" lon="6.85213">
        <ele>2137.7</ele>
        <time>2026-03-23T09:38:45Z</time>
      </trkpt>
      <trkpt lat="44.73955" lon="6.85213">
        <ele>2137.7</ele>
        <time>2026-03-23T09:38:46Z</time>
      </trkpt>
      <trkpt lat="44.73956" lon="6.85214">
        <ele>2137.7</ele>
        <time>2026-03-23T09:38:47Z</time>
      </trkpt>
      <trkpt lat="44.73956" lon="6.85214">
        <ele>2137.7</ele>
        <time>2026-03-23T09:38:48Z</time>
      </trkpt>
      <trkpt lat="44.73957" lon="6.85216">
        <ele>2137.7</ele>
        <time>2026-03-23T09:38:49Z</time>
      </trkpt>
      <trkpt lat="44.73957" lon="6.85216">
        <ele>2137.7</ele>
        <time>2026-03-23T09:38:50Z</time>
      </trkpt>
      <trkpt lat="44.73957" lon="6.85217">
        <ele>2138.8</ele>
        <time>2026-03-23T09:38:52Z</time>
      </trkpt>
      <trkpt lat="44.73958" lon="6.85218">
        <ele>2138.8</ele>
        <time>2026-03-23T09:38:53Z</time>
      </trkpt>
      <trkpt lat="44.73958" lon="6.85218">
        <ele>2138.8</ele>
        <time>2026-03-23T09:38:54Z</time>
      </trkpt>
      <trkpt lat="44.73959" lon="6.85219">
        <ele>2138.8</ele>
        <time>2026-03-23T09:38:55Z</time>
      </trkpt>
      <trkpt lat="44.73959" lon="6.85219">
        <ele>2138.8</ele>
        <time>2026-03-23T09:38:56Z</time>
      </trkpt>
      <trkpt lat="44.73959" lon="6.8522">
        <ele>2138.8</ele>
        <time>2026-03-23T09:38:57Z</time>
      </trkpt>
      <trkpt lat="44.7396" lon="6.8522">
        <ele>2138.8</ele>
        <time>2026-03-23T09:38:58Z</time>
      </trkpt>
      <trkpt lat="44.7396" lon="6.8522">
        <ele>2138.8</ele>
        <time>2026-03-23T09:38:59Z</time>
      </trkpt>
      <trkpt lat="44.7396" lon="6.8522">
        <ele>2139.1</ele>
        <time>2026-03-23T09:39:00Z</time>
      </trkpt>
      <trkpt lat="44.7396" lon="6.85221">
        <ele>2139.1</ele>
        <time>2026-03-23T09:39:01Z</time>
      </trkpt>
      <trkpt lat="44.73961" lon="6.85221">
        <ele>2139.1</ele>
        <time>2026-03-23T09:39:02Z</time>
      </trkpt>
      <trkpt lat="44.73961" lon="6.85221">
        <ele>2139.9</ele>
        <time>2026-03-23T09:39:03Z</time>
      </trkpt>
      <trkpt lat="44.73961" lon="6.85221">
        <ele>2139.9</ele>
        <time>2026-03-23T09:39:04Z</time>
      </trkpt>
      <trkpt lat="44.73961" lon="6.85222">
        <ele>2139.9</ele>
        <time>2026-03-23T09:39:05Z</time>
      </trkpt>
      <trkpt lat="44.73962" lon="6.85222">
        <ele>2139.9</ele>
        <time>2026-03-23T09:39:06Z</time>
      </trkpt>
      <trkpt lat="44.73962" lon="6.85223">
        <ele>2139.9</ele>
        <time>2026-03-23T09:39:07Z</time>
      </trkpt>
      <trkpt lat="44.73962" lon="6.85223">
        <ele>2139.9</ele>
        <time>2026-03-23T09:39:08Z</time>
      </trkpt>
      <trkpt lat="44.73963" lon="6.85224">
        <ele>2139.9</ele>
        <time>2026-03-23T09:39:09Z</time>
      </trkpt>
      <trkpt lat="44.73963" lon="6.85224">
        <ele>2139.9</ele>
        <time>2026-03-23T09:39:10Z</time>
      </trkpt>
      <trkpt lat="44.73963" lon="6.85225">
        <ele>2139.9</ele>
        <time>2026-03-23T09:39:11Z</time>
      </trkpt>
      <trkpt lat="44.73963" lon="6.85225">
        <ele>2140.9</ele>
        <time>2026-03-23T09:39:12Z</time>
      </trkpt>
      <trkpt lat="44.73964" lon="6.85226">
        <ele>2140.9</ele>
        <time>2026-03-23T09:39:13Z</time>
      </trkpt>
      <trkpt lat="44.73964" lon="6.85227">
        <ele>2140.9</ele>
        <time>2026-03-23T09:39:14Z</time>
      </trkpt>
      <trkpt lat="44.73965" lon="6.85227">
        <ele>2140.9</ele>
        <time>2026-03-23T09:39:15Z</time>
      </trkpt>
      <trkpt lat="44.73965" lon="6.85228">
        <ele>2140.9</ele>
        <time>2026-03-23T09:39:16Z</time>
      </trkpt>
      <trkpt lat="44.73965" lon="6.85229">
        <ele>2141.7</ele>
        <time>2026-03-23T09:39:18Z</time>
      </trkpt>
      <trkpt lat="44.73966" lon="6.8523">
        <ele>2141.7</ele>
        <time>2026-03-23T09:39:19Z</time>
      </trkpt>
      <trkpt lat="44.73966" lon="6.85231">
        <ele>2141.7</ele>
        <time>2026-03-23T09:39:20Z</time>
      </trkpt>
      <trkpt lat="44.73966" lon="6.85232">
        <ele>2142</ele>
        <time>2026-03-23T09:39:21Z</time>
      </trkpt>
      <trkpt lat="44.73966" lon="6.85232">
        <ele>2142</ele>
        <time>2026-03-23T09:39:22Z</time>
      </trkpt>
      <trkpt lat="44.73967" lon="6.85233">
        <ele>2142</ele>
        <time>2026-03-23T09:39:23Z</time>
      </trkpt>
      <trkpt lat="44.73967" lon="6.85233">
        <ele>2142</ele>
        <time>2026-03-23T09:39:24Z</time>
      </trkpt>
      <trkpt lat="44.73967" lon="6.85234">
        <ele>2142.7</ele>
        <time>2026-03-23T09:39:25Z</time>
      </trkpt>
      <trkpt lat="44.73967" lon="6.85234">
        <ele>2142.7</ele>
        <time>2026-03-23T09:39:26Z</time>
      </trkpt>
      <trkpt lat="44.73967" lon="6.85235">
        <ele>2142.7</ele>
        <time>2026-03-23T09:39:27Z</time>
      </trkpt>
      <trkpt lat="44.73968" lon="6.85235">
        <ele>2142.7</ele>
        <time>2026-03-23T09:39:28Z</time>
      </trkpt>
      <trkpt lat="44.73968" lon="6.85236">
        <ele>2142.7</ele>
        <time>2026-03-23T09:39:29Z</time>
      </trkpt>
      <trkpt lat="44.73968" lon="6.85236">
        <ele>2142.7</ele>
        <time>2026-03-23T09:39:30Z</time>
      </trkpt>
      <trkpt lat="44.73968" lon="6.85237">
        <ele>2142.7</ele>
        <time>2026-03-23T09:39:31Z</time>
      </trkpt>
      <trkpt lat="44.73968" lon="6.85238">
        <ele>2142.7</ele>
        <time>2026-03-23T09:39:32Z</time>
      </trkpt>
      <trkpt lat="44.73968" lon="6.85239">
        <ele>2143.4</ele>
        <time>2026-03-23T09:39:33Z</time>
      </trkpt>
      <trkpt lat="44.73969" lon="6.85239">
        <ele>2143.4</ele>
        <time>2026-03-23T09:39:34Z</time>
      </trkpt>
      <trkpt lat="44.73969" lon="6.8524">
        <ele>2143.4</ele>
        <time>2026-03-23T09:39:35Z</time>
      </trkpt>
      <trkpt lat="44.73969" lon="6.85241">
        <ele>2143.4</ele>
        <time>2026-03-23T09:39:36Z</time>
      </trkpt>
      <trkpt lat="44.73969" lon="6.85242">
        <ele>2143.4</ele>
        <time>2026-03-23T09:39:37Z</time>
      </trkpt>
      <trkpt lat="44.73969" lon="6.85242">
        <ele>2143.6</ele>
        <time>2026-03-23T09:39:38Z</time>
      </trkpt>
      <trkpt lat="44.7397" lon="6.85243">
        <ele>2144.3</ele>
        <time>2026-03-23T09:39:39Z</time>
      </trkpt>
      <trkpt lat="44.7397" lon="6.85243">
        <ele>2144.3</ele>
        <time>2026-03-23T09:39:40Z</time>
      </trkpt>
      <trkpt lat="44.7397" lon="6.85244">
        <ele>2144.3</ele>
        <time>2026-03-23T09:39:41Z</time>
      </trkpt>
      <trkpt lat="44.7397" lon="6.85244">
        <ele>2144.3</ele>
        <time>2026-03-23T09:39:42Z</time>
      </trkpt>
      <trkpt lat="44.73971" lon="6.85245">
        <ele>2144.3</ele>
        <time>2026-03-23T09:39:43Z</time>
      </trkpt>
      <trkpt lat="44.73971" lon="6.85246">
        <ele>2144.3</ele>
        <time>2026-03-23T09:39:44Z</time>
      </trkpt>
      <trkpt lat="44.73971" lon="6.85246">
        <ele>2144.3</ele>
        <time>2026-03-23T09:39:45Z</time>
      </trkpt>
      <trkpt lat="44.73971" lon="6.85246">
        <ele>2144.3</ele>
        <time>2026-03-23T09:39:47Z</time>
      </trkpt>
      <trkpt lat="44.73971" lon="6.85247">
        <ele>2145.1</ele>
        <time>2026-03-23T09:39:49Z</time>
      </trkpt>
      <trkpt lat="44.73971" lon="6.85247">
        <ele>2145.1</ele>
        <time>2026-03-23T09:39:50Z</time>
      </trkpt>
      <trkpt lat="44.73971" lon="6.85248">
        <ele>2145.1</ele>
        <time>2026-03-23T09:39:51Z</time>
      </trkpt>
      <trkpt lat="44.73971" lon="6.85248">
        <ele>2145.1</ele>
        <time>2026-03-23T09:39:52Z</time>
      </trkpt>
      <trkpt lat="44.73972" lon="6.85248">
        <ele>2145.1</ele>
        <time>2026-03-23T09:39:53Z</time>
      </trkpt>
      <trkpt lat="44.73972" lon="6.85249">
        <ele>2145.1</ele>
        <time>2026-03-23T09:39:54Z</time>
      </trkpt>
      <trkpt lat="44.73972" lon="6.8525">
        <ele>2145.1</ele>
        <time>2026-03-23T09:39:55Z</time>
      </trkpt>
      <trkpt lat="44.73972" lon="6.85251">
        <ele>2146</ele>
        <time>2026-03-23T09:39:56Z</time>
      </trkpt>
      <trkpt lat="44.73973" lon="6.85252">
        <ele>2146</ele>
        <time>2026-03-23T09:39:57Z</time>
      </trkpt>
      <trkpt lat="44.73973" lon="6.85253">
        <ele>2146</ele>
        <time>2026-03-23T09:39:58Z</time>
      </trkpt>
      <trkpt lat="44.73974" lon="6.85254">
        <ele>2146</ele>
        <time>2026-03-23T09:39:59Z</time>
      </trkpt>
      <trkpt lat="44.73974" lon="6.85255">
        <ele>2146.8</ele>
        <time>2026-03-23T09:40:00Z</time>
      </trkpt>
      <trkpt lat="44.73975" lon="6.85257">
        <ele>2146.8</ele>
        <time>2026-03-23T09:40:01Z</time>
      </trkpt>
      <trkpt lat="44.73975" lon="6.85258">
        <ele>2146.8</ele>
        <time>2026-03-23T09:40:02Z</time>
      </trkpt>
      <trkpt lat="44.73975" lon="6.85259">
        <ele>2146.8</ele>
        <time>2026-03-23T09:40:03Z</time>
      </trkpt>
      <trkpt lat="44.73975" lon="6.85259">
        <ele>2147.7</ele>
        <time>2026-03-23T09:40:04Z</time>
      </trkpt>
      <trkpt lat="44.73976" lon="6.8526">
        <ele>2147.7</ele>
        <time>2026-03-23T09:40:05Z</time>
      </trkpt>
      <trkpt lat="44.73976" lon="6.85261">
        <ele>2147.7</ele>
        <time>2026-03-23T09:40:06Z</time>
      </trkpt>
      <trkpt lat="44.73976" lon="6.85262">
        <ele>2147.7</ele>
        <time>2026-03-23T09:40:07Z</time>
      </trkpt>
      <trkpt lat="44.73977" lon="6.85263">
        <ele>2147.7</ele>
        <time>2026-03-23T09:40:08Z</time>
      </trkpt>
      <trkpt lat="44.73977" lon="6.85263">
        <ele>2147.7</ele>
        <time>2026-03-23T09:40:10Z</time>
      </trkpt>
      <trkpt lat="44.73977" lon="6.85263">
        <ele>2147.7</ele>
        <time>2026-03-23T09:40:11Z</time>
      </trkpt>
      <trkpt lat="44.73978" lon="6.85264">
        <ele>2147.7</ele>
        <time>2026-03-23T09:40:12Z</time>
      </trkpt>
      <trkpt lat="44.73978" lon="6.85264">
        <ele>2148.5</ele>
        <time>2026-03-23T09:40:13Z</time>
      </trkpt>
      <trkpt lat="44.73978" lon="6.85264">
        <ele>2148.5</ele>
        <time>2026-03-23T09:40:14Z</time>
      </trkpt>
      <trkpt lat="44.73978" lon="6.85265">
        <ele>2148.5</ele>
        <time>2026-03-23T09:40:15Z</time>
      </trkpt>
      <trkpt lat="44.73979" lon="6.85266">
        <ele>2148.6</ele>
        <time>2026-03-23T09:40:16Z</time>
      </trkpt>
      <trkpt lat="44.73979" lon="6.85266">
        <ele>2148.6</ele>
        <time>2026-03-23T09:40:17Z</time>
      </trkpt>
      <trkpt lat="44.73979" lon="6.85267">
        <ele>2148.6</ele>
        <time>2026-03-23T09:40:18Z</time>
      </trkpt>
      <trkpt lat="44.73979" lon="6.85267">
        <ele>2148.6</ele>
        <time>2026-03-23T09:40:19Z</time>
      </trkpt>
      <trkpt lat="44.73979" lon="6.85268">
        <ele>2148.6</ele>
        <time>2026-03-23T09:40:20Z</time>
      </trkpt>
      <trkpt lat="44.7398" lon="6.85268">
        <ele>2149.4</ele>
        <time>2026-03-23T09:40:21Z</time>
      </trkpt>
      <trkpt lat="44.7398" lon="6.85269">
        <ele>2149.4</ele>
        <time>2026-03-23T09:40:22Z</time>
      </trkpt>
      <trkpt lat="44.7398" lon="6.8527">
        <ele>2149.4</ele>
        <time>2026-03-23T09:40:23Z</time>
      </trkpt>
      <trkpt lat="44.7398" lon="6.8527">
        <ele>2149.4</ele>
        <time>2026-03-23T09:40:24Z</time>
      </trkpt>
      <trkpt lat="44.7398" lon="6.8527">
        <ele>2149.4</ele>
        <time>2026-03-23T09:40:25Z</time>
      </trkpt>
      <trkpt lat="44.7398" lon="6.8527">
        <ele>2149.4</ele>
        <time>2026-03-23T09:40:26Z</time>
      </trkpt>
      <trkpt lat="44.7398" lon="6.8527">
        <ele>2149.4</ele>
        <time>2026-03-23T09:40:27Z</time>
      </trkpt>
      <trkpt lat="44.7398" lon="6.8527">
        <ele>2149.4</ele>
        <time>2026-03-23T09:40:28Z</time>
      </trkpt>
      <trkpt lat="44.7398" lon="6.85271">
        <ele>2149.4</ele>
        <time>2026-03-23T09:40:29Z</time>
      </trkpt>
      <trkpt lat="44.7398" lon="6.85271">
        <ele>2149.4</ele>
        <time>2026-03-23T09:40:30Z</time>
      </trkpt>
      <trkpt lat="44.7398" lon="6.85271">
        <ele>2149.4</ele>
        <time>2026-03-23T09:40:31Z</time>
      </trkpt>
      <trkpt lat="44.73981" lon="6.85272">
        <ele>2149.4</ele>
        <time>2026-03-23T09:40:32Z</time>
      </trkpt>
      <trkpt lat="44.73981" lon="6.85272">
        <ele>2149.4</ele>
        <time>2026-03-23T09:40:33Z</time>
      </trkpt>
      <trkpt lat="44.73981" lon="6.85272">
        <ele>2149.4</ele>
        <time>2026-03-23T09:40:34Z</time>
      </trkpt>
      <trkpt lat="44.73981" lon="6.85272">
        <ele>2149.4</ele>
        <time>2026-03-23T09:40:35Z</time>
      </trkpt>
      <trkpt lat="44.73981" lon="6.85272">
        <ele>2150.2</ele>
        <time>2026-03-23T09:40:36Z</time>
      </trkpt>
      <trkpt lat="44.73981" lon="6.85273">
        <ele>2150.2</ele>
        <time>2026-03-23T09:40:37Z</time>
      </trkpt>
      <trkpt lat="44.73982" lon="6.85274">
        <ele>2150.2</ele>
        <time>2026-03-23T09:40:38Z</time>
      </trkpt>
      <trkpt lat="44.73982" lon="6.85275">
        <ele>2150.2</ele>
        <time>2026-03-23T09:40:39Z</time>
      </trkpt>
      <trkpt lat="44.73982" lon="6.85275">
        <ele>2150.2</ele>
        <time>2026-03-23T09:40:40Z</time>
      </trkpt>
      <trkpt lat="44.73983" lon="6.85276">
        <ele>2150.2</ele>
        <time>2026-03-23T09:40:41Z</time>
      </trkpt>
      <trkpt lat="44.73983" lon="6.85276">
        <ele>2150.2</ele>
        <time>2026-03-23T09:40:42Z</time>
      </trkpt>
      <trkpt lat="44.73983" lon="6.85277">
        <ele>2151</ele>
        <time>2026-03-23T09:40:43Z</time>
      </trkpt>
      <trkpt lat="44.73983" lon="6.85278">
        <ele>2151</ele>
        <time>2026-03-23T09:40:44Z</time>
      </trkpt>
      <trkpt lat="44.73984" lon="6.85278">
        <ele>2151</ele>
        <time>2026-03-23T09:40:45Z</time>
      </trkpt>
      <trkpt lat="44.73984" lon="6.85279">
        <ele>2151</ele>
        <time>2026-03-23T09:40:47Z</time>
      </trkpt>
      <trkpt lat="44.73985" lon="6.8528">
        <ele>2151</ele>
        <time>2026-03-23T09:40:49Z</time>
      </trkpt>
      <trkpt lat="44.73985" lon="6.8528">
        <ele>2151</ele>
        <time>2026-03-23T09:40:50Z</time>
      </trkpt>
      <trkpt lat="44.73985" lon="6.85281">
        <ele>2151.8</ele>
        <time>2026-03-23T09:40:51Z</time>
      </trkpt>
      <trkpt lat="44.73986" lon="6.85282">
        <ele>2151.8</ele>
        <time>2026-03-23T09:40:53Z</time>
      </trkpt>
      <trkpt lat="44.73986" lon="6.85283">
        <ele>2151.8</ele>
        <time>2026-03-23T09:40:54Z</time>
      </trkpt>
      <trkpt lat="44.73986" lon="6.85283">
        <ele>2151.8</ele>
        <time>2026-03-23T09:40:55Z</time>
      </trkpt>
      <trkpt lat="44.73987" lon="6.85284">
        <ele>2151.8</ele>
        <time>2026-03-23T09:40:56Z</time>
      </trkpt>
      <trkpt lat="44.73987" lon="6.85285">
        <ele>2151.8</ele>
        <time>2026-03-23T09:40:57Z</time>
      </trkpt>
      <trkpt lat="44.73987" lon="6.85285">
        <ele>2152.5</ele>
        <time>2026-03-23T09:40:58Z</time>
      </trkpt>
      <trkpt lat="44.73987" lon="6.85286">
        <ele>2152.5</ele>
        <time>2026-03-23T09:40:59Z</time>
      </trkpt>
      <trkpt lat="44.73987" lon="6.85286">
        <ele>2152.5</ele>
        <time>2026-03-23T09:41:00Z</time>
      </trkpt>
      <trkpt lat="44.73988" lon="6.85287">
        <ele>2152.5</ele>
        <time>2026-03-23T09:41:01Z</time>
      </trkpt>
      <trkpt lat="44.73988" lon="6.85287">
        <ele>2152.5</ele>
        <time>2026-03-23T09:41:02Z</time>
      </trkpt>
      <trkpt lat="44.73988" lon="6.85288">
        <ele>2152.5</ele>
        <time>2026-03-23T09:41:03Z</time>
      </trkpt>
      <trkpt lat="44.73988" lon="6.85288">
        <ele>2152.5</ele>
        <time>2026-03-23T09:41:04Z</time>
      </trkpt>
      <trkpt lat="44.73988" lon="6.85288">
        <ele>2152.5</ele>
        <time>2026-03-23T09:41:05Z</time>
      </trkpt>
      <trkpt lat="44.73988" lon="6.8529">
        <ele>2153.2</ele>
        <time>2026-03-23T09:41:06Z</time>
      </trkpt>
      <trkpt lat="44.73988" lon="6.8529">
        <ele>2153.2</ele>
        <time>2026-03-23T09:41:07Z</time>
      </trkpt>
      <trkpt lat="44.73988" lon="6.85291">
        <ele>2153.2</ele>
        <time>2026-03-23T09:41:08Z</time>
      </trkpt>
      <trkpt lat="44.73989" lon="6.85292">
        <ele>2153.2</ele>
        <time>2026-03-23T09:41:09Z</time>
      </trkpt>
      <trkpt lat="44.73989" lon="6.85293">
        <ele>2153.2</ele>
        <time>2026-03-23T09:41:10Z</time>
      </trkpt>
      <trkpt lat="44.73989" lon="6.85293">
        <ele>2153.2</ele>
        <time>2026-03-23T09:41:11Z</time>
      </trkpt>
      <trkpt lat="44.73989" lon="6.85294">
        <ele>2154</ele>
        <time>2026-03-23T09:41:12Z</time>
      </trkpt>
      <trkpt lat="44.7399" lon="6.85295">
        <ele>2154</ele>
        <time>2026-03-23T09:41:13Z</time>
      </trkpt>
      <trkpt lat="44.7399" lon="6.85295">
        <ele>2154</ele>
        <time>2026-03-23T09:41:14Z</time>
      </trkpt>
      <trkpt lat="44.7399" lon="6.85296">
        <ele>2154</ele>
        <time>2026-03-23T09:41:15Z</time>
      </trkpt>
      <trkpt lat="44.73991" lon="6.85297">
        <ele>2154</ele>
        <time>2026-03-23T09:41:16Z</time>
      </trkpt>
      <trkpt lat="44.73992" lon="6.85299">
        <ele>2154.8</ele>
        <time>2026-03-23T09:41:17Z</time>
      </trkpt>
      <trkpt lat="44.73993" lon="6.853">
        <ele>2154.8</ele>
        <time>2026-03-23T09:41:19Z</time>
      </trkpt>
      <trkpt lat="44.73993" lon="6.85301">
        <ele>2154.8</ele>
        <time>2026-03-23T09:41:20Z</time>
      </trkpt>
      <trkpt lat="44.73994" lon="6.85301">
        <ele>2154.9</ele>
        <time>2026-03-23T09:41:21Z</time>
      </trkpt>
      <trkpt lat="44.73994" lon="6.85302">
        <ele>2154.9</ele>
        <time>2026-03-23T09:41:22Z</time>
      </trkpt>
      <trkpt lat="44.73994" lon="6.85302">
        <ele>2155.8</ele>
        <time>2026-03-23T09:41:23Z</time>
      </trkpt>
      <trkpt lat="44.73995" lon="6.85303">
        <ele>2155.8</ele>
        <time>2026-03-23T09:41:24Z</time>
      </trkpt>
      <trkpt lat="44.73994" lon="6.85303">
        <ele>2155.8</ele>
        <time>2026-03-23T09:41:26Z</time>
      </trkpt>
      <trkpt lat="44.73994" lon="6.85304">
        <ele>2155.8</ele>
        <time>2026-03-23T09:41:27Z</time>
      </trkpt>
      <trkpt lat="44.73994" lon="6.85304">
        <ele>2155.8</ele>
        <time>2026-03-23T09:41:28Z</time>
      </trkpt>
      <trkpt lat="44.73994" lon="6.85305">
        <ele>2155.8</ele>
        <time>2026-03-23T09:41:29Z</time>
      </trkpt>
      <trkpt lat="44.73994" lon="6.85305">
        <ele>2155.8</ele>
        <time>2026-03-23T09:41:30Z</time>
      </trkpt>
      <trkpt lat="44.73994" lon="6.85305">
        <ele>2155.8</ele>
        <time>2026-03-23T09:41:32Z</time>
      </trkpt>
      <trkpt lat="44.73994" lon="6.85305">
        <ele>2155.8</ele>
        <time>2026-03-23T09:41:33Z</time>
      </trkpt>
      <trkpt lat="44.73994" lon="6.85306">
        <ele>2155.8</ele>
        <time>2026-03-23T09:41:34Z</time>
      </trkpt>
      <trkpt lat="44.73994" lon="6.85306">
        <ele>2155.8</ele>
        <time>2026-03-23T09:41:35Z</time>
      </trkpt>
      <trkpt lat="44.73994" lon="6.85307">
        <ele>2156.7</ele>
        <time>2026-03-23T09:41:36Z</time>
      </trkpt>
      <trkpt lat="44.73994" lon="6.85307">
        <ele>2156.7</ele>
        <time>2026-03-23T09:41:37Z</time>
      </trkpt>
      <trkpt lat="44.73994" lon="6.85308">
        <ele>2156.7</ele>
        <time>2026-03-23T09:41:38Z</time>
      </trkpt>
      <trkpt lat="44.73994" lon="6.85308">
        <ele>2156.7</ele>
        <time>2026-03-23T09:41:39Z</time>
      </trkpt>
      <trkpt lat="44.73995" lon="6.85308">
        <ele>2156.7</ele>
        <time>2026-03-23T09:41:40Z</time>
      </trkpt>
      <trkpt lat="44.73995" lon="6.85309">
        <ele>2156.7</ele>
        <time>2026-03-23T09:41:41Z</time>
      </trkpt>
      <trkpt lat="44.73995" lon="6.8531">
        <ele>2156.6</ele>
        <time>2026-03-23T09:41:42Z</time>
      </trkpt>
      <trkpt lat="44.73995" lon="6.8531">
        <ele>2156.6</ele>
        <time>2026-03-23T09:41:43Z</time>
      </trkpt>
      <trkpt lat="44.73995" lon="6.85311">
        <ele>2156.6</ele>
        <time>2026-03-23T09:41:45Z</time>
      </trkpt>
      <trkpt lat="44.73995" lon="6.85312">
        <ele>2157.5</ele>
        <time>2026-03-23T09:41:46Z</time>
      </trkpt>
      <trkpt lat="44.73995" lon="6.85312">
        <ele>2157.5</ele>
        <time>2026-03-23T09:41:47Z</time>
      </trkpt>
      <trkpt lat="44.73995" lon="6.85312">
        <ele>2157.5</ele>
        <time>2026-03-23T09:41:48Z</time>
      </trkpt>
      <trkpt lat="44.73996" lon="6.85313">
        <ele>2157.5</ele>
        <time>2026-03-23T09:41:49Z</time>
      </trkpt>
      <trkpt lat="44.73996" lon="6.85314">
        <ele>2157.5</ele>
        <time>2026-03-23T09:41:50Z</time>
      </trkpt>
      <trkpt lat="44.73997" lon="6.85316">
        <ele>2158.5</ele>
        <time>2026-03-23T09:41:52Z</time>
      </trkpt>
      <trkpt lat="44.73997" lon="6.85317">
        <ele>2158.5</ele>
        <time>2026-03-23T09:41:53Z</time>
      </trkpt>
      <trkpt lat="44.73998" lon="6.85318">
        <ele>2158.5</ele>
        <time>2026-03-23T09:41:54Z</time>
      </trkpt>
      <trkpt lat="44.73998" lon="6.85319">
        <ele>2158.5</ele>
        <time>2026-03-23T09:41:55Z</time>
      </trkpt>
      <trkpt lat="44.73999" lon="6.8532">
        <ele>2159.3</ele>
        <time>2026-03-23T09:41:56Z</time>
      </trkpt>
      <trkpt lat="44.73999" lon="6.85321">
        <ele>2159.3</ele>
        <time>2026-03-23T09:41:57Z</time>
      </trkpt>
      <trkpt lat="44.74" lon="6.85323">
        <ele>2159.4</ele>
        <time>2026-03-23T09:41:59Z</time>
      </trkpt>
      <trkpt lat="44.74" lon="6.85324">
        <ele>2160.3</ele>
        <time>2026-03-23T09:42:00Z</time>
      </trkpt>
      <trkpt lat="44.74001" lon="6.85325">
        <ele>2160.2</ele>
        <time>2026-03-23T09:42:01Z</time>
      </trkpt>
      <trkpt lat="44.74001" lon="6.85325">
        <ele>2160.2</ele>
        <time>2026-03-23T09:42:02Z</time>
      </trkpt>
      <trkpt lat="44.74002" lon="6.85327">
        <ele>2160.2</ele>
        <time>2026-03-23T09:42:03Z</time>
      </trkpt>
      <trkpt lat="44.74003" lon="6.85328">
        <ele>2160.2</ele>
        <time>2026-03-23T09:42:04Z</time>
      </trkpt>
      <trkpt lat="44.74004" lon="6.85329">
        <ele>2161.2</ele>
        <time>2026-03-23T09:42:06Z</time>
      </trkpt>
      <trkpt lat="44.74005" lon="6.85329">
        <ele>2161.2</ele>
        <time>2026-03-23T09:42:07Z</time>
      </trkpt>
      <trkpt lat="44.74005" lon="6.8533">
        <ele>2161.2</ele>
        <time>2026-03-23T09:42:08Z</time>
      </trkpt>
      <trkpt lat="44.74006" lon="6.8533">
        <ele>2161.2</ele>
        <time>2026-03-23T09:42:09Z</time>
      </trkpt>
      <trkpt lat="44.74006" lon="6.85332">
        <ele>2161.3</ele>
        <time>2026-03-23T09:42:10Z</time>
      </trkpt>
      <trkpt lat="44.74007" lon="6.85333">
        <ele>2162.2</ele>
        <time>2026-03-23T09:42:11Z</time>
      </trkpt>
      <trkpt lat="44.74008" lon="6.85335">
        <ele>2162.2</ele>
        <time>2026-03-23T09:42:12Z</time>
      </trkpt>
      <trkpt lat="44.74008" lon="6.85336">
        <ele>2162.2</ele>
        <time>2026-03-23T09:42:13Z</time>
      </trkpt>
      <trkpt lat="44.74008" lon="6.85337">
        <ele>2163</ele>
        <time>2026-03-23T09:42:14Z</time>
      </trkpt>
      <trkpt lat="44.74008" lon="6.85337">
        <ele>2163</ele>
        <time>2026-03-23T09:42:15Z</time>
      </trkpt>
      <trkpt lat="44.74008" lon="6.85337">
        <ele>2163</ele>
        <time>2026-03-23T09:42:16Z</time>
      </trkpt>
      <trkpt lat="44.74008" lon="6.85338">
        <ele>2163</ele>
        <time>2026-03-23T09:42:17Z</time>
      </trkpt>
      <trkpt lat="44.74009" lon="6.85339">
        <ele>2163</ele>
        <time>2026-03-23T09:42:18Z</time>
      </trkpt>
      <trkpt lat="44.74009" lon="6.8534">
        <ele>2163</ele>
        <time>2026-03-23T09:42:19Z</time>
      </trkpt>
      <trkpt lat="44.74009" lon="6.85341">
        <ele>2163.2</ele>
        <time>2026-03-23T09:42:20Z</time>
      </trkpt>
      <trkpt lat="44.74009" lon="6.85342">
        <ele>2164</ele>
        <time>2026-03-23T09:42:21Z</time>
      </trkpt>
      <trkpt lat="44.74009" lon="6.85342">
        <ele>2164</ele>
        <time>2026-03-23T09:42:22Z</time>
      </trkpt>
      <trkpt lat="44.7401" lon="6.85344">
        <ele>2164</ele>
        <time>2026-03-23T09:42:23Z</time>
      </trkpt>
      <trkpt lat="44.7401" lon="6.85345">
        <ele>2164</ele>
        <time>2026-03-23T09:42:24Z</time>
      </trkpt>
      <trkpt lat="44.7401" lon="6.85346">
        <ele>2165</ele>
        <time>2026-03-23T09:42:25Z</time>
      </trkpt>
      <trkpt lat="44.7401" lon="6.85347">
        <ele>2165</ele>
        <time>2026-03-23T09:42:26Z</time>
      </trkpt>
      <trkpt lat="44.7401" lon="6.85348">
        <ele>2165</ele>
        <time>2026-03-23T09:42:27Z</time>
      </trkpt>
      <trkpt lat="44.74011" lon="6.85349">
        <ele>2165</ele>
        <time>2026-03-23T09:42:28Z</time>
      </trkpt>
      <trkpt lat="44.74011" lon="6.8535">
        <ele>2165.9</ele>
        <time>2026-03-23T09:42:29Z</time>
      </trkpt>
      <trkpt lat="44.74011" lon="6.85351">
        <ele>2165.9</ele>
        <time>2026-03-23T09:42:30Z</time>
      </trkpt>
      <trkpt lat="44.74011" lon="6.85352">
        <ele>2165.9</ele>
        <time>2026-03-23T09:42:31Z</time>
      </trkpt>
      <trkpt lat="44.74011" lon="6.85353">
        <ele>2165.9</ele>
        <time>2026-03-23T09:42:32Z</time>
      </trkpt>
      <trkpt lat="44.74012" lon="6.85354">
        <ele>2166.9</ele>
        <time>2026-03-23T09:42:33Z</time>
      </trkpt>
      <trkpt lat="44.74012" lon="6.85355">
        <ele>2166.9</ele>
        <time>2026-03-23T09:42:34Z</time>
      </trkpt>
      <trkpt lat="44.74012" lon="6.85356">
        <ele>2166.9</ele>
        <time>2026-03-23T09:42:35Z</time>
      </trkpt>
      <trkpt lat="44.74012" lon="6.85357">
        <ele>2166.9</ele>
        <time>2026-03-23T09:42:36Z</time>
      </trkpt>
      <trkpt lat="44.74012" lon="6.85358">
        <ele>2166.9</ele>
        <time>2026-03-23T09:42:37Z</time>
      </trkpt>
      <trkpt lat="44.74012" lon="6.85359">
        <ele>2168.1</ele>
        <time>2026-03-23T09:42:38Z</time>
      </trkpt>
      <trkpt lat="44.74012" lon="6.85359">
        <ele>2168.1</ele>
        <time>2026-03-23T09:42:39Z</time>
      </trkpt>
      <trkpt lat="44.74012" lon="6.8536">
        <ele>2168.1</ele>
        <time>2026-03-23T09:42:40Z</time>
      </trkpt>
      <trkpt lat="44.74012" lon="6.85361">
        <ele>2168.1</ele>
        <time>2026-03-23T09:42:41Z</time>
      </trkpt>
      <trkpt lat="44.74012" lon="6.85361">
        <ele>2168.1</ele>
        <time>2026-03-23T09:42:42Z</time>
      </trkpt>
      <trkpt lat="44.74012" lon="6.85362">
        <ele>2168.1</ele>
        <time>2026-03-23T09:42:43Z</time>
      </trkpt>
      <trkpt lat="44.74012" lon="6.85363">
        <ele>2169</ele>
        <time>2026-03-23T09:42:44Z</time>
      </trkpt>
      <trkpt lat="44.74012" lon="6.85364">
        <ele>2169</ele>
        <time>2026-03-23T09:42:45Z</time>
      </trkpt>
      <trkpt lat="44.74013" lon="6.85365">
        <ele>2169</ele>
        <time>2026-03-23T09:42:46Z</time>
      </trkpt>
      <trkpt lat="44.74013" lon="6.85366">
        <ele>2169</ele>
        <time>2026-03-23T09:42:47Z</time>
      </trkpt>
      <trkpt lat="44.74013" lon="6.85367">
        <ele>2169.9</ele>
        <time>2026-03-23T09:42:48Z</time>
      </trkpt>
      <trkpt lat="44.74013" lon="6.85367">
        <ele>2169.9</ele>
        <time>2026-03-23T09:42:49Z</time>
      </trkpt>
      <trkpt lat="44.74013" lon="6.85368">
        <ele>2169.9</ele>
        <time>2026-03-23T09:42:50Z</time>
      </trkpt>
      <trkpt lat="44.74013" lon="6.85369">
        <ele>2169.9</ele>
        <time>2026-03-23T09:42:51Z</time>
      </trkpt>
      <trkpt lat="44.74014" lon="6.85369">
        <ele>2169.9</ele>
        <time>2026-03-23T09:42:52Z</time>
      </trkpt>
      <trkpt lat="44.74014" lon="6.85371">
        <ele>2169.9</ele>
        <time>2026-03-23T09:42:53Z</time>
      </trkpt>
      <trkpt lat="44.74014" lon="6.85372">
        <ele>2170.8</ele>
        <time>2026-03-23T09:42:54Z</time>
      </trkpt>
      <trkpt lat="44.74015" lon="6.85372">
        <ele>2170.8</ele>
        <time>2026-03-23T09:42:55Z</time>
      </trkpt>
      <trkpt lat="44.74015" lon="6.85373">
        <ele>2171</ele>
        <time>2026-03-23T09:42:56Z</time>
      </trkpt>
      <trkpt lat="44.74016" lon="6.85375">
        <ele>2171</ele>
        <time>2026-03-23T09:42:57Z</time>
      </trkpt>
      <trkpt lat="44.74017" lon="6.85376">
        <ele>2171.9</ele>
        <time>2026-03-23T09:42:58Z</time>
      </trkpt>
      <trkpt lat="44.74017" lon="6.85378">
        <ele>2171.9</ele>
        <time>2026-03-23T09:42:59Z</time>
      </trkpt>
      <trkpt lat="44.74018" lon="6.85379">
        <ele>2172</ele>
        <time>2026-03-23T09:43:00Z</time>
      </trkpt>
      <trkpt lat="44.74019" lon="6.85381">
        <ele>2172.9</ele>
        <time>2026-03-23T09:43:01Z</time>
      </trkpt>
      <trkpt lat="44.74019" lon="6.85382">
        <ele>2172.9</ele>
        <time>2026-03-23T09:43:02Z</time>
      </trkpt>
      <trkpt lat="44.7402" lon="6.85383">
        <ele>2172.9</ele>
        <time>2026-03-23T09:43:03Z</time>
      </trkpt>
      <trkpt lat="44.7402" lon="6.85383">
        <ele>2172.9</ele>
        <time>2026-03-23T09:43:04Z</time>
      </trkpt>
      <trkpt lat="44.7402" lon="6.85385">
        <ele>2173.8</ele>
        <time>2026-03-23T09:43:05Z</time>
      </trkpt>
      <trkpt lat="44.74021" lon="6.85385">
        <ele>2173.8</ele>
        <time>2026-03-23T09:43:06Z</time>
      </trkpt>
      <trkpt lat="44.74021" lon="6.85386">
        <ele>2173.8</ele>
        <time>2026-03-23T09:43:07Z</time>
      </trkpt>
      <trkpt lat="44.74021" lon="6.85387">
        <ele>2174</ele>
        <time>2026-03-23T09:43:08Z</time>
      </trkpt>
      <trkpt lat="44.74022" lon="6.85388">
        <ele>2174</ele>
        <time>2026-03-23T09:43:09Z</time>
      </trkpt>
      <trkpt lat="44.74022" lon="6.85388">
        <ele>2175</ele>
        <time>2026-03-23T09:43:10Z</time>
      </trkpt>
      <trkpt lat="44.74022" lon="6.85389">
        <ele>2175</ele>
        <time>2026-03-23T09:43:11Z</time>
      </trkpt>
      <trkpt lat="44.74023" lon="6.8539">
        <ele>2175</ele>
        <time>2026-03-23T09:43:12Z</time>
      </trkpt>
      <trkpt lat="44.74023" lon="6.85391">
        <ele>2175</ele>
        <time>2026-03-23T09:43:13Z</time>
      </trkpt>
      <trkpt lat="44.74023" lon="6.85393">
        <ele>2176</ele>
        <time>2026-03-23T09:43:14Z</time>
      </trkpt>
      <trkpt lat="44.74024" lon="6.85394">
        <ele>2176</ele>
        <time>2026-03-23T09:43:15Z</time>
      </trkpt>
      <trkpt lat="44.74024" lon="6.85395">
        <ele>2176.2</ele>
        <time>2026-03-23T09:43:16Z</time>
      </trkpt>
      <trkpt lat="44.74025" lon="6.85397">
        <ele>2176.2</ele>
        <time>2026-03-23T09:43:17Z</time>
      </trkpt>
      <trkpt lat="44.74025" lon="6.85397">
        <ele>2176.2</ele>
        <time>2026-03-23T09:43:18Z</time>
      </trkpt>
      <trkpt lat="44.74025" lon="6.85398">
        <ele>2177.2</ele>
        <time>2026-03-23T09:43:19Z</time>
      </trkpt>
      <trkpt lat="44.74025" lon="6.854">
        <ele>2177.2</ele>
        <time>2026-03-23T09:43:20Z</time>
      </trkpt>
      <trkpt lat="44.74025" lon="6.85401">
        <ele>2177.2</ele>
        <time>2026-03-23T09:43:21Z</time>
      </trkpt>
      <trkpt lat="44.74025" lon="6.85402">
        <ele>2178.3</ele>
        <time>2026-03-23T09:43:22Z</time>
      </trkpt>
      <trkpt lat="44.74025" lon="6.85403">
        <ele>2178.3</ele>
        <time>2026-03-23T09:43:23Z</time>
      </trkpt>
      <trkpt lat="44.74025" lon="6.85405">
        <ele>2178.3</ele>
        <time>2026-03-23T09:43:24Z</time>
      </trkpt>
      <trkpt lat="44.74025" lon="6.85405">
        <ele>2179.3</ele>
        <time>2026-03-23T09:43:25Z</time>
      </trkpt>
      <trkpt lat="44.74025" lon="6.85407">
        <ele>2179.3</ele>
        <time>2026-03-23T09:43:26Z</time>
      </trkpt>
      <trkpt lat="44.74025" lon="6.85408">
        <ele>2179.3</ele>
        <time>2026-03-23T09:43:27Z</time>
      </trkpt>
      <trkpt lat="44.74025" lon="6.85409">
        <ele>2179.3</ele>
        <time>2026-03-23T09:43:28Z</time>
      </trkpt>
      <trkpt lat="44.74024" lon="6.8541">
        <ele>2180.3</ele>
        <time>2026-03-23T09:43:29Z</time>
      </trkpt>
      <trkpt lat="44.74024" lon="6.8541">
        <ele>2180.3</ele>
        <time>2026-03-23T09:43:30Z</time>
      </trkpt>
      <trkpt lat="44.74024" lon="6.85412">
        <ele>2180.3</ele>
        <time>2026-03-23T09:43:31Z</time>
      </trkpt>
      <trkpt lat="44.74024" lon="6.85413">
        <ele>2180</ele>
        <time>2026-03-23T09:43:32Z</time>
      </trkpt>
      <trkpt lat="44.74023" lon="6.85414">
        <ele>2180.9</ele>
        <time>2026-03-23T09:43:33Z</time>
      </trkpt>
      <trkpt lat="44.74023" lon="6.85415">
        <ele>2180.9</ele>
        <time>2026-03-23T09:43:34Z</time>
      </trkpt>
      <trkpt lat="44.74023" lon="6.85416">
        <ele>2180.9</ele>
        <time>2026-03-23T09:43:35Z</time>
      </trkpt>
      <trkpt lat="44.74023" lon="6.85417">
        <ele>2180.9</ele>
        <time>2026-03-23T09:43:36Z</time>
      </trkpt>
      <trkpt lat="44.74023" lon="6.85418">
        <ele>2180.9</ele>
        <time>2026-03-23T09:43:37Z</time>
      </trkpt>
      <trkpt lat="44.74022" lon="6.85419">
        <ele>2181.9</ele>
        <time>2026-03-23T09:43:38Z</time>
      </trkpt>
      <trkpt lat="44.74022" lon="6.8542">
        <ele>2181.9</ele>
        <time>2026-03-23T09:43:39Z</time>
      </trkpt>
      <trkpt lat="44.74022" lon="6.85421">
        <ele>2181.9</ele>
        <time>2026-03-23T09:43:40Z</time>
      </trkpt>
      <trkpt lat="44.74022" lon="6.85422">
        <ele>2181.9</ele>
        <time>2026-03-23T09:43:41Z</time>
      </trkpt>
      <trkpt lat="44.74022" lon="6.85422">
        <ele>2181.9</ele>
        <time>2026-03-23T09:43:42Z</time>
      </trkpt>
      <trkpt lat="44.74022" lon="6.85424">
        <ele>2182.8</ele>
        <time>2026-03-23T09:43:44Z</time>
      </trkpt>
      <trkpt lat="44.74022" lon="6.85425">
        <ele>2182.8</ele>
        <time>2026-03-23T09:43:45Z</time>
      </trkpt>
      <trkpt lat="44.74022" lon="6.85426">
        <ele>2182.8</ele>
        <time>2026-03-23T09:43:46Z</time>
      </trkpt>
      <trkpt lat="44.74022" lon="6.85427">
        <ele>2183.7</ele>
        <time>2026-03-23T09:43:47Z</time>
      </trkpt>
      <trkpt lat="44.74022" lon="6.85428">
        <ele>2183.7</ele>
        <time>2026-03-23T09:43:48Z</time>
      </trkpt>
      <trkpt lat="44.74022" lon="6.85428">
        <ele>2183.7</ele>
        <time>2026-03-23T09:43:49Z</time>
      </trkpt>
      <trkpt lat="44.74022" lon="6.85429">
        <ele>2183.7</ele>
        <time>2026-03-23T09:43:50Z</time>
      </trkpt>
      <trkpt lat="44.74022" lon="6.85429">
        <ele>2183.7</ele>
        <time>2026-03-23T09:43:51Z</time>
      </trkpt>
      <trkpt lat="44.74022" lon="6.85431">
        <ele>2183.7</ele>
        <time>2026-03-23T09:43:52Z</time>
      </trkpt>
      <trkpt lat="44.74022" lon="6.85432">
        <ele>2184.6</ele>
        <time>2026-03-23T09:43:53Z</time>
      </trkpt>
      <trkpt lat="44.74022" lon="6.85432">
        <ele>2184.6</ele>
        <time>2026-03-23T09:43:54Z</time>
      </trkpt>
      <trkpt lat="44.74022" lon="6.85434">
        <ele>2184.6</ele>
        <time>2026-03-23T09:43:55Z</time>
      </trkpt>
      <trkpt lat="44.74022" lon="6.85435">
        <ele>2184.6</ele>
        <time>2026-03-23T09:43:56Z</time>
      </trkpt>
      <trkpt lat="44.74022" lon="6.85436">
        <ele>2185.6</ele>
        <time>2026-03-23T09:43:57Z</time>
      </trkpt>
      <trkpt lat="44.74022" lon="6.85438">
        <ele>2185.6</ele>
        <time>2026-03-23T09:43:58Z</time>
      </trkpt>
      <trkpt lat="44.74022" lon="6.85439">
        <ele>2185.6</ele>
        <time>2026-03-23T09:43:59Z</time>
      </trkpt>
      <trkpt lat="44.74022" lon="6.8544">
        <ele>2186.7</ele>
        <time>2026-03-23T09:44:00Z</time>
      </trkpt>
      <trkpt lat="44.74022" lon="6.85441">
        <ele>2186.7</ele>
        <time>2026-03-23T09:44:01Z</time>
      </trkpt>
      <trkpt lat="44.74021" lon="6.85442">
        <ele>2186.7</ele>
        <time>2026-03-23T09:44:02Z</time>
      </trkpt>
      <trkpt lat="44.74021" lon="6.85444">
        <ele>2186.3</ele>
        <time>2026-03-23T09:44:03Z</time>
      </trkpt>
      <trkpt lat="44.74021" lon="6.85445">
        <ele>2187.4</ele>
        <time>2026-03-23T09:44:04Z</time>
      </trkpt>
      <trkpt lat="44.7402" lon="6.85446">
        <ele>2187.4</ele>
        <time>2026-03-23T09:44:05Z</time>
      </trkpt>
      <trkpt lat="44.7402" lon="6.85447">
        <ele>2187.4</ele>
        <time>2026-03-23T09:44:07Z</time>
      </trkpt>
      <trkpt lat="44.7402" lon="6.85448">
        <ele>2187.4</ele>
        <time>2026-03-23T09:44:08Z</time>
      </trkpt>
      <trkpt lat="44.7402" lon="6.85449">
        <ele>2188.5</ele>
        <time>2026-03-23T09:44:09Z</time>
      </trkpt>
      <trkpt lat="44.7402" lon="6.8545">
        <ele>2188.5</ele>
        <time>2026-03-23T09:44:10Z</time>
      </trkpt>
      <trkpt lat="44.7402" lon="6.85451">
        <ele>2188.5</ele>
        <time>2026-03-23T09:44:11Z</time>
      </trkpt>
      <trkpt lat="44.7402" lon="6.85452">
        <ele>2188.5</ele>
        <time>2026-03-23T09:44:12Z</time>
      </trkpt>
      <trkpt lat="44.7402" lon="6.85453">
        <ele>2189.6</ele>
        <time>2026-03-23T09:44:13Z</time>
      </trkpt>
      <trkpt lat="44.7402" lon="6.85453">
        <ele>2189.6</ele>
        <time>2026-03-23T09:44:14Z</time>
      </trkpt>
      <trkpt lat="44.7402" lon="6.85455">
        <ele>2189.6</ele>
        <time>2026-03-23T09:44:15Z</time>
      </trkpt>
      <trkpt lat="44.7402" lon="6.85456">
        <ele>2189.6</ele>
        <time>2026-03-23T09:44:16Z</time>
      </trkpt>
      <trkpt lat="44.7402" lon="6.85458">
        <ele>2190.6</ele>
        <time>2026-03-23T09:44:17Z</time>
      </trkpt>
      <trkpt lat="44.7402" lon="6.85459">
        <ele>2190.6</ele>
        <time>2026-03-23T09:44:18Z</time>
      </trkpt>
      <trkpt lat="44.7402" lon="6.8546">
        <ele>2190.6</ele>
        <time>2026-03-23T09:44:19Z</time>
      </trkpt>
      <trkpt lat="44.7402" lon="6.85461">
        <ele>2190.6</ele>
        <time>2026-03-23T09:44:20Z</time>
      </trkpt>
      <trkpt lat="44.7402" lon="6.85462">
        <ele>2191.6</ele>
        <time>2026-03-23T09:44:21Z</time>
      </trkpt>
      <trkpt lat="44.7402" lon="6.85463">
        <ele>2191.6</ele>
        <time>2026-03-23T09:44:22Z</time>
      </trkpt>
      <trkpt lat="44.74021" lon="6.85464">
        <ele>2191.6</ele>
        <time>2026-03-23T09:44:23Z</time>
      </trkpt>
      <trkpt lat="44.74021" lon="6.85465">
        <ele>2191.6</ele>
        <time>2026-03-23T09:44:24Z</time>
      </trkpt>
      <trkpt lat="44.74021" lon="6.85466">
        <ele>2192.6</ele>
        <time>2026-03-23T09:44:25Z</time>
      </trkpt>
      <trkpt lat="44.74021" lon="6.85467">
        <ele>2193</ele>
        <time>2026-03-23T09:44:26Z</time>
      </trkpt>
      <trkpt lat="44.74021" lon="6.85467">
        <ele>2193</ele>
        <time>2026-03-23T09:44:27Z</time>
      </trkpt>
      <trkpt lat="44.74022" lon="6.85467">
        <ele>2193</ele>
        <time>2026-03-23T09:44:28Z</time>
      </trkpt>
      <trkpt lat="44.74022" lon="6.85467">
        <ele>2193</ele>
        <time>2026-03-23T09:44:29Z</time>
      </trkpt>
      <trkpt lat="44.74022" lon="6.85467">
        <ele>2193</ele>
        <time>2026-03-23T09:44:30Z</time>
      </trkpt>
      <trkpt lat="44.74022" lon="6.85467">
        <ele>2193</ele>
        <time>2026-03-23T09:44:31Z</time>
      </trkpt>
      <trkpt lat="44.74022" lon="6.85467">
        <ele>2193</ele>
        <time>2026-03-23T09:44:32Z</time>
      </trkpt>
      <trkpt lat="44.74022" lon="6.85467">
        <ele>2193</ele>
        <time>2026-03-23T09:44:33Z</time>
      </trkpt>
      <trkpt lat="44.74022" lon="6.85467">
        <ele>2193</ele>
        <time>2026-03-23T09:44:34Z</time>
      </trkpt>
      <trkpt lat="44.74022" lon="6.85467">
        <ele>2193</ele>
        <time>2026-03-23T09:44:35Z</time>
      </trkpt>
      <trkpt lat="44.74022" lon="6.85467">
        <ele>2193</ele>
        <time>2026-03-23T09:44:36Z</time>
      </trkpt>
      <trkpt lat="44.74022" lon="6.85467">
        <ele>2193</ele>
        <time>2026-03-23T09:44:37Z</time>
      </trkpt>
      <trkpt lat="44.74022" lon="6.85468">
        <ele>2193</ele>
        <time>2026-03-23T09:44:38Z</time>
      </trkpt>
      <trkpt lat="44.74022" lon="6.85469">
        <ele>2193</ele>
        <time>2026-03-23T09:44:39Z</time>
      </trkpt>
      <trkpt lat="44.74022" lon="6.85469">
        <ele>2193</ele>
        <time>2026-03-23T09:44:40Z</time>
      </trkpt>
      <trkpt lat="44.74022" lon="6.85469">
        <ele>2193</ele>
        <time>2026-03-23T09:44:41Z</time>
      </trkpt>
      <trkpt lat="44.74023" lon="6.85469">
        <ele>2193</ele>
        <time>2026-03-23T09:44:42Z</time>
      </trkpt>
      <trkpt lat="44.74023" lon="6.8547">
        <ele>2194</ele>
        <time>2026-03-23T09:44:43Z</time>
      </trkpt>
      <trkpt lat="44.74023" lon="6.85471">
        <ele>2194</ele>
        <time>2026-03-23T09:44:44Z</time>
      </trkpt>
      <trkpt lat="44.74023" lon="6.85471">
        <ele>2194</ele>
        <time>2026-03-23T09:44:45Z</time>
      </trkpt>
      <trkpt lat="44.74023" lon="6.85471">
        <ele>2194</ele>
        <time>2026-03-23T09:44:46Z</time>
      </trkpt>
      <trkpt lat="44.74023" lon="6.85472">
        <ele>2194</ele>
        <time>2026-03-23T09:44:48Z</time>
      </trkpt>
      <trkpt lat="44.74023" lon="6.85472">
        <ele>2194</ele>
        <time>2026-03-23T09:44:49Z</time>
      </trkpt>
      <trkpt lat="44.74022" lon="6.85472">
        <ele>2194</ele>
        <time>2026-03-23T09:44:50Z</time>
      </trkpt>
      <trkpt lat="44.74022" lon="6.85472">
        <ele>2194</ele>
        <time>2026-03-23T09:44:51Z</time>
      </trkpt>
      <trkpt lat="44.74022" lon="6.85473">
        <ele>2194</ele>
        <time>2026-03-23T09:44:52Z</time>
      </trkpt>
      <trkpt lat="44.74022" lon="6.85473">
        <ele>2194</ele>
        <time>2026-03-23T09:44:53Z</time>
      </trkpt>
      <trkpt lat="44.74022" lon="6.85473">
        <ele>2194</ele>
        <time>2026-03-23T09:44:54Z</time>
      </trkpt>
      <trkpt lat="44.74022" lon="6.85474">
        <ele>2194</ele>
        <time>2026-03-23T09:44:55Z</time>
      </trkpt>
      <trkpt lat="44.74022" lon="6.85474">
        <ele>2194</ele>
        <time>2026-03-23T09:44:56Z</time>
      </trkpt>
      <trkpt lat="44.74022" lon="6.85474">
        <ele>2195</ele>
        <time>2026-03-23T09:44:57Z</time>
      </trkpt>
      <trkpt lat="44.74022" lon="6.85474">
        <ele>2195</ele>
        <time>2026-03-23T09:44:58Z</time>
      </trkpt>
      <trkpt lat="44.74022" lon="6.85475">
        <ele>2195</ele>
        <time>2026-03-23T09:44:59Z</time>
      </trkpt>
      <trkpt lat="44.74022" lon="6.85475">
        <ele>2195</ele>
        <time>2026-03-23T09:45:00Z</time>
      </trkpt>
      <trkpt lat="44.74022" lon="6.85475">
        <ele>2195</ele>
        <time>2026-03-23T09:45:01Z</time>
      </trkpt>
      <trkpt lat="44.74021" lon="6.85479">
        <ele>2195.8</ele>
        <time>2026-03-23T09:45:02Z</time>
      </trkpt>
      <trkpt lat="44.7402" lon="6.85481">
        <ele>2195.8</ele>
        <time>2026-03-23T09:45:03Z</time>
      </trkpt>
      <trkpt lat="44.7402" lon="6.85482">
        <ele>2195.8</ele>
        <time>2026-03-23T09:45:04Z</time>
      </trkpt>
      <trkpt lat="44.7402" lon="6.85482">
        <ele>2195.8</ele>
        <time>2026-03-23T09:45:05Z</time>
      </trkpt>
      <trkpt lat="44.7402" lon="6.85482">
        <ele>2195.8</ele>
        <time>2026-03-23T09:45:06Z</time>
      </trkpt>
      <trkpt lat="44.7402" lon="6.85482">
        <ele>2195.8</ele>
        <time>2026-03-23T09:45:07Z</time>
      </trkpt>
      <trkpt lat="44.7402" lon="6.85482">
        <ele>2195.8</ele>
        <time>2026-03-23T09:45:08Z</time>
      </trkpt>
      <trkpt lat="44.7402" lon="6.85482">
        <ele>2195.8</ele>
        <time>2026-03-23T09:45:09Z</time>
      </trkpt>
      <trkpt lat="44.7402" lon="6.85482">
        <ele>2195.8</ele>
        <time>2026-03-23T09:45:10Z</time>
      </trkpt>
      <trkpt lat="44.7402" lon="6.85482">
        <ele>2195.8</ele>
        <time>2026-03-23T09:45:11Z</time>
      </trkpt>
      <trkpt lat="44.7402" lon="6.85483">
        <ele>2196.8</ele>
        <time>2026-03-23T09:45:12Z</time>
      </trkpt>
      <trkpt lat="44.7402" lon="6.85483">
        <ele>2196.8</ele>
        <time>2026-03-23T09:45:13Z</time>
      </trkpt>
      <trkpt lat="44.7402" lon="6.85482">
        <ele>2195.8</ele>
        <time>2026-03-23T09:45:14Z</time>
      </trkpt>
      <trkpt lat="44.7402" lon="6.85482">
        <ele>2195.8</ele>
        <time>2026-03-23T09:45:15Z</time>
      </trkpt>
      <trkpt lat="44.7402" lon="6.85482">
        <ele>2195.8</ele>
        <time>2026-03-23T09:45:16Z</time>
      </trkpt>
      <trkpt lat="44.7402" lon="6.85482">
        <ele>2195.8</ele>
        <time>2026-03-23T09:45:17Z</time>
      </trkpt>
      <trkpt lat="44.7402" lon="6.85481">
        <ele>2195.7</ele>
        <time>2026-03-23T09:45:18Z</time>
      </trkpt>
      <trkpt lat="44.7402" lon="6.85481">
        <ele>2195.7</ele>
        <time>2026-03-23T09:45:19Z</time>
      </trkpt>
      <trkpt lat="44.7402" lon="6.85481">
        <ele>2195.7</ele>
        <time>2026-03-23T09:45:20Z</time>
      </trkpt>
      <trkpt lat="44.74021" lon="6.85481">
        <ele>2195.7</ele>
        <time>2026-03-23T09:45:21Z</time>
      </trkpt>
      <trkpt lat="44.74021" lon="6.8548">
        <ele>2195.7</ele>
        <time>2026-03-23T09:45:22Z</time>
      </trkpt>
      <trkpt lat="44.74021" lon="6.8548">
        <ele>2195.7</ele>
        <time>2026-03-23T09:45:23Z</time>
      </trkpt>
      <trkpt lat="44.74021" lon="6.8548">
        <ele>2195.7</ele>
        <time>2026-03-23T09:45:24Z</time>
      </trkpt>
      <trkpt lat="44.74021" lon="6.8548">
        <ele>2195.7</ele>
        <time>2026-03-23T09:45:26Z</time>
      </trkpt>
      <trkpt lat="44.74021" lon="6.85479">
        <ele>2195.7</ele>
        <time>2026-03-23T09:45:27Z</time>
      </trkpt>
      <trkpt lat="44.74021" lon="6.85479">
        <ele>2195.7</ele>
        <time>2026-03-23T09:45:28Z</time>
      </trkpt>
      <trkpt lat="44.74021" lon="6.85479">
        <ele>2195.7</ele>
        <time>2026-03-23T09:45:29Z</time>
      </trkpt>
      <trkpt lat="44.74021" lon="6.85479">
        <ele>2195.7</ele>
        <time>2026-03-23T09:45:30Z</time>
      </trkpt>
      <trkpt lat="44.74021" lon="6.85478">
        <ele>2194.7</ele>
        <time>2026-03-23T09:45:31Z</time>
      </trkpt>
      <trkpt lat="44.74021" lon="6.85478">
        <ele>2194.7</ele>
        <time>2026-03-23T09:45:32Z</time>
      </trkpt>
      <trkpt lat="44.74021" lon="6.85478">
        <ele>2194.7</ele>
        <time>2026-03-23T09:45:33Z</time>
      </trkpt>
      <trkpt lat="44.74021" lon="6.85477">
        <ele>2194.7</ele>
        <time>2026-03-23T09:45:34Z</time>
      </trkpt>
      <trkpt lat="44.74021" lon="6.85477">
        <ele>2194.7</ele>
        <time>2026-03-23T09:45:35Z</time>
      </trkpt>
      <trkpt lat="44.74021" lon="6.85477">
        <ele>2194.7</ele>
        <time>2026-03-23T09:45:36Z</time>
      </trkpt>
      <trkpt lat="44.7402" lon="6.85473">
        <ele>2193.6</ele>
        <time>2026-03-23T09:45:37Z</time>
      </trkpt>
      <trkpt lat="44.74019" lon="6.85472">
        <ele>2193.6</ele>
        <time>2026-03-23T09:45:38Z</time>
      </trkpt>
      <trkpt lat="44.74018" lon="6.8547">
        <ele>2193.6</ele>
        <time>2026-03-23T09:45:39Z</time>
      </trkpt>
      <trkpt lat="44.74017" lon="6.85467">
        <ele>2192.2</ele>
        <time>2026-03-23T09:45:40Z</time>
      </trkpt>
      <trkpt lat="44.74017" lon="6.85466">
        <ele>2192.2</ele>
        <time>2026-03-23T09:45:41Z</time>
      </trkpt>
      <trkpt lat="44.74016" lon="6.85464">
        <ele>2191.2</ele>
        <time>2026-03-23T09:45:42Z</time>
      </trkpt>
      <trkpt lat="44.74015" lon="6.85463">
        <ele>2191.2</ele>
        <time>2026-03-23T09:45:43Z</time>
      </trkpt>
      <trkpt lat="44.74015" lon="6.85462">
        <ele>2191.2</ele>
        <time>2026-03-23T09:45:44Z</time>
      </trkpt>
      <trkpt lat="44.74015" lon="6.85462">
        <ele>2191.2</ele>
        <time>2026-03-23T09:45:45Z</time>
      </trkpt>
      <trkpt lat="44.74015" lon="6.85462">
        <ele>2191.2</ele>
        <time>2026-03-23T09:45:46Z</time>
      </trkpt>
      <trkpt lat="44.74015" lon="6.85462">
        <ele>2191.2</ele>
        <time>2026-03-23T09:45:47Z</time>
      </trkpt>
      <trkpt lat="44.74015" lon="6.85462">
        <ele>2191.2</ele>
        <time>2026-03-23T09:45:48Z</time>
      </trkpt>
      <trkpt lat="44.74015" lon="6.85461">
        <ele>2189.9</ele>
        <time>2026-03-23T09:45:49Z</time>
      </trkpt>
      <trkpt lat="44.74014" lon="6.85459">
        <ele>2189.9</ele>
        <time>2026-03-23T09:45:50Z</time>
      </trkpt>
      <trkpt lat="44.74014" lon="6.85458">
        <ele>2189.9</ele>
        <time>2026-03-23T09:45:51Z</time>
      </trkpt>
      <trkpt lat="44.74014" lon="6.85458">
        <ele>2189.9</ele>
        <time>2026-03-23T09:45:52Z</time>
      </trkpt>
      <trkpt lat="44.74014" lon="6.85457">
        <ele>2189.9</ele>
        <time>2026-03-23T09:45:53Z</time>
      </trkpt>
      <trkpt lat="44.74013" lon="6.85457">
        <ele>2189.9</ele>
        <time>2026-03-23T09:45:54Z</time>
      </trkpt>
      <trkpt lat="44.74013" lon="6.85457">
        <ele>2188.8</ele>
        <time>2026-03-23T09:45:55Z</time>
      </trkpt>
      <trkpt lat="44.74013" lon="6.85456">
        <ele>2188.8</ele>
        <time>2026-03-23T09:45:56Z</time>
      </trkpt>
      <trkpt lat="44.74013" lon="6.85456">
        <ele>2188.8</ele>
        <time>2026-03-23T09:45:57Z</time>
      </trkpt>
      <trkpt lat="44.74013" lon="6.85455">
        <ele>2188.8</ele>
        <time>2026-03-23T09:45:58Z</time>
      </trkpt>
      <trkpt lat="44.74013" lon="6.85455">
        <ele>2188.8</ele>
        <time>2026-03-23T09:45:59Z</time>
      </trkpt>
      <trkpt lat="44.74012" lon="6.85454">
        <ele>2188.8</ele>
        <time>2026-03-23T09:46:00Z</time>
      </trkpt>
      <trkpt lat="44.74012" lon="6.85453">
        <ele>2188.5</ele>
        <time>2026-03-23T09:46:01Z</time>
      </trkpt>
      <trkpt lat="44.74012" lon="6.85453">
        <ele>2188.5</ele>
        <time>2026-03-23T09:46:02Z</time>
      </trkpt>
      <trkpt lat="44.74012" lon="6.85453">
        <ele>2188.5</ele>
        <time>2026-03-23T09:46:03Z</time>
      </trkpt>
      <trkpt lat="44.74012" lon="6.85453">
        <ele>2188.5</ele>
        <time>2026-03-23T09:46:04Z</time>
      </trkpt>
      <trkpt lat="44.74011" lon="6.85452">
        <ele>2187.4</ele>
        <time>2026-03-23T09:46:05Z</time>
      </trkpt>
      <trkpt lat="44.74011" lon="6.85452">
        <ele>2187.4</ele>
        <time>2026-03-23T09:46:06Z</time>
      </trkpt>
      <trkpt lat="44.7401" lon="6.85451">
        <ele>2187.4</ele>
        <time>2026-03-23T09:46:07Z</time>
      </trkpt>
      <trkpt lat="44.7401" lon="6.8545">
        <ele>2187.4</ele>
        <time>2026-03-23T09:46:08Z</time>
      </trkpt>
      <trkpt lat="44.7401" lon="6.8545">
        <ele>2187.4</ele>
        <time>2026-03-23T09:46:09Z</time>
      </trkpt>
      <trkpt lat="44.7401" lon="6.8545">
        <ele>2187.4</ele>
        <time>2026-03-23T09:46:10Z</time>
      </trkpt>
      <trkpt lat="44.7401" lon="6.8545">
        <ele>2187.4</ele>
        <time>2026-03-23T09:46:11Z</time>
      </trkpt>
      <trkpt lat="44.7401" lon="6.8545">
        <ele>2187.4</ele>
        <time>2026-03-23T09:46:12Z</time>
      </trkpt>
      <trkpt lat="44.74009" lon="6.8545">
        <ele>2187.4</ele>
        <time>2026-03-23T09:46:13Z</time>
      </trkpt>
      <trkpt lat="44.74009" lon="6.85449">
        <ele>2187.4</ele>
        <time>2026-03-23T09:46:14Z</time>
      </trkpt>
      <trkpt lat="44.74009" lon="6.85449">
        <ele>2187.4</ele>
        <time>2026-03-23T09:46:15Z</time>
      </trkpt>
      <trkpt lat="44.74009" lon="6.85449">
        <ele>2187.4</ele>
        <time>2026-03-23T09:46:16Z</time>
      </trkpt>
      <trkpt lat="44.74009" lon="6.85449">
        <ele>2187.4</ele>
        <time>2026-03-23T09:46:17Z</time>
      </trkpt>
      <trkpt lat="44.74009" lon="6.85449">
        <ele>2187.4</ele>
        <time>2026-03-23T09:46:18Z</time>
      </trkpt>
      <trkpt lat="44.74009" lon="6.85449">
        <ele>2187.4</ele>
        <time>2026-03-23T09:46:19Z</time>
      </trkpt>
      <trkpt lat="44.74009" lon="6.85449">
        <ele>2187.4</ele>
        <time>2026-03-23T09:46:20Z</time>
      </trkpt>
      <trkpt lat="44.74009" lon="6.85449">
        <ele>2187.4</ele>
        <time>2026-03-23T09:46:21Z</time>
      </trkpt>
      <trkpt lat="44.74009" lon="6.85449">
        <ele>2187.4</ele>
        <time>2026-03-23T09:46:22Z</time>
      </trkpt>
      <trkpt lat="44.74009" lon="6.85448">
        <ele>2187.1</ele>
        <time>2026-03-23T09:46:23Z</time>
      </trkpt>
      <trkpt lat="44.74008" lon="6.85448">
        <ele>2186</ele>
        <time>2026-03-23T09:46:24Z</time>
      </trkpt>
      <trkpt lat="44.74008" lon="6.85448">
        <ele>2186</ele>
        <time>2026-03-23T09:46:25Z</time>
      </trkpt>
      <trkpt lat="44.74008" lon="6.85448">
        <ele>2186</ele>
        <time>2026-03-23T09:46:26Z</time>
      </trkpt>
      <trkpt lat="44.74008" lon="6.85448">
        <ele>2186</ele>
        <time>2026-03-23T09:46:27Z</time>
      </trkpt>
      <trkpt lat="44.74008" lon="6.85447">
        <ele>2186</ele>
        <time>2026-03-23T09:46:28Z</time>
      </trkpt>
      <trkpt lat="44.74007" lon="6.85446">
        <ele>2186</ele>
        <time>2026-03-23T09:46:29Z</time>
      </trkpt>
      <trkpt lat="44.74007" lon="6.85446">
        <ele>2186</ele>
        <time>2026-03-23T09:46:30Z</time>
      </trkpt>
      <trkpt lat="44.74006" lon="6.85445">
        <ele>2186</ele>
        <time>2026-03-23T09:46:31Z</time>
      </trkpt>
      <trkpt lat="44.74006" lon="6.85445">
        <ele>2185.6</ele>
        <time>2026-03-23T09:46:32Z</time>
      </trkpt>
      <trkpt lat="44.74005" lon="6.85444">
        <ele>2185.6</ele>
        <time>2026-03-23T09:46:33Z</time>
      </trkpt>
      <trkpt lat="44.74004" lon="6.85444">
        <ele>2184.5</ele>
        <time>2026-03-23T09:46:34Z</time>
      </trkpt>
      <trkpt lat="44.74004" lon="6.85443">
        <ele>2184.5</ele>
        <time>2026-03-23T09:46:35Z</time>
      </trkpt>
      <trkpt lat="44.74004" lon="6.85443">
        <ele>2184.5</ele>
        <time>2026-03-23T09:46:36Z</time>
      </trkpt>
      <trkpt lat="44.74004" lon="6.85442">
        <ele>2184.5</ele>
        <time>2026-03-23T09:46:37Z</time>
      </trkpt>
      <trkpt lat="44.74004" lon="6.85442">
        <ele>2184.5</ele>
        <time>2026-03-23T09:46:38Z</time>
      </trkpt>
      <trkpt lat="44.74004" lon="6.85442">
        <ele>2184.5</ele>
        <time>2026-03-23T09:46:39Z</time>
      </trkpt>
      <trkpt lat="44.74003" lon="6.85441">
        <ele>2184.5</ele>
        <time>2026-03-23T09:46:40Z</time>
      </trkpt>
      <trkpt lat="44.74003" lon="6.85441">
        <ele>2184.5</ele>
        <time>2026-03-23T09:46:41Z</time>
      </trkpt>
      <trkpt lat="44.74003" lon="6.85441">
        <ele>2184.5</ele>
        <time>2026-03-23T09:46:42Z</time>
      </trkpt>
      <trkpt lat="44.74003" lon="6.85441">
        <ele>2184.5</ele>
        <time>2026-03-23T09:46:43Z</time>
      </trkpt>
      <trkpt lat="44.74003" lon="6.8544">
        <ele>2184.5</ele>
        <time>2026-03-23T09:46:44Z</time>
      </trkpt>
      <trkpt lat="44.74003" lon="6.8544">
        <ele>2184.1</ele>
        <time>2026-03-23T09:46:45Z</time>
      </trkpt>
      <trkpt lat="44.74002" lon="6.85439">
        <ele>2183</ele>
        <time>2026-03-23T09:46:46Z</time>
      </trkpt>
      <trkpt lat="44.74002" lon="6.85439">
        <ele>2183</ele>
        <time>2026-03-23T09:46:47Z</time>
      </trkpt>
      <trkpt lat="44.74002" lon="6.85439">
        <ele>2183</ele>
        <time>2026-03-23T09:46:48Z</time>
      </trkpt>
      <trkpt lat="44.74002" lon="6.85438">
        <ele>2183</ele>
        <time>2026-03-23T09:46:49Z</time>
      </trkpt>
      <trkpt lat="44.74001" lon="6.85438">
        <ele>2183</ele>
        <time>2026-03-23T09:46:50Z</time>
      </trkpt>
      <trkpt lat="44.74001" lon="6.85438">
        <ele>2183</ele>
        <time>2026-03-23T09:46:51Z</time>
      </trkpt>
      <trkpt lat="44.74001" lon="6.85438">
        <ele>2183</ele>
        <time>2026-03-23T09:46:52Z</time>
      </trkpt>
      <trkpt lat="44.74001" lon="6.85438">
        <ele>2183</ele>
        <time>2026-03-23T09:46:53Z</time>
      </trkpt>
      <trkpt lat="44.74001" lon="6.85438">
        <ele>2183</ele>
        <time>2026-03-23T09:46:54Z</time>
      </trkpt>
      <trkpt lat="44.74001" lon="6.85438">
        <ele>2183</ele>
        <time>2026-03-23T09:46:55Z</time>
      </trkpt>
      <trkpt lat="44.74001" lon="6.85437">
        <ele>2183</ele>
        <time>2026-03-23T09:46:56Z</time>
      </trkpt>
      <trkpt lat="44.74" lon="6.85436">
        <ele>2183</ele>
        <time>2026-03-23T09:46:57Z</time>
      </trkpt>
      <trkpt lat="44.74" lon="6.85436">
        <ele>2183</ele>
        <time>2026-03-23T09:46:58Z</time>
      </trkpt>
      <trkpt lat="44.74" lon="6.85435">
        <ele>2183</ele>
        <time>2026-03-23T09:46:59Z</time>
      </trkpt>
      <trkpt lat="44.74" lon="6.85435">
        <ele>2183</ele>
        <time>2026-03-23T09:47:00Z</time>
      </trkpt>
      <trkpt lat="44.74" lon="6.85435">
        <ele>2181.6</ele>
        <time>2026-03-23T09:47:01Z</time>
      </trkpt>
      <trkpt lat="44.73999" lon="6.85435">
        <ele>2181.6</ele>
        <time>2026-03-23T09:47:02Z</time>
      </trkpt>
      <trkpt lat="44.73999" lon="6.85434">
        <ele>2181.6</ele>
        <time>2026-03-23T09:47:03Z</time>
      </trkpt>
      <trkpt lat="44.73998" lon="6.85433">
        <ele>2181.6</ele>
        <time>2026-03-23T09:47:04Z</time>
      </trkpt>
      <trkpt lat="44.73997" lon="6.85432">
        <ele>2181.6</ele>
        <time>2026-03-23T09:47:05Z</time>
      </trkpt>
      <trkpt lat="44.73997" lon="6.85431">
        <ele>2181.6</ele>
        <time>2026-03-23T09:47:06Z</time>
      </trkpt>
      <trkpt lat="44.73997" lon="6.85431">
        <ele>2181.6</ele>
        <time>2026-03-23T09:47:07Z</time>
      </trkpt>
      <trkpt lat="44.73997" lon="6.85431">
        <ele>2180.7</ele>
        <time>2026-03-23T09:47:08Z</time>
      </trkpt>
      <trkpt lat="44.73997" lon="6.85431">
        <ele>2180.7</ele>
        <time>2026-03-23T09:47:09Z</time>
      </trkpt>
      <trkpt lat="44.73997" lon="6.8543">
        <ele>2180.7</ele>
        <time>2026-03-23T09:47:10Z</time>
      </trkpt>
      <trkpt lat="44.73997" lon="6.8543">
        <ele>2180.3</ele>
        <time>2026-03-23T09:47:11Z</time>
      </trkpt>
      <trkpt lat="44.73997" lon="6.8543">
        <ele>2180.3</ele>
        <time>2026-03-23T09:47:12Z</time>
      </trkpt>
      <trkpt lat="44.73996" lon="6.85429">
        <ele>2180.3</ele>
        <time>2026-03-23T09:47:13Z</time>
      </trkpt>
      <trkpt lat="44.73996" lon="6.85429">
        <ele>2180.3</ele>
        <time>2026-03-23T09:47:14Z</time>
      </trkpt>
      <trkpt lat="44.73996" lon="6.85429">
        <ele>2180.3</ele>
        <time>2026-03-23T09:47:15Z</time>
      </trkpt>
      <trkpt lat="44.73996" lon="6.85429">
        <ele>2180.3</ele>
        <time>2026-03-23T09:47:16Z</time>
      </trkpt>
      <trkpt lat="44.73996" lon="6.85429">
        <ele>2180.3</ele>
        <time>2026-03-23T09:47:17Z</time>
      </trkpt>
      <trkpt lat="44.73996" lon="6.85429">
        <ele>2180.3</ele>
        <time>2026-03-23T09:47:18Z</time>
      </trkpt>
      <trkpt lat="44.73996" lon="6.85429">
        <ele>2180.3</ele>
        <time>2026-03-23T09:47:19Z</time>
      </trkpt>
      <trkpt lat="44.73996" lon="6.85429">
        <ele>2180.3</ele>
        <time>2026-03-23T09:47:20Z</time>
      </trkpt>
      <trkpt lat="44.73996" lon="6.85428">
        <ele>2180.3</ele>
        <time>2026-03-23T09:47:21Z</time>
      </trkpt>
      <trkpt lat="44.73996" lon="6.85428">
        <ele>2180.3</ele>
        <time>2026-03-23T09:47:22Z</time>
      </trkpt>
      <trkpt lat="44.73995" lon="6.85428">
        <ele>2180.3</ele>
        <time>2026-03-23T09:47:23Z</time>
      </trkpt>
      <trkpt lat="44.73995" lon="6.85428">
        <ele>2180.3</ele>
        <time>2026-03-23T09:47:24Z</time>
      </trkpt>
      <trkpt lat="44.73995" lon="6.85428">
        <ele>2180.3</ele>
        <time>2026-03-23T09:47:25Z</time>
      </trkpt>
      <trkpt lat="44.73995" lon="6.85428">
        <ele>2180.3</ele>
        <time>2026-03-23T09:47:26Z</time>
      </trkpt>
      <trkpt lat="44.73995" lon="6.85428">
        <ele>2180.3</ele>
        <time>2026-03-23T09:47:27Z</time>
      </trkpt>
      <trkpt lat="44.73995" lon="6.85428">
        <ele>2180.3</ele>
        <time>2026-03-23T09:47:28Z</time>
      </trkpt>
      <trkpt lat="44.73995" lon="6.85428">
        <ele>2180.3</ele>
        <time>2026-03-23T09:47:29Z</time>
      </trkpt>
      <trkpt lat="44.73995" lon="6.85428">
        <ele>2180.3</ele>
        <time>2026-03-23T09:47:30Z</time>
      </trkpt>
      <trkpt lat="44.73995" lon="6.85427">
        <ele>2180.3</ele>
        <time>2026-03-23T09:47:31Z</time>
      </trkpt>
      <trkpt lat="44.73995" lon="6.85427">
        <ele>2180.3</ele>
        <time>2026-03-23T09:47:32Z</time>
      </trkpt>
      <trkpt lat="44.73995" lon="6.85427">
        <ele>2180.3</ele>
        <time>2026-03-23T09:47:33Z</time>
      </trkpt>
      <trkpt lat="44.73995" lon="6.85426">
        <ele>2179.4</ele>
        <time>2026-03-23T09:47:34Z</time>
      </trkpt>
      <trkpt lat="44.73995" lon="6.85426">
        <ele>2179.4</ele>
        <time>2026-03-23T09:47:35Z</time>
      </trkpt>
      <trkpt lat="44.73995" lon="6.85426">
        <ele>2179.4</ele>
        <time>2026-03-23T09:47:36Z</time>
      </trkpt>
      <trkpt lat="44.73995" lon="6.85426">
        <ele>2179.4</ele>
        <time>2026-03-23T09:47:37Z</time>
      </trkpt>
      <trkpt lat="44.73995" lon="6.85426">
        <ele>2179.4</ele>
        <time>2026-03-23T09:47:38Z</time>
      </trkpt>
      <trkpt lat="44.73995" lon="6.85426">
        <ele>2179.4</ele>
        <time>2026-03-23T09:47:39Z</time>
      </trkpt>
      <trkpt lat="44.73995" lon="6.85426">
        <ele>2179.4</ele>
        <time>2026-03-23T09:47:40Z</time>
      </trkpt>
      <trkpt lat="44.73995" lon="6.85426">
        <ele>2179.4</ele>
        <time>2026-03-23T09:47:41Z</time>
      </trkpt>
      <trkpt lat="44.73995" lon="6.85426">
        <ele>2179.4</ele>
        <time>2026-03-23T09:47:42Z</time>
      </trkpt>
      <trkpt lat="44.73994" lon="6.85426">
        <ele>2179.4</ele>
        <time>2026-03-23T09:47:43Z</time>
      </trkpt>
      <trkpt lat="44.73994" lon="6.85425">
        <ele>2179.4</ele>
        <time>2026-03-23T09:47:44Z</time>
      </trkpt>
      <trkpt lat="44.73994" lon="6.85425">
        <ele>2179.4</ele>
        <time>2026-03-23T09:47:45Z</time>
      </trkpt>
      <trkpt lat="44.73994" lon="6.85425">
        <ele>2179.4</ele>
        <time>2026-03-23T09:47:46Z</time>
      </trkpt>
      <trkpt lat="44.73994" lon="6.85425">
        <ele>2179.4</ele>
        <time>2026-03-23T09:47:47Z</time>
      </trkpt>
      <trkpt lat="44.73994" lon="6.85425">
        <ele>2179.4</ele>
        <time>2026-03-23T09:47:48Z</time>
      </trkpt>
      <trkpt lat="44.73994" lon="6.85424">
        <ele>2179.4</ele>
        <time>2026-03-23T09:47:49Z</time>
      </trkpt>
      <trkpt lat="44.73993" lon="6.85424">
        <ele>2179</ele>
        <time>2026-03-23T09:47:50Z</time>
      </trkpt>
      <trkpt lat="44.73993" lon="6.85424">
        <ele>2179</ele>
        <time>2026-03-23T09:47:51Z</time>
      </trkpt>
      <trkpt lat="44.73993" lon="6.85424">
        <ele>2179</ele>
        <time>2026-03-23T09:47:52Z</time>
      </trkpt>
      <trkpt lat="44.73993" lon="6.85424">
        <ele>2179</ele>
        <time>2026-03-23T09:47:53Z</time>
      </trkpt>
      <trkpt lat="44.73993" lon="6.85424">
        <ele>2179</ele>
        <time>2026-03-23T09:47:54Z</time>
      </trkpt>
      <trkpt lat="44.73993" lon="6.85424">
        <ele>2179</ele>
        <time>2026-03-23T09:47:55Z</time>
      </trkpt>
      <trkpt lat="44.73993" lon="6.85423">
        <ele>2179</ele>
        <time>2026-03-23T09:47:56Z</time>
      </trkpt>
      <trkpt lat="44.73993" lon="6.85423">
        <ele>2179</ele>
        <time>2026-03-23T09:47:57Z</time>
      </trkpt>
      <trkpt lat="44.73992" lon="6.85421">
        <ele>2178.2</ele>
        <time>2026-03-23T09:47:58Z</time>
      </trkpt>
      <trkpt lat="44.73991" lon="6.8542">
        <ele>2178.2</ele>
        <time>2026-03-23T09:47:59Z</time>
      </trkpt>
      <trkpt lat="44.73991" lon="6.8542">
        <ele>2178.2</ele>
        <time>2026-03-23T09:48:00Z</time>
      </trkpt>
      <trkpt lat="44.73991" lon="6.8542">
        <ele>2178.2</ele>
        <time>2026-03-23T09:48:01Z</time>
      </trkpt>
      <trkpt lat="44.73991" lon="6.85419">
        <ele>2178.2</ele>
        <time>2026-03-23T09:48:02Z</time>
      </trkpt>
      <trkpt lat="44.73991" lon="6.85419">
        <ele>2178.2</ele>
        <time>2026-03-23T09:48:03Z</time>
      </trkpt>
      <trkpt lat="44.73991" lon="6.85419">
        <ele>2178.2</ele>
        <time>2026-03-23T09:48:04Z</time>
      </trkpt>
      <trkpt lat="44.73991" lon="6.85419">
        <ele>2178.2</ele>
        <time>2026-03-23T09:48:05Z</time>
      </trkpt>
      <trkpt lat="44.73991" lon="6.85419">
        <ele>2178.2</ele>
        <time>2026-03-23T09:48:06Z</time>
      </trkpt>
      <trkpt lat="44.7399" lon="6.85418">
        <ele>2177</ele>
        <time>2026-03-23T09:48:07Z</time>
      </trkpt>
      <trkpt lat="44.7399" lon="6.85417">
        <ele>2177</ele>
        <time>2026-03-23T09:48:08Z</time>
      </trkpt>
      <trkpt lat="44.7399" lon="6.85416">
        <ele>2177</ele>
        <time>2026-03-23T09:48:09Z</time>
      </trkpt>
      <trkpt lat="44.73989" lon="6.85415">
        <ele>2177</ele>
        <time>2026-03-23T09:48:10Z</time>
      </trkpt>
      <trkpt lat="44.73989" lon="6.85414">
        <ele>2176.2</ele>
        <time>2026-03-23T09:48:11Z</time>
      </trkpt>
      <trkpt lat="44.73989" lon="6.85413">
        <ele>2176.2</ele>
        <time>2026-03-23T09:48:12Z</time>
      </trkpt>
      <trkpt lat="44.73989" lon="6.85413">
        <ele>2176.2</ele>
        <time>2026-03-23T09:48:13Z</time>
      </trkpt>
      <trkpt lat="44.73989" lon="6.85413">
        <ele>2176.2</ele>
        <time>2026-03-23T09:48:14Z</time>
      </trkpt>
      <trkpt lat="44.73989" lon="6.85413">
        <ele>2176.2</ele>
        <time>2026-03-23T09:48:15Z</time>
      </trkpt>
      <trkpt lat="44.73989" lon="6.85413">
        <ele>2176.2</ele>
        <time>2026-03-23T09:48:16Z</time>
      </trkpt>
      <trkpt lat="44.73989" lon="6.85413">
        <ele>2176.2</ele>
        <time>2026-03-23T09:48:17Z</time>
      </trkpt>
      <trkpt lat="44.73989" lon="6.85413">
        <ele>2176.2</ele>
        <time>2026-03-23T09:48:18Z</time>
      </trkpt>
      <trkpt lat="44.73988" lon="6.85413">
        <ele>2176.2</ele>
        <time>2026-03-23T09:48:19Z</time>
      </trkpt>
      <trkpt lat="44.73989" lon="6.85413">
        <ele>2176.2</ele>
        <time>2026-03-23T09:48:20Z</time>
      </trkpt>
      <trkpt lat="44.73989" lon="6.85413">
        <ele>2176.2</ele>
        <time>2026-03-23T09:48:21Z</time>
      </trkpt>
      <trkpt lat="44.73988" lon="6.85413">
        <ele>2176.2</ele>
        <time>2026-03-23T09:48:22Z</time>
      </trkpt>
      <trkpt lat="44.73988" lon="6.85413">
        <ele>2176.2</ele>
        <time>2026-03-23T09:48:23Z</time>
      </trkpt>
      <trkpt lat="44.73989" lon="6.85412">
        <ele>2176.2</ele>
        <time>2026-03-23T09:48:24Z</time>
      </trkpt>
      <trkpt lat="44.73988" lon="6.85412">
        <ele>2176.2</ele>
        <time>2026-03-23T09:48:25Z</time>
      </trkpt>
      <trkpt lat="44.73988" lon="6.85412">
        <ele>2176.2</ele>
        <time>2026-03-23T09:48:26Z</time>
      </trkpt>
      <trkpt lat="44.73988" lon="6.85412">
        <ele>2176.2</ele>
        <time>2026-03-23T09:48:27Z</time>
      </trkpt>
      <trkpt lat="44.73988" lon="6.85411">
        <ele>2176.2</ele>
        <time>2026-03-23T09:48:28Z</time>
      </trkpt>
      <trkpt lat="44.73988" lon="6.85411">
        <ele>2176.2</ele>
        <time>2026-03-23T09:48:29Z</time>
      </trkpt>
      <trkpt lat="44.73988" lon="6.8541">
        <ele>2176.2</ele>
        <time>2026-03-23T09:48:30Z</time>
      </trkpt>
      <trkpt lat="44.73988" lon="6.8541">
        <ele>2176.2</ele>
        <time>2026-03-23T09:48:31Z</time>
      </trkpt>
      <trkpt lat="44.73987" lon="6.85409">
        <ele>2175</ele>
        <time>2026-03-23T09:48:32Z</time>
      </trkpt>
      <trkpt lat="44.73987" lon="6.85409">
        <ele>2175</ele>
        <time>2026-03-23T09:48:33Z</time>
      </trkpt>
      <trkpt lat="44.73987" lon="6.85409">
        <ele>2175</ele>
        <time>2026-03-23T09:48:34Z</time>
      </trkpt>
      <trkpt lat="44.73987" lon="6.85409">
        <ele>2175</ele>
        <time>2026-03-23T09:48:35Z</time>
      </trkpt>
      <trkpt lat="44.73987" lon="6.85409">
        <ele>2175</ele>
        <time>2026-03-23T09:48:36Z</time>
      </trkpt>
      <trkpt lat="44.73987" lon="6.85409">
        <ele>2175</ele>
        <time>2026-03-23T09:48:37Z</time>
      </trkpt>
      <trkpt lat="44.73987" lon="6.85409">
        <ele>2175</ele>
        <time>2026-03-23T09:48:38Z</time>
      </trkpt>
      <trkpt lat="44.73987" lon="6.85409">
        <ele>2175</ele>
        <time>2026-03-23T09:48:39Z</time>
      </trkpt>
      <trkpt lat="44.73987" lon="6.85409">
        <ele>2175</ele>
        <time>2026-03-23T09:48:40Z</time>
      </trkpt>
      <trkpt lat="44.73987" lon="6.85409">
        <ele>2175</ele>
        <time>2026-03-23T09:48:41Z</time>
      </trkpt>
      <trkpt lat="44.73987" lon="6.85408">
        <ele>2175</ele>
        <time>2026-03-23T09:48:42Z</time>
      </trkpt>
      <trkpt lat="44.73987" lon="6.85408">
        <ele>2175</ele>
        <time>2026-03-23T09:48:43Z</time>
      </trkpt>
      <trkpt lat="44.73987" lon="6.85408">
        <ele>2175</ele>
        <time>2026-03-23T09:48:44Z</time>
      </trkpt>
      <trkpt lat="44.73987" lon="6.85408">
        <ele>2175</ele>
        <time>2026-03-23T09:48:45Z</time>
      </trkpt>
      <trkpt lat="44.73987" lon="6.85408">
        <ele>2175</ele>
        <time>2026-03-23T09:48:46Z</time>
      </trkpt>
      <trkpt lat="44.73987" lon="6.85408">
        <ele>2175</ele>
        <time>2026-03-23T09:48:47Z</time>
      </trkpt>
      <trkpt lat="44.73986" lon="6.85406">
        <ele>2175</ele>
        <time>2026-03-23T09:48:48Z</time>
      </trkpt>
      <trkpt lat="44.73986" lon="6.85406">
        <ele>2175</ele>
        <time>2026-03-23T09:48:49Z</time>
      </trkpt>
      <trkpt lat="44.73986" lon="6.85406">
        <ele>2175</ele>
        <time>2026-03-23T09:48:50Z</time>
      </trkpt>
      <trkpt lat="44.73986" lon="6.85405">
        <ele>2175</ele>
        <time>2026-03-23T09:48:51Z</time>
      </trkpt>
      <trkpt lat="44.73986" lon="6.85405">
        <ele>2175</ele>
        <time>2026-03-23T09:48:52Z</time>
      </trkpt>
      <trkpt lat="44.73986" lon="6.85405">
        <ele>2175</ele>
        <time>2026-03-23T09:48:53Z</time>
      </trkpt>
      <trkpt lat="44.73986" lon="6.85405">
        <ele>2175</ele>
        <time>2026-03-23T09:48:54Z</time>
      </trkpt>
      <trkpt lat="44.73986" lon="6.85405">
        <ele>2175</ele>
        <time>2026-03-23T09:48:55Z</time>
      </trkpt>
      <trkpt lat="44.73986" lon="6.85405">
        <ele>2174.2</ele>
        <time>2026-03-23T09:48:56Z</time>
      </trkpt>
      <trkpt lat="44.73986" lon="6.85404">
        <ele>2174.2</ele>
        <time>2026-03-23T09:48:57Z</time>
      </trkpt>
      <trkpt lat="44.73985" lon="6.85402">
        <ele>2174.2</ele>
        <time>2026-03-23T09:48:58Z</time>
      </trkpt>
      <trkpt lat="44.73985" lon="6.85402">
        <ele>2174.2</ele>
        <time>2026-03-23T09:48:59Z</time>
      </trkpt>
      <trkpt lat="44.73985" lon="6.85402">
        <ele>2174.2</ele>
        <time>2026-03-23T09:49:00Z</time>
      </trkpt>
      <trkpt lat="44.73985" lon="6.85402">
        <ele>2174.2</ele>
        <time>2026-03-23T09:49:01Z</time>
      </trkpt>
      <trkpt lat="44.73985" lon="6.85402">
        <ele>2174.2</ele>
        <time>2026-03-23T09:49:02Z</time>
      </trkpt>
      <trkpt lat="44.73985" lon="6.85402">
        <ele>2174.2</ele>
        <time>2026-03-23T09:49:03Z</time>
      </trkpt>
      <trkpt lat="44.73985" lon="6.85402">
        <ele>2174.2</ele>
        <time>2026-03-23T09:49:04Z</time>
      </trkpt>
      <trkpt lat="44.73985" lon="6.85402">
        <ele>2174.2</ele>
        <time>2026-03-23T09:49:05Z</time>
      </trkpt>
      <trkpt lat="44.73985" lon="6.85402">
        <ele>2174.2</ele>
        <time>2026-03-23T09:49:06Z</time>
      </trkpt>
      <trkpt lat="44.73985" lon="6.85402">
        <ele>2174.1</ele>
        <time>2026-03-23T09:49:07Z</time>
      </trkpt>
      <trkpt lat="44.73985" lon="6.85401">
        <ele>2174.1</ele>
        <time>2026-03-23T09:49:08Z</time>
      </trkpt>
      <trkpt lat="44.73984" lon="6.85401">
        <ele>2173.8</ele>
        <time>2026-03-23T09:49:09Z</time>
      </trkpt>
      <trkpt lat="44.73984" lon="6.85401">
        <ele>2173</ele>
        <time>2026-03-23T09:49:10Z</time>
      </trkpt>
      <trkpt lat="44.73984" lon="6.85401">
        <ele>2173</ele>
        <time>2026-03-23T09:49:11Z</time>
      </trkpt>
      <trkpt lat="44.73984" lon="6.85401">
        <ele>2173</ele>
        <time>2026-03-23T09:49:12Z</time>
      </trkpt>
      <trkpt lat="44.73984" lon="6.854">
        <ele>2173</ele>
        <time>2026-03-23T09:49:13Z</time>
      </trkpt>
      <trkpt lat="44.73983" lon="6.85399">
        <ele>2173</ele>
        <time>2026-03-23T09:49:14Z</time>
      </trkpt>
      <trkpt lat="44.73983" lon="6.85399">
        <ele>2173</ele>
        <time>2026-03-23T09:49:15Z</time>
      </trkpt>
      <trkpt lat="44.73983" lon="6.85399">
        <ele>2173</ele>
        <time>2026-03-23T09:49:16Z</time>
      </trkpt>
      <trkpt lat="44.73983" lon="6.85399">
        <ele>2173</ele>
        <time>2026-03-23T09:49:17Z</time>
      </trkpt>
      <trkpt lat="44.73983" lon="6.85399">
        <ele>2173</ele>
        <time>2026-03-23T09:49:18Z</time>
      </trkpt>
      <trkpt lat="44.73983" lon="6.85399">
        <ele>2173</ele>
        <time>2026-03-23T09:49:19Z</time>
      </trkpt>
      <trkpt lat="44.73983" lon="6.85399">
        <ele>2173</ele>
        <time>2026-03-23T09:49:20Z</time>
      </trkpt>
      <trkpt lat="44.73983" lon="6.85399">
        <ele>2173</ele>
        <time>2026-03-23T09:49:21Z</time>
      </trkpt>
      <trkpt lat="44.73983" lon="6.85399">
        <ele>2172.9</ele>
        <time>2026-03-23T09:49:22Z</time>
      </trkpt>
      <trkpt lat="44.73983" lon="6.85398">
        <ele>2172.9</ele>
        <time>2026-03-23T09:49:23Z</time>
      </trkpt>
      <trkpt lat="44.73983" lon="6.85398">
        <ele>2172.9</ele>
        <time>2026-03-23T09:49:24Z</time>
      </trkpt>
      <trkpt lat="44.73983" lon="6.85398">
        <ele>2172.9</ele>
        <time>2026-03-23T09:49:25Z</time>
      </trkpt>
      <trkpt lat="44.73983" lon="6.85398">
        <ele>2172.9</ele>
        <time>2026-03-23T09:49:26Z</time>
      </trkpt>
      <trkpt lat="44.73983" lon="6.85398">
        <ele>2172.9</ele>
        <time>2026-03-23T09:49:27Z</time>
      </trkpt>
      <trkpt lat="44.73983" lon="6.85398">
        <ele>2172.9</ele>
        <time>2026-03-23T09:49:28Z</time>
      </trkpt>
      <trkpt lat="44.73983" lon="6.85398">
        <ele>2172.9</ele>
        <time>2026-03-23T09:49:29Z</time>
      </trkpt>
      <trkpt lat="44.73983" lon="6.85398">
        <ele>2172.9</ele>
        <time>2026-03-23T09:49:30Z</time>
      </trkpt>
      <trkpt lat="44.73983" lon="6.85398">
        <ele>2172.9</ele>
        <time>2026-03-23T09:49:31Z</time>
      </trkpt>
      <trkpt lat="44.73983" lon="6.85398">
        <ele>2172.9</ele>
        <time>2026-03-23T09:49:32Z</time>
      </trkpt>
      <trkpt lat="44.73983" lon="6.85398">
        <ele>2172.9</ele>
        <time>2026-03-23T09:49:33Z</time>
      </trkpt>
      <trkpt lat="44.73982" lon="6.85398">
        <ele>2172.9</ele>
        <time>2026-03-23T09:49:34Z</time>
      </trkpt>
      <trkpt lat="44.73982" lon="6.85397">
        <ele>2172.9</ele>
        <time>2026-03-23T09:49:35Z</time>
      </trkpt>
      <trkpt lat="44.73982" lon="6.85397">
        <ele>2172.9</ele>
        <time>2026-03-23T09:49:36Z</time>
      </trkpt>
      <trkpt lat="44.73982" lon="6.85397">
        <ele>2172.9</ele>
        <time>2026-03-23T09:49:37Z</time>
      </trkpt>
      <trkpt lat="44.73982" lon="6.85397">
        <ele>2172.9</ele>
        <time>2026-03-23T09:49:38Z</time>
      </trkpt>
      <trkpt lat="44.73982" lon="6.85397">
        <ele>2172.9</ele>
        <time>2026-03-23T09:49:39Z</time>
      </trkpt>
      <trkpt lat="44.73982" lon="6.85397">
        <ele>2172.9</ele>
        <time>2026-03-23T09:49:40Z</time>
      </trkpt>
      <trkpt lat="44.73982" lon="6.85397">
        <ele>2172.9</ele>
        <time>2026-03-23T09:49:41Z</time>
      </trkpt>
      <trkpt lat="44.73982" lon="6.85397">
        <ele>2172.9</ele>
        <time>2026-03-23T09:49:42Z</time>
      </trkpt>
      <trkpt lat="44.73982" lon="6.85397">
        <ele>2172.9</ele>
        <time>2026-03-23T09:49:43Z</time>
      </trkpt>
      <trkpt lat="44.73982" lon="6.85397">
        <ele>2172.9</ele>
        <time>2026-03-23T09:49:44Z</time>
      </trkpt>
      <trkpt lat="44.73982" lon="6.85397">
        <ele>2172.9</ele>
        <time>2026-03-23T09:49:45Z</time>
      </trkpt>
      <trkpt lat="44.73982" lon="6.85397">
        <ele>2172.9</ele>
        <time>2026-03-23T09:49:46Z</time>
      </trkpt>
      <trkpt lat="44.73982" lon="6.85397">
        <ele>2172.9</ele>
        <time>2026-03-23T09:49:47Z</time>
      </trkpt>
      <trkpt lat="44.73982" lon="6.85397">
        <ele>2172.9</ele>
        <time>2026-03-23T09:49:48Z</time>
      </trkpt>
      <trkpt lat="44.73982" lon="6.85397">
        <ele>2172.9</ele>
        <time>2026-03-23T09:49:49Z</time>
      </trkpt>
      <trkpt lat="44.73982" lon="6.85397">
        <ele>2172.9</ele>
        <time>2026-03-23T09:49:50Z</time>
      </trkpt>
      <trkpt lat="44.73982" lon="6.85397">
        <ele>2172.9</ele>
        <time>2026-03-23T09:49:51Z</time>
      </trkpt>
      <trkpt lat="44.73982" lon="6.85397">
        <ele>2172.9</ele>
        <time>2026-03-23T09:49:52Z</time>
      </trkpt>
      <trkpt lat="44.73982" lon="6.85397">
        <ele>2172.9</ele>
        <time>2026-03-23T09:49:53Z</time>
      </trkpt>
      <trkpt lat="44.73982" lon="6.85397">
        <ele>2172</ele>
        <time>2026-03-23T09:49:54Z</time>
      </trkpt>
      <trkpt lat="44.73982" lon="6.85397">
        <ele>2172</ele>
        <time>2026-03-23T09:49:55Z</time>
      </trkpt>
      <trkpt lat="44.73982" lon="6.85396">
        <ele>2172</ele>
        <time>2026-03-23T09:49:56Z</time>
      </trkpt>
      <trkpt lat="44.73982" lon="6.85396">
        <ele>2172</ele>
        <time>2026-03-23T09:49:57Z</time>
      </trkpt>
      <trkpt lat="44.73982" lon="6.85397">
        <ele>2172</ele>
        <time>2026-03-23T09:49:58Z</time>
      </trkpt>
      <trkpt lat="44.73982" lon="6.85397">
        <ele>2172</ele>
        <time>2026-03-23T09:49:59Z</time>
      </trkpt>
      <trkpt lat="44.73982" lon="6.85397">
        <ele>2172</ele>
        <time>2026-03-23T09:50:00Z</time>
      </trkpt>
      <trkpt lat="44.73982" lon="6.85396">
        <ele>2172</ele>
        <time>2026-03-23T09:50:01Z</time>
      </trkpt>
      <trkpt lat="44.73981" lon="6.85396">
        <ele>2172</ele>
        <time>2026-03-23T09:50:02Z</time>
      </trkpt>
      <trkpt lat="44.73981" lon="6.85396">
        <ele>2172</ele>
        <time>2026-03-23T09:50:03Z</time>
      </trkpt>
      <trkpt lat="44.73981" lon="6.85396">
        <ele>2172</ele>
        <time>2026-03-23T09:50:04Z</time>
      </trkpt>
      <trkpt lat="44.73981" lon="6.85396">
        <ele>2172</ele>
        <time>2026-03-23T09:50:05Z</time>
      </trkpt>
      <trkpt lat="44.73981" lon="6.85396">
        <ele>2172</ele>
        <time>2026-03-23T09:50:06Z</time>
      </trkpt>
      <trkpt lat="44.73981" lon="6.85396">
        <ele>2172</ele>
        <time>2026-03-23T09:50:07Z</time>
      </trkpt>
      <trkpt lat="44.73981" lon="6.85396">
        <ele>2172</ele>
        <time>2026-03-23T09:50:08Z</time>
      </trkpt>
      <trkpt lat="44.73981" lon="6.85396">
        <ele>2171.7</ele>
        <time>2026-03-23T09:50:09Z</time>
      </trkpt>
      <trkpt lat="44.73981" lon="6.85396">
        <ele>2171.7</ele>
        <time>2026-03-23T09:50:10Z</time>
      </trkpt>
      <trkpt lat="44.73981" lon="6.85396">
        <ele>2171.7</ele>
        <time>2026-03-23T09:50:11Z</time>
      </trkpt>
      <trkpt lat="44.73981" lon="6.85396">
        <ele>2171.7</ele>
        <time>2026-03-23T09:50:12Z</time>
      </trkpt>
      <trkpt lat="44.73981" lon="6.85396">
        <ele>2171.7</ele>
        <time>2026-03-23T09:50:13Z</time>
      </trkpt>
      <trkpt lat="44.73981" lon="6.85396">
        <ele>2171.7</ele>
        <time>2026-03-23T09:50:14Z</time>
      </trkpt>
      <trkpt lat="44.73981" lon="6.85396">
        <ele>2171.7</ele>
        <time>2026-03-23T09:50:15Z</time>
      </trkpt>
      <trkpt lat="44.73981" lon="6.85396">
        <ele>2171.7</ele>
        <time>2026-03-23T09:50:16Z</time>
      </trkpt>
      <trkpt lat="44.73981" lon="6.85396">
        <ele>2171.7</ele>
        <time>2026-03-23T09:50:17Z</time>
      </trkpt>
      <trkpt lat="44.73981" lon="6.85396">
        <ele>2171.7</ele>
        <time>2026-03-23T09:50:18Z</time>
      </trkpt>
      <trkpt lat="44.73981" lon="6.85396">
        <ele>2171.7</ele>
        <time>2026-03-23T09:50:19Z</time>
      </trkpt>
      <trkpt lat="44.73981" lon="6.85396">
        <ele>2171.7</ele>
        <time>2026-03-23T09:50:20Z</time>
      </trkpt>
      <trkpt lat="44.73981" lon="6.85396">
        <ele>2171.7</ele>
        <time>2026-03-23T09:50:21Z</time>
      </trkpt>
      <trkpt lat="44.73981" lon="6.85396">
        <ele>2171.7</ele>
        <time>2026-03-23T09:50:22Z</time>
      </trkpt>
      <trkpt lat="44.73981" lon="6.85396">
        <ele>2171.7</ele>
        <time>2026-03-23T09:50:23Z</time>
      </trkpt>
      <trkpt lat="44.73981" lon="6.85396">
        <ele>2171.7</ele>
        <time>2026-03-23T09:50:24Z</time>
      </trkpt>
      <trkpt lat="44.73981" lon="6.85396">
        <ele>2171.7</ele>
        <time>2026-03-23T09:50:25Z</time>
      </trkpt>
      <trkpt lat="44.73981" lon="6.85396">
        <ele>2171.7</ele>
        <time>2026-03-23T09:50:26Z</time>
      </trkpt>
      <trkpt lat="44.73981" lon="6.85396">
        <ele>2171.7</ele>
        <time>2026-03-23T09:50:27Z</time>
      </trkpt>
      <trkpt lat="44.73981" lon="6.85396">
        <ele>2171.7</ele>
        <time>2026-03-23T09:50:28Z</time>
      </trkpt>
      <trkpt lat="44.73981" lon="6.85396">
        <ele>2171.7</ele>
        <time>2026-03-23T09:50:29Z</time>
      </trkpt>
      <trkpt lat="44.73981" lon="6.85396">
        <ele>2171.7</ele>
        <time>2026-03-23T09:50:30Z</time>
      </trkpt>
      <trkpt lat="44.73981" lon="6.85396">
        <ele>2171.7</ele>
        <time>2026-03-23T09:50:31Z</time>
      </trkpt>
      <trkpt lat="44.73981" lon="6.85396">
        <ele>2171.7</ele>
        <time>2026-03-23T09:50:32Z</time>
      </trkpt>
      <trkpt lat="44.73981" lon="6.85396">
        <ele>2171.7</ele>
        <time>2026-03-23T09:50:33Z</time>
      </trkpt>
      <trkpt lat="44.73981" lon="6.85396">
        <ele>2171.7</ele>
        <time>2026-03-23T09:50:34Z</time>
      </trkpt>
      <trkpt lat="44.73981" lon="6.85396">
        <ele>2171.7</ele>
        <time>2026-03-23T09:50:35Z</time>
      </trkpt>
      <trkpt lat="44.73981" lon="6.85396">
        <ele>2171.7</ele>
        <time>2026-03-23T09:50:36Z</time>
      </trkpt>
      <trkpt lat="44.73981" lon="6.85395">
        <ele>2171.7</ele>
        <time>2026-03-23T09:50:37Z</time>
      </trkpt>
      <trkpt lat="44.7398" lon="6.85395">
        <ele>2171.7</ele>
        <time>2026-03-23T09:50:38Z</time>
      </trkpt>
      <trkpt lat="44.73978" lon="6.85395">
        <ele>2171.3</ele>
        <time>2026-03-23T09:50:39Z</time>
      </trkpt>
      <trkpt lat="44.73977" lon="6.85395">
        <ele>2171.3</ele>
        <time>2026-03-23T09:50:40Z</time>
      </trkpt>
      <trkpt lat="44.73977" lon="6.85396">
        <ele>2171.3</ele>
        <time>2026-03-23T09:50:41Z</time>
      </trkpt>
      <trkpt lat="44.73977" lon="6.85397">
        <ele>2171.3</ele>
        <time>2026-03-23T09:50:42Z</time>
      </trkpt>
      <trkpt lat="44.73977" lon="6.85397">
        <ele>2172.2</ele>
        <time>2026-03-23T09:50:43Z</time>
      </trkpt>
      <trkpt lat="44.73978" lon="6.85398">
        <ele>2172.2</ele>
        <time>2026-03-23T09:50:44Z</time>
      </trkpt>
      <trkpt lat="44.73978" lon="6.85398">
        <ele>2172.2</ele>
        <time>2026-03-23T09:50:45Z</time>
      </trkpt>
      <trkpt lat="44.73978" lon="6.85399">
        <ele>2172.2</ele>
        <time>2026-03-23T09:50:46Z</time>
      </trkpt>
      <trkpt lat="44.73978" lon="6.85399">
        <ele>2172.2</ele>
        <time>2026-03-23T09:50:47Z</time>
      </trkpt>
      <trkpt lat="44.73978" lon="6.854">
        <ele>2172.2</ele>
        <time>2026-03-23T09:50:48Z</time>
      </trkpt>
      <trkpt lat="44.73978" lon="6.85402">
        <ele>2173.1</ele>
        <time>2026-03-23T09:50:49Z</time>
      </trkpt>
      <trkpt lat="44.73978" lon="6.85403">
        <ele>2173.1</ele>
        <time>2026-03-23T09:50:50Z</time>
      </trkpt>
      <trkpt lat="44.73978" lon="6.85404">
        <ele>2173.1</ele>
        <time>2026-03-23T09:50:51Z</time>
      </trkpt>
      <trkpt lat="44.73978" lon="6.85405">
        <ele>2173.1</ele>
        <time>2026-03-23T09:50:52Z</time>
      </trkpt>
      <trkpt lat="44.73978" lon="6.85407">
        <ele>2174</ele>
        <time>2026-03-23T09:50:53Z</time>
      </trkpt>
      <trkpt lat="44.73977" lon="6.85408">
        <ele>2174</ele>
        <time>2026-03-23T09:50:54Z</time>
      </trkpt>
      <trkpt lat="44.73976" lon="6.85409">
        <ele>2174</ele>
        <time>2026-03-23T09:50:55Z</time>
      </trkpt>
      <trkpt lat="44.73976" lon="6.8541">
        <ele>2174.8</ele>
        <time>2026-03-23T09:50:56Z</time>
      </trkpt>
      <trkpt lat="44.73975" lon="6.85412">
        <ele>2174.5</ele>
        <time>2026-03-23T09:50:57Z</time>
      </trkpt>
      <trkpt lat="44.73975" lon="6.85413">
        <ele>2174.5</ele>
        <time>2026-03-23T09:50:58Z</time>
      </trkpt>
      <trkpt lat="44.73974" lon="6.85414">
        <ele>2174.5</ele>
        <time>2026-03-23T09:50:59Z</time>
      </trkpt>
      <trkpt lat="44.73973" lon="6.85414">
        <ele>2175.3</ele>
        <time>2026-03-23T09:51:00Z</time>
      </trkpt>
      <trkpt lat="44.73972" lon="6.85415">
        <ele>2175</ele>
        <time>2026-03-23T09:51:01Z</time>
      </trkpt>
      <trkpt lat="44.73971" lon="6.85416">
        <ele>2175</ele>
        <time>2026-03-23T09:51:02Z</time>
      </trkpt>
      <trkpt lat="44.73971" lon="6.85417">
        <ele>2175</ele>
        <time>2026-03-23T09:51:03Z</time>
      </trkpt>
      <trkpt lat="44.73971" lon="6.85419">
        <ele>2175.8</ele>
        <time>2026-03-23T09:51:04Z</time>
      </trkpt>
      <trkpt lat="44.73971" lon="6.85419">
        <ele>2175.8</ele>
        <time>2026-03-23T09:51:05Z</time>
      </trkpt>
      <trkpt lat="44.73971" lon="6.85421">
        <ele>2175.8</ele>
        <time>2026-03-23T09:51:06Z</time>
      </trkpt>
      <trkpt lat="44.73971" lon="6.85423">
        <ele>2176.6</ele>
        <time>2026-03-23T09:51:07Z</time>
      </trkpt>
      <trkpt lat="44.73971" lon="6.85424">
        <ele>2176.6</ele>
        <time>2026-03-23T09:51:08Z</time>
      </trkpt>
      <trkpt lat="44.73971" lon="6.85424">
        <ele>2176.6</ele>
        <time>2026-03-23T09:51:09Z</time>
      </trkpt>
      <trkpt lat="44.73971" lon="6.85425">
        <ele>2176.6</ele>
        <time>2026-03-23T09:51:10Z</time>
      </trkpt>
      <trkpt lat="44.73971" lon="6.85426">
        <ele>2176.6</ele>
        <time>2026-03-23T09:51:11Z</time>
      </trkpt>
      <trkpt lat="44.73971" lon="6.85427">
        <ele>2177.4</ele>
        <time>2026-03-23T09:51:12Z</time>
      </trkpt>
      <trkpt lat="44.7397" lon="6.85428">
        <ele>2177.4</ele>
        <time>2026-03-23T09:51:13Z</time>
      </trkpt>
      <trkpt lat="44.7397" lon="6.85429">
        <ele>2177.4</ele>
        <time>2026-03-23T09:51:14Z</time>
      </trkpt>
      <trkpt lat="44.7397" lon="6.85429">
        <ele>2177.4</ele>
        <time>2026-03-23T09:51:15Z</time>
      </trkpt>
      <trkpt lat="44.7397" lon="6.8543">
        <ele>2177.4</ele>
        <time>2026-03-23T09:51:16Z</time>
      </trkpt>
      <trkpt lat="44.7397" lon="6.85431">
        <ele>2178.2</ele>
        <time>2026-03-23T09:51:17Z</time>
      </trkpt>
      <trkpt lat="44.7397" lon="6.85433">
        <ele>2178.2</ele>
        <time>2026-03-23T09:51:18Z</time>
      </trkpt>
      <trkpt lat="44.73969" lon="6.85434">
        <ele>2178.2</ele>
        <time>2026-03-23T09:51:19Z</time>
      </trkpt>
      <trkpt lat="44.73969" lon="6.85434">
        <ele>2177.8</ele>
        <time>2026-03-23T09:51:20Z</time>
      </trkpt>
      <trkpt lat="44.73969" lon="6.85435">
        <ele>2178.7</ele>
        <time>2026-03-23T09:51:21Z</time>
      </trkpt>
      <trkpt lat="44.73969" lon="6.85436">
        <ele>2178.7</ele>
        <time>2026-03-23T09:51:22Z</time>
      </trkpt>
      <trkpt lat="44.73969" lon="6.85437">
        <ele>2178.7</ele>
        <time>2026-03-23T09:51:23Z</time>
      </trkpt>
      <trkpt lat="44.73969" lon="6.85438">
        <ele>2178.7</ele>
        <time>2026-03-23T09:51:24Z</time>
      </trkpt>
      <trkpt lat="44.73969" lon="6.85439">
        <ele>2178.7</ele>
        <time>2026-03-23T09:51:25Z</time>
      </trkpt>
      <trkpt lat="44.73969" lon="6.85439">
        <ele>2178.7</ele>
        <time>2026-03-23T09:51:26Z</time>
      </trkpt>
      <trkpt lat="44.73968" lon="6.8544">
        <ele>2179.6</ele>
        <time>2026-03-23T09:51:27Z</time>
      </trkpt>
      <trkpt lat="44.73968" lon="6.85441">
        <ele>2179.6</ele>
        <time>2026-03-23T09:51:28Z</time>
      </trkpt>
      <trkpt lat="44.73968" lon="6.85441">
        <ele>2179.6</ele>
        <time>2026-03-23T09:51:29Z</time>
      </trkpt>
      <trkpt lat="44.73967" lon="6.85442">
        <ele>2179.6</ele>
        <time>2026-03-23T09:51:30Z</time>
      </trkpt>
      <trkpt lat="44.73967" lon="6.85442">
        <ele>2179.6</ele>
        <time>2026-03-23T09:51:31Z</time>
      </trkpt>
      <trkpt lat="44.73966" lon="6.85443">
        <ele>2179.3</ele>
        <time>2026-03-23T09:51:32Z</time>
      </trkpt>
      <trkpt lat="44.73966" lon="6.85443">
        <ele>2179.3</ele>
        <time>2026-03-23T09:51:33Z</time>
      </trkpt>
      <trkpt lat="44.73965" lon="6.85444">
        <ele>2179.3</ele>
        <time>2026-03-23T09:51:34Z</time>
      </trkpt>
      <trkpt lat="44.73965" lon="6.85444">
        <ele>2180.2</ele>
        <time>2026-03-23T09:51:35Z</time>
      </trkpt>
      <trkpt lat="44.73965" lon="6.85445">
        <ele>2180.2</ele>
        <time>2026-03-23T09:51:36Z</time>
      </trkpt>
      <trkpt lat="44.73965" lon="6.85446">
        <ele>2180.2</ele>
        <time>2026-03-23T09:51:37Z</time>
      </trkpt>
      <trkpt lat="44.73965" lon="6.85446">
        <ele>2180.2</ele>
        <time>2026-03-23T09:51:38Z</time>
      </trkpt>
      <trkpt lat="44.73965" lon="6.85447">
        <ele>2180.2</ele>
        <time>2026-03-23T09:51:39Z</time>
      </trkpt>
      <trkpt lat="44.73964" lon="6.85447">
        <ele>2180.2</ele>
        <time>2026-03-23T09:51:40Z</time>
      </trkpt>
      <trkpt lat="44.73964" lon="6.85447">
        <ele>2180.2</ele>
        <time>2026-03-23T09:51:41Z</time>
      </trkpt>
      <trkpt lat="44.73964" lon="6.85447">
        <ele>2180.2</ele>
        <time>2026-03-23T09:51:42Z</time>
      </trkpt>
      <trkpt lat="44.73964" lon="6.85448">
        <ele>2180.2</ele>
        <time>2026-03-23T09:51:43Z</time>
      </trkpt>
      <trkpt lat="44.73964" lon="6.85448">
        <ele>2180.2</ele>
        <time>2026-03-23T09:51:44Z</time>
      </trkpt>
      <trkpt lat="44.73963" lon="6.85449">
        <ele>2181.2</ele>
        <time>2026-03-23T09:51:45Z</time>
      </trkpt>
      <trkpt lat="44.73963" lon="6.8545">
        <ele>2181.2</ele>
        <time>2026-03-23T09:51:46Z</time>
      </trkpt>
      <trkpt lat="44.73964" lon="6.85451">
        <ele>2181.2</ele>
        <time>2026-03-23T09:51:47Z</time>
      </trkpt>
      <trkpt lat="44.73964" lon="6.85452">
        <ele>2181.2</ele>
        <time>2026-03-23T09:51:48Z</time>
      </trkpt>
      <trkpt lat="44.73965" lon="6.85452">
        <ele>2181.2</ele>
        <time>2026-03-23T09:51:49Z</time>
      </trkpt>
      <trkpt lat="44.73965" lon="6.85453">
        <ele>2182.1</ele>
        <time>2026-03-23T09:51:50Z</time>
      </trkpt>
      <trkpt lat="44.73965" lon="6.85453">
        <ele>2182.1</ele>
        <time>2026-03-23T09:51:51Z</time>
      </trkpt>
      <trkpt lat="44.73966" lon="6.85453">
        <ele>2182.1</ele>
        <time>2026-03-23T09:51:52Z</time>
      </trkpt>
      <trkpt lat="44.73965" lon="6.85454">
        <ele>2182.1</ele>
        <time>2026-03-23T09:51:53Z</time>
      </trkpt>
      <trkpt lat="44.73965" lon="6.85454">
        <ele>2182.1</ele>
        <time>2026-03-23T09:51:54Z</time>
      </trkpt>
      <trkpt lat="44.73965" lon="6.85454">
        <ele>2182.1</ele>
        <time>2026-03-23T09:51:55Z</time>
      </trkpt>
      <trkpt lat="44.73965" lon="6.85454">
        <ele>2182.1</ele>
        <time>2026-03-23T09:51:56Z</time>
      </trkpt>
      <trkpt lat="44.73965" lon="6.85454">
        <ele>2182.1</ele>
        <time>2026-03-23T09:51:57Z</time>
      </trkpt>
      <trkpt lat="44.73965" lon="6.85454">
        <ele>2182.1</ele>
        <time>2026-03-23T09:51:58Z</time>
      </trkpt>
      <trkpt lat="44.73965" lon="6.85454">
        <ele>2182.1</ele>
        <time>2026-03-23T09:51:59Z</time>
      </trkpt>
      <trkpt lat="44.73966" lon="6.85454">
        <ele>2182.1</ele>
        <time>2026-03-23T09:52:00Z</time>
      </trkpt>
      <trkpt lat="44.73966" lon="6.85454">
        <ele>2182.1</ele>
        <time>2026-03-23T09:52:01Z</time>
      </trkpt>
      <trkpt lat="44.73966" lon="6.85454">
        <ele>2182.1</ele>
        <time>2026-03-23T09:52:02Z</time>
      </trkpt>
      <trkpt lat="44.73967" lon="6.85454">
        <ele>2182.5</ele>
        <time>2026-03-23T09:52:03Z</time>
      </trkpt>
      <trkpt lat="44.73967" lon="6.85454">
        <ele>2182.5</ele>
        <time>2026-03-23T09:52:04Z</time>
      </trkpt>
      <trkpt lat="44.73967" lon="6.85453">
        <ele>2182.5</ele>
        <time>2026-03-23T09:52:05Z</time>
      </trkpt>
      <trkpt lat="44.73967" lon="6.85453">
        <ele>2182.5</ele>
        <time>2026-03-23T09:52:06Z</time>
      </trkpt>
      <trkpt lat="44.73967" lon="6.85453">
        <ele>2182.5</ele>
        <time>2026-03-23T09:52:07Z</time>
      </trkpt>
      <trkpt lat="44.73967" lon="6.85453">
        <ele>2182.5</ele>
        <time>2026-03-23T09:52:08Z</time>
      </trkpt>
      <trkpt lat="44.73967" lon="6.85452">
        <ele>2181.6</ele>
        <time>2026-03-23T09:52:09Z</time>
      </trkpt>
      <trkpt lat="44.73968" lon="6.85452">
        <ele>2181.6</ele>
        <time>2026-03-23T09:52:10Z</time>
      </trkpt>
      <trkpt lat="44.73968" lon="6.85452">
        <ele>2181.6</ele>
        <time>2026-03-23T09:52:11Z</time>
      </trkpt>
      <trkpt lat="44.73968" lon="6.85452">
        <ele>2181.6</ele>
        <time>2026-03-23T09:52:12Z</time>
      </trkpt>
      <trkpt lat="44.73968" lon="6.85451">
        <ele>2181.6</ele>
        <time>2026-03-23T09:52:13Z</time>
      </trkpt>
      <trkpt lat="44.73968" lon="6.85451">
        <ele>2181.6</ele>
        <time>2026-03-23T09:52:14Z</time>
      </trkpt>
      <trkpt lat="44.73969" lon="6.85451">
        <ele>2181.6</ele>
        <time>2026-03-23T09:52:15Z</time>
      </trkpt>
      <trkpt lat="44.73969" lon="6.85451">
        <ele>2181.6</ele>
        <time>2026-03-23T09:52:16Z</time>
      </trkpt>
      <trkpt lat="44.73969" lon="6.8545">
        <ele>2182</ele>
        <time>2026-03-23T09:52:17Z</time>
      </trkpt>
      <trkpt lat="44.7397" lon="6.8545">
        <ele>2182</ele>
        <time>2026-03-23T09:52:18Z</time>
      </trkpt>
      <trkpt lat="44.73971" lon="6.8545">
        <ele>2182</ele>
        <time>2026-03-23T09:52:19Z</time>
      </trkpt>
      <trkpt lat="44.73971" lon="6.8545">
        <ele>2182</ele>
        <time>2026-03-23T09:52:20Z</time>
      </trkpt>
      <trkpt lat="44.73971" lon="6.85451">
        <ele>2182</ele>
        <time>2026-03-23T09:52:21Z</time>
      </trkpt>
      <trkpt lat="44.73971" lon="6.85451">
        <ele>2182</ele>
        <time>2026-03-23T09:52:22Z</time>
      </trkpt>
      <trkpt lat="44.73972" lon="6.8545">
        <ele>2182</ele>
        <time>2026-03-23T09:52:23Z</time>
      </trkpt>
      <trkpt lat="44.73972" lon="6.8545">
        <ele>2182</ele>
        <time>2026-03-23T09:52:24Z</time>
      </trkpt>
      <trkpt lat="44.73972" lon="6.8545">
        <ele>2182.4</ele>
        <time>2026-03-23T09:52:25Z</time>
      </trkpt>
      <trkpt lat="44.73973" lon="6.8545">
        <ele>2182.4</ele>
        <time>2026-03-23T09:52:26Z</time>
      </trkpt>
      <trkpt lat="44.73973" lon="6.85449">
        <ele>2182.4</ele>
        <time>2026-03-23T09:52:27Z</time>
      </trkpt>
      <trkpt lat="44.73973" lon="6.8545">
        <ele>2182.4</ele>
        <time>2026-03-23T09:52:28Z</time>
      </trkpt>
      <trkpt lat="44.73973" lon="6.85449">
        <ele>2182.4</ele>
        <time>2026-03-23T09:52:29Z</time>
      </trkpt>
      <trkpt lat="44.73973" lon="6.85449">
        <ele>2182.4</ele>
        <time>2026-03-23T09:52:30Z</time>
      </trkpt>
      <trkpt lat="44.73974" lon="6.85449">
        <ele>2182.4</ele>
        <time>2026-03-23T09:52:31Z</time>
      </trkpt>
      <trkpt lat="44.73974" lon="6.85449">
        <ele>2182.4</ele>
        <time>2026-03-23T09:52:32Z</time>
      </trkpt>
      <trkpt lat="44.73974" lon="6.85448">
        <ele>2182.4</ele>
        <time>2026-03-23T09:52:33Z</time>
      </trkpt>
      <trkpt lat="44.73974" lon="6.85449">
        <ele>2182.4</ele>
        <time>2026-03-23T09:52:34Z</time>
      </trkpt>
      <trkpt lat="44.73974" lon="6.85449">
        <ele>2182.4</ele>
        <time>2026-03-23T09:52:35Z</time>
      </trkpt>
      <trkpt lat="44.73975" lon="6.85449">
        <ele>2182.4</ele>
        <time>2026-03-23T09:52:36Z</time>
      </trkpt>
      <trkpt lat="44.73975" lon="6.85448">
        <ele>2182.4</ele>
        <time>2026-03-23T09:52:37Z</time>
      </trkpt>
      <trkpt lat="44.73975" lon="6.85448">
        <ele>2181.4</ele>
        <time>2026-03-23T09:52:38Z</time>
      </trkpt>
      <trkpt lat="44.73975" lon="6.85447">
        <ele>2181.8</ele>
        <time>2026-03-23T09:52:39Z</time>
      </trkpt>
      <trkpt lat="44.73976" lon="6.85447">
        <ele>2181.8</ele>
        <time>2026-03-23T09:52:40Z</time>
      </trkpt>
      <trkpt lat="44.73976" lon="6.85447">
        <ele>2181.8</ele>
        <time>2026-03-23T09:52:41Z</time>
      </trkpt>
      <trkpt lat="44.73976" lon="6.85447">
        <ele>2181.8</ele>
        <time>2026-03-23T09:52:42Z</time>
      </trkpt>
      <trkpt lat="44.73977" lon="6.85447">
        <ele>2181.8</ele>
        <time>2026-03-23T09:52:43Z</time>
      </trkpt>
      <trkpt lat="44.73977" lon="6.85447">
        <ele>2181.8</ele>
        <time>2026-03-23T09:52:44Z</time>
      </trkpt>
      <trkpt lat="44.73978" lon="6.85447">
        <ele>2181.8</ele>
        <time>2026-03-23T09:52:45Z</time>
      </trkpt>
      <trkpt lat="44.73978" lon="6.85447">
        <ele>2181.8</ele>
        <time>2026-03-23T09:52:46Z</time>
      </trkpt>
      <trkpt lat="44.73978" lon="6.85447">
        <ele>2181.8</ele>
        <time>2026-03-23T09:52:47Z</time>
      </trkpt>
      <trkpt lat="44.73978" lon="6.85447">
        <ele>2181.8</ele>
        <time>2026-03-23T09:52:48Z</time>
      </trkpt>
      <trkpt lat="44.73979" lon="6.85447">
        <ele>2182.3</ele>
        <time>2026-03-23T09:52:49Z</time>
      </trkpt>
      <trkpt lat="44.73979" lon="6.85447">
        <ele>2182.2</ele>
        <time>2026-03-23T09:52:50Z</time>
      </trkpt>
      <trkpt lat="44.73979" lon="6.85447">
        <ele>2182.2</ele>
        <time>2026-03-23T09:52:52Z</time>
      </trkpt>
      <trkpt lat="44.7398" lon="6.85447">
        <ele>2182.2</ele>
        <time>2026-03-23T09:52:53Z</time>
      </trkpt>
      <trkpt lat="44.7398" lon="6.85447">
        <ele>2182.2</ele>
        <time>2026-03-23T09:52:54Z</time>
      </trkpt>
      <trkpt lat="44.7398" lon="6.85447">
        <ele>2182.2</ele>
        <time>2026-03-23T09:52:55Z</time>
      </trkpt>
      <trkpt lat="44.73981" lon="6.85447">
        <ele>2182.2</ele>
        <time>2026-03-23T09:52:56Z</time>
      </trkpt>
      <trkpt lat="44.73981" lon="6.85447">
        <ele>2182.2</ele>
        <time>2026-03-23T09:52:57Z</time>
      </trkpt>
      <trkpt lat="44.73982" lon="6.85448">
        <ele>2182.7</ele>
        <time>2026-03-23T09:52:59Z</time>
      </trkpt>
      <trkpt lat="44.73982" lon="6.85448">
        <ele>2182.7</ele>
        <time>2026-03-23T09:53:00Z</time>
      </trkpt>
      <trkpt lat="44.73983" lon="6.85449">
        <ele>2183.7</ele>
        <time>2026-03-23T09:53:02Z</time>
      </trkpt>
      <trkpt lat="44.73984" lon="6.85449">
        <ele>2183.7</ele>
        <time>2026-03-23T09:53:04Z</time>
      </trkpt>
      <trkpt lat="44.73985" lon="6.85449">
        <ele>2184.1</ele>
        <time>2026-03-23T09:53:05Z</time>
      </trkpt>
      <trkpt lat="44.73985" lon="6.8545">
        <ele>2184.1</ele>
        <time>2026-03-23T09:53:06Z</time>
      </trkpt>
      <trkpt lat="44.73986" lon="6.8545">
        <ele>2184.1</ele>
        <time>2026-03-23T09:53:07Z</time>
      </trkpt>
      <trkpt lat="44.73986" lon="6.8545">
        <ele>2184.1</ele>
        <time>2026-03-23T09:53:08Z</time>
      </trkpt>
      <trkpt lat="44.73986" lon="6.8545">
        <ele>2184.1</ele>
        <time>2026-03-23T09:53:09Z</time>
      </trkpt>
      <trkpt lat="44.73987" lon="6.85451">
        <ele>2184.1</ele>
        <time>2026-03-23T09:53:10Z</time>
      </trkpt>
      <trkpt lat="44.73988" lon="6.85451">
        <ele>2184.5</ele>
        <time>2026-03-23T09:53:11Z</time>
      </trkpt>
      <trkpt lat="44.73988" lon="6.85451">
        <ele>2184.5</ele>
        <time>2026-03-23T09:53:12Z</time>
      </trkpt>
      <trkpt lat="44.73989" lon="6.85451">
        <ele>2184.5</ele>
        <time>2026-03-23T09:53:13Z</time>
      </trkpt>
      <trkpt lat="44.73989" lon="6.85452">
        <ele>2184.5</ele>
        <time>2026-03-23T09:53:14Z</time>
      </trkpt>
      <trkpt lat="44.7399" lon="6.85452">
        <ele>2184.5</ele>
        <time>2026-03-23T09:53:15Z</time>
      </trkpt>
      <trkpt lat="44.7399" lon="6.85452">
        <ele>2184.5</ele>
        <time>2026-03-23T09:53:16Z</time>
      </trkpt>
      <trkpt lat="44.73991" lon="6.85452">
        <ele>2184.9</ele>
        <time>2026-03-23T09:53:17Z</time>
      </trkpt>
      <trkpt lat="44.73992" lon="6.85452">
        <ele>2184.9</ele>
        <time>2026-03-23T09:53:18Z</time>
      </trkpt>
      <trkpt lat="44.73993" lon="6.85452">
        <ele>2184.9</ele>
        <time>2026-03-23T09:53:19Z</time>
      </trkpt>
      <trkpt lat="44.73993" lon="6.85453">
        <ele>2185.9</ele>
        <time>2026-03-23T09:53:20Z</time>
      </trkpt>
      <trkpt lat="44.73994" lon="6.85453">
        <ele>2186.3</ele>
        <time>2026-03-23T09:53:21Z</time>
      </trkpt>
      <trkpt lat="44.73994" lon="6.85453">
        <ele>2186.3</ele>
        <time>2026-03-23T09:53:23Z</time>
      </trkpt>
      <trkpt lat="44.73995" lon="6.85453">
        <ele>2186.3</ele>
        <time>2026-03-23T09:53:24Z</time>
      </trkpt>
      <trkpt lat="44.73995" lon="6.85454">
        <ele>2186.3</ele>
        <time>2026-03-23T09:53:25Z</time>
      </trkpt>
      <trkpt lat="44.73996" lon="6.85454">
        <ele>2186.3</ele>
        <time>2026-03-23T09:53:26Z</time>
      </trkpt>
      <trkpt lat="44.73996" lon="6.85454">
        <ele>2186.3</ele>
        <time>2026-03-23T09:53:27Z</time>
      </trkpt>
      <trkpt lat="44.73997" lon="6.85454">
        <ele>2186.3</ele>
        <time>2026-03-23T09:53:28Z</time>
      </trkpt>
      <trkpt lat="44.73997" lon="6.85455">
        <ele>2186.7</ele>
        <time>2026-03-23T09:53:29Z</time>
      </trkpt>
      <trkpt lat="44.73997" lon="6.85455">
        <ele>2186.7</ele>
        <time>2026-03-23T09:53:30Z</time>
      </trkpt>
      <trkpt lat="44.73998" lon="6.85456">
        <ele>2186.7</ele>
        <time>2026-03-23T09:53:31Z</time>
      </trkpt>
      <trkpt lat="44.73998" lon="6.85456">
        <ele>2186.7</ele>
        <time>2026-03-23T09:53:32Z</time>
      </trkpt>
      <trkpt lat="44.73999" lon="6.85456">
        <ele>2186.7</ele>
        <time>2026-03-23T09:53:33Z</time>
      </trkpt>
      <trkpt lat="44.73999" lon="6.85457">
        <ele>2186.7</ele>
        <time>2026-03-23T09:53:34Z</time>
      </trkpt>
      <trkpt lat="44.74001" lon="6.85457">
        <ele>2188.1</ele>
        <time>2026-03-23T09:53:35Z</time>
      </trkpt>
      <trkpt lat="44.74001" lon="6.85457">
        <ele>2188.1</ele>
        <time>2026-03-23T09:53:36Z</time>
      </trkpt>
      <trkpt lat="44.74002" lon="6.85457">
        <ele>2188.1</ele>
        <time>2026-03-23T09:53:37Z</time>
      </trkpt>
      <trkpt lat="44.74003" lon="6.85457">
        <ele>2187.1</ele>
        <time>2026-03-23T09:53:38Z</time>
      </trkpt>
      <trkpt lat="44.74003" lon="6.85456">
        <ele>2187.4</ele>
        <time>2026-03-23T09:53:39Z</time>
      </trkpt>
      <trkpt lat="44.74004" lon="6.85456">
        <ele>2187.4</ele>
        <time>2026-03-23T09:53:40Z</time>
      </trkpt>
      <trkpt lat="44.74004" lon="6.85456">
        <ele>2187.4</ele>
        <time>2026-03-23T09:53:41Z</time>
      </trkpt>
      <trkpt lat="44.74005" lon="6.85456">
        <ele>2187.4</ele>
        <time>2026-03-23T09:53:42Z</time>
      </trkpt>
      <trkpt lat="44.74005" lon="6.85456">
        <ele>2187.4</ele>
        <time>2026-03-23T09:53:43Z</time>
      </trkpt>
      <trkpt lat="44.74006" lon="6.85456">
        <ele>2187.8</ele>
        <time>2026-03-23T09:53:44Z</time>
      </trkpt>
      <trkpt lat="44.74006" lon="6.85456">
        <ele>2187.8</ele>
        <time>2026-03-23T09:53:45Z</time>
      </trkpt>
      <trkpt lat="44.74007" lon="6.85456">
        <ele>2187.8</ele>
        <time>2026-03-23T09:53:46Z</time>
      </trkpt>
      <trkpt lat="44.74008" lon="6.85456">
        <ele>2187.8</ele>
        <time>2026-03-23T09:53:47Z</time>
      </trkpt>
      <trkpt lat="44.74008" lon="6.85456">
        <ele>2187.8</ele>
        <time>2026-03-23T09:53:48Z</time>
      </trkpt>
      <trkpt lat="44.74009" lon="6.85456">
        <ele>2187.8</ele>
        <time>2026-03-23T09:53:49Z</time>
      </trkpt>
      <trkpt lat="44.74009" lon="6.85456">
        <ele>2188.1</ele>
        <time>2026-03-23T09:53:51Z</time>
      </trkpt>
      <trkpt lat="44.7401" lon="6.85457">
        <ele>2188.1</ele>
        <time>2026-03-23T09:53:52Z</time>
      </trkpt>
      <trkpt lat="44.74011" lon="6.85457">
        <ele>2189.2</ele>
        <time>2026-03-23T09:53:53Z</time>
      </trkpt>
      <trkpt lat="44.74011" lon="6.85457">
        <ele>2189.2</ele>
        <time>2026-03-23T09:53:54Z</time>
      </trkpt>
      <trkpt lat="44.74011" lon="6.85457">
        <ele>2189.2</ele>
        <time>2026-03-23T09:53:56Z</time>
      </trkpt>
      <trkpt lat="44.74012" lon="6.85457">
        <ele>2189.2</ele>
        <time>2026-03-23T09:53:57Z</time>
      </trkpt>
      <trkpt lat="44.74012" lon="6.85458">
        <ele>2189.5</ele>
        <time>2026-03-23T09:53:58Z</time>
      </trkpt>
      <trkpt lat="44.74013" lon="6.85458">
        <ele>2189.5</ele>
        <time>2026-03-23T09:53:59Z</time>
      </trkpt>
      <trkpt lat="44.74013" lon="6.85458">
        <ele>2189.5</ele>
        <time>2026-03-23T09:54:00Z</time>
      </trkpt>
      <trkpt lat="44.74014" lon="6.85459">
        <ele>2189.5</ele>
        <time>2026-03-23T09:54:01Z</time>
      </trkpt>
      <trkpt lat="44.74014" lon="6.85459">
        <ele>2189.5</ele>
        <time>2026-03-23T09:54:03Z</time>
      </trkpt>
      <trkpt lat="44.74015" lon="6.85459">
        <ele>2189.5</ele>
        <time>2026-03-23T09:54:04Z</time>
      </trkpt>
      <trkpt lat="44.74015" lon="6.85459">
        <ele>2189.8</ele>
        <time>2026-03-23T09:54:05Z</time>
      </trkpt>
      <trkpt lat="44.74016" lon="6.8546">
        <ele>2189.8</ele>
        <time>2026-03-23T09:54:06Z</time>
      </trkpt>
      <trkpt lat="44.74016" lon="6.8546">
        <ele>2189.8</ele>
        <time>2026-03-23T09:54:07Z</time>
      </trkpt>
      <trkpt lat="44.74017" lon="6.8546">
        <ele>2189.8</ele>
        <time>2026-03-23T09:54:08Z</time>
      </trkpt>
      <trkpt lat="44.74017" lon="6.8546">
        <ele>2189.8</ele>
        <time>2026-03-23T09:54:09Z</time>
      </trkpt>
      <trkpt lat="44.74018" lon="6.85461">
        <ele>2189.8</ele>
        <time>2026-03-23T09:54:10Z</time>
      </trkpt>
      <trkpt lat="44.74018" lon="6.85462">
        <ele>2191.1</ele>
        <time>2026-03-23T09:54:11Z</time>
      </trkpt>
      <trkpt lat="44.74019" lon="6.85462">
        <ele>2191.1</ele>
        <time>2026-03-23T09:54:12Z</time>
      </trkpt>
      <trkpt lat="44.74019" lon="6.85463">
        <ele>2191.1</ele>
        <time>2026-03-23T09:54:13Z</time>
      </trkpt>
      <trkpt lat="44.7402" lon="6.85464">
        <ele>2191.1</ele>
        <time>2026-03-23T09:54:14Z</time>
      </trkpt>
      <trkpt lat="44.7402" lon="6.85465">
        <ele>2191.1</ele>
        <time>2026-03-23T09:54:16Z</time>
      </trkpt>
      <trkpt lat="44.74021" lon="6.85466">
        <ele>2192.1</ele>
        <time>2026-03-23T09:54:17Z</time>
      </trkpt>
      <trkpt lat="44.74021" lon="6.85467">
        <ele>2192.5</ele>
        <time>2026-03-23T09:54:18Z</time>
      </trkpt>
      <trkpt lat="44.74022" lon="6.85468">
        <ele>2192.5</ele>
        <time>2026-03-23T09:54:19Z</time>
      </trkpt>
      <trkpt lat="44.74022" lon="6.85469">
        <ele>2192.5</ele>
        <time>2026-03-23T09:54:20Z</time>
      </trkpt>
      <trkpt lat="44.74023" lon="6.8547">
        <ele>2193.5</ele>
        <time>2026-03-23T09:54:21Z</time>
      </trkpt>
      <trkpt lat="44.74023" lon="6.8547">
        <ele>2193.5</ele>
        <time>2026-03-23T09:54:22Z</time>
      </trkpt>
      <trkpt lat="44.74023" lon="6.85471">
        <ele>2193.5</ele>
        <time>2026-03-23T09:54:23Z</time>
      </trkpt>
      <trkpt lat="44.74024" lon="6.85471">
        <ele>2193.5</ele>
        <time>2026-03-23T09:54:24Z</time>
      </trkpt>
      <trkpt lat="44.74024" lon="6.85472">
        <ele>2193.9</ele>
        <time>2026-03-23T09:54:25Z</time>
      </trkpt>
      <trkpt lat="44.74024" lon="6.85473">
        <ele>2193.9</ele>
        <time>2026-03-23T09:54:26Z</time>
      </trkpt>
      <trkpt lat="44.74025" lon="6.85473">
        <ele>2193.9</ele>
        <time>2026-03-23T09:54:27Z</time>
      </trkpt>
      <trkpt lat="44.74025" lon="6.85474">
        <ele>2193.9</ele>
        <time>2026-03-23T09:54:28Z</time>
      </trkpt>
      <trkpt lat="44.74026" lon="6.85474">
        <ele>2193.9</ele>
        <time>2026-03-23T09:54:29Z</time>
      </trkpt>
      <trkpt lat="44.74026" lon="6.85474">
        <ele>2194.9</ele>
        <time>2026-03-23T09:54:30Z</time>
      </trkpt>
      <trkpt lat="44.74026" lon="6.85475">
        <ele>2194.9</ele>
        <time>2026-03-23T09:54:31Z</time>
      </trkpt>
      <trkpt lat="44.74027" lon="6.85475">
        <ele>2194.9</ele>
        <time>2026-03-23T09:54:32Z</time>
      </trkpt>
      <trkpt lat="44.74027" lon="6.85476">
        <ele>2195.3</ele>
        <time>2026-03-23T09:54:33Z</time>
      </trkpt>
      <trkpt lat="44.74028" lon="6.85477">
        <ele>2195.3</ele>
        <time>2026-03-23T09:54:34Z</time>
      </trkpt>
      <trkpt lat="44.74028" lon="6.85477">
        <ele>2195.3</ele>
        <time>2026-03-23T09:54:35Z</time>
      </trkpt>
      <trkpt lat="44.74028" lon="6.85479">
        <ele>2196.4</ele>
        <time>2026-03-23T09:54:36Z</time>
      </trkpt>
      <trkpt lat="44.74028" lon="6.85481">
        <ele>2196.4</ele>
        <time>2026-03-23T09:54:37Z</time>
      </trkpt>
      <trkpt lat="44.74027" lon="6.85482">
        <ele>2196.4</ele>
        <time>2026-03-23T09:54:38Z</time>
      </trkpt>
      <trkpt lat="44.74027" lon="6.85483">
        <ele>2197.1</ele>
        <time>2026-03-23T09:54:40Z</time>
      </trkpt>
      <trkpt lat="44.74027" lon="6.85484">
        <ele>2197.1</ele>
        <time>2026-03-23T09:54:41Z</time>
      </trkpt>
      <trkpt lat="44.74026" lon="6.85484">
        <ele>2197.1</ele>
        <time>2026-03-23T09:54:42Z</time>
      </trkpt>
      <trkpt lat="44.74026" lon="6.85485">
        <ele>2197.1</ele>
        <time>2026-03-23T09:54:43Z</time>
      </trkpt>
      <trkpt lat="44.74026" lon="6.85485">
        <ele>2197.1</ele>
        <time>2026-03-23T09:54:44Z</time>
      </trkpt>
      <trkpt lat="44.74025" lon="6.85486">
        <ele>2197.1</ele>
        <time>2026-03-23T09:54:45Z</time>
      </trkpt>
      <trkpt lat="44.74025" lon="6.85486">
        <ele>2197.1</ele>
        <time>2026-03-23T09:54:46Z</time>
      </trkpt>
      <trkpt lat="44.74024" lon="6.85486">
        <ele>2196.7</ele>
        <time>2026-03-23T09:54:47Z</time>
      </trkpt>
      <trkpt lat="44.74023" lon="6.85486">
        <ele>2196.7</ele>
        <time>2026-03-23T09:54:48Z</time>
      </trkpt>
      <trkpt lat="44.74023" lon="6.85486">
        <ele>2196.7</ele>
        <time>2026-03-23T09:54:49Z</time>
      </trkpt>
      <trkpt lat="44.74023" lon="6.85486">
        <ele>2196.7</ele>
        <time>2026-03-23T09:54:50Z</time>
      </trkpt>
      <trkpt lat="44.74022" lon="6.85486">
        <ele>2196.7</ele>
        <time>2026-03-23T09:54:51Z</time>
      </trkpt>
      <trkpt lat="44.74022" lon="6.85486">
        <ele>2196.7</ele>
        <time>2026-03-23T09:54:52Z</time>
      </trkpt>
      <trkpt lat="44.74023" lon="6.85485">
        <ele>2196.7</ele>
        <time>2026-03-23T09:54:53Z</time>
      </trkpt>
      <trkpt lat="44.74023" lon="6.85485">
        <ele>2196.7</ele>
        <time>2026-03-23T09:54:54Z</time>
      </trkpt>
      <trkpt lat="44.74023" lon="6.85485">
        <ele>2196.7</ele>
        <time>2026-03-23T09:54:55Z</time>
      </trkpt>
      <trkpt lat="44.74023" lon="6.85485">
        <ele>2196.7</ele>
        <time>2026-03-23T09:54:56Z</time>
      </trkpt>
      <trkpt lat="44.74022" lon="6.85485">
        <ele>2196.7</ele>
        <time>2026-03-23T09:54:57Z</time>
      </trkpt>
      <trkpt lat="44.74021" lon="6.85485">
        <ele>2196.7</ele>
        <time>2026-03-23T09:54:58Z</time>
      </trkpt>
      <trkpt lat="44.74021" lon="6.85485">
        <ele>2196.4</ele>
        <time>2026-03-23T09:54:59Z</time>
      </trkpt>
      <trkpt lat="44.7402" lon="6.85485">
        <ele>2196.4</ele>
        <time>2026-03-23T09:55:00Z</time>
      </trkpt>
      <trkpt lat="44.74019" lon="6.85486">
        <ele>2196.4</ele>
        <time>2026-03-23T09:55:01Z</time>
      </trkpt>
      <trkpt lat="44.74019" lon="6.85486">
        <ele>2196.4</ele>
        <time>2026-03-23T09:55:02Z</time>
      </trkpt>
      <trkpt lat="44.74018" lon="6.85486">
        <ele>2196.4</ele>
        <time>2026-03-23T09:55:03Z</time>
      </trkpt>
      <trkpt lat="44.74018" lon="6.85486">
        <ele>2196.4</ele>
        <time>2026-03-23T09:55:04Z</time>
      </trkpt>
      <trkpt lat="44.74018" lon="6.85486">
        <ele>2196</ele>
        <time>2026-03-23T09:55:05Z</time>
      </trkpt>
      <trkpt lat="44.74018" lon="6.85486">
        <ele>2196</ele>
        <time>2026-03-23T09:55:06Z</time>
      </trkpt>
      <trkpt lat="44.74017" lon="6.85486">
        <ele>2196</ele>
        <time>2026-03-23T09:55:07Z</time>
      </trkpt>
      <trkpt lat="44.74016" lon="6.85487">
        <ele>2196</ele>
        <time>2026-03-23T09:55:08Z</time>
      </trkpt>
      <trkpt lat="44.74016" lon="6.85487">
        <ele>2196</ele>
        <time>2026-03-23T09:55:09Z</time>
      </trkpt>
      <trkpt lat="44.74015" lon="6.85487">
        <ele>2196</ele>
        <time>2026-03-23T09:55:10Z</time>
      </trkpt>
      <trkpt lat="44.74015" lon="6.85487">
        <ele>2196</ele>
        <time>2026-03-23T09:55:11Z</time>
      </trkpt>
      <trkpt lat="44.74015" lon="6.85487">
        <ele>2195.7</ele>
        <time>2026-03-23T09:55:12Z</time>
      </trkpt>
      <trkpt lat="44.74014" lon="6.85487">
        <ele>2195.7</ele>
        <time>2026-03-23T09:55:13Z</time>
      </trkpt>
      <trkpt lat="44.74014" lon="6.85487">
        <ele>2196.7</ele>
        <time>2026-03-23T09:55:14Z</time>
      </trkpt>
      <trkpt lat="44.74013" lon="6.85487">
        <ele>2196.7</ele>
        <time>2026-03-23T09:55:15Z</time>
      </trkpt>
      <trkpt lat="44.74013" lon="6.85487">
        <ele>2196.7</ele>
        <time>2026-03-23T09:55:16Z</time>
      </trkpt>
      <trkpt lat="44.74012" lon="6.85488">
        <ele>2196.4</ele>
        <time>2026-03-23T09:55:17Z</time>
      </trkpt>
      <trkpt lat="44.74011" lon="6.85488">
        <ele>2196.4</ele>
        <time>2026-03-23T09:55:18Z</time>
      </trkpt>
      <trkpt lat="44.74011" lon="6.85488">
        <ele>2196.4</ele>
        <time>2026-03-23T09:55:19Z</time>
      </trkpt>
      <trkpt lat="44.74011" lon="6.85488">
        <ele>2196.4</ele>
        <time>2026-03-23T09:55:20Z</time>
      </trkpt>
      <trkpt lat="44.7401" lon="6.85489">
        <ele>2196.4</ele>
        <time>2026-03-23T09:55:21Z</time>
      </trkpt>
      <trkpt lat="44.7401" lon="6.85489">
        <ele>2196.4</ele>
        <time>2026-03-23T09:55:22Z</time>
      </trkpt>
      <trkpt lat="44.74009" lon="6.85489">
        <ele>2196.4</ele>
        <time>2026-03-23T09:55:23Z</time>
      </trkpt>
      <trkpt lat="44.74009" lon="6.8549">
        <ele>2196</ele>
        <time>2026-03-23T09:55:24Z</time>
      </trkpt>
      <trkpt lat="44.74009" lon="6.8549">
        <ele>2196</ele>
        <time>2026-03-23T09:55:25Z</time>
      </trkpt>
      <trkpt lat="44.74008" lon="6.8549">
        <ele>2196</ele>
        <time>2026-03-23T09:55:26Z</time>
      </trkpt>
      <trkpt lat="44.74008" lon="6.85491">
        <ele>2196</ele>
        <time>2026-03-23T09:55:27Z</time>
      </trkpt>
      <trkpt lat="44.74008" lon="6.85491">
        <ele>2196</ele>
        <time>2026-03-23T09:55:28Z</time>
      </trkpt>
      <trkpt lat="44.74006" lon="6.85492">
        <ele>2197</ele>
        <time>2026-03-23T09:55:29Z</time>
      </trkpt>
      <trkpt lat="44.74005" lon="6.85493">
        <ele>2196.5</ele>
        <time>2026-03-23T09:55:30Z</time>
      </trkpt>
      <trkpt lat="44.74005" lon="6.85494">
        <ele>2196.5</ele>
        <time>2026-03-23T09:55:31Z</time>
      </trkpt>
      <trkpt lat="44.74005" lon="6.85495">
        <ele>2196.5</ele>
        <time>2026-03-23T09:55:32Z</time>
      </trkpt>
      <trkpt lat="44.74004" lon="6.85496">
        <ele>2197.5</ele>
        <time>2026-03-23T09:55:33Z</time>
      </trkpt>
      <trkpt lat="44.74004" lon="6.85497">
        <ele>2197.5</ele>
        <time>2026-03-23T09:55:34Z</time>
      </trkpt>
      <trkpt lat="44.74004" lon="6.85498">
        <ele>2197.5</ele>
        <time>2026-03-23T09:55:35Z</time>
      </trkpt>
      <trkpt lat="44.74005" lon="6.85498">
        <ele>2197.5</ele>
        <time>2026-03-23T09:55:37Z</time>
      </trkpt>
      <trkpt lat="44.74005" lon="6.85498">
        <ele>2197.5</ele>
        <time>2026-03-23T09:55:38Z</time>
      </trkpt>
      <trkpt lat="44.74005" lon="6.85498">
        <ele>2197.5</ele>
        <time>2026-03-23T09:55:39Z</time>
      </trkpt>
      <trkpt lat="44.74006" lon="6.85499">
        <ele>2197.5</ele>
        <time>2026-03-23T09:55:40Z</time>
      </trkpt>
      <trkpt lat="44.74006" lon="6.85499">
        <ele>2197.5</ele>
        <time>2026-03-23T09:55:41Z</time>
      </trkpt>
      <trkpt lat="44.74006" lon="6.85499">
        <ele>2198</ele>
        <time>2026-03-23T09:55:42Z</time>
      </trkpt>
      <trkpt lat="44.74006" lon="6.85499">
        <ele>2198</ele>
        <time>2026-03-23T09:55:43Z</time>
      </trkpt>
      <trkpt lat="44.74007" lon="6.85499">
        <ele>2198</ele>
        <time>2026-03-23T09:55:44Z</time>
      </trkpt>
      <trkpt lat="44.74007" lon="6.85499">
        <ele>2198</ele>
        <time>2026-03-23T09:55:45Z</time>
      </trkpt>
      <trkpt lat="44.74007" lon="6.855">
        <ele>2198.9</ele>
        <time>2026-03-23T09:55:46Z</time>
      </trkpt>
      <trkpt lat="44.74008" lon="6.855">
        <ele>2198.9</ele>
        <time>2026-03-23T09:55:47Z</time>
      </trkpt>
      <trkpt lat="44.74008" lon="6.855">
        <ele>2198.9</ele>
        <time>2026-03-23T09:55:48Z</time>
      </trkpt>
      <trkpt lat="44.74008" lon="6.855">
        <ele>2198.9</ele>
        <time>2026-03-23T09:55:49Z</time>
      </trkpt>
      <trkpt lat="44.74008" lon="6.855">
        <ele>2198.9</ele>
        <time>2026-03-23T09:55:50Z</time>
      </trkpt>
      <trkpt lat="44.7401" lon="6.855">
        <ele>2199.4</ele>
        <time>2026-03-23T09:55:51Z</time>
      </trkpt>
      <trkpt lat="44.74011" lon="6.85501">
        <ele>2199.4</ele>
        <time>2026-03-23T09:55:52Z</time>
      </trkpt>
      <trkpt lat="44.74012" lon="6.85501">
        <ele>2199.4</ele>
        <time>2026-03-23T09:55:53Z</time>
      </trkpt>
      <trkpt lat="44.74012" lon="6.85502">
        <ele>2199.7</ele>
        <time>2026-03-23T09:55:54Z</time>
      </trkpt>
      <trkpt lat="44.74013" lon="6.85502">
        <ele>2199.7</ele>
        <time>2026-03-23T09:55:56Z</time>
      </trkpt>
      <trkpt lat="44.74014" lon="6.85503">
        <ele>2199.7</ele>
        <time>2026-03-23T09:55:57Z</time>
      </trkpt>
      <trkpt lat="44.74014" lon="6.85503">
        <ele>2199.7</ele>
        <time>2026-03-23T09:55:58Z</time>
      </trkpt>
      <trkpt lat="44.74015" lon="6.85504">
        <ele>2199.7</ele>
        <time>2026-03-23T09:55:59Z</time>
      </trkpt>
      <trkpt lat="44.74015" lon="6.85505">
        <ele>2201</ele>
        <time>2026-03-23T09:56:00Z</time>
      </trkpt>
      <trkpt lat="44.74016" lon="6.85505">
        <ele>2201</ele>
        <time>2026-03-23T09:56:01Z</time>
      </trkpt>
      <trkpt lat="44.74016" lon="6.85506">
        <ele>2201</ele>
        <time>2026-03-23T09:56:02Z</time>
      </trkpt>
      <trkpt lat="44.74017" lon="6.85507">
        <ele>2201</ele>
        <time>2026-03-23T09:56:03Z</time>
      </trkpt>
      <trkpt lat="44.74017" lon="6.85507">
        <ele>2201</ele>
        <time>2026-03-23T09:56:04Z</time>
      </trkpt>
      <trkpt lat="44.74017" lon="6.85508">
        <ele>2201</ele>
        <time>2026-03-23T09:56:05Z</time>
      </trkpt>
      <trkpt lat="44.74018" lon="6.85508">
        <ele>2201.9</ele>
        <time>2026-03-23T09:56:06Z</time>
      </trkpt>
      <trkpt lat="44.74018" lon="6.85509">
        <ele>2201.9</ele>
        <time>2026-03-23T09:56:07Z</time>
      </trkpt>
      <trkpt lat="44.74018" lon="6.8551">
        <ele>2201.9</ele>
        <time>2026-03-23T09:56:08Z</time>
      </trkpt>
      <trkpt lat="44.74018" lon="6.8551">
        <ele>2202.3</ele>
        <time>2026-03-23T09:56:09Z</time>
      </trkpt>
      <trkpt lat="44.74018" lon="6.85511">
        <ele>2202.3</ele>
        <time>2026-03-23T09:56:10Z</time>
      </trkpt>
      <trkpt lat="44.74019" lon="6.85511">
        <ele>2202.3</ele>
        <time>2026-03-23T09:56:11Z</time>
      </trkpt>
      <trkpt lat="44.74019" lon="6.85511">
        <ele>2202.3</ele>
        <time>2026-03-23T09:56:12Z</time>
      </trkpt>
      <trkpt lat="44.74019" lon="6.85512">
        <ele>2202.3</ele>
        <time>2026-03-23T09:56:13Z</time>
      </trkpt>
      <trkpt lat="44.74019" lon="6.85512">
        <ele>2202.3</ele>
        <time>2026-03-23T09:56:14Z</time>
      </trkpt>
      <trkpt lat="44.74019" lon="6.85512">
        <ele>2202.3</ele>
        <time>2026-03-23T09:56:15Z</time>
      </trkpt>
      <trkpt lat="44.74019" lon="6.85512">
        <ele>2202.3</ele>
        <time>2026-03-23T09:56:16Z</time>
      </trkpt>
      <trkpt lat="44.7402" lon="6.85512">
        <ele>2202.3</ele>
        <time>2026-03-23T09:56:17Z</time>
      </trkpt>
      <trkpt lat="44.7402" lon="6.85513">
        <ele>2203.2</ele>
        <time>2026-03-23T09:56:18Z</time>
      </trkpt>
      <trkpt lat="44.7402" lon="6.85513">
        <ele>2203.2</ele>
        <time>2026-03-23T09:56:19Z</time>
      </trkpt>
      <trkpt lat="44.7402" lon="6.85514">
        <ele>2203.2</ele>
        <time>2026-03-23T09:56:20Z</time>
      </trkpt>
      <trkpt lat="44.7402" lon="6.85514">
        <ele>2203.2</ele>
        <time>2026-03-23T09:56:21Z</time>
      </trkpt>
      <trkpt lat="44.7402" lon="6.85515">
        <ele>2203.2</ele>
        <time>2026-03-23T09:56:22Z</time>
      </trkpt>
      <trkpt lat="44.7402" lon="6.85515">
        <ele>2203.2</ele>
        <time>2026-03-23T09:56:23Z</time>
      </trkpt>
      <trkpt lat="44.74019" lon="6.85516">
        <ele>2203.2</ele>
        <time>2026-03-23T09:56:24Z</time>
      </trkpt>
      <trkpt lat="44.74019" lon="6.85516">
        <ele>2203.2</ele>
        <time>2026-03-23T09:56:25Z</time>
      </trkpt>
      <trkpt lat="44.74019" lon="6.85517">
        <ele>2204.2</ele>
        <time>2026-03-23T09:56:26Z</time>
      </trkpt>
      <trkpt lat="44.74019" lon="6.85518">
        <ele>2204.2</ele>
        <time>2026-03-23T09:56:27Z</time>
      </trkpt>
      <trkpt lat="44.74018" lon="6.85519">
        <ele>2204.2</ele>
        <time>2026-03-23T09:56:28Z</time>
      </trkpt>
      <trkpt lat="44.74018" lon="6.85519">
        <ele>2204.2</ele>
        <time>2026-03-23T09:56:29Z</time>
      </trkpt>
      <trkpt lat="44.74019" lon="6.85519">
        <ele>2204.2</ele>
        <time>2026-03-23T09:56:30Z</time>
      </trkpt>
      <trkpt lat="44.74019" lon="6.85519">
        <ele>2204.2</ele>
        <time>2026-03-23T09:56:31Z</time>
      </trkpt>
      <trkpt lat="44.74019" lon="6.8552">
        <ele>2204.1</ele>
        <time>2026-03-23T09:56:32Z</time>
      </trkpt>
      <trkpt lat="44.74019" lon="6.8552">
        <ele>2204.1</ele>
        <time>2026-03-23T09:56:33Z</time>
      </trkpt>
      <trkpt lat="44.74019" lon="6.85521">
        <ele>2204.1</ele>
        <time>2026-03-23T09:56:34Z</time>
      </trkpt>
      <trkpt lat="44.74018" lon="6.85522">
        <ele>2205.2</ele>
        <time>2026-03-23T09:56:35Z</time>
      </trkpt>
      <trkpt lat="44.74018" lon="6.85523">
        <ele>2205.2</ele>
        <time>2026-03-23T09:56:36Z</time>
      </trkpt>
      <trkpt lat="44.74018" lon="6.85523">
        <ele>2205.2</ele>
        <time>2026-03-23T09:56:37Z</time>
      </trkpt>
      <trkpt lat="44.74018" lon="6.85524">
        <ele>2204.8</ele>
        <time>2026-03-23T09:56:38Z</time>
      </trkpt>
      <trkpt lat="44.74018" lon="6.85525">
        <ele>2204.8</ele>
        <time>2026-03-23T09:56:39Z</time>
      </trkpt>
      <trkpt lat="44.74018" lon="6.85525">
        <ele>2204.8</ele>
        <time>2026-03-23T09:56:40Z</time>
      </trkpt>
      <trkpt lat="44.74018" lon="6.85526">
        <ele>2205.9</ele>
        <time>2026-03-23T09:56:41Z</time>
      </trkpt>
      <trkpt lat="44.74017" lon="6.85526">
        <ele>2205.9</ele>
        <time>2026-03-23T09:56:42Z</time>
      </trkpt>
      <trkpt lat="44.74017" lon="6.85527">
        <ele>2205.9</ele>
        <time>2026-03-23T09:56:43Z</time>
      </trkpt>
      <trkpt lat="44.74017" lon="6.85527">
        <ele>2205.9</ele>
        <time>2026-03-23T09:56:44Z</time>
      </trkpt>
      <trkpt lat="44.74017" lon="6.85528">
        <ele>2205.9</ele>
        <time>2026-03-23T09:56:45Z</time>
      </trkpt>
      <trkpt lat="44.74016" lon="6.85528">
        <ele>2205.9</ele>
        <time>2026-03-23T09:56:46Z</time>
      </trkpt>
      <trkpt lat="44.74016" lon="6.85529">
        <ele>2205.9</ele>
        <time>2026-03-23T09:56:47Z</time>
      </trkpt>
      <trkpt lat="44.74016" lon="6.85529">
        <ele>2205.9</ele>
        <time>2026-03-23T09:56:48Z</time>
      </trkpt>
      <trkpt lat="44.74015" lon="6.8553">
        <ele>2205.9</ele>
        <time>2026-03-23T09:56:49Z</time>
      </trkpt>
      <trkpt lat="44.74015" lon="6.8553">
        <ele>2207</ele>
        <time>2026-03-23T09:56:50Z</time>
      </trkpt>
      <trkpt lat="44.74015" lon="6.8553">
        <ele>2206.7</ele>
        <time>2026-03-23T09:56:51Z</time>
      </trkpt>
      <trkpt lat="44.74015" lon="6.85531">
        <ele>2206.7</ele>
        <time>2026-03-23T09:56:52Z</time>
      </trkpt>
      <trkpt lat="44.74014" lon="6.85531">
        <ele>2206.7</ele>
        <time>2026-03-23T09:56:53Z</time>
      </trkpt>
      <trkpt lat="44.74014" lon="6.85531">
        <ele>2206.7</ele>
        <time>2026-03-23T09:56:55Z</time>
      </trkpt>
      <trkpt lat="44.74013" lon="6.85532">
        <ele>2206.7</ele>
        <time>2026-03-23T09:56:56Z</time>
      </trkpt>
      <trkpt lat="44.74013" lon="6.85532">
        <ele>2206.6</ele>
        <time>2026-03-23T09:56:57Z</time>
      </trkpt>
      <trkpt lat="44.74012" lon="6.85532">
        <ele>2206.6</ele>
        <time>2026-03-23T09:56:58Z</time>
      </trkpt>
      <trkpt lat="44.74012" lon="6.85532">
        <ele>2206.3</ele>
        <time>2026-03-23T09:56:59Z</time>
      </trkpt>
      <trkpt lat="44.74011" lon="6.85532">
        <ele>2206.3</ele>
        <time>2026-03-23T09:57:00Z</time>
      </trkpt>
      <trkpt lat="44.74011" lon="6.85532">
        <ele>2206.3</ele>
        <time>2026-03-23T09:57:01Z</time>
      </trkpt>
      <trkpt lat="44.74011" lon="6.85532">
        <ele>2206.3</ele>
        <time>2026-03-23T09:57:02Z</time>
      </trkpt>
      <trkpt lat="44.7401" lon="6.85532">
        <ele>2206.3</ele>
        <time>2026-03-23T09:57:03Z</time>
      </trkpt>
      <trkpt lat="44.74009" lon="6.85533">
        <ele>2206.3</ele>
        <time>2026-03-23T09:57:04Z</time>
      </trkpt>
      <trkpt lat="44.74008" lon="6.85534">
        <ele>2205.9</ele>
        <time>2026-03-23T09:57:06Z</time>
      </trkpt>
      <trkpt lat="44.74007" lon="6.85535">
        <ele>2207.1</ele>
        <time>2026-03-23T09:57:07Z</time>
      </trkpt>
      <trkpt lat="44.74006" lon="6.85536">
        <ele>2207.1</ele>
        <time>2026-03-23T09:57:08Z</time>
      </trkpt>
      <trkpt lat="44.74005" lon="6.85536">
        <ele>2206.7</ele>
        <time>2026-03-23T09:57:09Z</time>
      </trkpt>
      <trkpt lat="44.74004" lon="6.85537">
        <ele>2206.7</ele>
        <time>2026-03-23T09:57:10Z</time>
      </trkpt>
      <trkpt lat="44.74003" lon="6.85538">
        <ele>2206.7</ele>
        <time>2026-03-23T09:57:11Z</time>
      </trkpt>
      <trkpt lat="44.74002" lon="6.85538">
        <ele>2206.3</ele>
        <time>2026-03-23T09:57:13Z</time>
      </trkpt>
      <trkpt lat="44.74003" lon="6.85538">
        <ele>2206.7</ele>
        <time>2026-03-23T09:57:14Z</time>
      </trkpt>
      <trkpt lat="44.74002" lon="6.85538">
        <ele>2206.3</ele>
        <time>2026-03-23T09:57:15Z</time>
      </trkpt>
      <trkpt lat="44.74003" lon="6.85538">
        <ele>2206.3</ele>
        <time>2026-03-23T09:57:16Z</time>
      </trkpt>
      <trkpt lat="44.74002" lon="6.85538">
        <ele>2206.3</ele>
        <time>2026-03-23T09:57:17Z</time>
      </trkpt>
      <trkpt lat="44.74002" lon="6.85537">
        <ele>2206.3</ele>
        <time>2026-03-23T09:57:18Z</time>
      </trkpt>
      <trkpt lat="44.74002" lon="6.85537">
        <ele>2206.3</ele>
        <time>2026-03-23T09:57:19Z</time>
      </trkpt>
      <trkpt lat="44.74002" lon="6.85537">
        <ele>2206.3</ele>
        <time>2026-03-23T09:57:20Z</time>
      </trkpt>
      <trkpt lat="44.74002" lon="6.85537">
        <ele>2206.3</ele>
        <time>2026-03-23T09:57:21Z</time>
      </trkpt>
      <trkpt lat="44.74002" lon="6.85537">
        <ele>2206.3</ele>
        <time>2026-03-23T09:57:22Z</time>
      </trkpt>
      <trkpt lat="44.74002" lon="6.85537">
        <ele>2206.3</ele>
        <time>2026-03-23T09:57:23Z</time>
      </trkpt>
      <trkpt lat="44.74002" lon="6.85537">
        <ele>2206.3</ele>
        <time>2026-03-23T09:57:24Z</time>
      </trkpt>
      <trkpt lat="44.74001" lon="6.85538">
        <ele>2206.3</ele>
        <time>2026-03-23T09:57:25Z</time>
      </trkpt>
      <trkpt lat="44.74" lon="6.85538">
        <ele>2206.3</ele>
        <time>2026-03-23T09:57:26Z</time>
      </trkpt>
      <trkpt lat="44.73999" lon="6.85538">
        <ele>2207.1</ele>
        <time>2026-03-23T09:57:27Z</time>
      </trkpt>
      <trkpt lat="44.73998" lon="6.85539">
        <ele>2207.1</ele>
        <time>2026-03-23T09:57:28Z</time>
      </trkpt>
      <trkpt lat="44.73998" lon="6.8554">
        <ele>2207.1</ele>
        <time>2026-03-23T09:57:29Z</time>
      </trkpt>
      <trkpt lat="44.73998" lon="6.85541">
        <ele>2207.1</ele>
        <time>2026-03-23T09:57:30Z</time>
      </trkpt>
      <trkpt lat="44.73998" lon="6.85541">
        <ele>2207.1</ele>
        <time>2026-03-23T09:57:31Z</time>
      </trkpt>
      <trkpt lat="44.73997" lon="6.85541">
        <ele>2207.1</ele>
        <time>2026-03-23T09:57:32Z</time>
      </trkpt>
      <trkpt lat="44.73997" lon="6.85542">
        <ele>2207.1</ele>
        <time>2026-03-23T09:57:33Z</time>
      </trkpt>
      <trkpt lat="44.73997" lon="6.85542">
        <ele>2206.7</ele>
        <time>2026-03-23T09:57:34Z</time>
      </trkpt>
      <trkpt lat="44.73997" lon="6.85543">
        <ele>2207.9</ele>
        <time>2026-03-23T09:57:35Z</time>
      </trkpt>
      <trkpt lat="44.73996" lon="6.85543">
        <ele>2207.9</ele>
        <time>2026-03-23T09:57:36Z</time>
      </trkpt>
      <trkpt lat="44.73996" lon="6.85544">
        <ele>2207.9</ele>
        <time>2026-03-23T09:57:37Z</time>
      </trkpt>
      <trkpt lat="44.73995" lon="6.85545">
        <ele>2207.9</ele>
        <time>2026-03-23T09:57:39Z</time>
      </trkpt>
      <trkpt lat="44.73996" lon="6.85545">
        <ele>2207.9</ele>
        <time>2026-03-23T09:57:40Z</time>
      </trkpt>
      <trkpt lat="44.73996" lon="6.85545">
        <ele>2207.9</ele>
        <time>2026-03-23T09:57:41Z</time>
      </trkpt>
      <trkpt lat="44.73996" lon="6.85545">
        <ele>2207.9</ele>
        <time>2026-03-23T09:57:42Z</time>
      </trkpt>
      <trkpt lat="44.73996" lon="6.85545">
        <ele>2207.9</ele>
        <time>2026-03-23T09:57:43Z</time>
      </trkpt>
      <trkpt lat="44.73996" lon="6.85546">
        <ele>2207.9</ele>
        <time>2026-03-23T09:57:44Z</time>
      </trkpt>
      <trkpt lat="44.73996" lon="6.85546">
        <ele>2207.9</ele>
        <time>2026-03-23T09:57:45Z</time>
      </trkpt>
      <trkpt lat="44.73996" lon="6.85546">
        <ele>2207.9</ele>
        <time>2026-03-23T09:57:46Z</time>
      </trkpt>
      <trkpt lat="44.73996" lon="6.85547">
        <ele>2207.9</ele>
        <time>2026-03-23T09:57:47Z</time>
      </trkpt>
      <trkpt lat="44.73995" lon="6.85547">
        <ele>2209.8</ele>
        <time>2026-03-23T09:57:48Z</time>
      </trkpt>
      <trkpt lat="44.73994" lon="6.85548">
        <ele>2209.8</ele>
        <time>2026-03-23T09:57:49Z</time>
      </trkpt>
      <trkpt lat="44.73993" lon="6.85549">
        <ele>2209.4</ele>
        <time>2026-03-23T09:57:50Z</time>
      </trkpt>
      <trkpt lat="44.73993" lon="6.85549">
        <ele>2209.4</ele>
        <time>2026-03-23T09:57:51Z</time>
      </trkpt>
      <trkpt lat="44.73993" lon="6.85549">
        <ele>2209.4</ele>
        <time>2026-03-23T09:57:52Z</time>
      </trkpt>
      <trkpt lat="44.73992" lon="6.85549">
        <ele>2209.4</ele>
        <time>2026-03-23T09:57:53Z</time>
      </trkpt>
      <trkpt lat="44.73992" lon="6.8555">
        <ele>2209.4</ele>
        <time>2026-03-23T09:57:54Z</time>
      </trkpt>
      <trkpt lat="44.73991" lon="6.8555">
        <ele>2209.4</ele>
        <time>2026-03-23T09:57:55Z</time>
      </trkpt>
      <trkpt lat="44.73991" lon="6.85551">
        <ele>2209.4</ele>
        <time>2026-03-23T09:57:56Z</time>
      </trkpt>
      <trkpt lat="44.7399" lon="6.85552">
        <ele>2210.3</ele>
        <time>2026-03-23T09:57:57Z</time>
      </trkpt>
      <trkpt lat="44.7399" lon="6.85552">
        <ele>2210.3</ele>
        <time>2026-03-23T09:57:58Z</time>
      </trkpt>
      <trkpt lat="44.7399" lon="6.85553">
        <ele>2210.3</ele>
        <time>2026-03-23T09:58:00Z</time>
      </trkpt>
      <trkpt lat="44.7399" lon="6.85554">
        <ele>2210.3</ele>
        <time>2026-03-23T09:58:01Z</time>
      </trkpt>
      <trkpt lat="44.7399" lon="6.85555">
        <ele>2210.3</ele>
        <time>2026-03-23T09:58:02Z</time>
      </trkpt>
      <trkpt lat="44.73991" lon="6.85556">
        <ele>2211.7</ele>
        <time>2026-03-23T09:58:03Z</time>
      </trkpt>
      <trkpt lat="44.73991" lon="6.85556">
        <ele>2211.7</ele>
        <time>2026-03-23T09:58:04Z</time>
      </trkpt>
      <trkpt lat="44.73991" lon="6.85557">
        <ele>2211.7</ele>
        <time>2026-03-23T09:58:05Z</time>
      </trkpt>
      <trkpt lat="44.73991" lon="6.85557">
        <ele>2211.7</ele>
        <time>2026-03-23T09:58:07Z</time>
      </trkpt>
      <trkpt lat="44.73991" lon="6.85558">
        <ele>2211.7</ele>
        <time>2026-03-23T09:58:08Z</time>
      </trkpt>
      <trkpt lat="44.73991" lon="6.85558">
        <ele>2211.7</ele>
        <time>2026-03-23T09:58:10Z</time>
      </trkpt>
      <trkpt lat="44.7399" lon="6.85559">
        <ele>2211.4</ele>
        <time>2026-03-23T09:58:11Z</time>
      </trkpt>
      <trkpt lat="44.7399" lon="6.85559">
        <ele>2211.4</ele>
        <time>2026-03-23T09:58:12Z</time>
      </trkpt>
      <trkpt lat="44.7399" lon="6.8556">
        <ele>2211.4</ele>
        <time>2026-03-23T09:58:13Z</time>
      </trkpt>
      <trkpt lat="44.7399" lon="6.8556">
        <ele>2212.6</ele>
        <time>2026-03-23T09:58:14Z</time>
      </trkpt>
      <trkpt lat="44.7399" lon="6.85561">
        <ele>2212.6</ele>
        <time>2026-03-23T09:58:15Z</time>
      </trkpt>
      <trkpt lat="44.73989" lon="6.85561">
        <ele>2212.6</ele>
        <time>2026-03-23T09:58:16Z</time>
      </trkpt>
      <trkpt lat="44.73989" lon="6.85561">
        <ele>2212.6</ele>
        <time>2026-03-23T09:58:17Z</time>
      </trkpt>
      <trkpt lat="44.73989" lon="6.85561">
        <ele>2212.6</ele>
        <time>2026-03-23T09:58:18Z</time>
      </trkpt>
      <trkpt lat="44.73989" lon="6.85561">
        <ele>2212.6</ele>
        <time>2026-03-23T09:58:19Z</time>
      </trkpt>
      <trkpt lat="44.73989" lon="6.85561">
        <ele>2212.6</ele>
        <time>2026-03-23T09:58:20Z</time>
      </trkpt>
      <trkpt lat="44.7399" lon="6.85562">
        <ele>2212.6</ele>
        <time>2026-03-23T09:58:21Z</time>
      </trkpt>
      <trkpt lat="44.7399" lon="6.85562">
        <ele>2212.6</ele>
        <time>2026-03-23T09:58:22Z</time>
      </trkpt>
      <trkpt lat="44.7399" lon="6.85563">
        <ele>2212.6</ele>
        <time>2026-03-23T09:58:23Z</time>
      </trkpt>
      <trkpt lat="44.7399" lon="6.85564">
        <ele>2212.6</ele>
        <time>2026-03-23T09:58:24Z</time>
      </trkpt>
      <trkpt lat="44.73989" lon="6.85564">
        <ele>2213.8</ele>
        <time>2026-03-23T09:58:25Z</time>
      </trkpt>
      <trkpt lat="44.73989" lon="6.85565">
        <ele>2213.8</ele>
        <time>2026-03-23T09:58:26Z</time>
      </trkpt>
      <trkpt lat="44.73989" lon="6.85566">
        <ele>2213.8</ele>
        <time>2026-03-23T09:58:27Z</time>
      </trkpt>
      <trkpt lat="44.73989" lon="6.85566">
        <ele>2213.8</ele>
        <time>2026-03-23T09:58:28Z</time>
      </trkpt>
      <trkpt lat="44.73988" lon="6.85567">
        <ele>2213.7</ele>
        <time>2026-03-23T09:58:29Z</time>
      </trkpt>
      <trkpt lat="44.73988" lon="6.85567">
        <ele>2213.7</ele>
        <time>2026-03-23T09:58:30Z</time>
      </trkpt>
      <trkpt lat="44.73988" lon="6.85567">
        <ele>2213.7</ele>
        <time>2026-03-23T09:58:31Z</time>
      </trkpt>
      <trkpt lat="44.73988" lon="6.85568">
        <ele>2213.7</ele>
        <time>2026-03-23T09:58:32Z</time>
      </trkpt>
      <trkpt lat="44.73988" lon="6.85568">
        <ele>2213.7</ele>
        <time>2026-03-23T09:58:33Z</time>
      </trkpt>
      <trkpt lat="44.73988" lon="6.85568">
        <ele>2215</ele>
        <time>2026-03-23T09:58:34Z</time>
      </trkpt>
      <trkpt lat="44.73989" lon="6.85568">
        <ele>2213.7</ele>
        <time>2026-03-23T09:58:35Z</time>
      </trkpt>
      <trkpt lat="44.73989" lon="6.85569">
        <ele>2215</ele>
        <time>2026-03-23T09:58:36Z</time>
      </trkpt>
      <trkpt lat="44.7399" lon="6.85569">
        <ele>2215</ele>
        <time>2026-03-23T09:58:37Z</time>
      </trkpt>
      <trkpt lat="44.7399" lon="6.85569">
        <ele>2215</ele>
        <time>2026-03-23T09:58:38Z</time>
      </trkpt>
      <trkpt lat="44.73991" lon="6.8557">
        <ele>2215.3</ele>
        <time>2026-03-23T09:58:39Z</time>
      </trkpt>
      <trkpt lat="44.73991" lon="6.8557">
        <ele>2215.3</ele>
        <time>2026-03-23T09:58:40Z</time>
      </trkpt>
      <trkpt lat="44.73991" lon="6.8557">
        <ele>2215.3</ele>
        <time>2026-03-23T09:58:41Z</time>
      </trkpt>
      <trkpt lat="44.73993" lon="6.85571">
        <ele>2215.3</ele>
        <time>2026-03-23T09:58:42Z</time>
      </trkpt>
      <trkpt lat="44.73994" lon="6.85572">
        <ele>2215.6</ele>
        <time>2026-03-23T09:58:43Z</time>
      </trkpt>
      <trkpt lat="44.73995" lon="6.85573">
        <ele>2215.6</ele>
        <time>2026-03-23T09:58:44Z</time>
      </trkpt>
      <trkpt lat="44.73995" lon="6.85573">
        <ele>2216.9</ele>
        <time>2026-03-23T09:58:45Z</time>
      </trkpt>
      <trkpt lat="44.73996" lon="6.85573">
        <ele>2216.9</ele>
        <time>2026-03-23T09:58:46Z</time>
      </trkpt>
      <trkpt lat="44.73996" lon="6.85574">
        <ele>2216.9</ele>
        <time>2026-03-23T09:58:47Z</time>
      </trkpt>
      <trkpt lat="44.73997" lon="6.85574">
        <ele>2216.9</ele>
        <time>2026-03-23T09:58:48Z</time>
      </trkpt>
      <trkpt lat="44.73997" lon="6.85574">
        <ele>2217.3</ele>
        <time>2026-03-23T09:58:49Z</time>
      </trkpt>
      <trkpt lat="44.73998" lon="6.85575">
        <ele>2217.3</ele>
        <time>2026-03-23T09:58:50Z</time>
      </trkpt>
      <trkpt lat="44.73999" lon="6.85575">
        <ele>2217.3</ele>
        <time>2026-03-23T09:58:51Z</time>
      </trkpt>
      <trkpt lat="44.73999" lon="6.85576">
        <ele>2217.3</ele>
        <time>2026-03-23T09:58:52Z</time>
      </trkpt>
      <trkpt lat="44.74" lon="6.85577">
        <ele>2217.7</ele>
        <time>2026-03-23T09:58:53Z</time>
      </trkpt>
      <trkpt lat="44.74001" lon="6.85577">
        <ele>2219</ele>
        <time>2026-03-23T09:58:54Z</time>
      </trkpt>
      <trkpt lat="44.74002" lon="6.85578">
        <ele>2219</ele>
        <time>2026-03-23T09:58:55Z</time>
      </trkpt>
      <trkpt lat="44.74002" lon="6.85578">
        <ele>2219</ele>
        <time>2026-03-23T09:58:56Z</time>
      </trkpt>
      <trkpt lat="44.74003" lon="6.85579">
        <ele>2219.5</ele>
        <time>2026-03-23T09:58:57Z</time>
      </trkpt>
      <trkpt lat="44.74004" lon="6.8558">
        <ele>2219.5</ele>
        <time>2026-03-23T09:58:58Z</time>
      </trkpt>
      <trkpt lat="44.74005" lon="6.85581">
        <ele>2219.5</ele>
        <time>2026-03-23T09:58:59Z</time>
      </trkpt>
      <trkpt lat="44.74005" lon="6.85581">
        <ele>2219.5</ele>
        <time>2026-03-23T09:59:00Z</time>
      </trkpt>
      <trkpt lat="44.74006" lon="6.85582">
        <ele>2220.8</ele>
        <time>2026-03-23T09:59:01Z</time>
      </trkpt>
      <trkpt lat="44.74006" lon="6.85583">
        <ele>2220.8</ele>
        <time>2026-03-23T09:59:02Z</time>
      </trkpt>
      <trkpt lat="44.74006" lon="6.85583">
        <ele>2221.2</ele>
        <time>2026-03-23T09:59:03Z</time>
      </trkpt>
      <trkpt lat="44.74006" lon="6.85584">
        <ele>2221.2</ele>
        <time>2026-03-23T09:59:04Z</time>
      </trkpt>
      <trkpt lat="44.74006" lon="6.85585">
        <ele>2221.2</ele>
        <time>2026-03-23T09:59:05Z</time>
      </trkpt>
      <trkpt lat="44.74007" lon="6.85586">
        <ele>2222.4</ele>
        <time>2026-03-23T09:59:06Z</time>
      </trkpt>
      <trkpt lat="44.74007" lon="6.85587">
        <ele>2222.4</ele>
        <time>2026-03-23T09:59:07Z</time>
      </trkpt>
      <trkpt lat="44.74007" lon="6.85588">
        <ele>2222.4</ele>
        <time>2026-03-23T09:59:08Z</time>
      </trkpt>
      <trkpt lat="44.74007" lon="6.8559">
        <ele>2223.6</ele>
        <time>2026-03-23T09:59:09Z</time>
      </trkpt>
      <trkpt lat="44.74007" lon="6.85591">
        <ele>2223.6</ele>
        <time>2026-03-23T09:59:11Z</time>
      </trkpt>
      <trkpt lat="44.74007" lon="6.85592">
        <ele>2223.6</ele>
        <time>2026-03-23T09:59:12Z</time>
      </trkpt>
      <trkpt lat="44.74007" lon="6.85592">
        <ele>2223.6</ele>
        <time>2026-03-23T09:59:13Z</time>
      </trkpt>
      <trkpt lat="44.74007" lon="6.85593">
        <ele>2223.6</ele>
        <time>2026-03-23T09:59:14Z</time>
      </trkpt>
      <trkpt lat="44.74008" lon="6.85593">
        <ele>2223.6</ele>
        <time>2026-03-23T09:59:15Z</time>
      </trkpt>
      <trkpt lat="44.74008" lon="6.85594">
        <ele>2224.7</ele>
        <time>2026-03-23T09:59:16Z</time>
      </trkpt>
      <trkpt lat="44.74008" lon="6.85595">
        <ele>2224.7</ele>
        <time>2026-03-23T09:59:17Z</time>
      </trkpt>
      <trkpt lat="44.74008" lon="6.85596">
        <ele>2224.7</ele>
        <time>2026-03-23T09:59:18Z</time>
      </trkpt>
      <trkpt lat="44.74009" lon="6.85596">
        <ele>2224.7</ele>
        <time>2026-03-23T09:59:19Z</time>
      </trkpt>
      <trkpt lat="44.74009" lon="6.85597">
        <ele>2224.7</ele>
        <time>2026-03-23T09:59:20Z</time>
      </trkpt>
      <trkpt lat="44.74009" lon="6.85597">
        <ele>2224.7</ele>
        <time>2026-03-23T09:59:21Z</time>
      </trkpt>
      <trkpt lat="44.74008" lon="6.85598">
        <ele>2224.7</ele>
        <time>2026-03-23T09:59:22Z</time>
      </trkpt>
      <trkpt lat="44.74008" lon="6.85599">
        <ele>2225.8</ele>
        <time>2026-03-23T09:59:23Z</time>
      </trkpt>
      <trkpt lat="44.74009" lon="6.85599">
        <ele>2225.8</ele>
        <time>2026-03-23T09:59:24Z</time>
      </trkpt>
      <trkpt lat="44.74009" lon="6.856">
        <ele>2225.8</ele>
        <time>2026-03-23T09:59:25Z</time>
      </trkpt>
      <trkpt lat="44.74009" lon="6.856">
        <ele>2225.7</ele>
        <time>2026-03-23T09:59:26Z</time>
      </trkpt>
      <trkpt lat="44.74009" lon="6.85601">
        <ele>2226.1</ele>
        <time>2026-03-23T09:59:27Z</time>
      </trkpt>
      <trkpt lat="44.74009" lon="6.85601">
        <ele>2226.1</ele>
        <time>2026-03-23T09:59:28Z</time>
      </trkpt>
      <trkpt lat="44.7401" lon="6.85602">
        <ele>2226.1</ele>
        <time>2026-03-23T09:59:29Z</time>
      </trkpt>
      <trkpt lat="44.7401" lon="6.85602">
        <ele>2226.1</ele>
        <time>2026-03-23T09:59:30Z</time>
      </trkpt>
      <trkpt lat="44.7401" lon="6.85602">
        <ele>2226.1</ele>
        <time>2026-03-23T09:59:31Z</time>
      </trkpt>
      <trkpt lat="44.74011" lon="6.85603">
        <ele>2227.1</ele>
        <time>2026-03-23T09:59:32Z</time>
      </trkpt>
      <trkpt lat="44.74011" lon="6.85603">
        <ele>2227.1</ele>
        <time>2026-03-23T09:59:33Z</time>
      </trkpt>
      <trkpt lat="44.74013" lon="6.85603">
        <ele>2227.4</ele>
        <time>2026-03-23T09:59:34Z</time>
      </trkpt>
      <trkpt lat="44.74014" lon="6.85603">
        <ele>2227.4</ele>
        <time>2026-03-23T09:59:35Z</time>
      </trkpt>
      <trkpt lat="44.74015" lon="6.85603">
        <ele>2227.6</ele>
        <time>2026-03-23T09:59:36Z</time>
      </trkpt>
      <trkpt lat="44.74017" lon="6.85603">
        <ele>2226.6</ele>
        <time>2026-03-23T09:59:37Z</time>
      </trkpt>
      <trkpt lat="44.74022" lon="6.85599">
        <ele>2227</ele>
        <time>2026-03-23T09:59:39Z</time>
      </trkpt>
      <trkpt lat="44.74024" lon="6.85598">
        <ele>2226</ele>
        <time>2026-03-23T09:59:40Z</time>
      </trkpt>
      <trkpt lat="44.74024" lon="6.85598">
        <ele>2226.2</ele>
        <time>2026-03-23T09:59:41Z</time>
      </trkpt>
      <trkpt lat="44.74024" lon="6.85598">
        <ele>2226.2</ele>
        <time>2026-03-23T09:59:42Z</time>
      </trkpt>
      <trkpt lat="44.74024" lon="6.85598">
        <ele>2226.2</ele>
        <time>2026-03-23T09:59:43Z</time>
      </trkpt>
      <trkpt lat="44.74024" lon="6.85597">
        <ele>2226.2</ele>
        <time>2026-03-23T09:59:44Z</time>
      </trkpt>
      <trkpt lat="44.74025" lon="6.85597">
        <ele>2226.2</ele>
        <time>2026-03-23T09:59:45Z</time>
      </trkpt>
      <trkpt lat="44.74025" lon="6.85596">
        <ele>2226.2</ele>
        <time>2026-03-23T09:59:46Z</time>
      </trkpt>
      <trkpt lat="44.74025" lon="6.85596">
        <ele>2226.2</ele>
        <time>2026-03-23T09:59:47Z</time>
      </trkpt>
      <trkpt lat="44.74025" lon="6.85597">
        <ele>2226.2</ele>
        <time>2026-03-23T09:59:48Z</time>
      </trkpt>
      <trkpt lat="44.74025" lon="6.85598">
        <ele>2226.2</ele>
        <time>2026-03-23T09:59:49Z</time>
      </trkpt>
      <trkpt lat="44.74024" lon="6.85598">
        <ele>2226.2</ele>
        <time>2026-03-23T09:59:50Z</time>
      </trkpt>
      <trkpt lat="44.74024" lon="6.85598">
        <ele>2227.3</ele>
        <time>2026-03-23T09:59:51Z</time>
      </trkpt>
      <trkpt lat="44.74024" lon="6.85599">
        <ele>2227</ele>
        <time>2026-03-23T09:59:52Z</time>
      </trkpt>
      <trkpt lat="44.74023" lon="6.85598">
        <ele>2226</ele>
        <time>2026-03-23T09:59:53Z</time>
      </trkpt>
      <trkpt lat="44.74023" lon="6.85598">
        <ele>2226</ele>
        <time>2026-03-23T09:59:54Z</time>
      </trkpt>
      <trkpt lat="44.74022" lon="6.85598">
        <ele>2226</ele>
        <time>2026-03-23T09:59:55Z</time>
      </trkpt>
      <trkpt lat="44.74022" lon="6.85598">
        <ele>2226</ele>
        <time>2026-03-23T09:59:56Z</time>
      </trkpt>
      <trkpt lat="44.74021" lon="6.85598">
        <ele>2226</ele>
        <time>2026-03-23T09:59:57Z</time>
      </trkpt>
      <trkpt lat="44.74022" lon="6.85597">
        <ele>2226</ele>
        <time>2026-03-23T09:59:58Z</time>
      </trkpt>
      <trkpt lat="44.74022" lon="6.85597">
        <ele>2226</ele>
        <time>2026-03-23T09:59:59Z</time>
      </trkpt>
      <trkpt lat="44.74022" lon="6.85597">
        <ele>2226</ele>
        <time>2026-03-23T10:00:00Z</time>
      </trkpt>
      <trkpt lat="44.74022" lon="6.85597">
        <ele>2226</ele>
        <time>2026-03-23T10:00:01Z</time>
      </trkpt>
      <trkpt lat="44.74022" lon="6.85597">
        <ele>2226</ele>
        <time>2026-03-23T10:00:02Z</time>
      </trkpt>
      <trkpt lat="44.74021" lon="6.85597">
        <ele>2225.7</ele>
        <time>2026-03-23T10:00:03Z</time>
      </trkpt>
      <trkpt lat="44.74021" lon="6.85598">
        <ele>2225.7</ele>
        <time>2026-03-23T10:00:04Z</time>
      </trkpt>
      <trkpt lat="44.7402" lon="6.85598">
        <ele>2225.7</ele>
        <time>2026-03-23T10:00:05Z</time>
      </trkpt>
      <trkpt lat="44.7402" lon="6.85598">
        <ele>2225.7</ele>
        <time>2026-03-23T10:00:06Z</time>
      </trkpt>
      <trkpt lat="44.74019" lon="6.85598">
        <ele>2225.7</ele>
        <time>2026-03-23T10:00:07Z</time>
      </trkpt>
      <trkpt lat="44.74018" lon="6.85599">
        <ele>2226.8</ele>
        <time>2026-03-23T10:00:08Z</time>
      </trkpt>
      <trkpt lat="44.74017" lon="6.85599">
        <ele>2226.5</ele>
        <time>2026-03-23T10:00:09Z</time>
      </trkpt>
      <trkpt lat="44.74017" lon="6.85599">
        <ele>2226.5</ele>
        <time>2026-03-23T10:00:10Z</time>
      </trkpt>
      <trkpt lat="44.74017" lon="6.85599">
        <ele>2226.5</ele>
        <time>2026-03-23T10:00:12Z</time>
      </trkpt>
      <trkpt lat="44.74017" lon="6.85599">
        <ele>2226.5</ele>
        <time>2026-03-23T10:00:13Z</time>
      </trkpt>
      <trkpt lat="44.74016" lon="6.85599">
        <ele>2226.5</ele>
        <time>2026-03-23T10:00:14Z</time>
      </trkpt>
      <trkpt lat="44.74016" lon="6.85599">
        <ele>2226.5</ele>
        <time>2026-03-23T10:00:15Z</time>
      </trkpt>
      <trkpt lat="44.74016" lon="6.856">
        <ele>2226.5</ele>
        <time>2026-03-23T10:00:16Z</time>
      </trkpt>
      <trkpt lat="44.74015" lon="6.856">
        <ele>2226.5</ele>
        <time>2026-03-23T10:00:17Z</time>
      </trkpt>
      <trkpt lat="44.74015" lon="6.85601">
        <ele>2226.3</ele>
        <time>2026-03-23T10:00:18Z</time>
      </trkpt>
      <trkpt lat="44.74014" lon="6.85601">
        <ele>2226.3</ele>
        <time>2026-03-23T10:00:19Z</time>
      </trkpt>
      <trkpt lat="44.74013" lon="6.85602">
        <ele>2226.3</ele>
        <time>2026-03-23T10:00:20Z</time>
      </trkpt>
      <trkpt lat="44.74013" lon="6.85602">
        <ele>2226.3</ele>
        <time>2026-03-23T10:00:21Z</time>
      </trkpt>
      <trkpt lat="44.74012" lon="6.85602">
        <ele>2226.3</ele>
        <time>2026-03-23T10:00:22Z</time>
      </trkpt>
      <trkpt lat="44.74012" lon="6.85603">
        <ele>2227.1</ele>
        <time>2026-03-23T10:00:23Z</time>
      </trkpt>
      <trkpt lat="44.74011" lon="6.85603">
        <ele>2227.1</ele>
        <time>2026-03-23T10:00:24Z</time>
      </trkpt>
      <trkpt lat="44.74011" lon="6.85604">
        <ele>2227.1</ele>
        <time>2026-03-23T10:00:25Z</time>
      </trkpt>
      <trkpt lat="44.7401" lon="6.85604">
        <ele>2227.1</ele>
        <time>2026-03-23T10:00:26Z</time>
      </trkpt>
      <trkpt lat="44.7401" lon="6.85605">
        <ele>2227.1</ele>
        <time>2026-03-23T10:00:27Z</time>
      </trkpt>
      <trkpt lat="44.7401" lon="6.85605">
        <ele>2227.1</ele>
        <time>2026-03-23T10:00:28Z</time>
      </trkpt>
      <trkpt lat="44.7401" lon="6.85605">
        <ele>2227.1</ele>
        <time>2026-03-23T10:00:29Z</time>
      </trkpt>
      <trkpt lat="44.7401" lon="6.85606">
        <ele>2227.1</ele>
        <time>2026-03-23T10:00:30Z</time>
      </trkpt>
      <trkpt lat="44.7401" lon="6.85606">
        <ele>2227.1</ele>
        <time>2026-03-23T10:00:31Z</time>
      </trkpt>
      <trkpt lat="44.7401" lon="6.85607">
        <ele>2228.2</ele>
        <time>2026-03-23T10:00:32Z</time>
      </trkpt>
      <trkpt lat="44.7401" lon="6.85608">
        <ele>2228.2</ele>
        <time>2026-03-23T10:00:33Z</time>
      </trkpt>
      <trkpt lat="44.74011" lon="6.85609">
        <ele>2228.2</ele>
        <time>2026-03-23T10:00:34Z</time>
      </trkpt>
      <trkpt lat="44.74011" lon="6.85609">
        <ele>2228.2</ele>
        <time>2026-03-23T10:00:35Z</time>
      </trkpt>
      <trkpt lat="44.74011" lon="6.85609">
        <ele>2228.2</ele>
        <time>2026-03-23T10:00:36Z</time>
      </trkpt>
      <trkpt lat="44.74011" lon="6.8561">
        <ele>2228.2</ele>
        <time>2026-03-23T10:00:37Z</time>
      </trkpt>
      <trkpt lat="44.74012" lon="6.8561">
        <ele>2228.2</ele>
        <time>2026-03-23T10:00:38Z</time>
      </trkpt>
      <trkpt lat="44.74012" lon="6.85611">
        <ele>2228.4</ele>
        <time>2026-03-23T10:00:39Z</time>
      </trkpt>
      <trkpt lat="44.74012" lon="6.85611">
        <ele>2229.6</ele>
        <time>2026-03-23T10:00:40Z</time>
      </trkpt>
      <trkpt lat="44.74013" lon="6.85612">
        <ele>2229.6</ele>
        <time>2026-03-23T10:00:41Z</time>
      </trkpt>
      <trkpt lat="44.74013" lon="6.85612">
        <ele>2229.6</ele>
        <time>2026-03-23T10:00:42Z</time>
      </trkpt>
      <trkpt lat="44.74013" lon="6.85612">
        <ele>2229.6</ele>
        <time>2026-03-23T10:00:43Z</time>
      </trkpt>
      <trkpt lat="44.74014" lon="6.85612">
        <ele>2229.6</ele>
        <time>2026-03-23T10:00:44Z</time>
      </trkpt>
      <trkpt lat="44.74014" lon="6.85613">
        <ele>2229.6</ele>
        <time>2026-03-23T10:00:45Z</time>
      </trkpt>
      <trkpt lat="44.74014" lon="6.85613">
        <ele>2229.6</ele>
        <time>2026-03-23T10:00:46Z</time>
      </trkpt>
      <trkpt lat="44.74015" lon="6.85613">
        <ele>2229.6</ele>
        <time>2026-03-23T10:00:47Z</time>
      </trkpt>
      <trkpt lat="44.74015" lon="6.85614">
        <ele>2229.6</ele>
        <time>2026-03-23T10:00:48Z</time>
      </trkpt>
      <trkpt lat="44.74015" lon="6.85614">
        <ele>2229.8</ele>
        <time>2026-03-23T10:00:49Z</time>
      </trkpt>
      <trkpt lat="44.74016" lon="6.85614">
        <ele>2229.8</ele>
        <time>2026-03-23T10:00:50Z</time>
      </trkpt>
      <trkpt lat="44.74015" lon="6.85614">
        <ele>2229.8</ele>
        <time>2026-03-23T10:00:51Z</time>
      </trkpt>
      <trkpt lat="44.74016" lon="6.85614">
        <ele>2229.8</ele>
        <time>2026-03-23T10:00:52Z</time>
      </trkpt>
      <trkpt lat="44.74015" lon="6.85614">
        <ele>2229.8</ele>
        <time>2026-03-23T10:00:53Z</time>
      </trkpt>
      <trkpt lat="44.74016" lon="6.85614">
        <ele>2229.8</ele>
        <time>2026-03-23T10:00:54Z</time>
      </trkpt>
      <trkpt lat="44.74016" lon="6.85614">
        <ele>2229.8</ele>
        <time>2026-03-23T10:00:55Z</time>
      </trkpt>
      <trkpt lat="44.74016" lon="6.85614">
        <ele>2229.8</ele>
        <time>2026-03-23T10:00:56Z</time>
      </trkpt>
      <trkpt lat="44.74016" lon="6.85614">
        <ele>2229.8</ele>
        <time>2026-03-23T10:00:57Z</time>
      </trkpt>
      <trkpt lat="44.74016" lon="6.85614">
        <ele>2229.8</ele>
        <time>2026-03-23T10:00:58Z</time>
      </trkpt>
      <trkpt lat="44.74016" lon="6.85614">
        <ele>2229.8</ele>
        <time>2026-03-23T10:00:59Z</time>
      </trkpt>
      <trkpt lat="44.74017" lon="6.85614">
        <ele>2229.8</ele>
        <time>2026-03-23T10:01:00Z</time>
      </trkpt>
      <trkpt lat="44.74017" lon="6.85615">
        <ele>2229.8</ele>
        <time>2026-03-23T10:01:01Z</time>
      </trkpt>
      <trkpt lat="44.74017" lon="6.85615">
        <ele>2229.8</ele>
        <time>2026-03-23T10:01:02Z</time>
      </trkpt>
      <trkpt lat="44.74017" lon="6.85615">
        <ele>2229.8</ele>
        <time>2026-03-23T10:01:03Z</time>
      </trkpt>
      <trkpt lat="44.74018" lon="6.85615">
        <ele>2229.8</ele>
        <time>2026-03-23T10:01:04Z</time>
      </trkpt>
      <trkpt lat="44.74018" lon="6.85615">
        <ele>2230</ele>
        <time>2026-03-23T10:01:05Z</time>
      </trkpt>
      <trkpt lat="44.74019" lon="6.85615">
        <ele>2230</ele>
        <time>2026-03-23T10:01:06Z</time>
      </trkpt>
      <trkpt lat="44.74019" lon="6.85615">
        <ele>2230</ele>
        <time>2026-03-23T10:01:07Z</time>
      </trkpt>
      <trkpt lat="44.74019" lon="6.85615">
        <ele>2230</ele>
        <time>2026-03-23T10:01:08Z</time>
      </trkpt>
      <trkpt lat="44.7402" lon="6.85615">
        <ele>2230</ele>
        <time>2026-03-23T10:01:09Z</time>
      </trkpt>
      <trkpt lat="44.7402" lon="6.85615">
        <ele>2230</ele>
        <time>2026-03-23T10:01:10Z</time>
      </trkpt>
      <trkpt lat="44.7402" lon="6.85614">
        <ele>2230</ele>
        <time>2026-03-23T10:01:11Z</time>
      </trkpt>
      <trkpt lat="44.74021" lon="6.85614">
        <ele>2230</ele>
        <time>2026-03-23T10:01:12Z</time>
      </trkpt>
      <trkpt lat="44.74021" lon="6.85614">
        <ele>2230</ele>
        <time>2026-03-23T10:01:13Z</time>
      </trkpt>
      <trkpt lat="44.74021" lon="6.85614">
        <ele>2230.3</ele>
        <time>2026-03-23T10:01:14Z</time>
      </trkpt>
      <trkpt lat="44.74022" lon="6.85614">
        <ele>2230.3</ele>
        <time>2026-03-23T10:01:15Z</time>
      </trkpt>
      <trkpt lat="44.74022" lon="6.85614">
        <ele>2230.3</ele>
        <time>2026-03-23T10:01:16Z</time>
      </trkpt>
      <trkpt lat="44.74022" lon="6.85614">
        <ele>2230.3</ele>
        <time>2026-03-23T10:01:17Z</time>
      </trkpt>
      <trkpt lat="44.74022" lon="6.85614">
        <ele>2230.3</ele>
        <time>2026-03-23T10:01:18Z</time>
      </trkpt>
      <trkpt lat="44.74022" lon="6.85614">
        <ele>2230.3</ele>
        <time>2026-03-23T10:01:19Z</time>
      </trkpt>
      <trkpt lat="44.74023" lon="6.85614">
        <ele>2230.3</ele>
        <time>2026-03-23T10:01:20Z</time>
      </trkpt>
      <trkpt lat="44.74024" lon="6.85614">
        <ele>2230.3</ele>
        <time>2026-03-23T10:01:21Z</time>
      </trkpt>
      <trkpt lat="44.74024" lon="6.85614">
        <ele>2230.3</ele>
        <time>2026-03-23T10:01:22Z</time>
      </trkpt>
      <trkpt lat="44.74024" lon="6.85614">
        <ele>2230.5</ele>
        <time>2026-03-23T10:01:23Z</time>
      </trkpt>
      <trkpt lat="44.74025" lon="6.85614">
        <ele>2230.5</ele>
        <time>2026-03-23T10:01:24Z</time>
      </trkpt>
      <trkpt lat="44.74025" lon="6.85614">
        <ele>2230.5</ele>
        <time>2026-03-23T10:01:25Z</time>
      </trkpt>
      <trkpt lat="44.74025" lon="6.85614">
        <ele>2230.5</ele>
        <time>2026-03-23T10:01:26Z</time>
      </trkpt>
      <trkpt lat="44.74026" lon="6.85614">
        <ele>2230.5</ele>
        <time>2026-03-23T10:01:27Z</time>
      </trkpt>
      <trkpt lat="44.74026" lon="6.85614">
        <ele>2230.5</ele>
        <time>2026-03-23T10:01:28Z</time>
      </trkpt>
      <trkpt lat="44.74026" lon="6.85614">
        <ele>2230.5</ele>
        <time>2026-03-23T10:01:29Z</time>
      </trkpt>
      <trkpt lat="44.74027" lon="6.85615">
        <ele>2230.5</ele>
        <time>2026-03-23T10:01:30Z</time>
      </trkpt>
      <trkpt lat="44.74027" lon="6.85615">
        <ele>2230.5</ele>
        <time>2026-03-23T10:01:31Z</time>
      </trkpt>
      <trkpt lat="44.74027" lon="6.85615">
        <ele>2230.8</ele>
        <time>2026-03-23T10:01:32Z</time>
      </trkpt>
      <trkpt lat="44.74027" lon="6.85615">
        <ele>2230.8</ele>
        <time>2026-03-23T10:01:33Z</time>
      </trkpt>
      <trkpt lat="44.74028" lon="6.85616">
        <ele>2231.9</ele>
        <time>2026-03-23T10:01:34Z</time>
      </trkpt>
      <trkpt lat="44.74028" lon="6.85616">
        <ele>2231.9</ele>
        <time>2026-03-23T10:01:35Z</time>
      </trkpt>
      <trkpt lat="44.74029" lon="6.85616">
        <ele>2231.9</ele>
        <time>2026-03-23T10:01:36Z</time>
      </trkpt>
      <trkpt lat="44.74029" lon="6.85616">
        <ele>2231.9</ele>
        <time>2026-03-23T10:01:37Z</time>
      </trkpt>
      <trkpt lat="44.7403" lon="6.85617">
        <ele>2231.9</ele>
        <time>2026-03-23T10:01:38Z</time>
      </trkpt>
      <trkpt lat="44.7403" lon="6.85617">
        <ele>2231.9</ele>
        <time>2026-03-23T10:01:39Z</time>
      </trkpt>
      <trkpt lat="44.74031" lon="6.85617">
        <ele>2232.2</ele>
        <time>2026-03-23T10:01:40Z</time>
      </trkpt>
      <trkpt lat="44.74031" lon="6.85617">
        <ele>2232.2</ele>
        <time>2026-03-23T10:01:41Z</time>
      </trkpt>
      <trkpt lat="44.74031" lon="6.85618">
        <ele>2232.2</ele>
        <time>2026-03-23T10:01:42Z</time>
      </trkpt>
      <trkpt lat="44.74032" lon="6.85618">
        <ele>2232.2</ele>
        <time>2026-03-23T10:01:43Z</time>
      </trkpt>
      <trkpt lat="44.74033" lon="6.85618">
        <ele>2232.2</ele>
        <time>2026-03-23T10:01:44Z</time>
      </trkpt>
      <trkpt lat="44.74033" lon="6.85618">
        <ele>2232.4</ele>
        <time>2026-03-23T10:01:45Z</time>
      </trkpt>
      <trkpt lat="44.74034" lon="6.85618">
        <ele>2232.4</ele>
        <time>2026-03-23T10:01:46Z</time>
      </trkpt>
      <trkpt lat="44.74035" lon="6.85619">
        <ele>2232.4</ele>
        <time>2026-03-23T10:01:47Z</time>
      </trkpt>
      <trkpt lat="44.74035" lon="6.85619">
        <ele>2232.4</ele>
        <time>2026-03-23T10:01:48Z</time>
      </trkpt>
      <trkpt lat="44.74036" lon="6.85619">
        <ele>2232.4</ele>
        <time>2026-03-23T10:01:49Z</time>
      </trkpt>
      <trkpt lat="44.74036" lon="6.85619">
        <ele>2232.7</ele>
        <time>2026-03-23T10:01:50Z</time>
      </trkpt>
      <trkpt lat="44.74037" lon="6.8562">
        <ele>2232.7</ele>
        <time>2026-03-23T10:01:51Z</time>
      </trkpt>
      <trkpt lat="44.74037" lon="6.8562">
        <ele>2232.7</ele>
        <time>2026-03-23T10:01:52Z</time>
      </trkpt>
      <trkpt lat="44.74038" lon="6.8562">
        <ele>2233.8</ele>
        <time>2026-03-23T10:01:53Z</time>
      </trkpt>
      <trkpt lat="44.74038" lon="6.85621">
        <ele>2233.8</ele>
        <time>2026-03-23T10:01:54Z</time>
      </trkpt>
      <trkpt lat="44.74039" lon="6.85621">
        <ele>2233.8</ele>
        <time>2026-03-23T10:01:55Z</time>
      </trkpt>
      <trkpt lat="44.74039" lon="6.85622">
        <ele>2233.8</ele>
        <time>2026-03-23T10:01:56Z</time>
      </trkpt>
      <trkpt lat="44.74039" lon="6.85622">
        <ele>2234</ele>
        <time>2026-03-23T10:01:57Z</time>
      </trkpt>
      <trkpt lat="44.7404" lon="6.85623">
        <ele>2234</ele>
        <time>2026-03-23T10:01:58Z</time>
      </trkpt>
      <trkpt lat="44.74041" lon="6.85624">
        <ele>2234</ele>
        <time>2026-03-23T10:01:59Z</time>
      </trkpt>
      <trkpt lat="44.74042" lon="6.85624">
        <ele>2235.1</ele>
        <time>2026-03-23T10:02:00Z</time>
      </trkpt>
      <trkpt lat="44.74042" lon="6.85625">
        <ele>2235.1</ele>
        <time>2026-03-23T10:02:01Z</time>
      </trkpt>
      <trkpt lat="44.74043" lon="6.85626">
        <ele>2235.3</ele>
        <time>2026-03-23T10:02:02Z</time>
      </trkpt>
      <trkpt lat="44.74044" lon="6.85626">
        <ele>2235.3</ele>
        <time>2026-03-23T10:02:03Z</time>
      </trkpt>
      <trkpt lat="44.74044" lon="6.85627">
        <ele>2235.3</ele>
        <time>2026-03-23T10:02:04Z</time>
      </trkpt>
      <trkpt lat="44.74045" lon="6.85628">
        <ele>2235.3</ele>
        <time>2026-03-23T10:02:05Z</time>
      </trkpt>
      <trkpt lat="44.74046" lon="6.85629">
        <ele>2236.5</ele>
        <time>2026-03-23T10:02:06Z</time>
      </trkpt>
      <trkpt lat="44.74046" lon="6.8563">
        <ele>2236.5</ele>
        <time>2026-03-23T10:02:07Z</time>
      </trkpt>
      <trkpt lat="44.74047" lon="6.8563">
        <ele>2236.5</ele>
        <time>2026-03-23T10:02:08Z</time>
      </trkpt>
      <trkpt lat="44.74047" lon="6.85631">
        <ele>2236.5</ele>
        <time>2026-03-23T10:02:10Z</time>
      </trkpt>
      <trkpt lat="44.74048" lon="6.85632">
        <ele>2236.5</ele>
        <time>2026-03-23T10:02:11Z</time>
      </trkpt>
      <trkpt lat="44.74048" lon="6.85632">
        <ele>2236.5</ele>
        <time>2026-03-23T10:02:12Z</time>
      </trkpt>
      <trkpt lat="44.74049" lon="6.85633">
        <ele>2236.7</ele>
        <time>2026-03-23T10:02:13Z</time>
      </trkpt>
      <trkpt lat="44.74049" lon="6.85633">
        <ele>2237.7</ele>
        <time>2026-03-23T10:02:14Z</time>
      </trkpt>
      <trkpt lat="44.74049" lon="6.85633">
        <ele>2237.7</ele>
        <time>2026-03-23T10:02:15Z</time>
      </trkpt>
      <trkpt lat="44.7405" lon="6.85634">
        <ele>2237.7</ele>
        <time>2026-03-23T10:02:16Z</time>
      </trkpt>
      <trkpt lat="44.7405" lon="6.85634">
        <ele>2237.7</ele>
        <time>2026-03-23T10:02:17Z</time>
      </trkpt>
      <trkpt lat="44.74051" lon="6.85634">
        <ele>2237.7</ele>
        <time>2026-03-23T10:02:18Z</time>
      </trkpt>
      <trkpt lat="44.74051" lon="6.85634">
        <ele>2237.7</ele>
        <time>2026-03-23T10:02:19Z</time>
      </trkpt>
      <trkpt lat="44.74051" lon="6.85634">
        <ele>2237.7</ele>
        <time>2026-03-23T10:02:20Z</time>
      </trkpt>
      <trkpt lat="44.74051" lon="6.85635">
        <ele>2237.7</ele>
        <time>2026-03-23T10:02:21Z</time>
      </trkpt>
      <trkpt lat="44.74051" lon="6.85635">
        <ele>2237.7</ele>
        <time>2026-03-23T10:02:22Z</time>
      </trkpt>
      <trkpt lat="44.74052" lon="6.85636">
        <ele>2237.8</ele>
        <time>2026-03-23T10:02:23Z</time>
      </trkpt>
      <trkpt lat="44.74052" lon="6.85636">
        <ele>2237.8</ele>
        <time>2026-03-23T10:02:24Z</time>
      </trkpt>
      <trkpt lat="44.74052" lon="6.85637">
        <ele>2237.8</ele>
        <time>2026-03-23T10:02:25Z</time>
      </trkpt>
      <trkpt lat="44.74052" lon="6.85637">
        <ele>2238.8</ele>
        <time>2026-03-23T10:02:26Z</time>
      </trkpt>
      <trkpt lat="44.74053" lon="6.85638">
        <ele>2238.8</ele>
        <time>2026-03-23T10:02:27Z</time>
      </trkpt>
      <trkpt lat="44.74053" lon="6.85638">
        <ele>2238.8</ele>
        <time>2026-03-23T10:02:28Z</time>
      </trkpt>
      <trkpt lat="44.74054" lon="6.85639">
        <ele>2238.8</ele>
        <time>2026-03-23T10:02:29Z</time>
      </trkpt>
      <trkpt lat="44.74054" lon="6.85639">
        <ele>2238.8</ele>
        <time>2026-03-23T10:02:30Z</time>
      </trkpt>
      <trkpt lat="44.74054" lon="6.8564">
        <ele>2238.8</ele>
        <time>2026-03-23T10:02:31Z</time>
      </trkpt>
      <trkpt lat="44.74054" lon="6.85641">
        <ele>2238.8</ele>
        <time>2026-03-23T10:02:32Z</time>
      </trkpt>
      <trkpt lat="44.74054" lon="6.85641">
        <ele>2238.8</ele>
        <time>2026-03-23T10:02:33Z</time>
      </trkpt>
      <trkpt lat="44.74054" lon="6.85642">
        <ele>2239.7</ele>
        <time>2026-03-23T10:02:34Z</time>
      </trkpt>
      <trkpt lat="44.74054" lon="6.85642">
        <ele>2239.7</ele>
        <time>2026-03-23T10:02:35Z</time>
      </trkpt>
      <trkpt lat="44.74055" lon="6.85643">
        <ele>2239.8</ele>
        <time>2026-03-23T10:02:36Z</time>
      </trkpt>
      <trkpt lat="44.74055" lon="6.85643">
        <ele>2239.8</ele>
        <time>2026-03-23T10:02:37Z</time>
      </trkpt>
      <trkpt lat="44.74055" lon="6.85643">
        <ele>2239.8</ele>
        <time>2026-03-23T10:02:38Z</time>
      </trkpt>
      <trkpt lat="44.74055" lon="6.85644">
        <ele>2239.8</ele>
        <time>2026-03-23T10:02:39Z</time>
      </trkpt>
      <trkpt lat="44.74055" lon="6.85644">
        <ele>2239.8</ele>
        <time>2026-03-23T10:02:40Z</time>
      </trkpt>
      <trkpt lat="44.74055" lon="6.85644">
        <ele>2239.8</ele>
        <time>2026-03-23T10:02:41Z</time>
      </trkpt>
      <trkpt lat="44.74055" lon="6.85645">
        <ele>2239.8</ele>
        <time>2026-03-23T10:02:42Z</time>
      </trkpt>
      <trkpt lat="44.74055" lon="6.85645">
        <ele>2239.8</ele>
        <time>2026-03-23T10:02:43Z</time>
      </trkpt>
      <trkpt lat="44.74054" lon="6.85647">
        <ele>2240.6</ele>
        <time>2026-03-23T10:02:44Z</time>
      </trkpt>
      <trkpt lat="44.74054" lon="6.85647">
        <ele>2240.6</ele>
        <time>2026-03-23T10:02:45Z</time>
      </trkpt>
      <trkpt lat="44.74054" lon="6.85648">
        <ele>2240.6</ele>
        <time>2026-03-23T10:02:46Z</time>
      </trkpt>
      <trkpt lat="44.74053" lon="6.85649">
        <ele>2240.6</ele>
        <time>2026-03-23T10:02:47Z</time>
      </trkpt>
      <trkpt lat="44.74053" lon="6.8565">
        <ele>2240.6</ele>
        <time>2026-03-23T10:02:48Z</time>
      </trkpt>
      <trkpt lat="44.74052" lon="6.8565">
        <ele>2241.6</ele>
        <time>2026-03-23T10:02:49Z</time>
      </trkpt>
      <trkpt lat="44.74051" lon="6.85651">
        <ele>2241.5</ele>
        <time>2026-03-23T10:02:50Z</time>
      </trkpt>
      <trkpt lat="44.7405" lon="6.85651">
        <ele>2241.5</ele>
        <time>2026-03-23T10:02:51Z</time>
      </trkpt>
      <trkpt lat="44.74049" lon="6.85651">
        <ele>2241.5</ele>
        <time>2026-03-23T10:02:52Z</time>
      </trkpt>
      <trkpt lat="44.74049" lon="6.85652">
        <ele>2241.5</ele>
        <time>2026-03-23T10:02:53Z</time>
      </trkpt>
      <trkpt lat="44.74048" lon="6.85652">
        <ele>2241.4</ele>
        <time>2026-03-23T10:02:54Z</time>
      </trkpt>
      <trkpt lat="44.74046" lon="6.85652">
        <ele>2241.4</ele>
        <time>2026-03-23T10:02:56Z</time>
      </trkpt>
      <trkpt lat="44.74045" lon="6.85652">
        <ele>2241.3</ele>
        <time>2026-03-23T10:02:57Z</time>
      </trkpt>
      <trkpt lat="44.74045" lon="6.85652">
        <ele>2241.3</ele>
        <time>2026-03-23T10:02:58Z</time>
      </trkpt>
      <trkpt lat="44.74044" lon="6.85652">
        <ele>2241.3</ele>
        <time>2026-03-23T10:03:00Z</time>
      </trkpt>
      <trkpt lat="44.74042" lon="6.85652">
        <ele>2241.3</ele>
        <time>2026-03-23T10:03:01Z</time>
      </trkpt>
      <trkpt lat="44.74042" lon="6.85653">
        <ele>2241.3</ele>
        <time>2026-03-23T10:03:03Z</time>
      </trkpt>
      <trkpt lat="44.74041" lon="6.85653">
        <ele>2241.2</ele>
        <time>2026-03-23T10:03:04Z</time>
      </trkpt>
      <trkpt lat="44.7404" lon="6.85654">
        <ele>2241.2</ele>
        <time>2026-03-23T10:03:05Z</time>
      </trkpt>
      <trkpt lat="44.7404" lon="6.85654">
        <ele>2242.3</ele>
        <time>2026-03-23T10:03:06Z</time>
      </trkpt>
      <trkpt lat="44.7404" lon="6.85655">
        <ele>2242.3</ele>
        <time>2026-03-23T10:03:07Z</time>
      </trkpt>
      <trkpt lat="44.7404" lon="6.85656">
        <ele>2242.3</ele>
        <time>2026-03-23T10:03:08Z</time>
      </trkpt>
      <trkpt lat="44.7404" lon="6.85656">
        <ele>2242.3</ele>
        <time>2026-03-23T10:03:09Z</time>
      </trkpt>
      <trkpt lat="44.7404" lon="6.85657">
        <ele>2242.3</ele>
        <time>2026-03-23T10:03:10Z</time>
      </trkpt>
      <trkpt lat="44.7404" lon="6.85657">
        <ele>2242.3</ele>
        <time>2026-03-23T10:03:11Z</time>
      </trkpt>
      <trkpt lat="44.7404" lon="6.85658">
        <ele>2242.3</ele>
        <time>2026-03-23T10:03:12Z</time>
      </trkpt>
      <trkpt lat="44.7404" lon="6.85659">
        <ele>2243.5</ele>
        <time>2026-03-23T10:03:13Z</time>
      </trkpt>
      <trkpt lat="44.7404" lon="6.85659">
        <ele>2243.5</ele>
        <time>2026-03-23T10:03:14Z</time>
      </trkpt>
      <trkpt lat="44.7404" lon="6.8566">
        <ele>2243.5</ele>
        <time>2026-03-23T10:03:15Z</time>
      </trkpt>
      <trkpt lat="44.7404" lon="6.85661">
        <ele>2243.5</ele>
        <time>2026-03-23T10:03:16Z</time>
      </trkpt>
      <trkpt lat="44.7404" lon="6.85662">
        <ele>2243.4</ele>
        <time>2026-03-23T10:03:17Z</time>
      </trkpt>
      <trkpt lat="44.74039" lon="6.85663">
        <ele>2244.7</ele>
        <time>2026-03-23T10:03:18Z</time>
      </trkpt>
      <trkpt lat="44.74039" lon="6.85664">
        <ele>2244.6</ele>
        <time>2026-03-23T10:03:19Z</time>
      </trkpt>
      <trkpt lat="44.74039" lon="6.85665">
        <ele>2244.6</ele>
        <time>2026-03-23T10:03:20Z</time>
      </trkpt>
      <trkpt lat="44.74039" lon="6.85666">
        <ele>2244.6</ele>
        <time>2026-03-23T10:03:21Z</time>
      </trkpt>
      <trkpt lat="44.74039" lon="6.85667">
        <ele>2244.6</ele>
        <time>2026-03-23T10:03:22Z</time>
      </trkpt>
      <trkpt lat="44.74039" lon="6.85667">
        <ele>2245.9</ele>
        <time>2026-03-23T10:03:23Z</time>
      </trkpt>
      <trkpt lat="44.74038" lon="6.85668">
        <ele>2245.9</ele>
        <time>2026-03-23T10:03:24Z</time>
      </trkpt>
      <trkpt lat="44.74038" lon="6.85669">
        <ele>2245.8</ele>
        <time>2026-03-23T10:03:25Z</time>
      </trkpt>
      <trkpt lat="44.74038" lon="6.85669">
        <ele>2245.8</ele>
        <time>2026-03-23T10:03:26Z</time>
      </trkpt>
      <trkpt lat="44.74038" lon="6.85669">
        <ele>2245.8</ele>
        <time>2026-03-23T10:03:27Z</time>
      </trkpt>
      <trkpt lat="44.74038" lon="6.8567">
        <ele>2245.8</ele>
        <time>2026-03-23T10:03:28Z</time>
      </trkpt>
      <trkpt lat="44.74038" lon="6.8567">
        <ele>2245.8</ele>
        <time>2026-03-23T10:03:29Z</time>
      </trkpt>
      <trkpt lat="44.74038" lon="6.8567">
        <ele>2245.8</ele>
        <time>2026-03-23T10:03:30Z</time>
      </trkpt>
      <trkpt lat="44.74038" lon="6.85671">
        <ele>2245.8</ele>
        <time>2026-03-23T10:03:31Z</time>
      </trkpt>
      <trkpt lat="44.74038" lon="6.85672">
        <ele>2247.1</ele>
        <time>2026-03-23T10:03:32Z</time>
      </trkpt>
      <trkpt lat="44.74038" lon="6.85673">
        <ele>2247.1</ele>
        <time>2026-03-23T10:03:33Z</time>
      </trkpt>
      <trkpt lat="44.74037" lon="6.85673">
        <ele>2247.1</ele>
        <time>2026-03-23T10:03:34Z</time>
      </trkpt>
      <trkpt lat="44.74037" lon="6.85674">
        <ele>2247.1</ele>
        <time>2026-03-23T10:03:35Z</time>
      </trkpt>
      <trkpt lat="44.74037" lon="6.85675">
        <ele>2247.1</ele>
        <time>2026-03-23T10:03:36Z</time>
      </trkpt>
      <trkpt lat="44.74037" lon="6.85675">
        <ele>2247.1</ele>
        <time>2026-03-23T10:03:37Z</time>
      </trkpt>
      <trkpt lat="44.74038" lon="6.85676">
        <ele>2247.1</ele>
        <time>2026-03-23T10:03:39Z</time>
      </trkpt>
      <trkpt lat="44.74038" lon="6.85676">
        <ele>2248.3</ele>
        <time>2026-03-23T10:03:40Z</time>
      </trkpt>
      <trkpt lat="44.74038" lon="6.85677">
        <ele>2248.3</ele>
        <time>2026-03-23T10:03:41Z</time>
      </trkpt>
      <trkpt lat="44.74038" lon="6.85678">
        <ele>2248.3</ele>
        <time>2026-03-23T10:03:42Z</time>
      </trkpt>
      <trkpt lat="44.74039" lon="6.85678">
        <ele>2248.3</ele>
        <time>2026-03-23T10:03:43Z</time>
      </trkpt>
      <trkpt lat="44.74039" lon="6.85679">
        <ele>2248.3</ele>
        <time>2026-03-23T10:03:44Z</time>
      </trkpt>
      <trkpt lat="44.74039" lon="6.85679">
        <ele>2248.3</ele>
        <time>2026-03-23T10:03:45Z</time>
      </trkpt>
      <trkpt lat="44.7404" lon="6.85679">
        <ele>2248.3</ele>
        <time>2026-03-23T10:03:46Z</time>
      </trkpt>
      <trkpt lat="44.7404" lon="6.8568">
        <ele>2248.3</ele>
        <time>2026-03-23T10:03:47Z</time>
      </trkpt>
      <trkpt lat="44.74041" lon="6.8568">
        <ele>2248.3</ele>
        <time>2026-03-23T10:03:48Z</time>
      </trkpt>
      <trkpt lat="44.74041" lon="6.8568">
        <ele>2248.3</ele>
        <time>2026-03-23T10:03:49Z</time>
      </trkpt>
      <trkpt lat="44.74041" lon="6.85679">
        <ele>2248.3</ele>
        <time>2026-03-23T10:03:50Z</time>
      </trkpt>
      <trkpt lat="44.74041" lon="6.85679">
        <ele>2248.3</ele>
        <time>2026-03-23T10:03:51Z</time>
      </trkpt>
      <trkpt lat="44.74041" lon="6.85679">
        <ele>2248.3</ele>
        <time>2026-03-23T10:03:52Z</time>
      </trkpt>
      <trkpt lat="44.74042" lon="6.85679">
        <ele>2248.3</ele>
        <time>2026-03-23T10:03:53Z</time>
      </trkpt>
      <trkpt lat="44.74042" lon="6.85679">
        <ele>2248.3</ele>
        <time>2026-03-23T10:03:55Z</time>
      </trkpt>
      <trkpt lat="44.74042" lon="6.85679">
        <ele>2248.4</ele>
        <time>2026-03-23T10:03:56Z</time>
      </trkpt>
      <trkpt lat="44.74043" lon="6.85679">
        <ele>2248.4</ele>
        <time>2026-03-23T10:03:57Z</time>
      </trkpt>
      <trkpt lat="44.74044" lon="6.85679">
        <ele>2248.4</ele>
        <time>2026-03-23T10:03:59Z</time>
      </trkpt>
      <trkpt lat="44.74044" lon="6.85679">
        <ele>2248.4</ele>
        <time>2026-03-23T10:04:01Z</time>
      </trkpt>
      <trkpt lat="44.74045" lon="6.85679">
        <ele>2248.4</ele>
        <time>2026-03-23T10:04:02Z</time>
      </trkpt>
      <trkpt lat="44.74045" lon="6.85679">
        <ele>2248.4</ele>
        <time>2026-03-23T10:04:03Z</time>
      </trkpt>
      <trkpt lat="44.74045" lon="6.85679">
        <ele>2248.4</ele>
        <time>2026-03-23T10:04:04Z</time>
      </trkpt>
      <trkpt lat="44.74046" lon="6.85679">
        <ele>2248.4</ele>
        <time>2026-03-23T10:04:05Z</time>
      </trkpt>
      <trkpt lat="44.74046" lon="6.85679">
        <ele>2248.4</ele>
        <time>2026-03-23T10:04:07Z</time>
      </trkpt>
      <trkpt lat="44.74047" lon="6.85679">
        <ele>2248.4</ele>
        <time>2026-03-23T10:04:08Z</time>
      </trkpt>
      <trkpt lat="44.74047" lon="6.85679">
        <ele>2248.4</ele>
        <time>2026-03-23T10:04:09Z</time>
      </trkpt>
      <trkpt lat="44.74048" lon="6.85679">
        <ele>2248.4</ele>
        <time>2026-03-23T10:04:10Z</time>
      </trkpt>
      <trkpt lat="44.74048" lon="6.85679">
        <ele>2248.4</ele>
        <time>2026-03-23T10:04:11Z</time>
      </trkpt>
      <trkpt lat="44.74049" lon="6.8568">
        <ele>2248.4</ele>
        <time>2026-03-23T10:04:12Z</time>
      </trkpt>
      <trkpt lat="44.74049" lon="6.8568">
        <ele>2248.4</ele>
        <time>2026-03-23T10:04:13Z</time>
      </trkpt>
      <trkpt lat="44.7405" lon="6.8568">
        <ele>2248.4</ele>
        <time>2026-03-23T10:04:14Z</time>
      </trkpt>
      <trkpt lat="44.7405" lon="6.8568">
        <ele>2249.6</ele>
        <time>2026-03-23T10:04:15Z</time>
      </trkpt>
      <trkpt lat="44.7405" lon="6.8568">
        <ele>2249.6</ele>
        <time>2026-03-23T10:04:16Z</time>
      </trkpt>
      <trkpt lat="44.74051" lon="6.8568">
        <ele>2249.6</ele>
        <time>2026-03-23T10:04:17Z</time>
      </trkpt>
      <trkpt lat="44.74051" lon="6.85681">
        <ele>2249.6</ele>
        <time>2026-03-23T10:04:18Z</time>
      </trkpt>
      <trkpt lat="44.74052" lon="6.85681">
        <ele>2249.6</ele>
        <time>2026-03-23T10:04:19Z</time>
      </trkpt>
      <trkpt lat="44.74052" lon="6.85681">
        <ele>2249.6</ele>
        <time>2026-03-23T10:04:20Z</time>
      </trkpt>
      <trkpt lat="44.74052" lon="6.85682">
        <ele>2249.6</ele>
        <time>2026-03-23T10:04:21Z</time>
      </trkpt>
      <trkpt lat="44.74053" lon="6.85682">
        <ele>2249.6</ele>
        <time>2026-03-23T10:04:22Z</time>
      </trkpt>
      <trkpt lat="44.74053" lon="6.85682">
        <ele>2249.6</ele>
        <time>2026-03-23T10:04:23Z</time>
      </trkpt>
      <trkpt lat="44.74054" lon="6.85682">
        <ele>2249.6</ele>
        <time>2026-03-23T10:04:24Z</time>
      </trkpt>
      <trkpt lat="44.74054" lon="6.85682">
        <ele>2249.6</ele>
        <time>2026-03-23T10:04:26Z</time>
      </trkpt>
      <trkpt lat="44.74054" lon="6.85682">
        <ele>2249.6</ele>
        <time>2026-03-23T10:04:27Z</time>
      </trkpt>
      <trkpt lat="44.74055" lon="6.85683">
        <ele>2249.6</ele>
        <time>2026-03-23T10:04:28Z</time>
      </trkpt>
      <trkpt lat="44.74055" lon="6.85683">
        <ele>2249.6</ele>
        <time>2026-03-23T10:04:29Z</time>
      </trkpt>
      <trkpt lat="44.74056" lon="6.85683">
        <ele>2249.6</ele>
        <time>2026-03-23T10:04:30Z</time>
      </trkpt>
      <trkpt lat="44.74056" lon="6.85683">
        <ele>2249.6</ele>
        <time>2026-03-23T10:04:31Z</time>
      </trkpt>
      <trkpt lat="44.74056" lon="6.85683">
        <ele>2249.6</ele>
        <time>2026-03-23T10:04:32Z</time>
      </trkpt>
      <trkpt lat="44.74057" lon="6.85684">
        <ele>2249.6</ele>
        <time>2026-03-23T10:04:33Z</time>
      </trkpt>
      <trkpt lat="44.74057" lon="6.85684">
        <ele>2249.6</ele>
        <time>2026-03-23T10:04:34Z</time>
      </trkpt>
      <trkpt lat="44.74058" lon="6.85684">
        <ele>2250.7</ele>
        <time>2026-03-23T10:04:35Z</time>
      </trkpt>
      <trkpt lat="44.74058" lon="6.85685">
        <ele>2250.7</ele>
        <time>2026-03-23T10:04:36Z</time>
      </trkpt>
      <trkpt lat="44.74058" lon="6.85685">
        <ele>2250.7</ele>
        <time>2026-03-23T10:04:37Z</time>
      </trkpt>
      <trkpt lat="44.74059" lon="6.85686">
        <ele>2250.7</ele>
        <time>2026-03-23T10:04:38Z</time>
      </trkpt>
      <trkpt lat="44.74059" lon="6.85686">
        <ele>2250.7</ele>
        <time>2026-03-23T10:04:39Z</time>
      </trkpt>
      <trkpt lat="44.7406" lon="6.85687">
        <ele>2250.7</ele>
        <time>2026-03-23T10:04:40Z</time>
      </trkpt>
      <trkpt lat="44.7406" lon="6.85688">
        <ele>2250.7</ele>
        <time>2026-03-23T10:04:41Z</time>
      </trkpt>
      <trkpt lat="44.7406" lon="6.85689">
        <ele>2251.8</ele>
        <time>2026-03-23T10:04:43Z</time>
      </trkpt>
      <trkpt lat="44.7406" lon="6.85689">
        <ele>2251.8</ele>
        <time>2026-03-23T10:04:44Z</time>
      </trkpt>
      <trkpt lat="44.7406" lon="6.8569">
        <ele>2251.8</ele>
        <time>2026-03-23T10:04:45Z</time>
      </trkpt>
      <trkpt lat="44.74059" lon="6.8569">
        <ele>2251.8</ele>
        <time>2026-03-23T10:04:46Z</time>
      </trkpt>
      <trkpt lat="44.74059" lon="6.85691">
        <ele>2251.8</ele>
        <time>2026-03-23T10:04:47Z</time>
      </trkpt>
      <trkpt lat="44.74059" lon="6.85691">
        <ele>2251.8</ele>
        <time>2026-03-23T10:04:48Z</time>
      </trkpt>
      <trkpt lat="44.74059" lon="6.85691">
        <ele>2251.8</ele>
        <time>2026-03-23T10:04:49Z</time>
      </trkpt>
      <trkpt lat="44.74058" lon="6.85692">
        <ele>2251.8</ele>
        <time>2026-03-23T10:04:50Z</time>
      </trkpt>
      <trkpt lat="44.74058" lon="6.85692">
        <ele>2251.8</ele>
        <time>2026-03-23T10:04:51Z</time>
      </trkpt>
      <trkpt lat="44.74057" lon="6.85693">
        <ele>2252.9</ele>
        <time>2026-03-23T10:04:52Z</time>
      </trkpt>
      <trkpt lat="44.74057" lon="6.85693">
        <ele>2252.9</ele>
        <time>2026-03-23T10:04:53Z</time>
      </trkpt>
      <trkpt lat="44.74057" lon="6.85694">
        <ele>2252.9</ele>
        <time>2026-03-23T10:04:54Z</time>
      </trkpt>
      <trkpt lat="44.74056" lon="6.85694">
        <ele>2252.9</ele>
        <time>2026-03-23T10:04:55Z</time>
      </trkpt>
      <trkpt lat="44.74056" lon="6.85695">
        <ele>2252.9</ele>
        <time>2026-03-23T10:04:56Z</time>
      </trkpt>
      <trkpt lat="44.74056" lon="6.85695">
        <ele>2252.9</ele>
        <time>2026-03-23T10:04:57Z</time>
      </trkpt>
      <trkpt lat="44.74056" lon="6.85695">
        <ele>2252.9</ele>
        <time>2026-03-23T10:04:58Z</time>
      </trkpt>
      <trkpt lat="44.74055" lon="6.85696">
        <ele>2252.9</ele>
        <time>2026-03-23T10:04:59Z</time>
      </trkpt>
      <trkpt lat="44.74055" lon="6.85696">
        <ele>2252.9</ele>
        <time>2026-03-23T10:05:00Z</time>
      </trkpt>
      <trkpt lat="44.74055" lon="6.85697">
        <ele>2254</ele>
        <time>2026-03-23T10:05:01Z</time>
      </trkpt>
      <trkpt lat="44.74054" lon="6.85698">
        <ele>2254.1</ele>
        <time>2026-03-23T10:05:02Z</time>
      </trkpt>
      <trkpt lat="44.74054" lon="6.85698">
        <ele>2254.1</ele>
        <time>2026-03-23T10:05:03Z</time>
      </trkpt>
      <trkpt lat="44.74053" lon="6.85698">
        <ele>2254.1</ele>
        <time>2026-03-23T10:05:04Z</time>
      </trkpt>
      <trkpt lat="44.74053" lon="6.85699">
        <ele>2254.1</ele>
        <time>2026-03-23T10:05:05Z</time>
      </trkpt>
      <trkpt lat="44.74052" lon="6.85699">
        <ele>2254.1</ele>
        <time>2026-03-23T10:05:06Z</time>
      </trkpt>
      <trkpt lat="44.74052" lon="6.85699">
        <ele>2254.1</ele>
        <time>2026-03-23T10:05:07Z</time>
      </trkpt>
      <trkpt lat="44.74052" lon="6.857">
        <ele>2254.1</ele>
        <time>2026-03-23T10:05:08Z</time>
      </trkpt>
      <trkpt lat="44.74051" lon="6.857">
        <ele>2254.1</ele>
        <time>2026-03-23T10:05:09Z</time>
      </trkpt>
      <trkpt lat="44.74051" lon="6.857">
        <ele>2254.1</ele>
        <time>2026-03-23T10:05:10Z</time>
      </trkpt>
      <trkpt lat="44.7405" lon="6.85701">
        <ele>2254.1</ele>
        <time>2026-03-23T10:05:11Z</time>
      </trkpt>
      <trkpt lat="44.7405" lon="6.85701">
        <ele>2254.1</ele>
        <time>2026-03-23T10:05:12Z</time>
      </trkpt>
      <trkpt lat="44.74049" lon="6.85701">
        <ele>2254.1</ele>
        <time>2026-03-23T10:05:13Z</time>
      </trkpt>
      <trkpt lat="44.74049" lon="6.85702">
        <ele>2255.3</ele>
        <time>2026-03-23T10:05:14Z</time>
      </trkpt>
      <trkpt lat="44.74048" lon="6.85702">
        <ele>2255.3</ele>
        <time>2026-03-23T10:05:15Z</time>
      </trkpt>
      <trkpt lat="44.74047" lon="6.85702">
        <ele>2255.3</ele>
        <time>2026-03-23T10:05:16Z</time>
      </trkpt>
      <trkpt lat="44.74047" lon="6.85702">
        <ele>2255.3</ele>
        <time>2026-03-23T10:05:17Z</time>
      </trkpt>
      <trkpt lat="44.74047" lon="6.85702">
        <ele>2255.3</ele>
        <time>2026-03-23T10:05:18Z</time>
      </trkpt>
      <trkpt lat="44.74047" lon="6.85703">
        <ele>2255.3</ele>
        <time>2026-03-23T10:05:19Z</time>
      </trkpt>
      <trkpt lat="44.74047" lon="6.85704">
        <ele>2255.3</ele>
        <time>2026-03-23T10:05:20Z</time>
      </trkpt>
      <trkpt lat="44.74047" lon="6.85705">
        <ele>2255.3</ele>
        <time>2026-03-23T10:05:21Z</time>
      </trkpt>
      <trkpt lat="44.74047" lon="6.85705">
        <ele>2255.3</ele>
        <time>2026-03-23T10:05:22Z</time>
      </trkpt>
      <trkpt lat="44.74047" lon="6.85706">
        <ele>2256.4</ele>
        <time>2026-03-23T10:05:23Z</time>
      </trkpt>
      <trkpt lat="44.74047" lon="6.85707">
        <ele>2256.4</ele>
        <time>2026-03-23T10:05:24Z</time>
      </trkpt>
      <trkpt lat="44.74047" lon="6.85707">
        <ele>2256.4</ele>
        <time>2026-03-23T10:05:25Z</time>
      </trkpt>
      <trkpt lat="44.74048" lon="6.85708">
        <ele>2256.4</ele>
        <time>2026-03-23T10:05:26Z</time>
      </trkpt>
      <trkpt lat="44.74048" lon="6.85709">
        <ele>2256.4</ele>
        <time>2026-03-23T10:05:27Z</time>
      </trkpt>
      <trkpt lat="44.74049" lon="6.85709">
        <ele>2256.4</ele>
        <time>2026-03-23T10:05:28Z</time>
      </trkpt>
      <trkpt lat="44.74049" lon="6.8571">
        <ele>2256.4</ele>
        <time>2026-03-23T10:05:29Z</time>
      </trkpt>
      <trkpt lat="44.74049" lon="6.8571">
        <ele>2257.6</ele>
        <time>2026-03-23T10:05:30Z</time>
      </trkpt>
      <trkpt lat="44.74049" lon="6.8571">
        <ele>2257.6</ele>
        <time>2026-03-23T10:05:31Z</time>
      </trkpt>
      <trkpt lat="44.7405" lon="6.8571">
        <ele>2257.6</ele>
        <time>2026-03-23T10:05:32Z</time>
      </trkpt>
      <trkpt lat="44.7405" lon="6.85711">
        <ele>2257.6</ele>
        <time>2026-03-23T10:05:33Z</time>
      </trkpt>
      <trkpt lat="44.7405" lon="6.85711">
        <ele>2257.6</ele>
        <time>2026-03-23T10:05:34Z</time>
      </trkpt>
      <trkpt lat="44.7405" lon="6.85711">
        <ele>2257.6</ele>
        <time>2026-03-23T10:05:35Z</time>
      </trkpt>
      <trkpt lat="44.74051" lon="6.85711">
        <ele>2257.6</ele>
        <time>2026-03-23T10:05:36Z</time>
      </trkpt>
      <trkpt lat="44.74051" lon="6.85712">
        <ele>2257.6</ele>
        <time>2026-03-23T10:05:37Z</time>
      </trkpt>
      <trkpt lat="44.74051" lon="6.85712">
        <ele>2257.6</ele>
        <time>2026-03-23T10:05:38Z</time>
      </trkpt>
      <trkpt lat="44.74051" lon="6.85712">
        <ele>2257.6</ele>
        <time>2026-03-23T10:05:39Z</time>
      </trkpt>
      <trkpt lat="44.74052" lon="6.85713">
        <ele>2257.6</ele>
        <time>2026-03-23T10:05:40Z</time>
      </trkpt>
      <trkpt lat="44.74052" lon="6.85713">
        <ele>2257.6</ele>
        <time>2026-03-23T10:05:41Z</time>
      </trkpt>
      <trkpt lat="44.74052" lon="6.85713">
        <ele>2257.6</ele>
        <time>2026-03-23T10:05:42Z</time>
      </trkpt>
      <trkpt lat="44.74053" lon="6.85714">
        <ele>2257.6</ele>
        <time>2026-03-23T10:05:43Z</time>
      </trkpt>
      <trkpt lat="44.74053" lon="6.85714">
        <ele>2257.6</ele>
        <time>2026-03-23T10:05:44Z</time>
      </trkpt>
      <trkpt lat="44.74054" lon="6.85715">
        <ele>2258.8</ele>
        <time>2026-03-23T10:05:45Z</time>
      </trkpt>
      <trkpt lat="44.74054" lon="6.85715">
        <ele>2258.8</ele>
        <time>2026-03-23T10:05:46Z</time>
      </trkpt>
      <trkpt lat="44.74055" lon="6.85715">
        <ele>2258.8</ele>
        <time>2026-03-23T10:05:47Z</time>
      </trkpt>
      <trkpt lat="44.74055" lon="6.85716">
        <ele>2258.7</ele>
        <time>2026-03-23T10:05:48Z</time>
      </trkpt>
      <trkpt lat="44.74055" lon="6.85716">
        <ele>2258.7</ele>
        <time>2026-03-23T10:05:49Z</time>
      </trkpt>
      <trkpt lat="44.74056" lon="6.85716">
        <ele>2258.7</ele>
        <time>2026-03-23T10:05:50Z</time>
      </trkpt>
      <trkpt lat="44.74056" lon="6.85717">
        <ele>2258.7</ele>
        <time>2026-03-23T10:05:51Z</time>
      </trkpt>
      <trkpt lat="44.74057" lon="6.85717">
        <ele>2258.7</ele>
        <time>2026-03-23T10:05:52Z</time>
      </trkpt>
      <trkpt lat="44.74057" lon="6.85717">
        <ele>2258.7</ele>
        <time>2026-03-23T10:05:53Z</time>
      </trkpt>
      <trkpt lat="44.74057" lon="6.85717">
        <ele>2258.7</ele>
        <time>2026-03-23T10:05:54Z</time>
      </trkpt>
      <trkpt lat="44.74058" lon="6.85718">
        <ele>2258.7</ele>
        <time>2026-03-23T10:05:55Z</time>
      </trkpt>
      <trkpt lat="44.74058" lon="6.85718">
        <ele>2258.6</ele>
        <time>2026-03-23T10:05:56Z</time>
      </trkpt>
      <trkpt lat="44.74058" lon="6.85718">
        <ele>2258.6</ele>
        <time>2026-03-23T10:05:57Z</time>
      </trkpt>
      <trkpt lat="44.74059" lon="6.85719">
        <ele>2259.8</ele>
        <time>2026-03-23T10:05:58Z</time>
      </trkpt>
      <trkpt lat="44.74059" lon="6.85719">
        <ele>2259.8</ele>
        <time>2026-03-23T10:05:59Z</time>
      </trkpt>
      <trkpt lat="44.74059" lon="6.8572">
        <ele>2259.8</ele>
        <time>2026-03-23T10:06:00Z</time>
      </trkpt>
      <trkpt lat="44.7406" lon="6.8572">
        <ele>2259.8</ele>
        <time>2026-03-23T10:06:01Z</time>
      </trkpt>
      <trkpt lat="44.7406" lon="6.85721">
        <ele>2259.8</ele>
        <time>2026-03-23T10:06:02Z</time>
      </trkpt>
      <trkpt lat="44.74061" lon="6.85721">
        <ele>2259.7</ele>
        <time>2026-03-23T10:06:04Z</time>
      </trkpt>
      <trkpt lat="44.74061" lon="6.85722">
        <ele>2259.7</ele>
        <time>2026-03-23T10:06:05Z</time>
      </trkpt>
      <trkpt lat="44.74062" lon="6.85722">
        <ele>2259.7</ele>
        <time>2026-03-23T10:06:06Z</time>
      </trkpt>
      <trkpt lat="44.74062" lon="6.85722">
        <ele>2259.7</ele>
        <time>2026-03-23T10:06:07Z</time>
      </trkpt>
      <trkpt lat="44.74063" lon="6.85723">
        <ele>2259.7</ele>
        <time>2026-03-23T10:06:08Z</time>
      </trkpt>
      <trkpt lat="44.74064" lon="6.85723">
        <ele>2260.9</ele>
        <time>2026-03-23T10:06:09Z</time>
      </trkpt>
      <trkpt lat="44.74064" lon="6.85724">
        <ele>2260.8</ele>
        <time>2026-03-23T10:06:10Z</time>
      </trkpt>
      <trkpt lat="44.74065" lon="6.85724">
        <ele>2260.8</ele>
        <time>2026-03-23T10:06:11Z</time>
      </trkpt>
      <trkpt lat="44.74065" lon="6.85724">
        <ele>2260.8</ele>
        <time>2026-03-23T10:06:12Z</time>
      </trkpt>
      <trkpt lat="44.74065" lon="6.85725">
        <ele>2260.8</ele>
        <time>2026-03-23T10:06:13Z</time>
      </trkpt>
      <trkpt lat="44.74066" lon="6.85725">
        <ele>2260.8</ele>
        <time>2026-03-23T10:06:14Z</time>
      </trkpt>
      <trkpt lat="44.74066" lon="6.85725">
        <ele>2260.8</ele>
        <time>2026-03-23T10:06:15Z</time>
      </trkpt>
      <trkpt lat="44.74067" lon="6.85726">
        <ele>2260.8</ele>
        <time>2026-03-23T10:06:16Z</time>
      </trkpt>
      <trkpt lat="44.74067" lon="6.85726">
        <ele>2260.7</ele>
        <time>2026-03-23T10:06:17Z</time>
      </trkpt>
      <trkpt lat="44.74067" lon="6.85726">
        <ele>2260.7</ele>
        <time>2026-03-23T10:06:18Z</time>
      </trkpt>
      <trkpt lat="44.74067" lon="6.85727">
        <ele>2260.7</ele>
        <time>2026-03-23T10:06:19Z</time>
      </trkpt>
      <trkpt lat="44.74067" lon="6.85727">
        <ele>2260.7</ele>
        <time>2026-03-23T10:06:20Z</time>
      </trkpt>
      <trkpt lat="44.74067" lon="6.85727">
        <ele>2260.7</ele>
        <time>2026-03-23T10:06:21Z</time>
      </trkpt>
      <trkpt lat="44.74068" lon="6.85727">
        <ele>2261.8</ele>
        <time>2026-03-23T10:06:22Z</time>
      </trkpt>
      <trkpt lat="44.74068" lon="6.85727">
        <ele>2261.8</ele>
        <time>2026-03-23T10:06:23Z</time>
      </trkpt>
      <trkpt lat="44.74068" lon="6.85728">
        <ele>2261.8</ele>
        <time>2026-03-23T10:06:24Z</time>
      </trkpt>
      <trkpt lat="44.74069" lon="6.85728">
        <ele>2261.8</ele>
        <time>2026-03-23T10:06:25Z</time>
      </trkpt>
      <trkpt lat="44.74069" lon="6.85728">
        <ele>2261.8</ele>
        <time>2026-03-23T10:06:26Z</time>
      </trkpt>
      <trkpt lat="44.7407" lon="6.85729">
        <ele>2261.8</ele>
        <time>2026-03-23T10:06:27Z</time>
      </trkpt>
      <trkpt lat="44.7407" lon="6.85729">
        <ele>2261.8</ele>
        <time>2026-03-23T10:06:28Z</time>
      </trkpt>
      <trkpt lat="44.74071" lon="6.8573">
        <ele>2261.8</ele>
        <time>2026-03-23T10:06:29Z</time>
      </trkpt>
      <trkpt lat="44.74071" lon="6.8573">
        <ele>2261.8</ele>
        <time>2026-03-23T10:06:30Z</time>
      </trkpt>
      <trkpt lat="44.74071" lon="6.85731">
        <ele>2261.8</ele>
        <time>2026-03-23T10:06:31Z</time>
      </trkpt>
      <trkpt lat="44.74072" lon="6.85731">
        <ele>2261.8</ele>
        <time>2026-03-23T10:06:32Z</time>
      </trkpt>
      <trkpt lat="44.74072" lon="6.85731">
        <ele>2261.8</ele>
        <time>2026-03-23T10:06:33Z</time>
      </trkpt>
      <trkpt lat="44.74072" lon="6.85731">
        <ele>2261.8</ele>
        <time>2026-03-23T10:06:34Z</time>
      </trkpt>
      <trkpt lat="44.74072" lon="6.85731">
        <ele>2261.8</ele>
        <time>2026-03-23T10:06:35Z</time>
      </trkpt>
      <trkpt lat="44.74072" lon="6.85732">
        <ele>2262.9</ele>
        <time>2026-03-23T10:06:36Z</time>
      </trkpt>
      <trkpt lat="44.74072" lon="6.85732">
        <ele>2262.9</ele>
        <time>2026-03-23T10:06:37Z</time>
      </trkpt>
      <trkpt lat="44.74072" lon="6.85732">
        <ele>2262.9</ele>
        <time>2026-03-23T10:06:38Z</time>
      </trkpt>
      <trkpt lat="44.74073" lon="6.85732">
        <ele>2262.8</ele>
        <time>2026-03-23T10:06:39Z</time>
      </trkpt>
      <trkpt lat="44.74073" lon="6.85732">
        <ele>2262.8</ele>
        <time>2026-03-23T10:06:41Z</time>
      </trkpt>
      <trkpt lat="44.74074" lon="6.85732">
        <ele>2262.8</ele>
        <time>2026-03-23T10:06:42Z</time>
      </trkpt>
      <trkpt lat="44.74074" lon="6.85733">
        <ele>2262.8</ele>
        <time>2026-03-23T10:06:43Z</time>
      </trkpt>
      <trkpt lat="44.74074" lon="6.85733">
        <ele>2262.8</ele>
        <time>2026-03-23T10:06:44Z</time>
      </trkpt>
      <trkpt lat="44.74074" lon="6.85733">
        <ele>2262.8</ele>
        <time>2026-03-23T10:06:45Z</time>
      </trkpt>
      <trkpt lat="44.74074" lon="6.85733">
        <ele>2262.8</ele>
        <time>2026-03-23T10:06:46Z</time>
      </trkpt>
      <trkpt lat="44.74074" lon="6.85733">
        <ele>2262.8</ele>
        <time>2026-03-23T10:06:47Z</time>
      </trkpt>
      <trkpt lat="44.74075" lon="6.85734">
        <ele>2262.8</ele>
        <time>2026-03-23T10:06:48Z</time>
      </trkpt>
      <trkpt lat="44.74075" lon="6.85735">
        <ele>2262.8</ele>
        <time>2026-03-23T10:06:49Z</time>
      </trkpt>
      <trkpt lat="44.74075" lon="6.85736">
        <ele>2262.8</ele>
        <time>2026-03-23T10:06:50Z</time>
      </trkpt>
      <trkpt lat="44.74075" lon="6.85737">
        <ele>2263.8</ele>
        <time>2026-03-23T10:06:51Z</time>
      </trkpt>
      <trkpt lat="44.74075" lon="6.85738">
        <ele>2263.8</ele>
        <time>2026-03-23T10:06:52Z</time>
      </trkpt>
      <trkpt lat="44.74074" lon="6.8574">
        <ele>2263.8</ele>
        <time>2026-03-23T10:06:53Z</time>
      </trkpt>
      <trkpt lat="44.74074" lon="6.85742">
        <ele>2265</ele>
        <time>2026-03-23T10:06:54Z</time>
      </trkpt>
      <trkpt lat="44.74074" lon="6.85743">
        <ele>2265</ele>
        <time>2026-03-23T10:06:55Z</time>
      </trkpt>
      <trkpt lat="44.74074" lon="6.85745">
        <ele>2266.1</ele>
        <time>2026-03-23T10:06:56Z</time>
      </trkpt>
      <trkpt lat="44.74074" lon="6.85746">
        <ele>2266.1</ele>
        <time>2026-03-23T10:06:57Z</time>
      </trkpt>
      <trkpt lat="44.74074" lon="6.85749">
        <ele>2267.4</ele>
        <time>2026-03-23T10:06:58Z</time>
      </trkpt>
      <trkpt lat="44.74074" lon="6.8575">
        <ele>2267.4</ele>
        <time>2026-03-23T10:06:59Z</time>
      </trkpt>
      <trkpt lat="44.74074" lon="6.85751">
        <ele>2267.4</ele>
        <time>2026-03-23T10:07:00Z</time>
      </trkpt>
      <trkpt lat="44.74074" lon="6.85753">
        <ele>2267.4</ele>
        <time>2026-03-23T10:07:01Z</time>
      </trkpt>
      <trkpt lat="44.74074" lon="6.85755">
        <ele>2268.6</ele>
        <time>2026-03-23T10:07:02Z</time>
      </trkpt>
      <trkpt lat="44.74074" lon="6.85758">
        <ele>2269.8</ele>
        <time>2026-03-23T10:07:04Z</time>
      </trkpt>
      <trkpt lat="44.74074" lon="6.85763">
        <ele>2271</ele>
        <time>2026-03-23T10:07:05Z</time>
      </trkpt>
      <trkpt lat="44.74074" lon="6.85767">
        <ele>2272.1</ele>
        <time>2026-03-23T10:07:06Z</time>
      </trkpt>
      <trkpt lat="44.74073" lon="6.85769">
        <ele>2272.1</ele>
        <time>2026-03-23T10:07:07Z</time>
      </trkpt>
      <trkpt lat="44.74073" lon="6.85771">
        <ele>2273.2</ele>
        <time>2026-03-23T10:07:08Z</time>
      </trkpt>
      <trkpt lat="44.74073" lon="6.85772">
        <ele>2273.2</ele>
        <time>2026-03-23T10:07:09Z</time>
      </trkpt>
      <trkpt lat="44.74073" lon="6.85773">
        <ele>2273.2</ele>
        <time>2026-03-23T10:07:10Z</time>
      </trkpt>
      <trkpt lat="44.74073" lon="6.85775">
        <ele>2274.2</ele>
        <time>2026-03-23T10:07:11Z</time>
      </trkpt>
      <trkpt lat="44.74074" lon="6.85776">
        <ele>2274.2</ele>
        <time>2026-03-23T10:07:12Z</time>
      </trkpt>
      <trkpt lat="44.74074" lon="6.85778">
        <ele>2274.2</ele>
        <time>2026-03-23T10:07:13Z</time>
      </trkpt>
      <trkpt lat="44.74074" lon="6.85779">
        <ele>2275.2</ele>
        <time>2026-03-23T10:07:14Z</time>
      </trkpt>
      <trkpt lat="44.74074" lon="6.8578">
        <ele>2275.2</ele>
        <time>2026-03-23T10:07:15Z</time>
      </trkpt>
      <trkpt lat="44.74075" lon="6.85786">
        <ele>2276.2</ele>
        <time>2026-03-23T10:07:16Z</time>
      </trkpt>
      <trkpt lat="44.74076" lon="6.85789">
        <ele>2277</ele>
        <time>2026-03-23T10:07:17Z</time>
      </trkpt>
      <trkpt lat="44.74078" lon="6.85795">
        <ele>2278</ele>
        <time>2026-03-23T10:07:18Z</time>
      </trkpt>
      <trkpt lat="44.7408" lon="6.85798">
        <ele>2278.8</ele>
        <time>2026-03-23T10:07:19Z</time>
      </trkpt>
      <trkpt lat="44.7408" lon="6.858">
        <ele>2278.8</ele>
        <time>2026-03-23T10:07:20Z</time>
      </trkpt>
      <trkpt lat="44.74081" lon="6.85801">
        <ele>2279.9</ele>
        <time>2026-03-23T10:07:21Z</time>
      </trkpt>
      <trkpt lat="44.74082" lon="6.85805">
        <ele>2280.7</ele>
        <time>2026-03-23T10:07:22Z</time>
      </trkpt>
      <trkpt lat="44.74082" lon="6.85807">
        <ele>2280.7</ele>
        <time>2026-03-23T10:07:23Z</time>
      </trkpt>
      <trkpt lat="44.74083" lon="6.85809">
        <ele>2281.8</ele>
        <time>2026-03-23T10:07:25Z</time>
      </trkpt>
      <trkpt lat="44.74083" lon="6.85811">
        <ele>2281.8</ele>
        <time>2026-03-23T10:07:26Z</time>
      </trkpt>
      <trkpt lat="44.74084" lon="6.85814">
        <ele>2282.8</ele>
        <time>2026-03-23T10:07:27Z</time>
      </trkpt>
      <trkpt lat="44.74084" lon="6.85815">
        <ele>2282.8</ele>
        <time>2026-03-23T10:07:28Z</time>
      </trkpt>
      <trkpt lat="44.74084" lon="6.85816">
        <ele>2282.8</ele>
        <time>2026-03-23T10:07:29Z</time>
      </trkpt>
      <trkpt lat="44.74085" lon="6.85817">
        <ele>2282.8</ele>
        <time>2026-03-23T10:07:30Z</time>
      </trkpt>
      <trkpt lat="44.74085" lon="6.85819">
        <ele>2283.4</ele>
        <time>2026-03-23T10:07:31Z</time>
      </trkpt>
      <trkpt lat="44.74085" lon="6.85819">
        <ele>2283.4</ele>
        <time>2026-03-23T10:07:32Z</time>
      </trkpt>
      <trkpt lat="44.74085" lon="6.8582">
        <ele>2283.4</ele>
        <time>2026-03-23T10:07:33Z</time>
      </trkpt>
      <trkpt lat="44.74086" lon="6.85821">
        <ele>2283.4</ele>
        <time>2026-03-23T10:07:34Z</time>
      </trkpt>
      <trkpt lat="44.74086" lon="6.85823">
        <ele>2284.3</ele>
        <time>2026-03-23T10:07:35Z</time>
      </trkpt>
      <trkpt lat="44.74087" lon="6.85824">
        <ele>2284.3</ele>
        <time>2026-03-23T10:07:36Z</time>
      </trkpt>
      <trkpt lat="44.74087" lon="6.85826">
        <ele>2284.3</ele>
        <time>2026-03-23T10:07:37Z</time>
      </trkpt>
      <trkpt lat="44.74086" lon="6.85827">
        <ele>2285.3</ele>
        <time>2026-03-23T10:07:38Z</time>
      </trkpt>
      <trkpt lat="44.74086" lon="6.85831">
        <ele>2286.2</ele>
        <time>2026-03-23T10:07:39Z</time>
      </trkpt>
      <trkpt lat="44.74086" lon="6.85831">
        <ele>2286.2</ele>
        <time>2026-03-23T10:07:40Z</time>
      </trkpt>
      <trkpt lat="44.74085" lon="6.85833">
        <ele>2286.2</ele>
        <time>2026-03-23T10:07:41Z</time>
      </trkpt>
      <trkpt lat="44.74085" lon="6.85834">
        <ele>2286.6</ele>
        <time>2026-03-23T10:07:43Z</time>
      </trkpt>
      <trkpt lat="44.74085" lon="6.85836">
        <ele>2287.5</ele>
        <time>2026-03-23T10:07:44Z</time>
      </trkpt>
      <trkpt lat="44.74084" lon="6.85837">
        <ele>2287.5</ele>
        <time>2026-03-23T10:07:45Z</time>
      </trkpt>
      <trkpt lat="44.74084" lon="6.85838">
        <ele>2287.5</ele>
        <time>2026-03-23T10:07:46Z</time>
      </trkpt>
      <trkpt lat="44.74084" lon="6.8584">
        <ele>2288.5</ele>
        <time>2026-03-23T10:07:47Z</time>
      </trkpt>
      <trkpt lat="44.74084" lon="6.85841">
        <ele>2288.5</ele>
        <time>2026-03-23T10:07:48Z</time>
      </trkpt>
      <trkpt lat="44.74084" lon="6.85843">
        <ele>2288.5</ele>
        <time>2026-03-23T10:07:49Z</time>
      </trkpt>
      <trkpt lat="44.74084" lon="6.85844">
        <ele>2289.5</ele>
        <time>2026-03-23T10:07:50Z</time>
      </trkpt>
      <trkpt lat="44.74084" lon="6.85845">
        <ele>2289.5</ele>
        <time>2026-03-23T10:07:51Z</time>
      </trkpt>
      <trkpt lat="44.74084" lon="6.85847">
        <ele>2289.5</ele>
        <time>2026-03-23T10:07:52Z</time>
      </trkpt>
      <trkpt lat="44.74084" lon="6.85849">
        <ele>2290.5</ele>
        <time>2026-03-23T10:07:53Z</time>
      </trkpt>
      <trkpt lat="44.74083" lon="6.8585">
        <ele>2290.5</ele>
        <time>2026-03-23T10:07:54Z</time>
      </trkpt>
      <trkpt lat="44.74083" lon="6.85851">
        <ele>2290.5</ele>
        <time>2026-03-23T10:07:55Z</time>
      </trkpt>
      <trkpt lat="44.74083" lon="6.85852">
        <ele>2291.4</ele>
        <time>2026-03-23T10:07:56Z</time>
      </trkpt>
      <trkpt lat="44.74083" lon="6.85852">
        <ele>2291.4</ele>
        <time>2026-03-23T10:07:57Z</time>
      </trkpt>
      <trkpt lat="44.74083" lon="6.85854">
        <ele>2291.4</ele>
        <time>2026-03-23T10:07:58Z</time>
      </trkpt>
      <trkpt lat="44.74083" lon="6.85855">
        <ele>2291.4</ele>
        <time>2026-03-23T10:07:59Z</time>
      </trkpt>
      <trkpt lat="44.74083" lon="6.85856">
        <ele>2291.4</ele>
        <time>2026-03-23T10:08:00Z</time>
      </trkpt>
      <trkpt lat="44.74084" lon="6.85857">
        <ele>2292.4</ele>
        <time>2026-03-23T10:08:01Z</time>
      </trkpt>
      <trkpt lat="44.74084" lon="6.85858">
        <ele>2292.4</ele>
        <time>2026-03-23T10:08:02Z</time>
      </trkpt>
      <trkpt lat="44.74084" lon="6.85859">
        <ele>2292.4</ele>
        <time>2026-03-23T10:08:04Z</time>
      </trkpt>
      <trkpt lat="44.74084" lon="6.85859">
        <ele>2292.4</ele>
        <time>2026-03-23T10:08:05Z</time>
      </trkpt>
      <trkpt lat="44.74084" lon="6.8586">
        <ele>2292.4</ele>
        <time>2026-03-23T10:08:06Z</time>
      </trkpt>
      <trkpt lat="44.74084" lon="6.85861">
        <ele>2293.3</ele>
        <time>2026-03-23T10:08:07Z</time>
      </trkpt>
      <trkpt lat="44.74084" lon="6.85861">
        <ele>2293.3</ele>
        <time>2026-03-23T10:08:08Z</time>
      </trkpt>
      <trkpt lat="44.74084" lon="6.85861">
        <ele>2293.2</ele>
        <time>2026-03-23T10:08:09Z</time>
      </trkpt>
      <trkpt lat="44.74084" lon="6.85862">
        <ele>2293.2</ele>
        <time>2026-03-23T10:08:10Z</time>
      </trkpt>
      <trkpt lat="44.74085" lon="6.85863">
        <ele>2293.2</ele>
        <time>2026-03-23T10:08:11Z</time>
      </trkpt>
      <trkpt lat="44.74085" lon="6.85864">
        <ele>2293.2</ele>
        <time>2026-03-23T10:08:12Z</time>
      </trkpt>
      <trkpt lat="44.74085" lon="6.85865">
        <ele>2294.1</ele>
        <time>2026-03-23T10:08:13Z</time>
      </trkpt>
      <trkpt lat="44.74085" lon="6.85865">
        <ele>2294.1</ele>
        <time>2026-03-23T10:08:14Z</time>
      </trkpt>
      <trkpt lat="44.74085" lon="6.85866">
        <ele>2294.1</ele>
        <time>2026-03-23T10:08:15Z</time>
      </trkpt>
      <trkpt lat="44.74085" lon="6.85866">
        <ele>2294.1</ele>
        <time>2026-03-23T10:08:16Z</time>
      </trkpt>
      <trkpt lat="44.74085" lon="6.85867">
        <ele>2294.1</ele>
        <time>2026-03-23T10:08:17Z</time>
      </trkpt>
      <trkpt lat="44.74085" lon="6.85868">
        <ele>2293.6</ele>
        <time>2026-03-23T10:08:18Z</time>
      </trkpt>
      <trkpt lat="44.74085" lon="6.85868">
        <ele>2293.6</ele>
        <time>2026-03-23T10:08:19Z</time>
      </trkpt>
      <trkpt lat="44.74085" lon="6.85869">
        <ele>2294.4</ele>
        <time>2026-03-23T10:08:20Z</time>
      </trkpt>
      <trkpt lat="44.74086" lon="6.8587">
        <ele>2294.4</ele>
        <time>2026-03-23T10:08:21Z</time>
      </trkpt>
      <trkpt lat="44.74086" lon="6.8587">
        <ele>2294.4</ele>
        <time>2026-03-23T10:08:22Z</time>
      </trkpt>
      <trkpt lat="44.74086" lon="6.8587">
        <ele>2294.4</ele>
        <time>2026-03-23T10:08:23Z</time>
      </trkpt>
      <trkpt lat="44.74086" lon="6.85871">
        <ele>2294.4</ele>
        <time>2026-03-23T10:08:24Z</time>
      </trkpt>
      <trkpt lat="44.74086" lon="6.85872">
        <ele>2294.4</ele>
        <time>2026-03-23T10:08:25Z</time>
      </trkpt>
      <trkpt lat="44.74086" lon="6.85872">
        <ele>2294.4</ele>
        <time>2026-03-23T10:08:27Z</time>
      </trkpt>
      <trkpt lat="44.74086" lon="6.85873">
        <ele>2294.4</ele>
        <time>2026-03-23T10:08:28Z</time>
      </trkpt>
      <trkpt lat="44.74086" lon="6.85873">
        <ele>2295.2</ele>
        <time>2026-03-23T10:08:29Z</time>
      </trkpt>
      <trkpt lat="44.74086" lon="6.85874">
        <ele>2295.2</ele>
        <time>2026-03-23T10:08:30Z</time>
      </trkpt>
      <trkpt lat="44.74087" lon="6.85875">
        <ele>2295.2</ele>
        <time>2026-03-23T10:08:31Z</time>
      </trkpt>
      <trkpt lat="44.74087" lon="6.85875">
        <ele>2295.2</ele>
        <time>2026-03-23T10:08:32Z</time>
      </trkpt>
      <trkpt lat="44.74087" lon="6.85876">
        <ele>2295.2</ele>
        <time>2026-03-23T10:08:33Z</time>
      </trkpt>
      <trkpt lat="44.74087" lon="6.85877">
        <ele>2295.2</ele>
        <time>2026-03-23T10:08:34Z</time>
      </trkpt>
      <trkpt lat="44.74087" lon="6.85877">
        <ele>2295.2</ele>
        <time>2026-03-23T10:08:35Z</time>
      </trkpt>
      <trkpt lat="44.74087" lon="6.85878">
        <ele>2296</ele>
        <time>2026-03-23T10:08:36Z</time>
      </trkpt>
      <trkpt lat="44.74087" lon="6.85879">
        <ele>2296</ele>
        <time>2026-03-23T10:08:37Z</time>
      </trkpt>
      <trkpt lat="44.74087" lon="6.8588">
        <ele>2296</ele>
        <time>2026-03-23T10:08:38Z</time>
      </trkpt>
      <trkpt lat="44.74087" lon="6.85881">
        <ele>2296</ele>
        <time>2026-03-23T10:08:39Z</time>
      </trkpt>
      <trkpt lat="44.74087" lon="6.85881">
        <ele>2296</ele>
        <time>2026-03-23T10:08:40Z</time>
      </trkpt>
      <trkpt lat="44.74087" lon="6.85882">
        <ele>2296.9</ele>
        <time>2026-03-23T10:08:41Z</time>
      </trkpt>
      <trkpt lat="44.74087" lon="6.85883">
        <ele>2296.9</ele>
        <time>2026-03-23T10:08:42Z</time>
      </trkpt>
      <trkpt lat="44.74087" lon="6.85883">
        <ele>2296.9</ele>
        <time>2026-03-23T10:08:43Z</time>
      </trkpt>
      <trkpt lat="44.74087" lon="6.85884">
        <ele>2296.9</ele>
        <time>2026-03-23T10:08:44Z</time>
      </trkpt>
      <trkpt lat="44.74087" lon="6.85884">
        <ele>2296.9</ele>
        <time>2026-03-23T10:08:45Z</time>
      </trkpt>
      <trkpt lat="44.74087" lon="6.85884">
        <ele>2296.9</ele>
        <time>2026-03-23T10:08:46Z</time>
      </trkpt>
      <trkpt lat="44.74087" lon="6.85885">
        <ele>2296.9</ele>
        <time>2026-03-23T10:08:47Z</time>
      </trkpt>
      <trkpt lat="44.74087" lon="6.85886">
        <ele>2296.9</ele>
        <time>2026-03-23T10:08:48Z</time>
      </trkpt>
      <trkpt lat="44.74087" lon="6.85887">
        <ele>2297.7</ele>
        <time>2026-03-23T10:08:49Z</time>
      </trkpt>
      <trkpt lat="44.74086" lon="6.85888">
        <ele>2297.7</ele>
        <time>2026-03-23T10:08:50Z</time>
      </trkpt>
      <trkpt lat="44.74086" lon="6.85889">
        <ele>2297.7</ele>
        <time>2026-03-23T10:08:51Z</time>
      </trkpt>
      <trkpt lat="44.74086" lon="6.85889">
        <ele>2297.7</ele>
        <time>2026-03-23T10:08:52Z</time>
      </trkpt>
      <trkpt lat="44.74086" lon="6.8589">
        <ele>2298.6</ele>
        <time>2026-03-23T10:08:53Z</time>
      </trkpt>
      <trkpt lat="44.74086" lon="6.85891">
        <ele>2298.6</ele>
        <time>2026-03-23T10:08:54Z</time>
      </trkpt>
      <trkpt lat="44.74085" lon="6.85893">
        <ele>2298.6</ele>
        <time>2026-03-23T10:08:55Z</time>
      </trkpt>
      <trkpt lat="44.74085" lon="6.85893">
        <ele>2299.1</ele>
        <time>2026-03-23T10:08:56Z</time>
      </trkpt>
      <trkpt lat="44.74085" lon="6.85894">
        <ele>2299.1</ele>
        <time>2026-03-23T10:08:57Z</time>
      </trkpt>
      <trkpt lat="44.74084" lon="6.85894">
        <ele>2299.1</ele>
        <time>2026-03-23T10:08:58Z</time>
      </trkpt>
      <trkpt lat="44.74084" lon="6.85895">
        <ele>2299.9</ele>
        <time>2026-03-23T10:08:59Z</time>
      </trkpt>
      <trkpt lat="44.74084" lon="6.85896">
        <ele>2299.9</ele>
        <time>2026-03-23T10:09:00Z</time>
      </trkpt>
      <trkpt lat="44.74083" lon="6.85896">
        <ele>2299.9</ele>
        <time>2026-03-23T10:09:01Z</time>
      </trkpt>
      <trkpt lat="44.74082" lon="6.85898">
        <ele>2299.9</ele>
        <time>2026-03-23T10:09:02Z</time>
      </trkpt>
      <trkpt lat="44.74082" lon="6.85898">
        <ele>2300.3</ele>
        <time>2026-03-23T10:09:03Z</time>
      </trkpt>
      <trkpt lat="44.74081" lon="6.85899">
        <ele>2301.1</ele>
        <time>2026-03-23T10:09:04Z</time>
      </trkpt>
      <trkpt lat="44.7408" lon="6.859">
        <ele>2301.1</ele>
        <time>2026-03-23T10:09:05Z</time>
      </trkpt>
      <trkpt lat="44.7408" lon="6.859">
        <ele>2301.1</ele>
        <time>2026-03-23T10:09:06Z</time>
      </trkpt>
      <trkpt lat="44.7408" lon="6.85901">
        <ele>2301.1</ele>
        <time>2026-03-23T10:09:07Z</time>
      </trkpt>
      <trkpt lat="44.74079" lon="6.85901">
        <ele>2301.1</ele>
        <time>2026-03-23T10:09:08Z</time>
      </trkpt>
      <trkpt lat="44.74079" lon="6.85902">
        <ele>2301.4</ele>
        <time>2026-03-23T10:09:09Z</time>
      </trkpt>
      <trkpt lat="44.74078" lon="6.85903">
        <ele>2301.4</ele>
        <time>2026-03-23T10:09:10Z</time>
      </trkpt>
      <trkpt lat="44.74078" lon="6.85903">
        <ele>2301.4</ele>
        <time>2026-03-23T10:09:12Z</time>
      </trkpt>
      <trkpt lat="44.74078" lon="6.85903">
        <ele>2302.1</ele>
        <time>2026-03-23T10:09:13Z</time>
      </trkpt>
      <trkpt lat="44.74077" lon="6.85904">
        <ele>2302.1</ele>
        <time>2026-03-23T10:09:14Z</time>
      </trkpt>
      <trkpt lat="44.74077" lon="6.85905">
        <ele>2302.1</ele>
        <time>2026-03-23T10:09:15Z</time>
      </trkpt>
      <trkpt lat="44.74076" lon="6.85906">
        <ele>2302.1</ele>
        <time>2026-03-23T10:09:16Z</time>
      </trkpt>
      <trkpt lat="44.74076" lon="6.85906">
        <ele>2302.4</ele>
        <time>2026-03-23T10:09:17Z</time>
      </trkpt>
      <trkpt lat="44.74075" lon="6.85906">
        <ele>2302.4</ele>
        <time>2026-03-23T10:09:18Z</time>
      </trkpt>
      <trkpt lat="44.74075" lon="6.85906">
        <ele>2302.4</ele>
        <time>2026-03-23T10:09:19Z</time>
      </trkpt>
      <trkpt lat="44.74075" lon="6.85907">
        <ele>2302.4</ele>
        <time>2026-03-23T10:09:20Z</time>
      </trkpt>
      <trkpt lat="44.74075" lon="6.85907">
        <ele>2302.4</ele>
        <time>2026-03-23T10:09:21Z</time>
      </trkpt>
      <trkpt lat="44.74074" lon="6.85907">
        <ele>2302.4</ele>
        <time>2026-03-23T10:09:22Z</time>
      </trkpt>
      <trkpt lat="44.74074" lon="6.85907">
        <ele>2303.1</ele>
        <time>2026-03-23T10:09:23Z</time>
      </trkpt>
      <trkpt lat="44.74074" lon="6.85908">
        <ele>2303.1</ele>
        <time>2026-03-23T10:09:24Z</time>
      </trkpt>
      <trkpt lat="44.74073" lon="6.85908">
        <ele>2303.1</ele>
        <time>2026-03-23T10:09:25Z</time>
      </trkpt>
      <trkpt lat="44.74073" lon="6.85908">
        <ele>2303.1</ele>
        <time>2026-03-23T10:09:26Z</time>
      </trkpt>
      <trkpt lat="44.74073" lon="6.85909">
        <ele>2303.3</ele>
        <time>2026-03-23T10:09:27Z</time>
      </trkpt>
      <trkpt lat="44.74072" lon="6.85909">
        <ele>2303.3</ele>
        <time>2026-03-23T10:09:28Z</time>
      </trkpt>
      <trkpt lat="44.74072" lon="6.85909">
        <ele>2303.3</ele>
        <time>2026-03-23T10:09:29Z</time>
      </trkpt>
      <trkpt lat="44.74072" lon="6.85909">
        <ele>2303.3</ele>
        <time>2026-03-23T10:09:30Z</time>
      </trkpt>
      <trkpt lat="44.74072" lon="6.85909">
        <ele>2303.3</ele>
        <time>2026-03-23T10:09:31Z</time>
      </trkpt>
      <trkpt lat="44.74072" lon="6.8591">
        <ele>2303.3</ele>
        <time>2026-03-23T10:09:32Z</time>
      </trkpt>
      <trkpt lat="44.74072" lon="6.8591">
        <ele>2303.3</ele>
        <time>2026-03-23T10:09:33Z</time>
      </trkpt>
      <trkpt lat="44.74071" lon="6.8591">
        <ele>2303.3</ele>
        <time>2026-03-23T10:09:34Z</time>
      </trkpt>
      <trkpt lat="44.74071" lon="6.8591">
        <ele>2303.3</ele>
        <time>2026-03-23T10:09:35Z</time>
      </trkpt>
      <trkpt lat="44.74071" lon="6.85911">
        <ele>2303.3</ele>
        <time>2026-03-23T10:09:36Z</time>
      </trkpt>
      <trkpt lat="44.74071" lon="6.85911">
        <ele>2303.3</ele>
        <time>2026-03-23T10:09:37Z</time>
      </trkpt>
      <trkpt lat="44.7407" lon="6.85912">
        <ele>2303.3</ele>
        <time>2026-03-23T10:09:38Z</time>
      </trkpt>
      <trkpt lat="44.7407" lon="6.85912">
        <ele>2304</ele>
        <time>2026-03-23T10:09:39Z</time>
      </trkpt>
      <trkpt lat="44.7407" lon="6.85913">
        <ele>2304.2</ele>
        <time>2026-03-23T10:09:40Z</time>
      </trkpt>
      <trkpt lat="44.74069" lon="6.85913">
        <ele>2304.2</ele>
        <time>2026-03-23T10:09:41Z</time>
      </trkpt>
      <trkpt lat="44.74069" lon="6.85914">
        <ele>2304.2</ele>
        <time>2026-03-23T10:09:42Z</time>
      </trkpt>
      <trkpt lat="44.74069" lon="6.85914">
        <ele>2304.2</ele>
        <time>2026-03-23T10:09:43Z</time>
      </trkpt>
      <trkpt lat="44.74069" lon="6.85915">
        <ele>2304.2</ele>
        <time>2026-03-23T10:09:45Z</time>
      </trkpt>
      <trkpt lat="44.74069" lon="6.85916">
        <ele>2304.2</ele>
        <time>2026-03-23T10:09:46Z</time>
      </trkpt>
      <trkpt lat="44.74068" lon="6.85917">
        <ele>2304.9</ele>
        <time>2026-03-23T10:09:47Z</time>
      </trkpt>
      <trkpt lat="44.74068" lon="6.85917">
        <ele>2304.9</ele>
        <time>2026-03-23T10:09:48Z</time>
      </trkpt>
      <trkpt lat="44.74068" lon="6.85918">
        <ele>2304.9</ele>
        <time>2026-03-23T10:09:49Z</time>
      </trkpt>
      <trkpt lat="44.74068" lon="6.85919">
        <ele>2304.9</ele>
        <time>2026-03-23T10:09:50Z</time>
      </trkpt>
      <trkpt lat="44.74068" lon="6.85919">
        <ele>2304.9</ele>
        <time>2026-03-23T10:09:51Z</time>
      </trkpt>
      <trkpt lat="44.74068" lon="6.8592">
        <ele>2304.9</ele>
        <time>2026-03-23T10:09:52Z</time>
      </trkpt>
      <trkpt lat="44.74067" lon="6.85921">
        <ele>2305.7</ele>
        <time>2026-03-23T10:09:53Z</time>
      </trkpt>
      <trkpt lat="44.74067" lon="6.85921">
        <ele>2305.7</ele>
        <time>2026-03-23T10:09:54Z</time>
      </trkpt>
      <trkpt lat="44.74067" lon="6.85922">
        <ele>2305.7</ele>
        <time>2026-03-23T10:09:55Z</time>
      </trkpt>
      <trkpt lat="44.74067" lon="6.85922">
        <ele>2305.7</ele>
        <time>2026-03-23T10:09:56Z</time>
      </trkpt>
      <trkpt lat="44.74067" lon="6.85923">
        <ele>2305.8</ele>
        <time>2026-03-23T10:09:57Z</time>
      </trkpt>
      <trkpt lat="44.74067" lon="6.85924">
        <ele>2305.8</ele>
        <time>2026-03-23T10:09:58Z</time>
      </trkpt>
      <trkpt lat="44.74067" lon="6.85924">
        <ele>2305.8</ele>
        <time>2026-03-23T10:09:59Z</time>
      </trkpt>
      <trkpt lat="44.74066" lon="6.85925">
        <ele>2306.6</ele>
        <time>2026-03-23T10:10:00Z</time>
      </trkpt>
      <trkpt lat="44.74066" lon="6.85925">
        <ele>2306.6</ele>
        <time>2026-03-23T10:10:01Z</time>
      </trkpt>
      <trkpt lat="44.74066" lon="6.85926">
        <ele>2306.6</ele>
        <time>2026-03-23T10:10:02Z</time>
      </trkpt>
      <trkpt lat="44.74066" lon="6.85927">
        <ele>2306.6</ele>
        <time>2026-03-23T10:10:03Z</time>
      </trkpt>
      <trkpt lat="44.74066" lon="6.85928">
        <ele>2306.6</ele>
        <time>2026-03-23T10:10:04Z</time>
      </trkpt>
      <trkpt lat="44.74065" lon="6.85929">
        <ele>2306.6</ele>
        <time>2026-03-23T10:10:05Z</time>
      </trkpt>
      <trkpt lat="44.74065" lon="6.85929">
        <ele>2307.4</ele>
        <time>2026-03-23T10:10:06Z</time>
      </trkpt>
      <trkpt lat="44.74065" lon="6.8593">
        <ele>2307.4</ele>
        <time>2026-03-23T10:10:07Z</time>
      </trkpt>
      <trkpt lat="44.74065" lon="6.85931">
        <ele>2307.4</ele>
        <time>2026-03-23T10:10:08Z</time>
      </trkpt>
      <trkpt lat="44.74065" lon="6.85932">
        <ele>2307.4</ele>
        <time>2026-03-23T10:10:09Z</time>
      </trkpt>
      <trkpt lat="44.74064" lon="6.85933">
        <ele>2307.4</ele>
        <time>2026-03-23T10:10:10Z</time>
      </trkpt>
      <trkpt lat="44.74064" lon="6.85934">
        <ele>2308.3</ele>
        <time>2026-03-23T10:10:11Z</time>
      </trkpt>
      <trkpt lat="44.74064" lon="6.85935">
        <ele>2308.3</ele>
        <time>2026-03-23T10:10:12Z</time>
      </trkpt>
      <trkpt lat="44.74064" lon="6.85936">
        <ele>2308.3</ele>
        <time>2026-03-23T10:10:13Z</time>
      </trkpt>
      <trkpt lat="44.74063" lon="6.85937">
        <ele>2308.3</ele>
        <time>2026-03-23T10:10:14Z</time>
      </trkpt>
      <trkpt lat="44.74063" lon="6.85938">
        <ele>2309.2</ele>
        <time>2026-03-23T10:10:15Z</time>
      </trkpt>
      <trkpt lat="44.74063" lon="6.85938">
        <ele>2309.2</ele>
        <time>2026-03-23T10:10:16Z</time>
      </trkpt>
      <trkpt lat="44.74063" lon="6.85939">
        <ele>2309.2</ele>
        <time>2026-03-23T10:10:17Z</time>
      </trkpt>
      <trkpt lat="44.74062" lon="6.8594">
        <ele>2309.2</ele>
        <time>2026-03-23T10:10:18Z</time>
      </trkpt>
      <trkpt lat="44.74062" lon="6.85941">
        <ele>2309.2</ele>
        <time>2026-03-23T10:10:19Z</time>
      </trkpt>
      <trkpt lat="44.74062" lon="6.85941">
        <ele>2309.2</ele>
        <time>2026-03-23T10:10:20Z</time>
      </trkpt>
      <trkpt lat="44.74061" lon="6.85942">
        <ele>2310</ele>
        <time>2026-03-23T10:10:21Z</time>
      </trkpt>
      <trkpt lat="44.74061" lon="6.85943">
        <ele>2310</ele>
        <time>2026-03-23T10:10:22Z</time>
      </trkpt>
      <trkpt lat="44.74061" lon="6.85943">
        <ele>2309.9</ele>
        <time>2026-03-23T10:10:23Z</time>
      </trkpt>
      <trkpt lat="44.7406" lon="6.85944">
        <ele>2309.9</ele>
        <time>2026-03-23T10:10:25Z</time>
      </trkpt>
      <trkpt lat="44.7406" lon="6.85944">
        <ele>2309.9</ele>
        <time>2026-03-23T10:10:27Z</time>
      </trkpt>
      <trkpt lat="44.7406" lon="6.85945">
        <ele>2309.9</ele>
        <time>2026-03-23T10:10:28Z</time>
      </trkpt>
      <trkpt lat="44.74059" lon="6.85946">
        <ele>2309.9</ele>
        <time>2026-03-23T10:10:29Z</time>
      </trkpt>
      <trkpt lat="44.74059" lon="6.85946">
        <ele>2310.7</ele>
        <time>2026-03-23T10:10:30Z</time>
      </trkpt>
      <trkpt lat="44.74059" lon="6.85947">
        <ele>2310.7</ele>
        <time>2026-03-23T10:10:31Z</time>
      </trkpt>
      <trkpt lat="44.74059" lon="6.85948">
        <ele>2310.7</ele>
        <time>2026-03-23T10:10:32Z</time>
      </trkpt>
      <trkpt lat="44.74059" lon="6.85948">
        <ele>2310.7</ele>
        <time>2026-03-23T10:10:34Z</time>
      </trkpt>
      <trkpt lat="44.74059" lon="6.85949">
        <ele>2310.7</ele>
        <time>2026-03-23T10:10:35Z</time>
      </trkpt>
      <trkpt lat="44.74059" lon="6.85949">
        <ele>2310.7</ele>
        <time>2026-03-23T10:10:36Z</time>
      </trkpt>
      <trkpt lat="44.74059" lon="6.85949">
        <ele>2310.7</ele>
        <time>2026-03-23T10:10:37Z</time>
      </trkpt>
      <trkpt lat="44.74058" lon="6.85949">
        <ele>2310.7</ele>
        <time>2026-03-23T10:10:38Z</time>
      </trkpt>
      <trkpt lat="44.74058" lon="6.85949">
        <ele>2310.7</ele>
        <time>2026-03-23T10:10:39Z</time>
      </trkpt>
      <trkpt lat="44.74058" lon="6.85949">
        <ele>2310.7</ele>
        <time>2026-03-23T10:10:40Z</time>
      </trkpt>
      <trkpt lat="44.74058" lon="6.85949">
        <ele>2310.7</ele>
        <time>2026-03-23T10:10:41Z</time>
      </trkpt>
      <trkpt lat="44.74058" lon="6.8595">
        <ele>2310.7</ele>
        <time>2026-03-23T10:10:42Z</time>
      </trkpt>
      <trkpt lat="44.74058" lon="6.8595">
        <ele>2310.7</ele>
        <time>2026-03-23T10:10:43Z</time>
      </trkpt>
      <trkpt lat="44.74058" lon="6.85949">
        <ele>2310.7</ele>
        <time>2026-03-23T10:10:44Z</time>
      </trkpt>
      <trkpt lat="44.74058" lon="6.8595">
        <ele>2310.7</ele>
        <time>2026-03-23T10:10:45Z</time>
      </trkpt>
      <trkpt lat="44.74058" lon="6.8595">
        <ele>2310.7</ele>
        <time>2026-03-23T10:10:46Z</time>
      </trkpt>
      <trkpt lat="44.74058" lon="6.8595">
        <ele>2310.7</ele>
        <time>2026-03-23T10:10:47Z</time>
      </trkpt>
      <trkpt lat="44.74058" lon="6.8595">
        <ele>2310.7</ele>
        <time>2026-03-23T10:10:48Z</time>
      </trkpt>
      <trkpt lat="44.74058" lon="6.8595">
        <ele>2311.4</ele>
        <time>2026-03-23T10:10:49Z</time>
      </trkpt>
      <trkpt lat="44.74058" lon="6.8595">
        <ele>2311.4</ele>
        <time>2026-03-23T10:10:50Z</time>
      </trkpt>
      <trkpt lat="44.74058" lon="6.8595">
        <ele>2311.4</ele>
        <time>2026-03-23T10:10:51Z</time>
      </trkpt>
      <trkpt lat="44.74058" lon="6.8595">
        <ele>2311.4</ele>
        <time>2026-03-23T10:10:52Z</time>
      </trkpt>
      <trkpt lat="44.74058" lon="6.8595">
        <ele>2311.4</ele>
        <time>2026-03-23T10:10:53Z</time>
      </trkpt>
      <trkpt lat="44.74058" lon="6.8595">
        <ele>2311.5</ele>
        <time>2026-03-23T10:10:54Z</time>
      </trkpt>
      <trkpt lat="44.74058" lon="6.8595">
        <ele>2311.5</ele>
        <time>2026-03-23T10:10:55Z</time>
      </trkpt>
      <trkpt lat="44.74058" lon="6.8595">
        <ele>2311.6</ele>
        <time>2026-03-23T10:10:56Z</time>
      </trkpt>
      <trkpt lat="44.74058" lon="6.8595">
        <ele>2311.6</ele>
        <time>2026-03-23T10:10:57Z</time>
      </trkpt>
      <trkpt lat="44.74058" lon="6.8595">
        <ele>2311.6</ele>
        <time>2026-03-23T10:10:58Z</time>
      </trkpt>
      <trkpt lat="44.74058" lon="6.8595">
        <ele>2311.6</ele>
        <time>2026-03-23T10:10:59Z</time>
      </trkpt>
      <trkpt lat="44.74058" lon="6.8595">
        <ele>2311.6</ele>
        <time>2026-03-23T10:11:00Z</time>
      </trkpt>
      <trkpt lat="44.74058" lon="6.8595">
        <ele>2311.6</ele>
        <time>2026-03-23T10:11:01Z</time>
      </trkpt>
      <trkpt lat="44.74058" lon="6.8595">
        <ele>2311.6</ele>
        <time>2026-03-23T10:11:02Z</time>
      </trkpt>
      <trkpt lat="44.74058" lon="6.8595">
        <ele>2311.7</ele>
        <time>2026-03-23T10:11:03Z</time>
      </trkpt>
      <trkpt lat="44.74058" lon="6.85949">
        <ele>2311.7</ele>
        <time>2026-03-23T10:11:04Z</time>
      </trkpt>
      <trkpt lat="44.74058" lon="6.85949">
        <ele>2311.7</ele>
        <time>2026-03-23T10:11:05Z</time>
      </trkpt>
      <trkpt lat="44.74058" lon="6.85949">
        <ele>2311.8</ele>
        <time>2026-03-23T10:11:06Z</time>
      </trkpt>
      <trkpt lat="44.74057" lon="6.85949">
        <ele>2311.8</ele>
        <time>2026-03-23T10:11:07Z</time>
      </trkpt>
      <trkpt lat="44.74058" lon="6.85949">
        <ele>2311.9</ele>
        <time>2026-03-23T10:11:08Z</time>
      </trkpt>
      <trkpt lat="44.74057" lon="6.85949">
        <ele>2311.9</ele>
        <time>2026-03-23T10:11:09Z</time>
      </trkpt>
      <trkpt lat="44.74057" lon="6.85949">
        <ele>2312</ele>
        <time>2026-03-23T10:11:10Z</time>
      </trkpt>
      <trkpt lat="44.74057" lon="6.85949">
        <ele>2312</ele>
        <time>2026-03-23T10:11:11Z</time>
      </trkpt>
      <trkpt lat="44.74057" lon="6.85949">
        <ele>2312</ele>
        <time>2026-03-23T10:11:12Z</time>
      </trkpt>
      <trkpt lat="44.74057" lon="6.85949">
        <ele>2312</ele>
        <time>2026-03-23T10:11:13Z</time>
      </trkpt>
      <trkpt lat="44.74057" lon="6.85949">
        <ele>2312.1</ele>
        <time>2026-03-23T10:11:14Z</time>
      </trkpt>
      <trkpt lat="44.74057" lon="6.85949">
        <ele>2312.1</ele>
        <time>2026-03-23T10:11:15Z</time>
      </trkpt>
      <trkpt lat="44.74057" lon="6.85949">
        <ele>2312.1</ele>
        <time>2026-03-23T10:11:16Z</time>
      </trkpt>
      <trkpt lat="44.74057" lon="6.85949">
        <ele>2312.1</ele>
        <time>2026-03-23T10:11:17Z</time>
      </trkpt>
      <trkpt lat="44.74057" lon="6.85949">
        <ele>2312.2</ele>
        <time>2026-03-23T10:11:18Z</time>
      </trkpt>
      <trkpt lat="44.74057" lon="6.85948">
        <ele>2312.2</ele>
        <time>2026-03-23T10:11:19Z</time>
      </trkpt>
      <trkpt lat="44.74057" lon="6.85949">
        <ele>2312.3</ele>
        <time>2026-03-23T10:11:20Z</time>
      </trkpt>
      <trkpt lat="44.74057" lon="6.85949">
        <ele>2312.3</ele>
        <time>2026-03-23T10:11:21Z</time>
      </trkpt>
      <trkpt lat="44.74057" lon="6.85949">
        <ele>2312.3</ele>
        <time>2026-03-23T10:11:22Z</time>
      </trkpt>
      <trkpt lat="44.74057" lon="6.85948">
        <ele>2312.3</ele>
        <time>2026-03-23T10:11:23Z</time>
      </trkpt>
      <trkpt lat="44.74057" lon="6.85948">
        <ele>2312.4</ele>
        <time>2026-03-23T10:11:24Z</time>
      </trkpt>
      <trkpt lat="44.74057" lon="6.85948">
        <ele>2312.4</ele>
        <time>2026-03-23T10:11:25Z</time>
      </trkpt>
      <trkpt lat="44.74057" lon="6.85948">
        <ele>2312.4</ele>
        <time>2026-03-23T10:11:26Z</time>
      </trkpt>
      <trkpt lat="44.74057" lon="6.85948">
        <ele>2312.4</ele>
        <time>2026-03-23T10:11:27Z</time>
      </trkpt>
      <trkpt lat="44.74057" lon="6.85948">
        <ele>2312.4</ele>
        <time>2026-03-23T10:11:28Z</time>
      </trkpt>
      <trkpt lat="44.74057" lon="6.85947">
        <ele>2312.5</ele>
        <time>2026-03-23T10:11:29Z</time>
      </trkpt>
      <trkpt lat="44.74057" lon="6.85947">
        <ele>2312.5</ele>
        <time>2026-03-23T10:11:30Z</time>
      </trkpt>
      <trkpt lat="44.74057" lon="6.85947">
        <ele>2312.6</ele>
        <time>2026-03-23T10:11:31Z</time>
      </trkpt>
      <trkpt lat="44.74057" lon="6.85947">
        <ele>2312.6</ele>
        <time>2026-03-23T10:11:32Z</time>
      </trkpt>
      <trkpt lat="44.74057" lon="6.85945">
        <ele>2312.9</ele>
        <time>2026-03-23T10:11:33Z</time>
      </trkpt>
      <trkpt lat="44.74057" lon="6.85944">
        <ele>2313.1</ele>
        <time>2026-03-23T10:11:34Z</time>
      </trkpt>
      <trkpt lat="44.74057" lon="6.85945">
        <ele>2313.3</ele>
        <time>2026-03-23T10:11:35Z</time>
      </trkpt>
      <trkpt lat="44.74057" lon="6.85946">
        <ele>2313.3</ele>
        <time>2026-03-23T10:11:37Z</time>
      </trkpt>
      <trkpt lat="44.74057" lon="6.85945">
        <ele>2313.3</ele>
        <time>2026-03-23T10:11:38Z</time>
      </trkpt>
      <trkpt lat="44.74057" lon="6.85945">
        <ele>2313.4</ele>
        <time>2026-03-23T10:11:39Z</time>
      </trkpt>
      <trkpt lat="44.74057" lon="6.85945">
        <ele>2313.4</ele>
        <time>2026-03-23T10:11:40Z</time>
      </trkpt>
      <trkpt lat="44.74057" lon="6.85945">
        <ele>2313.4</ele>
        <time>2026-03-23T10:11:41Z</time>
      </trkpt>
      <trkpt lat="44.74057" lon="6.85945">
        <ele>2313.4</ele>
        <time>2026-03-23T10:11:42Z</time>
      </trkpt>
      <trkpt lat="44.74057" lon="6.85945">
        <ele>2313.5</ele>
        <time>2026-03-23T10:11:43Z</time>
      </trkpt>
      <trkpt lat="44.74056" lon="6.85945">
        <ele>2313.5</ele>
        <time>2026-03-23T10:11:44Z</time>
      </trkpt>
      <trkpt lat="44.74056" lon="6.85945">
        <ele>2313.6</ele>
        <time>2026-03-23T10:11:45Z</time>
      </trkpt>
      <trkpt lat="44.74056" lon="6.85945">
        <ele>2313.6</ele>
        <time>2026-03-23T10:11:46Z</time>
      </trkpt>
      <trkpt lat="44.74056" lon="6.85944">
        <ele>2313.7</ele>
        <time>2026-03-23T10:11:47Z</time>
      </trkpt>
      <trkpt lat="44.74056" lon="6.85944">
        <ele>2313.7</ele>
        <time>2026-03-23T10:11:48Z</time>
      </trkpt>
      <trkpt lat="44.74056" lon="6.85944">
        <ele>2313.8</ele>
        <time>2026-03-23T10:11:50Z</time>
      </trkpt>
      <trkpt lat="44.74056" lon="6.85944">
        <ele>2313.8</ele>
        <time>2026-03-23T10:11:51Z</time>
      </trkpt>
      <trkpt lat="44.74056" lon="6.85943">
        <ele>2313.8</ele>
        <time>2026-03-23T10:11:52Z</time>
      </trkpt>
      <trkpt lat="44.74056" lon="6.85943">
        <ele>2313.9</ele>
        <time>2026-03-23T10:11:53Z</time>
      </trkpt>
      <trkpt lat="44.74056" lon="6.85943">
        <ele>2313.9</ele>
        <time>2026-03-23T10:11:54Z</time>
      </trkpt>
      <trkpt lat="44.74056" lon="6.85943">
        <ele>2313.9</ele>
        <time>2026-03-23T10:11:55Z</time>
      </trkpt>
      <trkpt lat="44.74057" lon="6.85944">
        <ele>2314</ele>
        <time>2026-03-23T10:11:56Z</time>
      </trkpt>
      <trkpt lat="44.74057" lon="6.85944">
        <ele>2314.1</ele>
        <time>2026-03-23T10:11:57Z</time>
      </trkpt>
      <trkpt lat="44.74057" lon="6.85944">
        <ele>2314.1</ele>
        <time>2026-03-23T10:11:58Z</time>
      </trkpt>
      <trkpt lat="44.74058" lon="6.85944">
        <ele>2314.3</ele>
        <time>2026-03-23T10:11:59Z</time>
      </trkpt>
      <trkpt lat="44.74058" lon="6.85944">
        <ele>2314.4</ele>
        <time>2026-03-23T10:12:00Z</time>
      </trkpt>
      <trkpt lat="44.74059" lon="6.85944">
        <ele>2314.6</ele>
        <time>2026-03-23T10:12:02Z</time>
      </trkpt>
      <trkpt lat="44.7406" lon="6.85945">
        <ele>2314.8</ele>
        <time>2026-03-23T10:12:03Z</time>
      </trkpt>
      <trkpt lat="44.7406" lon="6.85945">
        <ele>2314.8</ele>
        <time>2026-03-23T10:12:04Z</time>
      </trkpt>
      <trkpt lat="44.74061" lon="6.85945">
        <ele>2315</ele>
        <time>2026-03-23T10:12:05Z</time>
      </trkpt>
      <trkpt lat="44.74062" lon="6.85945">
        <ele>2315.1</ele>
        <time>2026-03-23T10:12:06Z</time>
      </trkpt>
      <trkpt lat="44.74062" lon="6.85945">
        <ele>2315.2</ele>
        <time>2026-03-23T10:12:07Z</time>
      </trkpt>
      <trkpt lat="44.74062" lon="6.85946">
        <ele>2315.3</ele>
        <time>2026-03-23T10:12:08Z</time>
      </trkpt>
      <trkpt lat="44.74063" lon="6.85946">
        <ele>2315.4</ele>
        <time>2026-03-23T10:12:09Z</time>
      </trkpt>
      <trkpt lat="44.74063" lon="6.85946">
        <ele>2315.5</ele>
        <time>2026-03-23T10:12:10Z</time>
      </trkpt>
      <trkpt lat="44.74063" lon="6.85946">
        <ele>2315.6</ele>
        <time>2026-03-23T10:12:11Z</time>
      </trkpt>
      <trkpt lat="44.74064" lon="6.85947">
        <ele>2315.7</ele>
        <time>2026-03-23T10:12:12Z</time>
      </trkpt>
      <trkpt lat="44.74064" lon="6.85947">
        <ele>2315.8</ele>
        <time>2026-03-23T10:12:13Z</time>
      </trkpt>
      <trkpt lat="44.74065" lon="6.85947">
        <ele>2315.9</ele>
        <time>2026-03-23T10:12:14Z</time>
      </trkpt>
      <trkpt lat="44.74065" lon="6.85947">
        <ele>2315.9</ele>
        <time>2026-03-23T10:12:15Z</time>
      </trkpt>
      <trkpt lat="44.74065" lon="6.85948">
        <ele>2316</ele>
        <time>2026-03-23T10:12:16Z</time>
      </trkpt>
      <trkpt lat="44.74065" lon="6.85948">
        <ele>2316.1</ele>
        <time>2026-03-23T10:12:17Z</time>
      </trkpt>
      <trkpt lat="44.74066" lon="6.85948">
        <ele>2316.1</ele>
        <time>2026-03-23T10:12:18Z</time>
      </trkpt>
      <trkpt lat="44.74066" lon="6.85948">
        <ele>2316.3</ele>
        <time>2026-03-23T10:12:19Z</time>
      </trkpt>
      <trkpt lat="44.74066" lon="6.85948">
        <ele>2316.3</ele>
        <time>2026-03-23T10:12:20Z</time>
      </trkpt>
      <trkpt lat="44.74067" lon="6.85949">
        <ele>2316.4</ele>
        <time>2026-03-23T10:12:21Z</time>
      </trkpt>
      <trkpt lat="44.74067" lon="6.85949">
        <ele>2316.5</ele>
        <time>2026-03-23T10:12:23Z</time>
      </trkpt>
      <trkpt lat="44.74068" lon="6.8595">
        <ele>2316.7</ele>
        <time>2026-03-23T10:12:24Z</time>
      </trkpt>
      <trkpt lat="44.74068" lon="6.8595">
        <ele>2316.8</ele>
        <time>2026-03-23T10:12:25Z</time>
      </trkpt>
      <trkpt lat="44.74069" lon="6.85951">
        <ele>2316.9</ele>
        <time>2026-03-23T10:12:26Z</time>
      </trkpt>
      <trkpt lat="44.74069" lon="6.85951">
        <ele>2317.1</ele>
        <time>2026-03-23T10:12:27Z</time>
      </trkpt>
      <trkpt lat="44.7407" lon="6.85952">
        <ele>2317.2</ele>
        <time>2026-03-23T10:12:28Z</time>
      </trkpt>
      <trkpt lat="44.7407" lon="6.85953">
        <ele>2317.4</ele>
        <time>2026-03-23T10:12:29Z</time>
      </trkpt>
      <trkpt lat="44.7407" lon="6.85953">
        <ele>2317.5</ele>
        <time>2026-03-23T10:12:30Z</time>
      </trkpt>
      <trkpt lat="44.74071" lon="6.85954">
        <ele>2317.6</ele>
        <time>2026-03-23T10:12:31Z</time>
      </trkpt>
      <trkpt lat="44.74071" lon="6.85955">
        <ele>2317.7</ele>
        <time>2026-03-23T10:12:32Z</time>
      </trkpt>
      <trkpt lat="44.74071" lon="6.85955">
        <ele>2317.8</ele>
        <time>2026-03-23T10:12:33Z</time>
      </trkpt>
      <trkpt lat="44.74072" lon="6.85956">
        <ele>2318</ele>
        <time>2026-03-23T10:12:34Z</time>
      </trkpt>
      <trkpt lat="44.74072" lon="6.85956">
        <ele>2318</ele>
        <time>2026-03-23T10:12:35Z</time>
      </trkpt>
      <trkpt lat="44.74072" lon="6.85957">
        <ele>2318.2</ele>
        <time>2026-03-23T10:12:36Z</time>
      </trkpt>
      <trkpt lat="44.74072" lon="6.85957">
        <ele>2318.2</ele>
        <time>2026-03-23T10:12:37Z</time>
      </trkpt>
      <trkpt lat="44.74073" lon="6.85957">
        <ele>2318.3</ele>
        <time>2026-03-23T10:12:38Z</time>
      </trkpt>
      <trkpt lat="44.74073" lon="6.85957">
        <ele>2318.3</ele>
        <time>2026-03-23T10:12:39Z</time>
      </trkpt>
      <trkpt lat="44.74073" lon="6.85958">
        <ele>2318.4</ele>
        <time>2026-03-23T10:12:40Z</time>
      </trkpt>
      <trkpt lat="44.74073" lon="6.85958">
        <ele>2318.5</ele>
        <time>2026-03-23T10:12:41Z</time>
      </trkpt>
      <trkpt lat="44.74073" lon="6.85958">
        <ele>2318.5</ele>
        <time>2026-03-23T10:12:42Z</time>
      </trkpt>
      <trkpt lat="44.74073" lon="6.85958">
        <ele>2318.6</ele>
        <time>2026-03-23T10:12:43Z</time>
      </trkpt>
      <trkpt lat="44.74074" lon="6.85959">
        <ele>2318.6</ele>
        <time>2026-03-23T10:12:44Z</time>
      </trkpt>
      <trkpt lat="44.74074" lon="6.85959">
        <ele>2318.7</ele>
        <time>2026-03-23T10:12:45Z</time>
      </trkpt>
      <trkpt lat="44.74074" lon="6.85959">
        <ele>2318.8</ele>
        <time>2026-03-23T10:12:46Z</time>
      </trkpt>
      <trkpt lat="44.74074" lon="6.8596">
        <ele>2318.8</ele>
        <time>2026-03-23T10:12:47Z</time>
      </trkpt>
      <trkpt lat="44.74075" lon="6.8596">
        <ele>2319</ele>
        <time>2026-03-23T10:12:48Z</time>
      </trkpt>
      <trkpt lat="44.74075" lon="6.8596">
        <ele>2319</ele>
        <time>2026-03-23T10:12:49Z</time>
      </trkpt>
      <trkpt lat="44.74075" lon="6.85961">
        <ele>2319.1</ele>
        <time>2026-03-23T10:12:50Z</time>
      </trkpt>
      <trkpt lat="44.74075" lon="6.85962">
        <ele>2319.3</ele>
        <time>2026-03-23T10:12:51Z</time>
      </trkpt>
      <trkpt lat="44.74076" lon="6.85962">
        <ele>2319.4</ele>
        <time>2026-03-23T10:12:52Z</time>
      </trkpt>
      <trkpt lat="44.74076" lon="6.85963">
        <ele>2319.5</ele>
        <time>2026-03-23T10:12:53Z</time>
      </trkpt>
      <trkpt lat="44.74076" lon="6.85963">
        <ele>2319.6</ele>
        <time>2026-03-23T10:12:54Z</time>
      </trkpt>
      <trkpt lat="44.74076" lon="6.85964">
        <ele>2319.8</ele>
        <time>2026-03-23T10:12:55Z</time>
      </trkpt>
      <trkpt lat="44.74077" lon="6.85965">
        <ele>2319.9</ele>
        <time>2026-03-23T10:12:56Z</time>
      </trkpt>
      <trkpt lat="44.74077" lon="6.85966">
        <ele>2320</ele>
        <time>2026-03-23T10:12:57Z</time>
      </trkpt>
      <trkpt lat="44.74077" lon="6.85966">
        <ele>2320.1</ele>
        <time>2026-03-23T10:12:58Z</time>
      </trkpt>
      <trkpt lat="44.74077" lon="6.85967">
        <ele>2320.2</ele>
        <time>2026-03-23T10:12:59Z</time>
      </trkpt>
      <trkpt lat="44.74077" lon="6.85967">
        <ele>2320.3</ele>
        <time>2026-03-23T10:13:00Z</time>
      </trkpt>
      <trkpt lat="44.74077" lon="6.85967">
        <ele>2320.3</ele>
        <time>2026-03-23T10:13:01Z</time>
      </trkpt>
      <trkpt lat="44.74078" lon="6.85968">
        <ele>2320.4</ele>
        <time>2026-03-23T10:13:02Z</time>
      </trkpt>
      <trkpt lat="44.74078" lon="6.85968">
        <ele>2320.5</ele>
        <time>2026-03-23T10:13:03Z</time>
      </trkpt>
      <trkpt lat="44.74078" lon="6.85969">
        <ele>2320.6</ele>
        <time>2026-03-23T10:13:04Z</time>
      </trkpt>
      <trkpt lat="44.74078" lon="6.85969">
        <ele>2320.6</ele>
        <time>2026-03-23T10:13:05Z</time>
      </trkpt>
      <trkpt lat="44.74078" lon="6.85969">
        <ele>2320.6</ele>
        <time>2026-03-23T10:13:06Z</time>
      </trkpt>
      <trkpt lat="44.74079" lon="6.85969">
        <ele>2320.7</ele>
        <time>2026-03-23T10:13:07Z</time>
      </trkpt>
      <trkpt lat="44.74079" lon="6.8597">
        <ele>2320.8</ele>
        <time>2026-03-23T10:13:08Z</time>
      </trkpt>
      <trkpt lat="44.74079" lon="6.8597">
        <ele>2320.9</ele>
        <time>2026-03-23T10:13:09Z</time>
      </trkpt>
      <trkpt lat="44.74079" lon="6.8597">
        <ele>2321</ele>
        <time>2026-03-23T10:13:10Z</time>
      </trkpt>
      <trkpt lat="44.7408" lon="6.85971">
        <ele>2321</ele>
        <time>2026-03-23T10:13:11Z</time>
      </trkpt>
      <trkpt lat="44.7408" lon="6.85971">
        <ele>2321.1</ele>
        <time>2026-03-23T10:13:12Z</time>
      </trkpt>
      <trkpt lat="44.7408" lon="6.85971">
        <ele>2321.1</ele>
        <time>2026-03-23T10:13:13Z</time>
      </trkpt>
      <trkpt lat="44.7408" lon="6.85971">
        <ele>2321.2</ele>
        <time>2026-03-23T10:13:14Z</time>
      </trkpt>
      <trkpt lat="44.7408" lon="6.85971">
        <ele>2321.2</ele>
        <time>2026-03-23T10:13:15Z</time>
      </trkpt>
      <trkpt lat="44.7408" lon="6.85972">
        <ele>2321.3</ele>
        <time>2026-03-23T10:13:16Z</time>
      </trkpt>
      <trkpt lat="44.74081" lon="6.85972">
        <ele>2321.4</ele>
        <time>2026-03-23T10:13:17Z</time>
      </trkpt>
      <trkpt lat="44.74081" lon="6.85972">
        <ele>2321.5</ele>
        <time>2026-03-23T10:13:18Z</time>
      </trkpt>
      <trkpt lat="44.74081" lon="6.85973">
        <ele>2321.6</ele>
        <time>2026-03-23T10:13:19Z</time>
      </trkpt>
      <trkpt lat="44.74081" lon="6.85973">
        <ele>2321.6</ele>
        <time>2026-03-23T10:13:20Z</time>
      </trkpt>
      <trkpt lat="44.74082" lon="6.85974">
        <ele>2321.8</ele>
        <time>2026-03-23T10:13:21Z</time>
      </trkpt>
      <trkpt lat="44.74082" lon="6.85974">
        <ele>2321.8</ele>
        <time>2026-03-23T10:13:22Z</time>
      </trkpt>
      <trkpt lat="44.74082" lon="6.85974">
        <ele>2321.9</ele>
        <time>2026-03-23T10:13:23Z</time>
      </trkpt>
      <trkpt lat="44.74083" lon="6.85975">
        <ele>2322</ele>
        <time>2026-03-23T10:13:24Z</time>
      </trkpt>
      <trkpt lat="44.74083" lon="6.85975">
        <ele>2322.1</ele>
        <time>2026-03-23T10:13:25Z</time>
      </trkpt>
      <trkpt lat="44.74083" lon="6.85975">
        <ele>2322.2</ele>
        <time>2026-03-23T10:13:26Z</time>
      </trkpt>
      <trkpt lat="44.74083" lon="6.85976">
        <ele>2322.2</ele>
        <time>2026-03-23T10:13:27Z</time>
      </trkpt>
      <trkpt lat="44.74084" lon="6.85976">
        <ele>2322.3</ele>
        <time>2026-03-23T10:13:28Z</time>
      </trkpt>
      <trkpt lat="44.74084" lon="6.85977">
        <ele>2322.4</ele>
        <time>2026-03-23T10:13:29Z</time>
      </trkpt>
      <trkpt lat="44.74084" lon="6.85977">
        <ele>2322.4</ele>
        <time>2026-03-23T10:13:30Z</time>
      </trkpt>
      <trkpt lat="44.74084" lon="6.85977">
        <ele>2322.5</ele>
        <time>2026-03-23T10:13:31Z</time>
      </trkpt>
      <trkpt lat="44.74084" lon="6.85978">
        <ele>2322.6</ele>
        <time>2026-03-23T10:13:32Z</time>
      </trkpt>
      <trkpt lat="44.74084" lon="6.85978">
        <ele>2322.7</ele>
        <time>2026-03-23T10:13:33Z</time>
      </trkpt>
      <trkpt lat="44.74085" lon="6.85978">
        <ele>2322.7</ele>
        <time>2026-03-23T10:13:34Z</time>
      </trkpt>
      <trkpt lat="44.74085" lon="6.85979">
        <ele>2322.8</ele>
        <time>2026-03-23T10:13:35Z</time>
      </trkpt>
      <trkpt lat="44.74085" lon="6.85979">
        <ele>2322.9</ele>
        <time>2026-03-23T10:13:36Z</time>
      </trkpt>
      <trkpt lat="44.74086" lon="6.85979">
        <ele>2323</ele>
        <time>2026-03-23T10:13:37Z</time>
      </trkpt>
      <trkpt lat="44.74086" lon="6.8598">
        <ele>2323.2</ele>
        <time>2026-03-23T10:13:38Z</time>
      </trkpt>
      <trkpt lat="44.74087" lon="6.8598">
        <ele>2323.3</ele>
        <time>2026-03-23T10:13:39Z</time>
      </trkpt>
      <trkpt lat="44.74087" lon="6.8598">
        <ele>2323.4</ele>
        <time>2026-03-23T10:13:40Z</time>
      </trkpt>
      <trkpt lat="44.74088" lon="6.85981">
        <ele>2323.6</ele>
        <time>2026-03-23T10:13:41Z</time>
      </trkpt>
      <trkpt lat="44.74088" lon="6.85981">
        <ele>2323.7</ele>
        <time>2026-03-23T10:13:42Z</time>
      </trkpt>
      <trkpt lat="44.74089" lon="6.85982">
        <ele>2323.8</ele>
        <time>2026-03-23T10:13:43Z</time>
      </trkpt>
      <trkpt lat="44.74089" lon="6.85982">
        <ele>2323.9</ele>
        <time>2026-03-23T10:13:44Z</time>
      </trkpt>
      <trkpt lat="44.74089" lon="6.85982">
        <ele>2324</ele>
        <time>2026-03-23T10:13:45Z</time>
      </trkpt>
      <trkpt lat="44.7409" lon="6.85983">
        <ele>2324.1</ele>
        <time>2026-03-23T10:13:46Z</time>
      </trkpt>
      <trkpt lat="44.7409" lon="6.85983">
        <ele>2324.2</ele>
        <time>2026-03-23T10:13:47Z</time>
      </trkpt>
      <trkpt lat="44.74091" lon="6.85983">
        <ele>2324.3</ele>
        <time>2026-03-23T10:13:48Z</time>
      </trkpt>
      <trkpt lat="44.74091" lon="6.85984">
        <ele>2324.4</ele>
        <time>2026-03-23T10:13:49Z</time>
      </trkpt>
      <trkpt lat="44.74091" lon="6.85984">
        <ele>2324.6</ele>
        <time>2026-03-23T10:13:50Z</time>
      </trkpt>
      <trkpt lat="44.74092" lon="6.85985">
        <ele>2324.6</ele>
        <time>2026-03-23T10:13:51Z</time>
      </trkpt>
      <trkpt lat="44.74092" lon="6.85985">
        <ele>2324.8</ele>
        <time>2026-03-23T10:13:52Z</time>
      </trkpt>
      <trkpt lat="44.74092" lon="6.85986">
        <ele>2324.9</ele>
        <time>2026-03-23T10:13:53Z</time>
      </trkpt>
      <trkpt lat="44.74093" lon="6.85987">
        <ele>2325</ele>
        <time>2026-03-23T10:13:54Z</time>
      </trkpt>
      <trkpt lat="44.74093" lon="6.85987">
        <ele>2325.1</ele>
        <time>2026-03-23T10:13:56Z</time>
      </trkpt>
      <trkpt lat="44.74093" lon="6.85988">
        <ele>2325.3</ele>
        <time>2026-03-23T10:13:57Z</time>
      </trkpt>
      <trkpt lat="44.74094" lon="6.85989">
        <ele>2325.4</ele>
        <time>2026-03-23T10:13:58Z</time>
      </trkpt>
      <trkpt lat="44.74094" lon="6.85989">
        <ele>2325.4</ele>
        <time>2026-03-23T10:13:59Z</time>
      </trkpt>
      <trkpt lat="44.74094" lon="6.85989">
        <ele>2325.5</ele>
        <time>2026-03-23T10:14:00Z</time>
      </trkpt>
      <trkpt lat="44.74094" lon="6.85989">
        <ele>2325.6</ele>
        <time>2026-03-23T10:14:01Z</time>
      </trkpt>
      <trkpt lat="44.74095" lon="6.8599">
        <ele>2325.7</ele>
        <time>2026-03-23T10:14:02Z</time>
      </trkpt>
      <trkpt lat="44.74095" lon="6.8599">
        <ele>2325.7</ele>
        <time>2026-03-23T10:14:03Z</time>
      </trkpt>
      <trkpt lat="44.74095" lon="6.85991">
        <ele>2325.9</ele>
        <time>2026-03-23T10:14:04Z</time>
      </trkpt>
      <trkpt lat="44.74095" lon="6.85991">
        <ele>2326</ele>
        <time>2026-03-23T10:14:05Z</time>
      </trkpt>
      <trkpt lat="44.74096" lon="6.85992">
        <ele>2326.1</ele>
        <time>2026-03-23T10:14:06Z</time>
      </trkpt>
      <trkpt lat="44.74096" lon="6.85992">
        <ele>2326.2</ele>
        <time>2026-03-23T10:14:07Z</time>
      </trkpt>
      <trkpt lat="44.74097" lon="6.85993">
        <ele>2326.3</ele>
        <time>2026-03-23T10:14:08Z</time>
      </trkpt>
      <trkpt lat="44.74097" lon="6.85993">
        <ele>2326.4</ele>
        <time>2026-03-23T10:14:09Z</time>
      </trkpt>
      <trkpt lat="44.74097" lon="6.85994">
        <ele>2326.5</ele>
        <time>2026-03-23T10:14:10Z</time>
      </trkpt>
      <trkpt lat="44.74098" lon="6.85994">
        <ele>2326.6</ele>
        <time>2026-03-23T10:14:11Z</time>
      </trkpt>
      <trkpt lat="44.74098" lon="6.85995">
        <ele>2326.7</ele>
        <time>2026-03-23T10:14:12Z</time>
      </trkpt>
      <trkpt lat="44.74098" lon="6.85995">
        <ele>2326.8</ele>
        <time>2026-03-23T10:14:13Z</time>
      </trkpt>
      <trkpt lat="44.74099" lon="6.85996">
        <ele>2326.9</ele>
        <time>2026-03-23T10:14:14Z</time>
      </trkpt>
      <trkpt lat="44.74099" lon="6.85997">
        <ele>2327</ele>
        <time>2026-03-23T10:14:16Z</time>
      </trkpt>
      <trkpt lat="44.74099" lon="6.85997">
        <ele>2327.1</ele>
        <time>2026-03-23T10:14:18Z</time>
      </trkpt>
      <trkpt lat="44.741" lon="6.85997">
        <ele>2327.2</ele>
        <time>2026-03-23T10:14:19Z</time>
      </trkpt>
      <trkpt lat="44.741" lon="6.85998">
        <ele>2327.2</ele>
        <time>2026-03-23T10:14:20Z</time>
      </trkpt>
      <trkpt lat="44.741" lon="6.85998">
        <ele>2327.3</ele>
        <time>2026-03-23T10:14:21Z</time>
      </trkpt>
      <trkpt lat="44.741" lon="6.85998">
        <ele>2327.3</ele>
        <time>2026-03-23T10:14:22Z</time>
      </trkpt>
      <trkpt lat="44.741" lon="6.85999">
        <ele>2327.4</ele>
        <time>2026-03-23T10:14:23Z</time>
      </trkpt>
      <trkpt lat="44.74101" lon="6.85999">
        <ele>2327.4</ele>
        <time>2026-03-23T10:14:24Z</time>
      </trkpt>
      <trkpt lat="44.74101" lon="6.85999">
        <ele>2327.5</ele>
        <time>2026-03-23T10:14:25Z</time>
      </trkpt>
      <trkpt lat="44.74101" lon="6.86">
        <ele>2327.6</ele>
        <time>2026-03-23T10:14:26Z</time>
      </trkpt>
      <trkpt lat="44.74102" lon="6.86">
        <ele>2327.7</ele>
        <time>2026-03-23T10:14:27Z</time>
      </trkpt>
      <trkpt lat="44.74102" lon="6.86001">
        <ele>2327.8</ele>
        <time>2026-03-23T10:14:28Z</time>
      </trkpt>
      <trkpt lat="44.74103" lon="6.86002">
        <ele>2327.9</ele>
        <time>2026-03-23T10:14:29Z</time>
      </trkpt>
      <trkpt lat="44.74103" lon="6.86002">
        <ele>2328</ele>
        <time>2026-03-23T10:14:30Z</time>
      </trkpt>
      <trkpt lat="44.74103" lon="6.86003">
        <ele>2328.1</ele>
        <time>2026-03-23T10:14:31Z</time>
      </trkpt>
      <trkpt lat="44.74104" lon="6.86004">
        <ele>2328.2</ele>
        <time>2026-03-23T10:14:32Z</time>
      </trkpt>
      <trkpt lat="44.74104" lon="6.86004">
        <ele>2328.3</ele>
        <time>2026-03-23T10:14:33Z</time>
      </trkpt>
      <trkpt lat="44.74104" lon="6.86005">
        <ele>2328.4</ele>
        <time>2026-03-23T10:14:34Z</time>
      </trkpt>
      <trkpt lat="44.74105" lon="6.86006">
        <ele>2328.5</ele>
        <time>2026-03-23T10:14:35Z</time>
      </trkpt>
      <trkpt lat="44.74105" lon="6.86007">
        <ele>2328.6</ele>
        <time>2026-03-23T10:14:36Z</time>
      </trkpt>
      <trkpt lat="44.74105" lon="6.86008">
        <ele>2328.7</ele>
        <time>2026-03-23T10:14:37Z</time>
      </trkpt>
      <trkpt lat="44.74106" lon="6.86009">
        <ele>2328.8</ele>
        <time>2026-03-23T10:14:38Z</time>
      </trkpt>
      <trkpt lat="44.74106" lon="6.8601">
        <ele>2328.9</ele>
        <time>2026-03-23T10:14:39Z</time>
      </trkpt>
      <trkpt lat="44.74106" lon="6.86011">
        <ele>2329</ele>
        <time>2026-03-23T10:14:40Z</time>
      </trkpt>
      <trkpt lat="44.74106" lon="6.86012">
        <ele>2329.1</ele>
        <time>2026-03-23T10:14:41Z</time>
      </trkpt>
      <trkpt lat="44.74107" lon="6.86013">
        <ele>2329.2</ele>
        <time>2026-03-23T10:14:42Z</time>
      </trkpt>
      <trkpt lat="44.74107" lon="6.86014">
        <ele>2329.3</ele>
        <time>2026-03-23T10:14:43Z</time>
      </trkpt>
      <trkpt lat="44.74107" lon="6.86015">
        <ele>2329.5</ele>
        <time>2026-03-23T10:14:44Z</time>
      </trkpt>
      <trkpt lat="44.74107" lon="6.86016">
        <ele>2329.5</ele>
        <time>2026-03-23T10:14:45Z</time>
      </trkpt>
      <trkpt lat="44.74107" lon="6.86018">
        <ele>2329.7</ele>
        <time>2026-03-23T10:14:47Z</time>
      </trkpt>
      <trkpt lat="44.74107" lon="6.86019">
        <ele>2329.7</ele>
        <time>2026-03-23T10:14:48Z</time>
      </trkpt>
      <trkpt lat="44.74106" lon="6.86019">
        <ele>2329.8</ele>
        <time>2026-03-23T10:14:49Z</time>
      </trkpt>
      <trkpt lat="44.74106" lon="6.8602">
        <ele>2329.9</ele>
        <time>2026-03-23T10:14:50Z</time>
      </trkpt>
      <trkpt lat="44.74106" lon="6.86021">
        <ele>2329.9</ele>
        <time>2026-03-23T10:14:51Z</time>
      </trkpt>
      <trkpt lat="44.74106" lon="6.86022">
        <ele>2330</ele>
        <time>2026-03-23T10:14:52Z</time>
      </trkpt>
      <trkpt lat="44.74106" lon="6.86022">
        <ele>2330</ele>
        <time>2026-03-23T10:14:53Z</time>
      </trkpt>
      <trkpt lat="44.74106" lon="6.86023">
        <ele>2330.1</ele>
        <time>2026-03-23T10:14:54Z</time>
      </trkpt>
      <trkpt lat="44.74106" lon="6.86024">
        <ele>2330.1</ele>
        <time>2026-03-23T10:14:55Z</time>
      </trkpt>
      <trkpt lat="44.74106" lon="6.86025">
        <ele>2330.2</ele>
        <time>2026-03-23T10:14:56Z</time>
      </trkpt>
      <trkpt lat="44.74105" lon="6.86026">
        <ele>2330.3</ele>
        <time>2026-03-23T10:14:57Z</time>
      </trkpt>
      <trkpt lat="44.74105" lon="6.86027">
        <ele>2330.3</ele>
        <time>2026-03-23T10:14:58Z</time>
      </trkpt>
      <trkpt lat="44.74104" lon="6.8603">
        <ele>2330.5</ele>
        <time>2026-03-23T10:14:59Z</time>
      </trkpt>
      <trkpt lat="44.74104" lon="6.86031">
        <ele>2330.6</ele>
        <time>2026-03-23T10:15:00Z</time>
      </trkpt>
      <trkpt lat="44.74104" lon="6.86032">
        <ele>2330.6</ele>
        <time>2026-03-23T10:15:01Z</time>
      </trkpt>
      <trkpt lat="44.74103" lon="6.86033">
        <ele>2330.7</ele>
        <time>2026-03-23T10:15:02Z</time>
      </trkpt>
      <trkpt lat="44.74102" lon="6.86034">
        <ele>2330.8</ele>
        <time>2026-03-23T10:15:03Z</time>
      </trkpt>
      <trkpt lat="44.74102" lon="6.86036">
        <ele>2330.9</ele>
        <time>2026-03-23T10:15:04Z</time>
      </trkpt>
      <trkpt lat="44.74102" lon="6.86036">
        <ele>2330.9</ele>
        <time>2026-03-23T10:15:05Z</time>
      </trkpt>
      <trkpt lat="44.74101" lon="6.86038">
        <ele>2331</ele>
        <time>2026-03-23T10:15:06Z</time>
      </trkpt>
      <trkpt lat="44.74101" lon="6.86039">
        <ele>2331</ele>
        <time>2026-03-23T10:15:07Z</time>
      </trkpt>
      <trkpt lat="44.74101" lon="6.86039">
        <ele>2331.1</ele>
        <time>2026-03-23T10:15:08Z</time>
      </trkpt>
      <trkpt lat="44.74101" lon="6.8604">
        <ele>2331.1</ele>
        <time>2026-03-23T10:15:09Z</time>
      </trkpt>
      <trkpt lat="44.74101" lon="6.86041">
        <ele>2331.1</ele>
        <time>2026-03-23T10:15:10Z</time>
      </trkpt>
      <trkpt lat="44.74101" lon="6.86042">
        <ele>2331.2</ele>
        <time>2026-03-23T10:15:11Z</time>
      </trkpt>
      <trkpt lat="44.74101" lon="6.86043">
        <ele>2331.2</ele>
        <time>2026-03-23T10:15:12Z</time>
      </trkpt>
      <trkpt lat="44.74101" lon="6.86043">
        <ele>2331.2</ele>
        <time>2026-03-23T10:15:13Z</time>
      </trkpt>
      <trkpt lat="44.741" lon="6.86044">
        <ele>2331.3</ele>
        <time>2026-03-23T10:15:15Z</time>
      </trkpt>
      <trkpt lat="44.741" lon="6.86045">
        <ele>2331.3</ele>
        <time>2026-03-23T10:15:16Z</time>
      </trkpt>
      <trkpt lat="44.741" lon="6.86046">
        <ele>2331.3</ele>
        <time>2026-03-23T10:15:17Z</time>
      </trkpt>
      <trkpt lat="44.741" lon="6.86047">
        <ele>2331.4</ele>
        <time>2026-03-23T10:15:18Z</time>
      </trkpt>
      <trkpt lat="44.741" lon="6.86048">
        <ele>2331.4</ele>
        <time>2026-03-23T10:15:19Z</time>
      </trkpt>
      <trkpt lat="44.741" lon="6.86049">
        <ele>2331.4</ele>
        <time>2026-03-23T10:15:20Z</time>
      </trkpt>
      <trkpt lat="44.74099" lon="6.8605">
        <ele>2331.5</ele>
        <time>2026-03-23T10:15:21Z</time>
      </trkpt>
      <trkpt lat="44.74099" lon="6.8605">
        <ele>2331.5</ele>
        <time>2026-03-23T10:15:22Z</time>
      </trkpt>
      <trkpt lat="44.74099" lon="6.86051">
        <ele>2331.5</ele>
        <time>2026-03-23T10:15:23Z</time>
      </trkpt>
      <trkpt lat="44.74099" lon="6.86052">
        <ele>2331.5</ele>
        <time>2026-03-23T10:15:24Z</time>
      </trkpt>
      <trkpt lat="44.74099" lon="6.86053">
        <ele>2331.6</ele>
        <time>2026-03-23T10:15:25Z</time>
      </trkpt>
      <trkpt lat="44.74099" lon="6.86054">
        <ele>2331.6</ele>
        <time>2026-03-23T10:15:26Z</time>
      </trkpt>
      <trkpt lat="44.74099" lon="6.86054">
        <ele>2331.6</ele>
        <time>2026-03-23T10:15:27Z</time>
      </trkpt>
      <trkpt lat="44.74099" lon="6.86055">
        <ele>2331.6</ele>
        <time>2026-03-23T10:15:28Z</time>
      </trkpt>
      <trkpt lat="44.74099" lon="6.86056">
        <ele>2331.6</ele>
        <time>2026-03-23T10:15:29Z</time>
      </trkpt>
      <trkpt lat="44.74099" lon="6.86057">
        <ele>2331.7</ele>
        <time>2026-03-23T10:15:30Z</time>
      </trkpt>
      <trkpt lat="44.74099" lon="6.86058">
        <ele>2331.7</ele>
        <time>2026-03-23T10:15:31Z</time>
      </trkpt>
      <trkpt lat="44.74098" lon="6.86059">
        <ele>2331.7</ele>
        <time>2026-03-23T10:15:32Z</time>
      </trkpt>
      <trkpt lat="44.74098" lon="6.8606">
        <ele>2331.8</ele>
        <time>2026-03-23T10:15:33Z</time>
      </trkpt>
      <trkpt lat="44.74098" lon="6.86061">
        <ele>2331.8</ele>
        <time>2026-03-23T10:15:34Z</time>
      </trkpt>
      <trkpt lat="44.74097" lon="6.86062">
        <ele>2331.8</ele>
        <time>2026-03-23T10:15:35Z</time>
      </trkpt>
      <trkpt lat="44.74097" lon="6.86063">
        <ele>2331.8</ele>
        <time>2026-03-23T10:15:36Z</time>
      </trkpt>
      <trkpt lat="44.74097" lon="6.86064">
        <ele>2331.9</ele>
        <time>2026-03-23T10:15:37Z</time>
      </trkpt>
      <trkpt lat="44.74096" lon="6.86065">
        <ele>2331.9</ele>
        <time>2026-03-23T10:15:38Z</time>
      </trkpt>
      <trkpt lat="44.74096" lon="6.86066">
        <ele>2331.9</ele>
        <time>2026-03-23T10:15:39Z</time>
      </trkpt>
      <trkpt lat="44.74096" lon="6.86066">
        <ele>2331.9</ele>
        <time>2026-03-23T10:15:40Z</time>
      </trkpt>
      <trkpt lat="44.74096" lon="6.86067">
        <ele>2332</ele>
        <time>2026-03-23T10:15:42Z</time>
      </trkpt>
      <trkpt lat="44.74096" lon="6.86068">
        <ele>2332</ele>
        <time>2026-03-23T10:15:44Z</time>
      </trkpt>
      <trkpt lat="44.74095" lon="6.86068">
        <ele>2332</ele>
        <time>2026-03-23T10:15:45Z</time>
      </trkpt>
      <trkpt lat="44.74095" lon="6.86069">
        <ele>2332</ele>
        <time>2026-03-23T10:15:46Z</time>
      </trkpt>
      <trkpt lat="44.74095" lon="6.86069">
        <ele>2332</ele>
        <time>2026-03-23T10:15:47Z</time>
      </trkpt>
      <trkpt lat="44.74095" lon="6.8607">
        <ele>2332</ele>
        <time>2026-03-23T10:15:48Z</time>
      </trkpt>
      <trkpt lat="44.74095" lon="6.8607">
        <ele>2332</ele>
        <time>2026-03-23T10:15:49Z</time>
      </trkpt>
      <trkpt lat="44.74095" lon="6.86071">
        <ele>2332.1</ele>
        <time>2026-03-23T10:15:50Z</time>
      </trkpt>
      <trkpt lat="44.74095" lon="6.86071">
        <ele>2332.1</ele>
        <time>2026-03-23T10:15:51Z</time>
      </trkpt>
      <trkpt lat="44.74095" lon="6.86072">
        <ele>2332.1</ele>
        <time>2026-03-23T10:15:52Z</time>
      </trkpt>
      <trkpt lat="44.74095" lon="6.86072">
        <ele>2332.1</ele>
        <time>2026-03-23T10:15:53Z</time>
      </trkpt>
      <trkpt lat="44.74095" lon="6.86072">
        <ele>2332.1</ele>
        <time>2026-03-23T10:15:54Z</time>
      </trkpt>
      <trkpt lat="44.74095" lon="6.86073">
        <ele>2332.1</ele>
        <time>2026-03-23T10:15:55Z</time>
      </trkpt>
      <trkpt lat="44.74095" lon="6.86073">
        <ele>2332.1</ele>
        <time>2026-03-23T10:15:56Z</time>
      </trkpt>
      <trkpt lat="44.74095" lon="6.86074">
        <ele>2332.1</ele>
        <time>2026-03-23T10:15:57Z</time>
      </trkpt>
      <trkpt lat="44.74095" lon="6.86074">
        <ele>2332.1</ele>
        <time>2026-03-23T10:15:58Z</time>
      </trkpt>
      <trkpt lat="44.74095" lon="6.86075">
        <ele>2332.1</ele>
        <time>2026-03-23T10:15:59Z</time>
      </trkpt>
      <trkpt lat="44.74095" lon="6.86075">
        <ele>2332.2</ele>
        <time>2026-03-23T10:16:00Z</time>
      </trkpt>
      <trkpt lat="44.74095" lon="6.86076">
        <ele>2332.2</ele>
        <time>2026-03-23T10:16:01Z</time>
      </trkpt>
      <trkpt lat="44.74095" lon="6.86077">
        <ele>2332.2</ele>
        <time>2026-03-23T10:16:02Z</time>
      </trkpt>
      <trkpt lat="44.74095" lon="6.86077">
        <ele>2332.2</ele>
        <time>2026-03-23T10:16:03Z</time>
      </trkpt>
      <trkpt lat="44.74095" lon="6.86077">
        <ele>2332.2</ele>
        <time>2026-03-23T10:16:04Z</time>
      </trkpt>
      <trkpt lat="44.74095" lon="6.86077">
        <ele>2332.2</ele>
        <time>2026-03-23T10:16:05Z</time>
      </trkpt>
      <trkpt lat="44.74095" lon="6.86078">
        <ele>2332.2</ele>
        <time>2026-03-23T10:16:06Z</time>
      </trkpt>
      <trkpt lat="44.74096" lon="6.86079">
        <ele>2332.3</ele>
        <time>2026-03-23T10:16:07Z</time>
      </trkpt>
      <trkpt lat="44.74096" lon="6.86079">
        <ele>2332.3</ele>
        <time>2026-03-23T10:16:08Z</time>
      </trkpt>
      <trkpt lat="44.74096" lon="6.8608">
        <ele>2332.3</ele>
        <time>2026-03-23T10:16:09Z</time>
      </trkpt>
      <trkpt lat="44.74096" lon="6.86081">
        <ele>2332.3</ele>
        <time>2026-03-23T10:16:10Z</time>
      </trkpt>
      <trkpt lat="44.74096" lon="6.86081">
        <ele>2332.3</ele>
        <time>2026-03-23T10:16:11Z</time>
      </trkpt>
      <trkpt lat="44.74096" lon="6.86082">
        <ele>2332.4</ele>
        <time>2026-03-23T10:16:12Z</time>
      </trkpt>
      <trkpt lat="44.74096" lon="6.86082">
        <ele>2332.4</ele>
        <time>2026-03-23T10:16:13Z</time>
      </trkpt>
      <trkpt lat="44.74096" lon="6.86082">
        <ele>2332.4</ele>
        <time>2026-03-23T10:16:14Z</time>
      </trkpt>
      <trkpt lat="44.74096" lon="6.86083">
        <ele>2332.4</ele>
        <time>2026-03-23T10:16:15Z</time>
      </trkpt>
      <trkpt lat="44.74096" lon="6.86083">
        <ele>2332.4</ele>
        <time>2026-03-23T10:16:16Z</time>
      </trkpt>
      <trkpt lat="44.74096" lon="6.86083">
        <ele>2332.4</ele>
        <time>2026-03-23T10:16:17Z</time>
      </trkpt>
      <trkpt lat="44.74096" lon="6.86084">
        <ele>2332.4</ele>
        <time>2026-03-23T10:16:18Z</time>
      </trkpt>
      <trkpt lat="44.74096" lon="6.86084">
        <ele>2332.4</ele>
        <time>2026-03-23T10:16:19Z</time>
      </trkpt>
      <trkpt lat="44.74096" lon="6.86085">
        <ele>2332.4</ele>
        <time>2026-03-23T10:16:20Z</time>
      </trkpt>
      <trkpt lat="44.74096" lon="6.86085">
        <ele>2332.5</ele>
        <time>2026-03-23T10:16:21Z</time>
      </trkpt>
      <trkpt lat="44.74096" lon="6.86086">
        <ele>2332.5</ele>
        <time>2026-03-23T10:16:22Z</time>
      </trkpt>
      <trkpt lat="44.74096" lon="6.86086">
        <ele>2332.5</ele>
        <time>2026-03-23T10:16:23Z</time>
      </trkpt>
      <trkpt lat="44.74096" lon="6.86087">
        <ele>2332.5</ele>
        <time>2026-03-23T10:16:24Z</time>
      </trkpt>
      <trkpt lat="44.74096" lon="6.86087">
        <ele>2332.5</ele>
        <time>2026-03-23T10:16:25Z</time>
      </trkpt>
      <trkpt lat="44.74096" lon="6.86088">
        <ele>2332.6</ele>
        <time>2026-03-23T10:16:26Z</time>
      </trkpt>
      <trkpt lat="44.74096" lon="6.86089">
        <ele>2332.6</ele>
        <time>2026-03-23T10:16:27Z</time>
      </trkpt>
      <trkpt lat="44.74096" lon="6.8609">
        <ele>2332.6</ele>
        <time>2026-03-23T10:16:28Z</time>
      </trkpt>
      <trkpt lat="44.74096" lon="6.8609">
        <ele>2332.7</ele>
        <time>2026-03-23T10:16:29Z</time>
      </trkpt>
      <trkpt lat="44.74096" lon="6.86091">
        <ele>2332.7</ele>
        <time>2026-03-23T10:16:30Z</time>
      </trkpt>
      <trkpt lat="44.74096" lon="6.86092">
        <ele>2332.7</ele>
        <time>2026-03-23T10:16:31Z</time>
      </trkpt>
      <trkpt lat="44.74096" lon="6.86092">
        <ele>2332.7</ele>
        <time>2026-03-23T10:16:32Z</time>
      </trkpt>
      <trkpt lat="44.74096" lon="6.86092">
        <ele>2332.7</ele>
        <time>2026-03-23T10:16:33Z</time>
      </trkpt>
      <trkpt lat="44.74096" lon="6.86093">
        <ele>2332.8</ele>
        <time>2026-03-23T10:16:34Z</time>
      </trkpt>
      <trkpt lat="44.74096" lon="6.86093">
        <ele>2332.8</ele>
        <time>2026-03-23T10:16:35Z</time>
      </trkpt>
      <trkpt lat="44.74096" lon="6.86093">
        <ele>2332.8</ele>
        <time>2026-03-23T10:16:36Z</time>
      </trkpt>
      <trkpt lat="44.74096" lon="6.86094">
        <ele>2332.8</ele>
        <time>2026-03-23T10:16:37Z</time>
      </trkpt>
      <trkpt lat="44.74097" lon="6.86095">
        <ele>2332.9</ele>
        <time>2026-03-23T10:16:38Z</time>
      </trkpt>
      <trkpt lat="44.74097" lon="6.86096">
        <ele>2332.9</ele>
        <time>2026-03-23T10:16:39Z</time>
      </trkpt>
      <trkpt lat="44.74097" lon="6.86098">
        <ele>2333</ele>
        <time>2026-03-23T10:16:40Z</time>
      </trkpt>
      <trkpt lat="44.74097" lon="6.86098">
        <ele>2333</ele>
        <time>2026-03-23T10:16:42Z</time>
      </trkpt>
      <trkpt lat="44.74097" lon="6.86099">
        <ele>2333.1</ele>
        <time>2026-03-23T10:16:43Z</time>
      </trkpt>
      <trkpt lat="44.74097" lon="6.861">
        <ele>2333.1</ele>
        <time>2026-03-23T10:16:44Z</time>
      </trkpt>
      <trkpt lat="44.74097" lon="6.86102">
        <ele>2333.2</ele>
        <time>2026-03-23T10:16:46Z</time>
      </trkpt>
      <trkpt lat="44.74097" lon="6.86102">
        <ele>2333.2</ele>
        <time>2026-03-23T10:16:47Z</time>
      </trkpt>
      <trkpt lat="44.74097" lon="6.86103">
        <ele>2333.3</ele>
        <time>2026-03-23T10:16:48Z</time>
      </trkpt>
      <trkpt lat="44.74097" lon="6.86104">
        <ele>2333.3</ele>
        <time>2026-03-23T10:16:49Z</time>
      </trkpt>
      <trkpt lat="44.74097" lon="6.86105">
        <ele>2333.3</ele>
        <time>2026-03-23T10:16:50Z</time>
      </trkpt>
      <trkpt lat="44.74097" lon="6.86105">
        <ele>2333.4</ele>
        <time>2026-03-23T10:16:51Z</time>
      </trkpt>
      <trkpt lat="44.74097" lon="6.86106">
        <ele>2333.4</ele>
        <time>2026-03-23T10:16:52Z</time>
      </trkpt>
      <trkpt lat="44.74097" lon="6.86106">
        <ele>2333.4</ele>
        <time>2026-03-23T10:16:53Z</time>
      </trkpt>
      <trkpt lat="44.74098" lon="6.86106">
        <ele>2333.4</ele>
        <time>2026-03-23T10:16:54Z</time>
      </trkpt>
      <trkpt lat="44.74098" lon="6.86106">
        <ele>2333.5</ele>
        <time>2026-03-23T10:16:55Z</time>
      </trkpt>
      <trkpt lat="44.74098" lon="6.86107">
        <ele>2333.5</ele>
        <time>2026-03-23T10:16:56Z</time>
      </trkpt>
      <trkpt lat="44.74098" lon="6.86108">
        <ele>2333.6</ele>
        <time>2026-03-23T10:16:57Z</time>
      </trkpt>
      <trkpt lat="44.74098" lon="6.86109">
        <ele>2333.6</ele>
        <time>2026-03-23T10:16:58Z</time>
      </trkpt>
      <trkpt lat="44.74098" lon="6.86111">
        <ele>2333.7</ele>
        <time>2026-03-23T10:16:59Z</time>
      </trkpt>
      <trkpt lat="44.74098" lon="6.86112">
        <ele>2333.8</ele>
        <time>2026-03-23T10:17:01Z</time>
      </trkpt>
      <trkpt lat="44.74098" lon="6.86112">
        <ele>2333.9</ele>
        <time>2026-03-23T10:17:02Z</time>
      </trkpt>
      <trkpt lat="44.74099" lon="6.86114">
        <ele>2334</ele>
        <time>2026-03-23T10:17:03Z</time>
      </trkpt>
      <trkpt lat="44.74099" lon="6.86115">
        <ele>2334.1</ele>
        <time>2026-03-23T10:17:04Z</time>
      </trkpt>
      <trkpt lat="44.74099" lon="6.86116">
        <ele>2334.2</ele>
        <time>2026-03-23T10:17:05Z</time>
      </trkpt>
      <trkpt lat="44.74099" lon="6.86118">
        <ele>2334.3</ele>
        <time>2026-03-23T10:17:06Z</time>
      </trkpt>
      <trkpt lat="44.74099" lon="6.86119">
        <ele>2334.3</ele>
        <time>2026-03-23T10:17:07Z</time>
      </trkpt>
      <trkpt lat="44.74099" lon="6.86119">
        <ele>2334.4</ele>
        <time>2026-03-23T10:17:08Z</time>
      </trkpt>
      <trkpt lat="44.741" lon="6.86121">
        <ele>2334.5</ele>
        <time>2026-03-23T10:17:10Z</time>
      </trkpt>
      <trkpt lat="44.741" lon="6.86123">
        <ele>2334.7</ele>
        <time>2026-03-23T10:17:12Z</time>
      </trkpt>
      <trkpt lat="44.741" lon="6.86128">
        <ele>2335.2</ele>
        <time>2026-03-23T10:17:13Z</time>
      </trkpt>
      <trkpt lat="44.741" lon="6.86132">
        <ele>2335.6</ele>
        <time>2026-03-23T10:17:14Z</time>
      </trkpt>
      <trkpt lat="44.741" lon="6.86133">
        <ele>2335.7</ele>
        <time>2026-03-23T10:17:15Z</time>
      </trkpt>
      <trkpt lat="44.741" lon="6.86132">
        <ele>2335.7</ele>
        <time>2026-03-23T10:17:16Z</time>
      </trkpt>
      <trkpt lat="44.741" lon="6.86134">
        <ele>2335.8</ele>
        <time>2026-03-23T10:17:17Z</time>
      </trkpt>
      <trkpt lat="44.741" lon="6.86135">
        <ele>2336</ele>
        <time>2026-03-23T10:17:18Z</time>
      </trkpt>
      <trkpt lat="44.741" lon="6.86136">
        <ele>2336.1</ele>
        <time>2026-03-23T10:17:19Z</time>
      </trkpt>
      <trkpt lat="44.741" lon="6.86138">
        <ele>2336.4</ele>
        <time>2026-03-23T10:17:20Z</time>
      </trkpt>
      <trkpt lat="44.741" lon="6.86139">
        <ele>2336.5</ele>
        <time>2026-03-23T10:17:21Z</time>
      </trkpt>
      <trkpt lat="44.74101" lon="6.8614">
        <ele>2336.7</ele>
        <time>2026-03-23T10:17:22Z</time>
      </trkpt>
      <trkpt lat="44.74102" lon="6.86142">
        <ele>2336.9</ele>
        <time>2026-03-23T10:17:23Z</time>
      </trkpt>
      <trkpt lat="44.74102" lon="6.86144">
        <ele>2337.1</ele>
        <time>2026-03-23T10:17:24Z</time>
      </trkpt>
      <trkpt lat="44.74102" lon="6.86145">
        <ele>2337.3</ele>
        <time>2026-03-23T10:17:25Z</time>
      </trkpt>
      <trkpt lat="44.74102" lon="6.86147">
        <ele>2337.5</ele>
        <time>2026-03-23T10:17:26Z</time>
      </trkpt>
      <trkpt lat="44.74102" lon="6.86148">
        <ele>2337.7</ele>
        <time>2026-03-23T10:17:27Z</time>
      </trkpt>
      <trkpt lat="44.74102" lon="6.8615">
        <ele>2337.9</ele>
        <time>2026-03-23T10:17:28Z</time>
      </trkpt>
      <trkpt lat="44.74102" lon="6.86151">
        <ele>2338.1</ele>
        <time>2026-03-23T10:17:29Z</time>
      </trkpt>
      <trkpt lat="44.74103" lon="6.86152">
        <ele>2338.3</ele>
        <time>2026-03-23T10:17:30Z</time>
      </trkpt>
      <trkpt lat="44.74102" lon="6.86153">
        <ele>2338.4</ele>
        <time>2026-03-23T10:17:31Z</time>
      </trkpt>
      <trkpt lat="44.74102" lon="6.86154">
        <ele>2338.6</ele>
        <time>2026-03-23T10:17:32Z</time>
      </trkpt>
      <trkpt lat="44.74102" lon="6.86155">
        <ele>2338.7</ele>
        <time>2026-03-23T10:17:33Z</time>
      </trkpt>
      <trkpt lat="44.74102" lon="6.86155">
        <ele>2338.8</ele>
        <time>2026-03-23T10:17:34Z</time>
      </trkpt>
      <trkpt lat="44.74102" lon="6.86156">
        <ele>2338.8</ele>
        <time>2026-03-23T10:17:35Z</time>
      </trkpt>
      <trkpt lat="44.74102" lon="6.86156">
        <ele>2338.9</ele>
        <time>2026-03-23T10:17:36Z</time>
      </trkpt>
      <trkpt lat="44.74102" lon="6.86157">
        <ele>2339</ele>
        <time>2026-03-23T10:17:37Z</time>
      </trkpt>
      <trkpt lat="44.74102" lon="6.86158">
        <ele>2339.2</ele>
        <time>2026-03-23T10:17:38Z</time>
      </trkpt>
      <trkpt lat="44.74102" lon="6.86158">
        <ele>2339.2</ele>
        <time>2026-03-23T10:17:39Z</time>
      </trkpt>
      <trkpt lat="44.74102" lon="6.86159">
        <ele>2339.4</ele>
        <time>2026-03-23T10:17:40Z</time>
      </trkpt>
      <trkpt lat="44.74103" lon="6.8616">
        <ele>2339.5</ele>
        <time>2026-03-23T10:17:41Z</time>
      </trkpt>
      <trkpt lat="44.74103" lon="6.8616">
        <ele>2339.6</ele>
        <time>2026-03-23T10:17:42Z</time>
      </trkpt>
      <trkpt lat="44.74103" lon="6.86161">
        <ele>2339.7</ele>
        <time>2026-03-23T10:17:43Z</time>
      </trkpt>
      <trkpt lat="44.74104" lon="6.86161">
        <ele>2339.9</ele>
        <time>2026-03-23T10:17:44Z</time>
      </trkpt>
      <trkpt lat="44.74104" lon="6.86162">
        <ele>2340</ele>
        <time>2026-03-23T10:17:45Z</time>
      </trkpt>
      <trkpt lat="44.74104" lon="6.86162">
        <ele>2340.1</ele>
        <time>2026-03-23T10:17:46Z</time>
      </trkpt>
      <trkpt lat="44.74104" lon="6.86163">
        <ele>2340.3</ele>
        <time>2026-03-23T10:17:47Z</time>
      </trkpt>
      <trkpt lat="44.74104" lon="6.86163">
        <ele>2340.4</ele>
        <time>2026-03-23T10:17:48Z</time>
      </trkpt>
      <trkpt lat="44.74104" lon="6.86164">
        <ele>2340.7</ele>
        <time>2026-03-23T10:17:49Z</time>
      </trkpt>
      <trkpt lat="44.74105" lon="6.86165">
        <ele>2340.8</ele>
        <time>2026-03-23T10:17:50Z</time>
      </trkpt>
      <trkpt lat="44.74105" lon="6.86166">
        <ele>2341.1</ele>
        <time>2026-03-23T10:17:51Z</time>
      </trkpt>
      <trkpt lat="44.74106" lon="6.86166">
        <ele>2341.2</ele>
        <time>2026-03-23T10:17:52Z</time>
      </trkpt>
      <trkpt lat="44.74106" lon="6.86167">
        <ele>2341.4</ele>
        <time>2026-03-23T10:17:53Z</time>
      </trkpt>
      <trkpt lat="44.74107" lon="6.86167">
        <ele>2341.5</ele>
        <time>2026-03-23T10:17:54Z</time>
      </trkpt>
      <trkpt lat="44.74107" lon="6.86168">
        <ele>2341.8</ele>
        <time>2026-03-23T10:17:55Z</time>
      </trkpt>
      <trkpt lat="44.74106" lon="6.86169">
        <ele>2342</ele>
        <time>2026-03-23T10:17:56Z</time>
      </trkpt>
      <trkpt lat="44.74107" lon="6.8617">
        <ele>2342.2</ele>
        <time>2026-03-23T10:17:57Z</time>
      </trkpt>
      <trkpt lat="44.74106" lon="6.86171">
        <ele>2342.3</ele>
        <time>2026-03-23T10:17:58Z</time>
      </trkpt>
      <trkpt lat="44.74107" lon="6.86171">
        <ele>2342.5</ele>
        <time>2026-03-23T10:17:59Z</time>
      </trkpt>
      <trkpt lat="44.74107" lon="6.86172">
        <ele>2342.6</ele>
        <time>2026-03-23T10:18:00Z</time>
      </trkpt>
      <trkpt lat="44.74107" lon="6.86173">
        <ele>2342.8</ele>
        <time>2026-03-23T10:18:01Z</time>
      </trkpt>
      <trkpt lat="44.74106" lon="6.86174">
        <ele>2343.2</ele>
        <time>2026-03-23T10:18:02Z</time>
      </trkpt>
      <trkpt lat="44.74106" lon="6.86175">
        <ele>2343.4</ele>
        <time>2026-03-23T10:18:03Z</time>
      </trkpt>
      <trkpt lat="44.74106" lon="6.86176">
        <ele>2343.6</ele>
        <time>2026-03-23T10:18:04Z</time>
      </trkpt>
      <trkpt lat="44.74107" lon="6.86177">
        <ele>2343.7</ele>
        <time>2026-03-23T10:18:05Z</time>
      </trkpt>
      <trkpt lat="44.74107" lon="6.86177">
        <ele>2343.8</ele>
        <time>2026-03-23T10:18:06Z</time>
      </trkpt>
      <trkpt lat="44.74107" lon="6.86178">
        <ele>2344.1</ele>
        <time>2026-03-23T10:18:07Z</time>
      </trkpt>
      <trkpt lat="44.74107" lon="6.86178">
        <ele>2344.2</ele>
        <time>2026-03-23T10:18:08Z</time>
      </trkpt>
      <trkpt lat="44.74107" lon="6.86179">
        <ele>2344.4</ele>
        <time>2026-03-23T10:18:09Z</time>
      </trkpt>
      <trkpt lat="44.74107" lon="6.86179">
        <ele>2344.5</ele>
        <time>2026-03-23T10:18:10Z</time>
      </trkpt>
      <trkpt lat="44.74107" lon="6.8618">
        <ele>2344.6</ele>
        <time>2026-03-23T10:18:11Z</time>
      </trkpt>
      <trkpt lat="44.74107" lon="6.8618">
        <ele>2344.6</ele>
        <time>2026-03-23T10:18:12Z</time>
      </trkpt>
      <trkpt lat="44.74107" lon="6.86181">
        <ele>2344.8</ele>
        <time>2026-03-23T10:18:13Z</time>
      </trkpt>
      <trkpt lat="44.74108" lon="6.86181">
        <ele>2345</ele>
        <time>2026-03-23T10:18:14Z</time>
      </trkpt>
      <trkpt lat="44.74108" lon="6.86183">
        <ele>2345.4</ele>
        <time>2026-03-23T10:18:15Z</time>
      </trkpt>
      <trkpt lat="44.74108" lon="6.86183">
        <ele>2345.5</ele>
        <time>2026-03-23T10:18:16Z</time>
      </trkpt>
      <trkpt lat="44.74108" lon="6.86185">
        <ele>2345.7</ele>
        <time>2026-03-23T10:18:17Z</time>
      </trkpt>
      <trkpt lat="44.74108" lon="6.86185">
        <ele>2345.8</ele>
        <time>2026-03-23T10:18:18Z</time>
      </trkpt>
      <trkpt lat="44.74108" lon="6.86186">
        <ele>2345.9</ele>
        <time>2026-03-23T10:18:19Z</time>
      </trkpt>
      <trkpt lat="44.74108" lon="6.86186">
        <ele>2346</ele>
        <time>2026-03-23T10:18:20Z</time>
      </trkpt>
      <trkpt lat="44.74108" lon="6.86187">
        <ele>2346.4</ele>
        <time>2026-03-23T10:18:21Z</time>
      </trkpt>
      <trkpt lat="44.74109" lon="6.86187">
        <ele>2346.5</ele>
        <time>2026-03-23T10:18:22Z</time>
      </trkpt>
      <trkpt lat="44.74109" lon="6.86187">
        <ele>2346.6</ele>
        <time>2026-03-23T10:18:23Z</time>
      </trkpt>
      <trkpt lat="44.74109" lon="6.86187">
        <ele>2346.8</ele>
        <time>2026-03-23T10:18:24Z</time>
      </trkpt>
      <trkpt lat="44.7411" lon="6.86187">
        <ele>2346.9</ele>
        <time>2026-03-23T10:18:25Z</time>
      </trkpt>
      <trkpt lat="44.7411" lon="6.86187">
        <ele>2347</ele>
        <time>2026-03-23T10:18:26Z</time>
      </trkpt>
      <trkpt lat="44.7411" lon="6.86187">
        <ele>2347.1</ele>
        <time>2026-03-23T10:18:27Z</time>
      </trkpt>
      <trkpt lat="44.74111" lon="6.86187">
        <ele>2347.2</ele>
        <time>2026-03-23T10:18:28Z</time>
      </trkpt>
      <trkpt lat="44.74111" lon="6.86188">
        <ele>2347.3</ele>
        <time>2026-03-23T10:18:29Z</time>
      </trkpt>
      <trkpt lat="44.74111" lon="6.86188">
        <ele>2347.4</ele>
        <time>2026-03-23T10:18:30Z</time>
      </trkpt>
      <trkpt lat="44.74112" lon="6.86188">
        <ele>2347.5</ele>
        <time>2026-03-23T10:18:31Z</time>
      </trkpt>
      <trkpt lat="44.74112" lon="6.86188">
        <ele>2347.6</ele>
        <time>2026-03-23T10:18:32Z</time>
      </trkpt>
      <trkpt lat="44.74112" lon="6.86188">
        <ele>2347.7</ele>
        <time>2026-03-23T10:18:33Z</time>
      </trkpt>
      <trkpt lat="44.74112" lon="6.86189">
        <ele>2347.8</ele>
        <time>2026-03-23T10:18:34Z</time>
      </trkpt>
      <trkpt lat="44.74112" lon="6.86189">
        <ele>2347.8</ele>
        <time>2026-03-23T10:18:35Z</time>
      </trkpt>
      <trkpt lat="44.74112" lon="6.86189">
        <ele>2347.9</ele>
        <time>2026-03-23T10:18:36Z</time>
      </trkpt>
      <trkpt lat="44.74112" lon="6.8619">
        <ele>2348</ele>
        <time>2026-03-23T10:18:37Z</time>
      </trkpt>
      <trkpt lat="44.74113" lon="6.8619">
        <ele>2348.2</ele>
        <time>2026-03-23T10:18:38Z</time>
      </trkpt>
      <trkpt lat="44.74113" lon="6.86191">
        <ele>2348.8</ele>
        <time>2026-03-23T10:18:39Z</time>
      </trkpt>
      <trkpt lat="44.74114" lon="6.86192">
        <ele>2348.9</ele>
        <time>2026-03-23T10:18:40Z</time>
      </trkpt>
      <trkpt lat="44.74114" lon="6.86192">
        <ele>2349</ele>
        <time>2026-03-23T10:18:41Z</time>
      </trkpt>
      <trkpt lat="44.74115" lon="6.86192">
        <ele>2349.1</ele>
        <time>2026-03-23T10:18:42Z</time>
      </trkpt>
      <trkpt lat="44.74115" lon="6.86193">
        <ele>2349.2</ele>
        <time>2026-03-23T10:18:43Z</time>
      </trkpt>
      <trkpt lat="44.74116" lon="6.86193">
        <ele>2349.4</ele>
        <time>2026-03-23T10:18:44Z</time>
      </trkpt>
      <trkpt lat="44.74116" lon="6.86194">
        <ele>2349.5</ele>
        <time>2026-03-23T10:18:45Z</time>
      </trkpt>
      <trkpt lat="44.74117" lon="6.86194">
        <ele>2349.6</ele>
        <time>2026-03-23T10:18:46Z</time>
      </trkpt>
      <trkpt lat="44.74117" lon="6.86195">
        <ele>2349.6</ele>
        <time>2026-03-23T10:18:47Z</time>
      </trkpt>
      <trkpt lat="44.74117" lon="6.86195">
        <ele>2350.4</ele>
        <time>2026-03-23T10:18:48Z</time>
      </trkpt>
      <trkpt lat="44.74117" lon="6.86196">
        <ele>2350.5</ele>
        <time>2026-03-23T10:18:49Z</time>
      </trkpt>
      <trkpt lat="44.74118" lon="6.86196">
        <ele>2350.6</ele>
        <time>2026-03-23T10:18:50Z</time>
      </trkpt>
      <trkpt lat="44.74118" lon="6.86196">
        <ele>2350.6</ele>
        <time>2026-03-23T10:18:51Z</time>
      </trkpt>
      <trkpt lat="44.74117" lon="6.86197">
        <ele>2350.7</ele>
        <time>2026-03-23T10:18:52Z</time>
      </trkpt>
      <trkpt lat="44.74118" lon="6.86197">
        <ele>2350.8</ele>
        <time>2026-03-23T10:18:53Z</time>
      </trkpt>
      <trkpt lat="44.74118" lon="6.86198">
        <ele>2350.9</ele>
        <time>2026-03-23T10:18:54Z</time>
      </trkpt>
      <trkpt lat="44.74118" lon="6.86198">
        <ele>2350.9</ele>
        <time>2026-03-23T10:18:55Z</time>
      </trkpt>
      <trkpt lat="44.74118" lon="6.86199">
        <ele>2351</ele>
        <time>2026-03-23T10:18:56Z</time>
      </trkpt>
      <trkpt lat="44.74118" lon="6.86199">
        <ele>2351.8</ele>
        <time>2026-03-23T10:18:57Z</time>
      </trkpt>
      <trkpt lat="44.74119" lon="6.862">
        <ele>2352</ele>
        <time>2026-03-23T10:18:58Z</time>
      </trkpt>
      <trkpt lat="44.74119" lon="6.862">
        <ele>2352.1</ele>
        <time>2026-03-23T10:18:59Z</time>
      </trkpt>
      <trkpt lat="44.7412" lon="6.86201">
        <ele>2352.2</ele>
        <time>2026-03-23T10:19:00Z</time>
      </trkpt>
      <trkpt lat="44.7412" lon="6.86201">
        <ele>2352.3</ele>
        <time>2026-03-23T10:19:01Z</time>
      </trkpt>
      <trkpt lat="44.7412" lon="6.86202">
        <ele>2352.4</ele>
        <time>2026-03-23T10:19:02Z</time>
      </trkpt>
      <trkpt lat="44.7412" lon="6.86202">
        <ele>2352.5</ele>
        <time>2026-03-23T10:19:03Z</time>
      </trkpt>
      <trkpt lat="44.7412" lon="6.86203">
        <ele>2352.5</ele>
        <time>2026-03-23T10:19:04Z</time>
      </trkpt>
      <trkpt lat="44.7412" lon="6.86203">
        <ele>2352.6</ele>
        <time>2026-03-23T10:19:05Z</time>
      </trkpt>
      <trkpt lat="44.7412" lon="6.86203">
        <ele>2352.7</ele>
        <time>2026-03-23T10:19:06Z</time>
      </trkpt>
      <trkpt lat="44.74121" lon="6.86204">
        <ele>2353.6</ele>
        <time>2026-03-23T10:19:07Z</time>
      </trkpt>
      <trkpt lat="44.74121" lon="6.86204">
        <ele>2353.7</ele>
        <time>2026-03-23T10:19:08Z</time>
      </trkpt>
      <trkpt lat="44.74122" lon="6.86204">
        <ele>2353.8</ele>
        <time>2026-03-23T10:19:09Z</time>
      </trkpt>
      <trkpt lat="44.74122" lon="6.86204">
        <ele>2353.9</ele>
        <time>2026-03-23T10:19:10Z</time>
      </trkpt>
      <trkpt lat="44.74122" lon="6.86204">
        <ele>2354</ele>
        <time>2026-03-23T10:19:11Z</time>
      </trkpt>
      <trkpt lat="44.74123" lon="6.86204">
        <ele>2354</ele>
        <time>2026-03-23T10:19:12Z</time>
      </trkpt>
      <trkpt lat="44.74123" lon="6.86205">
        <ele>2354.1</ele>
        <time>2026-03-23T10:19:13Z</time>
      </trkpt>
      <trkpt lat="44.74123" lon="6.86205">
        <ele>2354.2</ele>
        <time>2026-03-23T10:19:14Z</time>
      </trkpt>
      <trkpt lat="44.74124" lon="6.86205">
        <ele>2354.2</ele>
        <time>2026-03-23T10:19:15Z</time>
      </trkpt>
      <trkpt lat="44.74124" lon="6.86205">
        <ele>2354.4</ele>
        <time>2026-03-23T10:19:16Z</time>
      </trkpt>
      <trkpt lat="44.74124" lon="6.86205">
        <ele>2354.4</ele>
        <time>2026-03-23T10:19:17Z</time>
      </trkpt>
      <trkpt lat="44.74124" lon="6.86205">
        <ele>2354.5</ele>
        <time>2026-03-23T10:19:18Z</time>
      </trkpt>
      <trkpt lat="44.74124" lon="6.86205">
        <ele>2354.6</ele>
        <time>2026-03-23T10:19:19Z</time>
      </trkpt>
      <trkpt lat="44.74125" lon="6.86205">
        <ele>2354.7</ele>
        <time>2026-03-23T10:19:20Z</time>
      </trkpt>
      <trkpt lat="44.74125" lon="6.86207">
        <ele>2354.8</ele>
        <time>2026-03-23T10:19:21Z</time>
      </trkpt>
      <trkpt lat="44.74126" lon="6.86207">
        <ele>2354.8</ele>
        <time>2026-03-23T10:19:22Z</time>
      </trkpt>
      <trkpt lat="44.74126" lon="6.86208">
        <ele>2355.9</ele>
        <time>2026-03-23T10:19:23Z</time>
      </trkpt>
      <trkpt lat="44.74126" lon="6.86209">
        <ele>2355.9</ele>
        <time>2026-03-23T10:19:24Z</time>
      </trkpt>
      <trkpt lat="44.74126" lon="6.86209">
        <ele>2355.9</ele>
        <time>2026-03-23T10:19:25Z</time>
      </trkpt>
      <trkpt lat="44.74126" lon="6.8621">
        <ele>2355.9</ele>
        <time>2026-03-23T10:19:26Z</time>
      </trkpt>
      <trkpt lat="44.74126" lon="6.8621">
        <ele>2355.9</ele>
        <time>2026-03-23T10:19:27Z</time>
      </trkpt>
      <trkpt lat="44.74126" lon="6.86211">
        <ele>2355.9</ele>
        <time>2026-03-23T10:19:28Z</time>
      </trkpt>
      <trkpt lat="44.74126" lon="6.86212">
        <ele>2355.9</ele>
        <time>2026-03-23T10:19:29Z</time>
      </trkpt>
      <trkpt lat="44.74126" lon="6.86213">
        <ele>2356.9</ele>
        <time>2026-03-23T10:19:30Z</time>
      </trkpt>
      <trkpt lat="44.74127" lon="6.86213">
        <ele>2356.9</ele>
        <time>2026-03-23T10:19:31Z</time>
      </trkpt>
      <trkpt lat="44.74127" lon="6.86213">
        <ele>2356.9</ele>
        <time>2026-03-23T10:19:32Z</time>
      </trkpt>
      <trkpt lat="44.74127" lon="6.86213">
        <ele>2356.9</ele>
        <time>2026-03-23T10:19:33Z</time>
      </trkpt>
      <trkpt lat="44.74127" lon="6.86213">
        <ele>2356.9</ele>
        <time>2026-03-23T10:19:34Z</time>
      </trkpt>
      <trkpt lat="44.74126" lon="6.86214">
        <ele>2357</ele>
        <time>2026-03-23T10:19:35Z</time>
      </trkpt>
      <trkpt lat="44.74126" lon="6.86214">
        <ele>2357</ele>
        <time>2026-03-23T10:19:36Z</time>
      </trkpt>
      <trkpt lat="44.74127" lon="6.86215">
        <ele>2357</ele>
        <time>2026-03-23T10:19:37Z</time>
      </trkpt>
      <trkpt lat="44.74127" lon="6.86215">
        <ele>2357</ele>
        <time>2026-03-23T10:19:38Z</time>
      </trkpt>
      <trkpt lat="44.74127" lon="6.86216">
        <ele>2357</ele>
        <time>2026-03-23T10:19:39Z</time>
      </trkpt>
      <trkpt lat="44.74128" lon="6.86216">
        <ele>2357</ele>
        <time>2026-03-23T10:19:40Z</time>
      </trkpt>
      <trkpt lat="44.74128" lon="6.86216">
        <ele>2358.1</ele>
        <time>2026-03-23T10:19:41Z</time>
      </trkpt>
      <trkpt lat="44.74128" lon="6.86217">
        <ele>2358.1</ele>
        <time>2026-03-23T10:19:42Z</time>
      </trkpt>
      <trkpt lat="44.74128" lon="6.86217">
        <ele>2358.1</ele>
        <time>2026-03-23T10:19:43Z</time>
      </trkpt>
      <trkpt lat="44.74128" lon="6.86218">
        <ele>2358.1</ele>
        <time>2026-03-23T10:19:44Z</time>
      </trkpt>
      <trkpt lat="44.74128" lon="6.86219">
        <ele>2358.1</ele>
        <time>2026-03-23T10:19:45Z</time>
      </trkpt>
      <trkpt lat="44.74129" lon="6.86219">
        <ele>2358.1</ele>
        <time>2026-03-23T10:19:46Z</time>
      </trkpt>
      <trkpt lat="44.74129" lon="6.8622">
        <ele>2358.1</ele>
        <time>2026-03-23T10:19:47Z</time>
      </trkpt>
      <trkpt lat="44.7413" lon="6.8622">
        <ele>2358.1</ele>
        <time>2026-03-23T10:19:48Z</time>
      </trkpt>
      <trkpt lat="44.7413" lon="6.86221">
        <ele>2359.1</ele>
        <time>2026-03-23T10:19:49Z</time>
      </trkpt>
      <trkpt lat="44.74131" lon="6.86222">
        <ele>2359.1</ele>
        <time>2026-03-23T10:19:50Z</time>
      </trkpt>
      <trkpt lat="44.74131" lon="6.86222">
        <ele>2359.2</ele>
        <time>2026-03-23T10:19:51Z</time>
      </trkpt>
      <trkpt lat="44.74131" lon="6.86223">
        <ele>2359.2</ele>
        <time>2026-03-23T10:19:52Z</time>
      </trkpt>
      <trkpt lat="44.74131" lon="6.86224">
        <ele>2359.3</ele>
        <time>2026-03-23T10:19:53Z</time>
      </trkpt>
      <trkpt lat="44.74131" lon="6.86224">
        <ele>2359.3</ele>
        <time>2026-03-23T10:19:54Z</time>
      </trkpt>
      <trkpt lat="44.74131" lon="6.86224">
        <ele>2359.3</ele>
        <time>2026-03-23T10:19:55Z</time>
      </trkpt>
      <trkpt lat="44.74131" lon="6.86225">
        <ele>2359.3</ele>
        <time>2026-03-23T10:19:56Z</time>
      </trkpt>
      <trkpt lat="44.74132" lon="6.86225">
        <ele>2360.2</ele>
        <time>2026-03-23T10:19:57Z</time>
      </trkpt>
      <trkpt lat="44.74132" lon="6.86225">
        <ele>2360.2</ele>
        <time>2026-03-23T10:19:58Z</time>
      </trkpt>
      <trkpt lat="44.74131" lon="6.86226">
        <ele>2360.2</ele>
        <time>2026-03-23T10:19:59Z</time>
      </trkpt>
      <trkpt lat="44.74131" lon="6.86226">
        <ele>2360.2</ele>
        <time>2026-03-23T10:20:00Z</time>
      </trkpt>
      <trkpt lat="44.74132" lon="6.86226">
        <ele>2360.2</ele>
        <time>2026-03-23T10:20:01Z</time>
      </trkpt>
      <trkpt lat="44.74132" lon="6.86227">
        <ele>2360.2</ele>
        <time>2026-03-23T10:20:02Z</time>
      </trkpt>
      <trkpt lat="44.74132" lon="6.86227">
        <ele>2360.2</ele>
        <time>2026-03-23T10:20:03Z</time>
      </trkpt>
      <trkpt lat="44.74132" lon="6.86228">
        <ele>2360.2</ele>
        <time>2026-03-23T10:20:04Z</time>
      </trkpt>
      <trkpt lat="44.74133" lon="6.86228">
        <ele>2360.3</ele>
        <time>2026-03-23T10:20:05Z</time>
      </trkpt>
      <trkpt lat="44.74133" lon="6.86229">
        <ele>2360.3</ele>
        <time>2026-03-23T10:20:06Z</time>
      </trkpt>
      <trkpt lat="44.74134" lon="6.8623">
        <ele>2361.4</ele>
        <time>2026-03-23T10:20:07Z</time>
      </trkpt>
      <trkpt lat="44.74134" lon="6.8623">
        <ele>2361.4</ele>
        <time>2026-03-23T10:20:08Z</time>
      </trkpt>
      <trkpt lat="44.74135" lon="6.86231">
        <ele>2361.4</ele>
        <time>2026-03-23T10:20:09Z</time>
      </trkpt>
      <trkpt lat="44.74136" lon="6.86231">
        <ele>2361.4</ele>
        <time>2026-03-23T10:20:10Z</time>
      </trkpt>
      <trkpt lat="44.74137" lon="6.86231">
        <ele>2361.4</ele>
        <time>2026-03-23T10:20:11Z</time>
      </trkpt>
      <trkpt lat="44.74137" lon="6.86232">
        <ele>2361.6</ele>
        <time>2026-03-23T10:20:12Z</time>
      </trkpt>
      <trkpt lat="44.74138" lon="6.86232">
        <ele>2361.6</ele>
        <time>2026-03-23T10:20:13Z</time>
      </trkpt>
      <trkpt lat="44.74139" lon="6.86232">
        <ele>2361.6</ele>
        <time>2026-03-23T10:20:14Z</time>
      </trkpt>
      <trkpt lat="44.7414" lon="6.86232">
        <ele>2361.6</ele>
        <time>2026-03-23T10:20:15Z</time>
      </trkpt>
      <trkpt lat="44.74141" lon="6.86232">
        <ele>2361.8</ele>
        <time>2026-03-23T10:20:16Z</time>
      </trkpt>
      <trkpt lat="44.74141" lon="6.86232">
        <ele>2361.8</ele>
        <time>2026-03-23T10:20:17Z</time>
      </trkpt>
      <trkpt lat="44.74141" lon="6.86232">
        <ele>2361.8</ele>
        <time>2026-03-23T10:20:18Z</time>
      </trkpt>
      <trkpt lat="44.7414" lon="6.86232">
        <ele>2361.9</ele>
        <time>2026-03-23T10:20:19Z</time>
      </trkpt>
      <trkpt lat="44.7414" lon="6.86232">
        <ele>2361.9</ele>
        <time>2026-03-23T10:20:20Z</time>
      </trkpt>
      <trkpt lat="44.7414" lon="6.86232">
        <ele>2361.9</ele>
        <time>2026-03-23T10:20:21Z</time>
      </trkpt>
      <trkpt lat="44.74141" lon="6.86232">
        <ele>2361.9</ele>
        <time>2026-03-23T10:20:22Z</time>
      </trkpt>
      <trkpt lat="44.74141" lon="6.86231">
        <ele>2361.9</ele>
        <time>2026-03-23T10:20:23Z</time>
      </trkpt>
      <trkpt lat="44.74141" lon="6.86231">
        <ele>2361.9</ele>
        <time>2026-03-23T10:20:24Z</time>
      </trkpt>
      <trkpt lat="44.74142" lon="6.86231">
        <ele>2361.9</ele>
        <time>2026-03-23T10:20:25Z</time>
      </trkpt>
      <trkpt lat="44.74141" lon="6.8623">
        <ele>2361.9</ele>
        <time>2026-03-23T10:20:26Z</time>
      </trkpt>
      <trkpt lat="44.7414" lon="6.8623">
        <ele>2361.9</ele>
        <time>2026-03-23T10:20:27Z</time>
      </trkpt>
      <trkpt lat="44.7414" lon="6.8623">
        <ele>2361.7</ele>
        <time>2026-03-23T10:20:28Z</time>
      </trkpt>
      <trkpt lat="44.7414" lon="6.8623">
        <ele>2361.7</ele>
        <time>2026-03-23T10:20:29Z</time>
      </trkpt>
      <trkpt lat="44.7414" lon="6.8623">
        <ele>2361.7</ele>
        <time>2026-03-23T10:20:30Z</time>
      </trkpt>
      <trkpt lat="44.7414" lon="6.8623">
        <ele>2361.9</ele>
        <time>2026-03-23T10:20:31Z</time>
      </trkpt>
      <trkpt lat="44.74141" lon="6.86231">
        <ele>2361.9</ele>
        <time>2026-03-23T10:20:32Z</time>
      </trkpt>
      <trkpt lat="44.74141" lon="6.86231">
        <ele>2361.9</ele>
        <time>2026-03-23T10:20:33Z</time>
      </trkpt>
      <trkpt lat="44.74141" lon="6.86232">
        <ele>2361.9</ele>
        <time>2026-03-23T10:20:34Z</time>
      </trkpt>
      <trkpt lat="44.74141" lon="6.86232">
        <ele>2361.9</ele>
        <time>2026-03-23T10:20:35Z</time>
      </trkpt>
      <trkpt lat="44.74141" lon="6.86233">
        <ele>2362</ele>
        <time>2026-03-23T10:20:36Z</time>
      </trkpt>
      <trkpt lat="44.74142" lon="6.86234">
        <ele>2362.9</ele>
        <time>2026-03-23T10:20:37Z</time>
      </trkpt>
      <trkpt lat="44.74142" lon="6.86235">
        <ele>2362.9</ele>
        <time>2026-03-23T10:20:38Z</time>
      </trkpt>
      <trkpt lat="44.74142" lon="6.86235">
        <ele>2362.9</ele>
        <time>2026-03-23T10:20:39Z</time>
      </trkpt>
      <trkpt lat="44.74142" lon="6.86235">
        <ele>2362.9</ele>
        <time>2026-03-23T10:20:40Z</time>
      </trkpt>
      <trkpt lat="44.74143" lon="6.86236">
        <ele>2362.9</ele>
        <time>2026-03-23T10:20:41Z</time>
      </trkpt>
      <trkpt lat="44.74143" lon="6.86236">
        <ele>2362.9</ele>
        <time>2026-03-23T10:20:42Z</time>
      </trkpt>
      <trkpt lat="44.74143" lon="6.86237">
        <ele>2363.1</ele>
        <time>2026-03-23T10:20:43Z</time>
      </trkpt>
      <trkpt lat="44.74144" lon="6.86237">
        <ele>2363.1</ele>
        <time>2026-03-23T10:20:44Z</time>
      </trkpt>
      <trkpt lat="44.74145" lon="6.86238">
        <ele>2363.1</ele>
        <time>2026-03-23T10:20:45Z</time>
      </trkpt>
      <trkpt lat="44.74145" lon="6.86239">
        <ele>2364.1</ele>
        <time>2026-03-23T10:20:46Z</time>
      </trkpt>
      <trkpt lat="44.74145" lon="6.86239">
        <ele>2364.1</ele>
        <time>2026-03-23T10:20:47Z</time>
      </trkpt>
      <trkpt lat="44.74145" lon="6.8624">
        <ele>2364.2</ele>
        <time>2026-03-23T10:20:48Z</time>
      </trkpt>
      <trkpt lat="44.74145" lon="6.86241">
        <ele>2364.2</ele>
        <time>2026-03-23T10:20:49Z</time>
      </trkpt>
      <trkpt lat="44.74145" lon="6.86242">
        <ele>2365.2</ele>
        <time>2026-03-23T10:20:50Z</time>
      </trkpt>
      <trkpt lat="44.74145" lon="6.86244">
        <ele>2365.2</ele>
        <time>2026-03-23T10:20:51Z</time>
      </trkpt>
      <trkpt lat="44.74146" lon="6.86245">
        <ele>2365.2</ele>
        <time>2026-03-23T10:20:52Z</time>
      </trkpt>
      <trkpt lat="44.74146" lon="6.86246">
        <ele>2366.5</ele>
        <time>2026-03-23T10:20:53Z</time>
      </trkpt>
      <trkpt lat="44.74147" lon="6.86248">
        <ele>2366.5</ele>
        <time>2026-03-23T10:20:54Z</time>
      </trkpt>
      <trkpt lat="44.74147" lon="6.86249">
        <ele>2366.5</ele>
        <time>2026-03-23T10:20:55Z</time>
      </trkpt>
      <trkpt lat="44.74148" lon="6.8625">
        <ele>2366.5</ele>
        <time>2026-03-23T10:20:56Z</time>
      </trkpt>
      <trkpt lat="44.74149" lon="6.86251">
        <ele>2366.5</ele>
        <time>2026-03-23T10:20:57Z</time>
      </trkpt>
      <trkpt lat="44.7415" lon="6.86251">
        <ele>2367.7</ele>
        <time>2026-03-23T10:20:58Z</time>
      </trkpt>
      <trkpt lat="44.74151" lon="6.86252">
        <ele>2367.8</ele>
        <time>2026-03-23T10:20:59Z</time>
      </trkpt>
      <trkpt lat="44.74151" lon="6.86252">
        <ele>2367.8</ele>
        <time>2026-03-23T10:21:00Z</time>
      </trkpt>
      <trkpt lat="44.74151" lon="6.86252">
        <ele>2367.8</ele>
        <time>2026-03-23T10:21:01Z</time>
      </trkpt>
      <trkpt lat="44.74151" lon="6.86252">
        <ele>2367.8</ele>
        <time>2026-03-23T10:21:02Z</time>
      </trkpt>
      <trkpt lat="44.74151" lon="6.86252">
        <ele>2367.8</ele>
        <time>2026-03-23T10:21:03Z</time>
      </trkpt>
      <trkpt lat="44.74151" lon="6.86252">
        <ele>2367.8</ele>
        <time>2026-03-23T10:21:04Z</time>
      </trkpt>
      <trkpt lat="44.74151" lon="6.86252">
        <ele>2367.8</ele>
        <time>2026-03-23T10:21:05Z</time>
      </trkpt>
      <trkpt lat="44.74152" lon="6.86252">
        <ele>2367.8</ele>
        <time>2026-03-23T10:21:06Z</time>
      </trkpt>
      <trkpt lat="44.74152" lon="6.86252">
        <ele>2367.8</ele>
        <time>2026-03-23T10:21:07Z</time>
      </trkpt>
      <trkpt lat="44.74152" lon="6.86252">
        <ele>2367.9</ele>
        <time>2026-03-23T10:21:08Z</time>
      </trkpt>
      <trkpt lat="44.74152" lon="6.86252">
        <ele>2367.9</ele>
        <time>2026-03-23T10:21:09Z</time>
      </trkpt>
      <trkpt lat="44.74153" lon="6.86252">
        <ele>2367.9</ele>
        <time>2026-03-23T10:21:10Z</time>
      </trkpt>
      <trkpt lat="44.74153" lon="6.86252">
        <ele>2367.9</ele>
        <time>2026-03-23T10:21:11Z</time>
      </trkpt>
      <trkpt lat="44.74154" lon="6.86252">
        <ele>2367.9</ele>
        <time>2026-03-23T10:21:12Z</time>
      </trkpt>
      <trkpt lat="44.74154" lon="6.86252">
        <ele>2367.9</ele>
        <time>2026-03-23T10:21:13Z</time>
      </trkpt>
      <trkpt lat="44.74154" lon="6.86253">
        <ele>2368</ele>
        <time>2026-03-23T10:21:14Z</time>
      </trkpt>
      <trkpt lat="44.74154" lon="6.86253">
        <ele>2368</ele>
        <time>2026-03-23T10:21:15Z</time>
      </trkpt>
      <trkpt lat="44.74154" lon="6.86253">
        <ele>2368</ele>
        <time>2026-03-23T10:21:16Z</time>
      </trkpt>
      <trkpt lat="44.74153" lon="6.86253">
        <ele>2368</ele>
        <time>2026-03-23T10:21:17Z</time>
      </trkpt>
      <trkpt lat="44.74153" lon="6.86253">
        <ele>2368</ele>
        <time>2026-03-23T10:21:18Z</time>
      </trkpt>
      <trkpt lat="44.74153" lon="6.86253">
        <ele>2368</ele>
        <time>2026-03-23T10:21:19Z</time>
      </trkpt>
      <trkpt lat="44.74153" lon="6.86253">
        <ele>2368</ele>
        <time>2026-03-23T10:21:20Z</time>
      </trkpt>
      <trkpt lat="44.74154" lon="6.86253">
        <ele>2368</ele>
        <time>2026-03-23T10:21:21Z</time>
      </trkpt>
      <trkpt lat="44.74154" lon="6.86252">
        <ele>2368</ele>
        <time>2026-03-23T10:21:22Z</time>
      </trkpt>
      <trkpt lat="44.74153" lon="6.86252">
        <ele>2368</ele>
        <time>2026-03-23T10:21:23Z</time>
      </trkpt>
      <trkpt lat="44.74153" lon="6.86252">
        <ele>2368</ele>
        <time>2026-03-23T10:21:24Z</time>
      </trkpt>
      <trkpt lat="44.74154" lon="6.86252">
        <ele>2368</ele>
        <time>2026-03-23T10:21:25Z</time>
      </trkpt>
      <trkpt lat="44.74154" lon="6.86252">
        <ele>2368</ele>
        <time>2026-03-23T10:21:26Z</time>
      </trkpt>
      <trkpt lat="44.74154" lon="6.86252">
        <ele>2368</ele>
        <time>2026-03-23T10:21:27Z</time>
      </trkpt>
      <trkpt lat="44.74154" lon="6.86252">
        <ele>2368</ele>
        <time>2026-03-23T10:21:28Z</time>
      </trkpt>
      <trkpt lat="44.74155" lon="6.86252">
        <ele>2368</ele>
        <time>2026-03-23T10:21:29Z</time>
      </trkpt>
      <trkpt lat="44.74156" lon="6.86252">
        <ele>2368.1</ele>
        <time>2026-03-23T10:21:30Z</time>
      </trkpt>
      <trkpt lat="44.74156" lon="6.86252">
        <ele>2368.1</ele>
        <time>2026-03-23T10:21:31Z</time>
      </trkpt>
      <trkpt lat="44.74156" lon="6.86251">
        <ele>2368.1</ele>
        <time>2026-03-23T10:21:32Z</time>
      </trkpt>
      <trkpt lat="44.74156" lon="6.8625">
        <ele>2367</ele>
        <time>2026-03-23T10:21:33Z</time>
      </trkpt>
      <trkpt lat="44.74157" lon="6.86249">
        <ele>2367</ele>
        <time>2026-03-23T10:21:34Z</time>
      </trkpt>
      <trkpt lat="44.74157" lon="6.86249">
        <ele>2367</ele>
        <time>2026-03-23T10:21:35Z</time>
      </trkpt>
      <trkpt lat="44.74156" lon="6.86249">
        <ele>2367</ele>
        <time>2026-03-23T10:21:36Z</time>
      </trkpt>
      <trkpt lat="44.74156" lon="6.86249">
        <ele>2367</ele>
        <time>2026-03-23T10:21:37Z</time>
      </trkpt>
      <trkpt lat="44.74157" lon="6.86249">
        <ele>2367</ele>
        <time>2026-03-23T10:21:38Z</time>
      </trkpt>
      <trkpt lat="44.74158" lon="6.86249">
        <ele>2367.1</ele>
        <time>2026-03-23T10:21:39Z</time>
      </trkpt>
      <trkpt lat="44.74158" lon="6.8625">
        <ele>2367.1</ele>
        <time>2026-03-23T10:21:40Z</time>
      </trkpt>
      <trkpt lat="44.74159" lon="6.8625">
        <ele>2367.1</ele>
        <time>2026-03-23T10:21:41Z</time>
      </trkpt>
      <trkpt lat="44.7416" lon="6.8625">
        <ele>2367.1</ele>
        <time>2026-03-23T10:21:42Z</time>
      </trkpt>
      <trkpt lat="44.7416" lon="6.86251">
        <ele>2368.3</ele>
        <time>2026-03-23T10:21:43Z</time>
      </trkpt>
      <trkpt lat="44.7416" lon="6.86252">
        <ele>2368.3</ele>
        <time>2026-03-23T10:21:44Z</time>
      </trkpt>
      <trkpt lat="44.74159" lon="6.86253">
        <ele>2368.3</ele>
        <time>2026-03-23T10:21:45Z</time>
      </trkpt>
      <trkpt lat="44.74159" lon="6.86254">
        <ele>2368.3</ele>
        <time>2026-03-23T10:21:46Z</time>
      </trkpt>
      <trkpt lat="44.74158" lon="6.86255">
        <ele>2368.3</ele>
        <time>2026-03-23T10:21:47Z</time>
      </trkpt>
      <trkpt lat="44.74158" lon="6.86255">
        <ele>2369.4</ele>
        <time>2026-03-23T10:21:48Z</time>
      </trkpt>
      <trkpt lat="44.74158" lon="6.86256">
        <ele>2369.4</ele>
        <time>2026-03-23T10:21:49Z</time>
      </trkpt>
      <trkpt lat="44.74158" lon="6.86256">
        <ele>2369.4</ele>
        <time>2026-03-23T10:21:50Z</time>
      </trkpt>
      <trkpt lat="44.74159" lon="6.86257">
        <ele>2369.4</ele>
        <time>2026-03-23T10:21:51Z</time>
      </trkpt>
      <trkpt lat="44.74159" lon="6.86257">
        <ele>2369.5</ele>
        <time>2026-03-23T10:21:52Z</time>
      </trkpt>
      <trkpt lat="44.74159" lon="6.86257">
        <ele>2369.5</ele>
        <time>2026-03-23T10:21:53Z</time>
      </trkpt>
      <trkpt lat="44.7416" lon="6.86257">
        <ele>2369.5</ele>
        <time>2026-03-23T10:21:54Z</time>
      </trkpt>
      <trkpt lat="44.7416" lon="6.86257">
        <ele>2369.5</ele>
        <time>2026-03-23T10:21:55Z</time>
      </trkpt>
      <trkpt lat="44.7416" lon="6.86258">
        <ele>2369.5</ele>
        <time>2026-03-23T10:21:56Z</time>
      </trkpt>
      <trkpt lat="44.7416" lon="6.86258">
        <ele>2369.5</ele>
        <time>2026-03-23T10:21:57Z</time>
      </trkpt>
      <trkpt lat="44.74161" lon="6.86258">
        <ele>2369.5</ele>
        <time>2026-03-23T10:21:58Z</time>
      </trkpt>
      <trkpt lat="44.74161" lon="6.86258">
        <ele>2369.5</ele>
        <time>2026-03-23T10:21:59Z</time>
      </trkpt>
      <trkpt lat="44.74162" lon="6.86259">
        <ele>2369.6</ele>
        <time>2026-03-23T10:22:00Z</time>
      </trkpt>
      <trkpt lat="44.74162" lon="6.86259">
        <ele>2369.6</ele>
        <time>2026-03-23T10:22:01Z</time>
      </trkpt>
      <trkpt lat="44.74163" lon="6.86259">
        <ele>2369.6</ele>
        <time>2026-03-23T10:22:02Z</time>
      </trkpt>
      <trkpt lat="44.74164" lon="6.86259">
        <ele>2369.6</ele>
        <time>2026-03-23T10:22:03Z</time>
      </trkpt>
      <trkpt lat="44.74164" lon="6.86259">
        <ele>2370.8</ele>
        <time>2026-03-23T10:22:04Z</time>
      </trkpt>
      <trkpt lat="44.74165" lon="6.8626">
        <ele>2370.8</ele>
        <time>2026-03-23T10:22:05Z</time>
      </trkpt>
      <trkpt lat="44.74166" lon="6.8626">
        <ele>2370.8</ele>
        <time>2026-03-23T10:22:06Z</time>
      </trkpt>
      <trkpt lat="44.74166" lon="6.8626">
        <ele>2370.8</ele>
        <time>2026-03-23T10:22:07Z</time>
      </trkpt>
      <trkpt lat="44.74166" lon="6.86259">
        <ele>2370.8</ele>
        <time>2026-03-23T10:22:08Z</time>
      </trkpt>
      <trkpt lat="44.74166" lon="6.86259">
        <ele>2370.8</ele>
        <time>2026-03-23T10:22:09Z</time>
      </trkpt>
      <trkpt lat="44.74167" lon="6.86259">
        <ele>2369.7</ele>
        <time>2026-03-23T10:22:10Z</time>
      </trkpt>
      <trkpt lat="44.74167" lon="6.86259">
        <ele>2370.8</ele>
        <time>2026-03-23T10:22:11Z</time>
      </trkpt>
      <trkpt lat="44.74167" lon="6.86259">
        <ele>2370.8</ele>
        <time>2026-03-23T10:22:12Z</time>
      </trkpt>
      <trkpt lat="44.74167" lon="6.86259">
        <ele>2369.7</ele>
        <time>2026-03-23T10:22:13Z</time>
      </trkpt>
      <trkpt lat="44.74168" lon="6.86259">
        <ele>2369.7</ele>
        <time>2026-03-23T10:22:14Z</time>
      </trkpt>
      <trkpt lat="44.74168" lon="6.86259">
        <ele>2369.7</ele>
        <time>2026-03-23T10:22:15Z</time>
      </trkpt>
      <trkpt lat="44.74168" lon="6.86259">
        <ele>2369.7</ele>
        <time>2026-03-23T10:22:16Z</time>
      </trkpt>
      <trkpt lat="44.74168" lon="6.86258">
        <ele>2369.7</ele>
        <time>2026-03-23T10:22:17Z</time>
      </trkpt>
      <trkpt lat="44.74168" lon="6.86258">
        <ele>2369.7</ele>
        <time>2026-03-23T10:22:18Z</time>
      </trkpt>
      <trkpt lat="44.74168" lon="6.86258">
        <ele>2369.8</ele>
        <time>2026-03-23T10:22:19Z</time>
      </trkpt>
      <trkpt lat="44.74168" lon="6.86257">
        <ele>2369.8</ele>
        <time>2026-03-23T10:22:20Z</time>
      </trkpt>
      <trkpt lat="44.74169" lon="6.86256">
        <ele>2369.8</ele>
        <time>2026-03-23T10:22:21Z</time>
      </trkpt>
      <trkpt lat="44.7417" lon="6.86255">
        <ele>2369.8</ele>
        <time>2026-03-23T10:22:22Z</time>
      </trkpt>
      <trkpt lat="44.74171" lon="6.86255">
        <ele>2368.6</ele>
        <time>2026-03-23T10:22:23Z</time>
      </trkpt>
      <trkpt lat="44.74172" lon="6.86254">
        <ele>2368.6</ele>
        <time>2026-03-23T10:22:24Z</time>
      </trkpt>
      <trkpt lat="44.74173" lon="6.86254">
        <ele>2368.6</ele>
        <time>2026-03-23T10:22:25Z</time>
      </trkpt>
      <trkpt lat="44.74173" lon="6.86254">
        <ele>2368.6</ele>
        <time>2026-03-23T10:22:26Z</time>
      </trkpt>
      <trkpt lat="44.74174" lon="6.86254">
        <ele>2368.6</ele>
        <time>2026-03-23T10:22:27Z</time>
      </trkpt>
      <trkpt lat="44.74174" lon="6.86253">
        <ele>2368.6</ele>
        <time>2026-03-23T10:22:28Z</time>
      </trkpt>
      <trkpt lat="44.74175" lon="6.86252">
        <ele>2368.6</ele>
        <time>2026-03-23T10:22:29Z</time>
      </trkpt>
      <trkpt lat="44.74175" lon="6.86252">
        <ele>2368.7</ele>
        <time>2026-03-23T10:22:30Z</time>
      </trkpt>
      <trkpt lat="44.74176" lon="6.86252">
        <ele>2368.7</ele>
        <time>2026-03-23T10:22:31Z</time>
      </trkpt>
      <trkpt lat="44.74176" lon="6.86252">
        <ele>2368.7</ele>
        <time>2026-03-23T10:22:32Z</time>
      </trkpt>
      <trkpt lat="44.74176" lon="6.86251">
        <ele>2368.7</ele>
        <time>2026-03-23T10:22:33Z</time>
      </trkpt>
      <trkpt lat="44.74176" lon="6.8625">
        <ele>2367.5</ele>
        <time>2026-03-23T10:22:34Z</time>
      </trkpt>
      <trkpt lat="44.74177" lon="6.8625">
        <ele>2367.5</ele>
        <time>2026-03-23T10:22:35Z</time>
      </trkpt>
      <trkpt lat="44.74177" lon="6.8625">
        <ele>2367.5</ele>
        <time>2026-03-23T10:22:36Z</time>
      </trkpt>
      <trkpt lat="44.74178" lon="6.8625">
        <ele>2367.5</ele>
        <time>2026-03-23T10:22:37Z</time>
      </trkpt>
      <trkpt lat="44.74178" lon="6.86249">
        <ele>2367.5</ele>
        <time>2026-03-23T10:22:38Z</time>
      </trkpt>
      <trkpt lat="44.74178" lon="6.86249">
        <ele>2367.5</ele>
        <time>2026-03-23T10:22:39Z</time>
      </trkpt>
      <trkpt lat="44.74177" lon="6.86249">
        <ele>2367.5</ele>
        <time>2026-03-23T10:22:40Z</time>
      </trkpt>
      <trkpt lat="44.74177" lon="6.86249">
        <ele>2367.5</ele>
        <time>2026-03-23T10:22:41Z</time>
      </trkpt>
      <trkpt lat="44.74178" lon="6.86249">
        <ele>2367.5</ele>
        <time>2026-03-23T10:22:42Z</time>
      </trkpt>
      <trkpt lat="44.74178" lon="6.86249">
        <ele>2367.5</ele>
        <time>2026-03-23T10:22:43Z</time>
      </trkpt>
      <trkpt lat="44.74178" lon="6.86249">
        <ele>2367.5</ele>
        <time>2026-03-23T10:22:44Z</time>
      </trkpt>
      <trkpt lat="44.74179" lon="6.8625">
        <ele>2367.5</ele>
        <time>2026-03-23T10:22:45Z</time>
      </trkpt>
      <trkpt lat="44.74179" lon="6.8625">
        <ele>2367.5</ele>
        <time>2026-03-23T10:22:46Z</time>
      </trkpt>
      <trkpt lat="44.7418" lon="6.8625">
        <ele>2367.6</ele>
        <time>2026-03-23T10:22:47Z</time>
      </trkpt>
      <trkpt lat="44.7418" lon="6.86249">
        <ele>2367.6</ele>
        <time>2026-03-23T10:22:48Z</time>
      </trkpt>
      <trkpt lat="44.7418" lon="6.86249">
        <ele>2367.6</ele>
        <time>2026-03-23T10:22:49Z</time>
      </trkpt>
      <trkpt lat="44.7418" lon="6.86249">
        <ele>2367.6</ele>
        <time>2026-03-23T10:22:50Z</time>
      </trkpt>
      <trkpt lat="44.7418" lon="6.86249">
        <ele>2367.6</ele>
        <time>2026-03-23T10:22:51Z</time>
      </trkpt>
      <trkpt lat="44.7418" lon="6.86249">
        <ele>2367.6</ele>
        <time>2026-03-23T10:22:52Z</time>
      </trkpt>
      <trkpt lat="44.7418" lon="6.86249">
        <ele>2367.6</ele>
        <time>2026-03-23T10:22:53Z</time>
      </trkpt>
      <trkpt lat="44.74181" lon="6.8625">
        <ele>2367.6</ele>
        <time>2026-03-23T10:22:54Z</time>
      </trkpt>
      <trkpt lat="44.74181" lon="6.86251">
        <ele>2368.8</ele>
        <time>2026-03-23T10:22:55Z</time>
      </trkpt>
      <trkpt lat="44.74182" lon="6.86251">
        <ele>2368.8</ele>
        <time>2026-03-23T10:22:56Z</time>
      </trkpt>
      <trkpt lat="44.74182" lon="6.86251">
        <ele>2368.8</ele>
        <time>2026-03-23T10:22:57Z</time>
      </trkpt>
      <trkpt lat="44.74182" lon="6.86252">
        <ele>2368.8</ele>
        <time>2026-03-23T10:22:58Z</time>
      </trkpt>
      <trkpt lat="44.74183" lon="6.86252">
        <ele>2368.8</ele>
        <time>2026-03-23T10:22:59Z</time>
      </trkpt>
      <trkpt lat="44.74183" lon="6.86254">
        <ele>2368.9</ele>
        <time>2026-03-23T10:23:00Z</time>
      </trkpt>
      <trkpt lat="44.74183" lon="6.86255">
        <ele>2370.1</ele>
        <time>2026-03-23T10:23:01Z</time>
      </trkpt>
      <trkpt lat="44.74183" lon="6.86256">
        <ele>2370.1</ele>
        <time>2026-03-23T10:23:02Z</time>
      </trkpt>
      <trkpt lat="44.74183" lon="6.86258">
        <ele>2370.1</ele>
        <time>2026-03-23T10:23:03Z</time>
      </trkpt>
      <trkpt lat="44.74183" lon="6.86258">
        <ele>2370.1</ele>
        <time>2026-03-23T10:23:04Z</time>
      </trkpt>
      <trkpt lat="44.74184" lon="6.86258">
        <ele>2370.1</ele>
        <time>2026-03-23T10:23:05Z</time>
      </trkpt>
      <trkpt lat="44.74185" lon="6.8626">
        <ele>2371.3</ele>
        <time>2026-03-23T10:23:06Z</time>
      </trkpt>
      <trkpt lat="44.74185" lon="6.86261">
        <ele>2371.4</ele>
        <time>2026-03-23T10:23:07Z</time>
      </trkpt>
      <trkpt lat="44.74185" lon="6.86264">
        <ele>2372.5</ele>
        <time>2026-03-23T10:23:08Z</time>
      </trkpt>
      <trkpt lat="44.74185" lon="6.86265">
        <ele>2372.5</ele>
        <time>2026-03-23T10:23:09Z</time>
      </trkpt>
      <trkpt lat="44.74186" lon="6.86266">
        <ele>2372.5</ele>
        <time>2026-03-23T10:23:10Z</time>
      </trkpt>
      <trkpt lat="44.74187" lon="6.8627">
        <ele>2373.7</ele>
        <time>2026-03-23T10:23:11Z</time>
      </trkpt>
      <trkpt lat="44.74187" lon="6.86271">
        <ele>2373.7</ele>
        <time>2026-03-23T10:23:12Z</time>
      </trkpt>
      <trkpt lat="44.74187" lon="6.86273">
        <ele>2374.8</ele>
        <time>2026-03-23T10:23:13Z</time>
      </trkpt>
      <trkpt lat="44.74188" lon="6.86275">
        <ele>2374.8</ele>
        <time>2026-03-23T10:23:14Z</time>
      </trkpt>
      <trkpt lat="44.74188" lon="6.86276">
        <ele>2374.8</ele>
        <time>2026-03-23T10:23:15Z</time>
      </trkpt>
      <trkpt lat="44.74188" lon="6.86277">
        <ele>2376</ele>
        <time>2026-03-23T10:23:16Z</time>
      </trkpt>
      <trkpt lat="44.74188" lon="6.86278">
        <ele>2376</ele>
        <time>2026-03-23T10:23:17Z</time>
      </trkpt>
      <trkpt lat="44.74188" lon="6.86279">
        <ele>2376</ele>
        <time>2026-03-23T10:23:18Z</time>
      </trkpt>
      <trkpt lat="44.74188" lon="6.8628">
        <ele>2376</ele>
        <time>2026-03-23T10:23:19Z</time>
      </trkpt>
      <trkpt lat="44.74188" lon="6.86281">
        <ele>2376</ele>
        <time>2026-03-23T10:23:20Z</time>
      </trkpt>
      <trkpt lat="44.74188" lon="6.86282">
        <ele>2377.1</ele>
        <time>2026-03-23T10:23:21Z</time>
      </trkpt>
      <trkpt lat="44.74188" lon="6.86283">
        <ele>2377.1</ele>
        <time>2026-03-23T10:23:22Z</time>
      </trkpt>
      <trkpt lat="44.74188" lon="6.86284">
        <ele>2377.2</ele>
        <time>2026-03-23T10:23:23Z</time>
      </trkpt>
      <trkpt lat="44.74188" lon="6.86285">
        <ele>2378.3</ele>
        <time>2026-03-23T10:23:24Z</time>
      </trkpt>
      <trkpt lat="44.74188" lon="6.86287">
        <ele>2378.4</ele>
        <time>2026-03-23T10:23:25Z</time>
      </trkpt>
      <trkpt lat="44.74188" lon="6.86287">
        <ele>2378.4</ele>
        <time>2026-03-23T10:23:26Z</time>
      </trkpt>
      <trkpt lat="44.74188" lon="6.86289">
        <ele>2378.4</ele>
        <time>2026-03-23T10:23:27Z</time>
      </trkpt>
      <trkpt lat="44.74187" lon="6.8629">
        <ele>2379.6</ele>
        <time>2026-03-23T10:23:28Z</time>
      </trkpt>
      <trkpt lat="44.74187" lon="6.86292">
        <ele>2379.6</ele>
        <time>2026-03-23T10:23:29Z</time>
      </trkpt>
      <trkpt lat="44.74187" lon="6.86294">
        <ele>2380.9</ele>
        <time>2026-03-23T10:23:30Z</time>
      </trkpt>
      <trkpt lat="44.74187" lon="6.86295">
        <ele>2380.9</ele>
        <time>2026-03-23T10:23:31Z</time>
      </trkpt>
      <trkpt lat="44.74186" lon="6.86296">
        <ele>2380.9</ele>
        <time>2026-03-23T10:23:32Z</time>
      </trkpt>
      <trkpt lat="44.74186" lon="6.86297">
        <ele>2380.9</ele>
        <time>2026-03-23T10:23:33Z</time>
      </trkpt>
      <trkpt lat="44.74186" lon="6.863">
        <ele>2382.2</ele>
        <time>2026-03-23T10:23:34Z</time>
      </trkpt>
      <trkpt lat="44.74186" lon="6.86301">
        <ele>2382.2</ele>
        <time>2026-03-23T10:23:35Z</time>
      </trkpt>
      <trkpt lat="44.74187" lon="6.86303">
        <ele>2383.4</ele>
        <time>2026-03-23T10:23:36Z</time>
      </trkpt>
      <trkpt lat="44.74188" lon="6.86305">
        <ele>2383.5</ele>
        <time>2026-03-23T10:23:37Z</time>
      </trkpt>
      <trkpt lat="44.74189" lon="6.86308">
        <ele>2384.8</ele>
        <time>2026-03-23T10:23:38Z</time>
      </trkpt>
      <trkpt lat="44.74189" lon="6.86309">
        <ele>2384.8</ele>
        <time>2026-03-23T10:23:39Z</time>
      </trkpt>
      <trkpt lat="44.7419" lon="6.8631">
        <ele>2384.8</ele>
        <time>2026-03-23T10:23:40Z</time>
      </trkpt>
      <trkpt lat="44.7419" lon="6.86311">
        <ele>2386</ele>
        <time>2026-03-23T10:23:41Z</time>
      </trkpt>
      <trkpt lat="44.7419" lon="6.86313">
        <ele>2386</ele>
        <time>2026-03-23T10:23:42Z</time>
      </trkpt>
      <trkpt lat="44.7419" lon="6.86314">
        <ele>2386</ele>
        <time>2026-03-23T10:23:43Z</time>
      </trkpt>
      <trkpt lat="44.7419" lon="6.86315">
        <ele>2386.1</ele>
        <time>2026-03-23T10:23:44Z</time>
      </trkpt>
      <trkpt lat="44.74191" lon="6.86315">
        <ele>2387.2</ele>
        <time>2026-03-23T10:23:45Z</time>
      </trkpt>
      <trkpt lat="44.74191" lon="6.86316">
        <ele>2387.2</ele>
        <time>2026-03-23T10:23:46Z</time>
      </trkpt>
      <trkpt lat="44.74191" lon="6.86317">
        <ele>2387.2</ele>
        <time>2026-03-23T10:23:47Z</time>
      </trkpt>
      <trkpt lat="44.74191" lon="6.86318">
        <ele>2387.2</ele>
        <time>2026-03-23T10:23:48Z</time>
      </trkpt>
      <trkpt lat="44.74191" lon="6.86319">
        <ele>2387.3</ele>
        <time>2026-03-23T10:23:49Z</time>
      </trkpt>
      <trkpt lat="44.7419" lon="6.8632">
        <ele>2388.4</ele>
        <time>2026-03-23T10:23:50Z</time>
      </trkpt>
      <trkpt lat="44.7419" lon="6.8632">
        <ele>2388.4</ele>
        <time>2026-03-23T10:23:51Z</time>
      </trkpt>
      <trkpt lat="44.74189" lon="6.86321">
        <ele>2388.4</ele>
        <time>2026-03-23T10:23:52Z</time>
      </trkpt>
      <trkpt lat="44.74188" lon="6.86321">
        <ele>2388.3</ele>
        <time>2026-03-23T10:23:53Z</time>
      </trkpt>
      <trkpt lat="44.74188" lon="6.86322">
        <ele>2388.3</ele>
        <time>2026-03-23T10:23:54Z</time>
      </trkpt>
      <trkpt lat="44.74187" lon="6.86323">
        <ele>2388.3</ele>
        <time>2026-03-23T10:23:55Z</time>
      </trkpt>
      <trkpt lat="44.74187" lon="6.86324">
        <ele>2389.5</ele>
        <time>2026-03-23T10:23:56Z</time>
      </trkpt>
      <trkpt lat="44.74187" lon="6.86324">
        <ele>2389.5</ele>
        <time>2026-03-23T10:23:57Z</time>
      </trkpt>
      <trkpt lat="44.74186" lon="6.86325">
        <ele>2389.5</ele>
        <time>2026-03-23T10:23:58Z</time>
      </trkpt>
      <trkpt lat="44.74186" lon="6.86325">
        <ele>2389.5</ele>
        <time>2026-03-23T10:23:59Z</time>
      </trkpt>
      <trkpt lat="44.74186" lon="6.86326">
        <ele>2389.5</ele>
        <time>2026-03-23T10:24:00Z</time>
      </trkpt>
      <trkpt lat="44.74186" lon="6.86327">
        <ele>2389.5</ele>
        <time>2026-03-23T10:24:01Z</time>
      </trkpt>
      <trkpt lat="44.74186" lon="6.86329">
        <ele>2390.8</ele>
        <time>2026-03-23T10:24:02Z</time>
      </trkpt>
      <trkpt lat="44.74186" lon="6.86329">
        <ele>2390.8</ele>
        <time>2026-03-23T10:24:03Z</time>
      </trkpt>
      <trkpt lat="44.74187" lon="6.8633">
        <ele>2390.8</ele>
        <time>2026-03-23T10:24:04Z</time>
      </trkpt>
      <trkpt lat="44.74186" lon="6.86332">
        <ele>2390.8</ele>
        <time>2026-03-23T10:24:05Z</time>
      </trkpt>
      <trkpt lat="44.74186" lon="6.86333">
        <ele>2392.2</ele>
        <time>2026-03-23T10:24:06Z</time>
      </trkpt>
      <trkpt lat="44.74186" lon="6.86333">
        <ele>2392.2</ele>
        <time>2026-03-23T10:24:07Z</time>
      </trkpt>
      <trkpt lat="44.74186" lon="6.86334">
        <ele>2392</ele>
        <time>2026-03-23T10:24:08Z</time>
      </trkpt>
      <trkpt lat="44.74186" lon="6.86335">
        <ele>2392</ele>
        <time>2026-03-23T10:24:09Z</time>
      </trkpt>
      <trkpt lat="44.74185" lon="6.86336">
        <ele>2392</ele>
        <time>2026-03-23T10:24:10Z</time>
      </trkpt>
      <trkpt lat="44.74185" lon="6.86337">
        <ele>2392</ele>
        <time>2026-03-23T10:24:11Z</time>
      </trkpt>
      <trkpt lat="44.74184" lon="6.86337">
        <ele>2393.4</ele>
        <time>2026-03-23T10:24:12Z</time>
      </trkpt>
      <trkpt lat="44.74183" lon="6.86338">
        <ele>2393.4</ele>
        <time>2026-03-23T10:24:13Z</time>
      </trkpt>
      <trkpt lat="44.74183" lon="6.86339">
        <ele>2393.3</ele>
        <time>2026-03-23T10:24:14Z</time>
      </trkpt>
      <trkpt lat="44.74182" lon="6.8634">
        <ele>2393.3</ele>
        <time>2026-03-23T10:24:15Z</time>
      </trkpt>
      <trkpt lat="44.74182" lon="6.86341">
        <ele>2394.7</ele>
        <time>2026-03-23T10:24:16Z</time>
      </trkpt>
      <trkpt lat="44.74182" lon="6.86342">
        <ele>2394.7</ele>
        <time>2026-03-23T10:24:17Z</time>
      </trkpt>
      <trkpt lat="44.74183" lon="6.86343">
        <ele>2394.9</ele>
        <time>2026-03-23T10:24:18Z</time>
      </trkpt>
      <trkpt lat="44.74183" lon="6.86344">
        <ele>2394.9</ele>
        <time>2026-03-23T10:24:19Z</time>
      </trkpt>
      <trkpt lat="44.74184" lon="6.86346">
        <ele>2396.3</ele>
        <time>2026-03-23T10:24:20Z</time>
      </trkpt>
      <trkpt lat="44.74184" lon="6.86347">
        <ele>2396.3</ele>
        <time>2026-03-23T10:24:21Z</time>
      </trkpt>
      <trkpt lat="44.74184" lon="6.86347">
        <ele>2396.3</ele>
        <time>2026-03-23T10:24:22Z</time>
      </trkpt>
      <trkpt lat="44.74184" lon="6.86348">
        <ele>2396.3</ele>
        <time>2026-03-23T10:24:23Z</time>
      </trkpt>
      <trkpt lat="44.74185" lon="6.86348">
        <ele>2396.3</ele>
        <time>2026-03-23T10:24:24Z</time>
      </trkpt>
      <trkpt lat="44.74185" lon="6.86348">
        <ele>2396.3</ele>
        <time>2026-03-23T10:24:25Z</time>
      </trkpt>
      <trkpt lat="44.74184" lon="6.86348">
        <ele>2396.3</ele>
        <time>2026-03-23T10:24:26Z</time>
      </trkpt>
      <trkpt lat="44.74184" lon="6.86348">
        <ele>2396.3</ele>
        <time>2026-03-23T10:24:27Z</time>
      </trkpt>
      <trkpt lat="44.74184" lon="6.86348">
        <ele>2396.3</ele>
        <time>2026-03-23T10:24:28Z</time>
      </trkpt>
      <trkpt lat="44.74183" lon="6.86349">
        <ele>2396.3</ele>
        <time>2026-03-23T10:24:29Z</time>
      </trkpt>
      <trkpt lat="44.74184" lon="6.86349">
        <ele>2397.7</ele>
        <time>2026-03-23T10:24:30Z</time>
      </trkpt>
      <trkpt lat="44.74184" lon="6.8635">
        <ele>2397.7</ele>
        <time>2026-03-23T10:24:31Z</time>
      </trkpt>
      <trkpt lat="44.74184" lon="6.86351">
        <ele>2397.7</ele>
        <time>2026-03-23T10:24:32Z</time>
      </trkpt>
      <trkpt lat="44.74184" lon="6.86352">
        <ele>2397.7</ele>
        <time>2026-03-23T10:24:33Z</time>
      </trkpt>
      <trkpt lat="44.74184" lon="6.86353">
        <ele>2397.7</ele>
        <time>2026-03-23T10:24:34Z</time>
      </trkpt>
      <trkpt lat="44.74184" lon="6.86354">
        <ele>2399.1</ele>
        <time>2026-03-23T10:24:35Z</time>
      </trkpt>
      <trkpt lat="44.74184" lon="6.86355">
        <ele>2399.1</ele>
        <time>2026-03-23T10:24:36Z</time>
      </trkpt>
      <trkpt lat="44.74184" lon="6.86356">
        <ele>2399.1</ele>
        <time>2026-03-23T10:24:37Z</time>
      </trkpt>
      <trkpt lat="44.74184" lon="6.86356">
        <ele>2399.1</ele>
        <time>2026-03-23T10:24:38Z</time>
      </trkpt>
      <trkpt lat="44.74184" lon="6.86357">
        <ele>2399.1</ele>
        <time>2026-03-23T10:24:39Z</time>
      </trkpt>
      <trkpt lat="44.74183" lon="6.86357">
        <ele>2399.1</ele>
        <time>2026-03-23T10:24:40Z</time>
      </trkpt>
      <trkpt lat="44.74183" lon="6.86358">
        <ele>2399.1</ele>
        <time>2026-03-23T10:24:41Z</time>
      </trkpt>
      <trkpt lat="44.74182" lon="6.86358">
        <ele>2400.3</ele>
        <time>2026-03-23T10:24:42Z</time>
      </trkpt>
      <trkpt lat="44.74182" lon="6.86359">
        <ele>2400.3</ele>
        <time>2026-03-23T10:24:43Z</time>
      </trkpt>
      <trkpt lat="44.74182" lon="6.8636">
        <ele>2400.3</ele>
        <time>2026-03-23T10:24:44Z</time>
      </trkpt>
      <trkpt lat="44.74182" lon="6.86361">
        <ele>2400.3</ele>
        <time>2026-03-23T10:24:45Z</time>
      </trkpt>
      <trkpt lat="44.74182" lon="6.86361">
        <ele>2400.3</ele>
        <time>2026-03-23T10:24:46Z</time>
      </trkpt>
      <trkpt lat="44.74181" lon="6.86362">
        <ele>2400.3</ele>
        <time>2026-03-23T10:24:47Z</time>
      </trkpt>
      <trkpt lat="44.74181" lon="6.86363">
        <ele>2401.6</ele>
        <time>2026-03-23T10:24:48Z</time>
      </trkpt>
      <trkpt lat="44.74181" lon="6.86363">
        <ele>2401.6</ele>
        <time>2026-03-23T10:24:49Z</time>
      </trkpt>
      <trkpt lat="44.74181" lon="6.86364">
        <ele>2401.6</ele>
        <time>2026-03-23T10:24:50Z</time>
      </trkpt>
      <trkpt lat="44.74181" lon="6.86365">
        <ele>2401.7</ele>
        <time>2026-03-23T10:24:51Z</time>
      </trkpt>
      <trkpt lat="44.74181" lon="6.86366">
        <ele>2401.7</ele>
        <time>2026-03-23T10:24:52Z</time>
      </trkpt>
      <trkpt lat="44.7418" lon="6.86367">
        <ele>2402.9</ele>
        <time>2026-03-23T10:24:53Z</time>
      </trkpt>
      <trkpt lat="44.7418" lon="6.86368">
        <ele>2403</ele>
        <time>2026-03-23T10:24:54Z</time>
      </trkpt>
      <trkpt lat="44.7418" lon="6.86368">
        <ele>2403</ele>
        <time>2026-03-23T10:24:55Z</time>
      </trkpt>
      <trkpt lat="44.74179" lon="6.86368">
        <ele>2402.8</ele>
        <time>2026-03-23T10:24:56Z</time>
      </trkpt>
      <trkpt lat="44.74179" lon="6.86369">
        <ele>2402.8</ele>
        <time>2026-03-23T10:24:57Z</time>
      </trkpt>
      <trkpt lat="44.7418" lon="6.86369">
        <ele>2403</ele>
        <time>2026-03-23T10:24:58Z</time>
      </trkpt>
      <trkpt lat="44.7418" lon="6.8637">
        <ele>2402.8</ele>
        <time>2026-03-23T10:24:59Z</time>
      </trkpt>
      <trkpt lat="44.7418" lon="6.86371">
        <ele>2403</ele>
        <time>2026-03-23T10:25:00Z</time>
      </trkpt>
      <trkpt lat="44.7418" lon="6.86371">
        <ele>2404.1</ele>
        <time>2026-03-23T10:25:01Z</time>
      </trkpt>
      <trkpt lat="44.74179" lon="6.86372">
        <ele>2404.1</ele>
        <time>2026-03-23T10:25:02Z</time>
      </trkpt>
      <trkpt lat="44.74178" lon="6.86373">
        <ele>2404.1</ele>
        <time>2026-03-23T10:25:03Z</time>
      </trkpt>
      <trkpt lat="44.74178" lon="6.86373">
        <ele>2404.1</ele>
        <time>2026-03-23T10:25:04Z</time>
      </trkpt>
      <trkpt lat="44.74177" lon="6.86374">
        <ele>2404.1</ele>
        <time>2026-03-23T10:25:05Z</time>
      </trkpt>
      <trkpt lat="44.74176" lon="6.86374">
        <ele>2403.9</ele>
        <time>2026-03-23T10:25:06Z</time>
      </trkpt>
      <trkpt lat="44.74176" lon="6.86374">
        <ele>2403.9</ele>
        <time>2026-03-23T10:25:07Z</time>
      </trkpt>
      <trkpt lat="44.74176" lon="6.86375">
        <ele>2403.9</ele>
        <time>2026-03-23T10:25:08Z</time>
      </trkpt>
      <trkpt lat="44.74176" lon="6.86375">
        <ele>2405.2</ele>
        <time>2026-03-23T10:25:09Z</time>
      </trkpt>
      <trkpt lat="44.74176" lon="6.86376">
        <ele>2405.2</ele>
        <time>2026-03-23T10:25:10Z</time>
      </trkpt>
      <trkpt lat="44.74176" lon="6.86377">
        <ele>2405.2</ele>
        <time>2026-03-23T10:25:11Z</time>
      </trkpt>
      <trkpt lat="44.74174" lon="6.86371">
        <ele>2403.9</ele>
        <time>2026-03-23T10:25:12Z</time>
      </trkpt>
      <trkpt lat="44.74173" lon="6.8637">
        <ele>2402.4</ele>
        <time>2026-03-23T10:25:13Z</time>
      </trkpt>
      <trkpt lat="44.74174" lon="6.86371">
        <ele>2402.7</ele>
        <time>2026-03-23T10:25:14Z</time>
      </trkpt>
      <trkpt lat="44.74174" lon="6.86372">
        <ele>2403.9</ele>
        <time>2026-03-23T10:25:15Z</time>
      </trkpt>
      <trkpt lat="44.74174" lon="6.86373">
        <ele>2403.9</ele>
        <time>2026-03-23T10:25:16Z</time>
      </trkpt>
      <trkpt lat="44.74175" lon="6.86374">
        <ele>2404</ele>
        <time>2026-03-23T10:25:17Z</time>
      </trkpt>
      <trkpt lat="44.74175" lon="6.86375">
        <ele>2404</ele>
        <time>2026-03-23T10:25:18Z</time>
      </trkpt>
      <trkpt lat="44.74176" lon="6.86376">
        <ele>2405.2</ele>
        <time>2026-03-23T10:25:19Z</time>
      </trkpt>
      <trkpt lat="44.74176" lon="6.86377">
        <ele>2405.3</ele>
        <time>2026-03-23T10:25:20Z</time>
      </trkpt>
      <trkpt lat="44.74177" lon="6.86378">
        <ele>2405.5</ele>
        <time>2026-03-23T10:25:21Z</time>
      </trkpt>
      <trkpt lat="44.74177" lon="6.86379">
        <ele>2405.5</ele>
        <time>2026-03-23T10:25:22Z</time>
      </trkpt>
      <trkpt lat="44.74177" lon="6.86379">
        <ele>2405.5</ele>
        <time>2026-03-23T10:25:23Z</time>
      </trkpt>
      <trkpt lat="44.74177" lon="6.8638">
        <ele>2406.8</ele>
        <time>2026-03-23T10:25:24Z</time>
      </trkpt>
      <trkpt lat="44.74177" lon="6.86381">
        <ele>2406.8</ele>
        <time>2026-03-23T10:25:25Z</time>
      </trkpt>
      <trkpt lat="44.74178" lon="6.86381">
        <ele>2406.8</ele>
        <time>2026-03-23T10:25:26Z</time>
      </trkpt>
      <trkpt lat="44.74178" lon="6.86382">
        <ele>2406.8</ele>
        <time>2026-03-23T10:25:27Z</time>
      </trkpt>
      <trkpt lat="44.74178" lon="6.86383">
        <ele>2406.9</ele>
        <time>2026-03-23T10:25:28Z</time>
      </trkpt>
      <trkpt lat="44.74177" lon="6.86384">
        <ele>2408.2</ele>
        <time>2026-03-23T10:25:29Z</time>
      </trkpt>
      <trkpt lat="44.74176" lon="6.86385">
        <ele>2408</ele>
        <time>2026-03-23T10:25:30Z</time>
      </trkpt>
      <trkpt lat="44.74176" lon="6.86386">
        <ele>2408</ele>
        <time>2026-03-23T10:25:31Z</time>
      </trkpt>
      <trkpt lat="44.74175" lon="6.86386">
        <ele>2408</ele>
        <time>2026-03-23T10:25:32Z</time>
      </trkpt>
      <trkpt lat="44.74175" lon="6.86387">
        <ele>2408</ele>
        <time>2026-03-23T10:25:33Z</time>
      </trkpt>
      <trkpt lat="44.74175" lon="6.86387">
        <ele>2408</ele>
        <time>2026-03-23T10:25:34Z</time>
      </trkpt>
      <trkpt lat="44.74176" lon="6.86388">
        <ele>2408</ele>
        <time>2026-03-23T10:25:35Z</time>
      </trkpt>
      <trkpt lat="44.74175" lon="6.86388">
        <ele>2409.4</ele>
        <time>2026-03-23T10:25:36Z</time>
      </trkpt>
      <trkpt lat="44.74175" lon="6.86389">
        <ele>2409.4</ele>
        <time>2026-03-23T10:25:37Z</time>
      </trkpt>
      <trkpt lat="44.74175" lon="6.86389">
        <ele>2409.4</ele>
        <time>2026-03-23T10:25:38Z</time>
      </trkpt>
      <trkpt lat="44.74175" lon="6.8639">
        <ele>2409.4</ele>
        <time>2026-03-23T10:25:39Z</time>
      </trkpt>
      <trkpt lat="44.74174" lon="6.86391">
        <ele>2409.4</ele>
        <time>2026-03-23T10:25:40Z</time>
      </trkpt>
      <trkpt lat="44.74175" lon="6.86391">
        <ele>2409.4</ele>
        <time>2026-03-23T10:25:41Z</time>
      </trkpt>
      <trkpt lat="44.74175" lon="6.86392">
        <ele>2409.4</ele>
        <time>2026-03-23T10:25:42Z</time>
      </trkpt>
      <trkpt lat="44.74176" lon="6.86393">
        <ele>2410.7</ele>
        <time>2026-03-23T10:25:43Z</time>
      </trkpt>
      <trkpt lat="44.74177" lon="6.86393">
        <ele>2411</ele>
        <time>2026-03-23T10:25:44Z</time>
      </trkpt>
      <trkpt lat="44.74178" lon="6.86394">
        <ele>2411</ele>
        <time>2026-03-23T10:25:45Z</time>
      </trkpt>
      <trkpt lat="44.74177" lon="6.86395">
        <ele>2411</ele>
        <time>2026-03-23T10:25:46Z</time>
      </trkpt>
      <trkpt lat="44.74177" lon="6.86395">
        <ele>2411</ele>
        <time>2026-03-23T10:25:47Z</time>
      </trkpt>
      <trkpt lat="44.74177" lon="6.86396">
        <ele>2411</ele>
        <time>2026-03-23T10:25:48Z</time>
      </trkpt>
      <trkpt lat="44.74177" lon="6.86396">
        <ele>2411</ele>
        <time>2026-03-23T10:25:49Z</time>
      </trkpt>
      <trkpt lat="44.74178" lon="6.86396">
        <ele>2411</ele>
        <time>2026-03-23T10:25:50Z</time>
      </trkpt>
      <trkpt lat="44.74178" lon="6.86396">
        <ele>2411</ele>
        <time>2026-03-23T10:25:51Z</time>
      </trkpt>
      <trkpt lat="44.74177" lon="6.86397">
        <ele>2412.3</ele>
        <time>2026-03-23T10:25:52Z</time>
      </trkpt>
      <trkpt lat="44.74177" lon="6.86397">
        <ele>2412.3</ele>
        <time>2026-03-23T10:25:53Z</time>
      </trkpt>
      <trkpt lat="44.74176" lon="6.86398">
        <ele>2412.1</ele>
        <time>2026-03-23T10:25:54Z</time>
      </trkpt>
      <trkpt lat="44.74176" lon="6.86398">
        <ele>2412.1</ele>
        <time>2026-03-23T10:25:55Z</time>
      </trkpt>
      <trkpt lat="44.74176" lon="6.86399">
        <ele>2412.1</ele>
        <time>2026-03-23T10:25:56Z</time>
      </trkpt>
      <trkpt lat="44.74177" lon="6.864">
        <ele>2412.4</ele>
        <time>2026-03-23T10:25:57Z</time>
      </trkpt>
      <trkpt lat="44.74177" lon="6.86401">
        <ele>2412.4</ele>
        <time>2026-03-23T10:25:58Z</time>
      </trkpt>
      <trkpt lat="44.74177" lon="6.86401">
        <ele>2413.6</ele>
        <time>2026-03-23T10:25:59Z</time>
      </trkpt>
      <trkpt lat="44.74177" lon="6.86402">
        <ele>2413.6</ele>
        <time>2026-03-23T10:26:00Z</time>
      </trkpt>
      <trkpt lat="44.74177" lon="6.86402">
        <ele>2413.6</ele>
        <time>2026-03-23T10:26:01Z</time>
      </trkpt>
      <trkpt lat="44.74177" lon="6.86403">
        <ele>2413.6</ele>
        <time>2026-03-23T10:26:02Z</time>
      </trkpt>
      <trkpt lat="44.74178" lon="6.86403">
        <ele>2413.6</ele>
        <time>2026-03-23T10:26:03Z</time>
      </trkpt>
      <trkpt lat="44.74178" lon="6.86403">
        <ele>2413.6</ele>
        <time>2026-03-23T10:26:04Z</time>
      </trkpt>
      <trkpt lat="44.74178" lon="6.86404">
        <ele>2413.6</ele>
        <time>2026-03-23T10:26:05Z</time>
      </trkpt>
      <trkpt lat="44.74177" lon="6.86404">
        <ele>2413.6</ele>
        <time>2026-03-23T10:26:06Z</time>
      </trkpt>
      <trkpt lat="44.74177" lon="6.86404">
        <ele>2413.7</ele>
        <time>2026-03-23T10:26:07Z</time>
      </trkpt>
      <trkpt lat="44.74178" lon="6.86405">
        <ele>2413.7</ele>
        <time>2026-03-23T10:26:08Z</time>
      </trkpt>
      <trkpt lat="44.74177" lon="6.86405">
        <ele>2414.9</ele>
        <time>2026-03-23T10:26:09Z</time>
      </trkpt>
      <trkpt lat="44.74178" lon="6.86406">
        <ele>2414.9</ele>
        <time>2026-03-23T10:26:10Z</time>
      </trkpt>
      <trkpt lat="44.74178" lon="6.86407">
        <ele>2414.9</ele>
        <time>2026-03-23T10:26:11Z</time>
      </trkpt>
      <trkpt lat="44.74178" lon="6.86408">
        <ele>2414.9</ele>
        <time>2026-03-23T10:26:12Z</time>
      </trkpt>
      <trkpt lat="44.74178" lon="6.86408">
        <ele>2414.9</ele>
        <time>2026-03-23T10:26:13Z</time>
      </trkpt>
      <trkpt lat="44.74178" lon="6.86409">
        <ele>2414.9</ele>
        <time>2026-03-23T10:26:14Z</time>
      </trkpt>
      <trkpt lat="44.74178" lon="6.8641">
        <ele>2416.1</ele>
        <time>2026-03-23T10:26:15Z</time>
      </trkpt>
      <trkpt lat="44.74179" lon="6.8641">
        <ele>2416.1</ele>
        <time>2026-03-23T10:26:16Z</time>
      </trkpt>
      <trkpt lat="44.74178" lon="6.86411">
        <ele>2416.1</ele>
        <time>2026-03-23T10:26:17Z</time>
      </trkpt>
      <trkpt lat="44.74178" lon="6.86411">
        <ele>2416.1</ele>
        <time>2026-03-23T10:26:18Z</time>
      </trkpt>
      <trkpt lat="44.7418" lon="6.86412">
        <ele>2416.4</ele>
        <time>2026-03-23T10:26:19Z</time>
      </trkpt>
      <trkpt lat="44.74179" lon="6.86413">
        <ele>2416.1</ele>
        <time>2026-03-23T10:26:20Z</time>
      </trkpt>
      <trkpt lat="44.74178" lon="6.86413">
        <ele>2416.1</ele>
        <time>2026-03-23T10:26:21Z</time>
      </trkpt>
      <trkpt lat="44.74178" lon="6.86413">
        <ele>2416.2</ele>
        <time>2026-03-23T10:26:22Z</time>
      </trkpt>
      <trkpt lat="44.74177" lon="6.86414">
        <ele>2416.2</ele>
        <time>2026-03-23T10:26:23Z</time>
      </trkpt>
      <trkpt lat="44.74177" lon="6.86414">
        <ele>2417.4</ele>
        <time>2026-03-23T10:26:24Z</time>
      </trkpt>
      <trkpt lat="44.74177" lon="6.86415">
        <ele>2417.4</ele>
        <time>2026-03-23T10:26:25Z</time>
      </trkpt>
      <trkpt lat="44.74177" lon="6.86415">
        <ele>2417.4</ele>
        <time>2026-03-23T10:26:26Z</time>
      </trkpt>
      <trkpt lat="44.74177" lon="6.86416">
        <ele>2417.4</ele>
        <time>2026-03-23T10:26:27Z</time>
      </trkpt>
      <trkpt lat="44.74178" lon="6.86417">
        <ele>2417.4</ele>
        <time>2026-03-23T10:26:28Z</time>
      </trkpt>
      <trkpt lat="44.74178" lon="6.86417">
        <ele>2417.4</ele>
        <time>2026-03-23T10:26:29Z</time>
      </trkpt>
      <trkpt lat="44.74178" lon="6.86418">
        <ele>2418.7</ele>
        <time>2026-03-23T10:26:30Z</time>
      </trkpt>
      <trkpt lat="44.74179" lon="6.86419">
        <ele>2418.8</ele>
        <time>2026-03-23T10:26:31Z</time>
      </trkpt>
      <trkpt lat="44.7418" lon="6.86419">
        <ele>2419.1</ele>
        <time>2026-03-23T10:26:32Z</time>
      </trkpt>
      <trkpt lat="44.7418" lon="6.8642">
        <ele>2419.1</ele>
        <time>2026-03-23T10:26:33Z</time>
      </trkpt>
      <trkpt lat="44.7418" lon="6.8642">
        <ele>2419.1</ele>
        <time>2026-03-23T10:26:34Z</time>
      </trkpt>
      <trkpt lat="44.74181" lon="6.86421">
        <ele>2419.1</ele>
        <time>2026-03-23T10:26:35Z</time>
      </trkpt>
      <trkpt lat="44.74181" lon="6.86421">
        <ele>2419.1</ele>
        <time>2026-03-23T10:26:36Z</time>
      </trkpt>
      <trkpt lat="44.74181" lon="6.86422">
        <ele>2419.1</ele>
        <time>2026-03-23T10:26:37Z</time>
      </trkpt>
      <trkpt lat="44.7418" lon="6.86422">
        <ele>2420.4</ele>
        <time>2026-03-23T10:26:38Z</time>
      </trkpt>
      <trkpt lat="44.7418" lon="6.86424">
        <ele>2420.4</ele>
        <time>2026-03-23T10:26:39Z</time>
      </trkpt>
      <trkpt lat="44.7418" lon="6.86424">
        <ele>2420.4</ele>
        <time>2026-03-23T10:26:40Z</time>
      </trkpt>
      <trkpt lat="44.7418" lon="6.86425">
        <ele>2420.4</ele>
        <time>2026-03-23T10:26:41Z</time>
      </trkpt>
      <trkpt lat="44.74179" lon="6.86424">
        <ele>2420.2</ele>
        <time>2026-03-23T10:26:42Z</time>
      </trkpt>
      <trkpt lat="44.74179" lon="6.86424">
        <ele>2420.2</ele>
        <time>2026-03-23T10:26:43Z</time>
      </trkpt>
      <trkpt lat="44.74179" lon="6.86425">
        <ele>2420.2</ele>
        <time>2026-03-23T10:26:44Z</time>
      </trkpt>
      <trkpt lat="44.74179" lon="6.86425">
        <ele>2420.2</ele>
        <time>2026-03-23T10:26:45Z</time>
      </trkpt>
      <trkpt lat="44.74179" lon="6.86426">
        <ele>2420.2</ele>
        <time>2026-03-23T10:26:46Z</time>
      </trkpt>
      <trkpt lat="44.74179" lon="6.86426">
        <ele>2420.2</ele>
        <time>2026-03-23T10:26:47Z</time>
      </trkpt>
      <trkpt lat="44.74178" lon="6.86427">
        <ele>2421.6</ele>
        <time>2026-03-23T10:26:48Z</time>
      </trkpt>
      <trkpt lat="44.74178" lon="6.86427">
        <ele>2421.6</ele>
        <time>2026-03-23T10:26:49Z</time>
      </trkpt>
      <trkpt lat="44.74177" lon="6.86428">
        <ele>2421.6</ele>
        <time>2026-03-23T10:26:50Z</time>
      </trkpt>
      <trkpt lat="44.74177" lon="6.86428">
        <ele>2421.6</ele>
        <time>2026-03-23T10:26:51Z</time>
      </trkpt>
      <trkpt lat="44.74176" lon="6.86428">
        <ele>2421.3</ele>
        <time>2026-03-23T10:26:52Z</time>
      </trkpt>
      <trkpt lat="44.74177" lon="6.86429">
        <ele>2421.6</ele>
        <time>2026-03-23T10:26:53Z</time>
      </trkpt>
      <trkpt lat="44.74177" lon="6.86429">
        <ele>2421.6</ele>
        <time>2026-03-23T10:26:54Z</time>
      </trkpt>
      <trkpt lat="44.74177" lon="6.8643">
        <ele>2421.6</ele>
        <time>2026-03-23T10:26:55Z</time>
      </trkpt>
      <trkpt lat="44.74177" lon="6.8643">
        <ele>2421.6</ele>
        <time>2026-03-23T10:26:56Z</time>
      </trkpt>
      <trkpt lat="44.74178" lon="6.86431">
        <ele>2423</ele>
        <time>2026-03-23T10:26:57Z</time>
      </trkpt>
      <trkpt lat="44.74179" lon="6.86432">
        <ele>2423</ele>
        <time>2026-03-23T10:26:58Z</time>
      </trkpt>
      <trkpt lat="44.74179" lon="6.86433">
        <ele>2423</ele>
        <time>2026-03-23T10:26:59Z</time>
      </trkpt>
      <trkpt lat="44.7418" lon="6.86433">
        <ele>2423.3</ele>
        <time>2026-03-23T10:27:00Z</time>
      </trkpt>
      <trkpt lat="44.7418" lon="6.86434">
        <ele>2423.3</ele>
        <time>2026-03-23T10:27:01Z</time>
      </trkpt>
      <trkpt lat="44.7418" lon="6.86435">
        <ele>2423.3</ele>
        <time>2026-03-23T10:27:02Z</time>
      </trkpt>
      <trkpt lat="44.7418" lon="6.86435">
        <ele>2423.3</ele>
        <time>2026-03-23T10:27:03Z</time>
      </trkpt>
      <trkpt lat="44.7418" lon="6.86436">
        <ele>2424.7</ele>
        <time>2026-03-23T10:27:04Z</time>
      </trkpt>
      <trkpt lat="44.74181" lon="6.86436">
        <ele>2424.7</ele>
        <time>2026-03-23T10:27:05Z</time>
      </trkpt>
      <trkpt lat="44.74181" lon="6.86436">
        <ele>2424.7</ele>
        <time>2026-03-23T10:27:06Z</time>
      </trkpt>
      <trkpt lat="44.74181" lon="6.86437">
        <ele>2424.7</ele>
        <time>2026-03-23T10:27:07Z</time>
      </trkpt>
      <trkpt lat="44.7418" lon="6.86438">
        <ele>2424.7</ele>
        <time>2026-03-23T10:27:08Z</time>
      </trkpt>
      <trkpt lat="44.7418" lon="6.86438">
        <ele>2424.4</ele>
        <time>2026-03-23T10:27:09Z</time>
      </trkpt>
      <trkpt lat="44.74179" lon="6.86438">
        <ele>2424.4</ele>
        <time>2026-03-23T10:27:10Z</time>
      </trkpt>
      <trkpt lat="44.74179" lon="6.86438">
        <ele>2424.4</ele>
        <time>2026-03-23T10:27:11Z</time>
      </trkpt>
      <trkpt lat="44.74178" lon="6.86439">
        <ele>2424.4</ele>
        <time>2026-03-23T10:27:12Z</time>
      </trkpt>
      <trkpt lat="44.74178" lon="6.86439">
        <ele>2424.5</ele>
        <time>2026-03-23T10:27:13Z</time>
      </trkpt>
      <trkpt lat="44.74178" lon="6.86439">
        <ele>2424.5</ele>
        <time>2026-03-23T10:27:14Z</time>
      </trkpt>
      <trkpt lat="44.74178" lon="6.86439">
        <ele>2424.5</ele>
        <time>2026-03-23T10:27:15Z</time>
      </trkpt>
      <trkpt lat="44.74178" lon="6.8644">
        <ele>2425.8</ele>
        <time>2026-03-23T10:27:16Z</time>
      </trkpt>
      <trkpt lat="44.74178" lon="6.8644">
        <ele>2425.8</ele>
        <time>2026-03-23T10:27:17Z</time>
      </trkpt>
      <trkpt lat="44.74179" lon="6.8644">
        <ele>2425.8</ele>
        <time>2026-03-23T10:27:18Z</time>
      </trkpt>
      <trkpt lat="44.74179" lon="6.86441">
        <ele>2425.8</ele>
        <time>2026-03-23T10:27:19Z</time>
      </trkpt>
      <trkpt lat="44.74179" lon="6.86441">
        <ele>2425.8</ele>
        <time>2026-03-23T10:27:20Z</time>
      </trkpt>
      <trkpt lat="44.74178" lon="6.86441">
        <ele>2425.8</ele>
        <time>2026-03-23T10:27:21Z</time>
      </trkpt>
      <trkpt lat="44.74178" lon="6.86442">
        <ele>2425.8</ele>
        <time>2026-03-23T10:27:22Z</time>
      </trkpt>
      <trkpt lat="44.74179" lon="6.86443">
        <ele>2425.9</ele>
        <time>2026-03-23T10:27:23Z</time>
      </trkpt>
      <trkpt lat="44.74179" lon="6.86443">
        <ele>2425.9</ele>
        <time>2026-03-23T10:27:24Z</time>
      </trkpt>
      <trkpt lat="44.74179" lon="6.86444">
        <ele>2425.9</ele>
        <time>2026-03-23T10:27:25Z</time>
      </trkpt>
      <trkpt lat="44.74179" lon="6.86444">
        <ele>2427.2</ele>
        <time>2026-03-23T10:27:26Z</time>
      </trkpt>
      <trkpt lat="44.74179" lon="6.86445">
        <ele>2427.2</ele>
        <time>2026-03-23T10:27:27Z</time>
      </trkpt>
      <trkpt lat="44.74179" lon="6.86445">
        <ele>2427.2</ele>
        <time>2026-03-23T10:27:28Z</time>
      </trkpt>
      <trkpt lat="44.74179" lon="6.86445">
        <ele>2427.2</ele>
        <time>2026-03-23T10:27:29Z</time>
      </trkpt>
      <trkpt lat="44.74179" lon="6.86445">
        <ele>2427.2</ele>
        <time>2026-03-23T10:27:30Z</time>
      </trkpt>
      <trkpt lat="44.74179" lon="6.86446">
        <ele>2427.2</ele>
        <time>2026-03-23T10:27:31Z</time>
      </trkpt>
      <trkpt lat="44.7418" lon="6.86446">
        <ele>2427.2</ele>
        <time>2026-03-23T10:27:32Z</time>
      </trkpt>
      <trkpt lat="44.7418" lon="6.86446">
        <ele>2427.5</ele>
        <time>2026-03-23T10:27:33Z</time>
      </trkpt>
      <trkpt lat="44.74181" lon="6.86447">
        <ele>2427.5</ele>
        <time>2026-03-23T10:27:34Z</time>
      </trkpt>
      <trkpt lat="44.74181" lon="6.86448">
        <ele>2427.5</ele>
        <time>2026-03-23T10:27:35Z</time>
      </trkpt>
      <trkpt lat="44.74181" lon="6.86448">
        <ele>2428.7</ele>
        <time>2026-03-23T10:27:36Z</time>
      </trkpt>
      <trkpt lat="44.74181" lon="6.86449">
        <ele>2428.7</ele>
        <time>2026-03-23T10:27:37Z</time>
      </trkpt>
      <trkpt lat="44.74181" lon="6.86449">
        <ele>2428.8</ele>
        <time>2026-03-23T10:27:38Z</time>
      </trkpt>
      <trkpt lat="44.74181" lon="6.86449">
        <ele>2428.8</ele>
        <time>2026-03-23T10:27:39Z</time>
      </trkpt>
      <trkpt lat="44.74181" lon="6.86449">
        <ele>2428.8</ele>
        <time>2026-03-23T10:27:40Z</time>
      </trkpt>
      <trkpt lat="44.7418" lon="6.8645">
        <ele>2428.8</ele>
        <time>2026-03-23T10:27:41Z</time>
      </trkpt>
      <trkpt lat="44.7418" lon="6.8645">
        <ele>2428.8</ele>
        <time>2026-03-23T10:27:42Z</time>
      </trkpt>
      <trkpt lat="44.7418" lon="6.8645">
        <ele>2428.5</ele>
        <time>2026-03-23T10:27:43Z</time>
      </trkpt>
      <trkpt lat="44.74179" lon="6.86451">
        <ele>2428.5</ele>
        <time>2026-03-23T10:27:44Z</time>
      </trkpt>
      <trkpt lat="44.74179" lon="6.86451">
        <ele>2428.5</ele>
        <time>2026-03-23T10:27:45Z</time>
      </trkpt>
      <trkpt lat="44.74179" lon="6.86452">
        <ele>2428.5</ele>
        <time>2026-03-23T10:27:46Z</time>
      </trkpt>
      <trkpt lat="44.74179" lon="6.86452">
        <ele>2428.5</ele>
        <time>2026-03-23T10:27:47Z</time>
      </trkpt>
      <trkpt lat="44.74179" lon="6.86452">
        <ele>2428.6</ele>
        <time>2026-03-23T10:27:48Z</time>
      </trkpt>
      <trkpt lat="44.74179" lon="6.86453">
        <ele>2429.8</ele>
        <time>2026-03-23T10:27:49Z</time>
      </trkpt>
      <trkpt lat="44.74179" lon="6.86453">
        <ele>2429.8</ele>
        <time>2026-03-23T10:27:50Z</time>
      </trkpt>
      <trkpt lat="44.74179" lon="6.86454">
        <ele>2429.8</ele>
        <time>2026-03-23T10:27:51Z</time>
      </trkpt>
      <trkpt lat="44.74179" lon="6.86454">
        <ele>2429.8</ele>
        <time>2026-03-23T10:27:52Z</time>
      </trkpt>
      <trkpt lat="44.74179" lon="6.86454">
        <ele>2429.8</ele>
        <time>2026-03-23T10:27:53Z</time>
      </trkpt>
      <trkpt lat="44.74179" lon="6.86454">
        <ele>2429.8</ele>
        <time>2026-03-23T10:27:54Z</time>
      </trkpt>
      <trkpt lat="44.74179" lon="6.86455">
        <ele>2429.8</ele>
        <time>2026-03-23T10:27:55Z</time>
      </trkpt>
      <trkpt lat="44.74179" lon="6.86455">
        <ele>2429.8</ele>
        <time>2026-03-23T10:27:56Z</time>
      </trkpt>
      <trkpt lat="44.74178" lon="6.86456">
        <ele>2429.8</ele>
        <time>2026-03-23T10:27:57Z</time>
      </trkpt>
      <trkpt lat="44.74178" lon="6.86456">
        <ele>2429.8</ele>
        <time>2026-03-23T10:27:58Z</time>
      </trkpt>
      <trkpt lat="44.74178" lon="6.86456">
        <ele>2429.8</ele>
        <time>2026-03-23T10:27:59Z</time>
      </trkpt>
      <trkpt lat="44.74178" lon="6.86457">
        <ele>2429.8</ele>
        <time>2026-03-23T10:28:00Z</time>
      </trkpt>
      <trkpt lat="44.74178" lon="6.86457">
        <ele>2431</ele>
        <time>2026-03-23T10:28:01Z</time>
      </trkpt>
      <trkpt lat="44.74178" lon="6.86457">
        <ele>2431</ele>
        <time>2026-03-23T10:28:02Z</time>
      </trkpt>
      <trkpt lat="44.74178" lon="6.86458">
        <ele>2431</ele>
        <time>2026-03-23T10:28:03Z</time>
      </trkpt>
      <trkpt lat="44.74178" lon="6.86459">
        <ele>2431</ele>
        <time>2026-03-23T10:28:04Z</time>
      </trkpt>
      <trkpt lat="44.74178" lon="6.86459">
        <ele>2431</ele>
        <time>2026-03-23T10:28:05Z</time>
      </trkpt>
      <trkpt lat="44.74177" lon="6.86459">
        <ele>2431.1</ele>
        <time>2026-03-23T10:28:06Z</time>
      </trkpt>
      <trkpt lat="44.74177" lon="6.8646">
        <ele>2431.1</ele>
        <time>2026-03-23T10:28:07Z</time>
      </trkpt>
      <trkpt lat="44.74177" lon="6.8646">
        <ele>2431.1</ele>
        <time>2026-03-23T10:28:08Z</time>
      </trkpt>
      <trkpt lat="44.74176" lon="6.8646">
        <ele>2430.8</ele>
        <time>2026-03-23T10:28:09Z</time>
      </trkpt>
      <trkpt lat="44.74176" lon="6.8646">
        <ele>2430.8</ele>
        <time>2026-03-23T10:28:10Z</time>
      </trkpt>
      <trkpt lat="44.74176" lon="6.8646">
        <ele>2430.8</ele>
        <time>2026-03-23T10:28:11Z</time>
      </trkpt>
      <trkpt lat="44.74176" lon="6.8646">
        <ele>2430.8</ele>
        <time>2026-03-23T10:28:12Z</time>
      </trkpt>
      <trkpt lat="44.74175" lon="6.86461">
        <ele>2430.8</ele>
        <time>2026-03-23T10:28:13Z</time>
      </trkpt>
      <trkpt lat="44.74175" lon="6.86461">
        <ele>2432.1</ele>
        <time>2026-03-23T10:28:14Z</time>
      </trkpt>
      <trkpt lat="44.74175" lon="6.86462">
        <ele>2432.1</ele>
        <time>2026-03-23T10:28:15Z</time>
      </trkpt>
      <trkpt lat="44.74174" lon="6.86463">
        <ele>2432.1</ele>
        <time>2026-03-23T10:28:16Z</time>
      </trkpt>
      <trkpt lat="44.74174" lon="6.86463">
        <ele>2432.1</ele>
        <time>2026-03-23T10:28:17Z</time>
      </trkpt>
      <trkpt lat="44.74174" lon="6.86464">
        <ele>2432.1</ele>
        <time>2026-03-23T10:28:18Z</time>
      </trkpt>
      <trkpt lat="44.74173" lon="6.86464">
        <ele>2431.8</ele>
        <time>2026-03-23T10:28:19Z</time>
      </trkpt>
      <trkpt lat="44.74173" lon="6.86465">
        <ele>2431.8</ele>
        <time>2026-03-23T10:28:20Z</time>
      </trkpt>
      <trkpt lat="44.74173" lon="6.86465">
        <ele>2431.8</ele>
        <time>2026-03-23T10:28:21Z</time>
      </trkpt>
      <trkpt lat="44.74173" lon="6.86466">
        <ele>2433.1</ele>
        <time>2026-03-23T10:28:22Z</time>
      </trkpt>
      <trkpt lat="44.74172" lon="6.86466">
        <ele>2433.1</ele>
        <time>2026-03-23T10:28:23Z</time>
      </trkpt>
      <trkpt lat="44.74172" lon="6.86467">
        <ele>2433.1</ele>
        <time>2026-03-23T10:28:24Z</time>
      </trkpt>
      <trkpt lat="44.74172" lon="6.86468">
        <ele>2433.1</ele>
        <time>2026-03-23T10:28:25Z</time>
      </trkpt>
      <trkpt lat="44.74172" lon="6.86468">
        <ele>2433.1</ele>
        <time>2026-03-23T10:28:26Z</time>
      </trkpt>
      <trkpt lat="44.74172" lon="6.86468">
        <ele>2433.1</ele>
        <time>2026-03-23T10:28:27Z</time>
      </trkpt>
      <trkpt lat="44.74172" lon="6.86468">
        <ele>2433.1</ele>
        <time>2026-03-23T10:28:28Z</time>
      </trkpt>
      <trkpt lat="44.74173" lon="6.86469">
        <ele>2433.1</ele>
        <time>2026-03-23T10:28:29Z</time>
      </trkpt>
      <trkpt lat="44.74173" lon="6.86469">
        <ele>2433.2</ele>
        <time>2026-03-23T10:28:30Z</time>
      </trkpt>
      <trkpt lat="44.74174" lon="6.86469">
        <ele>2433.5</ele>
        <time>2026-03-23T10:28:31Z</time>
      </trkpt>
      <trkpt lat="44.74174" lon="6.86469">
        <ele>2433.5</ele>
        <time>2026-03-23T10:28:32Z</time>
      </trkpt>
      <trkpt lat="44.74174" lon="6.8647">
        <ele>2434.8</ele>
        <time>2026-03-23T10:28:33Z</time>
      </trkpt>
      <trkpt lat="44.74175" lon="6.8647">
        <ele>2434.8</ele>
        <time>2026-03-23T10:28:34Z</time>
      </trkpt>
      <trkpt lat="44.74175" lon="6.8647">
        <ele>2434.9</ele>
        <time>2026-03-23T10:28:35Z</time>
      </trkpt>
      <trkpt lat="44.74175" lon="6.8647">
        <ele>2434.9</ele>
        <time>2026-03-23T10:28:36Z</time>
      </trkpt>
      <trkpt lat="44.74175" lon="6.8647">
        <ele>2434.9</ele>
        <time>2026-03-23T10:28:37Z</time>
      </trkpt>
      <trkpt lat="44.74175" lon="6.8647">
        <ele>2434.9</ele>
        <time>2026-03-23T10:28:38Z</time>
      </trkpt>
      <trkpt lat="44.74175" lon="6.8647">
        <ele>2434.9</ele>
        <time>2026-03-23T10:28:39Z</time>
      </trkpt>
      <trkpt lat="44.74175" lon="6.8647">
        <ele>2434.9</ele>
        <time>2026-03-23T10:28:40Z</time>
      </trkpt>
      <trkpt lat="44.74176" lon="6.8647">
        <ele>2434.9</ele>
        <time>2026-03-23T10:28:41Z</time>
      </trkpt>
      <trkpt lat="44.74176" lon="6.8647">
        <ele>2434.9</ele>
        <time>2026-03-23T10:28:42Z</time>
      </trkpt>
      <trkpt lat="44.74176" lon="6.8647">
        <ele>2434.9</ele>
        <time>2026-03-23T10:28:43Z</time>
      </trkpt>
      <trkpt lat="44.74176" lon="6.8647">
        <ele>2434.9</ele>
        <time>2026-03-23T10:28:44Z</time>
      </trkpt>
      <trkpt lat="44.74176" lon="6.8647">
        <ele>2434.9</ele>
        <time>2026-03-23T10:28:45Z</time>
      </trkpt>
      <trkpt lat="44.74176" lon="6.8647">
        <ele>2434.9</ele>
        <time>2026-03-23T10:28:46Z</time>
      </trkpt>
      <trkpt lat="44.74176" lon="6.8647">
        <ele>2434.9</ele>
        <time>2026-03-23T10:28:47Z</time>
      </trkpt>
      <trkpt lat="44.74177" lon="6.8647">
        <ele>2435.2</ele>
        <time>2026-03-23T10:28:48Z</time>
      </trkpt>
      <trkpt lat="44.74177" lon="6.8647">
        <ele>2435.2</ele>
        <time>2026-03-23T10:28:49Z</time>
      </trkpt>
      <trkpt lat="44.74177" lon="6.8647">
        <ele>2435.2</ele>
        <time>2026-03-23T10:28:50Z</time>
      </trkpt>
      <trkpt lat="44.74177" lon="6.8647">
        <ele>2435.2</ele>
        <time>2026-03-23T10:28:51Z</time>
      </trkpt>
      <trkpt lat="44.74177" lon="6.8647">
        <ele>2435.2</ele>
        <time>2026-03-23T10:28:52Z</time>
      </trkpt>
      <trkpt lat="44.74177" lon="6.8647">
        <ele>2435.2</ele>
        <time>2026-03-23T10:28:53Z</time>
      </trkpt>
      <trkpt lat="44.74178" lon="6.8647">
        <ele>2435.2</ele>
        <time>2026-03-23T10:28:54Z</time>
      </trkpt>
      <trkpt lat="44.74178" lon="6.8647">
        <ele>2435.2</ele>
        <time>2026-03-23T10:28:55Z</time>
      </trkpt>
      <trkpt lat="44.74178" lon="6.8647">
        <ele>2435.2</ele>
        <time>2026-03-23T10:28:56Z</time>
      </trkpt>
      <trkpt lat="44.74178" lon="6.86469">
        <ele>2433.9</ele>
        <time>2026-03-23T10:28:57Z</time>
      </trkpt>
      <trkpt lat="44.74178" lon="6.86469">
        <ele>2433.9</ele>
        <time>2026-03-23T10:28:58Z</time>
      </trkpt>
      <trkpt lat="44.74178" lon="6.86469">
        <ele>2433.9</ele>
        <time>2026-03-23T10:28:59Z</time>
      </trkpt>
      <trkpt lat="44.74177" lon="6.86469">
        <ele>2433.9</ele>
        <time>2026-03-23T10:29:00Z</time>
      </trkpt>
      <trkpt lat="44.74178" lon="6.86469">
        <ele>2433.9</ele>
        <time>2026-03-23T10:29:01Z</time>
      </trkpt>
      <trkpt lat="44.74178" lon="6.86469">
        <ele>2433.9</ele>
        <time>2026-03-23T10:29:02Z</time>
      </trkpt>
      <trkpt lat="44.74178" lon="6.86468">
        <ele>2433.9</ele>
        <time>2026-03-23T10:29:03Z</time>
      </trkpt>
      <trkpt lat="44.74178" lon="6.86468">
        <ele>2433.9</ele>
        <time>2026-03-23T10:29:04Z</time>
      </trkpt>
      <trkpt lat="44.74179" lon="6.86468">
        <ele>2433.9</ele>
        <time>2026-03-23T10:29:05Z</time>
      </trkpt>
      <trkpt lat="44.74179" lon="6.86468">
        <ele>2433.9</ele>
        <time>2026-03-23T10:29:06Z</time>
      </trkpt>
      <trkpt lat="44.74179" lon="6.86468">
        <ele>2433.9</ele>
        <time>2026-03-23T10:29:07Z</time>
      </trkpt>
      <trkpt lat="44.74179" lon="6.86468">
        <ele>2433.9</ele>
        <time>2026-03-23T10:29:08Z</time>
      </trkpt>
      <trkpt lat="44.74179" lon="6.86469">
        <ele>2433.9</ele>
        <time>2026-03-23T10:29:09Z</time>
      </trkpt>
      <trkpt lat="44.74179" lon="6.86469">
        <ele>2434</ele>
        <time>2026-03-23T10:29:10Z</time>
      </trkpt>
      <trkpt lat="44.74179" lon="6.8647">
        <ele>2435.3</ele>
        <time>2026-03-23T10:29:11Z</time>
      </trkpt>
      <trkpt lat="44.74179" lon="6.86471">
        <ele>2435.3</ele>
        <time>2026-03-23T10:29:12Z</time>
      </trkpt>
      <trkpt lat="44.74179" lon="6.86472">
        <ele>2435.3</ele>
        <time>2026-03-23T10:29:13Z</time>
      </trkpt>
      <trkpt lat="44.7418" lon="6.86473">
        <ele>2435.6</ele>
        <time>2026-03-23T10:29:14Z</time>
      </trkpt>
      <trkpt lat="44.74181" lon="6.86474">
        <ele>2437</ele>
        <time>2026-03-23T10:29:15Z</time>
      </trkpt>
      <trkpt lat="44.74182" lon="6.86475">
        <ele>2437</ele>
        <time>2026-03-23T10:29:16Z</time>
      </trkpt>
      <trkpt lat="44.74183" lon="6.86476">
        <ele>2437.3</ele>
        <time>2026-03-23T10:29:17Z</time>
      </trkpt>
      <trkpt lat="44.74183" lon="6.86477">
        <ele>2437.3</ele>
        <time>2026-03-23T10:29:18Z</time>
      </trkpt>
      <trkpt lat="44.74184" lon="6.86477">
        <ele>2437.3</ele>
        <time>2026-03-23T10:29:19Z</time>
      </trkpt>
      <trkpt lat="44.74184" lon="6.86478">
        <ele>2437.3</ele>
        <time>2026-03-23T10:29:20Z</time>
      </trkpt>
      <trkpt lat="44.74184" lon="6.86478">
        <ele>2438.7</ele>
        <time>2026-03-23T10:29:21Z</time>
      </trkpt>
      <trkpt lat="44.74185" lon="6.86479">
        <ele>2438.7</ele>
        <time>2026-03-23T10:29:22Z</time>
      </trkpt>
      <trkpt lat="44.74185" lon="6.8648">
        <ele>2438.7</ele>
        <time>2026-03-23T10:29:23Z</time>
      </trkpt>
      <trkpt lat="44.74185" lon="6.86481">
        <ele>2438.7</ele>
        <time>2026-03-23T10:29:24Z</time>
      </trkpt>
      <trkpt lat="44.74185" lon="6.86482">
        <ele>2438.7</ele>
        <time>2026-03-23T10:29:25Z</time>
      </trkpt>
      <trkpt lat="44.74185" lon="6.86483">
        <ele>2440.1</ele>
        <time>2026-03-23T10:29:26Z</time>
      </trkpt>
      <trkpt lat="44.74186" lon="6.86484">
        <ele>2440.4</ele>
        <time>2026-03-23T10:29:27Z</time>
      </trkpt>
      <trkpt lat="44.74186" lon="6.86485">
        <ele>2440.4</ele>
        <time>2026-03-23T10:29:28Z</time>
      </trkpt>
      <trkpt lat="44.74187" lon="6.86486">
        <ele>2440.4</ele>
        <time>2026-03-23T10:29:29Z</time>
      </trkpt>
      <trkpt lat="44.74187" lon="6.86487">
        <ele>2441.7</ele>
        <time>2026-03-23T10:29:30Z</time>
      </trkpt>
      <trkpt lat="44.74187" lon="6.86488">
        <ele>2441.7</ele>
        <time>2026-03-23T10:29:31Z</time>
      </trkpt>
      <trkpt lat="44.74187" lon="6.86488">
        <ele>2441.7</ele>
        <time>2026-03-23T10:29:32Z</time>
      </trkpt>
      <trkpt lat="44.74187" lon="6.86489">
        <ele>2441.7</ele>
        <time>2026-03-23T10:29:33Z</time>
      </trkpt>
      <trkpt lat="44.74187" lon="6.8649">
        <ele>2441.7</ele>
        <time>2026-03-23T10:29:34Z</time>
      </trkpt>
      <trkpt lat="44.74187" lon="6.86491">
        <ele>2443.1</ele>
        <time>2026-03-23T10:29:35Z</time>
      </trkpt>
      <trkpt lat="44.74187" lon="6.86492">
        <ele>2443.1</ele>
        <time>2026-03-23T10:29:36Z</time>
      </trkpt>
      <trkpt lat="44.74187" lon="6.86493">
        <ele>2443.1</ele>
        <time>2026-03-23T10:29:37Z</time>
      </trkpt>
      <trkpt lat="44.74187" lon="6.86494">
        <ele>2443.1</ele>
        <time>2026-03-23T10:29:38Z</time>
      </trkpt>
      <trkpt lat="44.74187" lon="6.86495">
        <ele>2443.1</ele>
        <time>2026-03-23T10:29:39Z</time>
      </trkpt>
      <trkpt lat="44.74187" lon="6.86495">
        <ele>2443.1</ele>
        <time>2026-03-23T10:29:40Z</time>
      </trkpt>
      <trkpt lat="44.74187" lon="6.86496">
        <ele>2444.4</ele>
        <time>2026-03-23T10:29:41Z</time>
      </trkpt>
      <trkpt lat="44.74186" lon="6.86496">
        <ele>2444.4</ele>
        <time>2026-03-23T10:29:42Z</time>
      </trkpt>
      <trkpt lat="44.74186" lon="6.86497">
        <ele>2444.4</ele>
        <time>2026-03-23T10:29:43Z</time>
      </trkpt>
      <trkpt lat="44.74186" lon="6.86497">
        <ele>2444.4</ele>
        <time>2026-03-23T10:29:44Z</time>
      </trkpt>
      <trkpt lat="44.74186" lon="6.86497">
        <ele>2444.4</ele>
        <time>2026-03-23T10:29:45Z</time>
      </trkpt>
      <trkpt lat="44.74186" lon="6.86497">
        <ele>2444.4</ele>
        <time>2026-03-23T10:29:46Z</time>
      </trkpt>
      <trkpt lat="44.74186" lon="6.86497">
        <ele>2444.2</ele>
        <time>2026-03-23T10:29:47Z</time>
      </trkpt>
      <trkpt lat="44.74185" lon="6.86497">
        <ele>2444.2</ele>
        <time>2026-03-23T10:29:48Z</time>
      </trkpt>
      <trkpt lat="44.74185" lon="6.86497">
        <ele>2444.2</ele>
        <time>2026-03-23T10:29:49Z</time>
      </trkpt>
      <trkpt lat="44.74185" lon="6.86497">
        <ele>2444.2</ele>
        <time>2026-03-23T10:29:50Z</time>
      </trkpt>
      <trkpt lat="44.74184" lon="6.86498">
        <ele>2444.2</ele>
        <time>2026-03-23T10:29:51Z</time>
      </trkpt>
      <trkpt lat="44.74184" lon="6.86498">
        <ele>2444.2</ele>
        <time>2026-03-23T10:29:52Z</time>
      </trkpt>
      <trkpt lat="44.74184" lon="6.86498">
        <ele>2444.2</ele>
        <time>2026-03-23T10:29:53Z</time>
      </trkpt>
      <trkpt lat="44.74184" lon="6.86498">
        <ele>2444.2</ele>
        <time>2026-03-23T10:29:54Z</time>
      </trkpt>
      <trkpt lat="44.74183" lon="6.86499">
        <ele>2444.2</ele>
        <time>2026-03-23T10:29:55Z</time>
      </trkpt>
      <trkpt lat="44.74182" lon="6.86499">
        <ele>2444</ele>
        <time>2026-03-23T10:29:56Z</time>
      </trkpt>
      <trkpt lat="44.74182" lon="6.86498">
        <ele>2444</ele>
        <time>2026-03-23T10:29:57Z</time>
      </trkpt>
      <trkpt lat="44.74182" lon="6.86499">
        <ele>2444</ele>
        <time>2026-03-23T10:29:58Z</time>
      </trkpt>
      <trkpt lat="44.74182" lon="6.86499">
        <ele>2444</ele>
        <time>2026-03-23T10:29:59Z</time>
      </trkpt>
      <trkpt lat="44.74182" lon="6.86499">
        <ele>2444</ele>
        <time>2026-03-23T10:30:00Z</time>
      </trkpt>
      <trkpt lat="44.74182" lon="6.86499">
        <ele>2444</ele>
        <time>2026-03-23T10:30:01Z</time>
      </trkpt>
      <trkpt lat="44.74181" lon="6.86499">
        <ele>2444</ele>
        <time>2026-03-23T10:30:02Z</time>
      </trkpt>
      <trkpt lat="44.74181" lon="6.86499">
        <ele>2444</ele>
        <time>2026-03-23T10:30:03Z</time>
      </trkpt>
      <trkpt lat="44.7418" lon="6.86499">
        <ele>2444.1</ele>
        <time>2026-03-23T10:30:04Z</time>
      </trkpt>
      <trkpt lat="44.7418" lon="6.865">
        <ele>2445.4</ele>
        <time>2026-03-23T10:30:05Z</time>
      </trkpt>
      <trkpt lat="44.74179" lon="6.865">
        <ele>2445.1</ele>
        <time>2026-03-23T10:30:06Z</time>
      </trkpt>
      <trkpt lat="44.74179" lon="6.865">
        <ele>2445.1</ele>
        <time>2026-03-23T10:30:07Z</time>
      </trkpt>
      <trkpt lat="44.74179" lon="6.865">
        <ele>2445.1</ele>
        <time>2026-03-23T10:30:08Z</time>
      </trkpt>
      <trkpt lat="44.74179" lon="6.865">
        <ele>2445.1</ele>
        <time>2026-03-23T10:30:09Z</time>
      </trkpt>
      <trkpt lat="44.74178" lon="6.865">
        <ele>2445.1</ele>
        <time>2026-03-23T10:30:10Z</time>
      </trkpt>
      <trkpt lat="44.74178" lon="6.865">
        <ele>2445.1</ele>
        <time>2026-03-23T10:30:11Z</time>
      </trkpt>
      <trkpt lat="44.74177" lon="6.865">
        <ele>2445.1</ele>
        <time>2026-03-23T10:30:12Z</time>
      </trkpt>
      <trkpt lat="44.74177" lon="6.86499">
        <ele>2443.9</ele>
        <time>2026-03-23T10:30:13Z</time>
      </trkpt>
      <trkpt lat="44.74177" lon="6.86499">
        <ele>2443.9</ele>
        <time>2026-03-23T10:30:14Z</time>
      </trkpt>
      <trkpt lat="44.74177" lon="6.86499">
        <ele>2443.9</ele>
        <time>2026-03-23T10:30:15Z</time>
      </trkpt>
      <trkpt lat="44.74176" lon="6.86499">
        <ele>2443.6</ele>
        <time>2026-03-23T10:30:16Z</time>
      </trkpt>
      <trkpt lat="44.74176" lon="6.86499">
        <ele>2443.6</ele>
        <time>2026-03-23T10:30:17Z</time>
      </trkpt>
      <trkpt lat="44.74176" lon="6.86499">
        <ele>2443.6</ele>
        <time>2026-03-23T10:30:18Z</time>
      </trkpt>
      <trkpt lat="44.74175" lon="6.86498">
        <ele>2443.6</ele>
        <time>2026-03-23T10:30:19Z</time>
      </trkpt>
      <trkpt lat="44.74175" lon="6.86498">
        <ele>2443.6</ele>
        <time>2026-03-23T10:30:20Z</time>
      </trkpt>
      <trkpt lat="44.74175" lon="6.86498">
        <ele>2443.6</ele>
        <time>2026-03-23T10:30:21Z</time>
      </trkpt>
      <trkpt lat="44.74175" lon="6.86498">
        <ele>2443.6</ele>
        <time>2026-03-23T10:30:22Z</time>
      </trkpt>
      <trkpt lat="44.74175" lon="6.86497">
        <ele>2443.6</ele>
        <time>2026-03-23T10:30:23Z</time>
      </trkpt>
      <trkpt lat="44.74174" lon="6.86497">
        <ele>2443.7</ele>
        <time>2026-03-23T10:30:24Z</time>
      </trkpt>
      <trkpt lat="44.74174" lon="6.86496">
        <ele>2443.7</ele>
        <time>2026-03-23T10:30:25Z</time>
      </trkpt>
      <trkpt lat="44.74173" lon="6.86495">
        <ele>2442.1</ele>
        <time>2026-03-23T10:30:26Z</time>
      </trkpt>
      <trkpt lat="44.74172" lon="6.86495">
        <ele>2442.1</ele>
        <time>2026-03-23T10:30:27Z</time>
      </trkpt>
      <trkpt lat="44.74171" lon="6.86494">
        <ele>2442.1</ele>
        <time>2026-03-23T10:30:28Z</time>
      </trkpt>
      <trkpt lat="44.74171" lon="6.86494">
        <ele>2442.1</ele>
        <time>2026-03-23T10:30:29Z</time>
      </trkpt>
      <trkpt lat="44.7417" lon="6.86494">
        <ele>2441.8</ele>
        <time>2026-03-23T10:30:30Z</time>
      </trkpt>
      <trkpt lat="44.7417" lon="6.86493">
        <ele>2441.8</ele>
        <time>2026-03-23T10:30:31Z</time>
      </trkpt>
      <trkpt lat="44.74169" lon="6.86493">
        <ele>2441.8</ele>
        <time>2026-03-23T10:30:32Z</time>
      </trkpt>
      <trkpt lat="44.74169" lon="6.86493">
        <ele>2441.8</ele>
        <time>2026-03-23T10:30:33Z</time>
      </trkpt>
      <trkpt lat="44.74168" lon="6.86494">
        <ele>2441.8</ele>
        <time>2026-03-23T10:30:34Z</time>
      </trkpt>
      <trkpt lat="44.74168" lon="6.86494">
        <ele>2441.8</ele>
        <time>2026-03-23T10:30:35Z</time>
      </trkpt>
      <trkpt lat="44.74167" lon="6.86495">
        <ele>2441.5</ele>
        <time>2026-03-23T10:30:36Z</time>
      </trkpt>
      <trkpt lat="44.74167" lon="6.86495">
        <ele>2441.5</ele>
        <time>2026-03-23T10:30:37Z</time>
      </trkpt>
      <trkpt lat="44.74167" lon="6.86495">
        <ele>2441.5</ele>
        <time>2026-03-23T10:30:38Z</time>
      </trkpt>
      <trkpt lat="44.74167" lon="6.86495">
        <ele>2442.8</ele>
        <time>2026-03-23T10:30:39Z</time>
      </trkpt>
      <trkpt lat="44.74167" lon="6.86496">
        <ele>2442.8</ele>
        <time>2026-03-23T10:30:40Z</time>
      </trkpt>
      <trkpt lat="44.74166" lon="6.86496">
        <ele>2442.9</ele>
        <time>2026-03-23T10:30:41Z</time>
      </trkpt>
      <trkpt lat="44.74166" lon="6.86496">
        <ele>2442.9</ele>
        <time>2026-03-23T10:30:42Z</time>
      </trkpt>
      <trkpt lat="44.74166" lon="6.86496">
        <ele>2442.9</ele>
        <time>2026-03-23T10:30:43Z</time>
      </trkpt>
      <trkpt lat="44.74166" lon="6.86496">
        <ele>2442.9</ele>
        <time>2026-03-23T10:30:44Z</time>
      </trkpt>
      <trkpt lat="44.74165" lon="6.86497">
        <ele>2442.9</ele>
        <time>2026-03-23T10:30:45Z</time>
      </trkpt>
      <trkpt lat="44.74164" lon="6.86498">
        <ele>2442.6</ele>
        <time>2026-03-23T10:30:46Z</time>
      </trkpt>
      <trkpt lat="44.74164" lon="6.86498">
        <ele>2442.6</ele>
        <time>2026-03-23T10:30:47Z</time>
      </trkpt>
      <trkpt lat="44.74163" lon="6.86498">
        <ele>2442.6</ele>
        <time>2026-03-23T10:30:48Z</time>
      </trkpt>
      <trkpt lat="44.74163" lon="6.86498">
        <ele>2442.6</ele>
        <time>2026-03-23T10:30:49Z</time>
      </trkpt>
      <trkpt lat="44.74162" lon="6.86499">
        <ele>2442.6</ele>
        <time>2026-03-23T10:30:50Z</time>
      </trkpt>
      <trkpt lat="44.74162" lon="6.86499">
        <ele>2442.6</ele>
        <time>2026-03-23T10:30:51Z</time>
      </trkpt>
      <trkpt lat="44.74161" lon="6.865">
        <ele>2443.9</ele>
        <time>2026-03-23T10:30:52Z</time>
      </trkpt>
      <trkpt lat="44.74161" lon="6.865">
        <ele>2443.6</ele>
        <time>2026-03-23T10:30:53Z</time>
      </trkpt>
      <trkpt lat="44.74161" lon="6.86501">
        <ele>2443.6</ele>
        <time>2026-03-23T10:30:54Z</time>
      </trkpt>
      <trkpt lat="44.74161" lon="6.86501">
        <ele>2443.6</ele>
        <time>2026-03-23T10:30:55Z</time>
      </trkpt>
      <trkpt lat="44.74161" lon="6.86502">
        <ele>2443.6</ele>
        <time>2026-03-23T10:30:56Z</time>
      </trkpt>
      <trkpt lat="44.7416" lon="6.86503">
        <ele>2443.6</ele>
        <time>2026-03-23T10:30:57Z</time>
      </trkpt>
      <trkpt lat="44.7416" lon="6.86503">
        <ele>2443.6</ele>
        <time>2026-03-23T10:30:58Z</time>
      </trkpt>
      <trkpt lat="44.7416" lon="6.86504">
        <ele>2443.6</ele>
        <time>2026-03-23T10:30:59Z</time>
      </trkpt>
      <trkpt lat="44.7416" lon="6.86504">
        <ele>2443.6</ele>
        <time>2026-03-23T10:31:00Z</time>
      </trkpt>
      <trkpt lat="44.7416" lon="6.86504">
        <ele>2445</ele>
        <time>2026-03-23T10:31:01Z</time>
      </trkpt>
      <trkpt lat="44.74159" lon="6.86505">
        <ele>2445</ele>
        <time>2026-03-23T10:31:02Z</time>
      </trkpt>
      <trkpt lat="44.7416" lon="6.86505">
        <ele>2445</ele>
        <time>2026-03-23T10:31:03Z</time>
      </trkpt>
      <trkpt lat="44.7416" lon="6.86505">
        <ele>2445</ele>
        <time>2026-03-23T10:31:04Z</time>
      </trkpt>
      <trkpt lat="44.7416" lon="6.86505">
        <ele>2445</ele>
        <time>2026-03-23T10:31:05Z</time>
      </trkpt>
      <trkpt lat="44.74161" lon="6.86506">
        <ele>2445</ele>
        <time>2026-03-23T10:31:06Z</time>
      </trkpt>
      <trkpt lat="44.74161" lon="6.86506">
        <ele>2445</ele>
        <time>2026-03-23T10:31:07Z</time>
      </trkpt>
      <trkpt lat="44.74162" lon="6.86506">
        <ele>2445.3</ele>
        <time>2026-03-23T10:31:08Z</time>
      </trkpt>
      <trkpt lat="44.74162" lon="6.86507">
        <ele>2445.3</ele>
        <time>2026-03-23T10:31:09Z</time>
      </trkpt>
      <trkpt lat="44.74162" lon="6.86507">
        <ele>2445.3</ele>
        <time>2026-03-23T10:31:10Z</time>
      </trkpt>
      <trkpt lat="44.74162" lon="6.86507">
        <ele>2445.3</ele>
        <time>2026-03-23T10:31:11Z</time>
      </trkpt>
      <trkpt lat="44.74162" lon="6.86507">
        <ele>2445.3</ele>
        <time>2026-03-23T10:31:12Z</time>
      </trkpt>
      <trkpt lat="44.74162" lon="6.86507">
        <ele>2445.3</ele>
        <time>2026-03-23T10:31:13Z</time>
      </trkpt>
      <trkpt lat="44.74163" lon="6.86507">
        <ele>2445.4</ele>
        <time>2026-03-23T10:31:14Z</time>
      </trkpt>
      <trkpt lat="44.74163" lon="6.86507">
        <ele>2445.4</ele>
        <time>2026-03-23T10:31:15Z</time>
      </trkpt>
      <trkpt lat="44.74163" lon="6.86507">
        <ele>2445.4</ele>
        <time>2026-03-23T10:31:16Z</time>
      </trkpt>
      <trkpt lat="44.74163" lon="6.86506">
        <ele>2445.4</ele>
        <time>2026-03-23T10:31:17Z</time>
      </trkpt>
      <trkpt lat="44.74163" lon="6.86507">
        <ele>2445.4</ele>
        <time>2026-03-23T10:31:18Z</time>
      </trkpt>
      <trkpt lat="44.74164" lon="6.86507">
        <ele>2445.4</ele>
        <time>2026-03-23T10:31:19Z</time>
      </trkpt>
      <trkpt lat="44.74164" lon="6.86507">
        <ele>2445.4</ele>
        <time>2026-03-23T10:31:20Z</time>
      </trkpt>
      <trkpt lat="44.74164" lon="6.86507">
        <ele>2445.4</ele>
        <time>2026-03-23T10:31:21Z</time>
      </trkpt>
      <trkpt lat="44.74164" lon="6.86508">
        <ele>2445.7</ele>
        <time>2026-03-23T10:31:22Z</time>
      </trkpt>
      <trkpt lat="44.74165" lon="6.86508">
        <ele>2445.7</ele>
        <time>2026-03-23T10:31:23Z</time>
      </trkpt>
      <trkpt lat="44.74165" lon="6.86508">
        <ele>2445.7</ele>
        <time>2026-03-23T10:31:24Z</time>
      </trkpt>
      <trkpt lat="44.74165" lon="6.86508">
        <ele>2445.7</ele>
        <time>2026-03-23T10:31:25Z</time>
      </trkpt>
      <trkpt lat="44.74165" lon="6.86508">
        <ele>2445.7</ele>
        <time>2026-03-23T10:31:26Z</time>
      </trkpt>
      <trkpt lat="44.74165" lon="6.86508">
        <ele>2445.8</ele>
        <time>2026-03-23T10:31:27Z</time>
      </trkpt>
      <trkpt lat="44.74166" lon="6.86508">
        <ele>2445.8</ele>
        <time>2026-03-23T10:31:28Z</time>
      </trkpt>
      <trkpt lat="44.74166" lon="6.86508">
        <ele>2445.8</ele>
        <time>2026-03-23T10:31:29Z</time>
      </trkpt>
      <trkpt lat="44.74167" lon="6.86508">
        <ele>2445.8</ele>
        <time>2026-03-23T10:31:30Z</time>
      </trkpt>
      <trkpt lat="44.74167" lon="6.86507">
        <ele>2445.8</ele>
        <time>2026-03-23T10:31:31Z</time>
      </trkpt>
      <trkpt lat="44.74167" lon="6.86508">
        <ele>2445.8</ele>
        <time>2026-03-23T10:31:32Z</time>
      </trkpt>
      <trkpt lat="44.74168" lon="6.86508">
        <ele>2446.1</ele>
        <time>2026-03-23T10:31:33Z</time>
      </trkpt>
      <trkpt lat="44.74168" lon="6.86509">
        <ele>2447.5</ele>
        <time>2026-03-23T10:31:34Z</time>
      </trkpt>
      <trkpt lat="44.74168" lon="6.86509">
        <ele>2447.5</ele>
        <time>2026-03-23T10:31:35Z</time>
      </trkpt>
      <trkpt lat="44.74169" lon="6.86509">
        <ele>2447.5</ele>
        <time>2026-03-23T10:31:36Z</time>
      </trkpt>
      <trkpt lat="44.74169" lon="6.86509">
        <ele>2447.5</ele>
        <time>2026-03-23T10:31:37Z</time>
      </trkpt>
      <trkpt lat="44.74169" lon="6.86509">
        <ele>2447.5</ele>
        <time>2026-03-23T10:31:38Z</time>
      </trkpt>
      <trkpt lat="44.74169" lon="6.86509">
        <ele>2447.5</ele>
        <time>2026-03-23T10:31:39Z</time>
      </trkpt>
      <trkpt lat="44.74169" lon="6.86509">
        <ele>2447.5</ele>
        <time>2026-03-23T10:31:40Z</time>
      </trkpt>
      <trkpt lat="44.74169" lon="6.86509">
        <ele>2447.5</ele>
        <time>2026-03-23T10:31:41Z</time>
      </trkpt>
      <trkpt lat="44.74169" lon="6.86509">
        <ele>2447.5</ele>
        <time>2026-03-23T10:31:42Z</time>
      </trkpt>
      <trkpt lat="44.74169" lon="6.86509">
        <ele>2447.5</ele>
        <time>2026-03-23T10:31:43Z</time>
      </trkpt>
      <trkpt lat="44.74169" lon="6.8651">
        <ele>2447.5</ele>
        <time>2026-03-23T10:31:44Z</time>
      </trkpt>
      <trkpt lat="44.7417" lon="6.86509">
        <ele>2447.5</ele>
        <time>2026-03-23T10:31:45Z</time>
      </trkpt>
      <trkpt lat="44.7417" lon="6.86509">
        <ele>2447.8</ele>
        <time>2026-03-23T10:31:46Z</time>
      </trkpt>
      <trkpt lat="44.74171" lon="6.86509">
        <ele>2447.8</ele>
        <time>2026-03-23T10:31:47Z</time>
      </trkpt>
      <trkpt lat="44.74171" lon="6.8651">
        <ele>2447.8</ele>
        <time>2026-03-23T10:31:48Z</time>
      </trkpt>
      <trkpt lat="44.74171" lon="6.8651">
        <ele>2447.8</ele>
        <time>2026-03-23T10:31:49Z</time>
      </trkpt>
      <trkpt lat="44.74171" lon="6.8651">
        <ele>2447.9</ele>
        <time>2026-03-23T10:31:50Z</time>
      </trkpt>
      <trkpt lat="44.74172" lon="6.8651">
        <ele>2447.9</ele>
        <time>2026-03-23T10:31:51Z</time>
      </trkpt>
      <trkpt lat="44.74172" lon="6.86511">
        <ele>2447.9</ele>
        <time>2026-03-23T10:31:52Z</time>
      </trkpt>
      <trkpt lat="44.74172" lon="6.86511">
        <ele>2447.9</ele>
        <time>2026-03-23T10:31:53Z</time>
      </trkpt>
      <trkpt lat="44.74172" lon="6.86511">
        <ele>2447.9</ele>
        <time>2026-03-23T10:31:54Z</time>
      </trkpt>
      <trkpt lat="44.74172" lon="6.86512">
        <ele>2447.9</ele>
        <time>2026-03-23T10:31:55Z</time>
      </trkpt>
      <trkpt lat="44.74172" lon="6.86512">
        <ele>2447.9</ele>
        <time>2026-03-23T10:31:56Z</time>
      </trkpt>
      <trkpt lat="44.74173" lon="6.86512">
        <ele>2447.9</ele>
        <time>2026-03-23T10:31:57Z</time>
      </trkpt>
      <trkpt lat="44.74173" lon="6.86513">
        <ele>2449.3</ele>
        <time>2026-03-23T10:31:58Z</time>
      </trkpt>
      <trkpt lat="44.74174" lon="6.86513">
        <ele>2449.6</ele>
        <time>2026-03-23T10:31:59Z</time>
      </trkpt>
      <trkpt lat="44.74174" lon="6.86513">
        <ele>2449.6</ele>
        <time>2026-03-23T10:32:00Z</time>
      </trkpt>
      <trkpt lat="44.74175" lon="6.86514">
        <ele>2449.6</ele>
        <time>2026-03-23T10:32:01Z</time>
      </trkpt>
      <trkpt lat="44.74175" lon="6.86514">
        <ele>2449.6</ele>
        <time>2026-03-23T10:32:02Z</time>
      </trkpt>
      <trkpt lat="44.74176" lon="6.86514">
        <ele>2449.6</ele>
        <time>2026-03-23T10:32:03Z</time>
      </trkpt>
      <trkpt lat="44.74176" lon="6.86514">
        <ele>2449.6</ele>
        <time>2026-03-23T10:32:04Z</time>
      </trkpt>
      <trkpt lat="44.74177" lon="6.86514">
        <ele>2449.9</ele>
        <time>2026-03-23T10:32:05Z</time>
      </trkpt>
      <trkpt lat="44.74177" lon="6.86514">
        <ele>2449.9</ele>
        <time>2026-03-23T10:32:06Z</time>
      </trkpt>
      <trkpt lat="44.74177" lon="6.86515">
        <ele>2449.9</ele>
        <time>2026-03-23T10:32:07Z</time>
      </trkpt>
      <trkpt lat="44.74178" lon="6.86515">
        <ele>2449.9</ele>
        <time>2026-03-23T10:32:08Z</time>
      </trkpt>
      <trkpt lat="44.74179" lon="6.86515">
        <ele>2450</ele>
        <time>2026-03-23T10:32:09Z</time>
      </trkpt>
      <trkpt lat="44.74179" lon="6.86515">
        <ele>2450</ele>
        <time>2026-03-23T10:32:10Z</time>
      </trkpt>
      <trkpt lat="44.74179" lon="6.86515">
        <ele>2450</ele>
        <time>2026-03-23T10:32:11Z</time>
      </trkpt>
      <trkpt lat="44.74179" lon="6.86515">
        <ele>2450</ele>
        <time>2026-03-23T10:32:12Z</time>
      </trkpt>
      <trkpt lat="44.7418" lon="6.86516">
        <ele>2450</ele>
        <time>2026-03-23T10:32:13Z</time>
      </trkpt>
      <trkpt lat="44.7418" lon="6.86517">
        <ele>2450.3</ele>
        <time>2026-03-23T10:32:14Z</time>
      </trkpt>
      <trkpt lat="44.7418" lon="6.86517">
        <ele>2451.8</ele>
        <time>2026-03-23T10:32:15Z</time>
      </trkpt>
      <trkpt lat="44.7418" lon="6.86517">
        <ele>2451.8</ele>
        <time>2026-03-23T10:32:16Z</time>
      </trkpt>
      <trkpt lat="44.7418" lon="6.86518">
        <ele>2451.8</ele>
        <time>2026-03-23T10:32:17Z</time>
      </trkpt>
      <trkpt lat="44.74181" lon="6.86518">
        <ele>2451.8</ele>
        <time>2026-03-23T10:32:18Z</time>
      </trkpt>
      <trkpt lat="44.74181" lon="6.86519">
        <ele>2451.8</ele>
        <time>2026-03-23T10:32:19Z</time>
      </trkpt>
      <trkpt lat="44.74181" lon="6.86519">
        <ele>2451.8</ele>
        <time>2026-03-23T10:32:20Z</time>
      </trkpt>
      <trkpt lat="44.74181" lon="6.8652">
        <ele>2451.8</ele>
        <time>2026-03-23T10:32:21Z</time>
      </trkpt>
      <trkpt lat="44.74182" lon="6.8652">
        <ele>2451.8</ele>
        <time>2026-03-23T10:32:22Z</time>
      </trkpt>
      <trkpt lat="44.74182" lon="6.86521">
        <ele>2451.8</ele>
        <time>2026-03-23T10:32:23Z</time>
      </trkpt>
      <trkpt lat="44.74183" lon="6.86522">
        <ele>2453.7</ele>
        <time>2026-03-23T10:32:24Z</time>
      </trkpt>
      <trkpt lat="44.74183" lon="6.86524">
        <ele>2453.7</ele>
        <time>2026-03-23T10:32:25Z</time>
      </trkpt>
      <trkpt lat="44.74183" lon="6.86525">
        <ele>2453.7</ele>
        <time>2026-03-23T10:32:26Z</time>
      </trkpt>
      <trkpt lat="44.74184" lon="6.86528">
        <ele>2455.3</ele>
        <time>2026-03-23T10:32:27Z</time>
      </trkpt>
      <trkpt lat="44.74184" lon="6.86529">
        <ele>2455.3</ele>
        <time>2026-03-23T10:32:28Z</time>
      </trkpt>
      <trkpt lat="44.74184" lon="6.8653">
        <ele>2455.3</ele>
        <time>2026-03-23T10:32:29Z</time>
      </trkpt>
      <trkpt lat="44.74185" lon="6.86531">
        <ele>2456.9</ele>
        <time>2026-03-23T10:32:30Z</time>
      </trkpt>
      <trkpt lat="44.74185" lon="6.86532">
        <ele>2456.9</ele>
        <time>2026-03-23T10:32:31Z</time>
      </trkpt>
      <trkpt lat="44.74185" lon="6.86533">
        <ele>2456.9</ele>
        <time>2026-03-23T10:32:32Z</time>
      </trkpt>
      <trkpt lat="44.74185" lon="6.86534">
        <ele>2456.9</ele>
        <time>2026-03-23T10:32:33Z</time>
      </trkpt>
      <trkpt lat="44.74185" lon="6.86534">
        <ele>2456.9</ele>
        <time>2026-03-23T10:32:34Z</time>
      </trkpt>
      <trkpt lat="44.74185" lon="6.86534">
        <ele>2458.4</ele>
        <time>2026-03-23T10:32:35Z</time>
      </trkpt>
      <trkpt lat="44.74185" lon="6.86535">
        <ele>2458.4</ele>
        <time>2026-03-23T10:32:36Z</time>
      </trkpt>
      <trkpt lat="44.74185" lon="6.86535">
        <ele>2458.4</ele>
        <time>2026-03-23T10:32:37Z</time>
      </trkpt>
      <trkpt lat="44.74185" lon="6.86536">
        <ele>2458.4</ele>
        <time>2026-03-23T10:32:38Z</time>
      </trkpt>
      <trkpt lat="44.74186" lon="6.86537">
        <ele>2458.4</ele>
        <time>2026-03-23T10:32:39Z</time>
      </trkpt>
      <trkpt lat="44.74185" lon="6.86538">
        <ele>2458.4</ele>
        <time>2026-03-23T10:32:40Z</time>
      </trkpt>
      <trkpt lat="44.74185" lon="6.86539">
        <ele>2459.8</ele>
        <time>2026-03-23T10:32:41Z</time>
      </trkpt>
      <trkpt lat="44.74185" lon="6.8654">
        <ele>2459.8</ele>
        <time>2026-03-23T10:32:42Z</time>
      </trkpt>
      <trkpt lat="44.74185" lon="6.86541">
        <ele>2459.8</ele>
        <time>2026-03-23T10:32:43Z</time>
      </trkpt>
      <trkpt lat="44.74185" lon="6.86542">
        <ele>2459.9</ele>
        <time>2026-03-23T10:32:44Z</time>
      </trkpt>
      <trkpt lat="44.74185" lon="6.86543">
        <ele>2461.2</ele>
        <time>2026-03-23T10:32:45Z</time>
      </trkpt>
      <trkpt lat="44.74185" lon="6.86545">
        <ele>2461.2</ele>
        <time>2026-03-23T10:32:46Z</time>
      </trkpt>
      <trkpt lat="44.74185" lon="6.86546">
        <ele>2461.2</ele>
        <time>2026-03-23T10:32:47Z</time>
      </trkpt>
      <trkpt lat="44.74185" lon="6.86548">
        <ele>2462.6</ele>
        <time>2026-03-23T10:32:48Z</time>
      </trkpt>
      <trkpt lat="44.74184" lon="6.86549">
        <ele>2462.6</ele>
        <time>2026-03-23T10:32:49Z</time>
      </trkpt>
      <trkpt lat="44.74184" lon="6.8655">
        <ele>2462.6</ele>
        <time>2026-03-23T10:32:50Z</time>
      </trkpt>
      <trkpt lat="44.74183" lon="6.86552">
        <ele>2463.9</ele>
        <time>2026-03-23T10:32:51Z</time>
      </trkpt>
      <trkpt lat="44.74183" lon="6.86553">
        <ele>2463.9</ele>
        <time>2026-03-23T10:32:52Z</time>
      </trkpt>
      <trkpt lat="44.74183" lon="6.86555">
        <ele>2463.9</ele>
        <time>2026-03-23T10:32:53Z</time>
      </trkpt>
      <trkpt lat="44.74183" lon="6.86557">
        <ele>2465.3</ele>
        <time>2026-03-23T10:32:54Z</time>
      </trkpt>
      <trkpt lat="44.74183" lon="6.86558">
        <ele>2465.3</ele>
        <time>2026-03-23T10:32:55Z</time>
      </trkpt>
      <trkpt lat="44.74184" lon="6.86558">
        <ele>2465.3</ele>
        <time>2026-03-23T10:32:56Z</time>
      </trkpt>
      <trkpt lat="44.74184" lon="6.86559">
        <ele>2465.3</ele>
        <time>2026-03-23T10:32:57Z</time>
      </trkpt>
      <trkpt lat="44.74183" lon="6.8656">
        <ele>2465.3</ele>
        <time>2026-03-23T10:32:58Z</time>
      </trkpt>
      <trkpt lat="44.74183" lon="6.86561">
        <ele>2466.7</ele>
        <time>2026-03-23T10:32:59Z</time>
      </trkpt>
      <trkpt lat="44.74183" lon="6.86561">
        <ele>2466.7</ele>
        <time>2026-03-23T10:33:00Z</time>
      </trkpt>
      <trkpt lat="44.74183" lon="6.86562">
        <ele>2466.7</ele>
        <time>2026-03-23T10:33:01Z</time>
      </trkpt>
      <trkpt lat="44.74183" lon="6.86562">
        <ele>2466.7</ele>
        <time>2026-03-23T10:33:02Z</time>
      </trkpt>
      <trkpt lat="44.74182" lon="6.86563">
        <ele>2466.3</ele>
        <time>2026-03-23T10:33:03Z</time>
      </trkpt>
      <trkpt lat="44.74182" lon="6.86563">
        <ele>2466.3</ele>
        <time>2026-03-23T10:33:04Z</time>
      </trkpt>
      <trkpt lat="44.74182" lon="6.86564">
        <ele>2466.3</ele>
        <time>2026-03-23T10:33:05Z</time>
      </trkpt>
      <trkpt lat="44.74182" lon="6.86565">
        <ele>2467.7</ele>
        <time>2026-03-23T10:33:06Z</time>
      </trkpt>
      <trkpt lat="44.74182" lon="6.86566">
        <ele>2467.7</ele>
        <time>2026-03-23T10:33:07Z</time>
      </trkpt>
      <trkpt lat="44.74182" lon="6.86566">
        <ele>2467.7</ele>
        <time>2026-03-23T10:33:08Z</time>
      </trkpt>
      <trkpt lat="44.74182" lon="6.86567">
        <ele>2467.7</ele>
        <time>2026-03-23T10:33:09Z</time>
      </trkpt>
      <trkpt lat="44.74182" lon="6.86568">
        <ele>2467.7</ele>
        <time>2026-03-23T10:33:10Z</time>
      </trkpt>
      <trkpt lat="44.74182" lon="6.86568">
        <ele>2467.7</ele>
        <time>2026-03-23T10:33:11Z</time>
      </trkpt>
      <trkpt lat="44.74181" lon="6.86568">
        <ele>2467.8</ele>
        <time>2026-03-23T10:33:12Z</time>
      </trkpt>
      <trkpt lat="44.74181" lon="6.86568">
        <ele>2469.1</ele>
        <time>2026-03-23T10:33:13Z</time>
      </trkpt>
      <trkpt lat="44.74181" lon="6.86569">
        <ele>2469.1</ele>
        <time>2026-03-23T10:33:14Z</time>
      </trkpt>
      <trkpt lat="44.74181" lon="6.8657">
        <ele>2469.1</ele>
        <time>2026-03-23T10:33:15Z</time>
      </trkpt>
      <trkpt lat="44.74181" lon="6.86571">
        <ele>2469.1</ele>
        <time>2026-03-23T10:33:16Z</time>
      </trkpt>
      <trkpt lat="44.74181" lon="6.86572">
        <ele>2469.1</ele>
        <time>2026-03-23T10:33:17Z</time>
      </trkpt>
      <trkpt lat="44.74181" lon="6.86572">
        <ele>2469.1</ele>
        <time>2026-03-23T10:33:18Z</time>
      </trkpt>
      <trkpt lat="44.74181" lon="6.86573">
        <ele>2470.4</ele>
        <time>2026-03-23T10:33:19Z</time>
      </trkpt>
      <trkpt lat="44.74181" lon="6.86575">
        <ele>2470.4</ele>
        <time>2026-03-23T10:33:20Z</time>
      </trkpt>
      <trkpt lat="44.74181" lon="6.86575">
        <ele>2470.4</ele>
        <time>2026-03-23T10:33:21Z</time>
      </trkpt>
      <trkpt lat="44.74181" lon="6.86576">
        <ele>2470.5</ele>
        <time>2026-03-23T10:33:22Z</time>
      </trkpt>
      <trkpt lat="44.74181" lon="6.86576">
        <ele>2470.5</ele>
        <time>2026-03-23T10:33:23Z</time>
      </trkpt>
      <trkpt lat="44.74181" lon="6.86577">
        <ele>2470.5</ele>
        <time>2026-03-23T10:33:24Z</time>
      </trkpt>
      <trkpt lat="44.74181" lon="6.86577">
        <ele>2471.7</ele>
        <time>2026-03-23T10:33:25Z</time>
      </trkpt>
      <trkpt lat="44.74181" lon="6.86578">
        <ele>2471.7</ele>
        <time>2026-03-23T10:33:26Z</time>
      </trkpt>
      <trkpt lat="44.74181" lon="6.86579">
        <ele>2471.7</ele>
        <time>2026-03-23T10:33:27Z</time>
      </trkpt>
      <trkpt lat="44.74181" lon="6.8658">
        <ele>2471.7</ele>
        <time>2026-03-23T10:33:28Z</time>
      </trkpt>
      <trkpt lat="44.74181" lon="6.86581">
        <ele>2473</ele>
        <time>2026-03-23T10:33:29Z</time>
      </trkpt>
      <trkpt lat="44.74181" lon="6.86583">
        <ele>2473</ele>
        <time>2026-03-23T10:33:30Z</time>
      </trkpt>
      <trkpt lat="44.74181" lon="6.86584">
        <ele>2473</ele>
        <time>2026-03-23T10:33:31Z</time>
      </trkpt>
      <trkpt lat="44.74181" lon="6.86584">
        <ele>2473</ele>
        <time>2026-03-23T10:33:32Z</time>
      </trkpt>
      <trkpt lat="44.74181" lon="6.86585">
        <ele>2473</ele>
        <time>2026-03-23T10:33:33Z</time>
      </trkpt>
      <trkpt lat="44.74181" lon="6.86586">
        <ele>2474.1</ele>
        <time>2026-03-23T10:33:34Z</time>
      </trkpt>
      <trkpt lat="44.74181" lon="6.86587">
        <ele>2474.1</ele>
        <time>2026-03-23T10:33:35Z</time>
      </trkpt>
      <trkpt lat="44.74181" lon="6.86587">
        <ele>2474.2</ele>
        <time>2026-03-23T10:33:36Z</time>
      </trkpt>
      <trkpt lat="44.74182" lon="6.86588">
        <ele>2474.2</ele>
        <time>2026-03-23T10:33:37Z</time>
      </trkpt>
      <trkpt lat="44.74182" lon="6.86589">
        <ele>2474.2</ele>
        <time>2026-03-23T10:33:38Z</time>
      </trkpt>
      <trkpt lat="44.74182" lon="6.8659">
        <ele>2474.2</ele>
        <time>2026-03-23T10:33:39Z</time>
      </trkpt>
      <trkpt lat="44.74182" lon="6.8659">
        <ele>2475.3</ele>
        <time>2026-03-23T10:33:40Z</time>
      </trkpt>
      <trkpt lat="44.74181" lon="6.86591">
        <ele>2475.3</ele>
        <time>2026-03-23T10:33:41Z</time>
      </trkpt>
      <trkpt lat="44.74181" lon="6.86592">
        <ele>2475.3</ele>
        <time>2026-03-23T10:33:42Z</time>
      </trkpt>
      <trkpt lat="44.7418" lon="6.86592">
        <ele>2475.3</ele>
        <time>2026-03-23T10:33:43Z</time>
      </trkpt>
      <trkpt lat="44.74179" lon="6.86593">
        <ele>2474.8</ele>
        <time>2026-03-23T10:33:44Z</time>
      </trkpt>
      <trkpt lat="44.74179" lon="6.86594">
        <ele>2474.8</ele>
        <time>2026-03-23T10:33:45Z</time>
      </trkpt>
      <trkpt lat="44.74179" lon="6.86595">
        <ele>2475.9</ele>
        <time>2026-03-23T10:33:46Z</time>
      </trkpt>
      <trkpt lat="44.74178" lon="6.86595">
        <ele>2475.9</ele>
        <time>2026-03-23T10:33:47Z</time>
      </trkpt>
      <trkpt lat="44.74178" lon="6.86596">
        <ele>2475.9</ele>
        <time>2026-03-23T10:33:48Z</time>
      </trkpt>
      <trkpt lat="44.74177" lon="6.86596">
        <ele>2475.9</ele>
        <time>2026-03-23T10:33:49Z</time>
      </trkpt>
      <trkpt lat="44.74177" lon="6.86597">
        <ele>2475.9</ele>
        <time>2026-03-23T10:33:50Z</time>
      </trkpt>
      <trkpt lat="44.74176" lon="6.86597">
        <ele>2475.3</ele>
        <time>2026-03-23T10:33:51Z</time>
      </trkpt>
      <trkpt lat="44.74176" lon="6.86597">
        <ele>2475.3</ele>
        <time>2026-03-23T10:33:52Z</time>
      </trkpt>
      <trkpt lat="44.74175" lon="6.86597">
        <ele>2475.3</ele>
        <time>2026-03-23T10:33:53Z</time>
      </trkpt>
      <trkpt lat="44.74175" lon="6.86598">
        <ele>2475.3</ele>
        <time>2026-03-23T10:33:54Z</time>
      </trkpt>
      <trkpt lat="44.74175" lon="6.86598">
        <ele>2475.3</ele>
        <time>2026-03-23T10:33:55Z</time>
      </trkpt>
      <trkpt lat="44.74174" lon="6.86599">
        <ele>2476.4</ele>
        <time>2026-03-23T10:33:56Z</time>
      </trkpt>
      <trkpt lat="44.74174" lon="6.86599">
        <ele>2476.4</ele>
        <time>2026-03-23T10:33:57Z</time>
      </trkpt>
      <trkpt lat="44.74174" lon="6.866">
        <ele>2476.4</ele>
        <time>2026-03-23T10:33:58Z</time>
      </trkpt>
      <trkpt lat="44.74174" lon="6.86601">
        <ele>2476.4</ele>
        <time>2026-03-23T10:33:59Z</time>
      </trkpt>
      <trkpt lat="44.74174" lon="6.86602">
        <ele>2476.4</ele>
        <time>2026-03-23T10:34:00Z</time>
      </trkpt>
      <trkpt lat="44.74174" lon="6.86603">
        <ele>2477.5</ele>
        <time>2026-03-23T10:34:01Z</time>
      </trkpt>
      <trkpt lat="44.74174" lon="6.86604">
        <ele>2477.5</ele>
        <time>2026-03-23T10:34:02Z</time>
      </trkpt>
      <trkpt lat="44.74174" lon="6.86605">
        <ele>2477.5</ele>
        <time>2026-03-23T10:34:03Z</time>
      </trkpt>
      <trkpt lat="44.74174" lon="6.86606">
        <ele>2477.5</ele>
        <time>2026-03-23T10:34:04Z</time>
      </trkpt>
      <trkpt lat="44.74174" lon="6.86607">
        <ele>2477.5</ele>
        <time>2026-03-23T10:34:05Z</time>
      </trkpt>
      <trkpt lat="44.74174" lon="6.86608">
        <ele>2478.7</ele>
        <time>2026-03-23T10:34:06Z</time>
      </trkpt>
      <trkpt lat="44.74174" lon="6.86608">
        <ele>2478.7</ele>
        <time>2026-03-23T10:34:07Z</time>
      </trkpt>
      <trkpt lat="44.74174" lon="6.86609">
        <ele>2478.7</ele>
        <time>2026-03-23T10:34:08Z</time>
      </trkpt>
      <trkpt lat="44.74174" lon="6.86609">
        <ele>2478.7</ele>
        <time>2026-03-23T10:34:09Z</time>
      </trkpt>
      <trkpt lat="44.74173" lon="6.86609">
        <ele>2478</ele>
        <time>2026-03-23T10:34:10Z</time>
      </trkpt>
      <trkpt lat="44.74173" lon="6.86609">
        <ele>2478</ele>
        <time>2026-03-23T10:34:11Z</time>
      </trkpt>
      <trkpt lat="44.74174" lon="6.86609">
        <ele>2478.7</ele>
        <time>2026-03-23T10:34:12Z</time>
      </trkpt>
      <trkpt lat="44.74173" lon="6.86609">
        <ele>2478</ele>
        <time>2026-03-23T10:34:13Z</time>
      </trkpt>
      <trkpt lat="44.74173" lon="6.8661">
        <ele>2478</ele>
        <time>2026-03-23T10:34:14Z</time>
      </trkpt>
      <trkpt lat="44.74173" lon="6.8661">
        <ele>2478.1</ele>
        <time>2026-03-23T10:34:15Z</time>
      </trkpt>
      <trkpt lat="44.74173" lon="6.86611">
        <ele>2478.1</ele>
        <time>2026-03-23T10:34:16Z</time>
      </trkpt>
      <trkpt lat="44.74173" lon="6.86612">
        <ele>2479.2</ele>
        <time>2026-03-23T10:34:17Z</time>
      </trkpt>
      <trkpt lat="44.74173" lon="6.86612">
        <ele>2479.2</ele>
        <time>2026-03-23T10:34:18Z</time>
      </trkpt>
      <trkpt lat="44.74173" lon="6.86613">
        <ele>2479.2</ele>
        <time>2026-03-23T10:34:19Z</time>
      </trkpt>
      <trkpt lat="44.74173" lon="6.86613">
        <ele>2479.2</ele>
        <time>2026-03-23T10:34:20Z</time>
      </trkpt>
      <trkpt lat="44.74173" lon="6.86614">
        <ele>2479.2</ele>
        <time>2026-03-23T10:34:21Z</time>
      </trkpt>
      <trkpt lat="44.74173" lon="6.86614">
        <ele>2479.2</ele>
        <time>2026-03-23T10:34:22Z</time>
      </trkpt>
      <trkpt lat="44.74173" lon="6.86615">
        <ele>2479.2</ele>
        <time>2026-03-23T10:34:23Z</time>
      </trkpt>
      <trkpt lat="44.74173" lon="6.86616">
        <ele>2480.4</ele>
        <time>2026-03-23T10:34:24Z</time>
      </trkpt>
      <trkpt lat="44.74172" lon="6.86615">
        <ele>2479.3</ele>
        <time>2026-03-23T10:34:25Z</time>
      </trkpt>
      <trkpt lat="44.74172" lon="6.86614">
        <ele>2479.3</ele>
        <time>2026-03-23T10:34:26Z</time>
      </trkpt>
      <trkpt lat="44.74171" lon="6.86614">
        <ele>2479.3</ele>
        <time>2026-03-23T10:34:27Z</time>
      </trkpt>
      <trkpt lat="44.7417" lon="6.86613">
        <ele>2478.5</ele>
        <time>2026-03-23T10:34:28Z</time>
      </trkpt>
      <trkpt lat="44.7417" lon="6.86613">
        <ele>2478.5</ele>
        <time>2026-03-23T10:34:29Z</time>
      </trkpt>
      <trkpt lat="44.74169" lon="6.86612">
        <ele>2478.5</ele>
        <time>2026-03-23T10:34:30Z</time>
      </trkpt>
      <trkpt lat="44.74168" lon="6.86612">
        <ele>2478.5</ele>
        <time>2026-03-23T10:34:31Z</time>
      </trkpt>
      <trkpt lat="44.74167" lon="6.86611">
        <ele>2477.8</ele>
        <time>2026-03-23T10:34:32Z</time>
      </trkpt>
      <trkpt lat="44.74167" lon="6.86611">
        <ele>2476.6</ele>
        <time>2026-03-23T10:34:33Z</time>
      </trkpt>
      <trkpt lat="44.74166" lon="6.86609">
        <ele>2476.7</ele>
        <time>2026-03-23T10:34:34Z</time>
      </trkpt>
      <trkpt lat="44.74165" lon="6.86607">
        <ele>2476.7</ele>
        <time>2026-03-23T10:34:35Z</time>
      </trkpt>
      <trkpt lat="44.74164" lon="6.86606">
        <ele>2474.8</ele>
        <time>2026-03-23T10:34:36Z</time>
      </trkpt>
      <trkpt lat="44.74163" lon="6.86605">
        <ele>2474.8</ele>
        <time>2026-03-23T10:34:37Z</time>
      </trkpt>
      <trkpt lat="44.74162" lon="6.86604">
        <ele>2474.8</ele>
        <time>2026-03-23T10:34:38Z</time>
      </trkpt>
      <trkpt lat="44.74162" lon="6.86604">
        <ele>2474.8</ele>
        <time>2026-03-23T10:34:39Z</time>
      </trkpt>
      <trkpt lat="44.74161" lon="6.86604">
        <ele>2474</ele>
        <time>2026-03-23T10:34:40Z</time>
      </trkpt>
      <trkpt lat="44.74161" lon="6.86604">
        <ele>2474</ele>
        <time>2026-03-23T10:34:41Z</time>
      </trkpt>
      <trkpt lat="44.7416" lon="6.86604">
        <ele>2474</ele>
        <time>2026-03-23T10:34:42Z</time>
      </trkpt>
      <trkpt lat="44.7416" lon="6.86603">
        <ele>2474</ele>
        <time>2026-03-23T10:34:43Z</time>
      </trkpt>
      <trkpt lat="44.74159" lon="6.86603">
        <ele>2474</ele>
        <time>2026-03-23T10:34:44Z</time>
      </trkpt>
      <trkpt lat="44.74159" lon="6.86602">
        <ele>2473</ele>
        <time>2026-03-23T10:34:45Z</time>
      </trkpt>
      <trkpt lat="44.74159" lon="6.86602">
        <ele>2473</ele>
        <time>2026-03-23T10:34:46Z</time>
      </trkpt>
      <trkpt lat="44.74158" lon="6.86601">
        <ele>2473</ele>
        <time>2026-03-23T10:34:47Z</time>
      </trkpt>
      <trkpt lat="44.74158" lon="6.86601">
        <ele>2473</ele>
        <time>2026-03-23T10:34:48Z</time>
      </trkpt>
      <trkpt lat="44.74158" lon="6.86601">
        <ele>2472.3</ele>
        <time>2026-03-23T10:34:49Z</time>
      </trkpt>
      <trkpt lat="44.74159" lon="6.866">
        <ele>2473</ele>
        <time>2026-03-23T10:34:50Z</time>
      </trkpt>
      <trkpt lat="44.74158" lon="6.866">
        <ele>2472.3</ele>
        <time>2026-03-23T10:34:51Z</time>
      </trkpt>
      <trkpt lat="44.74157" lon="6.86601">
        <ele>2472.3</ele>
        <time>2026-03-23T10:34:52Z</time>
      </trkpt>
      <trkpt lat="44.74156" lon="6.86601">
        <ele>2472.3</ele>
        <time>2026-03-23T10:34:53Z</time>
      </trkpt>
      <trkpt lat="44.74155" lon="6.86601">
        <ele>2472.3</ele>
        <time>2026-03-23T10:34:54Z</time>
      </trkpt>
      <trkpt lat="44.74155" lon="6.86602">
        <ele>2471.6</ele>
        <time>2026-03-23T10:34:55Z</time>
      </trkpt>
      <trkpt lat="44.74154" lon="6.86602">
        <ele>2471.6</ele>
        <time>2026-03-23T10:34:56Z</time>
      </trkpt>
      <trkpt lat="44.74154" lon="6.86602">
        <ele>2471.6</ele>
        <time>2026-03-23T10:34:57Z</time>
      </trkpt>
      <trkpt lat="44.74153" lon="6.86602">
        <ele>2471.6</ele>
        <time>2026-03-23T10:34:58Z</time>
      </trkpt>
      <trkpt lat="44.74153" lon="6.86603">
        <ele>2472.6</ele>
        <time>2026-03-23T10:34:59Z</time>
      </trkpt>
      <trkpt lat="44.74152" lon="6.86603">
        <ele>2472.6</ele>
        <time>2026-03-23T10:35:00Z</time>
      </trkpt>
      <trkpt lat="44.74152" lon="6.86604">
        <ele>2471.9</ele>
        <time>2026-03-23T10:35:01Z</time>
      </trkpt>
      <trkpt lat="44.74151" lon="6.86604">
        <ele>2472</ele>
        <time>2026-03-23T10:35:02Z</time>
      </trkpt>
      <trkpt lat="44.74151" lon="6.86605">
        <ele>2472</ele>
        <time>2026-03-23T10:35:03Z</time>
      </trkpt>
      <trkpt lat="44.74151" lon="6.86604">
        <ele>2472</ele>
        <time>2026-03-23T10:35:04Z</time>
      </trkpt>
      <trkpt lat="44.7415" lon="6.86605">
        <ele>2472</ele>
        <time>2026-03-23T10:35:05Z</time>
      </trkpt>
      <trkpt lat="44.7415" lon="6.86605">
        <ele>2472</ele>
        <time>2026-03-23T10:35:06Z</time>
      </trkpt>
      <trkpt lat="44.7415" lon="6.86605">
        <ele>2472</ele>
        <time>2026-03-23T10:35:07Z</time>
      </trkpt>
      <trkpt lat="44.7415" lon="6.86605">
        <ele>2472</ele>
        <time>2026-03-23T10:35:08Z</time>
      </trkpt>
      <trkpt lat="44.74149" lon="6.86606">
        <ele>2472</ele>
        <time>2026-03-23T10:35:09Z</time>
      </trkpt>
      <trkpt lat="44.74149" lon="6.86607">
        <ele>2471.3</ele>
        <time>2026-03-23T10:35:10Z</time>
      </trkpt>
      <trkpt lat="44.74148" lon="6.86608">
        <ele>2472.3</ele>
        <time>2026-03-23T10:35:11Z</time>
      </trkpt>
      <trkpt lat="44.74148" lon="6.86609">
        <ele>2472.3</ele>
        <time>2026-03-23T10:35:12Z</time>
      </trkpt>
      <trkpt lat="44.74148" lon="6.86609">
        <ele>2472.4</ele>
        <time>2026-03-23T10:35:13Z</time>
      </trkpt>
      <trkpt lat="44.74147" lon="6.8661">
        <ele>2472.4</ele>
        <time>2026-03-23T10:35:14Z</time>
      </trkpt>
      <trkpt lat="44.74147" lon="6.86611">
        <ele>2472.4</ele>
        <time>2026-03-23T10:35:15Z</time>
      </trkpt>
      <trkpt lat="44.74146" lon="6.86611">
        <ele>2471.7</ele>
        <time>2026-03-23T10:35:16Z</time>
      </trkpt>
      <trkpt lat="44.74145" lon="6.86612">
        <ele>2472.7</ele>
        <time>2026-03-23T10:35:17Z</time>
      </trkpt>
      <trkpt lat="44.74145" lon="6.86612">
        <ele>2472.7</ele>
        <time>2026-03-23T10:35:18Z</time>
      </trkpt>
      <trkpt lat="44.74145" lon="6.86613">
        <ele>2472.7</ele>
        <time>2026-03-23T10:35:19Z</time>
      </trkpt>
      <trkpt lat="44.74145" lon="6.86612">
        <ele>2472.7</ele>
        <time>2026-03-23T10:35:20Z</time>
      </trkpt>
      <trkpt lat="44.74145" lon="6.86613">
        <ele>2472.7</ele>
        <time>2026-03-23T10:35:21Z</time>
      </trkpt>
      <trkpt lat="44.74145" lon="6.86613">
        <ele>2472.7</ele>
        <time>2026-03-23T10:35:22Z</time>
      </trkpt>
      <trkpt lat="44.74145" lon="6.86614">
        <ele>2472.7</ele>
        <time>2026-03-23T10:35:23Z</time>
      </trkpt>
      <trkpt lat="44.74145" lon="6.86614">
        <ele>2472.7</ele>
        <time>2026-03-23T10:35:24Z</time>
      </trkpt>
      <trkpt lat="44.74144" lon="6.86614">
        <ele>2472.7</ele>
        <time>2026-03-23T10:35:25Z</time>
      </trkpt>
      <trkpt lat="44.74144" lon="6.86615">
        <ele>2472.7</ele>
        <time>2026-03-23T10:35:26Z</time>
      </trkpt>
      <trkpt lat="44.74145" lon="6.86614">
        <ele>2472.7</ele>
        <time>2026-03-23T10:35:27Z</time>
      </trkpt>
      <trkpt lat="44.74145" lon="6.86615">
        <ele>2472.7</ele>
        <time>2026-03-23T10:35:28Z</time>
      </trkpt>
      <trkpt lat="44.74144" lon="6.86615">
        <ele>2472.7</ele>
        <time>2026-03-23T10:35:29Z</time>
      </trkpt>
      <trkpt lat="44.74144" lon="6.86616">
        <ele>2473.7</ele>
        <time>2026-03-23T10:35:30Z</time>
      </trkpt>
      <trkpt lat="44.74144" lon="6.86616">
        <ele>2473.7</ele>
        <time>2026-03-23T10:35:31Z</time>
      </trkpt>
      <trkpt lat="44.74144" lon="6.86617">
        <ele>2473.7</ele>
        <time>2026-03-23T10:35:32Z</time>
      </trkpt>
      <trkpt lat="44.74144" lon="6.86618">
        <ele>2473.7</ele>
        <time>2026-03-23T10:35:33Z</time>
      </trkpt>
      <trkpt lat="44.74144" lon="6.86618">
        <ele>2473.8</ele>
        <time>2026-03-23T10:35:34Z</time>
      </trkpt>
      <trkpt lat="44.74144" lon="6.86619">
        <ele>2473.8</ele>
        <time>2026-03-23T10:35:35Z</time>
      </trkpt>
      <trkpt lat="44.74144" lon="6.86619">
        <ele>2473.8</ele>
        <time>2026-03-23T10:35:36Z</time>
      </trkpt>
      <trkpt lat="44.74144" lon="6.86621">
        <ele>2474.7</ele>
        <time>2026-03-23T10:35:37Z</time>
      </trkpt>
      <trkpt lat="44.74143" lon="6.86621">
        <ele>2474.7</ele>
        <time>2026-03-23T10:35:38Z</time>
      </trkpt>
      <trkpt lat="44.74143" lon="6.86622">
        <ele>2473.9</ele>
        <time>2026-03-23T10:35:39Z</time>
      </trkpt>
      <trkpt lat="44.74143" lon="6.86622">
        <ele>2474.7</ele>
        <time>2026-03-23T10:35:40Z</time>
      </trkpt>
      <trkpt lat="44.74143" lon="6.86623">
        <ele>2474.7</ele>
        <time>2026-03-23T10:35:41Z</time>
      </trkpt>
      <trkpt lat="44.74143" lon="6.86624">
        <ele>2474.7</ele>
        <time>2026-03-23T10:35:42Z</time>
      </trkpt>
      <trkpt lat="44.74144" lon="6.86625">
        <ele>2475.5</ele>
        <time>2026-03-23T10:35:43Z</time>
      </trkpt>
      <trkpt lat="44.74144" lon="6.86625">
        <ele>2475.5</ele>
        <time>2026-03-23T10:35:44Z</time>
      </trkpt>
      <trkpt lat="44.74144" lon="6.86625">
        <ele>2475.5</ele>
        <time>2026-03-23T10:35:45Z</time>
      </trkpt>
      <trkpt lat="44.74144" lon="6.86626">
        <ele>2475.5</ele>
        <time>2026-03-23T10:35:46Z</time>
      </trkpt>
      <trkpt lat="44.74145" lon="6.86626">
        <ele>2475.6</ele>
        <time>2026-03-23T10:35:47Z</time>
      </trkpt>
      <trkpt lat="44.74145" lon="6.86627">
        <ele>2475.6</ele>
        <time>2026-03-23T10:35:48Z</time>
      </trkpt>
      <trkpt lat="44.74146" lon="6.86627">
        <ele>2475.6</ele>
        <time>2026-03-23T10:35:49Z</time>
      </trkpt>
      <trkpt lat="44.74146" lon="6.86628">
        <ele>2475.6</ele>
        <time>2026-03-23T10:35:50Z</time>
      </trkpt>
      <trkpt lat="44.74146" lon="6.86628">
        <ele>2475.6</ele>
        <time>2026-03-23T10:35:51Z</time>
      </trkpt>
      <trkpt lat="44.74146" lon="6.86629">
        <ele>2477.1</ele>
        <time>2026-03-23T10:35:52Z</time>
      </trkpt>
      <trkpt lat="44.74146" lon="6.86629">
        <ele>2477.1</ele>
        <time>2026-03-23T10:35:53Z</time>
      </trkpt>
      <trkpt lat="44.74146" lon="6.8663">
        <ele>2476.3</ele>
        <time>2026-03-23T10:35:54Z</time>
      </trkpt>
      <trkpt lat="44.74147" lon="6.8663">
        <ele>2477.1</ele>
        <time>2026-03-23T10:35:55Z</time>
      </trkpt>
      <trkpt lat="44.74147" lon="6.86631">
        <ele>2477.1</ele>
        <time>2026-03-23T10:35:56Z</time>
      </trkpt>
      <trkpt lat="44.74147" lon="6.86631">
        <ele>2477.1</ele>
        <time>2026-03-23T10:35:57Z</time>
      </trkpt>
      <trkpt lat="44.74147" lon="6.86632">
        <ele>2477.2</ele>
        <time>2026-03-23T10:35:58Z</time>
      </trkpt>
      <trkpt lat="44.74147" lon="6.86633">
        <ele>2477.2</ele>
        <time>2026-03-23T10:35:59Z</time>
      </trkpt>
      <trkpt lat="44.74147" lon="6.86633">
        <ele>2477.9</ele>
        <time>2026-03-23T10:36:00Z</time>
      </trkpt>
      <trkpt lat="44.74146" lon="6.86634">
        <ele>2477.1</ele>
        <time>2026-03-23T10:36:01Z</time>
      </trkpt>
      <trkpt lat="44.74146" lon="6.86635">
        <ele>2477.1</ele>
        <time>2026-03-23T10:36:02Z</time>
      </trkpt>
      <trkpt lat="44.74146" lon="6.86635">
        <ele>2477.1</ele>
        <time>2026-03-23T10:36:03Z</time>
      </trkpt>
      <trkpt lat="44.74146" lon="6.86635">
        <ele>2477.1</ele>
        <time>2026-03-23T10:36:04Z</time>
      </trkpt>
      <trkpt lat="44.74146" lon="6.86635">
        <ele>2477.9</ele>
        <time>2026-03-23T10:36:05Z</time>
      </trkpt>
      <trkpt lat="44.74147" lon="6.86636">
        <ele>2477.9</ele>
        <time>2026-03-23T10:36:06Z</time>
      </trkpt>
      <trkpt lat="44.74148" lon="6.86637">
        <ele>2477.9</ele>
        <time>2026-03-23T10:36:07Z</time>
      </trkpt>
      <trkpt lat="44.74149" lon="6.86637">
        <ele>2477.9</ele>
        <time>2026-03-23T10:36:08Z</time>
      </trkpt>
      <trkpt lat="44.74149" lon="6.86637">
        <ele>2478.7</ele>
        <time>2026-03-23T10:36:09Z</time>
      </trkpt>
      <trkpt lat="44.7415" lon="6.86637">
        <ele>2479.4</ele>
        <time>2026-03-23T10:36:10Z</time>
      </trkpt>
      <trkpt lat="44.74149" lon="6.86638">
        <ele>2479.4</ele>
        <time>2026-03-23T10:36:11Z</time>
      </trkpt>
      <trkpt lat="44.74149" lon="6.86638">
        <ele>2479.5</ele>
        <time>2026-03-23T10:36:12Z</time>
      </trkpt>
      <trkpt lat="44.74149" lon="6.86639">
        <ele>2478.7</ele>
        <time>2026-03-23T10:36:13Z</time>
      </trkpt>
      <trkpt lat="44.7415" lon="6.86639">
        <ele>2479.5</ele>
        <time>2026-03-23T10:36:14Z</time>
      </trkpt>
      <trkpt lat="44.7415" lon="6.8664">
        <ele>2479.5</ele>
        <time>2026-03-23T10:36:15Z</time>
      </trkpt>
      <trkpt lat="44.74151" lon="6.86641">
        <ele>2479.5</ele>
        <time>2026-03-23T10:36:16Z</time>
      </trkpt>
      <trkpt lat="44.74151" lon="6.86641">
        <ele>2480.2</ele>
        <time>2026-03-23T10:36:17Z</time>
      </trkpt>
      <trkpt lat="44.74151" lon="6.86642">
        <ele>2480.2</ele>
        <time>2026-03-23T10:36:18Z</time>
      </trkpt>
      <trkpt lat="44.74152" lon="6.86642">
        <ele>2480.2</ele>
        <time>2026-03-23T10:36:19Z</time>
      </trkpt>
      <trkpt lat="44.74152" lon="6.86643">
        <ele>2480.2</ele>
        <time>2026-03-23T10:36:20Z</time>
      </trkpt>
      <trkpt lat="44.74152" lon="6.86643">
        <ele>2480.2</ele>
        <time>2026-03-23T10:36:21Z</time>
      </trkpt>
      <trkpt lat="44.74152" lon="6.86643">
        <ele>2480.2</ele>
        <time>2026-03-23T10:36:22Z</time>
      </trkpt>
      <trkpt lat="44.74151" lon="6.86644">
        <ele>2480.3</ele>
        <time>2026-03-23T10:36:23Z</time>
      </trkpt>
      <trkpt lat="44.74151" lon="6.86644">
        <ele>2480.3</ele>
        <time>2026-03-23T10:36:24Z</time>
      </trkpt>
      <trkpt lat="44.74151" lon="6.86644">
        <ele>2480.3</ele>
        <time>2026-03-23T10:36:25Z</time>
      </trkpt>
      <trkpt lat="44.7415" lon="6.86644">
        <ele>2480.3</ele>
        <time>2026-03-23T10:36:26Z</time>
      </trkpt>
      <trkpt lat="44.7415" lon="6.86645">
        <ele>2480.3</ele>
        <time>2026-03-23T10:36:27Z</time>
      </trkpt>
      <trkpt lat="44.74149" lon="6.86645">
        <ele>2480.3</ele>
        <time>2026-03-23T10:36:28Z</time>
      </trkpt>
      <trkpt lat="44.74149" lon="6.86646">
        <ele>2480.7</ele>
        <time>2026-03-23T10:36:29Z</time>
      </trkpt>
      <trkpt lat="44.74149" lon="6.86646">
        <ele>2481.5</ele>
        <time>2026-03-23T10:36:30Z</time>
      </trkpt>
      <trkpt lat="44.7415" lon="6.86647">
        <ele>2481.5</ele>
        <time>2026-03-23T10:36:31Z</time>
      </trkpt>
      <trkpt lat="44.7415" lon="6.86648">
        <ele>2481.5</ele>
        <time>2026-03-23T10:36:32Z</time>
      </trkpt>
      <trkpt lat="44.7415" lon="6.86648">
        <ele>2481.5</ele>
        <time>2026-03-23T10:36:33Z</time>
      </trkpt>
      <trkpt lat="44.74151" lon="6.86649">
        <ele>2481.5</ele>
        <time>2026-03-23T10:36:34Z</time>
      </trkpt>
      <trkpt lat="44.74151" lon="6.86649">
        <ele>2481.6</ele>
        <time>2026-03-23T10:36:35Z</time>
      </trkpt>
      <trkpt lat="44.74151" lon="6.8665">
        <ele>2481.6</ele>
        <time>2026-03-23T10:36:36Z</time>
      </trkpt>
      <trkpt lat="44.74151" lon="6.8665">
        <ele>2482.4</ele>
        <time>2026-03-23T10:36:37Z</time>
      </trkpt>
      <trkpt lat="44.74151" lon="6.86651">
        <ele>2482.4</ele>
        <time>2026-03-23T10:36:38Z</time>
      </trkpt>
      <trkpt lat="44.74152" lon="6.86651">
        <ele>2482.4</ele>
        <time>2026-03-23T10:36:39Z</time>
      </trkpt>
      <trkpt lat="44.74152" lon="6.86652">
        <ele>2483.3</ele>
        <time>2026-03-23T10:36:40Z</time>
      </trkpt>
      <trkpt lat="44.74153" lon="6.86652">
        <ele>2483.3</ele>
        <time>2026-03-23T10:36:41Z</time>
      </trkpt>
      <trkpt lat="44.74153" lon="6.86653">
        <ele>2483.3</ele>
        <time>2026-03-23T10:36:42Z</time>
      </trkpt>
      <trkpt lat="44.74154" lon="6.86653">
        <ele>2483.3</ele>
        <time>2026-03-23T10:36:43Z</time>
      </trkpt>
      <trkpt lat="44.74154" lon="6.86654">
        <ele>2483.3</ele>
        <time>2026-03-23T10:36:44Z</time>
      </trkpt>
      <trkpt lat="44.74154" lon="6.86654">
        <ele>2483.3</ele>
        <time>2026-03-23T10:36:45Z</time>
      </trkpt>
      <trkpt lat="44.74155" lon="6.86654">
        <ele>2484.2</ele>
        <time>2026-03-23T10:36:46Z</time>
      </trkpt>
      <trkpt lat="44.74155" lon="6.86655">
        <ele>2484.2</ele>
        <time>2026-03-23T10:36:47Z</time>
      </trkpt>
      <trkpt lat="44.74155" lon="6.86655">
        <ele>2485.1</ele>
        <time>2026-03-23T10:36:48Z</time>
      </trkpt>
      <trkpt lat="44.74156" lon="6.86656">
        <ele>2485.1</ele>
        <time>2026-03-23T10:36:49Z</time>
      </trkpt>
      <trkpt lat="44.74157" lon="6.86656">
        <ele>2485.1</ele>
        <time>2026-03-23T10:36:50Z</time>
      </trkpt>
      <trkpt lat="44.74158" lon="6.86657">
        <ele>2485.2</ele>
        <time>2026-03-23T10:36:51Z</time>
      </trkpt>
      <trkpt lat="44.74158" lon="6.86657">
        <ele>2485.2</ele>
        <time>2026-03-23T10:36:52Z</time>
      </trkpt>
      <trkpt lat="44.74158" lon="6.86657">
        <ele>2485.2</ele>
        <time>2026-03-23T10:36:53Z</time>
      </trkpt>
      <trkpt lat="44.74158" lon="6.86658">
        <ele>2485.2</ele>
        <time>2026-03-23T10:36:54Z</time>
      </trkpt>
      <trkpt lat="44.74158" lon="6.86658">
        <ele>2485.2</ele>
        <time>2026-03-23T10:36:55Z</time>
      </trkpt>
      <trkpt lat="44.74158" lon="6.86659">
        <ele>2486.1</ele>
        <time>2026-03-23T10:36:56Z</time>
      </trkpt>
      <trkpt lat="44.74158" lon="6.86659">
        <ele>2486.1</ele>
        <time>2026-03-23T10:36:57Z</time>
      </trkpt>
      <trkpt lat="44.74159" lon="6.8666">
        <ele>2487.2</ele>
        <time>2026-03-23T10:36:58Z</time>
      </trkpt>
      <trkpt lat="44.74159" lon="6.8666">
        <ele>2487.2</ele>
        <time>2026-03-23T10:36:59Z</time>
      </trkpt>
      <trkpt lat="44.74159" lon="6.8666">
        <ele>2487.2</ele>
        <time>2026-03-23T10:37:00Z</time>
      </trkpt>
      <trkpt lat="44.74159" lon="6.8666">
        <ele>2487.2</ele>
        <time>2026-03-23T10:37:01Z</time>
      </trkpt>
      <trkpt lat="44.7416" lon="6.86661">
        <ele>2487.2</ele>
        <time>2026-03-23T10:37:02Z</time>
      </trkpt>
      <trkpt lat="44.7416" lon="6.86661">
        <ele>2487.2</ele>
        <time>2026-03-23T10:37:03Z</time>
      </trkpt>
      <trkpt lat="44.74161" lon="6.86661">
        <ele>2487.2</ele>
        <time>2026-03-23T10:37:04Z</time>
      </trkpt>
      <trkpt lat="44.74161" lon="6.86662">
        <ele>2487.2</ele>
        <time>2026-03-23T10:37:05Z</time>
      </trkpt>
      <trkpt lat="44.74162" lon="6.86661">
        <ele>2488.3</ele>
        <time>2026-03-23T10:37:06Z</time>
      </trkpt>
      <trkpt lat="44.74162" lon="6.86662">
        <ele>2488.3</ele>
        <time>2026-03-23T10:37:07Z</time>
      </trkpt>
      <trkpt lat="44.74162" lon="6.86662">
        <ele>2488.3</ele>
        <time>2026-03-23T10:37:08Z</time>
      </trkpt>
      <trkpt lat="44.74163" lon="6.86663">
        <ele>2489.3</ele>
        <time>2026-03-23T10:37:09Z</time>
      </trkpt>
      <trkpt lat="44.74163" lon="6.86663">
        <ele>2489.3</ele>
        <time>2026-03-23T10:37:10Z</time>
      </trkpt>
      <trkpt lat="44.74163" lon="6.86663">
        <ele>2489.3</ele>
        <time>2026-03-23T10:37:11Z</time>
      </trkpt>
      <trkpt lat="44.74163" lon="6.86664">
        <ele>2489.3</ele>
        <time>2026-03-23T10:37:12Z</time>
      </trkpt>
      <trkpt lat="44.74163" lon="6.86664">
        <ele>2489.3</ele>
        <time>2026-03-23T10:37:13Z</time>
      </trkpt>
      <trkpt lat="44.74164" lon="6.86664">
        <ele>2489.3</ele>
        <time>2026-03-23T10:37:14Z</time>
      </trkpt>
      <trkpt lat="44.74164" lon="6.86664">
        <ele>2489.3</ele>
        <time>2026-03-23T10:37:15Z</time>
      </trkpt>
      <trkpt lat="44.74163" lon="6.86664">
        <ele>2489.3</ele>
        <time>2026-03-23T10:37:16Z</time>
      </trkpt>
      <trkpt lat="44.74163" lon="6.86664">
        <ele>2489.3</ele>
        <time>2026-03-23T10:37:17Z</time>
      </trkpt>
      <trkpt lat="44.74164" lon="6.86665">
        <ele>2489.3</ele>
        <time>2026-03-23T10:37:18Z</time>
      </trkpt>
      <trkpt lat="44.74164" lon="6.86665">
        <ele>2489.3</ele>
        <time>2026-03-23T10:37:19Z</time>
      </trkpt>
      <trkpt lat="44.74164" lon="6.86665">
        <ele>2489.3</ele>
        <time>2026-03-23T10:37:20Z</time>
      </trkpt>
      <trkpt lat="44.74164" lon="6.86665">
        <ele>2489.3</ele>
        <time>2026-03-23T10:37:21Z</time>
      </trkpt>
      <trkpt lat="44.74164" lon="6.86666">
        <ele>2489.3</ele>
        <time>2026-03-23T10:37:22Z</time>
      </trkpt>
      <trkpt lat="44.74164" lon="6.86666">
        <ele>2489.4</ele>
        <time>2026-03-23T10:37:23Z</time>
      </trkpt>
      <trkpt lat="44.74163" lon="6.86666">
        <ele>2489.4</ele>
        <time>2026-03-23T10:37:24Z</time>
      </trkpt>
      <trkpt lat="44.74163" lon="6.86667">
        <ele>2489.4</ele>
        <time>2026-03-23T10:37:25Z</time>
      </trkpt>
      <trkpt lat="44.74163" lon="6.86667">
        <ele>2490.3</ele>
        <time>2026-03-23T10:37:26Z</time>
      </trkpt>
      <trkpt lat="44.74163" lon="6.86668">
        <ele>2490.3</ele>
        <time>2026-03-23T10:37:27Z</time>
      </trkpt>
      <trkpt lat="44.74163" lon="6.86668">
        <ele>2490.4</ele>
        <time>2026-03-23T10:37:28Z</time>
      </trkpt>
      <trkpt lat="44.74162" lon="6.86667">
        <ele>2490.4</ele>
        <time>2026-03-23T10:37:29Z</time>
      </trkpt>
      <trkpt lat="44.74162" lon="6.86667">
        <ele>2490.4</ele>
        <time>2026-03-23T10:37:30Z</time>
      </trkpt>
      <trkpt lat="44.74162" lon="6.86667">
        <ele>2490.4</ele>
        <time>2026-03-23T10:37:31Z</time>
      </trkpt>
      <trkpt lat="44.74162" lon="6.86668">
        <ele>2490.4</ele>
        <time>2026-03-23T10:37:32Z</time>
      </trkpt>
      <trkpt lat="44.74161" lon="6.86668">
        <ele>2490.4</ele>
        <time>2026-03-23T10:37:33Z</time>
      </trkpt>
      <trkpt lat="44.74161" lon="6.86669">
        <ele>2489.3</ele>
        <time>2026-03-23T10:37:34Z</time>
      </trkpt>
      <trkpt lat="44.74161" lon="6.86669">
        <ele>2489.3</ele>
        <time>2026-03-23T10:37:35Z</time>
      </trkpt>
      <trkpt lat="44.74161" lon="6.8667">
        <ele>2489.3</ele>
        <time>2026-03-23T10:37:36Z</time>
      </trkpt>
      <trkpt lat="44.7416" lon="6.86671">
        <ele>2489.3</ele>
        <time>2026-03-23T10:37:37Z</time>
      </trkpt>
      <trkpt lat="44.7416" lon="6.86671">
        <ele>2489.3</ele>
        <time>2026-03-23T10:37:38Z</time>
      </trkpt>
      <trkpt lat="44.7416" lon="6.86672">
        <ele>2490.3</ele>
        <time>2026-03-23T10:37:39Z</time>
      </trkpt>
      <trkpt lat="44.7416" lon="6.86672">
        <ele>2490.3</ele>
        <time>2026-03-23T10:37:40Z</time>
      </trkpt>
      <trkpt lat="44.7416" lon="6.86673">
        <ele>2490.3</ele>
        <time>2026-03-23T10:37:41Z</time>
      </trkpt>
      <trkpt lat="44.7416" lon="6.86673">
        <ele>2490.3</ele>
        <time>2026-03-23T10:37:42Z</time>
      </trkpt>
      <trkpt lat="44.7416" lon="6.86674">
        <ele>2490.3</ele>
        <time>2026-03-23T10:37:43Z</time>
      </trkpt>
      <trkpt lat="44.7416" lon="6.86675">
        <ele>2490.3</ele>
        <time>2026-03-23T10:37:44Z</time>
      </trkpt>
      <trkpt lat="44.7416" lon="6.86675">
        <ele>2490.3</ele>
        <time>2026-03-23T10:37:45Z</time>
      </trkpt>
      <trkpt lat="44.7416" lon="6.86676">
        <ele>2491.2</ele>
        <time>2026-03-23T10:37:46Z</time>
      </trkpt>
      <trkpt lat="44.7416" lon="6.86676">
        <ele>2491.3</ele>
        <time>2026-03-23T10:37:47Z</time>
      </trkpt>
      <trkpt lat="44.7416" lon="6.86677">
        <ele>2491.3</ele>
        <time>2026-03-23T10:37:48Z</time>
      </trkpt>
      <trkpt lat="44.7416" lon="6.86677">
        <ele>2491.3</ele>
        <time>2026-03-23T10:37:49Z</time>
      </trkpt>
      <trkpt lat="44.7416" lon="6.86678">
        <ele>2491.3</ele>
        <time>2026-03-23T10:37:50Z</time>
      </trkpt>
      <trkpt lat="44.7416" lon="6.86678">
        <ele>2491.3</ele>
        <time>2026-03-23T10:37:51Z</time>
      </trkpt>
      <trkpt lat="44.7416" lon="6.86679">
        <ele>2491.3</ele>
        <time>2026-03-23T10:37:52Z</time>
      </trkpt>
      <trkpt lat="44.7416" lon="6.8668">
        <ele>2491.3</ele>
        <time>2026-03-23T10:37:53Z</time>
      </trkpt>
      <trkpt lat="44.7416" lon="6.8668">
        <ele>2492.3</ele>
        <time>2026-03-23T10:37:54Z</time>
      </trkpt>
      <trkpt lat="44.7416" lon="6.86681">
        <ele>2492.3</ele>
        <time>2026-03-23T10:37:55Z</time>
      </trkpt>
      <trkpt lat="44.7416" lon="6.86682">
        <ele>2492.3</ele>
        <time>2026-03-23T10:37:56Z</time>
      </trkpt>
      <trkpt lat="44.7416" lon="6.86682">
        <ele>2492.3</ele>
        <time>2026-03-23T10:37:57Z</time>
      </trkpt>
      <trkpt lat="44.7416" lon="6.86683">
        <ele>2492.3</ele>
        <time>2026-03-23T10:37:58Z</time>
      </trkpt>
      <trkpt lat="44.74159" lon="6.86684">
        <ele>2493.3</ele>
        <time>2026-03-23T10:37:59Z</time>
      </trkpt>
      <trkpt lat="44.74159" lon="6.86685">
        <ele>2493.3</ele>
        <time>2026-03-23T10:38:00Z</time>
      </trkpt>
      <trkpt lat="44.74159" lon="6.86686">
        <ele>2493.4</ele>
        <time>2026-03-23T10:38:01Z</time>
      </trkpt>
      <trkpt lat="44.74159" lon="6.86687">
        <ele>2493.4</ele>
        <time>2026-03-23T10:38:02Z</time>
      </trkpt>
      <trkpt lat="44.74158" lon="6.86687">
        <ele>2493.4</ele>
        <time>2026-03-23T10:38:03Z</time>
      </trkpt>
      <trkpt lat="44.74158" lon="6.86688">
        <ele>2492.3</ele>
        <time>2026-03-23T10:38:04Z</time>
      </trkpt>
      <trkpt lat="44.74158" lon="6.86688">
        <ele>2493.4</ele>
        <time>2026-03-23T10:38:05Z</time>
      </trkpt>
      <trkpt lat="44.74159" lon="6.86688">
        <ele>2493.4</ele>
        <time>2026-03-23T10:38:06Z</time>
      </trkpt>
      <trkpt lat="44.74159" lon="6.86688">
        <ele>2493.4</ele>
        <time>2026-03-23T10:38:07Z</time>
      </trkpt>
      <trkpt lat="44.74159" lon="6.86688">
        <ele>2493.4</ele>
        <time>2026-03-23T10:38:08Z</time>
      </trkpt>
      <trkpt lat="44.74159" lon="6.86688">
        <ele>2493.4</ele>
        <time>2026-03-23T10:38:09Z</time>
      </trkpt>
      <trkpt lat="44.74159" lon="6.8669">
        <ele>2494.5</ele>
        <time>2026-03-23T10:38:10Z</time>
      </trkpt>
      <trkpt lat="44.74158" lon="6.86691">
        <ele>2494.6</ele>
        <time>2026-03-23T10:38:11Z</time>
      </trkpt>
      <trkpt lat="44.74158" lon="6.86691">
        <ele>2493.5</ele>
        <time>2026-03-23T10:38:12Z</time>
      </trkpt>
      <trkpt lat="44.74158" lon="6.86692">
        <ele>2493.5</ele>
        <time>2026-03-23T10:38:13Z</time>
      </trkpt>
      <trkpt lat="44.74158" lon="6.86693">
        <ele>2494.7</ele>
        <time>2026-03-23T10:38:14Z</time>
      </trkpt>
      <trkpt lat="44.74158" lon="6.86693">
        <ele>2494.7</ele>
        <time>2026-03-23T10:38:15Z</time>
      </trkpt>
      <trkpt lat="44.74157" lon="6.86694">
        <ele>2494.7</ele>
        <time>2026-03-23T10:38:16Z</time>
      </trkpt>
      <trkpt lat="44.74157" lon="6.86694">
        <ele>2494.7</ele>
        <time>2026-03-23T10:38:17Z</time>
      </trkpt>
      <trkpt lat="44.74157" lon="6.86694">
        <ele>2494.7</ele>
        <time>2026-03-23T10:38:18Z</time>
      </trkpt>
      <trkpt lat="44.74157" lon="6.86695">
        <ele>2494.7</ele>
        <time>2026-03-23T10:38:19Z</time>
      </trkpt>
      <trkpt lat="44.74157" lon="6.86695">
        <ele>2494.7</ele>
        <time>2026-03-23T10:38:20Z</time>
      </trkpt>
      <trkpt lat="44.74157" lon="6.86696">
        <ele>2494.7</ele>
        <time>2026-03-23T10:38:21Z</time>
      </trkpt>
      <trkpt lat="44.74156" lon="6.86696">
        <ele>2494.7</ele>
        <time>2026-03-23T10:38:22Z</time>
      </trkpt>
      <trkpt lat="44.74156" lon="6.86696">
        <ele>2494.7</ele>
        <time>2026-03-23T10:38:23Z</time>
      </trkpt>
      <trkpt lat="44.74156" lon="6.86697">
        <ele>2494.8</ele>
        <time>2026-03-23T10:38:24Z</time>
      </trkpt>
      <trkpt lat="44.74156" lon="6.86697">
        <ele>2496</ele>
        <time>2026-03-23T10:38:25Z</time>
      </trkpt>
      <trkpt lat="44.74156" lon="6.86698">
        <ele>2496</ele>
        <time>2026-03-23T10:38:26Z</time>
      </trkpt>
      <trkpt lat="44.74156" lon="6.86698">
        <ele>2496</ele>
        <time>2026-03-23T10:38:27Z</time>
      </trkpt>
      <trkpt lat="44.74155" lon="6.86699">
        <ele>2496</ele>
        <time>2026-03-23T10:38:28Z</time>
      </trkpt>
      <trkpt lat="44.74155" lon="6.867">
        <ele>2496</ele>
        <time>2026-03-23T10:38:29Z</time>
      </trkpt>
      <trkpt lat="44.74155" lon="6.867">
        <ele>2496</ele>
        <time>2026-03-23T10:38:30Z</time>
      </trkpt>
      <trkpt lat="44.74155" lon="6.86701">
        <ele>2495</ele>
        <time>2026-03-23T10:38:31Z</time>
      </trkpt>
      <trkpt lat="44.74154" lon="6.86701">
        <ele>2496.2</ele>
        <time>2026-03-23T10:38:32Z</time>
      </trkpt>
      <trkpt lat="44.74154" lon="6.86702">
        <ele>2496.2</ele>
        <time>2026-03-23T10:38:33Z</time>
      </trkpt>
      <trkpt lat="44.74154" lon="6.86702">
        <ele>2496.2</ele>
        <time>2026-03-23T10:38:34Z</time>
      </trkpt>
      <trkpt lat="44.74154" lon="6.86703">
        <ele>2496.3</ele>
        <time>2026-03-23T10:38:35Z</time>
      </trkpt>
      <trkpt lat="44.74154" lon="6.86704">
        <ele>2496.3</ele>
        <time>2026-03-23T10:38:36Z</time>
      </trkpt>
      <trkpt lat="44.74154" lon="6.86705">
        <ele>2496.3</ele>
        <time>2026-03-23T10:38:37Z</time>
      </trkpt>
      <trkpt lat="44.74155" lon="6.86705">
        <ele>2496.3</ele>
        <time>2026-03-23T10:38:38Z</time>
      </trkpt>
      <trkpt lat="44.74156" lon="6.86705">
        <ele>2497.3</ele>
        <time>2026-03-23T10:38:39Z</time>
      </trkpt>
      <trkpt lat="44.74156" lon="6.86706">
        <ele>2498.5</ele>
        <time>2026-03-23T10:38:40Z</time>
      </trkpt>
      <trkpt lat="44.74156" lon="6.86706">
        <ele>2497.3</ele>
        <time>2026-03-23T10:38:41Z</time>
      </trkpt>
      <trkpt lat="44.74156" lon="6.86706">
        <ele>2497.3</ele>
        <time>2026-03-23T10:38:42Z</time>
      </trkpt>
      <trkpt lat="44.74156" lon="6.86707">
        <ele>2498.5</ele>
        <time>2026-03-23T10:38:43Z</time>
      </trkpt>
      <trkpt lat="44.74156" lon="6.86708">
        <ele>2498.5</ele>
        <time>2026-03-23T10:38:44Z</time>
      </trkpt>
      <trkpt lat="44.74157" lon="6.86709">
        <ele>2498.5</ele>
        <time>2026-03-23T10:38:45Z</time>
      </trkpt>
      <trkpt lat="44.74157" lon="6.86709">
        <ele>2498.6</ele>
        <time>2026-03-23T10:38:46Z</time>
      </trkpt>
      <trkpt lat="44.74157" lon="6.8671">
        <ele>2499.7</ele>
        <time>2026-03-23T10:38:47Z</time>
      </trkpt>
      <trkpt lat="44.74157" lon="6.8671">
        <ele>2499.7</ele>
        <time>2026-03-23T10:38:48Z</time>
      </trkpt>
      <trkpt lat="44.74158" lon="6.8671">
        <ele>2499.7</ele>
        <time>2026-03-23T10:38:49Z</time>
      </trkpt>
      <trkpt lat="44.74158" lon="6.8671">
        <ele>2500.8</ele>
        <time>2026-03-23T10:38:50Z</time>
      </trkpt>
      <trkpt lat="44.74159" lon="6.8671">
        <ele>2500.8</ele>
        <time>2026-03-23T10:38:51Z</time>
      </trkpt>
      <trkpt lat="44.74159" lon="6.8671">
        <ele>2499.7</ele>
        <time>2026-03-23T10:38:52Z</time>
      </trkpt>
      <trkpt lat="44.7416" lon="6.8671">
        <ele>2499.7</ele>
        <time>2026-03-23T10:38:53Z</time>
      </trkpt>
      <trkpt lat="44.74161" lon="6.8671">
        <ele>2499.7</ele>
        <time>2026-03-23T10:38:54Z</time>
      </trkpt>
      <trkpt lat="44.74161" lon="6.8671">
        <ele>2502</ele>
        <time>2026-03-23T10:38:55Z</time>
      </trkpt>
      <trkpt lat="44.74162" lon="6.8671">
        <ele>2502</ele>
        <time>2026-03-23T10:38:56Z</time>
      </trkpt>
      <trkpt lat="44.74162" lon="6.8671">
        <ele>2502</ele>
        <time>2026-03-23T10:38:57Z</time>
      </trkpt>
      <trkpt lat="44.74163" lon="6.8671">
        <ele>2502</ele>
        <time>2026-03-23T10:38:58Z</time>
      </trkpt>
      <trkpt lat="44.74163" lon="6.8671">
        <ele>2502</ele>
        <time>2026-03-23T10:38:59Z</time>
      </trkpt>
      <trkpt lat="44.74163" lon="6.8671">
        <ele>2502</ele>
        <time>2026-03-23T10:39:00Z</time>
      </trkpt>
      <trkpt lat="44.74164" lon="6.8671">
        <ele>2502</ele>
        <time>2026-03-23T10:39:01Z</time>
      </trkpt>
      <trkpt lat="44.74164" lon="6.8671">
        <ele>2503.2</ele>
        <time>2026-03-23T10:39:02Z</time>
      </trkpt>
      <trkpt lat="44.74165" lon="6.8671">
        <ele>2502</ele>
        <time>2026-03-23T10:39:03Z</time>
      </trkpt>
      <trkpt lat="44.74166" lon="6.86711">
        <ele>2503.2</ele>
        <time>2026-03-23T10:39:04Z</time>
      </trkpt>
      <trkpt lat="44.74166" lon="6.86714">
        <ele>2503.2</ele>
        <time>2026-03-23T10:39:05Z</time>
      </trkpt>
      <trkpt lat="44.74166" lon="6.86714">
        <ele>2503.2</ele>
        <time>2026-03-23T10:39:06Z</time>
      </trkpt>
      <trkpt lat="44.74166" lon="6.86713">
        <ele>2503.2</ele>
        <time>2026-03-23T10:39:07Z</time>
      </trkpt>
      <trkpt lat="44.74167" lon="6.86713">
        <ele>2503.2</ele>
        <time>2026-03-23T10:39:08Z</time>
      </trkpt>
      <trkpt lat="44.74167" lon="6.86713">
        <ele>2503.2</ele>
        <time>2026-03-23T10:39:09Z</time>
      </trkpt>
      <trkpt lat="44.74167" lon="6.86712">
        <ele>2503.2</ele>
        <time>2026-03-23T10:39:10Z</time>
      </trkpt>
      <trkpt lat="44.74168" lon="6.86712">
        <ele>2504.4</ele>
        <time>2026-03-23T10:39:11Z</time>
      </trkpt>
      <trkpt lat="44.74168" lon="6.86711">
        <ele>2504.4</ele>
        <time>2026-03-23T10:39:12Z</time>
      </trkpt>
      <trkpt lat="44.74169" lon="6.86711">
        <ele>2504.4</ele>
        <time>2026-03-23T10:39:13Z</time>
      </trkpt>
      <trkpt lat="44.74169" lon="6.86712">
        <ele>2504.4</ele>
        <time>2026-03-23T10:39:14Z</time>
      </trkpt>
      <trkpt lat="44.74169" lon="6.86712">
        <ele>2504.4</ele>
        <time>2026-03-23T10:39:15Z</time>
      </trkpt>
      <trkpt lat="44.74169" lon="6.86713">
        <ele>2504.4</ele>
        <time>2026-03-23T10:39:16Z</time>
      </trkpt>
      <trkpt lat="44.74169" lon="6.86713">
        <ele>2504.4</ele>
        <time>2026-03-23T10:39:17Z</time>
      </trkpt>
      <trkpt lat="44.74169" lon="6.86714">
        <ele>2504.4</ele>
        <time>2026-03-23T10:39:18Z</time>
      </trkpt>
      <trkpt lat="44.7417" lon="6.86715">
        <ele>2505.6</ele>
        <time>2026-03-23T10:39:19Z</time>
      </trkpt>
      <trkpt lat="44.7417" lon="6.86715">
        <ele>2505.6</ele>
        <time>2026-03-23T10:39:20Z</time>
      </trkpt>
      <trkpt lat="44.7417" lon="6.86716">
        <ele>2505.6</ele>
        <time>2026-03-23T10:39:21Z</time>
      </trkpt>
      <trkpt lat="44.7417" lon="6.86717">
        <ele>2505.6</ele>
        <time>2026-03-23T10:39:22Z</time>
      </trkpt>
      <trkpt lat="44.74169" lon="6.86719">
        <ele>2506.7</ele>
        <time>2026-03-23T10:39:23Z</time>
      </trkpt>
      <trkpt lat="44.7417" lon="6.8672">
        <ele>2506.7</ele>
        <time>2026-03-23T10:39:24Z</time>
      </trkpt>
      <trkpt lat="44.7417" lon="6.86721">
        <ele>2506.7</ele>
        <time>2026-03-23T10:39:25Z</time>
      </trkpt>
      <trkpt lat="44.7417" lon="6.86721">
        <ele>2506.7</ele>
        <time>2026-03-23T10:39:26Z</time>
      </trkpt>
      <trkpt lat="44.74171" lon="6.86721">
        <ele>2507.9</ele>
        <time>2026-03-23T10:39:27Z</time>
      </trkpt>
      <trkpt lat="44.7417" lon="6.86719">
        <ele>2506.7</ele>
        <time>2026-03-23T10:39:28Z</time>
      </trkpt>
      <trkpt lat="44.7417" lon="6.8672">
        <ele>2506.7</ele>
        <time>2026-03-23T10:39:29Z</time>
      </trkpt>
      <trkpt lat="44.7417" lon="6.86721">
        <ele>2506.8</ele>
        <time>2026-03-23T10:39:30Z</time>
      </trkpt>
      <trkpt lat="44.7417" lon="6.86721">
        <ele>2507.9</ele>
        <time>2026-03-23T10:39:31Z</time>
      </trkpt>
      <trkpt lat="44.7417" lon="6.86721">
        <ele>2507.9</ele>
        <time>2026-03-23T10:39:32Z</time>
      </trkpt>
      <trkpt lat="44.74171" lon="6.86721">
        <ele>2507.9</ele>
        <time>2026-03-23T10:39:33Z</time>
      </trkpt>
      <trkpt lat="44.74172" lon="6.86721">
        <ele>2507.9</ele>
        <time>2026-03-23T10:39:34Z</time>
      </trkpt>
      <trkpt lat="44.74173" lon="6.86721">
        <ele>2507.9</ele>
        <time>2026-03-23T10:39:35Z</time>
      </trkpt>
      <trkpt lat="44.74173" lon="6.86721">
        <ele>2507.9</ele>
        <time>2026-03-23T10:39:36Z</time>
      </trkpt>
      <trkpt lat="44.74174" lon="6.86721">
        <ele>2509</ele>
        <time>2026-03-23T10:39:37Z</time>
      </trkpt>
      <trkpt lat="44.74175" lon="6.86721">
        <ele>2509</ele>
        <time>2026-03-23T10:39:38Z</time>
      </trkpt>
      <trkpt lat="44.74175" lon="6.86721">
        <ele>2509</ele>
        <time>2026-03-23T10:39:39Z</time>
      </trkpt>
      <trkpt lat="44.74176" lon="6.86721">
        <ele>2509</ele>
        <time>2026-03-23T10:39:40Z</time>
      </trkpt>
      <trkpt lat="44.74176" lon="6.86723">
        <ele>2509</ele>
        <time>2026-03-23T10:39:41Z</time>
      </trkpt>
      <trkpt lat="44.74177" lon="6.86724">
        <ele>2511.2</ele>
        <time>2026-03-23T10:39:42Z</time>
      </trkpt>
      <trkpt lat="44.74177" lon="6.86724">
        <ele>2511.2</ele>
        <time>2026-03-23T10:39:43Z</time>
      </trkpt>
      <trkpt lat="44.74178" lon="6.86724">
        <ele>2511.2</ele>
        <time>2026-03-23T10:39:44Z</time>
      </trkpt>
      <trkpt lat="44.74178" lon="6.86724">
        <ele>2511.2</ele>
        <time>2026-03-23T10:39:45Z</time>
      </trkpt>
      <trkpt lat="44.74178" lon="6.86724">
        <ele>2511.3</ele>
        <time>2026-03-23T10:39:46Z</time>
      </trkpt>
      <trkpt lat="44.74179" lon="6.86724">
        <ele>2511.3</ele>
        <time>2026-03-23T10:39:47Z</time>
      </trkpt>
      <trkpt lat="44.7418" lon="6.86724">
        <ele>2512.3</ele>
        <time>2026-03-23T10:39:48Z</time>
      </trkpt>
      <trkpt lat="44.7418" lon="6.86723">
        <ele>2512.3</ele>
        <time>2026-03-23T10:39:49Z</time>
      </trkpt>
      <trkpt lat="44.7418" lon="6.86726">
        <ele>2512.3</ele>
        <time>2026-03-23T10:39:50Z</time>
      </trkpt>
      <trkpt lat="44.7418" lon="6.86726">
        <ele>2512.3</ele>
        <time>2026-03-23T10:39:51Z</time>
      </trkpt>
      <trkpt lat="44.74181" lon="6.86726">
        <ele>2512.3</ele>
        <time>2026-03-23T10:39:52Z</time>
      </trkpt>
      <trkpt lat="44.74181" lon="6.86726">
        <ele>2512.3</ele>
        <time>2026-03-23T10:39:53Z</time>
      </trkpt>
      <trkpt lat="44.74182" lon="6.86726">
        <ele>2512.3</ele>
        <time>2026-03-23T10:39:54Z</time>
      </trkpt>
      <trkpt lat="44.74182" lon="6.86725">
        <ele>2512.3</ele>
        <time>2026-03-23T10:39:55Z</time>
      </trkpt>
      <trkpt lat="44.74183" lon="6.86725">
        <ele>2513.3</ele>
        <time>2026-03-23T10:39:56Z</time>
      </trkpt>
      <trkpt lat="44.74183" lon="6.86725">
        <ele>2513.3</ele>
        <time>2026-03-23T10:39:57Z</time>
      </trkpt>
      <trkpt lat="44.74184" lon="6.86724">
        <ele>2513.3</ele>
        <time>2026-03-23T10:39:58Z</time>
      </trkpt>
      <trkpt lat="44.74184" lon="6.86724">
        <ele>2513.3</ele>
        <time>2026-03-23T10:39:59Z</time>
      </trkpt>
      <trkpt lat="44.74184" lon="6.86724">
        <ele>2513.3</ele>
        <time>2026-03-23T10:40:00Z</time>
      </trkpt>
      <trkpt lat="44.74185" lon="6.86724">
        <ele>2513.4</ele>
        <time>2026-03-23T10:40:01Z</time>
      </trkpt>
      <trkpt lat="44.74185" lon="6.86723">
        <ele>2513.4</ele>
        <time>2026-03-23T10:40:02Z</time>
      </trkpt>
      <trkpt lat="44.74185" lon="6.86723">
        <ele>2513.4</ele>
        <time>2026-03-23T10:40:03Z</time>
      </trkpt>
      <trkpt lat="44.74185" lon="6.86723">
        <ele>2513.4</ele>
        <time>2026-03-23T10:40:04Z</time>
      </trkpt>
      <trkpt lat="44.74185" lon="6.86723">
        <ele>2513.4</ele>
        <time>2026-03-23T10:40:05Z</time>
      </trkpt>
      <trkpt lat="44.74185" lon="6.86723">
        <ele>2513.4</ele>
        <time>2026-03-23T10:40:06Z</time>
      </trkpt>
      <trkpt lat="44.74185" lon="6.86723">
        <ele>2513.4</ele>
        <time>2026-03-23T10:40:07Z</time>
      </trkpt>
      <trkpt lat="44.74185" lon="6.86723">
        <ele>2513.4</ele>
        <time>2026-03-23T10:40:08Z</time>
      </trkpt>
      <trkpt lat="44.74186" lon="6.86724">
        <ele>2514.4</ele>
        <time>2026-03-23T10:40:09Z</time>
      </trkpt>
      <trkpt lat="44.74186" lon="6.86724">
        <ele>2514.4</ele>
        <time>2026-03-23T10:40:10Z</time>
      </trkpt>
      <trkpt lat="44.74187" lon="6.86724">
        <ele>2514.4</ele>
        <time>2026-03-23T10:40:11Z</time>
      </trkpt>
      <trkpt lat="44.74188" lon="6.86725">
        <ele>2514.4</ele>
        <time>2026-03-23T10:40:12Z</time>
      </trkpt>
      <trkpt lat="44.74188" lon="6.86725">
        <ele>2514.4</ele>
        <time>2026-03-23T10:40:13Z</time>
      </trkpt>
      <trkpt lat="44.74188" lon="6.86725">
        <ele>2514.4</ele>
        <time>2026-03-23T10:40:14Z</time>
      </trkpt>
      <trkpt lat="44.74188" lon="6.86725">
        <ele>2514.4</ele>
        <time>2026-03-23T10:40:15Z</time>
      </trkpt>
      <trkpt lat="44.74189" lon="6.86725">
        <ele>2515.4</ele>
        <time>2026-03-23T10:40:16Z</time>
      </trkpt>
      <trkpt lat="44.7419" lon="6.86726">
        <ele>2515.4</ele>
        <time>2026-03-23T10:40:17Z</time>
      </trkpt>
      <trkpt lat="44.7419" lon="6.86726">
        <ele>2515.4</ele>
        <time>2026-03-23T10:40:18Z</time>
      </trkpt>
      <trkpt lat="44.74191" lon="6.86726">
        <ele>2515.4</ele>
        <time>2026-03-23T10:40:19Z</time>
      </trkpt>
      <trkpt lat="44.74191" lon="6.86726">
        <ele>2515.4</ele>
        <time>2026-03-23T10:40:20Z</time>
      </trkpt>
      <trkpt lat="44.74192" lon="6.86727">
        <ele>2516.4</ele>
        <time>2026-03-23T10:40:21Z</time>
      </trkpt>
      <trkpt lat="44.74193" lon="6.86728">
        <ele>2517.5</ele>
        <time>2026-03-23T10:40:22Z</time>
      </trkpt>
      <trkpt lat="44.74194" lon="6.86729">
        <ele>2517.5</ele>
        <time>2026-03-23T10:40:23Z</time>
      </trkpt>
      <trkpt lat="44.74195" lon="6.86729">
        <ele>2517.5</ele>
        <time>2026-03-23T10:40:24Z</time>
      </trkpt>
      <trkpt lat="44.74194" lon="6.8673">
        <ele>2517.5</ele>
        <time>2026-03-23T10:40:25Z</time>
      </trkpt>
      <trkpt lat="44.74194" lon="6.8673">
        <ele>2517.5</ele>
        <time>2026-03-23T10:40:26Z</time>
      </trkpt>
      <trkpt lat="44.74194" lon="6.86731">
        <ele>2517.5</ele>
        <time>2026-03-23T10:40:27Z</time>
      </trkpt>
      <trkpt lat="44.74195" lon="6.86732">
        <ele>2519.6</ele>
        <time>2026-03-23T10:40:28Z</time>
      </trkpt>
      <trkpt lat="44.74195" lon="6.86733">
        <ele>2519.6</ele>
        <time>2026-03-23T10:40:29Z</time>
      </trkpt>
      <trkpt lat="44.74195" lon="6.86733">
        <ele>2518.7</ele>
        <time>2026-03-23T10:40:30Z</time>
      </trkpt>
      <trkpt lat="44.74194" lon="6.86733">
        <ele>2518.7</ele>
        <time>2026-03-23T10:40:31Z</time>
      </trkpt>
      <trkpt lat="44.74194" lon="6.86734">
        <ele>2518.7</ele>
        <time>2026-03-23T10:40:32Z</time>
      </trkpt>
      <trkpt lat="44.74193" lon="6.86734">
        <ele>2518.7</ele>
        <time>2026-03-23T10:40:33Z</time>
      </trkpt>
      <trkpt lat="44.74193" lon="6.86735">
        <ele>2518.7</ele>
        <time>2026-03-23T10:40:34Z</time>
      </trkpt>
      <trkpt lat="44.74194" lon="6.86736">
        <ele>2519.8</ele>
        <time>2026-03-23T10:40:35Z</time>
      </trkpt>
      <trkpt lat="44.74194" lon="6.86737">
        <ele>2519.8</ele>
        <time>2026-03-23T10:40:36Z</time>
      </trkpt>
      <trkpt lat="44.74194" lon="6.86737">
        <ele>2519.8</ele>
        <time>2026-03-23T10:40:37Z</time>
      </trkpt>
      <trkpt lat="44.74194" lon="6.86737">
        <ele>2519.9</ele>
        <time>2026-03-23T10:40:38Z</time>
      </trkpt>
      <trkpt lat="44.74194" lon="6.86738">
        <ele>2519.9</ele>
        <time>2026-03-23T10:40:39Z</time>
      </trkpt>
      <trkpt lat="44.74193" lon="6.86738">
        <ele>2519.9</ele>
        <time>2026-03-23T10:40:40Z</time>
      </trkpt>
      <trkpt lat="44.74193" lon="6.86739">
        <ele>2519.9</ele>
        <time>2026-03-23T10:40:41Z</time>
      </trkpt>
      <trkpt lat="44.74193" lon="6.86739">
        <ele>2519.9</ele>
        <time>2026-03-23T10:40:42Z</time>
      </trkpt>
      <trkpt lat="44.74193" lon="6.8674">
        <ele>2519.9</ele>
        <time>2026-03-23T10:40:43Z</time>
      </trkpt>
      <trkpt lat="44.74194" lon="6.86741">
        <ele>2521.1</ele>
        <time>2026-03-23T10:40:44Z</time>
      </trkpt>
      <trkpt lat="44.74193" lon="6.86742">
        <ele>2521.1</ele>
        <time>2026-03-23T10:40:45Z</time>
      </trkpt>
      <trkpt lat="44.74193" lon="6.86742">
        <ele>2521.1</ele>
        <time>2026-03-23T10:40:46Z</time>
      </trkpt>
      <trkpt lat="44.74193" lon="6.86742">
        <ele>2521.1</ele>
        <time>2026-03-23T10:40:47Z</time>
      </trkpt>
      <trkpt lat="44.74193" lon="6.86742">
        <ele>2521.1</ele>
        <time>2026-03-23T10:40:48Z</time>
      </trkpt>
      <trkpt lat="44.74193" lon="6.86743">
        <ele>2521.1</ele>
        <time>2026-03-23T10:40:49Z</time>
      </trkpt>
      <trkpt lat="44.74193" lon="6.86743">
        <ele>2521.1</ele>
        <time>2026-03-23T10:40:50Z</time>
      </trkpt>
      <trkpt lat="44.74193" lon="6.86744">
        <ele>2521.1</ele>
        <time>2026-03-23T10:40:51Z</time>
      </trkpt>
      <trkpt lat="44.74193" lon="6.86744">
        <ele>2521.1</ele>
        <time>2026-03-23T10:40:52Z</time>
      </trkpt>
      <trkpt lat="44.74193" lon="6.86745">
        <ele>2522.4</ele>
        <time>2026-03-23T10:40:53Z</time>
      </trkpt>
      <trkpt lat="44.74193" lon="6.86746">
        <ele>2522.4</ele>
        <time>2026-03-23T10:40:54Z</time>
      </trkpt>
      <trkpt lat="44.74193" lon="6.86747">
        <ele>2522.4</ele>
        <time>2026-03-23T10:40:55Z</time>
      </trkpt>
      <trkpt lat="44.74193" lon="6.86747">
        <ele>2522.4</ele>
        <time>2026-03-23T10:40:56Z</time>
      </trkpt>
      <trkpt lat="44.74193" lon="6.86748">
        <ele>2522.4</ele>
        <time>2026-03-23T10:40:57Z</time>
      </trkpt>
      <trkpt lat="44.74192" lon="6.86748">
        <ele>2522.4</ele>
        <time>2026-03-23T10:40:58Z</time>
      </trkpt>
      <trkpt lat="44.74192" lon="6.86749">
        <ele>2522.7</ele>
        <time>2026-03-23T10:40:59Z</time>
      </trkpt>
      <trkpt lat="44.74192" lon="6.86749">
        <ele>2522.7</ele>
        <time>2026-03-23T10:41:00Z</time>
      </trkpt>
      <trkpt lat="44.74191" lon="6.86749">
        <ele>2522.7</ele>
        <time>2026-03-23T10:41:01Z</time>
      </trkpt>
      <trkpt lat="44.74191" lon="6.8675">
        <ele>2522.7</ele>
        <time>2026-03-23T10:41:02Z</time>
      </trkpt>
      <trkpt lat="44.74191" lon="6.8675">
        <ele>2522.7</ele>
        <time>2026-03-23T10:41:03Z</time>
      </trkpt>
      <trkpt lat="44.74191" lon="6.8675">
        <ele>2522.8</ele>
        <time>2026-03-23T10:41:04Z</time>
      </trkpt>
      <trkpt lat="44.74191" lon="6.8675">
        <ele>2522.8</ele>
        <time>2026-03-23T10:41:05Z</time>
      </trkpt>
      <trkpt lat="44.74191" lon="6.86751">
        <ele>2522.8</ele>
        <time>2026-03-23T10:41:06Z</time>
      </trkpt>
      <trkpt lat="44.74192" lon="6.86751">
        <ele>2522.8</ele>
        <time>2026-03-23T10:41:07Z</time>
      </trkpt>
      <trkpt lat="44.74192" lon="6.86751">
        <ele>2522.8</ele>
        <time>2026-03-23T10:41:08Z</time>
      </trkpt>
      <trkpt lat="44.74192" lon="6.86752">
        <ele>2522.8</ele>
        <time>2026-03-23T10:41:09Z</time>
      </trkpt>
      <trkpt lat="44.74191" lon="6.86752">
        <ele>2522.8</ele>
        <time>2026-03-23T10:41:10Z</time>
      </trkpt>
      <trkpt lat="44.74192" lon="6.86752">
        <ele>2522.8</ele>
        <time>2026-03-23T10:41:11Z</time>
      </trkpt>
      <trkpt lat="44.74192" lon="6.86752">
        <ele>2522.8</ele>
        <time>2026-03-23T10:41:12Z</time>
      </trkpt>
      <trkpt lat="44.74192" lon="6.86752">
        <ele>2522.8</ele>
        <time>2026-03-23T10:41:13Z</time>
      </trkpt>
      <trkpt lat="44.74192" lon="6.86752">
        <ele>2523.7</ele>
        <time>2026-03-23T10:41:14Z</time>
      </trkpt>
      <trkpt lat="44.74192" lon="6.86752">
        <ele>2523.7</ele>
        <time>2026-03-23T10:41:15Z</time>
      </trkpt>
      <trkpt lat="44.74192" lon="6.86753">
        <ele>2523.8</ele>
        <time>2026-03-23T10:41:16Z</time>
      </trkpt>
      <trkpt lat="44.74193" lon="6.86753">
        <ele>2525</ele>
        <time>2026-03-23T10:41:17Z</time>
      </trkpt>
      <trkpt lat="44.74193" lon="6.86754">
        <ele>2525</ele>
        <time>2026-03-23T10:41:18Z</time>
      </trkpt>
      <trkpt lat="44.74193" lon="6.86754">
        <ele>2525</ele>
        <time>2026-03-23T10:41:19Z</time>
      </trkpt>
      <trkpt lat="44.74194" lon="6.86755">
        <ele>2525</ele>
        <time>2026-03-23T10:41:20Z</time>
      </trkpt>
      <trkpt lat="44.74194" lon="6.86755">
        <ele>2525</ele>
        <time>2026-03-23T10:41:21Z</time>
      </trkpt>
      <trkpt lat="44.74195" lon="6.86756">
        <ele>2525</ele>
        <time>2026-03-23T10:41:22Z</time>
      </trkpt>
      <trkpt lat="44.74195" lon="6.86757">
        <ele>2525.9</ele>
        <time>2026-03-23T10:41:23Z</time>
      </trkpt>
      <trkpt lat="44.74195" lon="6.86757">
        <ele>2525.9</ele>
        <time>2026-03-23T10:41:24Z</time>
      </trkpt>
      <trkpt lat="44.74195" lon="6.86757">
        <ele>2526.1</ele>
        <time>2026-03-23T10:41:25Z</time>
      </trkpt>
      <trkpt lat="44.74194" lon="6.86758">
        <ele>2526.1</ele>
        <time>2026-03-23T10:41:26Z</time>
      </trkpt>
      <trkpt lat="44.74194" lon="6.86758">
        <ele>2526.1</ele>
        <time>2026-03-23T10:41:27Z</time>
      </trkpt>
      <trkpt lat="44.74195" lon="6.86759">
        <ele>2526.1</ele>
        <time>2026-03-23T10:41:28Z</time>
      </trkpt>
      <trkpt lat="44.74194" lon="6.8676">
        <ele>2526.2</ele>
        <time>2026-03-23T10:41:29Z</time>
      </trkpt>
      <trkpt lat="44.74195" lon="6.86761">
        <ele>2527.1</ele>
        <time>2026-03-23T10:41:30Z</time>
      </trkpt>
      <trkpt lat="44.74196" lon="6.86761">
        <ele>2527.1</ele>
        <time>2026-03-23T10:41:31Z</time>
      </trkpt>
      <trkpt lat="44.74196" lon="6.86762">
        <ele>2528.2</ele>
        <time>2026-03-23T10:41:32Z</time>
      </trkpt>
      <trkpt lat="44.74196" lon="6.86762">
        <ele>2528.2</ele>
        <time>2026-03-23T10:41:33Z</time>
      </trkpt>
      <trkpt lat="44.74196" lon="6.86763">
        <ele>2528.2</ele>
        <time>2026-03-23T10:41:34Z</time>
      </trkpt>
      <trkpt lat="44.74196" lon="6.86764">
        <ele>2528.2</ele>
        <time>2026-03-23T10:41:35Z</time>
      </trkpt>
      <trkpt lat="44.74196" lon="6.86764">
        <ele>2528.2</ele>
        <time>2026-03-23T10:41:36Z</time>
      </trkpt>
      <trkpt lat="44.74196" lon="6.86765">
        <ele>2528.2</ele>
        <time>2026-03-23T10:41:37Z</time>
      </trkpt>
      <trkpt lat="44.74196" lon="6.86766">
        <ele>2528.2</ele>
        <time>2026-03-23T10:41:38Z</time>
      </trkpt>
      <trkpt lat="44.74196" lon="6.86766">
        <ele>2529.2</ele>
        <time>2026-03-23T10:41:39Z</time>
      </trkpt>
      <trkpt lat="44.74195" lon="6.86767">
        <ele>2529.2</ele>
        <time>2026-03-23T10:41:40Z</time>
      </trkpt>
      <trkpt lat="44.74196" lon="6.86767">
        <ele>2529.2</ele>
        <time>2026-03-23T10:41:41Z</time>
      </trkpt>
      <trkpt lat="44.74196" lon="6.86768">
        <ele>2529.2</ele>
        <time>2026-03-23T10:41:42Z</time>
      </trkpt>
      <trkpt lat="44.74196" lon="6.86768">
        <ele>2529.2</ele>
        <time>2026-03-23T10:41:43Z</time>
      </trkpt>
      <trkpt lat="44.74196" lon="6.86769">
        <ele>2529.3</ele>
        <time>2026-03-23T10:41:44Z</time>
      </trkpt>
      <trkpt lat="44.74196" lon="6.86769">
        <ele>2529.3</ele>
        <time>2026-03-23T10:41:45Z</time>
      </trkpt>
      <trkpt lat="44.74196" lon="6.86769">
        <ele>2529.3</ele>
        <time>2026-03-23T10:41:46Z</time>
      </trkpt>
      <trkpt lat="44.74196" lon="6.8677">
        <ele>2529.3</ele>
        <time>2026-03-23T10:41:47Z</time>
      </trkpt>
      <trkpt lat="44.74196" lon="6.8677">
        <ele>2530.3</ele>
        <time>2026-03-23T10:41:48Z</time>
      </trkpt>
      <trkpt lat="44.74196" lon="6.86771">
        <ele>2530.3</ele>
        <time>2026-03-23T10:41:49Z</time>
      </trkpt>
      <trkpt lat="44.74196" lon="6.86771">
        <ele>2530.3</ele>
        <time>2026-03-23T10:41:50Z</time>
      </trkpt>
      <trkpt lat="44.74196" lon="6.86772">
        <ele>2530.3</ele>
        <time>2026-03-23T10:41:51Z</time>
      </trkpt>
      <trkpt lat="44.74196" lon="6.86771">
        <ele>2530.3</ele>
        <time>2026-03-23T10:41:52Z</time>
      </trkpt>
      <trkpt lat="44.74195" lon="6.8677">
        <ele>2530.3</ele>
        <time>2026-03-23T10:41:53Z</time>
      </trkpt>
      <trkpt lat="44.74195" lon="6.86771">
        <ele>2530.3</ele>
        <time>2026-03-23T10:41:54Z</time>
      </trkpt>
      <trkpt lat="44.74195" lon="6.86772">
        <ele>2529.4</ele>
        <time>2026-03-23T10:41:55Z</time>
      </trkpt>
      <trkpt lat="44.74194" lon="6.86772">
        <ele>2529.4</ele>
        <time>2026-03-23T10:41:56Z</time>
      </trkpt>
      <trkpt lat="44.74194" lon="6.86772">
        <ele>2529.4</ele>
        <time>2026-03-23T10:41:57Z</time>
      </trkpt>
      <trkpt lat="44.74194" lon="6.86773">
        <ele>2529.4</ele>
        <time>2026-03-23T10:41:58Z</time>
      </trkpt>
      <trkpt lat="44.74193" lon="6.86773">
        <ele>2529.4</ele>
        <time>2026-03-23T10:41:59Z</time>
      </trkpt>
      <trkpt lat="44.74193" lon="6.86773">
        <ele>2529.4</ele>
        <time>2026-03-23T10:42:00Z</time>
      </trkpt>
      <trkpt lat="44.74192" lon="6.86773">
        <ele>2529.4</ele>
        <time>2026-03-23T10:42:01Z</time>
      </trkpt>
      <trkpt lat="44.74192" lon="6.86773">
        <ele>2529.4</ele>
        <time>2026-03-23T10:42:02Z</time>
      </trkpt>
      <trkpt lat="44.74192" lon="6.86774">
        <ele>2529.5</ele>
        <time>2026-03-23T10:42:03Z</time>
      </trkpt>
      <trkpt lat="44.74192" lon="6.86774">
        <ele>2528.5</ele>
        <time>2026-03-23T10:42:04Z</time>
      </trkpt>
      <trkpt lat="44.74191" lon="6.86774">
        <ele>2528.6</ele>
        <time>2026-03-23T10:42:05Z</time>
      </trkpt>
      <trkpt lat="44.74191" lon="6.86775">
        <ele>2529.6</ele>
        <time>2026-03-23T10:42:06Z</time>
      </trkpt>
      <trkpt lat="44.74191" lon="6.86776">
        <ele>2529.6</ele>
        <time>2026-03-23T10:42:07Z</time>
      </trkpt>
      <trkpt lat="44.74191" lon="6.86776">
        <ele>2529.6</ele>
        <time>2026-03-23T10:42:08Z</time>
      </trkpt>
      <trkpt lat="44.74191" lon="6.86776">
        <ele>2529.6</ele>
        <time>2026-03-23T10:42:09Z</time>
      </trkpt>
      <trkpt lat="44.74191" lon="6.86777">
        <ele>2529.6</ele>
        <time>2026-03-23T10:42:10Z</time>
      </trkpt>
      <trkpt lat="44.74191" lon="6.86777">
        <ele>2529.6</ele>
        <time>2026-03-23T10:42:11Z</time>
      </trkpt>
      <trkpt lat="44.74191" lon="6.86778">
        <ele>2529.6</ele>
        <time>2026-03-23T10:42:12Z</time>
      </trkpt>
      <trkpt lat="44.74191" lon="6.86778">
        <ele>2529.6</ele>
        <time>2026-03-23T10:42:13Z</time>
      </trkpt>
      <trkpt lat="44.74191" lon="6.86779">
        <ele>2530.7</ele>
        <time>2026-03-23T10:42:14Z</time>
      </trkpt>
      <trkpt lat="44.7419" lon="6.8678">
        <ele>2530.7</ele>
        <time>2026-03-23T10:42:15Z</time>
      </trkpt>
      <trkpt lat="44.7419" lon="6.8678">
        <ele>2530.7</ele>
        <time>2026-03-23T10:42:16Z</time>
      </trkpt>
      <trkpt lat="44.7419" lon="6.86781">
        <ele>2530.7</ele>
        <time>2026-03-23T10:42:17Z</time>
      </trkpt>
      <trkpt lat="44.7419" lon="6.86782">
        <ele>2530.7</ele>
        <time>2026-03-23T10:42:18Z</time>
      </trkpt>
      <trkpt lat="44.74189" lon="6.86783">
        <ele>2530.8</ele>
        <time>2026-03-23T10:42:19Z</time>
      </trkpt>
      <trkpt lat="44.74189" lon="6.86783">
        <ele>2531.8</ele>
        <time>2026-03-23T10:42:20Z</time>
      </trkpt>
      <trkpt lat="44.74189" lon="6.86783">
        <ele>2531.9</ele>
        <time>2026-03-23T10:42:21Z</time>
      </trkpt>
      <trkpt lat="44.74189" lon="6.86784">
        <ele>2531</ele>
        <time>2026-03-23T10:42:22Z</time>
      </trkpt>
      <trkpt lat="44.74189" lon="6.86784">
        <ele>2531</ele>
        <time>2026-03-23T10:42:23Z</time>
      </trkpt>
      <trkpt lat="44.74188" lon="6.86785">
        <ele>2531</ele>
        <time>2026-03-23T10:42:24Z</time>
      </trkpt>
      <trkpt lat="44.74188" lon="6.86786">
        <ele>2531</ele>
        <time>2026-03-23T10:42:25Z</time>
      </trkpt>
      <trkpt lat="44.74188" lon="6.86786">
        <ele>2531</ele>
        <time>2026-03-23T10:42:26Z</time>
      </trkpt>
      <trkpt lat="44.74187" lon="6.86786">
        <ele>2531</ele>
        <time>2026-03-23T10:42:27Z</time>
      </trkpt>
      <trkpt lat="44.74187" lon="6.86787">
        <ele>2531</ele>
        <time>2026-03-23T10:42:28Z</time>
      </trkpt>
      <trkpt lat="44.74187" lon="6.86787">
        <ele>2531</ele>
        <time>2026-03-23T10:42:29Z</time>
      </trkpt>
      <trkpt lat="44.74186" lon="6.86788">
        <ele>2532.1</ele>
        <time>2026-03-23T10:42:30Z</time>
      </trkpt>
      <trkpt lat="44.74186" lon="6.86788">
        <ele>2532.1</ele>
        <time>2026-03-23T10:42:31Z</time>
      </trkpt>
      <trkpt lat="44.74186" lon="6.86788">
        <ele>2532.1</ele>
        <time>2026-03-23T10:42:32Z</time>
      </trkpt>
      <trkpt lat="44.74186" lon="6.86789">
        <ele>2532.1</ele>
        <time>2026-03-23T10:42:33Z</time>
      </trkpt>
      <trkpt lat="44.74186" lon="6.86789">
        <ele>2532.1</ele>
        <time>2026-03-23T10:42:34Z</time>
      </trkpt>
      <trkpt lat="44.74186" lon="6.8679">
        <ele>2531.3</ele>
        <time>2026-03-23T10:42:35Z</time>
      </trkpt>
      <trkpt lat="44.74186" lon="6.86789">
        <ele>2532.1</ele>
        <time>2026-03-23T10:42:36Z</time>
      </trkpt>
      <trkpt lat="44.74186" lon="6.86791">
        <ele>2532.1</ele>
        <time>2026-03-23T10:42:37Z</time>
      </trkpt>
      <trkpt lat="44.74186" lon="6.86791">
        <ele>2532.2</ele>
        <time>2026-03-23T10:42:38Z</time>
      </trkpt>
      <trkpt lat="44.74186" lon="6.86792">
        <ele>2533.2</ele>
        <time>2026-03-23T10:42:39Z</time>
      </trkpt>
      <trkpt lat="44.74186" lon="6.86792">
        <ele>2533.2</ele>
        <time>2026-03-23T10:42:40Z</time>
      </trkpt>
      <trkpt lat="44.74186" lon="6.86792">
        <ele>2533.2</ele>
        <time>2026-03-23T10:42:41Z</time>
      </trkpt>
      <trkpt lat="44.74186" lon="6.86793">
        <ele>2533.3</ele>
        <time>2026-03-23T10:42:42Z</time>
      </trkpt>
      <trkpt lat="44.74186" lon="6.86794">
        <ele>2533.3</ele>
        <time>2026-03-23T10:42:43Z</time>
      </trkpt>
      <trkpt lat="44.74186" lon="6.86795">
        <ele>2533.3</ele>
        <time>2026-03-23T10:42:44Z</time>
      </trkpt>
      <trkpt lat="44.74186" lon="6.86795">
        <ele>2533.3</ele>
        <time>2026-03-23T10:42:45Z</time>
      </trkpt>
      <trkpt lat="44.74186" lon="6.86796">
        <ele>2534.3</ele>
        <time>2026-03-23T10:42:46Z</time>
      </trkpt>
      <trkpt lat="44.74186" lon="6.86796">
        <ele>2534.3</ele>
        <time>2026-03-23T10:42:47Z</time>
      </trkpt>
      <trkpt lat="44.74186" lon="6.86797">
        <ele>2534.3</ele>
        <time>2026-03-23T10:42:48Z</time>
      </trkpt>
      <trkpt lat="44.74186" lon="6.86798">
        <ele>2534.4</ele>
        <time>2026-03-23T10:42:49Z</time>
      </trkpt>
      <trkpt lat="44.74186" lon="6.86798">
        <ele>2534.4</ele>
        <time>2026-03-23T10:42:50Z</time>
      </trkpt>
      <trkpt lat="44.74187" lon="6.86799">
        <ele>2534.4</ele>
        <time>2026-03-23T10:42:51Z</time>
      </trkpt>
      <trkpt lat="44.74187" lon="6.868">
        <ele>2534.4</ele>
        <time>2026-03-23T10:42:52Z</time>
      </trkpt>
      <trkpt lat="44.74187" lon="6.86799">
        <ele>2534.4</ele>
        <time>2026-03-23T10:42:53Z</time>
      </trkpt>
      <trkpt lat="44.74187" lon="6.86799">
        <ele>2534.4</ele>
        <time>2026-03-23T10:42:54Z</time>
      </trkpt>
      <trkpt lat="44.74187" lon="6.86799">
        <ele>2534.4</ele>
        <time>2026-03-23T10:42:55Z</time>
      </trkpt>
      <trkpt lat="44.74187" lon="6.86799">
        <ele>2534.4</ele>
        <time>2026-03-23T10:42:56Z</time>
      </trkpt>
      <trkpt lat="44.74187" lon="6.86799">
        <ele>2534.4</ele>
        <time>2026-03-23T10:42:57Z</time>
      </trkpt>
      <trkpt lat="44.74187" lon="6.86799">
        <ele>2534.4</ele>
        <time>2026-03-23T10:42:58Z</time>
      </trkpt>
      <trkpt lat="44.74188" lon="6.86799">
        <ele>2534.4</ele>
        <time>2026-03-23T10:42:59Z</time>
      </trkpt>
      <trkpt lat="44.74188" lon="6.86799">
        <ele>2534.4</ele>
        <time>2026-03-23T10:43:00Z</time>
      </trkpt>
      <trkpt lat="44.74189" lon="6.868">
        <ele>2535.3</ele>
        <time>2026-03-23T10:43:01Z</time>
      </trkpt>
      <trkpt lat="44.74189" lon="6.868">
        <ele>2535.3</ele>
        <time>2026-03-23T10:43:02Z</time>
      </trkpt>
      <trkpt lat="44.74189" lon="6.86801">
        <ele>2536.4</ele>
        <time>2026-03-23T10:43:03Z</time>
      </trkpt>
      <trkpt lat="44.7419" lon="6.86801">
        <ele>2536.4</ele>
        <time>2026-03-23T10:43:04Z</time>
      </trkpt>
      <trkpt lat="44.74191" lon="6.86802">
        <ele>2536.4</ele>
        <time>2026-03-23T10:43:05Z</time>
      </trkpt>
      <trkpt lat="44.74191" lon="6.86802">
        <ele>2536.4</ele>
        <time>2026-03-23T10:43:06Z</time>
      </trkpt>
      <trkpt lat="44.74191" lon="6.86803">
        <ele>2536.4</ele>
        <time>2026-03-23T10:43:07Z</time>
      </trkpt>
      <trkpt lat="44.74191" lon="6.86803">
        <ele>2536.4</ele>
        <time>2026-03-23T10:43:08Z</time>
      </trkpt>
      <trkpt lat="44.74192" lon="6.86803">
        <ele>2536.4</ele>
        <time>2026-03-23T10:43:09Z</time>
      </trkpt>
      <trkpt lat="44.74192" lon="6.86803">
        <ele>2536.4</ele>
        <time>2026-03-23T10:43:10Z</time>
      </trkpt>
      <trkpt lat="44.74191" lon="6.86802">
        <ele>2536.4</ele>
        <time>2026-03-23T10:43:11Z</time>
      </trkpt>
      <trkpt lat="44.74191" lon="6.86803">
        <ele>2536.4</ele>
        <time>2026-03-23T10:43:12Z</time>
      </trkpt>
      <trkpt lat="44.74192" lon="6.86802">
        <ele>2536.4</ele>
        <time>2026-03-23T10:43:13Z</time>
      </trkpt>
      <trkpt lat="44.74192" lon="6.86802">
        <ele>2537.4</ele>
        <time>2026-03-23T10:43:14Z</time>
      </trkpt>
      <trkpt lat="44.74192" lon="6.86802">
        <ele>2537.4</ele>
        <time>2026-03-23T10:43:15Z</time>
      </trkpt>
      <trkpt lat="44.74193" lon="6.86802">
        <ele>2537.4</ele>
        <time>2026-03-23T10:43:16Z</time>
      </trkpt>
      <trkpt lat="44.74193" lon="6.86803">
        <ele>2537.4</ele>
        <time>2026-03-23T10:43:17Z</time>
      </trkpt>
      <trkpt lat="44.74193" lon="6.86803">
        <ele>2537.4</ele>
        <time>2026-03-23T10:43:18Z</time>
      </trkpt>
      <trkpt lat="44.74193" lon="6.86804">
        <ele>2537.4</ele>
        <time>2026-03-23T10:43:19Z</time>
      </trkpt>
      <trkpt lat="44.74193" lon="6.86804">
        <ele>2537.4</ele>
        <time>2026-03-23T10:43:20Z</time>
      </trkpt>
      <trkpt lat="44.74194" lon="6.86805">
        <ele>2538.4</ele>
        <time>2026-03-23T10:43:21Z</time>
      </trkpt>
      <trkpt lat="44.74194" lon="6.86805">
        <ele>2538.5</ele>
        <time>2026-03-23T10:43:22Z</time>
      </trkpt>
      <trkpt lat="44.74193" lon="6.86806">
        <ele>2538.5</ele>
        <time>2026-03-23T10:43:23Z</time>
      </trkpt>
      <trkpt lat="44.74193" lon="6.86806">
        <ele>2538.5</ele>
        <time>2026-03-23T10:43:24Z</time>
      </trkpt>
      <trkpt lat="44.74194" lon="6.86807">
        <ele>2538.5</ele>
        <time>2026-03-23T10:43:25Z</time>
      </trkpt>
      <trkpt lat="44.74194" lon="6.86808">
        <ele>2538.5</ele>
        <time>2026-03-23T10:43:26Z</time>
      </trkpt>
      <trkpt lat="44.74194" lon="6.86808">
        <ele>2538.5</ele>
        <time>2026-03-23T10:43:27Z</time>
      </trkpt>
      <trkpt lat="44.74194" lon="6.86809">
        <ele>2539.5</ele>
        <time>2026-03-23T10:43:28Z</time>
      </trkpt>
      <trkpt lat="44.74194" lon="6.86809">
        <ele>2539.5</ele>
        <time>2026-03-23T10:43:29Z</time>
      </trkpt>
      <trkpt lat="44.74195" lon="6.8681">
        <ele>2539.5</ele>
        <time>2026-03-23T10:43:30Z</time>
      </trkpt>
      <trkpt lat="44.74195" lon="6.8681">
        <ele>2539.5</ele>
        <time>2026-03-23T10:43:31Z</time>
      </trkpt>
      <trkpt lat="44.74194" lon="6.8681">
        <ele>2539.5</ele>
        <time>2026-03-23T10:43:32Z</time>
      </trkpt>
      <trkpt lat="44.74194" lon="6.86811">
        <ele>2539.5</ele>
        <time>2026-03-23T10:43:33Z</time>
      </trkpt>
      <trkpt lat="44.74194" lon="6.86811">
        <ele>2539.5</ele>
        <time>2026-03-23T10:43:34Z</time>
      </trkpt>
      <trkpt lat="44.74194" lon="6.86812">
        <ele>2539.5</ele>
        <time>2026-03-23T10:43:35Z</time>
      </trkpt>
      <trkpt lat="44.74195" lon="6.86812">
        <ele>2539.5</ele>
        <time>2026-03-23T10:43:36Z</time>
      </trkpt>
      <trkpt lat="44.74195" lon="6.86813">
        <ele>2539.5</ele>
        <time>2026-03-23T10:43:37Z</time>
      </trkpt>
      <trkpt lat="44.74194" lon="6.86813">
        <ele>2540.5</ele>
        <time>2026-03-23T10:43:38Z</time>
      </trkpt>
      <trkpt lat="44.74194" lon="6.86813">
        <ele>2540.5</ele>
        <time>2026-03-23T10:43:39Z</time>
      </trkpt>
      <trkpt lat="44.74194" lon="6.86814">
        <ele>2540.5</ele>
        <time>2026-03-23T10:43:40Z</time>
      </trkpt>
      <trkpt lat="44.74194" lon="6.86815">
        <ele>2540.5</ele>
        <time>2026-03-23T10:43:41Z</time>
      </trkpt>
      <trkpt lat="44.74195" lon="6.86815">
        <ele>2540.5</ele>
        <time>2026-03-23T10:43:42Z</time>
      </trkpt>
      <trkpt lat="44.74195" lon="6.86816">
        <ele>2540.5</ele>
        <time>2026-03-23T10:43:43Z</time>
      </trkpt>
      <trkpt lat="44.74195" lon="6.86816">
        <ele>2540.5</ele>
        <time>2026-03-23T10:43:44Z</time>
      </trkpt>
      <trkpt lat="44.74195" lon="6.86816">
        <ele>2540.5</ele>
        <time>2026-03-23T10:43:45Z</time>
      </trkpt>
      <trkpt lat="44.74195" lon="6.86816">
        <ele>2541.6</ele>
        <time>2026-03-23T10:43:46Z</time>
      </trkpt>
      <trkpt lat="44.74195" lon="6.86817">
        <ele>2541.6</ele>
        <time>2026-03-23T10:43:47Z</time>
      </trkpt>
      <trkpt lat="44.74196" lon="6.86817">
        <ele>2542.5</ele>
        <time>2026-03-23T10:43:48Z</time>
      </trkpt>
      <trkpt lat="44.74196" lon="6.86818">
        <ele>2542.6</ele>
        <time>2026-03-23T10:43:49Z</time>
      </trkpt>
      <trkpt lat="44.74196" lon="6.86819">
        <ele>2542.6</ele>
        <time>2026-03-23T10:43:50Z</time>
      </trkpt>
      <trkpt lat="44.74195" lon="6.86819">
        <ele>2542.6</ele>
        <time>2026-03-23T10:43:51Z</time>
      </trkpt>
      <trkpt lat="44.74195" lon="6.86821">
        <ele>2541.5</ele>
        <time>2026-03-23T10:43:52Z</time>
      </trkpt>
      <trkpt lat="44.74195" lon="6.86821">
        <ele>2542.6</ele>
        <time>2026-03-23T10:43:53Z</time>
      </trkpt>
      <trkpt lat="44.74195" lon="6.86822">
        <ele>2543.6</ele>
        <time>2026-03-23T10:43:54Z</time>
      </trkpt>
      <trkpt lat="44.74195" lon="6.86822">
        <ele>2543.6</ele>
        <time>2026-03-23T10:43:55Z</time>
      </trkpt>
      <trkpt lat="44.74195" lon="6.86823">
        <ele>2542.6</ele>
        <time>2026-03-23T10:43:56Z</time>
      </trkpt>
      <trkpt lat="44.74195" lon="6.86823">
        <ele>2542.6</ele>
        <time>2026-03-23T10:43:57Z</time>
      </trkpt>
      <trkpt lat="44.74195" lon="6.86824">
        <ele>2543.6</ele>
        <time>2026-03-23T10:43:58Z</time>
      </trkpt>
      <trkpt lat="44.74195" lon="6.86825">
        <ele>2543.6</ele>
        <time>2026-03-23T10:43:59Z</time>
      </trkpt>
      <trkpt lat="44.74195" lon="6.86825">
        <ele>2543.6</ele>
        <time>2026-03-23T10:44:00Z</time>
      </trkpt>
      <trkpt lat="44.74195" lon="6.86826">
        <ele>2544.7</ele>
        <time>2026-03-23T10:44:01Z</time>
      </trkpt>
      <trkpt lat="44.74195" lon="6.86827">
        <ele>2544.7</ele>
        <time>2026-03-23T10:44:02Z</time>
      </trkpt>
      <trkpt lat="44.74196" lon="6.86827">
        <ele>2544.7</ele>
        <time>2026-03-23T10:44:03Z</time>
      </trkpt>
      <trkpt lat="44.74197" lon="6.86828">
        <ele>2544.7</ele>
        <time>2026-03-23T10:44:04Z</time>
      </trkpt>
      <trkpt lat="44.74197" lon="6.86829">
        <ele>2544.7</ele>
        <time>2026-03-23T10:44:05Z</time>
      </trkpt>
      <trkpt lat="44.74197" lon="6.8683">
        <ele>2544.7</ele>
        <time>2026-03-23T10:44:06Z</time>
      </trkpt>
      <trkpt lat="44.74196" lon="6.86831">
        <ele>2545.8</ele>
        <time>2026-03-23T10:44:07Z</time>
      </trkpt>
      <trkpt lat="44.74196" lon="6.86831">
        <ele>2545.8</ele>
        <time>2026-03-23T10:44:08Z</time>
      </trkpt>
      <trkpt lat="44.74195" lon="6.86832">
        <ele>2545.8</ele>
        <time>2026-03-23T10:44:09Z</time>
      </trkpt>
      <trkpt lat="44.74195" lon="6.86832">
        <ele>2545.9</ele>
        <time>2026-03-23T10:44:10Z</time>
      </trkpt>
      <trkpt lat="44.74195" lon="6.86833">
        <ele>2545.9</ele>
        <time>2026-03-23T10:44:11Z</time>
      </trkpt>
      <trkpt lat="44.74195" lon="6.86833">
        <ele>2544.8</ele>
        <time>2026-03-23T10:44:12Z</time>
      </trkpt>
      <trkpt lat="44.74194" lon="6.86834">
        <ele>2544.8</ele>
        <time>2026-03-23T10:44:13Z</time>
      </trkpt>
      <trkpt lat="44.74194" lon="6.86834">
        <ele>2544.8</ele>
        <time>2026-03-23T10:44:14Z</time>
      </trkpt>
      <trkpt lat="44.74194" lon="6.86835">
        <ele>2545.9</ele>
        <time>2026-03-23T10:44:15Z</time>
      </trkpt>
      <trkpt lat="44.74194" lon="6.86836">
        <ele>2545.9</ele>
        <time>2026-03-23T10:44:16Z</time>
      </trkpt>
      <trkpt lat="44.74195" lon="6.86837">
        <ele>2547</ele>
        <time>2026-03-23T10:44:17Z</time>
      </trkpt>
      <trkpt lat="44.74196" lon="6.86837">
        <ele>2547</ele>
        <time>2026-03-23T10:44:18Z</time>
      </trkpt>
      <trkpt lat="44.74196" lon="6.86837">
        <ele>2547</ele>
        <time>2026-03-23T10:44:19Z</time>
      </trkpt>
      <trkpt lat="44.74196" lon="6.86837">
        <ele>2547</ele>
        <time>2026-03-23T10:44:20Z</time>
      </trkpt>
      <trkpt lat="44.74196" lon="6.86837">
        <ele>2547</ele>
        <time>2026-03-23T10:44:21Z</time>
      </trkpt>
      <trkpt lat="44.74196" lon="6.86837">
        <ele>2547</ele>
        <time>2026-03-23T10:44:22Z</time>
      </trkpt>
      <trkpt lat="44.74196" lon="6.86837">
        <ele>2547</ele>
        <time>2026-03-23T10:44:23Z</time>
      </trkpt>
      <trkpt lat="44.74197" lon="6.86837">
        <ele>2547</ele>
        <time>2026-03-23T10:44:24Z</time>
      </trkpt>
      <trkpt lat="44.74197" lon="6.86837">
        <ele>2547.1</ele>
        <time>2026-03-23T10:44:25Z</time>
      </trkpt>
      <trkpt lat="44.74196" lon="6.86837">
        <ele>2547.1</ele>
        <time>2026-03-23T10:44:26Z</time>
      </trkpt>
      <trkpt lat="44.74197" lon="6.86837">
        <ele>2547.1</ele>
        <time>2026-03-23T10:44:27Z</time>
      </trkpt>
      <trkpt lat="44.74197" lon="6.86837">
        <ele>2547.1</ele>
        <time>2026-03-23T10:44:28Z</time>
      </trkpt>
      <trkpt lat="44.74197" lon="6.86837">
        <ele>2547.1</ele>
        <time>2026-03-23T10:44:29Z</time>
      </trkpt>
      <trkpt lat="44.74197" lon="6.86836">
        <ele>2547.1</ele>
        <time>2026-03-23T10:44:30Z</time>
      </trkpt>
      <trkpt lat="44.74196" lon="6.86836">
        <ele>2547.1</ele>
        <time>2026-03-23T10:44:31Z</time>
      </trkpt>
      <trkpt lat="44.74197" lon="6.86836">
        <ele>2547.1</ele>
        <time>2026-03-23T10:44:32Z</time>
      </trkpt>
      <trkpt lat="44.74197" lon="6.86836">
        <ele>2547.1</ele>
        <time>2026-03-23T10:44:33Z</time>
      </trkpt>
      <trkpt lat="44.74197" lon="6.86837">
        <ele>2547.1</ele>
        <time>2026-03-23T10:44:34Z</time>
      </trkpt>
      <trkpt lat="44.74197" lon="6.86837">
        <ele>2547.1</ele>
        <time>2026-03-23T10:44:35Z</time>
      </trkpt>
      <trkpt lat="44.74197" lon="6.86837">
        <ele>2547.1</ele>
        <time>2026-03-23T10:44:36Z</time>
      </trkpt>
      <trkpt lat="44.74197" lon="6.86837">
        <ele>2547.1</ele>
        <time>2026-03-23T10:44:37Z</time>
      </trkpt>
      <trkpt lat="44.74198" lon="6.86837">
        <ele>2547.1</ele>
        <time>2026-03-23T10:44:38Z</time>
      </trkpt>
      <trkpt lat="44.74198" lon="6.86837">
        <ele>2547.1</ele>
        <time>2026-03-23T10:44:39Z</time>
      </trkpt>
      <trkpt lat="44.74198" lon="6.86836">
        <ele>2548.2</ele>
        <time>2026-03-23T10:44:40Z</time>
      </trkpt>
      <trkpt lat="44.74198" lon="6.86836">
        <ele>2548.2</ele>
        <time>2026-03-23T10:44:41Z</time>
      </trkpt>
      <trkpt lat="44.74199" lon="6.86836">
        <ele>2548.2</ele>
        <time>2026-03-23T10:44:42Z</time>
      </trkpt>
      <trkpt lat="44.74199" lon="6.86836">
        <ele>2548.2</ele>
        <time>2026-03-23T10:44:43Z</time>
      </trkpt>
      <trkpt lat="44.74199" lon="6.86836">
        <ele>2548.2</ele>
        <time>2026-03-23T10:44:44Z</time>
      </trkpt>
      <trkpt lat="44.74199" lon="6.86836">
        <ele>2548.2</ele>
        <time>2026-03-23T10:44:45Z</time>
      </trkpt>
      <trkpt lat="44.742" lon="6.86837">
        <ele>2548.2</ele>
        <time>2026-03-23T10:44:46Z</time>
      </trkpt>
      <trkpt lat="44.742" lon="6.86838">
        <ele>2548.2</ele>
        <time>2026-03-23T10:44:47Z</time>
      </trkpt>
      <trkpt lat="44.742" lon="6.86838">
        <ele>2548.3</ele>
        <time>2026-03-23T10:44:48Z</time>
      </trkpt>
      <trkpt lat="44.74201" lon="6.86839">
        <ele>2549.4</ele>
        <time>2026-03-23T10:44:49Z</time>
      </trkpt>
      <trkpt lat="44.74201" lon="6.8684">
        <ele>2550.4</ele>
        <time>2026-03-23T10:44:50Z</time>
      </trkpt>
      <trkpt lat="44.74202" lon="6.8684">
        <ele>2550.4</ele>
        <time>2026-03-23T10:44:51Z</time>
      </trkpt>
      <trkpt lat="44.74202" lon="6.8684">
        <ele>2550.4</ele>
        <time>2026-03-23T10:44:52Z</time>
      </trkpt>
      <trkpt lat="44.74203" lon="6.86841">
        <ele>2550.4</ele>
        <time>2026-03-23T10:44:53Z</time>
      </trkpt>
      <trkpt lat="44.74203" lon="6.86841">
        <ele>2550.4</ele>
        <time>2026-03-23T10:44:54Z</time>
      </trkpt>
      <trkpt lat="44.74203" lon="6.86842">
        <ele>2550.4</ele>
        <time>2026-03-23T10:44:55Z</time>
      </trkpt>
      <trkpt lat="44.74204" lon="6.86842">
        <ele>2550.4</ele>
        <time>2026-03-23T10:44:56Z</time>
      </trkpt>
      <trkpt lat="44.74204" lon="6.86843">
        <ele>2550.4</ele>
        <time>2026-03-23T10:44:57Z</time>
      </trkpt>
      <trkpt lat="44.74204" lon="6.86844">
        <ele>2551.5</ele>
        <time>2026-03-23T10:44:58Z</time>
      </trkpt>
      <trkpt lat="44.74204" lon="6.86844">
        <ele>2552.4</ele>
        <time>2026-03-23T10:44:59Z</time>
      </trkpt>
      <trkpt lat="44.74204" lon="6.86845">
        <ele>2552.4</ele>
        <time>2026-03-23T10:45:00Z</time>
      </trkpt>
      <trkpt lat="44.74204" lon="6.86846">
        <ele>2552.4</ele>
        <time>2026-03-23T10:45:01Z</time>
      </trkpt>
      <trkpt lat="44.74205" lon="6.86847">
        <ele>2552.5</ele>
        <time>2026-03-23T10:45:02Z</time>
      </trkpt>
      <trkpt lat="44.74205" lon="6.86848">
        <ele>2553.5</ele>
        <time>2026-03-23T10:45:03Z</time>
      </trkpt>
      <trkpt lat="44.74206" lon="6.86848">
        <ele>2553.5</ele>
        <time>2026-03-23T10:45:04Z</time>
      </trkpt>
      <trkpt lat="44.74206" lon="6.86848">
        <ele>2553.5</ele>
        <time>2026-03-23T10:45:05Z</time>
      </trkpt>
      <trkpt lat="44.74206" lon="6.86849">
        <ele>2553.5</ele>
        <time>2026-03-23T10:45:06Z</time>
      </trkpt>
      <trkpt lat="44.74206" lon="6.86849">
        <ele>2553.5</ele>
        <time>2026-03-23T10:45:07Z</time>
      </trkpt>
      <trkpt lat="44.74206" lon="6.8685">
        <ele>2553.5</ele>
        <time>2026-03-23T10:45:08Z</time>
      </trkpt>
      <trkpt lat="44.74207" lon="6.8685">
        <ele>2553.5</ele>
        <time>2026-03-23T10:45:09Z</time>
      </trkpt>
      <trkpt lat="44.74207" lon="6.86851">
        <ele>2553.5</ele>
        <time>2026-03-23T10:45:10Z</time>
      </trkpt>
      <trkpt lat="44.74207" lon="6.86851">
        <ele>2554.4</ele>
        <time>2026-03-23T10:45:11Z</time>
      </trkpt>
      <trkpt lat="44.74208" lon="6.86851">
        <ele>2554.4</ele>
        <time>2026-03-23T10:45:12Z</time>
      </trkpt>
      <trkpt lat="44.74208" lon="6.86852">
        <ele>2555.4</ele>
        <time>2026-03-23T10:45:13Z</time>
      </trkpt>
      <trkpt lat="44.74208" lon="6.86852">
        <ele>2555.4</ele>
        <time>2026-03-23T10:45:14Z</time>
      </trkpt>
      <trkpt lat="44.74208" lon="6.86852">
        <ele>2555.4</ele>
        <time>2026-03-23T10:45:15Z</time>
      </trkpt>
      <trkpt lat="44.74208" lon="6.86853">
        <ele>2555.4</ele>
        <time>2026-03-23T10:45:16Z</time>
      </trkpt>
      <trkpt lat="44.74207" lon="6.86853">
        <ele>2555.4</ele>
        <time>2026-03-23T10:45:17Z</time>
      </trkpt>
      <trkpt lat="44.74207" lon="6.86853">
        <ele>2555.4</ele>
        <time>2026-03-23T10:45:18Z</time>
      </trkpt>
      <trkpt lat="44.74206" lon="6.86854">
        <ele>2554.5</ele>
        <time>2026-03-23T10:45:19Z</time>
      </trkpt>
      <trkpt lat="44.74206" lon="6.86855">
        <ele>2554.6</ele>
        <time>2026-03-23T10:45:20Z</time>
      </trkpt>
      <trkpt lat="44.74206" lon="6.86855">
        <ele>2554.6</ele>
        <time>2026-03-23T10:45:21Z</time>
      </trkpt>
      <trkpt lat="44.74206" lon="6.86856">
        <ele>2554.6</ele>
        <time>2026-03-23T10:45:22Z</time>
      </trkpt>
      <trkpt lat="44.74206" lon="6.86856">
        <ele>2555.5</ele>
        <time>2026-03-23T10:45:23Z</time>
      </trkpt>
      <trkpt lat="44.74206" lon="6.86857">
        <ele>2555.5</ele>
        <time>2026-03-23T10:45:24Z</time>
      </trkpt>
      <trkpt lat="44.74207" lon="6.86857">
        <ele>2556.4</ele>
        <time>2026-03-23T10:45:25Z</time>
      </trkpt>
      <trkpt lat="44.74208" lon="6.86856">
        <ele>2556.4</ele>
        <time>2026-03-23T10:45:26Z</time>
      </trkpt>
      <trkpt lat="44.74207" lon="6.86856">
        <ele>2556.4</ele>
        <time>2026-03-23T10:45:27Z</time>
      </trkpt>
      <trkpt lat="44.74207" lon="6.86857">
        <ele>2556.4</ele>
        <time>2026-03-23T10:45:28Z</time>
      </trkpt>
      <trkpt lat="44.74207" lon="6.86858">
        <ele>2555.6</ele>
        <time>2026-03-23T10:45:29Z</time>
      </trkpt>
      <trkpt lat="44.74206" lon="6.86859">
        <ele>2555.6</ele>
        <time>2026-03-23T10:45:30Z</time>
      </trkpt>
      <trkpt lat="44.74206" lon="6.8686">
        <ele>2555.6</ele>
        <time>2026-03-23T10:45:31Z</time>
      </trkpt>
      <trkpt lat="44.74206" lon="6.86861">
        <ele>2556.5</ele>
        <time>2026-03-23T10:45:32Z</time>
      </trkpt>
      <trkpt lat="44.74205" lon="6.86863">
        <ele>2556.5</ele>
        <time>2026-03-23T10:45:33Z</time>
      </trkpt>
      <trkpt lat="44.74205" lon="6.86864">
        <ele>2556.5</ele>
        <time>2026-03-23T10:45:34Z</time>
      </trkpt>
      <trkpt lat="44.74205" lon="6.86864">
        <ele>2556.5</ele>
        <time>2026-03-23T10:45:35Z</time>
      </trkpt>
      <trkpt lat="44.74204" lon="6.86865">
        <ele>2557.5</ele>
        <time>2026-03-23T10:45:36Z</time>
      </trkpt>
      <trkpt lat="44.74204" lon="6.86865">
        <ele>2557.5</ele>
        <time>2026-03-23T10:45:37Z</time>
      </trkpt>
      <trkpt lat="44.74204" lon="6.86866">
        <ele>2556.6</ele>
        <time>2026-03-23T10:45:38Z</time>
      </trkpt>
      <trkpt lat="44.74204" lon="6.86867">
        <ele>2556.6</ele>
        <time>2026-03-23T10:45:39Z</time>
      </trkpt>
      <trkpt lat="44.74204" lon="6.86867">
        <ele>2556.6</ele>
        <time>2026-03-23T10:45:40Z</time>
      </trkpt>
      <trkpt lat="44.74203" lon="6.86868">
        <ele>2556.6</ele>
        <time>2026-03-23T10:45:41Z</time>
      </trkpt>
      <trkpt lat="44.74203" lon="6.86868">
        <ele>2556.6</ele>
        <time>2026-03-23T10:45:42Z</time>
      </trkpt>
      <trkpt lat="44.74203" lon="6.86869">
        <ele>2557.5</ele>
        <time>2026-03-23T10:45:43Z</time>
      </trkpt>
      <trkpt lat="44.74203" lon="6.86869">
        <ele>2557.5</ele>
        <time>2026-03-23T10:45:44Z</time>
      </trkpt>
      <trkpt lat="44.74203" lon="6.86869">
        <ele>2557.6</ele>
        <time>2026-03-23T10:45:45Z</time>
      </trkpt>
      <trkpt lat="44.74203" lon="6.86869">
        <ele>2557.6</ele>
        <time>2026-03-23T10:45:46Z</time>
      </trkpt>
      <trkpt lat="44.74203" lon="6.86869">
        <ele>2557.6</ele>
        <time>2026-03-23T10:45:47Z</time>
      </trkpt>
      <trkpt lat="44.74203" lon="6.8687">
        <ele>2557.6</ele>
        <time>2026-03-23T10:45:48Z</time>
      </trkpt>
      <trkpt lat="44.74203" lon="6.8687">
        <ele>2557.6</ele>
        <time>2026-03-23T10:45:49Z</time>
      </trkpt>
      <trkpt lat="44.74202" lon="6.86871">
        <ele>2557.6</ele>
        <time>2026-03-23T10:45:50Z</time>
      </trkpt>
      <trkpt lat="44.74201" lon="6.86871">
        <ele>2557.6</ele>
        <time>2026-03-23T10:45:51Z</time>
      </trkpt>
      <trkpt lat="44.74201" lon="6.86872">
        <ele>2557.6</ele>
        <time>2026-03-23T10:45:52Z</time>
      </trkpt>
      <trkpt lat="44.74201" lon="6.86873">
        <ele>2557.6</ele>
        <time>2026-03-23T10:45:53Z</time>
      </trkpt>
      <trkpt lat="44.74201" lon="6.86873">
        <ele>2557.6</ele>
        <time>2026-03-23T10:45:54Z</time>
      </trkpt>
      <trkpt lat="44.74201" lon="6.86874">
        <ele>2558.6</ele>
        <time>2026-03-23T10:45:55Z</time>
      </trkpt>
      <trkpt lat="44.74201" lon="6.86874">
        <ele>2558.6</ele>
        <time>2026-03-23T10:45:56Z</time>
      </trkpt>
      <trkpt lat="44.74201" lon="6.86875">
        <ele>2557.6</ele>
        <time>2026-03-23T10:45:57Z</time>
      </trkpt>
      <trkpt lat="44.74201" lon="6.86876">
        <ele>2558.6</ele>
        <time>2026-03-23T10:45:58Z</time>
      </trkpt>
      <trkpt lat="44.74201" lon="6.86877">
        <ele>2558.6</ele>
        <time>2026-03-23T10:45:59Z</time>
      </trkpt>
      <trkpt lat="44.74201" lon="6.86877">
        <ele>2558.6</ele>
        <time>2026-03-23T10:46:00Z</time>
      </trkpt>
      <trkpt lat="44.742" lon="6.86877">
        <ele>2558.5</ele>
        <time>2026-03-23T10:46:01Z</time>
      </trkpt>
      <trkpt lat="44.742" lon="6.86878">
        <ele>2558.5</ele>
        <time>2026-03-23T10:46:02Z</time>
      </trkpt>
      <trkpt lat="44.742" lon="6.86879">
        <ele>2558.5</ele>
        <time>2026-03-23T10:46:03Z</time>
      </trkpt>
      <trkpt lat="44.742" lon="6.86879">
        <ele>2558.5</ele>
        <time>2026-03-23T10:46:04Z</time>
      </trkpt>
      <trkpt lat="44.742" lon="6.8688">
        <ele>2558.6</ele>
        <time>2026-03-23T10:46:05Z</time>
      </trkpt>
      <trkpt lat="44.742" lon="6.8688">
        <ele>2558.6</ele>
        <time>2026-03-23T10:46:06Z</time>
      </trkpt>
      <trkpt lat="44.74201" lon="6.86881">
        <ele>2558.6</ele>
        <time>2026-03-23T10:46:07Z</time>
      </trkpt>
      <trkpt lat="44.74201" lon="6.86881">
        <ele>2558.6</ele>
        <time>2026-03-23T10:46:08Z</time>
      </trkpt>
      <trkpt lat="44.742" lon="6.86882">
        <ele>2559.5</ele>
        <time>2026-03-23T10:46:09Z</time>
      </trkpt>
      <trkpt lat="44.742" lon="6.86883">
        <ele>2559.5</ele>
        <time>2026-03-23T10:46:10Z</time>
      </trkpt>
      <trkpt lat="44.742" lon="6.86884">
        <ele>2559.5</ele>
        <time>2026-03-23T10:46:11Z</time>
      </trkpt>
      <trkpt lat="44.742" lon="6.86885">
        <ele>2559.5</ele>
        <time>2026-03-23T10:46:12Z</time>
      </trkpt>
      <trkpt lat="44.742" lon="6.86885">
        <ele>2559.5</ele>
        <time>2026-03-23T10:46:13Z</time>
      </trkpt>
      <trkpt lat="44.742" lon="6.86885">
        <ele>2559.6</ele>
        <time>2026-03-23T10:46:14Z</time>
      </trkpt>
      <trkpt lat="44.742" lon="6.86885">
        <ele>2559.6</ele>
        <time>2026-03-23T10:46:15Z</time>
      </trkpt>
      <trkpt lat="44.742" lon="6.86887">
        <ele>2560.5</ele>
        <time>2026-03-23T10:46:16Z</time>
      </trkpt>
      <trkpt lat="44.742" lon="6.86887">
        <ele>2560.5</ele>
        <time>2026-03-23T10:46:17Z</time>
      </trkpt>
      <trkpt lat="44.74199" lon="6.86888">
        <ele>2560.5</ele>
        <time>2026-03-23T10:46:18Z</time>
      </trkpt>
      <trkpt lat="44.74199" lon="6.86889">
        <ele>2560.5</ele>
        <time>2026-03-23T10:46:19Z</time>
      </trkpt>
      <trkpt lat="44.74199" lon="6.86889">
        <ele>2560.5</ele>
        <time>2026-03-23T10:46:20Z</time>
      </trkpt>
      <trkpt lat="44.74199" lon="6.8689">
        <ele>2561.4</ele>
        <time>2026-03-23T10:46:21Z</time>
      </trkpt>
      <trkpt lat="44.74199" lon="6.86891">
        <ele>2561.4</ele>
        <time>2026-03-23T10:46:22Z</time>
      </trkpt>
      <trkpt lat="44.742" lon="6.86891">
        <ele>2561.4</ele>
        <time>2026-03-23T10:46:23Z</time>
      </trkpt>
      <trkpt lat="44.742" lon="6.86892">
        <ele>2561.4</ele>
        <time>2026-03-23T10:46:24Z</time>
      </trkpt>
      <trkpt lat="44.74199" lon="6.86892">
        <ele>2561.5</ele>
        <time>2026-03-23T10:46:25Z</time>
      </trkpt>
      <trkpt lat="44.74199" lon="6.86893">
        <ele>2561.5</ele>
        <time>2026-03-23T10:46:26Z</time>
      </trkpt>
      <trkpt lat="44.74199" lon="6.86893">
        <ele>2561.5</ele>
        <time>2026-03-23T10:46:27Z</time>
      </trkpt>
      <trkpt lat="44.74199" lon="6.86893">
        <ele>2561.5</ele>
        <time>2026-03-23T10:46:28Z</time>
      </trkpt>
      <trkpt lat="44.74198" lon="6.86894">
        <ele>2561.5</ele>
        <time>2026-03-23T10:46:29Z</time>
      </trkpt>
      <trkpt lat="44.74198" lon="6.86894">
        <ele>2561.5</ele>
        <time>2026-03-23T10:46:30Z</time>
      </trkpt>
      <trkpt lat="44.74198" lon="6.86895">
        <ele>2562.3</ele>
        <time>2026-03-23T10:46:31Z</time>
      </trkpt>
      <trkpt lat="44.74198" lon="6.86896">
        <ele>2562.3</ele>
        <time>2026-03-23T10:46:32Z</time>
      </trkpt>
      <trkpt lat="44.74198" lon="6.86896">
        <ele>2562.3</ele>
        <time>2026-03-23T10:46:33Z</time>
      </trkpt>
      <trkpt lat="44.74198" lon="6.86897">
        <ele>2562.4</ele>
        <time>2026-03-23T10:46:34Z</time>
      </trkpt>
      <trkpt lat="44.74198" lon="6.86897">
        <ele>2562.4</ele>
        <time>2026-03-23T10:46:35Z</time>
      </trkpt>
      <trkpt lat="44.74198" lon="6.86897">
        <ele>2562.4</ele>
        <time>2026-03-23T10:46:36Z</time>
      </trkpt>
      <trkpt lat="44.74199" lon="6.86897">
        <ele>2562.4</ele>
        <time>2026-03-23T10:46:37Z</time>
      </trkpt>
      <trkpt lat="44.74199" lon="6.86898">
        <ele>2562.4</ele>
        <time>2026-03-23T10:46:38Z</time>
      </trkpt>
      <trkpt lat="44.742" lon="6.86899">
        <ele>2562.4</ele>
        <time>2026-03-23T10:46:39Z</time>
      </trkpt>
      <trkpt lat="44.742" lon="6.869">
        <ele>2563.2</ele>
        <time>2026-03-23T10:46:40Z</time>
      </trkpt>
      <trkpt lat="44.742" lon="6.869">
        <ele>2563.2</ele>
        <time>2026-03-23T10:46:41Z</time>
      </trkpt>
      <trkpt lat="44.74199" lon="6.869">
        <ele>2563.2</ele>
        <time>2026-03-23T10:46:42Z</time>
      </trkpt>
      <trkpt lat="44.74199" lon="6.86901">
        <ele>2563.2</ele>
        <time>2026-03-23T10:46:43Z</time>
      </trkpt>
      <trkpt lat="44.74198" lon="6.86901">
        <ele>2563.2</ele>
        <time>2026-03-23T10:46:44Z</time>
      </trkpt>
      <trkpt lat="44.74198" lon="6.86902">
        <ele>2563.2</ele>
        <time>2026-03-23T10:46:45Z</time>
      </trkpt>
      <trkpt lat="44.74199" lon="6.86903">
        <ele>2563.2</ele>
        <time>2026-03-23T10:46:46Z</time>
      </trkpt>
      <trkpt lat="44.74199" lon="6.86903">
        <ele>2564.1</ele>
        <time>2026-03-23T10:46:47Z</time>
      </trkpt>
      <trkpt lat="44.74199" lon="6.86904">
        <ele>2564.1</ele>
        <time>2026-03-23T10:46:48Z</time>
      </trkpt>
      <trkpt lat="44.74199" lon="6.86904">
        <ele>2564.1</ele>
        <time>2026-03-23T10:46:49Z</time>
      </trkpt>
      <trkpt lat="44.74199" lon="6.86904">
        <ele>2564.1</ele>
        <time>2026-03-23T10:46:50Z</time>
      </trkpt>
      <trkpt lat="44.74199" lon="6.86904">
        <ele>2564.1</ele>
        <time>2026-03-23T10:46:51Z</time>
      </trkpt>
      <trkpt lat="44.74199" lon="6.86905">
        <ele>2564.1</ele>
        <time>2026-03-23T10:46:52Z</time>
      </trkpt>
      <trkpt lat="44.74199" lon="6.86905">
        <ele>2564.1</ele>
        <time>2026-03-23T10:46:53Z</time>
      </trkpt>
      <trkpt lat="44.74199" lon="6.86905">
        <ele>2564.1</ele>
        <time>2026-03-23T10:46:54Z</time>
      </trkpt>
      <trkpt lat="44.742" lon="6.86906">
        <ele>2564.1</ele>
        <time>2026-03-23T10:46:55Z</time>
      </trkpt>
      <trkpt lat="44.742" lon="6.86906">
        <ele>2564.1</ele>
        <time>2026-03-23T10:46:56Z</time>
      </trkpt>
      <trkpt lat="44.742" lon="6.86907">
        <ele>2564.1</ele>
        <time>2026-03-23T10:46:57Z</time>
      </trkpt>
      <trkpt lat="44.742" lon="6.86907">
        <ele>2564.1</ele>
        <time>2026-03-23T10:46:58Z</time>
      </trkpt>
      <trkpt lat="44.742" lon="6.86907">
        <ele>2564.1</ele>
        <time>2026-03-23T10:46:59Z</time>
      </trkpt>
      <trkpt lat="44.74201" lon="6.86907">
        <ele>2564.1</ele>
        <time>2026-03-23T10:47:00Z</time>
      </trkpt>
      <trkpt lat="44.74201" lon="6.86907">
        <ele>2565</ele>
        <time>2026-03-23T10:47:01Z</time>
      </trkpt>
      <trkpt lat="44.74201" lon="6.86908">
        <ele>2566.1</ele>
        <time>2026-03-23T10:47:02Z</time>
      </trkpt>
      <trkpt lat="44.74201" lon="6.86908">
        <ele>2566.1</ele>
        <time>2026-03-23T10:47:03Z</time>
      </trkpt>
      <trkpt lat="44.74202" lon="6.86908">
        <ele>2566.1</ele>
        <time>2026-03-23T10:47:04Z</time>
      </trkpt>
      <trkpt lat="44.74202" lon="6.86908">
        <ele>2566.1</ele>
        <time>2026-03-23T10:47:05Z</time>
      </trkpt>
      <trkpt lat="44.74202" lon="6.86908">
        <ele>2566.1</ele>
        <time>2026-03-23T10:47:06Z</time>
      </trkpt>
      <trkpt lat="44.74203" lon="6.86908">
        <ele>2566.1</ele>
        <time>2026-03-23T10:47:07Z</time>
      </trkpt>
      <trkpt lat="44.74203" lon="6.86909">
        <ele>2566.1</ele>
        <time>2026-03-23T10:47:08Z</time>
      </trkpt>
      <trkpt lat="44.74204" lon="6.86909">
        <ele>2566.1</ele>
        <time>2026-03-23T10:47:09Z</time>
      </trkpt>
      <trkpt lat="44.74204" lon="6.86909">
        <ele>2567.1</ele>
        <time>2026-03-23T10:47:10Z</time>
      </trkpt>
      <trkpt lat="44.74205" lon="6.86909">
        <ele>2567.1</ele>
        <time>2026-03-23T10:47:11Z</time>
      </trkpt>
      <trkpt lat="44.74205" lon="6.86909">
        <ele>2567.1</ele>
        <time>2026-03-23T10:47:12Z</time>
      </trkpt>
      <trkpt lat="44.74205" lon="6.86909">
        <ele>2567.1</ele>
        <time>2026-03-23T10:47:13Z</time>
      </trkpt>
      <trkpt lat="44.74206" lon="6.86909">
        <ele>2567.1</ele>
        <time>2026-03-23T10:47:14Z</time>
      </trkpt>
      <trkpt lat="44.74206" lon="6.86909">
        <ele>2567.2</ele>
        <time>2026-03-23T10:47:15Z</time>
      </trkpt>
      <trkpt lat="44.74206" lon="6.86909">
        <ele>2567.2</ele>
        <time>2026-03-23T10:47:16Z</time>
      </trkpt>
      <trkpt lat="44.74207" lon="6.86909">
        <ele>2567.2</ele>
        <time>2026-03-23T10:47:17Z</time>
      </trkpt>
      <trkpt lat="44.74207" lon="6.86909">
        <ele>2567.2</ele>
        <time>2026-03-23T10:47:18Z</time>
      </trkpt>
      <trkpt lat="44.74207" lon="6.86909">
        <ele>2568.2</ele>
        <time>2026-03-23T10:47:19Z</time>
      </trkpt>
      <trkpt lat="44.74207" lon="6.86909">
        <ele>2568.2</ele>
        <time>2026-03-23T10:47:20Z</time>
      </trkpt>
      <trkpt lat="44.74208" lon="6.86908">
        <ele>2568.2</ele>
        <time>2026-03-23T10:47:21Z</time>
      </trkpt>
      <trkpt lat="44.74208" lon="6.86908">
        <ele>2568.2</ele>
        <time>2026-03-23T10:47:22Z</time>
      </trkpt>
      <trkpt lat="44.74209" lon="6.86907">
        <ele>2567.3</ele>
        <time>2026-03-23T10:47:23Z</time>
      </trkpt>
      <trkpt lat="44.74209" lon="6.86907">
        <ele>2568.2</ele>
        <time>2026-03-23T10:47:24Z</time>
      </trkpt>
      <trkpt lat="44.74209" lon="6.86908">
        <ele>2568.2</ele>
        <time>2026-03-23T10:47:25Z</time>
      </trkpt>
      <trkpt lat="44.74209" lon="6.86909">
        <ele>2568.2</ele>
        <time>2026-03-23T10:47:26Z</time>
      </trkpt>
      <trkpt lat="44.74209" lon="6.86909">
        <ele>2568.2</ele>
        <time>2026-03-23T10:47:27Z</time>
      </trkpt>
      <trkpt lat="44.74209" lon="6.86909">
        <ele>2568.2</ele>
        <time>2026-03-23T10:47:28Z</time>
      </trkpt>
      <trkpt lat="44.74209" lon="6.8691">
        <ele>2568.2</ele>
        <time>2026-03-23T10:47:29Z</time>
      </trkpt>
      <trkpt lat="44.7421" lon="6.86911">
        <ele>2568.2</ele>
        <time>2026-03-23T10:47:30Z</time>
      </trkpt>
      <trkpt lat="44.7421" lon="6.86912">
        <ele>2569.2</ele>
        <time>2026-03-23T10:47:31Z</time>
      </trkpt>
      <trkpt lat="44.74211" lon="6.86912">
        <ele>2570.2</ele>
        <time>2026-03-23T10:47:32Z</time>
      </trkpt>
      <trkpt lat="44.74211" lon="6.86913">
        <ele>2570.2</ele>
        <time>2026-03-23T10:47:33Z</time>
      </trkpt>
      <trkpt lat="44.74211" lon="6.86913">
        <ele>2570.2</ele>
        <time>2026-03-23T10:47:34Z</time>
      </trkpt>
      <trkpt lat="44.7421" lon="6.86914">
        <ele>2570.2</ele>
        <time>2026-03-23T10:47:35Z</time>
      </trkpt>
      <trkpt lat="44.74211" lon="6.86915">
        <ele>2570.2</ele>
        <time>2026-03-23T10:47:36Z</time>
      </trkpt>
      <trkpt lat="44.74211" lon="6.86915">
        <ele>2570.2</ele>
        <time>2026-03-23T10:47:37Z</time>
      </trkpt>
      <trkpt lat="44.74211" lon="6.86917">
        <ele>2571.2</ele>
        <time>2026-03-23T10:47:38Z</time>
      </trkpt>
      <trkpt lat="44.74211" lon="6.86918">
        <ele>2571.2</ele>
        <time>2026-03-23T10:47:39Z</time>
      </trkpt>
      <trkpt lat="44.74211" lon="6.86919">
        <ele>2571.2</ele>
        <time>2026-03-23T10:47:40Z</time>
      </trkpt>
      <trkpt lat="44.74211" lon="6.8692">
        <ele>2571.2</ele>
        <time>2026-03-23T10:47:41Z</time>
      </trkpt>
      <trkpt lat="44.74211" lon="6.86921">
        <ele>2572.2</ele>
        <time>2026-03-23T10:47:42Z</time>
      </trkpt>
      <trkpt lat="44.74211" lon="6.86921">
        <ele>2572.2</ele>
        <time>2026-03-23T10:47:43Z</time>
      </trkpt>
      <trkpt lat="44.74211" lon="6.86922">
        <ele>2572.2</ele>
        <time>2026-03-23T10:47:44Z</time>
      </trkpt>
      <trkpt lat="44.74211" lon="6.86922">
        <ele>2572.2</ele>
        <time>2026-03-23T10:47:45Z</time>
      </trkpt>
      <trkpt lat="44.74211" lon="6.86923">
        <ele>2572.2</ele>
        <time>2026-03-23T10:47:46Z</time>
      </trkpt>
      <trkpt lat="44.74212" lon="6.86923">
        <ele>2572.2</ele>
        <time>2026-03-23T10:47:47Z</time>
      </trkpt>
      <trkpt lat="44.74212" lon="6.86924">
        <ele>2572.2</ele>
        <time>2026-03-23T10:47:48Z</time>
      </trkpt>
      <trkpt lat="44.74212" lon="6.86924">
        <ele>2572.2</ele>
        <time>2026-03-23T10:47:49Z</time>
      </trkpt>
      <trkpt lat="44.74212" lon="6.86925">
        <ele>2573.3</ele>
        <time>2026-03-23T10:47:50Z</time>
      </trkpt>
      <trkpt lat="44.74212" lon="6.86925">
        <ele>2573.3</ele>
        <time>2026-03-23T10:47:51Z</time>
      </trkpt>
      <trkpt lat="44.74213" lon="6.86926">
        <ele>2573.3</ele>
        <time>2026-03-23T10:47:52Z</time>
      </trkpt>
      <trkpt lat="44.74213" lon="6.86926">
        <ele>2573.3</ele>
        <time>2026-03-23T10:47:53Z</time>
      </trkpt>
      <trkpt lat="44.74213" lon="6.86927">
        <ele>2574.3</ele>
        <time>2026-03-23T10:47:54Z</time>
      </trkpt>
      <trkpt lat="44.74213" lon="6.86928">
        <ele>2574.3</ele>
        <time>2026-03-23T10:47:55Z</time>
      </trkpt>
      <trkpt lat="44.74213" lon="6.86928">
        <ele>2574.3</ele>
        <time>2026-03-23T10:47:56Z</time>
      </trkpt>
      <trkpt lat="44.74213" lon="6.86928">
        <ele>2574.3</ele>
        <time>2026-03-23T10:47:57Z</time>
      </trkpt>
      <trkpt lat="44.74213" lon="6.86929">
        <ele>2574.4</ele>
        <time>2026-03-23T10:47:58Z</time>
      </trkpt>
      <trkpt lat="44.74213" lon="6.86928">
        <ele>2574.4</ele>
        <time>2026-03-23T10:47:59Z</time>
      </trkpt>
      <trkpt lat="44.74213" lon="6.86928">
        <ele>2574.4</ele>
        <time>2026-03-23T10:48:00Z</time>
      </trkpt>
      <trkpt lat="44.74213" lon="6.86928">
        <ele>2574.4</ele>
        <time>2026-03-23T10:48:01Z</time>
      </trkpt>
      <trkpt lat="44.74213" lon="6.86929">
        <ele>2573.3</ele>
        <time>2026-03-23T10:48:02Z</time>
      </trkpt>
      <trkpt lat="44.74213" lon="6.86929">
        <ele>2573.3</ele>
        <time>2026-03-23T10:48:03Z</time>
      </trkpt>
      <trkpt lat="44.74213" lon="6.86929">
        <ele>2575.4</ele>
        <time>2026-03-23T10:48:04Z</time>
      </trkpt>
      <trkpt lat="44.74213" lon="6.86929">
        <ele>2574.3</ele>
        <time>2026-03-23T10:48:05Z</time>
      </trkpt>
      <trkpt lat="44.74212" lon="6.86929">
        <ele>2574.3</ele>
        <time>2026-03-23T10:48:06Z</time>
      </trkpt>
      <trkpt lat="44.74213" lon="6.86929">
        <ele>2574.3</ele>
        <time>2026-03-23T10:48:07Z</time>
      </trkpt>
      <trkpt lat="44.74213" lon="6.86929">
        <ele>2573.4</ele>
        <time>2026-03-23T10:48:08Z</time>
      </trkpt>
      <trkpt lat="44.74213" lon="6.86929">
        <ele>2574.4</ele>
        <time>2026-03-23T10:48:09Z</time>
      </trkpt>
      <trkpt lat="44.74213" lon="6.86929">
        <ele>2574.4</ele>
        <time>2026-03-23T10:48:10Z</time>
      </trkpt>
      <trkpt lat="44.74214" lon="6.86929">
        <ele>2574.4</ele>
        <time>2026-03-23T10:48:11Z</time>
      </trkpt>
      <trkpt lat="44.74214" lon="6.86929">
        <ele>2574.4</ele>
        <time>2026-03-23T10:48:12Z</time>
      </trkpt>
      <trkpt lat="44.74214" lon="6.86928">
        <ele>2574.4</ele>
        <time>2026-03-23T10:48:13Z</time>
      </trkpt>
      <trkpt lat="44.74215" lon="6.86928">
        <ele>2574.5</ele>
        <time>2026-03-23T10:48:14Z</time>
      </trkpt>
      <trkpt lat="44.74215" lon="6.86928">
        <ele>2574.5</ele>
        <time>2026-03-23T10:48:15Z</time>
      </trkpt>
      <trkpt lat="44.74215" lon="6.86928">
        <ele>2574.5</ele>
        <time>2026-03-23T10:48:16Z</time>
      </trkpt>
      <trkpt lat="44.74216" lon="6.86928">
        <ele>2574.5</ele>
        <time>2026-03-23T10:48:17Z</time>
      </trkpt>
      <trkpt lat="44.74215" lon="6.86929">
        <ele>2574.5</ele>
        <time>2026-03-23T10:48:18Z</time>
      </trkpt>
      <trkpt lat="44.74215" lon="6.86928">
        <ele>2574.5</ele>
        <time>2026-03-23T10:48:19Z</time>
      </trkpt>
      <trkpt lat="44.74216" lon="6.86928">
        <ele>2574.5</ele>
        <time>2026-03-23T10:48:20Z</time>
      </trkpt>
      <trkpt lat="44.74216" lon="6.86928">
        <ele>2574.5</ele>
        <time>2026-03-23T10:48:21Z</time>
      </trkpt>
      <trkpt lat="44.74216" lon="6.86928">
        <ele>2575.6</ele>
        <time>2026-03-23T10:48:22Z</time>
      </trkpt>
      <trkpt lat="44.74216" lon="6.86928">
        <ele>2575.7</ele>
        <time>2026-03-23T10:48:23Z</time>
      </trkpt>
      <trkpt lat="44.74217" lon="6.86927">
        <ele>2575.7</ele>
        <time>2026-03-23T10:48:24Z</time>
      </trkpt>
      <trkpt lat="44.74217" lon="6.86926">
        <ele>2575.7</ele>
        <time>2026-03-23T10:48:25Z</time>
      </trkpt>
      <trkpt lat="44.74218" lon="6.86925">
        <ele>2575.7</ele>
        <time>2026-03-23T10:48:26Z</time>
      </trkpt>
      <trkpt lat="44.74218" lon="6.86925">
        <ele>2575.7</ele>
        <time>2026-03-23T10:48:27Z</time>
      </trkpt>
      <trkpt lat="44.74218" lon="6.86925">
        <ele>2575.7</ele>
        <time>2026-03-23T10:48:28Z</time>
      </trkpt>
      <trkpt lat="44.74218" lon="6.86925">
        <ele>2575.7</ele>
        <time>2026-03-23T10:48:29Z</time>
      </trkpt>
      <trkpt lat="44.74218" lon="6.86925">
        <ele>2575.7</ele>
        <time>2026-03-23T10:48:30Z</time>
      </trkpt>
      <trkpt lat="44.74219" lon="6.86924">
        <ele>2574.7</ele>
        <time>2026-03-23T10:48:31Z</time>
      </trkpt>
      <trkpt lat="44.74219" lon="6.86924">
        <ele>2574.7</ele>
        <time>2026-03-23T10:48:32Z</time>
      </trkpt>
      <trkpt lat="44.74219" lon="6.86924">
        <ele>2574.7</ele>
        <time>2026-03-23T10:48:33Z</time>
      </trkpt>
      <trkpt lat="44.7422" lon="6.86923">
        <ele>2575.9</ele>
        <time>2026-03-23T10:48:34Z</time>
      </trkpt>
      <trkpt lat="44.7422" lon="6.86923">
        <ele>2575.9</ele>
        <time>2026-03-23T10:48:35Z</time>
      </trkpt>
      <trkpt lat="44.7422" lon="6.86922">
        <ele>2576</ele>
        <time>2026-03-23T10:48:36Z</time>
      </trkpt>
      <trkpt lat="44.74221" lon="6.86921">
        <ele>2576</ele>
        <time>2026-03-23T10:48:37Z</time>
      </trkpt>
      <trkpt lat="44.74221" lon="6.86921">
        <ele>2576</ele>
        <time>2026-03-23T10:48:38Z</time>
      </trkpt>
      <trkpt lat="44.74221" lon="6.8692">
        <ele>2576</ele>
        <time>2026-03-23T10:48:39Z</time>
      </trkpt>
      <trkpt lat="44.74222" lon="6.8692">
        <ele>2575</ele>
        <time>2026-03-23T10:48:40Z</time>
      </trkpt>
      <trkpt lat="44.74222" lon="6.86919">
        <ele>2575</ele>
        <time>2026-03-23T10:48:41Z</time>
      </trkpt>
      <trkpt lat="44.74222" lon="6.86919">
        <ele>2576.2</ele>
        <time>2026-03-23T10:48:42Z</time>
      </trkpt>
      <trkpt lat="44.74223" lon="6.8692">
        <ele>2576.2</ele>
        <time>2026-03-23T10:48:43Z</time>
      </trkpt>
      <trkpt lat="44.74224" lon="6.8692">
        <ele>2576.2</ele>
        <time>2026-03-23T10:48:44Z</time>
      </trkpt>
      <trkpt lat="44.74224" lon="6.8692">
        <ele>2576.3</ele>
        <time>2026-03-23T10:48:45Z</time>
      </trkpt>
      <trkpt lat="44.74225" lon="6.86919">
        <ele>2576.3</ele>
        <time>2026-03-23T10:48:46Z</time>
      </trkpt>
      <trkpt lat="44.74225" lon="6.86919">
        <ele>2576.3</ele>
        <time>2026-03-23T10:48:47Z</time>
      </trkpt>
      <trkpt lat="44.74226" lon="6.86919">
        <ele>2577.5</ele>
        <time>2026-03-23T10:48:48Z</time>
      </trkpt>
      <trkpt lat="44.74226" lon="6.86918">
        <ele>2577.5</ele>
        <time>2026-03-23T10:48:49Z</time>
      </trkpt>
      <trkpt lat="44.74226" lon="6.86918">
        <ele>2577.5</ele>
        <time>2026-03-23T10:48:50Z</time>
      </trkpt>
      <trkpt lat="44.74227" lon="6.86918">
        <ele>2577.5</ele>
        <time>2026-03-23T10:48:51Z</time>
      </trkpt>
      <trkpt lat="44.74227" lon="6.86918">
        <ele>2577.5</ele>
        <time>2026-03-23T10:48:52Z</time>
      </trkpt>
      <trkpt lat="44.74228" lon="6.86918">
        <ele>2577.5</ele>
        <time>2026-03-23T10:48:53Z</time>
      </trkpt>
      <trkpt lat="44.74228" lon="6.86918">
        <ele>2577.5</ele>
        <time>2026-03-23T10:48:54Z</time>
      </trkpt>
      <trkpt lat="44.74228" lon="6.86917">
        <ele>2578.7</ele>
        <time>2026-03-23T10:48:55Z</time>
      </trkpt>
      <trkpt lat="44.74229" lon="6.86917">
        <ele>2578.7</ele>
        <time>2026-03-23T10:48:56Z</time>
      </trkpt>
      <trkpt lat="44.74229" lon="6.86917">
        <ele>2578.7</ele>
        <time>2026-03-23T10:48:57Z</time>
      </trkpt>
      <trkpt lat="44.74229" lon="6.86918">
        <ele>2578.7</ele>
        <time>2026-03-23T10:48:58Z</time>
      </trkpt>
      <trkpt lat="44.7423" lon="6.86918">
        <ele>2578.7</ele>
        <time>2026-03-23T10:48:59Z</time>
      </trkpt>
      <trkpt lat="44.7423" lon="6.86919">
        <ele>2578.7</ele>
        <time>2026-03-23T10:49:00Z</time>
      </trkpt>
      <trkpt lat="44.74231" lon="6.86919">
        <ele>2578.7</ele>
        <time>2026-03-23T10:49:01Z</time>
      </trkpt>
      <trkpt lat="44.74231" lon="6.86919">
        <ele>2579.8</ele>
        <time>2026-03-23T10:49:02Z</time>
      </trkpt>
      <trkpt lat="44.74232" lon="6.86919">
        <ele>2579.8</ele>
        <time>2026-03-23T10:49:03Z</time>
      </trkpt>
      <trkpt lat="44.74232" lon="6.8692">
        <ele>2579.8</ele>
        <time>2026-03-23T10:49:04Z</time>
      </trkpt>
      <trkpt lat="44.74233" lon="6.8692">
        <ele>2579.8</ele>
        <time>2026-03-23T10:49:05Z</time>
      </trkpt>
      <trkpt lat="44.74233" lon="6.8692">
        <ele>2580.8</ele>
        <time>2026-03-23T10:49:06Z</time>
      </trkpt>
      <trkpt lat="44.74233" lon="6.8692">
        <ele>2580.8</ele>
        <time>2026-03-23T10:49:07Z</time>
      </trkpt>
      <trkpt lat="44.74234" lon="6.86921">
        <ele>2580.8</ele>
        <time>2026-03-23T10:49:08Z</time>
      </trkpt>
      <trkpt lat="44.74234" lon="6.86921">
        <ele>2580.8</ele>
        <time>2026-03-23T10:49:09Z</time>
      </trkpt>
      <trkpt lat="44.74235" lon="6.86921">
        <ele>2581.8</ele>
        <time>2026-03-23T10:49:10Z</time>
      </trkpt>
      <trkpt lat="44.74235" lon="6.86921">
        <ele>2581.8</ele>
        <time>2026-03-23T10:49:11Z</time>
      </trkpt>
      <trkpt lat="44.74235" lon="6.86921">
        <ele>2581.8</ele>
        <time>2026-03-23T10:49:12Z</time>
      </trkpt>
      <trkpt lat="44.74236" lon="6.86921">
        <ele>2581.8</ele>
        <time>2026-03-23T10:49:13Z</time>
      </trkpt>
      <trkpt lat="44.74236" lon="6.86921">
        <ele>2581.8</ele>
        <time>2026-03-23T10:49:14Z</time>
      </trkpt>
      <trkpt lat="44.74237" lon="6.86921">
        <ele>2581.8</ele>
        <time>2026-03-23T10:49:15Z</time>
      </trkpt>
      <trkpt lat="44.74237" lon="6.86922">
        <ele>2581.8</ele>
        <time>2026-03-23T10:49:16Z</time>
      </trkpt>
      <trkpt lat="44.74237" lon="6.86922">
        <ele>2581.8</ele>
        <time>2026-03-23T10:49:17Z</time>
      </trkpt>
      <trkpt lat="44.74237" lon="6.86922">
        <ele>2581.9</ele>
        <time>2026-03-23T10:49:18Z</time>
      </trkpt>
      <trkpt lat="44.74238" lon="6.86923">
        <ele>2582.9</ele>
        <time>2026-03-23T10:49:19Z</time>
      </trkpt>
      <trkpt lat="44.74238" lon="6.86923">
        <ele>2582.9</ele>
        <time>2026-03-23T10:49:20Z</time>
      </trkpt>
      <trkpt lat="44.74238" lon="6.86924">
        <ele>2582.9</ele>
        <time>2026-03-23T10:49:21Z</time>
      </trkpt>
      <trkpt lat="44.74239" lon="6.86924">
        <ele>2582.9</ele>
        <time>2026-03-23T10:49:22Z</time>
      </trkpt>
      <trkpt lat="44.74239" lon="6.86924">
        <ele>2582.9</ele>
        <time>2026-03-23T10:49:23Z</time>
      </trkpt>
      <trkpt lat="44.74239" lon="6.86924">
        <ele>2582.9</ele>
        <time>2026-03-23T10:49:24Z</time>
      </trkpt>
      <trkpt lat="44.74239" lon="6.86924">
        <ele>2582.9</ele>
        <time>2026-03-23T10:49:25Z</time>
      </trkpt>
      <trkpt lat="44.74239" lon="6.86925">
        <ele>2583.9</ele>
        <time>2026-03-23T10:49:26Z</time>
      </trkpt>
      <trkpt lat="44.7424" lon="6.86925">
        <ele>2583.9</ele>
        <time>2026-03-23T10:49:27Z</time>
      </trkpt>
      <trkpt lat="44.7424" lon="6.86925">
        <ele>2583.9</ele>
        <time>2026-03-23T10:49:28Z</time>
      </trkpt>
      <trkpt lat="44.7424" lon="6.86925">
        <ele>2583.9</ele>
        <time>2026-03-23T10:49:29Z</time>
      </trkpt>
      <trkpt lat="44.7424" lon="6.86925">
        <ele>2583.9</ele>
        <time>2026-03-23T10:49:30Z</time>
      </trkpt>
      <trkpt lat="44.7424" lon="6.86925">
        <ele>2583.9</ele>
        <time>2026-03-23T10:49:31Z</time>
      </trkpt>
      <trkpt lat="44.74241" lon="6.86925">
        <ele>2584.9</ele>
        <time>2026-03-23T10:49:32Z</time>
      </trkpt>
      <trkpt lat="44.74241" lon="6.86926">
        <ele>2585</ele>
        <time>2026-03-23T10:49:33Z</time>
      </trkpt>
      <trkpt lat="44.74241" lon="6.86926">
        <ele>2585</ele>
        <time>2026-03-23T10:49:34Z</time>
      </trkpt>
      <trkpt lat="44.74242" lon="6.86926">
        <ele>2585</ele>
        <time>2026-03-23T10:49:35Z</time>
      </trkpt>
      <trkpt lat="44.74242" lon="6.86927">
        <ele>2585</ele>
        <time>2026-03-23T10:49:36Z</time>
      </trkpt>
      <trkpt lat="44.74242" lon="6.86927">
        <ele>2585</ele>
        <time>2026-03-23T10:49:37Z</time>
      </trkpt>
      <trkpt lat="44.74242" lon="6.86928">
        <ele>2585</ele>
        <time>2026-03-23T10:49:38Z</time>
      </trkpt>
      <trkpt lat="44.74243" lon="6.86928">
        <ele>2585</ele>
        <time>2026-03-23T10:49:39Z</time>
      </trkpt>
      <trkpt lat="44.74243" lon="6.86928">
        <ele>2585</ele>
        <time>2026-03-23T10:49:40Z</time>
      </trkpt>
      <trkpt lat="44.74243" lon="6.86929">
        <ele>2585</ele>
        <time>2026-03-23T10:49:41Z</time>
      </trkpt>
      <trkpt lat="44.74244" lon="6.86929">
        <ele>2586.1</ele>
        <time>2026-03-23T10:49:42Z</time>
      </trkpt>
      <trkpt lat="44.74245" lon="6.86929">
        <ele>2586.1</ele>
        <time>2026-03-23T10:49:43Z</time>
      </trkpt>
      <trkpt lat="44.74245" lon="6.86929">
        <ele>2586.1</ele>
        <time>2026-03-23T10:49:44Z</time>
      </trkpt>
      <trkpt lat="44.74245" lon="6.86929">
        <ele>2587.1</ele>
        <time>2026-03-23T10:49:45Z</time>
      </trkpt>
      <trkpt lat="44.74245" lon="6.8693">
        <ele>2587.1</ele>
        <time>2026-03-23T10:49:46Z</time>
      </trkpt>
      <trkpt lat="44.74245" lon="6.8693">
        <ele>2587.1</ele>
        <time>2026-03-23T10:49:47Z</time>
      </trkpt>
      <trkpt lat="44.74245" lon="6.8693">
        <ele>2587.1</ele>
        <time>2026-03-23T10:49:48Z</time>
      </trkpt>
      <trkpt lat="44.74245" lon="6.86931">
        <ele>2587.1</ele>
        <time>2026-03-23T10:49:49Z</time>
      </trkpt>
      <trkpt lat="44.74245" lon="6.86931">
        <ele>2587.1</ele>
        <time>2026-03-23T10:49:50Z</time>
      </trkpt>
      <trkpt lat="44.74246" lon="6.86931">
        <ele>2587.1</ele>
        <time>2026-03-23T10:49:51Z</time>
      </trkpt>
      <trkpt lat="44.74246" lon="6.86932">
        <ele>2587.1</ele>
        <time>2026-03-23T10:49:52Z</time>
      </trkpt>
      <trkpt lat="44.74247" lon="6.86933">
        <ele>2588.2</ele>
        <time>2026-03-23T10:49:53Z</time>
      </trkpt>
      <trkpt lat="44.74247" lon="6.86933">
        <ele>2589.1</ele>
        <time>2026-03-23T10:49:54Z</time>
      </trkpt>
      <trkpt lat="44.74247" lon="6.86934">
        <ele>2589.2</ele>
        <time>2026-03-23T10:49:55Z</time>
      </trkpt>
      <trkpt lat="44.74247" lon="6.86934">
        <ele>2589.2</ele>
        <time>2026-03-23T10:49:56Z</time>
      </trkpt>
      <trkpt lat="44.74247" lon="6.86935">
        <ele>2589.2</ele>
        <time>2026-03-23T10:49:57Z</time>
      </trkpt>
      <trkpt lat="44.74248" lon="6.86935">
        <ele>2589.2</ele>
        <time>2026-03-23T10:49:58Z</time>
      </trkpt>
      <trkpt lat="44.74248" lon="6.86936">
        <ele>2589.2</ele>
        <time>2026-03-23T10:49:59Z</time>
      </trkpt>
      <trkpt lat="44.74248" lon="6.86936">
        <ele>2589.2</ele>
        <time>2026-03-23T10:50:00Z</time>
      </trkpt>
      <trkpt lat="44.74248" lon="6.86937">
        <ele>2589.2</ele>
        <time>2026-03-23T10:50:01Z</time>
      </trkpt>
      <trkpt lat="44.74248" lon="6.86937">
        <ele>2589.2</ele>
        <time>2026-03-23T10:50:02Z</time>
      </trkpt>
      <trkpt lat="44.74248" lon="6.86937">
        <ele>2589.2</ele>
        <time>2026-03-23T10:50:03Z</time>
      </trkpt>
      <trkpt lat="44.74248" lon="6.86937">
        <ele>2589.2</ele>
        <time>2026-03-23T10:50:04Z</time>
      </trkpt>
      <trkpt lat="44.74248" lon="6.86937">
        <ele>2589.2</ele>
        <time>2026-03-23T10:50:05Z</time>
      </trkpt>
      <trkpt lat="44.74248" lon="6.86938">
        <ele>2590.1</ele>
        <time>2026-03-23T10:50:06Z</time>
      </trkpt>
      <trkpt lat="44.74249" lon="6.86938">
        <ele>2590.1</ele>
        <time>2026-03-23T10:50:07Z</time>
      </trkpt>
      <trkpt lat="44.74249" lon="6.86937">
        <ele>2589.2</ele>
        <time>2026-03-23T10:50:08Z</time>
      </trkpt>
      <trkpt lat="44.74249" lon="6.86937">
        <ele>2590.2</ele>
        <time>2026-03-23T10:50:09Z</time>
      </trkpt>
      <trkpt lat="44.74249" lon="6.86937">
        <ele>2590.2</ele>
        <time>2026-03-23T10:50:10Z</time>
      </trkpt>
      <trkpt lat="44.74249" lon="6.86938">
        <ele>2590.2</ele>
        <time>2026-03-23T10:50:11Z</time>
      </trkpt>
      <trkpt lat="44.7425" lon="6.86937">
        <ele>2590.2</ele>
        <time>2026-03-23T10:50:12Z</time>
      </trkpt>
      <trkpt lat="44.7425" lon="6.86938">
        <ele>2591.2</ele>
        <time>2026-03-23T10:50:13Z</time>
      </trkpt>
      <trkpt lat="44.7425" lon="6.86938">
        <ele>2591.2</ele>
        <time>2026-03-23T10:50:14Z</time>
      </trkpt>
      <trkpt lat="44.7425" lon="6.86939">
        <ele>2590.2</ele>
        <time>2026-03-23T10:50:15Z</time>
      </trkpt>
      <trkpt lat="44.7425" lon="6.86939">
        <ele>2591.3</ele>
        <time>2026-03-23T10:50:16Z</time>
      </trkpt>
      <trkpt lat="44.7425" lon="6.86939">
        <ele>2591.3</ele>
        <time>2026-03-23T10:50:17Z</time>
      </trkpt>
      <trkpt lat="44.74251" lon="6.86939">
        <ele>2591.3</ele>
        <time>2026-03-23T10:50:18Z</time>
      </trkpt>
      <trkpt lat="44.74251" lon="6.8694">
        <ele>2591.3</ele>
        <time>2026-03-23T10:50:19Z</time>
      </trkpt>
      <trkpt lat="44.74251" lon="6.8694">
        <ele>2591.3</ele>
        <time>2026-03-23T10:50:20Z</time>
      </trkpt>
      <trkpt lat="44.74251" lon="6.8694">
        <ele>2591.3</ele>
        <time>2026-03-23T10:50:21Z</time>
      </trkpt>
      <trkpt lat="44.74251" lon="6.86941">
        <ele>2591.3</ele>
        <time>2026-03-23T10:50:22Z</time>
      </trkpt>
      <trkpt lat="44.74252" lon="6.86942">
        <ele>2592.2</ele>
        <time>2026-03-23T10:50:23Z</time>
      </trkpt>
      <trkpt lat="44.74252" lon="6.86942">
        <ele>2592.2</ele>
        <time>2026-03-23T10:50:24Z</time>
      </trkpt>
      <trkpt lat="44.74252" lon="6.86943">
        <ele>2592.2</ele>
        <time>2026-03-23T10:50:25Z</time>
      </trkpt>
      <trkpt lat="44.74252" lon="6.86943">
        <ele>2592.2</ele>
        <time>2026-03-23T10:50:26Z</time>
      </trkpt>
      <trkpt lat="44.74252" lon="6.86944">
        <ele>2592.2</ele>
        <time>2026-03-23T10:50:27Z</time>
      </trkpt>
      <trkpt lat="44.74252" lon="6.86945">
        <ele>2592.2</ele>
        <time>2026-03-23T10:50:28Z</time>
      </trkpt>
      <trkpt lat="44.74253" lon="6.86945">
        <ele>2593.2</ele>
        <time>2026-03-23T10:50:29Z</time>
      </trkpt>
      <trkpt lat="44.74254" lon="6.86946">
        <ele>2593.2</ele>
        <time>2026-03-23T10:50:30Z</time>
      </trkpt>
      <trkpt lat="44.74254" lon="6.86946">
        <ele>2594.1</ele>
        <time>2026-03-23T10:50:31Z</time>
      </trkpt>
      <trkpt lat="44.74254" lon="6.86947">
        <ele>2594.1</ele>
        <time>2026-03-23T10:50:32Z</time>
      </trkpt>
      <trkpt lat="44.74254" lon="6.86948">
        <ele>2594.1</ele>
        <time>2026-03-23T10:50:33Z</time>
      </trkpt>
      <trkpt lat="44.74255" lon="6.86948">
        <ele>2594.1</ele>
        <time>2026-03-23T10:50:34Z</time>
      </trkpt>
      <trkpt lat="44.74255" lon="6.86948">
        <ele>2594.1</ele>
        <time>2026-03-23T10:50:35Z</time>
      </trkpt>
      <trkpt lat="44.74255" lon="6.86949">
        <ele>2594.1</ele>
        <time>2026-03-23T10:50:36Z</time>
      </trkpt>
      <trkpt lat="44.74256" lon="6.86949">
        <ele>2595</ele>
        <time>2026-03-23T10:50:37Z</time>
      </trkpt>
      <trkpt lat="44.74256" lon="6.86949">
        <ele>2595</ele>
        <time>2026-03-23T10:50:38Z</time>
      </trkpt>
      <trkpt lat="44.74257" lon="6.86949">
        <ele>2595</ele>
        <time>2026-03-23T10:50:39Z</time>
      </trkpt>
      <trkpt lat="44.74257" lon="6.86949">
        <ele>2595.1</ele>
        <time>2026-03-23T10:50:40Z</time>
      </trkpt>
      <trkpt lat="44.74257" lon="6.86949">
        <ele>2595.1</ele>
        <time>2026-03-23T10:50:41Z</time>
      </trkpt>
      <trkpt lat="44.74257" lon="6.8695">
        <ele>2595.1</ele>
        <time>2026-03-23T10:50:42Z</time>
      </trkpt>
      <trkpt lat="44.74258" lon="6.8695">
        <ele>2595.1</ele>
        <time>2026-03-23T10:50:43Z</time>
      </trkpt>
      <trkpt lat="44.74258" lon="6.86951">
        <ele>2596</ele>
        <time>2026-03-23T10:50:44Z</time>
      </trkpt>
      <trkpt lat="44.74259" lon="6.86951">
        <ele>2596.8</ele>
        <time>2026-03-23T10:50:45Z</time>
      </trkpt>
      <trkpt lat="44.7426" lon="6.86951">
        <ele>2596.8</ele>
        <time>2026-03-23T10:50:46Z</time>
      </trkpt>
      <trkpt lat="44.7426" lon="6.86951">
        <ele>2596.8</ele>
        <time>2026-03-23T10:50:47Z</time>
      </trkpt>
      <trkpt lat="44.7426" lon="6.86952">
        <ele>2596.8</ele>
        <time>2026-03-23T10:50:48Z</time>
      </trkpt>
      <trkpt lat="44.7426" lon="6.86952">
        <ele>2596.8</ele>
        <time>2026-03-23T10:50:49Z</time>
      </trkpt>
      <trkpt lat="44.7426" lon="6.86952">
        <ele>2596.8</ele>
        <time>2026-03-23T10:50:50Z</time>
      </trkpt>
      <trkpt lat="44.7426" lon="6.86953">
        <ele>2596.8</ele>
        <time>2026-03-23T10:50:51Z</time>
      </trkpt>
      <trkpt lat="44.7426" lon="6.86953">
        <ele>2596.8</ele>
        <time>2026-03-23T10:50:52Z</time>
      </trkpt>
      <trkpt lat="44.74261" lon="6.86953">
        <ele>2596.8</ele>
        <time>2026-03-23T10:50:53Z</time>
      </trkpt>
      <trkpt lat="44.74261" lon="6.86953">
        <ele>2596.9</ele>
        <time>2026-03-23T10:50:54Z</time>
      </trkpt>
      <trkpt lat="44.74261" lon="6.86954">
        <ele>2596.9</ele>
        <time>2026-03-23T10:50:55Z</time>
      </trkpt>
      <trkpt lat="44.74261" lon="6.86954">
        <ele>2596.9</ele>
        <time>2026-03-23T10:50:56Z</time>
      </trkpt>
      <trkpt lat="44.74261" lon="6.86954">
        <ele>2596.9</ele>
        <time>2026-03-23T10:50:57Z</time>
      </trkpt>
      <trkpt lat="44.74262" lon="6.86955">
        <ele>2597.8</ele>
        <time>2026-03-23T10:50:58Z</time>
      </trkpt>
      <trkpt lat="44.74262" lon="6.86955">
        <ele>2598.6</ele>
        <time>2026-03-23T10:50:59Z</time>
      </trkpt>
      <trkpt lat="44.74262" lon="6.86955">
        <ele>2598.6</ele>
        <time>2026-03-23T10:51:00Z</time>
      </trkpt>
      <trkpt lat="44.74263" lon="6.86956">
        <ele>2598.6</ele>
        <time>2026-03-23T10:51:01Z</time>
      </trkpt>
      <trkpt lat="44.74263" lon="6.86956">
        <ele>2598.6</ele>
        <time>2026-03-23T10:51:02Z</time>
      </trkpt>
      <trkpt lat="44.74263" lon="6.86956">
        <ele>2598.6</ele>
        <time>2026-03-23T10:51:03Z</time>
      </trkpt>
      <trkpt lat="44.74263" lon="6.86957">
        <ele>2598.6</ele>
        <time>2026-03-23T10:51:04Z</time>
      </trkpt>
      <trkpt lat="44.74264" lon="6.86957">
        <ele>2598.6</ele>
        <time>2026-03-23T10:51:05Z</time>
      </trkpt>
      <trkpt lat="44.74264" lon="6.86958">
        <ele>2598.6</ele>
        <time>2026-03-23T10:51:06Z</time>
      </trkpt>
      <trkpt lat="44.74265" lon="6.86958">
        <ele>2598.6</ele>
        <time>2026-03-23T10:51:07Z</time>
      </trkpt>
      <trkpt lat="44.74265" lon="6.86958">
        <ele>2599.5</ele>
        <time>2026-03-23T10:51:08Z</time>
      </trkpt>
      <trkpt lat="44.74266" lon="6.86958">
        <ele>2599.5</ele>
        <time>2026-03-23T10:51:09Z</time>
      </trkpt>
      <trkpt lat="44.74266" lon="6.86958">
        <ele>2599.5</ele>
        <time>2026-03-23T10:51:10Z</time>
      </trkpt>
      <trkpt lat="44.74266" lon="6.86958">
        <ele>2599.5</ele>
        <time>2026-03-23T10:51:11Z</time>
      </trkpt>
      <trkpt lat="44.74267" lon="6.86959">
        <ele>2600.4</ele>
        <time>2026-03-23T10:51:12Z</time>
      </trkpt>
      <trkpt lat="44.74267" lon="6.86959">
        <ele>2600.4</ele>
        <time>2026-03-23T10:51:13Z</time>
      </trkpt>
      <trkpt lat="44.74267" lon="6.86959">
        <ele>2600.4</ele>
        <time>2026-03-23T10:51:14Z</time>
      </trkpt>
      <trkpt lat="44.74267" lon="6.86959">
        <ele>2600.4</ele>
        <time>2026-03-23T10:51:15Z</time>
      </trkpt>
      <trkpt lat="44.74267" lon="6.86959">
        <ele>2600.5</ele>
        <time>2026-03-23T10:51:16Z</time>
      </trkpt>
      <trkpt lat="44.74267" lon="6.8696">
        <ele>2600.5</ele>
        <time>2026-03-23T10:51:17Z</time>
      </trkpt>
      <trkpt lat="44.74267" lon="6.8696">
        <ele>2600.5</ele>
        <time>2026-03-23T10:51:18Z</time>
      </trkpt>
      <trkpt lat="44.74267" lon="6.86961">
        <ele>2600.5</ele>
        <time>2026-03-23T10:51:19Z</time>
      </trkpt>
      <trkpt lat="44.74267" lon="6.86962">
        <ele>2600.5</ele>
        <time>2026-03-23T10:51:20Z</time>
      </trkpt>
      <trkpt lat="44.74267" lon="6.86962">
        <ele>2600.5</ele>
        <time>2026-03-23T10:51:21Z</time>
      </trkpt>
      <trkpt lat="44.74267" lon="6.86963">
        <ele>2600.5</ele>
        <time>2026-03-23T10:51:22Z</time>
      </trkpt>
      <trkpt lat="44.74268" lon="6.86963">
        <ele>2601.5</ele>
        <time>2026-03-23T10:51:23Z</time>
      </trkpt>
      <trkpt lat="44.74268" lon="6.86964">
        <ele>2601.5</ele>
        <time>2026-03-23T10:51:24Z</time>
      </trkpt>
      <trkpt lat="44.74268" lon="6.86964">
        <ele>2601.5</ele>
        <time>2026-03-23T10:51:25Z</time>
      </trkpt>
      <trkpt lat="44.74267" lon="6.86965">
        <ele>2601.5</ele>
        <time>2026-03-23T10:51:26Z</time>
      </trkpt>
      <trkpt lat="44.74268" lon="6.86965">
        <ele>2601.5</ele>
        <time>2026-03-23T10:51:27Z</time>
      </trkpt>
      <trkpt lat="44.74268" lon="6.86966">
        <ele>2601.5</ele>
        <time>2026-03-23T10:51:28Z</time>
      </trkpt>
      <trkpt lat="44.74268" lon="6.86966">
        <ele>2602.4</ele>
        <time>2026-03-23T10:51:29Z</time>
      </trkpt>
      <trkpt lat="44.74269" lon="6.86966">
        <ele>2602.4</ele>
        <time>2026-03-23T10:51:30Z</time>
      </trkpt>
      <trkpt lat="44.74269" lon="6.86966">
        <ele>2602.4</ele>
        <time>2026-03-23T10:51:31Z</time>
      </trkpt>
      <trkpt lat="44.74269" lon="6.86967">
        <ele>2602.4</ele>
        <time>2026-03-23T10:51:32Z</time>
      </trkpt>
      <trkpt lat="44.74269" lon="6.86967">
        <ele>2602.4</ele>
        <time>2026-03-23T10:51:33Z</time>
      </trkpt>
      <trkpt lat="44.74269" lon="6.86967">
        <ele>2602.4</ele>
        <time>2026-03-23T10:51:34Z</time>
      </trkpt>
      <trkpt lat="44.74269" lon="6.86967">
        <ele>2603.5</ele>
        <time>2026-03-23T10:51:35Z</time>
      </trkpt>
      <trkpt lat="44.74269" lon="6.86968">
        <ele>2603.5</ele>
        <time>2026-03-23T10:51:36Z</time>
      </trkpt>
      <trkpt lat="44.74269" lon="6.86969">
        <ele>2603.5</ele>
        <time>2026-03-23T10:51:37Z</time>
      </trkpt>
      <trkpt lat="44.74269" lon="6.86969">
        <ele>2603.5</ele>
        <time>2026-03-23T10:51:38Z</time>
      </trkpt>
      <trkpt lat="44.74269" lon="6.8697">
        <ele>2603.5</ele>
        <time>2026-03-23T10:51:39Z</time>
      </trkpt>
      <trkpt lat="44.74268" lon="6.86971">
        <ele>2603.5</ele>
        <time>2026-03-23T10:51:40Z</time>
      </trkpt>
      <trkpt lat="44.74268" lon="6.86972">
        <ele>2603.6</ele>
        <time>2026-03-23T10:51:41Z</time>
      </trkpt>
      <trkpt lat="44.74268" lon="6.86973">
        <ele>2603.8</ele>
        <time>2026-03-23T10:51:42Z</time>
      </trkpt>
      <trkpt lat="44.74268" lon="6.86973">
        <ele>2603.8</ele>
        <time>2026-03-23T10:51:43Z</time>
      </trkpt>
      <trkpt lat="44.74267" lon="6.86974">
        <ele>2603.8</ele>
        <time>2026-03-23T10:51:44Z</time>
      </trkpt>
      <trkpt lat="44.74267" lon="6.86974">
        <ele>2603.8</ele>
        <time>2026-03-23T10:51:45Z</time>
      </trkpt>
      <trkpt lat="44.74266" lon="6.86975">
        <ele>2603.9</ele>
        <time>2026-03-23T10:51:46Z</time>
      </trkpt>
      <trkpt lat="44.74266" lon="6.86976">
        <ele>2603.9</ele>
        <time>2026-03-23T10:51:47Z</time>
      </trkpt>
      <trkpt lat="44.74266" lon="6.86976">
        <ele>2605</ele>
        <time>2026-03-23T10:51:48Z</time>
      </trkpt>
      <trkpt lat="44.74265" lon="6.86977">
        <ele>2605</ele>
        <time>2026-03-23T10:51:49Z</time>
      </trkpt>
      <trkpt lat="44.74265" lon="6.86975">
        <ele>2603.9</ele>
        <time>2026-03-23T10:51:50Z</time>
      </trkpt>
      <trkpt lat="44.74265" lon="6.86975">
        <ele>2603.9</ele>
        <time>2026-03-23T10:51:51Z</time>
      </trkpt>
      <trkpt lat="44.74265" lon="6.86975">
        <ele>2603.9</ele>
        <time>2026-03-23T10:51:52Z</time>
      </trkpt>
      <trkpt lat="44.74265" lon="6.86975">
        <ele>2603.1</ele>
        <time>2026-03-23T10:51:53Z</time>
      </trkpt>
      <trkpt lat="44.74265" lon="6.86975">
        <ele>2603.1</ele>
        <time>2026-03-23T10:51:54Z</time>
      </trkpt>
      <trkpt lat="44.74264" lon="6.86975">
        <ele>2603.1</ele>
        <time>2026-03-23T10:51:55Z</time>
      </trkpt>
      <trkpt lat="44.74264" lon="6.86975">
        <ele>2603.1</ele>
        <time>2026-03-23T10:51:56Z</time>
      </trkpt>
      <trkpt lat="44.74264" lon="6.86976">
        <ele>2604.2</ele>
        <time>2026-03-23T10:51:57Z</time>
      </trkpt>
      <trkpt lat="44.74264" lon="6.86977">
        <ele>2604.2</ele>
        <time>2026-03-23T10:51:58Z</time>
      </trkpt>
      <trkpt lat="44.74264" lon="6.86977">
        <ele>2604.2</ele>
        <time>2026-03-23T10:51:59Z</time>
      </trkpt>
      <trkpt lat="44.74264" lon="6.86977">
        <ele>2604.2</ele>
        <time>2026-03-23T10:52:00Z</time>
      </trkpt>
      <trkpt lat="44.74264" lon="6.86977">
        <ele>2604.2</ele>
        <time>2026-03-23T10:52:01Z</time>
      </trkpt>
      <trkpt lat="44.74264" lon="6.86977">
        <ele>2604.2</ele>
        <time>2026-03-23T10:52:02Z</time>
      </trkpt>
      <trkpt lat="44.74264" lon="6.86977">
        <ele>2604.2</ele>
        <time>2026-03-23T10:52:03Z</time>
      </trkpt>
      <trkpt lat="44.74264" lon="6.86977">
        <ele>2604.2</ele>
        <time>2026-03-23T10:52:04Z</time>
      </trkpt>
      <trkpt lat="44.74263" lon="6.86978">
        <ele>2604.2</ele>
        <time>2026-03-23T10:52:05Z</time>
      </trkpt>
      <trkpt lat="44.74263" lon="6.86978">
        <ele>2604.2</ele>
        <time>2026-03-23T10:52:06Z</time>
      </trkpt>
      <trkpt lat="44.74263" lon="6.86979">
        <ele>2604.2</ele>
        <time>2026-03-23T10:52:07Z</time>
      </trkpt>
      <trkpt lat="44.74263" lon="6.86979">
        <ele>2604.2</ele>
        <time>2026-03-23T10:52:08Z</time>
      </trkpt>
      <trkpt lat="44.74262" lon="6.86981">
        <ele>2605.3</ele>
        <time>2026-03-23T10:52:09Z</time>
      </trkpt>
      <trkpt lat="44.74262" lon="6.86982">
        <ele>2604.5</ele>
        <time>2026-03-23T10:52:10Z</time>
      </trkpt>
      <trkpt lat="44.74262" lon="6.86983">
        <ele>2604.5</ele>
        <time>2026-03-23T10:52:11Z</time>
      </trkpt>
      <trkpt lat="44.74262" lon="6.86984">
        <ele>2604.5</ele>
        <time>2026-03-23T10:52:12Z</time>
      </trkpt>
      <trkpt lat="44.74261" lon="6.86985">
        <ele>2605.5</ele>
        <time>2026-03-23T10:52:13Z</time>
      </trkpt>
      <trkpt lat="44.74261" lon="6.86985">
        <ele>2605.5</ele>
        <time>2026-03-23T10:52:14Z</time>
      </trkpt>
      <trkpt lat="44.74262" lon="6.86986">
        <ele>2605.5</ele>
        <time>2026-03-23T10:52:15Z</time>
      </trkpt>
      <trkpt lat="44.74262" lon="6.86987">
        <ele>2606.4</ele>
        <time>2026-03-23T10:52:16Z</time>
      </trkpt>
      <trkpt lat="44.74262" lon="6.86987">
        <ele>2605.5</ele>
        <time>2026-03-23T10:52:17Z</time>
      </trkpt>
      <trkpt lat="44.74262" lon="6.86989">
        <ele>2605.5</ele>
        <time>2026-03-23T10:52:18Z</time>
      </trkpt>
      <trkpt lat="44.74262" lon="6.8699">
        <ele>2606.5</ele>
        <time>2026-03-23T10:52:19Z</time>
      </trkpt>
      <trkpt lat="44.74261" lon="6.86991">
        <ele>2606.5</ele>
        <time>2026-03-23T10:52:20Z</time>
      </trkpt>
      <trkpt lat="44.74261" lon="6.86991">
        <ele>2606.5</ele>
        <time>2026-03-23T10:52:21Z</time>
      </trkpt>
      <trkpt lat="44.74261" lon="6.86992">
        <ele>2606.6</ele>
        <time>2026-03-23T10:52:22Z</time>
      </trkpt>
      <trkpt lat="44.74261" lon="6.86993">
        <ele>2606.6</ele>
        <time>2026-03-23T10:52:23Z</time>
      </trkpt>
      <trkpt lat="44.74261" lon="6.86993">
        <ele>2606.6</ele>
        <time>2026-03-23T10:52:24Z</time>
      </trkpt>
      <trkpt lat="44.74261" lon="6.86994">
        <ele>2607.6</ele>
        <time>2026-03-23T10:52:25Z</time>
      </trkpt>
      <trkpt lat="44.7426" lon="6.86994">
        <ele>2607.6</ele>
        <time>2026-03-23T10:52:26Z</time>
      </trkpt>
      <trkpt lat="44.7426" lon="6.86995">
        <ele>2607.6</ele>
        <time>2026-03-23T10:52:27Z</time>
      </trkpt>
      <trkpt lat="44.7426" lon="6.86996">
        <ele>2607.6</ele>
        <time>2026-03-23T10:52:28Z</time>
      </trkpt>
      <trkpt lat="44.7426" lon="6.86996">
        <ele>2607.6</ele>
        <time>2026-03-23T10:52:29Z</time>
      </trkpt>
      <trkpt lat="44.7426" lon="6.86997">
        <ele>2607.6</ele>
        <time>2026-03-23T10:52:30Z</time>
      </trkpt>
      <trkpt lat="44.7426" lon="6.86997">
        <ele>2607.6</ele>
        <time>2026-03-23T10:52:31Z</time>
      </trkpt>
      <trkpt lat="44.7426" lon="6.86997">
        <ele>2607.6</ele>
        <time>2026-03-23T10:52:32Z</time>
      </trkpt>
      <trkpt lat="44.7426" lon="6.86998">
        <ele>2608.7</ele>
        <time>2026-03-23T10:52:33Z</time>
      </trkpt>
      <trkpt lat="44.74261" lon="6.86998">
        <ele>2608.7</ele>
        <time>2026-03-23T10:52:34Z</time>
      </trkpt>
      <trkpt lat="44.74261" lon="6.86999">
        <ele>2608.7</ele>
        <time>2026-03-23T10:52:35Z</time>
      </trkpt>
      <trkpt lat="44.74261" lon="6.86999">
        <ele>2608.7</ele>
        <time>2026-03-23T10:52:36Z</time>
      </trkpt>
      <trkpt lat="44.74261" lon="6.87">
        <ele>2608.7</ele>
        <time>2026-03-23T10:52:37Z</time>
      </trkpt>
      <trkpt lat="44.7426" lon="6.87">
        <ele>2608.7</ele>
        <time>2026-03-23T10:52:38Z</time>
      </trkpt>
      <trkpt lat="44.74261" lon="6.87">
        <ele>2608.7</ele>
        <time>2026-03-23T10:52:39Z</time>
      </trkpt>
      <trkpt lat="44.7426" lon="6.87001">
        <ele>2608.8</ele>
        <time>2026-03-23T10:52:40Z</time>
      </trkpt>
      <trkpt lat="44.7426" lon="6.87001">
        <ele>2608.8</ele>
        <time>2026-03-23T10:52:41Z</time>
      </trkpt>
      <trkpt lat="44.7426" lon="6.87002">
        <ele>2609.9</ele>
        <time>2026-03-23T10:52:42Z</time>
      </trkpt>
      <trkpt lat="44.74259" lon="6.87003">
        <ele>2609.9</ele>
        <time>2026-03-23T10:52:43Z</time>
      </trkpt>
      <trkpt lat="44.74259" lon="6.87004">
        <ele>2609.9</ele>
        <time>2026-03-23T10:52:44Z</time>
      </trkpt>
      <trkpt lat="44.74259" lon="6.87004">
        <ele>2609.9</ele>
        <time>2026-03-23T10:52:45Z</time>
      </trkpt>
      <trkpt lat="44.7426" lon="6.87004">
        <ele>2609.9</ele>
        <time>2026-03-23T10:52:46Z</time>
      </trkpt>
      <trkpt lat="44.7426" lon="6.87004">
        <ele>2609.9</ele>
        <time>2026-03-23T10:52:47Z</time>
      </trkpt>
      <trkpt lat="44.74259" lon="6.87004">
        <ele>2609.9</ele>
        <time>2026-03-23T10:52:48Z</time>
      </trkpt>
      <trkpt lat="44.74259" lon="6.87005">
        <ele>2609.9</ele>
        <time>2026-03-23T10:52:49Z</time>
      </trkpt>
      <trkpt lat="44.74259" lon="6.87005">
        <ele>2609.9</ele>
        <time>2026-03-23T10:52:50Z</time>
      </trkpt>
      <trkpt lat="44.74259" lon="6.87005">
        <ele>2609.9</ele>
        <time>2026-03-23T10:52:51Z</time>
      </trkpt>
      <trkpt lat="44.74259" lon="6.87005">
        <ele>2609.9</ele>
        <time>2026-03-23T10:52:52Z</time>
      </trkpt>
      <trkpt lat="44.74259" lon="6.87006">
        <ele>2611.1</ele>
        <time>2026-03-23T10:52:53Z</time>
      </trkpt>
      <trkpt lat="44.74259" lon="6.87006">
        <ele>2611.1</ele>
        <time>2026-03-23T10:52:54Z</time>
      </trkpt>
      <trkpt lat="44.74259" lon="6.87007">
        <ele>2611.1</ele>
        <time>2026-03-23T10:52:55Z</time>
      </trkpt>
      <trkpt lat="44.74259" lon="6.87008">
        <ele>2611.1</ele>
        <time>2026-03-23T10:52:56Z</time>
      </trkpt>
      <trkpt lat="44.74259" lon="6.87008">
        <ele>2611.1</ele>
        <time>2026-03-23T10:52:57Z</time>
      </trkpt>
      <trkpt lat="44.74259" lon="6.87009">
        <ele>2611.1</ele>
        <time>2026-03-23T10:52:58Z</time>
      </trkpt>
      <trkpt lat="44.74259" lon="6.87009">
        <ele>2611.1</ele>
        <time>2026-03-23T10:52:59Z</time>
      </trkpt>
      <trkpt lat="44.7426" lon="6.8701">
        <ele>2611.1</ele>
        <time>2026-03-23T10:53:00Z</time>
      </trkpt>
      <trkpt lat="44.7426" lon="6.87011">
        <ele>2612.4</ele>
        <time>2026-03-23T10:53:01Z</time>
      </trkpt>
      <trkpt lat="44.74261" lon="6.87012">
        <ele>2612.4</ele>
        <time>2026-03-23T10:53:02Z</time>
      </trkpt>
      <trkpt lat="44.74261" lon="6.87012">
        <ele>2612.4</ele>
        <time>2026-03-23T10:53:03Z</time>
      </trkpt>
      <trkpt lat="44.74261" lon="6.87013">
        <ele>2612.4</ele>
        <time>2026-03-23T10:53:04Z</time>
      </trkpt>
      <trkpt lat="44.74261" lon="6.87013">
        <ele>2612.4</ele>
        <time>2026-03-23T10:53:05Z</time>
      </trkpt>
      <trkpt lat="44.74261" lon="6.87014">
        <ele>2612.4</ele>
        <time>2026-03-23T10:53:06Z</time>
      </trkpt>
      <trkpt lat="44.74262" lon="6.87014">
        <ele>2612.4</ele>
        <time>2026-03-23T10:53:07Z</time>
      </trkpt>
      <trkpt lat="44.74262" lon="6.87014">
        <ele>2613.2</ele>
        <time>2026-03-23T10:53:08Z</time>
      </trkpt>
      <trkpt lat="44.74262" lon="6.87015">
        <ele>2613.2</ele>
        <time>2026-03-23T10:53:09Z</time>
      </trkpt>
      <trkpt lat="44.74263" lon="6.87015">
        <ele>2614.5</ele>
        <time>2026-03-23T10:53:10Z</time>
      </trkpt>
      <trkpt lat="44.74262" lon="6.87015">
        <ele>2614.5</ele>
        <time>2026-03-23T10:53:11Z</time>
      </trkpt>
      <trkpt lat="44.74262" lon="6.87015">
        <ele>2614.5</ele>
        <time>2026-03-23T10:53:12Z</time>
      </trkpt>
      <trkpt lat="44.74262" lon="6.87015">
        <ele>2613.7</ele>
        <time>2026-03-23T10:53:13Z</time>
      </trkpt>
      <trkpt lat="44.74262" lon="6.87015">
        <ele>2613.7</ele>
        <time>2026-03-23T10:53:14Z</time>
      </trkpt>
      <trkpt lat="44.74262" lon="6.87016">
        <ele>2614.5</ele>
        <time>2026-03-23T10:53:15Z</time>
      </trkpt>
      <trkpt lat="44.74262" lon="6.87015">
        <ele>2614.5</ele>
        <time>2026-03-23T10:53:16Z</time>
      </trkpt>
      <trkpt lat="44.74262" lon="6.87016">
        <ele>2614.5</ele>
        <time>2026-03-23T10:53:17Z</time>
      </trkpt>
      <trkpt lat="44.74263" lon="6.87016">
        <ele>2614.5</ele>
        <time>2026-03-23T10:53:18Z</time>
      </trkpt>
      <trkpt lat="44.74263" lon="6.87016">
        <ele>2614.5</ele>
        <time>2026-03-23T10:53:19Z</time>
      </trkpt>
      <trkpt lat="44.74263" lon="6.87016">
        <ele>2614.5</ele>
        <time>2026-03-23T10:53:20Z</time>
      </trkpt>
      <trkpt lat="44.74263" lon="6.87016">
        <ele>2614.5</ele>
        <time>2026-03-23T10:53:21Z</time>
      </trkpt>
      <trkpt lat="44.74264" lon="6.87016">
        <ele>2614.6</ele>
        <time>2026-03-23T10:53:22Z</time>
      </trkpt>
      <trkpt lat="44.74264" lon="6.87017">
        <ele>2614.6</ele>
        <time>2026-03-23T10:53:23Z</time>
      </trkpt>
      <trkpt lat="44.74264" lon="6.87017">
        <ele>2614.6</ele>
        <time>2026-03-23T10:53:24Z</time>
      </trkpt>
      <trkpt lat="44.74265" lon="6.87017">
        <ele>2614.6</ele>
        <time>2026-03-23T10:53:25Z</time>
      </trkpt>
      <trkpt lat="44.74265" lon="6.87017">
        <ele>2614.6</ele>
        <time>2026-03-23T10:53:26Z</time>
      </trkpt>
      <trkpt lat="44.74265" lon="6.87018">
        <ele>2615.4</ele>
        <time>2026-03-23T10:53:27Z</time>
      </trkpt>
      <trkpt lat="44.74265" lon="6.87018">
        <ele>2615.4</ele>
        <time>2026-03-23T10:53:28Z</time>
      </trkpt>
      <trkpt lat="44.74266" lon="6.87018">
        <ele>2615.4</ele>
        <time>2026-03-23T10:53:29Z</time>
      </trkpt>
      <trkpt lat="44.74266" lon="6.87018">
        <ele>2615.4</ele>
        <time>2026-03-23T10:53:30Z</time>
      </trkpt>
      <trkpt lat="44.74266" lon="6.87018">
        <ele>2615.4</ele>
        <time>2026-03-23T10:53:31Z</time>
      </trkpt>
      <trkpt lat="44.74266" lon="6.87018">
        <ele>2615.4</ele>
        <time>2026-03-23T10:53:32Z</time>
      </trkpt>
      <trkpt lat="44.74267" lon="6.87018">
        <ele>2615.5</ele>
        <time>2026-03-23T10:53:33Z</time>
      </trkpt>
      <trkpt lat="44.74267" lon="6.87019">
        <ele>2615.5</ele>
        <time>2026-03-23T10:53:34Z</time>
      </trkpt>
      <trkpt lat="44.74267" lon="6.87019">
        <ele>2615.5</ele>
        <time>2026-03-23T10:53:35Z</time>
      </trkpt>
      <trkpt lat="44.74267" lon="6.87019">
        <ele>2616.7</ele>
        <time>2026-03-23T10:53:36Z</time>
      </trkpt>
      <trkpt lat="44.74268" lon="6.87019">
        <ele>2616.7</ele>
        <time>2026-03-23T10:53:37Z</time>
      </trkpt>
      <trkpt lat="44.74268" lon="6.87019">
        <ele>2616.7</ele>
        <time>2026-03-23T10:53:38Z</time>
      </trkpt>
      <trkpt lat="44.74268" lon="6.87019">
        <ele>2617.6</ele>
        <time>2026-03-23T10:53:39Z</time>
      </trkpt>
      <trkpt lat="44.74269" lon="6.8702">
        <ele>2617.6</ele>
        <time>2026-03-23T10:53:40Z</time>
      </trkpt>
      <trkpt lat="44.74269" lon="6.8702">
        <ele>2617.6</ele>
        <time>2026-03-23T10:53:41Z</time>
      </trkpt>
      <trkpt lat="44.7427" lon="6.8702">
        <ele>2617.6</ele>
        <time>2026-03-23T10:53:42Z</time>
      </trkpt>
      <trkpt lat="44.7427" lon="6.8702">
        <ele>2617.6</ele>
        <time>2026-03-23T10:53:43Z</time>
      </trkpt>
      <trkpt lat="44.7427" lon="6.87021">
        <ele>2617.6</ele>
        <time>2026-03-23T10:53:44Z</time>
      </trkpt>
      <trkpt lat="44.7427" lon="6.87021">
        <ele>2617.6</ele>
        <time>2026-03-23T10:53:45Z</time>
      </trkpt>
      <trkpt lat="44.7427" lon="6.87021">
        <ele>2617.6</ele>
        <time>2026-03-23T10:53:46Z</time>
      </trkpt>
      <trkpt lat="44.7427" lon="6.87021">
        <ele>2617.6</ele>
        <time>2026-03-23T10:53:47Z</time>
      </trkpt>
      <trkpt lat="44.7427" lon="6.87022">
        <ele>2617.6</ele>
        <time>2026-03-23T10:53:48Z</time>
      </trkpt>
      <trkpt lat="44.74271" lon="6.87022">
        <ele>2617.6</ele>
        <time>2026-03-23T10:53:49Z</time>
      </trkpt>
      <trkpt lat="44.74271" lon="6.87022">
        <ele>2617.6</ele>
        <time>2026-03-23T10:53:50Z</time>
      </trkpt>
      <trkpt lat="44.74271" lon="6.87022">
        <ele>2618.5</ele>
        <time>2026-03-23T10:53:51Z</time>
      </trkpt>
      <trkpt lat="44.74271" lon="6.87022">
        <ele>2618.5</ele>
        <time>2026-03-23T10:53:52Z</time>
      </trkpt>
      <trkpt lat="44.74272" lon="6.87022">
        <ele>2618.5</ele>
        <time>2026-03-23T10:53:53Z</time>
      </trkpt>
      <trkpt lat="44.74272" lon="6.87022">
        <ele>2618.5</ele>
        <time>2026-03-23T10:53:54Z</time>
      </trkpt>
      <trkpt lat="44.74272" lon="6.87022">
        <ele>2618.5</ele>
        <time>2026-03-23T10:53:55Z</time>
      </trkpt>
      <trkpt lat="44.74272" lon="6.87022">
        <ele>2618.5</ele>
        <time>2026-03-23T10:53:56Z</time>
      </trkpt>
      <trkpt lat="44.74273" lon="6.87022">
        <ele>2618.5</ele>
        <time>2026-03-23T10:53:57Z</time>
      </trkpt>
      <trkpt lat="44.74273" lon="6.87022">
        <ele>2618.5</ele>
        <time>2026-03-23T10:53:58Z</time>
      </trkpt>
      <trkpt lat="44.74274" lon="6.87022">
        <ele>2618.5</ele>
        <time>2026-03-23T10:53:59Z</time>
      </trkpt>
      <trkpt lat="44.74274" lon="6.87022">
        <ele>2619.3</ele>
        <time>2026-03-23T10:54:00Z</time>
      </trkpt>
      <trkpt lat="44.74275" lon="6.87023">
        <ele>2619.4</ele>
        <time>2026-03-23T10:54:01Z</time>
      </trkpt>
      <trkpt lat="44.74275" lon="6.87023">
        <ele>2619.4</ele>
        <time>2026-03-23T10:54:02Z</time>
      </trkpt>
      <trkpt lat="44.74275" lon="6.87023">
        <ele>2620.6</ele>
        <time>2026-03-23T10:54:03Z</time>
      </trkpt>
      <trkpt lat="44.74275" lon="6.87023">
        <ele>2620.6</ele>
        <time>2026-03-23T10:54:04Z</time>
      </trkpt>
      <trkpt lat="44.74276" lon="6.87024">
        <ele>2620.6</ele>
        <time>2026-03-23T10:54:05Z</time>
      </trkpt>
      <trkpt lat="44.74276" lon="6.87024">
        <ele>2620.6</ele>
        <time>2026-03-23T10:54:06Z</time>
      </trkpt>
      <trkpt lat="44.74276" lon="6.87025">
        <ele>2620.6</ele>
        <time>2026-03-23T10:54:07Z</time>
      </trkpt>
      <trkpt lat="44.74277" lon="6.87025">
        <ele>2620.6</ele>
        <time>2026-03-23T10:54:08Z</time>
      </trkpt>
      <trkpt lat="44.74277" lon="6.87025">
        <ele>2620.6</ele>
        <time>2026-03-23T10:54:09Z</time>
      </trkpt>
      <trkpt lat="44.74277" lon="6.87024">
        <ele>2620.6</ele>
        <time>2026-03-23T10:54:10Z</time>
      </trkpt>
      <trkpt lat="44.74277" lon="6.87025">
        <ele>2620.6</ele>
        <time>2026-03-23T10:54:11Z</time>
      </trkpt>
      <trkpt lat="44.74277" lon="6.87025">
        <ele>2621.4</ele>
        <time>2026-03-23T10:54:12Z</time>
      </trkpt>
      <trkpt lat="44.74277" lon="6.87025">
        <ele>2621.4</ele>
        <time>2026-03-23T10:54:13Z</time>
      </trkpt>
      <trkpt lat="44.74278" lon="6.87026">
        <ele>2621.5</ele>
        <time>2026-03-23T10:54:14Z</time>
      </trkpt>
      <trkpt lat="44.74278" lon="6.87026">
        <ele>2621.5</ele>
        <time>2026-03-23T10:54:15Z</time>
      </trkpt>
      <trkpt lat="44.74278" lon="6.87026">
        <ele>2621.5</ele>
        <time>2026-03-23T10:54:16Z</time>
      </trkpt>
      <trkpt lat="44.74277" lon="6.87027">
        <ele>2621.5</ele>
        <time>2026-03-23T10:54:17Z</time>
      </trkpt>
      <trkpt lat="44.74277" lon="6.87027">
        <ele>2621.5</ele>
        <time>2026-03-23T10:54:18Z</time>
      </trkpt>
      <trkpt lat="44.74277" lon="6.87028">
        <ele>2621.8</ele>
        <time>2026-03-23T10:54:19Z</time>
      </trkpt>
      <trkpt lat="44.74277" lon="6.87028">
        <ele>2622.7</ele>
        <time>2026-03-23T10:54:20Z</time>
      </trkpt>
      <trkpt lat="44.74278" lon="6.87029">
        <ele>2622.7</ele>
        <time>2026-03-23T10:54:21Z</time>
      </trkpt>
      <trkpt lat="44.74278" lon="6.87029">
        <ele>2622.7</ele>
        <time>2026-03-23T10:54:22Z</time>
      </trkpt>
      <trkpt lat="44.74278" lon="6.8703">
        <ele>2622.7</ele>
        <time>2026-03-23T10:54:23Z</time>
      </trkpt>
      <trkpt lat="44.74278" lon="6.8703">
        <ele>2622.7</ele>
        <time>2026-03-23T10:54:24Z</time>
      </trkpt>
      <trkpt lat="44.74279" lon="6.87031">
        <ele>2622.7</ele>
        <time>2026-03-23T10:54:25Z</time>
      </trkpt>
      <trkpt lat="44.74279" lon="6.87031">
        <ele>2622.7</ele>
        <time>2026-03-23T10:54:26Z</time>
      </trkpt>
      <trkpt lat="44.7428" lon="6.87032">
        <ele>2624.6</ele>
        <time>2026-03-23T10:54:27Z</time>
      </trkpt>
      <trkpt lat="44.74281" lon="6.87032">
        <ele>2624.6</ele>
        <time>2026-03-23T10:54:28Z</time>
      </trkpt>
      <trkpt lat="44.74282" lon="6.87032">
        <ele>2624.6</ele>
        <time>2026-03-23T10:54:29Z</time>
      </trkpt>
      <trkpt lat="44.74282" lon="6.87033">
        <ele>2624.6</ele>
        <time>2026-03-23T10:54:30Z</time>
      </trkpt>
      <trkpt lat="44.74282" lon="6.87033">
        <ele>2624.6</ele>
        <time>2026-03-23T10:54:31Z</time>
      </trkpt>
      <trkpt lat="44.74282" lon="6.87034">
        <ele>2624.6</ele>
        <time>2026-03-23T10:54:32Z</time>
      </trkpt>
      <trkpt lat="44.74281" lon="6.87034">
        <ele>2624.7</ele>
        <time>2026-03-23T10:54:33Z</time>
      </trkpt>
      <trkpt lat="44.74282" lon="6.87035">
        <ele>2624.7</ele>
        <time>2026-03-23T10:54:34Z</time>
      </trkpt>
      <trkpt lat="44.74282" lon="6.87035">
        <ele>2624.7</ele>
        <time>2026-03-23T10:54:35Z</time>
      </trkpt>
      <trkpt lat="44.74282" lon="6.87035">
        <ele>2624.7</ele>
        <time>2026-03-23T10:54:36Z</time>
      </trkpt>
      <trkpt lat="44.74282" lon="6.87036">
        <ele>2624.7</ele>
        <time>2026-03-23T10:54:37Z</time>
      </trkpt>
      <trkpt lat="44.74283" lon="6.87036">
        <ele>2625.8</ele>
        <time>2026-03-23T10:54:38Z</time>
      </trkpt>
      <trkpt lat="44.74283" lon="6.87037">
        <ele>2625.8</ele>
        <time>2026-03-23T10:54:39Z</time>
      </trkpt>
      <trkpt lat="44.74283" lon="6.87038">
        <ele>2626.6</ele>
        <time>2026-03-23T10:54:40Z</time>
      </trkpt>
      <trkpt lat="44.74283" lon="6.87038">
        <ele>2625.8</ele>
        <time>2026-03-23T10:54:41Z</time>
      </trkpt>
      <trkpt lat="44.74283" lon="6.87039">
        <ele>2625.8</ele>
        <time>2026-03-23T10:54:42Z</time>
      </trkpt>
      <trkpt lat="44.74283" lon="6.87039">
        <ele>2625.8</ele>
        <time>2026-03-23T10:54:43Z</time>
      </trkpt>
      <trkpt lat="44.74283" lon="6.87039">
        <ele>2625.8</ele>
        <time>2026-03-23T10:54:44Z</time>
      </trkpt>
      <trkpt lat="44.74283" lon="6.87039">
        <ele>2625.8</ele>
        <time>2026-03-23T10:54:45Z</time>
      </trkpt>
      <trkpt lat="44.74283" lon="6.87039">
        <ele>2625.8</ele>
        <time>2026-03-23T10:54:46Z</time>
      </trkpt>
      <trkpt lat="44.74283" lon="6.8704">
        <ele>2625.8</ele>
        <time>2026-03-23T10:54:47Z</time>
      </trkpt>
      <trkpt lat="44.74283" lon="6.8704">
        <ele>2626.6</ele>
        <time>2026-03-23T10:54:48Z</time>
      </trkpt>
      <trkpt lat="44.74284" lon="6.8704">
        <ele>2626.6</ele>
        <time>2026-03-23T10:54:49Z</time>
      </trkpt>
      <trkpt lat="44.74285" lon="6.8704">
        <ele>2626.6</ele>
        <time>2026-03-23T10:54:50Z</time>
      </trkpt>
      <trkpt lat="44.74285" lon="6.87041">
        <ele>2627.7</ele>
        <time>2026-03-23T10:54:51Z</time>
      </trkpt>
      <trkpt lat="44.74285" lon="6.87041">
        <ele>2627.7</ele>
        <time>2026-03-23T10:54:52Z</time>
      </trkpt>
      <trkpt lat="44.74286" lon="6.87041">
        <ele>2627.7</ele>
        <time>2026-03-23T10:54:53Z</time>
      </trkpt>
      <trkpt lat="44.74286" lon="6.87041">
        <ele>2627.7</ele>
        <time>2026-03-23T10:54:54Z</time>
      </trkpt>
      <trkpt lat="44.74286" lon="6.8704">
        <ele>2626.7</ele>
        <time>2026-03-23T10:54:55Z</time>
      </trkpt>
      <trkpt lat="44.74286" lon="6.8704">
        <ele>2626.7</ele>
        <time>2026-03-23T10:54:56Z</time>
      </trkpt>
      <trkpt lat="44.74287" lon="6.8704">
        <ele>2627.4</ele>
        <time>2026-03-23T10:54:57Z</time>
      </trkpt>
      <trkpt lat="44.74287" lon="6.87039">
        <ele>2627.4</ele>
        <time>2026-03-23T10:54:58Z</time>
      </trkpt>
      <trkpt lat="44.74287" lon="6.87039">
        <ele>2627.4</ele>
        <time>2026-03-23T10:54:59Z</time>
      </trkpt>
      <trkpt lat="44.74287" lon="6.87039">
        <ele>2627.4</ele>
        <time>2026-03-23T10:55:00Z</time>
      </trkpt>
      <trkpt lat="44.74288" lon="6.87039">
        <ele>2627.4</ele>
        <time>2026-03-23T10:55:01Z</time>
      </trkpt>
      <trkpt lat="44.74288" lon="6.87039">
        <ele>2627.4</ele>
        <time>2026-03-23T10:55:02Z</time>
      </trkpt>
      <trkpt lat="44.74288" lon="6.87039">
        <ele>2627.5</ele>
        <time>2026-03-23T10:55:03Z</time>
      </trkpt>
      <trkpt lat="44.74288" lon="6.87039">
        <ele>2627.5</ele>
        <time>2026-03-23T10:55:04Z</time>
      </trkpt>
      <trkpt lat="44.74289" lon="6.87039">
        <ele>2627.5</ele>
        <time>2026-03-23T10:55:05Z</time>
      </trkpt>
      <trkpt lat="44.74289" lon="6.87038">
        <ele>2627.5</ele>
        <time>2026-03-23T10:55:06Z</time>
      </trkpt>
      <trkpt lat="44.74289" lon="6.87038">
        <ele>2628.2</ele>
        <time>2026-03-23T10:55:07Z</time>
      </trkpt>
      <trkpt lat="44.7429" lon="6.87038">
        <ele>2628.2</ele>
        <time>2026-03-23T10:55:08Z</time>
      </trkpt>
      <trkpt lat="44.7429" lon="6.87037">
        <ele>2628.2</ele>
        <time>2026-03-23T10:55:09Z</time>
      </trkpt>
      <trkpt lat="44.7429" lon="6.87037">
        <ele>2628.2</ele>
        <time>2026-03-23T10:55:10Z</time>
      </trkpt>
      <trkpt lat="44.7429" lon="6.87037">
        <ele>2628.2</ele>
        <time>2026-03-23T10:55:11Z</time>
      </trkpt>
      <trkpt lat="44.74291" lon="6.87037">
        <ele>2628.2</ele>
        <time>2026-03-23T10:55:12Z</time>
      </trkpt>
      <trkpt lat="44.74291" lon="6.87036">
        <ele>2627.1</ele>
        <time>2026-03-23T10:55:13Z</time>
      </trkpt>
      <trkpt lat="44.74291" lon="6.87035">
        <ele>2627.2</ele>
        <time>2026-03-23T10:55:14Z</time>
      </trkpt>
      <trkpt lat="44.74292" lon="6.87035">
        <ele>2627.2</ele>
        <time>2026-03-23T10:55:15Z</time>
      </trkpt>
      <trkpt lat="44.74292" lon="6.87035">
        <ele>2627.2</ele>
        <time>2026-03-23T10:55:16Z</time>
      </trkpt>
      <trkpt lat="44.74292" lon="6.87035">
        <ele>2627.2</ele>
        <time>2026-03-23T10:55:17Z</time>
      </trkpt>
      <trkpt lat="44.74293" lon="6.87034">
        <ele>2627.9</ele>
        <time>2026-03-23T10:55:18Z</time>
      </trkpt>
      <trkpt lat="44.74293" lon="6.87034">
        <ele>2627.9</ele>
        <time>2026-03-23T10:55:19Z</time>
      </trkpt>
      <trkpt lat="44.74293" lon="6.87035">
        <ele>2627.9</ele>
        <time>2026-03-23T10:55:20Z</time>
      </trkpt>
      <trkpt lat="44.74293" lon="6.87035">
        <ele>2627.9</ele>
        <time>2026-03-23T10:55:21Z</time>
      </trkpt>
      <trkpt lat="44.74294" lon="6.87035">
        <ele>2627.9</ele>
        <time>2026-03-23T10:55:22Z</time>
      </trkpt>
      <trkpt lat="44.74294" lon="6.87034">
        <ele>2627.9</ele>
        <time>2026-03-23T10:55:23Z</time>
      </trkpt>
      <trkpt lat="44.74295" lon="6.87034">
        <ele>2627.9</ele>
        <time>2026-03-23T10:55:24Z</time>
      </trkpt>
      <trkpt lat="44.74295" lon="6.87034">
        <ele>2627.9</ele>
        <time>2026-03-23T10:55:25Z</time>
      </trkpt>
      <trkpt lat="44.74295" lon="6.87034">
        <ele>2627.9</ele>
        <time>2026-03-23T10:55:26Z</time>
      </trkpt>
      <trkpt lat="44.74296" lon="6.87033">
        <ele>2628.6</ele>
        <time>2026-03-23T10:55:27Z</time>
      </trkpt>
      <trkpt lat="44.74296" lon="6.87033">
        <ele>2628.6</ele>
        <time>2026-03-23T10:55:28Z</time>
      </trkpt>
      <trkpt lat="44.74296" lon="6.87033">
        <ele>2628.7</ele>
        <time>2026-03-23T10:55:29Z</time>
      </trkpt>
      <trkpt lat="44.74296" lon="6.87032">
        <ele>2628.7</ele>
        <time>2026-03-23T10:55:30Z</time>
      </trkpt>
      <trkpt lat="44.74297" lon="6.87032">
        <ele>2628.7</ele>
        <time>2026-03-23T10:55:31Z</time>
      </trkpt>
      <trkpt lat="44.74297" lon="6.87032">
        <ele>2628.7</ele>
        <time>2026-03-23T10:55:32Z</time>
      </trkpt>
      <trkpt lat="44.74297" lon="6.87032">
        <ele>2628.7</ele>
        <time>2026-03-23T10:55:33Z</time>
      </trkpt>
      <trkpt lat="44.74298" lon="6.87032">
        <ele>2628.7</ele>
        <time>2026-03-23T10:55:34Z</time>
      </trkpt>
      <trkpt lat="44.74298" lon="6.87032">
        <ele>2628.7</ele>
        <time>2026-03-23T10:55:35Z</time>
      </trkpt>
      <trkpt lat="44.74298" lon="6.87032">
        <ele>2628.7</ele>
        <time>2026-03-23T10:55:36Z</time>
      </trkpt>
      <trkpt lat="44.74298" lon="6.87032">
        <ele>2628.7</ele>
        <time>2026-03-23T10:55:37Z</time>
      </trkpt>
      <trkpt lat="44.74299" lon="6.87033">
        <ele>2629.4</ele>
        <time>2026-03-23T10:55:38Z</time>
      </trkpt>
      <trkpt lat="44.74299" lon="6.87033">
        <ele>2629.5</ele>
        <time>2026-03-23T10:55:39Z</time>
      </trkpt>
      <trkpt lat="44.743" lon="6.87033">
        <ele>2629.5</ele>
        <time>2026-03-23T10:55:40Z</time>
      </trkpt>
      <trkpt lat="44.743" lon="6.87033">
        <ele>2629.5</ele>
        <time>2026-03-23T10:55:41Z</time>
      </trkpt>
      <trkpt lat="44.743" lon="6.87033">
        <ele>2629.5</ele>
        <time>2026-03-23T10:55:42Z</time>
      </trkpt>
      <trkpt lat="44.74301" lon="6.87035">
        <ele>2629.5</ele>
        <time>2026-03-23T10:55:43Z</time>
      </trkpt>
      <trkpt lat="44.74302" lon="6.87035">
        <ele>2630.3</ele>
        <time>2026-03-23T10:55:44Z</time>
      </trkpt>
      <trkpt lat="44.74302" lon="6.87036">
        <ele>2631.4</ele>
        <time>2026-03-23T10:55:45Z</time>
      </trkpt>
      <trkpt lat="44.74302" lon="6.87037">
        <ele>2631.4</ele>
        <time>2026-03-23T10:55:46Z</time>
      </trkpt>
      <trkpt lat="44.74302" lon="6.87037">
        <ele>2631.4</ele>
        <time>2026-03-23T10:55:47Z</time>
      </trkpt>
      <trkpt lat="44.74303" lon="6.87037">
        <ele>2631.4</ele>
        <time>2026-03-23T10:55:48Z</time>
      </trkpt>
      <trkpt lat="44.74303" lon="6.87037">
        <ele>2631.4</ele>
        <time>2026-03-23T10:55:49Z</time>
      </trkpt>
      <trkpt lat="44.74303" lon="6.87037">
        <ele>2631.4</ele>
        <time>2026-03-23T10:55:50Z</time>
      </trkpt>
      <trkpt lat="44.74303" lon="6.87038">
        <ele>2631.4</ele>
        <time>2026-03-23T10:55:51Z</time>
      </trkpt>
      <trkpt lat="44.74303" lon="6.87038">
        <ele>2631.4</ele>
        <time>2026-03-23T10:55:52Z</time>
      </trkpt>
      <trkpt lat="44.74303" lon="6.87038">
        <ele>2631.4</ele>
        <time>2026-03-23T10:55:53Z</time>
      </trkpt>
      <trkpt lat="44.74303" lon="6.87038">
        <ele>2631.4</ele>
        <time>2026-03-23T10:55:54Z</time>
      </trkpt>
      <trkpt lat="44.74304" lon="6.87037">
        <ele>2631.5</ele>
        <time>2026-03-23T10:55:55Z</time>
      </trkpt>
      <trkpt lat="44.74304" lon="6.87037">
        <ele>2631.5</ele>
        <time>2026-03-23T10:55:56Z</time>
      </trkpt>
      <trkpt lat="44.74304" lon="6.87036">
        <ele>2631.5</ele>
        <time>2026-03-23T10:55:57Z</time>
      </trkpt>
      <trkpt lat="44.74304" lon="6.87036">
        <ele>2631.5</ele>
        <time>2026-03-23T10:55:58Z</time>
      </trkpt>
      <trkpt lat="44.74305" lon="6.87036">
        <ele>2631.2</ele>
        <time>2026-03-23T10:55:59Z</time>
      </trkpt>
      <trkpt lat="44.74305" lon="6.87036">
        <ele>2631.2</ele>
        <time>2026-03-23T10:56:00Z</time>
      </trkpt>
      <trkpt lat="44.74305" lon="6.87036">
        <ele>2632.3</ele>
        <time>2026-03-23T10:56:01Z</time>
      </trkpt>
      <trkpt lat="44.74306" lon="6.87037">
        <ele>2632.3</ele>
        <time>2026-03-23T10:56:02Z</time>
      </trkpt>
      <trkpt lat="44.74306" lon="6.87037">
        <ele>2632.4</ele>
        <time>2026-03-23T10:56:03Z</time>
      </trkpt>
      <trkpt lat="44.74306" lon="6.87037">
        <ele>2632.4</ele>
        <time>2026-03-23T10:56:04Z</time>
      </trkpt>
      <trkpt lat="44.74307" lon="6.87037">
        <ele>2632.4</ele>
        <time>2026-03-23T10:56:05Z</time>
      </trkpt>
      <trkpt lat="44.74307" lon="6.87037">
        <ele>2632.4</ele>
        <time>2026-03-23T10:56:06Z</time>
      </trkpt>
      <trkpt lat="44.74308" lon="6.87036">
        <ele>2632.4</ele>
        <time>2026-03-23T10:56:07Z</time>
      </trkpt>
      <trkpt lat="44.74308" lon="6.87036">
        <ele>2632.1</ele>
        <time>2026-03-23T10:56:08Z</time>
      </trkpt>
      <trkpt lat="44.74308" lon="6.87036">
        <ele>2632.1</ele>
        <time>2026-03-23T10:56:09Z</time>
      </trkpt>
      <trkpt lat="44.74309" lon="6.87035">
        <ele>2632.1</ele>
        <time>2026-03-23T10:56:10Z</time>
      </trkpt>
      <trkpt lat="44.74309" lon="6.87035">
        <ele>2632.1</ele>
        <time>2026-03-23T10:56:11Z</time>
      </trkpt>
      <trkpt lat="44.74309" lon="6.87036">
        <ele>2632.2</ele>
        <time>2026-03-23T10:56:12Z</time>
      </trkpt>
      <trkpt lat="44.7431" lon="6.87036">
        <ele>2632.2</ele>
        <time>2026-03-23T10:56:13Z</time>
      </trkpt>
      <trkpt lat="44.7431" lon="6.87036">
        <ele>2632.2</ele>
        <time>2026-03-23T10:56:14Z</time>
      </trkpt>
      <trkpt lat="44.74311" lon="6.87036">
        <ele>2632.2</ele>
        <time>2026-03-23T10:56:15Z</time>
      </trkpt>
      <trkpt lat="44.74311" lon="6.87035">
        <ele>2633</ele>
        <time>2026-03-23T10:56:16Z</time>
      </trkpt>
      <trkpt lat="44.74312" lon="6.87035">
        <ele>2633</ele>
        <time>2026-03-23T10:56:17Z</time>
      </trkpt>
      <trkpt lat="44.74312" lon="6.87035">
        <ele>2633</ele>
        <time>2026-03-23T10:56:18Z</time>
      </trkpt>
      <trkpt lat="44.74312" lon="6.87035">
        <ele>2633</ele>
        <time>2026-03-23T10:56:19Z</time>
      </trkpt>
      <trkpt lat="44.74313" lon="6.87034">
        <ele>2633</ele>
        <time>2026-03-23T10:56:20Z</time>
      </trkpt>
      <trkpt lat="44.74313" lon="6.87034">
        <ele>2633</ele>
        <time>2026-03-23T10:56:21Z</time>
      </trkpt>
      <trkpt lat="44.74313" lon="6.87034">
        <ele>2633</ele>
        <time>2026-03-23T10:56:22Z</time>
      </trkpt>
      <trkpt lat="44.74314" lon="6.87034">
        <ele>2633.8</ele>
        <time>2026-03-23T10:56:23Z</time>
      </trkpt>
      <trkpt lat="44.74314" lon="6.87034">
        <ele>2633.8</ele>
        <time>2026-03-23T10:56:24Z</time>
      </trkpt>
      <trkpt lat="44.74314" lon="6.87033">
        <ele>2633.8</ele>
        <time>2026-03-23T10:56:25Z</time>
      </trkpt>
      <trkpt lat="44.74314" lon="6.87033">
        <ele>2633.8</ele>
        <time>2026-03-23T10:56:26Z</time>
      </trkpt>
      <trkpt lat="44.74315" lon="6.87032">
        <ele>2633.8</ele>
        <time>2026-03-23T10:56:27Z</time>
      </trkpt>
      <trkpt lat="44.74315" lon="6.87032">
        <ele>2633.8</ele>
        <time>2026-03-23T10:56:28Z</time>
      </trkpt>
      <trkpt lat="44.74316" lon="6.87032">
        <ele>2633.8</ele>
        <time>2026-03-23T10:56:29Z</time>
      </trkpt>
      <trkpt lat="44.74316" lon="6.87032">
        <ele>2632.7</ele>
        <time>2026-03-23T10:56:30Z</time>
      </trkpt>
      <trkpt lat="44.74317" lon="6.87032">
        <ele>2633.3</ele>
        <time>2026-03-23T10:56:31Z</time>
      </trkpt>
      <trkpt lat="44.74317" lon="6.87032">
        <ele>2633.3</ele>
        <time>2026-03-23T10:56:32Z</time>
      </trkpt>
      <trkpt lat="44.74318" lon="6.87032">
        <ele>2634.5</ele>
        <time>2026-03-23T10:56:33Z</time>
      </trkpt>
      <trkpt lat="44.74318" lon="6.87032">
        <ele>2633.3</ele>
        <time>2026-03-23T10:56:34Z</time>
      </trkpt>
      <trkpt lat="44.74318" lon="6.87031">
        <ele>2633.3</ele>
        <time>2026-03-23T10:56:35Z</time>
      </trkpt>
      <trkpt lat="44.74319" lon="6.87031">
        <ele>2633.4</ele>
        <time>2026-03-23T10:56:36Z</time>
      </trkpt>
      <trkpt lat="44.74319" lon="6.87032">
        <ele>2633.4</ele>
        <time>2026-03-23T10:56:37Z</time>
      </trkpt>
      <trkpt lat="44.74319" lon="6.87032">
        <ele>2633.4</ele>
        <time>2026-03-23T10:56:38Z</time>
      </trkpt>
      <trkpt lat="44.7432" lon="6.87032">
        <ele>2633.4</ele>
        <time>2026-03-23T10:56:39Z</time>
      </trkpt>
      <trkpt lat="44.7432" lon="6.87031">
        <ele>2633.4</ele>
        <time>2026-03-23T10:56:40Z</time>
      </trkpt>
      <trkpt lat="44.7432" lon="6.8703">
        <ele>2634</ele>
        <time>2026-03-23T10:56:41Z</time>
      </trkpt>
      <trkpt lat="44.7432" lon="6.8703">
        <ele>2634</ele>
        <time>2026-03-23T10:56:42Z</time>
      </trkpt>
      <trkpt lat="44.7432" lon="6.8703">
        <ele>2634</ele>
        <time>2026-03-23T10:56:43Z</time>
      </trkpt>
      <trkpt lat="44.74321" lon="6.8703">
        <ele>2634</ele>
        <time>2026-03-23T10:56:44Z</time>
      </trkpt>
      <trkpt lat="44.74321" lon="6.8703">
        <ele>2634</ele>
        <time>2026-03-23T10:56:45Z</time>
      </trkpt>
      <trkpt lat="44.74321" lon="6.8703">
        <ele>2634</ele>
        <time>2026-03-23T10:56:46Z</time>
      </trkpt>
      <trkpt lat="44.74322" lon="6.8703">
        <ele>2634</ele>
        <time>2026-03-23T10:56:47Z</time>
      </trkpt>
      <trkpt lat="44.74322" lon="6.8703">
        <ele>2634</ele>
        <time>2026-03-23T10:56:48Z</time>
      </trkpt>
      <trkpt lat="44.74323" lon="6.8703">
        <ele>2634</ele>
        <time>2026-03-23T10:56:49Z</time>
      </trkpt>
      <trkpt lat="44.74323" lon="6.8703">
        <ele>2634.7</ele>
        <time>2026-03-23T10:56:50Z</time>
      </trkpt>
      <trkpt lat="44.74323" lon="6.8703">
        <ele>2634.7</ele>
        <time>2026-03-23T10:56:51Z</time>
      </trkpt>
      <trkpt lat="44.74324" lon="6.8703">
        <ele>2634.7</ele>
        <time>2026-03-23T10:56:52Z</time>
      </trkpt>
      <trkpt lat="44.74324" lon="6.8703">
        <ele>2634.7</ele>
        <time>2026-03-23T10:56:53Z</time>
      </trkpt>
      <trkpt lat="44.74324" lon="6.8703">
        <ele>2634.7</ele>
        <time>2026-03-23T10:56:54Z</time>
      </trkpt>
      <trkpt lat="44.74325" lon="6.8703">
        <ele>2634.7</ele>
        <time>2026-03-23T10:56:55Z</time>
      </trkpt>
      <trkpt lat="44.74325" lon="6.87029">
        <ele>2634.7</ele>
        <time>2026-03-23T10:56:56Z</time>
      </trkpt>
      <trkpt lat="44.74326" lon="6.87029">
        <ele>2634.7</ele>
        <time>2026-03-23T10:56:57Z</time>
      </trkpt>
      <trkpt lat="44.74326" lon="6.87029">
        <ele>2635.4</ele>
        <time>2026-03-23T10:56:58Z</time>
      </trkpt>
      <trkpt lat="44.74327" lon="6.87029">
        <ele>2635.4</ele>
        <time>2026-03-23T10:56:59Z</time>
      </trkpt>
      <trkpt lat="44.74327" lon="6.87029">
        <ele>2635.4</ele>
        <time>2026-03-23T10:57:00Z</time>
      </trkpt>
      <trkpt lat="44.74327" lon="6.87029">
        <ele>2635.4</ele>
        <time>2026-03-23T10:57:01Z</time>
      </trkpt>
      <trkpt lat="44.74328" lon="6.87029">
        <ele>2635.4</ele>
        <time>2026-03-23T10:57:02Z</time>
      </trkpt>
      <trkpt lat="44.74328" lon="6.87029">
        <ele>2635.4</ele>
        <time>2026-03-23T10:57:03Z</time>
      </trkpt>
      <trkpt lat="44.74329" lon="6.87029">
        <ele>2635.4</ele>
        <time>2026-03-23T10:57:04Z</time>
      </trkpt>
      <trkpt lat="44.74329" lon="6.87029">
        <ele>2636.1</ele>
        <time>2026-03-23T10:57:05Z</time>
      </trkpt>
      <trkpt lat="44.74329" lon="6.87029">
        <ele>2636.1</ele>
        <time>2026-03-23T10:57:06Z</time>
      </trkpt>
      <trkpt lat="44.7433" lon="6.87029">
        <ele>2636.1</ele>
        <time>2026-03-23T10:57:07Z</time>
      </trkpt>
      <trkpt lat="44.7433" lon="6.87029">
        <ele>2636.1</ele>
        <time>2026-03-23T10:57:08Z</time>
      </trkpt>
      <trkpt lat="44.74331" lon="6.87029">
        <ele>2636.1</ele>
        <time>2026-03-23T10:57:09Z</time>
      </trkpt>
      <trkpt lat="44.74331" lon="6.87029">
        <ele>2636.1</ele>
        <time>2026-03-23T10:57:10Z</time>
      </trkpt>
      <trkpt lat="44.74332" lon="6.87029">
        <ele>2636.1</ele>
        <time>2026-03-23T10:57:11Z</time>
      </trkpt>
      <trkpt lat="44.74332" lon="6.87029">
        <ele>2636.8</ele>
        <time>2026-03-23T10:57:12Z</time>
      </trkpt>
      <trkpt lat="44.74333" lon="6.87029">
        <ele>2636.8</ele>
        <time>2026-03-23T10:57:13Z</time>
      </trkpt>
      <trkpt lat="44.74333" lon="6.87029">
        <ele>2636.8</ele>
        <time>2026-03-23T10:57:14Z</time>
      </trkpt>
      <trkpt lat="44.74333" lon="6.87029">
        <ele>2636.8</ele>
        <time>2026-03-23T10:57:15Z</time>
      </trkpt>
      <trkpt lat="44.74334" lon="6.87029">
        <ele>2636.9</ele>
        <time>2026-03-23T10:57:16Z</time>
      </trkpt>
      <trkpt lat="44.74334" lon="6.87029">
        <ele>2636.9</ele>
        <time>2026-03-23T10:57:17Z</time>
      </trkpt>
      <trkpt lat="44.74334" lon="6.87029">
        <ele>2636.9</ele>
        <time>2026-03-23T10:57:18Z</time>
      </trkpt>
      <trkpt lat="44.74335" lon="6.87029">
        <ele>2636.9</ele>
        <time>2026-03-23T10:57:19Z</time>
      </trkpt>
      <trkpt lat="44.74335" lon="6.87029">
        <ele>2637.5</ele>
        <time>2026-03-23T10:57:20Z</time>
      </trkpt>
      <trkpt lat="44.74336" lon="6.87029">
        <ele>2637.5</ele>
        <time>2026-03-23T10:57:21Z</time>
      </trkpt>
      <trkpt lat="44.74336" lon="6.87029">
        <ele>2637.6</ele>
        <time>2026-03-23T10:57:22Z</time>
      </trkpt>
      <trkpt lat="44.74337" lon="6.87029">
        <ele>2637.6</ele>
        <time>2026-03-23T10:57:23Z</time>
      </trkpt>
      <trkpt lat="44.74337" lon="6.87028">
        <ele>2637.6</ele>
        <time>2026-03-23T10:57:24Z</time>
      </trkpt>
      <trkpt lat="44.74338" lon="6.87028">
        <ele>2637.6</ele>
        <time>2026-03-23T10:57:25Z</time>
      </trkpt>
      <trkpt lat="44.74338" lon="6.87029">
        <ele>2638.2</ele>
        <time>2026-03-23T10:57:26Z</time>
      </trkpt>
      <trkpt lat="44.74339" lon="6.87029">
        <ele>2638.2</ele>
        <time>2026-03-23T10:57:27Z</time>
      </trkpt>
      <trkpt lat="44.74339" lon="6.87029">
        <ele>2638.2</ele>
        <time>2026-03-23T10:57:28Z</time>
      </trkpt>
      <trkpt lat="44.7434" lon="6.87029">
        <ele>2638.2</ele>
        <time>2026-03-23T10:57:29Z</time>
      </trkpt>
      <trkpt lat="44.7434" lon="6.8703">
        <ele>2638.2</ele>
        <time>2026-03-23T10:57:30Z</time>
      </trkpt>
      <trkpt lat="44.7434" lon="6.87029">
        <ele>2638.2</ele>
        <time>2026-03-23T10:57:31Z</time>
      </trkpt>
      <trkpt lat="44.74341" lon="6.8703">
        <ele>2638.2</ele>
        <time>2026-03-23T10:57:32Z</time>
      </trkpt>
      <trkpt lat="44.74341" lon="6.8703">
        <ele>2638.2</ele>
        <time>2026-03-23T10:57:33Z</time>
      </trkpt>
      <trkpt lat="44.74341" lon="6.8703">
        <ele>2638.8</ele>
        <time>2026-03-23T10:57:34Z</time>
      </trkpt>
      <trkpt lat="44.74342" lon="6.8703">
        <ele>2638.8</ele>
        <time>2026-03-23T10:57:35Z</time>
      </trkpt>
      <trkpt lat="44.74342" lon="6.87031">
        <ele>2638.8</ele>
        <time>2026-03-23T10:57:36Z</time>
      </trkpt>
      <trkpt lat="44.74342" lon="6.87031">
        <ele>2638.8</ele>
        <time>2026-03-23T10:57:37Z</time>
      </trkpt>
      <trkpt lat="44.74342" lon="6.8703">
        <ele>2638.8</ele>
        <time>2026-03-23T10:57:38Z</time>
      </trkpt>
      <trkpt lat="44.74343" lon="6.87031">
        <ele>2638.8</ele>
        <time>2026-03-23T10:57:39Z</time>
      </trkpt>
      <trkpt lat="44.74343" lon="6.87031">
        <ele>2638.8</ele>
        <time>2026-03-23T10:57:40Z</time>
      </trkpt>
      <trkpt lat="44.74343" lon="6.87031">
        <ele>2638.8</ele>
        <time>2026-03-23T10:57:41Z</time>
      </trkpt>
      <trkpt lat="44.74343" lon="6.87031">
        <ele>2638.8</ele>
        <time>2026-03-23T10:57:42Z</time>
      </trkpt>
      <trkpt lat="44.74343" lon="6.87032">
        <ele>2638.8</ele>
        <time>2026-03-23T10:57:43Z</time>
      </trkpt>
      <trkpt lat="44.74343" lon="6.87032">
        <ele>2638.8</ele>
        <time>2026-03-23T10:57:44Z</time>
      </trkpt>
      <trkpt lat="44.74342" lon="6.87035">
        <ele>2639.9</ele>
        <time>2026-03-23T10:57:45Z</time>
      </trkpt>
      <trkpt lat="44.74342" lon="6.87036">
        <ele>2639.9</ele>
        <time>2026-03-23T10:57:46Z</time>
      </trkpt>
      <trkpt lat="44.74342" lon="6.87036">
        <ele>2639.9</ele>
        <time>2026-03-23T10:57:47Z</time>
      </trkpt>
      <trkpt lat="44.74341" lon="6.87036">
        <ele>2639.9</ele>
        <time>2026-03-23T10:57:48Z</time>
      </trkpt>
      <trkpt lat="44.74341" lon="6.87036">
        <ele>2639.9</ele>
        <time>2026-03-23T10:57:49Z</time>
      </trkpt>
      <trkpt lat="44.74341" lon="6.87036">
        <ele>2639.9</ele>
        <time>2026-03-23T10:57:50Z</time>
      </trkpt>
      <trkpt lat="44.74341" lon="6.87036">
        <ele>2639.9</ele>
        <time>2026-03-23T10:57:51Z</time>
      </trkpt>
      <trkpt lat="44.74341" lon="6.87036">
        <ele>2639.9</ele>
        <time>2026-03-23T10:57:52Z</time>
      </trkpt>
      <trkpt lat="44.74341" lon="6.87036">
        <ele>2639.9</ele>
        <time>2026-03-23T10:57:53Z</time>
      </trkpt>
      <trkpt lat="44.74341" lon="6.87036">
        <ele>2639.9</ele>
        <time>2026-03-23T10:57:54Z</time>
      </trkpt>
      <trkpt lat="44.74341" lon="6.87036">
        <ele>2639.9</ele>
        <time>2026-03-23T10:57:55Z</time>
      </trkpt>
      <trkpt lat="44.74341" lon="6.87036">
        <ele>2640</ele>
        <time>2026-03-23T10:57:56Z</time>
      </trkpt>
      <trkpt lat="44.74341" lon="6.87036">
        <ele>2640</ele>
        <time>2026-03-23T10:57:57Z</time>
      </trkpt>
      <trkpt lat="44.74341" lon="6.87036">
        <ele>2640</ele>
        <time>2026-03-23T10:57:58Z</time>
      </trkpt>
      <trkpt lat="44.74341" lon="6.87036">
        <ele>2640</ele>
        <time>2026-03-23T10:57:59Z</time>
      </trkpt>
      <trkpt lat="44.74342" lon="6.87036">
        <ele>2640</ele>
        <time>2026-03-23T10:58:00Z</time>
      </trkpt>
      <trkpt lat="44.74342" lon="6.87036">
        <ele>2640</ele>
        <time>2026-03-23T10:58:01Z</time>
      </trkpt>
      <trkpt lat="44.74342" lon="6.87036">
        <ele>2640</ele>
        <time>2026-03-23T10:58:02Z</time>
      </trkpt>
      <trkpt lat="44.74342" lon="6.87036">
        <ele>2640</ele>
        <time>2026-03-23T10:58:03Z</time>
      </trkpt>
      <trkpt lat="44.74342" lon="6.87036">
        <ele>2640</ele>
        <time>2026-03-23T10:58:04Z</time>
      </trkpt>
      <trkpt lat="44.74342" lon="6.87036">
        <ele>2640</ele>
        <time>2026-03-23T10:58:05Z</time>
      </trkpt>
      <trkpt lat="44.74342" lon="6.87036">
        <ele>2640</ele>
        <time>2026-03-23T10:58:06Z</time>
      </trkpt>
      <trkpt lat="44.74342" lon="6.87036">
        <ele>2640</ele>
        <time>2026-03-23T10:58:07Z</time>
      </trkpt>
      <trkpt lat="44.74342" lon="6.87036">
        <ele>2640</ele>
        <time>2026-03-23T10:58:08Z</time>
      </trkpt>
      <trkpt lat="44.74342" lon="6.87036">
        <ele>2640</ele>
        <time>2026-03-23T10:58:09Z</time>
      </trkpt>
      <trkpt lat="44.74342" lon="6.87036">
        <ele>2640</ele>
        <time>2026-03-23T10:58:10Z</time>
      </trkpt>
      <trkpt lat="44.74342" lon="6.87036">
        <ele>2640</ele>
        <time>2026-03-23T10:58:11Z</time>
      </trkpt>
      <trkpt lat="44.74342" lon="6.87036">
        <ele>2640.1</ele>
        <time>2026-03-23T10:58:12Z</time>
      </trkpt>
      <trkpt lat="44.74342" lon="6.87036">
        <ele>2640.1</ele>
        <time>2026-03-23T10:58:13Z</time>
      </trkpt>
      <trkpt lat="44.74342" lon="6.87036">
        <ele>2640.1</ele>
        <time>2026-03-23T10:58:14Z</time>
      </trkpt>
      <trkpt lat="44.74342" lon="6.87036">
        <ele>2640.1</ele>
        <time>2026-03-23T10:58:15Z</time>
      </trkpt>
      <trkpt lat="44.74342" lon="6.87036">
        <ele>2640.1</ele>
        <time>2026-03-23T10:58:16Z</time>
      </trkpt>
      <trkpt lat="44.74342" lon="6.87036">
        <ele>2640.1</ele>
        <time>2026-03-23T10:58:17Z</time>
      </trkpt>
      <trkpt lat="44.74342" lon="6.87036">
        <ele>2640.1</ele>
        <time>2026-03-23T10:58:18Z</time>
      </trkpt>
      <trkpt lat="44.74342" lon="6.87036">
        <ele>2640.1</ele>
        <time>2026-03-23T10:58:19Z</time>
      </trkpt>
      <trkpt lat="44.74342" lon="6.87035">
        <ele>2640.1</ele>
        <time>2026-03-23T10:58:20Z</time>
      </trkpt>
      <trkpt lat="44.74342" lon="6.87035">
        <ele>2640.1</ele>
        <time>2026-03-23T10:58:21Z</time>
      </trkpt>
      <trkpt lat="44.74342" lon="6.87035">
        <ele>2640.1</ele>
        <time>2026-03-23T10:58:22Z</time>
      </trkpt>
      <trkpt lat="44.74342" lon="6.87035">
        <ele>2640.1</ele>
        <time>2026-03-23T10:58:23Z</time>
      </trkpt>
      <trkpt lat="44.74342" lon="6.87035">
        <ele>2640.1</ele>
        <time>2026-03-23T10:58:24Z</time>
      </trkpt>
      <trkpt lat="44.74342" lon="6.87035">
        <ele>2640.1</ele>
        <time>2026-03-23T10:58:25Z</time>
      </trkpt>
      <trkpt lat="44.74342" lon="6.87035">
        <ele>2640.1</ele>
        <time>2026-03-23T10:58:26Z</time>
      </trkpt>
      <trkpt lat="44.74342" lon="6.87035">
        <ele>2640.1</ele>
        <time>2026-03-23T10:58:27Z</time>
      </trkpt>
      <trkpt lat="44.74342" lon="6.87035">
        <ele>2640.1</ele>
        <time>2026-03-23T10:58:28Z</time>
      </trkpt>
      <trkpt lat="44.74342" lon="6.87035">
        <ele>2640.2</ele>
        <time>2026-03-23T10:58:29Z</time>
      </trkpt>
      <trkpt lat="44.74342" lon="6.87035">
        <ele>2640.2</ele>
        <time>2026-03-23T10:58:30Z</time>
      </trkpt>
      <trkpt lat="44.74342" lon="6.87035">
        <ele>2640.2</ele>
        <time>2026-03-23T10:58:31Z</time>
      </trkpt>
      <trkpt lat="44.74342" lon="6.87035">
        <ele>2640.2</ele>
        <time>2026-03-23T10:58:32Z</time>
      </trkpt>
      <trkpt lat="44.74342" lon="6.87035">
        <ele>2640.2</ele>
        <time>2026-03-23T10:58:33Z</time>
      </trkpt>
      <trkpt lat="44.74342" lon="6.87035">
        <ele>2640.2</ele>
        <time>2026-03-23T10:58:34Z</time>
      </trkpt>
      <trkpt lat="44.74342" lon="6.87035">
        <ele>2640.2</ele>
        <time>2026-03-23T10:58:35Z</time>
      </trkpt>
      <trkpt lat="44.74342" lon="6.87035">
        <ele>2640.2</ele>
        <time>2026-03-23T10:58:36Z</time>
      </trkpt>
      <trkpt lat="44.74342" lon="6.87035">
        <ele>2640.2</ele>
        <time>2026-03-23T10:58:37Z</time>
      </trkpt>
      <trkpt lat="44.74342" lon="6.87035">
        <ele>2640.2</ele>
        <time>2026-03-23T10:58:38Z</time>
      </trkpt>
      <trkpt lat="44.74342" lon="6.87035">
        <ele>2640.2</ele>
        <time>2026-03-23T10:58:39Z</time>
      </trkpt>
      <trkpt lat="44.74342" lon="6.87035">
        <ele>2640.2</ele>
        <time>2026-03-23T10:58:40Z</time>
      </trkpt>
      <trkpt lat="44.74342" lon="6.87035">
        <ele>2640.2</ele>
        <time>2026-03-23T10:58:41Z</time>
      </trkpt>
      <trkpt lat="44.74342" lon="6.87035">
        <ele>2640.2</ele>
        <time>2026-03-23T10:58:42Z</time>
      </trkpt>
      <trkpt lat="44.74342" lon="6.87034">
        <ele>2640.2</ele>
        <time>2026-03-23T10:58:43Z</time>
      </trkpt>
      <trkpt lat="44.74342" lon="6.87034">
        <ele>2640.2</ele>
        <time>2026-03-23T10:58:44Z</time>
      </trkpt>
      <trkpt lat="44.74342" lon="6.87034">
        <ele>2640.3</ele>
        <time>2026-03-23T10:58:45Z</time>
      </trkpt>
      <trkpt lat="44.74342" lon="6.87034">
        <ele>2640.3</ele>
        <time>2026-03-23T10:58:46Z</time>
      </trkpt>
      <trkpt lat="44.74342" lon="6.87034">
        <ele>2640.3</ele>
        <time>2026-03-23T10:58:47Z</time>
      </trkpt>
      <trkpt lat="44.74342" lon="6.87034">
        <ele>2640.3</ele>
        <time>2026-03-23T10:58:48Z</time>
      </trkpt>
      <trkpt lat="44.74342" lon="6.87034">
        <ele>2640.3</ele>
        <time>2026-03-23T10:58:49Z</time>
      </trkpt>
      <trkpt lat="44.74342" lon="6.87034">
        <ele>2640.3</ele>
        <time>2026-03-23T10:58:50Z</time>
      </trkpt>
      <trkpt lat="44.74342" lon="6.87034">
        <ele>2640.3</ele>
        <time>2026-03-23T10:58:51Z</time>
      </trkpt>
      <trkpt lat="44.74342" lon="6.87034">
        <ele>2640.3</ele>
        <time>2026-03-23T10:58:52Z</time>
      </trkpt>
      <trkpt lat="44.74342" lon="6.87034">
        <ele>2640.3</ele>
        <time>2026-03-23T10:58:53Z</time>
      </trkpt>
      <trkpt lat="44.74342" lon="6.87034">
        <ele>2640.3</ele>
        <time>2026-03-23T10:58:54Z</time>
      </trkpt>
      <trkpt lat="44.74342" lon="6.87034">
        <ele>2640.3</ele>
        <time>2026-03-23T10:58:55Z</time>
      </trkpt>
      <trkpt lat="44.74342" lon="6.87034">
        <ele>2640.3</ele>
        <time>2026-03-23T10:58:56Z</time>
      </trkpt>
      <trkpt lat="44.74342" lon="6.87034">
        <ele>2640.3</ele>
        <time>2026-03-23T10:58:57Z</time>
      </trkpt>
      <trkpt lat="44.74342" lon="6.87034">
        <ele>2640.3</ele>
        <time>2026-03-23T10:58:58Z</time>
      </trkpt>
      <trkpt lat="44.74342" lon="6.87034">
        <ele>2640.3</ele>
        <time>2026-03-23T10:58:59Z</time>
      </trkpt>
      <trkpt lat="44.74342" lon="6.87034">
        <ele>2640.3</ele>
        <time>2026-03-23T10:59:00Z</time>
      </trkpt>
      <trkpt lat="44.74342" lon="6.87034">
        <ele>2640.3</ele>
        <time>2026-03-23T10:59:01Z</time>
      </trkpt>
      <trkpt lat="44.74342" lon="6.87034">
        <ele>2640.4</ele>
        <time>2026-03-23T10:59:02Z</time>
      </trkpt>
      <trkpt lat="44.74342" lon="6.87034">
        <ele>2640.4</ele>
        <time>2026-03-23T10:59:03Z</time>
      </trkpt>
      <trkpt lat="44.74342" lon="6.87034">
        <ele>2640.4</ele>
        <time>2026-03-23T10:59:04Z</time>
      </trkpt>
      <trkpt lat="44.74342" lon="6.87034">
        <ele>2640.4</ele>
        <time>2026-03-23T10:59:05Z</time>
      </trkpt>
      <trkpt lat="44.74342" lon="6.87034">
        <ele>2640.4</ele>
        <time>2026-03-23T10:59:06Z</time>
      </trkpt>
      <trkpt lat="44.74342" lon="6.87034">
        <ele>2640.4</ele>
        <time>2026-03-23T10:59:07Z</time>
      </trkpt>
      <trkpt lat="44.74342" lon="6.87034">
        <ele>2640.4</ele>
        <time>2026-03-23T10:59:08Z</time>
      </trkpt>
      <trkpt lat="44.74342" lon="6.87034">
        <ele>2640.4</ele>
        <time>2026-03-23T10:59:09Z</time>
      </trkpt>
      <trkpt lat="44.74342" lon="6.87034">
        <ele>2640.4</ele>
        <time>2026-03-23T10:59:10Z</time>
      </trkpt>
      <trkpt lat="44.74342" lon="6.87034">
        <ele>2640.4</ele>
        <time>2026-03-23T10:59:11Z</time>
      </trkpt>
      <trkpt lat="44.74342" lon="6.87034">
        <ele>2640.4</ele>
        <time>2026-03-23T10:59:12Z</time>
      </trkpt>
      <trkpt lat="44.74342" lon="6.87034">
        <ele>2640.4</ele>
        <time>2026-03-23T10:59:13Z</time>
      </trkpt>
      <trkpt lat="44.74342" lon="6.87034">
        <ele>2640.4</ele>
        <time>2026-03-23T10:59:14Z</time>
      </trkpt>
      <trkpt lat="44.74342" lon="6.87034">
        <ele>2640.4</ele>
        <time>2026-03-23T10:59:15Z</time>
      </trkpt>
      <trkpt lat="44.74342" lon="6.87034">
        <ele>2640.4</ele>
        <time>2026-03-23T10:59:16Z</time>
      </trkpt>
      <trkpt lat="44.74342" lon="6.87034">
        <ele>2640.4</ele>
        <time>2026-03-23T10:59:17Z</time>
      </trkpt>
      <trkpt lat="44.74342" lon="6.87034">
        <ele>2640.4</ele>
        <time>2026-03-23T10:59:18Z</time>
      </trkpt>
      <trkpt lat="44.74342" lon="6.87034">
        <ele>2640.5</ele>
        <time>2026-03-23T10:59:19Z</time>
      </trkpt>
      <trkpt lat="44.74342" lon="6.87034">
        <ele>2640.5</ele>
        <time>2026-03-23T10:59:20Z</time>
      </trkpt>
      <trkpt lat="44.74342" lon="6.87034">
        <ele>2640.5</ele>
        <time>2026-03-23T10:59:21Z</time>
      </trkpt>
      <trkpt lat="44.74342" lon="6.87034">
        <ele>2640.5</ele>
        <time>2026-03-23T10:59:22Z</time>
      </trkpt>
      <trkpt lat="44.74342" lon="6.87034">
        <ele>2640.5</ele>
        <time>2026-03-23T10:59:23Z</time>
      </trkpt>
      <trkpt lat="44.74342" lon="6.87034">
        <ele>2640.5</ele>
        <time>2026-03-23T10:59:24Z</time>
      </trkpt>
      <trkpt lat="44.74342" lon="6.87034">
        <ele>2640.5</ele>
        <time>2026-03-23T10:59:25Z</time>
      </trkpt>
      <trkpt lat="44.74342" lon="6.87034">
        <ele>2640.5</ele>
        <time>2026-03-23T10:59:26Z</time>
      </trkpt>
      <trkpt lat="44.74342" lon="6.87034">
        <ele>2640.5</ele>
        <time>2026-03-23T10:59:27Z</time>
      </trkpt>
      <trkpt lat="44.74342" lon="6.87034">
        <ele>2640.5</ele>
        <time>2026-03-23T10:59:28Z</time>
      </trkpt>
      <trkpt lat="44.74342" lon="6.87034">
        <ele>2640.5</ele>
        <time>2026-03-23T10:59:29Z</time>
      </trkpt>
      <trkpt lat="44.74342" lon="6.87034">
        <ele>2640.5</ele>
        <time>2026-03-23T10:59:30Z</time>
      </trkpt>
      <trkpt lat="44.74342" lon="6.87034">
        <ele>2640.5</ele>
        <time>2026-03-23T10:59:31Z</time>
      </trkpt>
      <trkpt lat="44.74342" lon="6.87034">
        <ele>2640.5</ele>
        <time>2026-03-23T10:59:32Z</time>
      </trkpt>
      <trkpt lat="44.74342" lon="6.87034">
        <ele>2640.5</ele>
        <time>2026-03-23T10:59:33Z</time>
      </trkpt>
      <trkpt lat="44.74342" lon="6.87034">
        <ele>2640.5</ele>
        <time>2026-03-23T10:59:34Z</time>
      </trkpt>
      <trkpt lat="44.74342" lon="6.87034">
        <ele>2640.6</ele>
        <time>2026-03-23T10:59:35Z</time>
      </trkpt>
      <trkpt lat="44.74342" lon="6.87034">
        <ele>2640.6</ele>
        <time>2026-03-23T10:59:36Z</time>
      </trkpt>
      <trkpt lat="44.74342" lon="6.87034">
        <ele>2640.6</ele>
        <time>2026-03-23T10:59:37Z</time>
      </trkpt>
      <trkpt lat="44.74342" lon="6.87034">
        <ele>2640.6</ele>
        <time>2026-03-23T10:59:38Z</time>
      </trkpt>
      <trkpt lat="44.74342" lon="6.87034">
        <ele>2640.6</ele>
        <time>2026-03-23T10:59:39Z</time>
      </trkpt>
      <trkpt lat="44.74342" lon="6.87034">
        <ele>2640.6</ele>
        <time>2026-03-23T10:59:40Z</time>
      </trkpt>
      <trkpt lat="44.74342" lon="6.87034">
        <ele>2640.6</ele>
        <time>2026-03-23T10:59:41Z</time>
      </trkpt>
      <trkpt lat="44.74342" lon="6.87034">
        <ele>2640.6</ele>
        <time>2026-03-23T10:59:42Z</time>
      </trkpt>
      <trkpt lat="44.74342" lon="6.87034">
        <ele>2640.6</ele>
        <time>2026-03-23T10:59:43Z</time>
      </trkpt>
      <trkpt lat="44.74342" lon="6.87034">
        <ele>2640.6</ele>
        <time>2026-03-23T10:59:44Z</time>
      </trkpt>
      <trkpt lat="44.74342" lon="6.87034">
        <ele>2640.6</ele>
        <time>2026-03-23T10:59:45Z</time>
      </trkpt>
      <trkpt lat="44.74342" lon="6.87034">
        <ele>2640.6</ele>
        <time>2026-03-23T10:59:46Z</time>
      </trkpt>
      <trkpt lat="44.74342" lon="6.87034">
        <ele>2640.6</ele>
        <time>2026-03-23T10:59:47Z</time>
      </trkpt>
      <trkpt lat="44.74342" lon="6.87034">
        <ele>2640.6</ele>
        <time>2026-03-23T10:59:48Z</time>
      </trkpt>
      <trkpt lat="44.74342" lon="6.87034">
        <ele>2640.6</ele>
        <time>2026-03-23T10:59:49Z</time>
      </trkpt>
      <trkpt lat="44.74342" lon="6.87034">
        <ele>2640.6</ele>
        <time>2026-03-23T10:59:50Z</time>
      </trkpt>
      <trkpt lat="44.74342" lon="6.87034">
        <ele>2640.6</ele>
        <time>2026-03-23T10:59:51Z</time>
      </trkpt>
      <trkpt lat="44.74342" lon="6.87034">
        <ele>2640.7</ele>
        <time>2026-03-23T10:59:52Z</time>
      </trkpt>
      <trkpt lat="44.74342" lon="6.87034">
        <ele>2640.7</ele>
        <time>2026-03-23T10:59:53Z</time>
      </trkpt>
      <trkpt lat="44.74342" lon="6.87034">
        <ele>2640.7</ele>
        <time>2026-03-23T10:59:54Z</time>
      </trkpt>
      <trkpt lat="44.74342" lon="6.87034">
        <ele>2640.7</ele>
        <time>2026-03-23T10:59:55Z</time>
      </trkpt>
      <trkpt lat="44.74342" lon="6.87034">
        <ele>2640.7</ele>
        <time>2026-03-23T10:59:56Z</time>
      </trkpt>
      <trkpt lat="44.74342" lon="6.87034">
        <ele>2640.7</ele>
        <time>2026-03-23T10:59:57Z</time>
      </trkpt>
      <trkpt lat="44.74342" lon="6.87034">
        <ele>2640.7</ele>
        <time>2026-03-23T10:59:58Z</time>
      </trkpt>
      <trkpt lat="44.74342" lon="6.87034">
        <ele>2640.7</ele>
        <time>2026-03-23T10:59:59Z</time>
      </trkpt>
      <trkpt lat="44.74342" lon="6.87034">
        <ele>2640.7</ele>
        <time>2026-03-23T11:00:00Z</time>
      </trkpt>
      <trkpt lat="44.74342" lon="6.87034">
        <ele>2640.7</ele>
        <time>2026-03-23T11:00:01Z</time>
      </trkpt>
      <trkpt lat="44.74342" lon="6.87034">
        <ele>2640.7</ele>
        <time>2026-03-23T11:00:02Z</time>
      </trkpt>
      <trkpt lat="44.74342" lon="6.87034">
        <ele>2640.7</ele>
        <time>2026-03-23T11:00:03Z</time>
      </trkpt>
      <trkpt lat="44.74342" lon="6.87034">
        <ele>2640.7</ele>
        <time>2026-03-23T11:00:04Z</time>
      </trkpt>
      <trkpt lat="44.74342" lon="6.87034">
        <ele>2640.7</ele>
        <time>2026-03-23T11:00:05Z</time>
      </trkpt>
      <trkpt lat="44.74342" lon="6.87034">
        <ele>2640.7</ele>
        <time>2026-03-23T11:00:06Z</time>
      </trkpt>
      <trkpt lat="44.74342" lon="6.87034">
        <ele>2640.7</ele>
        <time>2026-03-23T11:00:07Z</time>
      </trkpt>
      <trkpt lat="44.74342" lon="6.87034">
        <ele>2640.8</ele>
        <time>2026-03-23T11:00:08Z</time>
      </trkpt>
      <trkpt lat="44.74342" lon="6.87034">
        <ele>2640.8</ele>
        <time>2026-03-23T11:00:09Z</time>
      </trkpt>
      <trkpt lat="44.74342" lon="6.87034">
        <ele>2640.8</ele>
        <time>2026-03-23T11:00:10Z</time>
      </trkpt>
      <trkpt lat="44.74342" lon="6.87034">
        <ele>2640.8</ele>
        <time>2026-03-23T11:00:11Z</time>
      </trkpt>
      <trkpt lat="44.74342" lon="6.87034">
        <ele>2640.8</ele>
        <time>2026-03-23T11:00:12Z</time>
      </trkpt>
      <trkpt lat="44.74342" lon="6.87034">
        <ele>2640.8</ele>
        <time>2026-03-23T11:00:13Z</time>
      </trkpt>
      <trkpt lat="44.74342" lon="6.87034">
        <ele>2640.8</ele>
        <time>2026-03-23T11:00:14Z</time>
      </trkpt>
      <trkpt lat="44.74342" lon="6.87034">
        <ele>2640.8</ele>
        <time>2026-03-23T11:00:15Z</time>
      </trkpt>
      <trkpt lat="44.74342" lon="6.87034">
        <ele>2640.8</ele>
        <time>2026-03-23T11:00:16Z</time>
      </trkpt>
      <trkpt lat="44.74342" lon="6.87034">
        <ele>2640.8</ele>
        <time>2026-03-23T11:00:17Z</time>
      </trkpt>
      <trkpt lat="44.74342" lon="6.87034">
        <ele>2640.8</ele>
        <time>2026-03-23T11:00:18Z</time>
      </trkpt>
      <trkpt lat="44.74342" lon="6.87034">
        <ele>2640.8</ele>
        <time>2026-03-23T11:00:19Z</time>
      </trkpt>
      <trkpt lat="44.74342" lon="6.87034">
        <ele>2640.8</ele>
        <time>2026-03-23T11:00:20Z</time>
      </trkpt>
      <trkpt lat="44.74342" lon="6.87034">
        <ele>2640.8</ele>
        <time>2026-03-23T11:00:21Z</time>
      </trkpt>
      <trkpt lat="44.74342" lon="6.87034">
        <ele>2640.8</ele>
        <time>2026-03-23T11:00:22Z</time>
      </trkpt>
      <trkpt lat="44.74342" lon="6.87034">
        <ele>2640.8</ele>
        <time>2026-03-23T11:00:23Z</time>
      </trkpt>
      <trkpt lat="44.74342" lon="6.87034">
        <ele>2640.8</ele>
        <time>2026-03-23T11:00:24Z</time>
      </trkpt>
      <trkpt lat="44.74342" lon="6.87034">
        <ele>2640.9</ele>
        <time>2026-03-23T11:00:25Z</time>
      </trkpt>
      <trkpt lat="44.74342" lon="6.87034">
        <ele>2640.9</ele>
        <time>2026-03-23T11:00:26Z</time>
      </trkpt>
      <trkpt lat="44.74342" lon="6.87034">
        <ele>2640.9</ele>
        <time>2026-03-23T11:00:27Z</time>
      </trkpt>
      <trkpt lat="44.74342" lon="6.87034">
        <ele>2640.9</ele>
        <time>2026-03-23T11:00:28Z</time>
      </trkpt>
      <trkpt lat="44.74342" lon="6.87034">
        <ele>2640.9</ele>
        <time>2026-03-23T11:00:29Z</time>
      </trkpt>
      <trkpt lat="44.74342" lon="6.87034">
        <ele>2640.9</ele>
        <time>2026-03-23T11:00:30Z</time>
      </trkpt>
      <trkpt lat="44.74342" lon="6.87034">
        <ele>2640.9</ele>
        <time>2026-03-23T11:00:31Z</time>
      </trkpt>
      <trkpt lat="44.74342" lon="6.87034">
        <ele>2640.9</ele>
        <time>2026-03-23T11:00:32Z</time>
      </trkpt>
      <trkpt lat="44.74342" lon="6.87034">
        <ele>2640.9</ele>
        <time>2026-03-23T11:00:33Z</time>
      </trkpt>
      <trkpt lat="44.74342" lon="6.87034">
        <ele>2640.9</ele>
        <time>2026-03-23T11:00:34Z</time>
      </trkpt>
      <trkpt lat="44.74342" lon="6.87034">
        <ele>2640.9</ele>
        <time>2026-03-23T11:00:35Z</time>
      </trkpt>
      <trkpt lat="44.74342" lon="6.87034">
        <ele>2640.9</ele>
        <time>2026-03-23T11:00:36Z</time>
      </trkpt>
      <trkpt lat="44.74342" lon="6.87034">
        <ele>2640.9</ele>
        <time>2026-03-23T11:00:37Z</time>
      </trkpt>
      <trkpt lat="44.74342" lon="6.87034">
        <ele>2640.9</ele>
        <time>2026-03-23T11:00:38Z</time>
      </trkpt>
      <trkpt lat="44.74342" lon="6.87034">
        <ele>2640.9</ele>
        <time>2026-03-23T11:00:39Z</time>
      </trkpt>
      <trkpt lat="44.74342" lon="6.87034">
        <ele>2640.9</ele>
        <time>2026-03-23T11:00:40Z</time>
      </trkpt>
      <trkpt lat="44.74342" lon="6.87034">
        <ele>2641</ele>
        <time>2026-03-23T11:00:41Z</time>
      </trkpt>
      <trkpt lat="44.74342" lon="6.87034">
        <ele>2641</ele>
        <time>2026-03-23T11:00:42Z</time>
      </trkpt>
      <trkpt lat="44.74342" lon="6.87034">
        <ele>2641</ele>
        <time>2026-03-23T11:00:43Z</time>
      </trkpt>
      <trkpt lat="44.74342" lon="6.87034">
        <ele>2641</ele>
        <time>2026-03-23T11:00:44Z</time>
      </trkpt>
      <trkpt lat="44.74342" lon="6.87034">
        <ele>2641</ele>
        <time>2026-03-23T11:00:45Z</time>
      </trkpt>
      <trkpt lat="44.74342" lon="6.87034">
        <ele>2641</ele>
        <time>2026-03-23T11:00:46Z</time>
      </trkpt>
      <trkpt lat="44.74342" lon="6.87034">
        <ele>2641</ele>
        <time>2026-03-23T11:00:47Z</time>
      </trkpt>
      <trkpt lat="44.74342" lon="6.87034">
        <ele>2641</ele>
        <time>2026-03-23T11:00:48Z</time>
      </trkpt>
      <trkpt lat="44.74342" lon="6.87034">
        <ele>2641</ele>
        <time>2026-03-23T11:00:49Z</time>
      </trkpt>
      <trkpt lat="44.74342" lon="6.87034">
        <ele>2641</ele>
        <time>2026-03-23T11:00:50Z</time>
      </trkpt>
      <trkpt lat="44.74342" lon="6.87034">
        <ele>2641</ele>
        <time>2026-03-23T11:00:51Z</time>
      </trkpt>
      <trkpt lat="44.74342" lon="6.87034">
        <ele>2641</ele>
        <time>2026-03-23T11:00:52Z</time>
      </trkpt>
      <trkpt lat="44.74342" lon="6.87034">
        <ele>2641</ele>
        <time>2026-03-23T11:00:53Z</time>
      </trkpt>
      <trkpt lat="44.74342" lon="6.87034">
        <ele>2641</ele>
        <time>2026-03-23T11:00:54Z</time>
      </trkpt>
      <trkpt lat="44.74342" lon="6.87034">
        <ele>2641</ele>
        <time>2026-03-23T11:00:55Z</time>
      </trkpt>
      <trkpt lat="44.74342" lon="6.87034">
        <ele>2641</ele>
        <time>2026-03-23T11:00:56Z</time>
      </trkpt>
      <trkpt lat="44.74342" lon="6.87034">
        <ele>2641</ele>
        <time>2026-03-23T11:00:57Z</time>
      </trkpt>
      <trkpt lat="44.74342" lon="6.87034">
        <ele>2641.1</ele>
        <time>2026-03-23T11:00:58Z</time>
      </trkpt>
      <trkpt lat="44.74342" lon="6.87034">
        <ele>2641.1</ele>
        <time>2026-03-23T11:00:59Z</time>
      </trkpt>
      <trkpt lat="44.74342" lon="6.87034">
        <ele>2641.1</ele>
        <time>2026-03-23T11:01:00Z</time>
      </trkpt>
      <trkpt lat="44.74342" lon="6.87034">
        <ele>2641.1</ele>
        <time>2026-03-23T11:01:01Z</time>
      </trkpt>
      <trkpt lat="44.74342" lon="6.87034">
        <ele>2641.1</ele>
        <time>2026-03-23T11:01:02Z</time>
      </trkpt>
      <trkpt lat="44.74342" lon="6.87034">
        <ele>2641.1</ele>
        <time>2026-03-23T11:01:03Z</time>
      </trkpt>
      <trkpt lat="44.74342" lon="6.87034">
        <ele>2641.1</ele>
        <time>2026-03-23T11:01:04Z</time>
      </trkpt>
      <trkpt lat="44.74342" lon="6.87034">
        <ele>2641.1</ele>
        <time>2026-03-23T11:01:05Z</time>
      </trkpt>
      <trkpt lat="44.74342" lon="6.87034">
        <ele>2641.1</ele>
        <time>2026-03-23T11:01:06Z</time>
      </trkpt>
      <trkpt lat="44.74342" lon="6.87034">
        <ele>2641.1</ele>
        <time>2026-03-23T11:01:07Z</time>
      </trkpt>
      <trkpt lat="44.74342" lon="6.87033">
        <ele>2641.1</ele>
        <time>2026-03-23T11:01:08Z</time>
      </trkpt>
      <trkpt lat="44.74342" lon="6.87033">
        <ele>2641.1</ele>
        <time>2026-03-23T11:01:09Z</time>
      </trkpt>
      <trkpt lat="44.74342" lon="6.87033">
        <ele>2641.1</ele>
        <time>2026-03-23T11:01:10Z</time>
      </trkpt>
      <trkpt lat="44.74342" lon="6.87033">
        <ele>2641.1</ele>
        <time>2026-03-23T11:01:11Z</time>
      </trkpt>
      <trkpt lat="44.74342" lon="6.87033">
        <ele>2641.1</ele>
        <time>2026-03-23T11:01:12Z</time>
      </trkpt>
      <trkpt lat="44.74343" lon="6.87032">
        <ele>2641.1</ele>
        <time>2026-03-23T11:01:13Z</time>
      </trkpt>
      <trkpt lat="44.74343" lon="6.87032">
        <ele>2641.1</ele>
        <time>2026-03-23T11:01:14Z</time>
      </trkpt>
      <trkpt lat="44.74343" lon="6.87032">
        <ele>2641.2</ele>
        <time>2026-03-23T11:01:15Z</time>
      </trkpt>
      <trkpt lat="44.74343" lon="6.87032">
        <ele>2641.2</ele>
        <time>2026-03-23T11:01:16Z</time>
      </trkpt>
      <trkpt lat="44.74343" lon="6.87032">
        <ele>2641.2</ele>
        <time>2026-03-23T11:01:17Z</time>
      </trkpt>
      <trkpt lat="44.74343" lon="6.87032">
        <ele>2641.2</ele>
        <time>2026-03-23T11:01:18Z</time>
      </trkpt>
      <trkpt lat="44.74343" lon="6.87032">
        <ele>2641.2</ele>
        <time>2026-03-23T11:01:19Z</time>
      </trkpt>
      <trkpt lat="44.74343" lon="6.87032">
        <ele>2641.2</ele>
        <time>2026-03-23T11:01:20Z</time>
      </trkpt>
      <trkpt lat="44.74343" lon="6.87033">
        <ele>2641.2</ele>
        <time>2026-03-23T11:01:21Z</time>
      </trkpt>
      <trkpt lat="44.74343" lon="6.87033">
        <ele>2641.2</ele>
        <time>2026-03-23T11:01:22Z</time>
      </trkpt>
      <trkpt lat="44.74343" lon="6.87033">
        <ele>2641.2</ele>
        <time>2026-03-23T11:01:23Z</time>
      </trkpt>
      <trkpt lat="44.74343" lon="6.87033">
        <ele>2641.2</ele>
        <time>2026-03-23T11:01:24Z</time>
      </trkpt>
      <trkpt lat="44.74343" lon="6.87033">
        <ele>2641.2</ele>
        <time>2026-03-23T11:01:25Z</time>
      </trkpt>
      <trkpt lat="44.74343" lon="6.87033">
        <ele>2641.2</ele>
        <time>2026-03-23T11:01:26Z</time>
      </trkpt>
      <trkpt lat="44.74343" lon="6.87033">
        <ele>2641.2</ele>
        <time>2026-03-23T11:01:27Z</time>
      </trkpt>
      <trkpt lat="44.74343" lon="6.87033">
        <ele>2641.2</ele>
        <time>2026-03-23T11:01:28Z</time>
      </trkpt>
      <trkpt lat="44.74343" lon="6.87032">
        <ele>2641.2</ele>
        <time>2026-03-23T11:01:29Z</time>
      </trkpt>
      <trkpt lat="44.74343" lon="6.87032">
        <ele>2641.2</ele>
        <time>2026-03-23T11:01:30Z</time>
      </trkpt>
      <trkpt lat="44.74343" lon="6.87032">
        <ele>2641.3</ele>
        <time>2026-03-23T11:01:31Z</time>
      </trkpt>
      <trkpt lat="44.74343" lon="6.87032">
        <ele>2641.3</ele>
        <time>2026-03-23T11:01:32Z</time>
      </trkpt>
      <trkpt lat="44.74344" lon="6.87032">
        <ele>2641.3</ele>
        <time>2026-03-23T11:01:33Z</time>
      </trkpt>
      <trkpt lat="44.74344" lon="6.87033">
        <ele>2641.3</ele>
        <time>2026-03-23T11:01:34Z</time>
      </trkpt>
      <trkpt lat="44.74344" lon="6.87033">
        <ele>2641.3</ele>
        <time>2026-03-23T11:01:35Z</time>
      </trkpt>
      <trkpt lat="44.74344" lon="6.87033">
        <ele>2641.8</ele>
        <time>2026-03-23T11:01:36Z</time>
      </trkpt>
      <trkpt lat="44.74344" lon="6.87034">
        <ele>2641.8</ele>
        <time>2026-03-23T11:01:37Z</time>
      </trkpt>
      <trkpt lat="44.74345" lon="6.87034">
        <ele>2641.8</ele>
        <time>2026-03-23T11:01:38Z</time>
      </trkpt>
      <trkpt lat="44.74345" lon="6.87034">
        <ele>2641.8</ele>
        <time>2026-03-23T11:01:39Z</time>
      </trkpt>
      <trkpt lat="44.74346" lon="6.87034">
        <ele>2641.8</ele>
        <time>2026-03-23T11:01:40Z</time>
      </trkpt>
      <trkpt lat="44.74346" lon="6.87034">
        <ele>2641.8</ele>
        <time>2026-03-23T11:01:41Z</time>
      </trkpt>
      <trkpt lat="44.74347" lon="6.87035">
        <ele>2641.8</ele>
        <time>2026-03-23T11:01:42Z</time>
      </trkpt>
      <trkpt lat="44.74347" lon="6.87035">
        <ele>2641.8</ele>
        <time>2026-03-23T11:01:43Z</time>
      </trkpt>
      <trkpt lat="44.74348" lon="6.87035">
        <ele>2642.3</ele>
        <time>2026-03-23T11:01:44Z</time>
      </trkpt>
      <trkpt lat="44.74348" lon="6.87035">
        <ele>2642.3</ele>
        <time>2026-03-23T11:01:45Z</time>
      </trkpt>
      <trkpt lat="44.74349" lon="6.87036">
        <ele>2642.3</ele>
        <time>2026-03-23T11:01:46Z</time>
      </trkpt>
      <trkpt lat="44.74349" lon="6.87036">
        <ele>2642.3</ele>
        <time>2026-03-23T11:01:47Z</time>
      </trkpt>
      <trkpt lat="44.74349" lon="6.87036">
        <ele>2643.4</ele>
        <time>2026-03-23T11:01:48Z</time>
      </trkpt>
      <trkpt lat="44.7435" lon="6.87037">
        <ele>2643.4</ele>
        <time>2026-03-23T11:01:49Z</time>
      </trkpt>
      <trkpt lat="44.7435" lon="6.87037">
        <ele>2643.4</ele>
        <time>2026-03-23T11:01:50Z</time>
      </trkpt>
      <trkpt lat="44.74351" lon="6.87038">
        <ele>2643.9</ele>
        <time>2026-03-23T11:01:51Z</time>
      </trkpt>
      <trkpt lat="44.74351" lon="6.87038">
        <ele>2643.9</ele>
        <time>2026-03-23T11:01:52Z</time>
      </trkpt>
      <trkpt lat="44.74352" lon="6.87038">
        <ele>2643.9</ele>
        <time>2026-03-23T11:01:53Z</time>
      </trkpt>
      <trkpt lat="44.74352" lon="6.87038">
        <ele>2643.9</ele>
        <time>2026-03-23T11:01:54Z</time>
      </trkpt>
      <trkpt lat="44.74353" lon="6.87038">
        <ele>2643.9</ele>
        <time>2026-03-23T11:01:55Z</time>
      </trkpt>
      <trkpt lat="44.74353" lon="6.87039">
        <ele>2643.9</ele>
        <time>2026-03-23T11:01:56Z</time>
      </trkpt>
      <trkpt lat="44.74354" lon="6.87039">
        <ele>2644.5</ele>
        <time>2026-03-23T11:01:57Z</time>
      </trkpt>
      <trkpt lat="44.74354" lon="6.87039">
        <ele>2644.5</ele>
        <time>2026-03-23T11:01:58Z</time>
      </trkpt>
      <trkpt lat="44.74354" lon="6.8704">
        <ele>2644.5</ele>
        <time>2026-03-23T11:01:59Z</time>
      </trkpt>
      <trkpt lat="44.74354" lon="6.8704">
        <ele>2644.5</ele>
        <time>2026-03-23T11:02:00Z</time>
      </trkpt>
      <trkpt lat="44.74355" lon="6.87041">
        <ele>2645.6</ele>
        <time>2026-03-23T11:02:01Z</time>
      </trkpt>
      <trkpt lat="44.74355" lon="6.87041">
        <ele>2645.6</ele>
        <time>2026-03-23T11:02:02Z</time>
      </trkpt>
      <trkpt lat="44.74356" lon="6.87042">
        <ele>2645.6</ele>
        <time>2026-03-23T11:02:03Z</time>
      </trkpt>
      <trkpt lat="44.74356" lon="6.87042">
        <ele>2645.6</ele>
        <time>2026-03-23T11:02:04Z</time>
      </trkpt>
      <trkpt lat="44.74356" lon="6.87043">
        <ele>2645.6</ele>
        <time>2026-03-23T11:02:05Z</time>
      </trkpt>
      <trkpt lat="44.74356" lon="6.87043">
        <ele>2646.2</ele>
        <time>2026-03-23T11:02:06Z</time>
      </trkpt>
      <trkpt lat="44.74357" lon="6.87043">
        <ele>2646.2</ele>
        <time>2026-03-23T11:02:07Z</time>
      </trkpt>
      <trkpt lat="44.74357" lon="6.87043">
        <ele>2646.2</ele>
        <time>2026-03-23T11:02:08Z</time>
      </trkpt>
      <trkpt lat="44.74357" lon="6.87043">
        <ele>2646.2</ele>
        <time>2026-03-23T11:02:09Z</time>
      </trkpt>
      <trkpt lat="44.74357" lon="6.87044">
        <ele>2646.3</ele>
        <time>2026-03-23T11:02:10Z</time>
      </trkpt>
      <trkpt lat="44.74358" lon="6.87044">
        <ele>2646.3</ele>
        <time>2026-03-23T11:02:11Z</time>
      </trkpt>
      <trkpt lat="44.74358" lon="6.87045">
        <ele>2647.4</ele>
        <time>2026-03-23T11:02:12Z</time>
      </trkpt>
      <trkpt lat="44.74359" lon="6.87045">
        <ele>2647.4</ele>
        <time>2026-03-23T11:02:13Z</time>
      </trkpt>
      <trkpt lat="44.74359" lon="6.87046">
        <ele>2647.4</ele>
        <time>2026-03-23T11:02:14Z</time>
      </trkpt>
      <trkpt lat="44.7436" lon="6.87046">
        <ele>2648.1</ele>
        <time>2026-03-23T11:02:15Z</time>
      </trkpt>
      <trkpt lat="44.7436" lon="6.87047">
        <ele>2648.1</ele>
        <time>2026-03-23T11:02:16Z</time>
      </trkpt>
      <trkpt lat="44.74361" lon="6.87047">
        <ele>2648.1</ele>
        <time>2026-03-23T11:02:17Z</time>
      </trkpt>
      <trkpt lat="44.74361" lon="6.87048">
        <ele>2648.1</ele>
        <time>2026-03-23T11:02:18Z</time>
      </trkpt>
      <trkpt lat="44.74362" lon="6.87049">
        <ele>2648.1</ele>
        <time>2026-03-23T11:02:19Z</time>
      </trkpt>
      <trkpt lat="44.74362" lon="6.8705">
        <ele>2649.3</ele>
        <time>2026-03-23T11:02:20Z</time>
      </trkpt>
      <trkpt lat="44.74363" lon="6.8705">
        <ele>2650</ele>
        <time>2026-03-23T11:02:21Z</time>
      </trkpt>
      <trkpt lat="44.74363" lon="6.8705">
        <ele>2650</ele>
        <time>2026-03-23T11:02:22Z</time>
      </trkpt>
      <trkpt lat="44.74363" lon="6.87051">
        <ele>2650</ele>
        <time>2026-03-23T11:02:23Z</time>
      </trkpt>
      <trkpt lat="44.74363" lon="6.87051">
        <ele>2650</ele>
        <time>2026-03-23T11:02:24Z</time>
      </trkpt>
      <trkpt lat="44.74363" lon="6.87051">
        <ele>2650</ele>
        <time>2026-03-23T11:02:25Z</time>
      </trkpt>
      <trkpt lat="44.74364" lon="6.8705">
        <ele>2650</ele>
        <time>2026-03-23T11:02:26Z</time>
      </trkpt>
      <trkpt lat="44.74364" lon="6.8705">
        <ele>2650</ele>
        <time>2026-03-23T11:02:27Z</time>
      </trkpt>
      <trkpt lat="44.74364" lon="6.87051">
        <ele>2650</ele>
        <time>2026-03-23T11:02:28Z</time>
      </trkpt>
      <trkpt lat="44.74364" lon="6.87051">
        <ele>2650</ele>
        <time>2026-03-23T11:02:29Z</time>
      </trkpt>
      <trkpt lat="44.74365" lon="6.87051">
        <ele>2650</ele>
        <time>2026-03-23T11:02:30Z</time>
      </trkpt>
      <trkpt lat="44.74365" lon="6.87051">
        <ele>2650</ele>
        <time>2026-03-23T11:02:31Z</time>
      </trkpt>
      <trkpt lat="44.74365" lon="6.87051">
        <ele>2650</ele>
        <time>2026-03-23T11:02:32Z</time>
      </trkpt>
      <trkpt lat="44.74366" lon="6.87051">
        <ele>2650.7</ele>
        <time>2026-03-23T11:02:33Z</time>
      </trkpt>
      <trkpt lat="44.74366" lon="6.87051">
        <ele>2650.7</ele>
        <time>2026-03-23T11:02:34Z</time>
      </trkpt>
      <trkpt lat="44.74367" lon="6.87051">
        <ele>2650.7</ele>
        <time>2026-03-23T11:02:35Z</time>
      </trkpt>
      <trkpt lat="44.74367" lon="6.87051">
        <ele>2650.7</ele>
        <time>2026-03-23T11:02:36Z</time>
      </trkpt>
      <trkpt lat="44.74368" lon="6.87051">
        <ele>2650.7</ele>
        <time>2026-03-23T11:02:37Z</time>
      </trkpt>
      <trkpt lat="44.74368" lon="6.8705">
        <ele>2650.7</ele>
        <time>2026-03-23T11:02:38Z</time>
      </trkpt>
      <trkpt lat="44.74369" lon="6.8705">
        <ele>2651.4</ele>
        <time>2026-03-23T11:02:39Z</time>
      </trkpt>
      <trkpt lat="44.74369" lon="6.8705">
        <ele>2651.4</ele>
        <time>2026-03-23T11:02:40Z</time>
      </trkpt>
      <trkpt lat="44.7437" lon="6.87049">
        <ele>2651.4</ele>
        <time>2026-03-23T11:02:41Z</time>
      </trkpt>
      <trkpt lat="44.7437" lon="6.87049">
        <ele>2651.4</ele>
        <time>2026-03-23T11:02:42Z</time>
      </trkpt>
      <trkpt lat="44.7437" lon="6.87049">
        <ele>2651.4</ele>
        <time>2026-03-23T11:02:43Z</time>
      </trkpt>
      <trkpt lat="44.74371" lon="6.87049">
        <ele>2651.4</ele>
        <time>2026-03-23T11:02:44Z</time>
      </trkpt>
      <trkpt lat="44.74371" lon="6.87049">
        <ele>2651.4</ele>
        <time>2026-03-23T11:02:45Z</time>
      </trkpt>
      <trkpt lat="44.74372" lon="6.87049">
        <ele>2650.7</ele>
        <time>2026-03-23T11:02:46Z</time>
      </trkpt>
      <trkpt lat="44.74372" lon="6.87048">
        <ele>2650.7</ele>
        <time>2026-03-23T11:02:47Z</time>
      </trkpt>
      <trkpt lat="44.74373" lon="6.87048">
        <ele>2650.7</ele>
        <time>2026-03-23T11:02:48Z</time>
      </trkpt>
      <trkpt lat="44.74373" lon="6.87048">
        <ele>2650.7</ele>
        <time>2026-03-23T11:02:49Z</time>
      </trkpt>
      <trkpt lat="44.74374" lon="6.87048">
        <ele>2650.7</ele>
        <time>2026-03-23T11:02:50Z</time>
      </trkpt>
      <trkpt lat="44.74374" lon="6.87048">
        <ele>2650.7</ele>
        <time>2026-03-23T11:02:51Z</time>
      </trkpt>
      <trkpt lat="44.74374" lon="6.87048">
        <ele>2650.7</ele>
        <time>2026-03-23T11:02:52Z</time>
      </trkpt>
      <trkpt lat="44.74374" lon="6.87049">
        <ele>2650.7</ele>
        <time>2026-03-23T11:02:53Z</time>
      </trkpt>
      <trkpt lat="44.74374" lon="6.87049">
        <ele>2652</ele>
        <time>2026-03-23T11:02:54Z</time>
      </trkpt>
      <trkpt lat="44.74374" lon="6.8705">
        <ele>2652</ele>
        <time>2026-03-23T11:02:55Z</time>
      </trkpt>
      <trkpt lat="44.74374" lon="6.8705">
        <ele>2652.1</ele>
        <time>2026-03-23T11:02:56Z</time>
      </trkpt>
      <trkpt lat="44.74373" lon="6.87051">
        <ele>2652.1</ele>
        <time>2026-03-23T11:02:57Z</time>
      </trkpt>
      <trkpt lat="44.74373" lon="6.87051">
        <ele>2652.1</ele>
        <time>2026-03-23T11:02:58Z</time>
      </trkpt>
      <trkpt lat="44.74373" lon="6.87051">
        <ele>2652.1</ele>
        <time>2026-03-23T11:02:59Z</time>
      </trkpt>
      <trkpt lat="44.74373" lon="6.87051">
        <ele>2652.1</ele>
        <time>2026-03-23T11:03:00Z</time>
      </trkpt>
      <trkpt lat="44.74373" lon="6.87051">
        <ele>2652.1</ele>
        <time>2026-03-23T11:03:01Z</time>
      </trkpt>
      <trkpt lat="44.74373" lon="6.87051">
        <ele>2652.1</ele>
        <time>2026-03-23T11:03:02Z</time>
      </trkpt>
      <trkpt lat="44.74373" lon="6.87052">
        <ele>2652.1</ele>
        <time>2026-03-23T11:03:03Z</time>
      </trkpt>
      <trkpt lat="44.74373" lon="6.87052">
        <ele>2652.1</ele>
        <time>2026-03-23T11:03:04Z</time>
      </trkpt>
      <trkpt lat="44.74373" lon="6.87053">
        <ele>2652.1</ele>
        <time>2026-03-23T11:03:05Z</time>
      </trkpt>
      <trkpt lat="44.74373" lon="6.87053">
        <ele>2652.1</ele>
        <time>2026-03-23T11:03:06Z</time>
      </trkpt>
      <trkpt lat="44.74373" lon="6.87054">
        <ele>2653.5</ele>
        <time>2026-03-23T11:03:07Z</time>
      </trkpt>
      <trkpt lat="44.74374" lon="6.87054">
        <ele>2653.5</ele>
        <time>2026-03-23T11:03:08Z</time>
      </trkpt>
      <trkpt lat="44.74374" lon="6.87055">
        <ele>2653.5</ele>
        <time>2026-03-23T11:03:09Z</time>
      </trkpt>
      <trkpt lat="44.74374" lon="6.87055">
        <ele>2653.5</ele>
        <time>2026-03-23T11:03:10Z</time>
      </trkpt>
      <trkpt lat="44.74374" lon="6.87056">
        <ele>2653.5</ele>
        <time>2026-03-23T11:03:11Z</time>
      </trkpt>
      <trkpt lat="44.74374" lon="6.87056">
        <ele>2653.5</ele>
        <time>2026-03-23T11:03:12Z</time>
      </trkpt>
      <trkpt lat="44.74374" lon="6.87057">
        <ele>2653.5</ele>
        <time>2026-03-23T11:03:13Z</time>
      </trkpt>
      <trkpt lat="44.74374" lon="6.87057">
        <ele>2653.5</ele>
        <time>2026-03-23T11:03:14Z</time>
      </trkpt>
      <trkpt lat="44.74374" lon="6.87057">
        <ele>2653.5</ele>
        <time>2026-03-23T11:03:15Z</time>
      </trkpt>
      <trkpt lat="44.74374" lon="6.87058">
        <ele>2654.9</ele>
        <time>2026-03-23T11:03:16Z</time>
      </trkpt>
      <trkpt lat="44.74374" lon="6.87059">
        <ele>2654.9</ele>
        <time>2026-03-23T11:03:17Z</time>
      </trkpt>
      <trkpt lat="44.74375" lon="6.8706">
        <ele>2654.9</ele>
        <time>2026-03-23T11:03:18Z</time>
      </trkpt>
      <trkpt lat="44.74375" lon="6.87061">
        <ele>2655.6</ele>
        <time>2026-03-23T11:03:19Z</time>
      </trkpt>
      <trkpt lat="44.74374" lon="6.87061">
        <ele>2655</ele>
        <time>2026-03-23T11:03:20Z</time>
      </trkpt>
      <trkpt lat="44.74374" lon="6.87062">
        <ele>2656.3</ele>
        <time>2026-03-23T11:03:21Z</time>
      </trkpt>
      <trkpt lat="44.74373" lon="6.87062">
        <ele>2656.3</ele>
        <time>2026-03-23T11:03:22Z</time>
      </trkpt>
      <trkpt lat="44.74373" lon="6.87063">
        <ele>2656.4</ele>
        <time>2026-03-23T11:03:23Z</time>
      </trkpt>
      <trkpt lat="44.74373" lon="6.87063">
        <ele>2656.4</ele>
        <time>2026-03-23T11:03:24Z</time>
      </trkpt>
      <trkpt lat="44.74373" lon="6.87063">
        <ele>2656.4</ele>
        <time>2026-03-23T11:03:25Z</time>
      </trkpt>
      <trkpt lat="44.74373" lon="6.87064">
        <ele>2656.4</ele>
        <time>2026-03-23T11:03:26Z</time>
      </trkpt>
      <trkpt lat="44.74372" lon="6.87064">
        <ele>2656.4</ele>
        <time>2026-03-23T11:03:27Z</time>
      </trkpt>
      <trkpt lat="44.74372" lon="6.87064">
        <ele>2656.4</ele>
        <time>2026-03-23T11:03:28Z</time>
      </trkpt>
      <trkpt lat="44.74372" lon="6.87064">
        <ele>2656.4</ele>
        <time>2026-03-23T11:03:29Z</time>
      </trkpt>
      <trkpt lat="44.74372" lon="6.87064">
        <ele>2656.4</ele>
        <time>2026-03-23T11:03:30Z</time>
      </trkpt>
      <trkpt lat="44.74372" lon="6.87064">
        <ele>2656.4</ele>
        <time>2026-03-23T11:03:31Z</time>
      </trkpt>
      <trkpt lat="44.74371" lon="6.87064">
        <ele>2655.8</ele>
        <time>2026-03-23T11:03:32Z</time>
      </trkpt>
      <trkpt lat="44.74371" lon="6.87064">
        <ele>2655.8</ele>
        <time>2026-03-23T11:03:33Z</time>
      </trkpt>
      <trkpt lat="44.74371" lon="6.87064">
        <ele>2655.8</ele>
        <time>2026-03-23T11:03:34Z</time>
      </trkpt>
      <trkpt lat="44.74371" lon="6.87063">
        <ele>2655.8</ele>
        <time>2026-03-23T11:03:35Z</time>
      </trkpt>
      <trkpt lat="44.74371" lon="6.87063">
        <ele>2655.8</ele>
        <time>2026-03-23T11:03:36Z</time>
      </trkpt>
      <trkpt lat="44.7437" lon="6.87065">
        <ele>2655.8</ele>
        <time>2026-03-23T11:03:37Z</time>
      </trkpt>
      <trkpt lat="44.74372" lon="6.87069">
        <ele>2657.8</ele>
        <time>2026-03-23T11:03:38Z</time>
      </trkpt>
      <trkpt lat="44.74373" lon="6.87071">
        <ele>2659</ele>
        <time>2026-03-23T11:03:39Z</time>
      </trkpt>
      <trkpt lat="44.74373" lon="6.87071">
        <ele>2659</ele>
        <time>2026-03-23T11:03:40Z</time>
      </trkpt>
      <trkpt lat="44.74373" lon="6.8707">
        <ele>2657.8</ele>
        <time>2026-03-23T11:03:41Z</time>
      </trkpt>
      <trkpt lat="44.74374" lon="6.87071">
        <ele>2659</ele>
        <time>2026-03-23T11:03:42Z</time>
      </trkpt>
      <trkpt lat="44.74374" lon="6.8707">
        <ele>2657.8</ele>
        <time>2026-03-23T11:03:43Z</time>
      </trkpt>
      <trkpt lat="44.74374" lon="6.8707">
        <ele>2657.8</ele>
        <time>2026-03-23T11:03:44Z</time>
      </trkpt>
      <trkpt lat="44.74373" lon="6.8707">
        <ele>2657.8</ele>
        <time>2026-03-23T11:03:45Z</time>
      </trkpt>
      <trkpt lat="44.74373" lon="6.8707">
        <ele>2659.1</ele>
        <time>2026-03-23T11:03:46Z</time>
      </trkpt>
      <trkpt lat="44.74372" lon="6.87071">
        <ele>2659.1</ele>
        <time>2026-03-23T11:03:47Z</time>
      </trkpt>
      <trkpt lat="44.74372" lon="6.87071">
        <ele>2659.1</ele>
        <time>2026-03-23T11:03:48Z</time>
      </trkpt>
      <trkpt lat="44.74371" lon="6.87071">
        <ele>2658.4</ele>
        <time>2026-03-23T11:03:49Z</time>
      </trkpt>
      <trkpt lat="44.74371" lon="6.87071">
        <ele>2658.4</ele>
        <time>2026-03-23T11:03:50Z</time>
      </trkpt>
      <trkpt lat="44.74371" lon="6.87071">
        <ele>2658.4</ele>
        <time>2026-03-23T11:03:51Z</time>
      </trkpt>
      <trkpt lat="44.7437" lon="6.87072">
        <ele>2658.4</ele>
        <time>2026-03-23T11:03:52Z</time>
      </trkpt>
      <trkpt lat="44.7437" lon="6.87072">
        <ele>2658.4</ele>
        <time>2026-03-23T11:03:53Z</time>
      </trkpt>
      <trkpt lat="44.7437" lon="6.87072">
        <ele>2658.5</ele>
        <time>2026-03-23T11:03:54Z</time>
      </trkpt>
      <trkpt lat="44.7437" lon="6.87073">
        <ele>2658.5</ele>
        <time>2026-03-23T11:03:55Z</time>
      </trkpt>
      <trkpt lat="44.74369" lon="6.87074">
        <ele>2658.5</ele>
        <time>2026-03-23T11:03:56Z</time>
      </trkpt>
      <trkpt lat="44.74369" lon="6.87075">
        <ele>2658.5</ele>
        <time>2026-03-23T11:03:57Z</time>
      </trkpt>
      <trkpt lat="44.74368" lon="6.87075">
        <ele>2659</ele>
        <time>2026-03-23T11:03:58Z</time>
      </trkpt>
      <trkpt lat="44.74368" lon="6.87076">
        <ele>2659</ele>
        <time>2026-03-23T11:03:59Z</time>
      </trkpt>
      <trkpt lat="44.74367" lon="6.87076">
        <ele>2659</ele>
        <time>2026-03-23T11:04:00Z</time>
      </trkpt>
      <trkpt lat="44.74367" lon="6.87078">
        <ele>2659</ele>
        <time>2026-03-23T11:04:01Z</time>
      </trkpt>
      <trkpt lat="44.74366" lon="6.87078">
        <ele>2659</ele>
        <time>2026-03-23T11:04:02Z</time>
      </trkpt>
      <trkpt lat="44.74366" lon="6.87078">
        <ele>2659</ele>
        <time>2026-03-23T11:04:03Z</time>
      </trkpt>
      <trkpt lat="44.74366" lon="6.87079">
        <ele>2659</ele>
        <time>2026-03-23T11:04:04Z</time>
      </trkpt>
      <trkpt lat="44.74365" lon="6.87079">
        <ele>2659.5</ele>
        <time>2026-03-23T11:04:05Z</time>
      </trkpt>
      <trkpt lat="44.74365" lon="6.8708">
        <ele>2659.5</ele>
        <time>2026-03-23T11:04:06Z</time>
      </trkpt>
      <trkpt lat="44.74365" lon="6.8708">
        <ele>2659.5</ele>
        <time>2026-03-23T11:04:07Z</time>
      </trkpt>
      <trkpt lat="44.74364" lon="6.87081">
        <ele>2659.5</ele>
        <time>2026-03-23T11:04:08Z</time>
      </trkpt>
      <trkpt lat="44.74363" lon="6.87082">
        <ele>2659.5</ele>
        <time>2026-03-23T11:04:09Z</time>
      </trkpt>
      <trkpt lat="44.74363" lon="6.87083">
        <ele>2659.5</ele>
        <time>2026-03-23T11:04:10Z</time>
      </trkpt>
      <trkpt lat="44.74363" lon="6.87083">
        <ele>2659.6</ele>
        <time>2026-03-23T11:04:11Z</time>
      </trkpt>
      <trkpt lat="44.74363" lon="6.87083">
        <ele>2660.7</ele>
        <time>2026-03-23T11:04:12Z</time>
      </trkpt>
      <trkpt lat="44.74363" lon="6.87084">
        <ele>2660.7</ele>
        <time>2026-03-23T11:04:13Z</time>
      </trkpt>
      <trkpt lat="44.74363" lon="6.87084">
        <ele>2660.7</ele>
        <time>2026-03-23T11:04:14Z</time>
      </trkpt>
      <trkpt lat="44.74364" lon="6.87084">
        <ele>2660.7</ele>
        <time>2026-03-23T11:04:15Z</time>
      </trkpt>
      <trkpt lat="44.74364" lon="6.87084">
        <ele>2660.7</ele>
        <time>2026-03-23T11:04:16Z</time>
      </trkpt>
      <trkpt lat="44.74363" lon="6.87084">
        <ele>2660.8</ele>
        <time>2026-03-23T11:04:17Z</time>
      </trkpt>
      <trkpt lat="44.74363" lon="6.87085">
        <ele>2660.8</ele>
        <time>2026-03-23T11:04:18Z</time>
      </trkpt>
      <trkpt lat="44.74363" lon="6.87085">
        <ele>2660.8</ele>
        <time>2026-03-23T11:04:19Z</time>
      </trkpt>
      <trkpt lat="44.74364" lon="6.87085">
        <ele>2660.8</ele>
        <time>2026-03-23T11:04:20Z</time>
      </trkpt>
      <trkpt lat="44.74364" lon="6.87086">
        <ele>2660.8</ele>
        <time>2026-03-23T11:04:21Z</time>
      </trkpt>
      <trkpt lat="44.74364" lon="6.87086">
        <ele>2660.8</ele>
        <time>2026-03-23T11:04:22Z</time>
      </trkpt>
      <trkpt lat="44.74364" lon="6.87086">
        <ele>2660.8</ele>
        <time>2026-03-23T11:04:23Z</time>
      </trkpt>
      <trkpt lat="44.74364" lon="6.87086">
        <ele>2660.8</ele>
        <time>2026-03-23T11:04:24Z</time>
      </trkpt>
      <trkpt lat="44.74364" lon="6.87085">
        <ele>2660.8</ele>
        <time>2026-03-23T11:04:25Z</time>
      </trkpt>
      <trkpt lat="44.74363" lon="6.87086">
        <ele>2660.8</ele>
        <time>2026-03-23T11:04:26Z</time>
      </trkpt>
      <trkpt lat="44.74363" lon="6.87086">
        <ele>2660.8</ele>
        <time>2026-03-23T11:04:27Z</time>
      </trkpt>
      <trkpt lat="44.74363" lon="6.87087">
        <ele>2660.8</ele>
        <time>2026-03-23T11:04:28Z</time>
      </trkpt>
      <trkpt lat="44.74363" lon="6.87087">
        <ele>2660.8</ele>
        <time>2026-03-23T11:04:29Z</time>
      </trkpt>
      <trkpt lat="44.74363" lon="6.87087">
        <ele>2660.8</ele>
        <time>2026-03-23T11:04:30Z</time>
      </trkpt>
      <trkpt lat="44.74363" lon="6.87087">
        <ele>2660.8</ele>
        <time>2026-03-23T11:04:31Z</time>
      </trkpt>
      <trkpt lat="44.74363" lon="6.87088">
        <ele>2662</ele>
        <time>2026-03-23T11:04:32Z</time>
      </trkpt>
      <trkpt lat="44.74363" lon="6.87088">
        <ele>2662</ele>
        <time>2026-03-23T11:04:33Z</time>
      </trkpt>
      <trkpt lat="44.74363" lon="6.87088">
        <ele>2662</ele>
        <time>2026-03-23T11:04:34Z</time>
      </trkpt>
      <trkpt lat="44.74363" lon="6.87089">
        <ele>2662</ele>
        <time>2026-03-23T11:04:35Z</time>
      </trkpt>
      <trkpt lat="44.74364" lon="6.87089">
        <ele>2662</ele>
        <time>2026-03-23T11:04:36Z</time>
      </trkpt>
      <trkpt lat="44.74365" lon="6.87089">
        <ele>2662</ele>
        <time>2026-03-23T11:04:37Z</time>
      </trkpt>
      <trkpt lat="44.74365" lon="6.87089">
        <ele>2662</ele>
        <time>2026-03-23T11:04:38Z</time>
      </trkpt>
      <trkpt lat="44.74366" lon="6.87089">
        <ele>2662.8</ele>
        <time>2026-03-23T11:04:39Z</time>
      </trkpt>
      <trkpt lat="44.74366" lon="6.8709">
        <ele>2662.8</ele>
        <time>2026-03-23T11:04:40Z</time>
      </trkpt>
      <trkpt lat="44.74367" lon="6.8709">
        <ele>2662.8</ele>
        <time>2026-03-23T11:04:41Z</time>
      </trkpt>
      <trkpt lat="44.74367" lon="6.8709">
        <ele>2662.8</ele>
        <time>2026-03-23T11:04:42Z</time>
      </trkpt>
      <trkpt lat="44.74368" lon="6.8709">
        <ele>2662.8</ele>
        <time>2026-03-23T11:04:43Z</time>
      </trkpt>
      <trkpt lat="44.74368" lon="6.87091">
        <ele>2662.8</ele>
        <time>2026-03-23T11:04:44Z</time>
      </trkpt>
      <trkpt lat="44.74368" lon="6.87091">
        <ele>2662.8</ele>
        <time>2026-03-23T11:04:45Z</time>
      </trkpt>
      <trkpt lat="44.74368" lon="6.87091">
        <ele>2662.8</ele>
        <time>2026-03-23T11:04:46Z</time>
      </trkpt>
      <trkpt lat="44.74368" lon="6.87091">
        <ele>2662.8</ele>
        <time>2026-03-23T11:04:47Z</time>
      </trkpt>
      <trkpt lat="44.74368" lon="6.87092">
        <ele>2662.8</ele>
        <time>2026-03-23T11:04:48Z</time>
      </trkpt>
      <trkpt lat="44.74368" lon="6.87092">
        <ele>2662.8</ele>
        <time>2026-03-23T11:04:49Z</time>
      </trkpt>
      <trkpt lat="44.74368" lon="6.87092">
        <ele>2664</ele>
        <time>2026-03-23T11:04:50Z</time>
      </trkpt>
      <trkpt lat="44.74369" lon="6.87093">
        <ele>2664</ele>
        <time>2026-03-23T11:04:51Z</time>
      </trkpt>
      <trkpt lat="44.74369" lon="6.87093">
        <ele>2664.7</ele>
        <time>2026-03-23T11:04:52Z</time>
      </trkpt>
      <trkpt lat="44.74369" lon="6.87093">
        <ele>2664.7</ele>
        <time>2026-03-23T11:04:53Z</time>
      </trkpt>
      <trkpt lat="44.74369" lon="6.87094">
        <ele>2664.7</ele>
        <time>2026-03-23T11:04:54Z</time>
      </trkpt>
      <trkpt lat="44.74369" lon="6.87093">
        <ele>2664.7</ele>
        <time>2026-03-23T11:04:55Z</time>
      </trkpt>
      <trkpt lat="44.74369" lon="6.87094">
        <ele>2664.7</ele>
        <time>2026-03-23T11:04:56Z</time>
      </trkpt>
      <trkpt lat="44.7437" lon="6.87094">
        <ele>2664.7</ele>
        <time>2026-03-23T11:04:57Z</time>
      </trkpt>
      <trkpt lat="44.7437" lon="6.87094">
        <ele>2664.7</ele>
        <time>2026-03-23T11:04:58Z</time>
      </trkpt>
      <trkpt lat="44.7437" lon="6.87094">
        <ele>2664.7</ele>
        <time>2026-03-23T11:04:59Z</time>
      </trkpt>
      <trkpt lat="44.7437" lon="6.87094">
        <ele>2664.7</ele>
        <time>2026-03-23T11:05:00Z</time>
      </trkpt>
      <trkpt lat="44.7437" lon="6.87095">
        <ele>2664.8</ele>
        <time>2026-03-23T11:05:01Z</time>
      </trkpt>
      <trkpt lat="44.74371" lon="6.87095">
        <ele>2664.8</ele>
        <time>2026-03-23T11:05:02Z</time>
      </trkpt>
      <trkpt lat="44.74371" lon="6.87095">
        <ele>2664.8</ele>
        <time>2026-03-23T11:05:03Z</time>
      </trkpt>
      <trkpt lat="44.74371" lon="6.87095">
        <ele>2664.8</ele>
        <time>2026-03-23T11:05:04Z</time>
      </trkpt>
      <trkpt lat="44.74372" lon="6.87095">
        <ele>2665.5</ele>
        <time>2026-03-23T11:05:05Z</time>
      </trkpt>
      <trkpt lat="44.74372" lon="6.87096">
        <ele>2665.5</ele>
        <time>2026-03-23T11:05:06Z</time>
      </trkpt>
      <trkpt lat="44.74372" lon="6.87096">
        <ele>2665.5</ele>
        <time>2026-03-23T11:05:07Z</time>
      </trkpt>
      <trkpt lat="44.74372" lon="6.87096">
        <ele>2665.5</ele>
        <time>2026-03-23T11:05:08Z</time>
      </trkpt>
      <trkpt lat="44.74372" lon="6.87096">
        <ele>2665.5</ele>
        <time>2026-03-23T11:05:09Z</time>
      </trkpt>
      <trkpt lat="44.74372" lon="6.87096">
        <ele>2666.7</ele>
        <time>2026-03-23T11:05:10Z</time>
      </trkpt>
      <trkpt lat="44.74372" lon="6.87096">
        <ele>2666</ele>
        <time>2026-03-23T11:05:11Z</time>
      </trkpt>
      <trkpt lat="44.74372" lon="6.87097">
        <ele>2666.7</ele>
        <time>2026-03-23T11:05:12Z</time>
      </trkpt>
      <trkpt lat="44.74372" lon="6.87097">
        <ele>2666.7</ele>
        <time>2026-03-23T11:05:13Z</time>
      </trkpt>
      <trkpt lat="44.74372" lon="6.87098">
        <ele>2666.8</ele>
        <time>2026-03-23T11:05:14Z</time>
      </trkpt>
      <trkpt lat="44.74373" lon="6.87098">
        <ele>2666.8</ele>
        <time>2026-03-23T11:05:15Z</time>
      </trkpt>
      <trkpt lat="44.74373" lon="6.87099">
        <ele>2666.8</ele>
        <time>2026-03-23T11:05:16Z</time>
      </trkpt>
      <trkpt lat="44.74373" lon="6.87099">
        <ele>2666.8</ele>
        <time>2026-03-23T11:05:17Z</time>
      </trkpt>
      <trkpt lat="44.74373" lon="6.87099">
        <ele>2666.8</ele>
        <time>2026-03-23T11:05:18Z</time>
      </trkpt>
      <trkpt lat="44.74374" lon="6.871">
        <ele>2666.8</ele>
        <time>2026-03-23T11:05:19Z</time>
      </trkpt>
      <trkpt lat="44.74374" lon="6.871">
        <ele>2666.8</ele>
        <time>2026-03-23T11:05:20Z</time>
      </trkpt>
      <trkpt lat="44.74374" lon="6.87101">
        <ele>2668.1</ele>
        <time>2026-03-23T11:05:21Z</time>
      </trkpt>
      <trkpt lat="44.74374" lon="6.87101">
        <ele>2668.1</ele>
        <time>2026-03-23T11:05:22Z</time>
      </trkpt>
      <trkpt lat="44.74375" lon="6.87101">
        <ele>2668.1</ele>
        <time>2026-03-23T11:05:23Z</time>
      </trkpt>
      <trkpt lat="44.74375" lon="6.87101">
        <ele>2668.8</ele>
        <time>2026-03-23T11:05:24Z</time>
      </trkpt>
      <trkpt lat="44.74375" lon="6.87101">
        <ele>2668.8</ele>
        <time>2026-03-23T11:05:25Z</time>
      </trkpt>
      <trkpt lat="44.74375" lon="6.87102">
        <ele>2668.8</ele>
        <time>2026-03-23T11:05:26Z</time>
      </trkpt>
      <trkpt lat="44.74376" lon="6.87102">
        <ele>2668.8</ele>
        <time>2026-03-23T11:05:27Z</time>
      </trkpt>
      <trkpt lat="44.74376" lon="6.87103">
        <ele>2668.8</ele>
        <time>2026-03-23T11:05:28Z</time>
      </trkpt>
      <trkpt lat="44.74376" lon="6.87103">
        <ele>2668.8</ele>
        <time>2026-03-23T11:05:29Z</time>
      </trkpt>
      <trkpt lat="44.74376" lon="6.87103">
        <ele>2668.8</ele>
        <time>2026-03-23T11:05:30Z</time>
      </trkpt>
      <trkpt lat="44.74375" lon="6.87104">
        <ele>2668.8</ele>
        <time>2026-03-23T11:05:31Z</time>
      </trkpt>
      <trkpt lat="44.74376" lon="6.87104">
        <ele>2668.9</ele>
        <time>2026-03-23T11:05:32Z</time>
      </trkpt>
      <trkpt lat="44.74376" lon="6.87104">
        <ele>2668.9</ele>
        <time>2026-03-23T11:05:33Z</time>
      </trkpt>
      <trkpt lat="44.74376" lon="6.87105">
        <ele>2668.9</ele>
        <time>2026-03-23T11:05:34Z</time>
      </trkpt>
      <trkpt lat="44.74377" lon="6.87105">
        <ele>2670.2</ele>
        <time>2026-03-23T11:05:35Z</time>
      </trkpt>
      <trkpt lat="44.74377" lon="6.87105">
        <ele>2670.2</ele>
        <time>2026-03-23T11:05:36Z</time>
      </trkpt>
      <trkpt lat="44.74378" lon="6.87106">
        <ele>2670.2</ele>
        <time>2026-03-23T11:05:37Z</time>
      </trkpt>
      <trkpt lat="44.74378" lon="6.87106">
        <ele>2671</ele>
        <time>2026-03-23T11:05:38Z</time>
      </trkpt>
      <trkpt lat="44.74378" lon="6.87107">
        <ele>2671</ele>
        <time>2026-03-23T11:05:39Z</time>
      </trkpt>
      <trkpt lat="44.74378" lon="6.87107">
        <ele>2671</ele>
        <time>2026-03-23T11:05:40Z</time>
      </trkpt>
      <trkpt lat="44.74378" lon="6.87107">
        <ele>2671</ele>
        <time>2026-03-23T11:05:41Z</time>
      </trkpt>
      <trkpt lat="44.74378" lon="6.87108">
        <ele>2671</ele>
        <time>2026-03-23T11:05:42Z</time>
      </trkpt>
      <trkpt lat="44.74379" lon="6.87108">
        <ele>2671</ele>
        <time>2026-03-23T11:05:43Z</time>
      </trkpt>
      <trkpt lat="44.74379" lon="6.87109">
        <ele>2671</ele>
        <time>2026-03-23T11:05:44Z</time>
      </trkpt>
      <trkpt lat="44.74379" lon="6.87109">
        <ele>2672.4</ele>
        <time>2026-03-23T11:05:45Z</time>
      </trkpt>
      <trkpt lat="44.74379" lon="6.87109">
        <ele>2672.4</ele>
        <time>2026-03-23T11:05:46Z</time>
      </trkpt>
      <trkpt lat="44.74379" lon="6.8711">
        <ele>2672.4</ele>
        <time>2026-03-23T11:05:47Z</time>
      </trkpt>
      <trkpt lat="44.7438" lon="6.8711">
        <ele>2672.4</ele>
        <time>2026-03-23T11:05:48Z</time>
      </trkpt>
      <trkpt lat="44.7438" lon="6.8711">
        <ele>2672.4</ele>
        <time>2026-03-23T11:05:49Z</time>
      </trkpt>
      <trkpt lat="44.7438" lon="6.8711">
        <ele>2672.4</ele>
        <time>2026-03-23T11:05:50Z</time>
      </trkpt>
      <trkpt lat="44.7438" lon="6.87111">
        <ele>2672.4</ele>
        <time>2026-03-23T11:05:51Z</time>
      </trkpt>
      <trkpt lat="44.74381" lon="6.87111">
        <ele>2673.2</ele>
        <time>2026-03-23T11:05:52Z</time>
      </trkpt>
      <trkpt lat="44.74382" lon="6.87111">
        <ele>2673.2</ele>
        <time>2026-03-23T11:05:53Z</time>
      </trkpt>
      <trkpt lat="44.74382" lon="6.87112">
        <ele>2673.2</ele>
        <time>2026-03-23T11:05:54Z</time>
      </trkpt>
      <trkpt lat="44.74383" lon="6.87113">
        <ele>2673.2</ele>
        <time>2026-03-23T11:05:55Z</time>
      </trkpt>
      <trkpt lat="44.74383" lon="6.87113">
        <ele>2673.2</ele>
        <time>2026-03-23T11:05:56Z</time>
      </trkpt>
      <trkpt lat="44.74384" lon="6.87114">
        <ele>2675.3</ele>
        <time>2026-03-23T11:05:57Z</time>
      </trkpt>
      <trkpt lat="44.74384" lon="6.87114">
        <ele>2675.3</ele>
        <time>2026-03-23T11:05:58Z</time>
      </trkpt>
      <trkpt lat="44.74385" lon="6.87115">
        <ele>2675.3</ele>
        <time>2026-03-23T11:05:59Z</time>
      </trkpt>
      <trkpt lat="44.74385" lon="6.87115">
        <ele>2675.4</ele>
        <time>2026-03-23T11:06:00Z</time>
      </trkpt>
      <trkpt lat="44.74385" lon="6.87115">
        <ele>2675.4</ele>
        <time>2026-03-23T11:06:01Z</time>
      </trkpt>
      <trkpt lat="44.74386" lon="6.87115">
        <ele>2675.4</ele>
        <time>2026-03-23T11:06:02Z</time>
      </trkpt>
      <trkpt lat="44.74387" lon="6.87116">
        <ele>2675.4</ele>
        <time>2026-03-23T11:06:03Z</time>
      </trkpt>
      <trkpt lat="44.74387" lon="6.87116">
        <ele>2675.4</ele>
        <time>2026-03-23T11:06:04Z</time>
      </trkpt>
      <trkpt lat="44.74387" lon="6.87116">
        <ele>2676.2</ele>
        <time>2026-03-23T11:06:05Z</time>
      </trkpt>
      <trkpt lat="44.74387" lon="6.87116">
        <ele>2676.2</ele>
        <time>2026-03-23T11:06:06Z</time>
      </trkpt>
      <trkpt lat="44.74388" lon="6.87116">
        <ele>2676.2</ele>
        <time>2026-03-23T11:06:07Z</time>
      </trkpt>
      <trkpt lat="44.74388" lon="6.87117">
        <ele>2676.2</ele>
        <time>2026-03-23T11:06:08Z</time>
      </trkpt>
      <trkpt lat="44.74388" lon="6.87117">
        <ele>2676.2</ele>
        <time>2026-03-23T11:06:09Z</time>
      </trkpt>
      <trkpt lat="44.74389" lon="6.87117">
        <ele>2676.2</ele>
        <time>2026-03-23T11:06:10Z</time>
      </trkpt>
      <trkpt lat="44.74389" lon="6.87118">
        <ele>2677.5</ele>
        <time>2026-03-23T11:06:11Z</time>
      </trkpt>
      <trkpt lat="44.7439" lon="6.87118">
        <ele>2677.5</ele>
        <time>2026-03-23T11:06:12Z</time>
      </trkpt>
      <trkpt lat="44.7439" lon="6.87118">
        <ele>2678.4</ele>
        <time>2026-03-23T11:06:13Z</time>
      </trkpt>
      <trkpt lat="44.7439" lon="6.87118">
        <ele>2678.4</ele>
        <time>2026-03-23T11:06:14Z</time>
      </trkpt>
      <trkpt lat="44.74391" lon="6.87119">
        <ele>2678.4</ele>
        <time>2026-03-23T11:06:15Z</time>
      </trkpt>
      <trkpt lat="44.7439" lon="6.87119">
        <ele>2678.4</ele>
        <time>2026-03-23T11:06:16Z</time>
      </trkpt>
      <trkpt lat="44.74391" lon="6.8712">
        <ele>2678.4</ele>
        <time>2026-03-23T11:06:17Z</time>
      </trkpt>
      <trkpt lat="44.74391" lon="6.8712">
        <ele>2678.4</ele>
        <time>2026-03-23T11:06:18Z</time>
      </trkpt>
      <trkpt lat="44.74391" lon="6.8712">
        <ele>2678.4</ele>
        <time>2026-03-23T11:06:19Z</time>
      </trkpt>
      <trkpt lat="44.74391" lon="6.8712">
        <ele>2678.4</ele>
        <time>2026-03-23T11:06:20Z</time>
      </trkpt>
      <trkpt lat="44.74391" lon="6.8712">
        <ele>2678.4</ele>
        <time>2026-03-23T11:06:21Z</time>
      </trkpt>
      <trkpt lat="44.74391" lon="6.8712">
        <ele>2678.4</ele>
        <time>2026-03-23T11:06:22Z</time>
      </trkpt>
      <trkpt lat="44.74391" lon="6.87121">
        <ele>2678.5</ele>
        <time>2026-03-23T11:06:23Z</time>
      </trkpt>
      <trkpt lat="44.74391" lon="6.87121">
        <ele>2678.5</ele>
        <time>2026-03-23T11:06:24Z</time>
      </trkpt>
      <trkpt lat="44.74391" lon="6.87121">
        <ele>2678.5</ele>
        <time>2026-03-23T11:06:25Z</time>
      </trkpt>
      <trkpt lat="44.74391" lon="6.87122">
        <ele>2678.5</ele>
        <time>2026-03-23T11:06:26Z</time>
      </trkpt>
      <trkpt lat="44.74392" lon="6.87122">
        <ele>2679.7</ele>
        <time>2026-03-23T11:06:27Z</time>
      </trkpt>
      <trkpt lat="44.74392" lon="6.87122">
        <ele>2679.7</ele>
        <time>2026-03-23T11:06:28Z</time>
      </trkpt>
      <trkpt lat="44.74392" lon="6.87122">
        <ele>2679.7</ele>
        <time>2026-03-23T11:06:29Z</time>
      </trkpt>
      <trkpt lat="44.74392" lon="6.87122">
        <ele>2679.7</ele>
        <time>2026-03-23T11:06:30Z</time>
      </trkpt>
      <trkpt lat="44.74393" lon="6.87122">
        <ele>2679.7</ele>
        <time>2026-03-23T11:06:31Z</time>
      </trkpt>
      <trkpt lat="44.74393" lon="6.87123">
        <ele>2679.7</ele>
        <time>2026-03-23T11:06:32Z</time>
      </trkpt>
      <trkpt lat="44.74393" lon="6.87123">
        <ele>2680.6</ele>
        <time>2026-03-23T11:06:33Z</time>
      </trkpt>
      <trkpt lat="44.74394" lon="6.87124">
        <ele>2680.6</ele>
        <time>2026-03-23T11:06:34Z</time>
      </trkpt>
      <trkpt lat="44.74394" lon="6.87124">
        <ele>2680.6</ele>
        <time>2026-03-23T11:06:35Z</time>
      </trkpt>
      <trkpt lat="44.74394" lon="6.87124">
        <ele>2680.6</ele>
        <time>2026-03-23T11:06:36Z</time>
      </trkpt>
      <trkpt lat="44.74394" lon="6.87124">
        <ele>2680.6</ele>
        <time>2026-03-23T11:06:37Z</time>
      </trkpt>
      <trkpt lat="44.74395" lon="6.87124">
        <ele>2680.6</ele>
        <time>2026-03-23T11:06:38Z</time>
      </trkpt>
      <trkpt lat="44.74395" lon="6.87124">
        <ele>2680.6</ele>
        <time>2026-03-23T11:06:39Z</time>
      </trkpt>
      <trkpt lat="44.74395" lon="6.87124">
        <ele>2680.6</ele>
        <time>2026-03-23T11:06:40Z</time>
      </trkpt>
      <trkpt lat="44.74396" lon="6.87124">
        <ele>2680.6</ele>
        <time>2026-03-23T11:06:41Z</time>
      </trkpt>
      <trkpt lat="44.74396" lon="6.87124">
        <ele>2680.6</ele>
        <time>2026-03-23T11:06:42Z</time>
      </trkpt>
      <trkpt lat="44.74396" lon="6.87124">
        <ele>2680.6</ele>
        <time>2026-03-23T11:06:43Z</time>
      </trkpt>
      <trkpt lat="44.74396" lon="6.87124">
        <ele>2681.4</ele>
        <time>2026-03-23T11:06:44Z</time>
      </trkpt>
      <trkpt lat="44.74397" lon="6.87124">
        <ele>2681.5</ele>
        <time>2026-03-23T11:06:45Z</time>
      </trkpt>
      <trkpt lat="44.74397" lon="6.87124">
        <ele>2681.5</ele>
        <time>2026-03-23T11:06:46Z</time>
      </trkpt>
      <trkpt lat="44.74398" lon="6.87125">
        <ele>2681.5</ele>
        <time>2026-03-23T11:06:47Z</time>
      </trkpt>
      <trkpt lat="44.74398" lon="6.87126">
        <ele>2681.5</ele>
        <time>2026-03-23T11:06:48Z</time>
      </trkpt>
      <trkpt lat="44.74398" lon="6.87126">
        <ele>2681.5</ele>
        <time>2026-03-23T11:06:49Z</time>
      </trkpt>
      <trkpt lat="44.74398" lon="6.87127">
        <ele>2682.6</ele>
        <time>2026-03-23T11:06:50Z</time>
      </trkpt>
      <trkpt lat="44.74399" lon="6.87127">
        <ele>2682.7</ele>
        <time>2026-03-23T11:06:51Z</time>
      </trkpt>
      <trkpt lat="44.74399" lon="6.87128">
        <ele>2683.4</ele>
        <time>2026-03-23T11:06:52Z</time>
      </trkpt>
      <trkpt lat="44.74399" lon="6.87128">
        <ele>2683.4</ele>
        <time>2026-03-23T11:06:53Z</time>
      </trkpt>
      <trkpt lat="44.74399" lon="6.87128">
        <ele>2683.4</ele>
        <time>2026-03-23T11:06:54Z</time>
      </trkpt>
      <trkpt lat="44.74399" lon="6.87128">
        <ele>2683.4</ele>
        <time>2026-03-23T11:06:55Z</time>
      </trkpt>
      <trkpt lat="44.744" lon="6.87128">
        <ele>2683.4</ele>
        <time>2026-03-23T11:06:56Z</time>
      </trkpt>
      <trkpt lat="44.744" lon="6.87127">
        <ele>2683.4</ele>
        <time>2026-03-23T11:06:57Z</time>
      </trkpt>
      <trkpt lat="44.744" lon="6.87127">
        <ele>2683.4</ele>
        <time>2026-03-23T11:06:58Z</time>
      </trkpt>
      <trkpt lat="44.744" lon="6.87127">
        <ele>2683.4</ele>
        <time>2026-03-23T11:06:59Z</time>
      </trkpt>
      <trkpt lat="44.74401" lon="6.87127">
        <ele>2683.4</ele>
        <time>2026-03-23T11:07:00Z</time>
      </trkpt>
      <trkpt lat="44.74401" lon="6.87128">
        <ele>2683.5</ele>
        <time>2026-03-23T11:07:01Z</time>
      </trkpt>
      <trkpt lat="44.74402" lon="6.87128">
        <ele>2683.5</ele>
        <time>2026-03-23T11:07:02Z</time>
      </trkpt>
      <trkpt lat="44.74402" lon="6.87128">
        <ele>2684.1</ele>
        <time>2026-03-23T11:07:03Z</time>
      </trkpt>
      <trkpt lat="44.74403" lon="6.87128">
        <ele>2684.1</ele>
        <time>2026-03-23T11:07:04Z</time>
      </trkpt>
      <trkpt lat="44.74403" lon="6.87128">
        <ele>2684.1</ele>
        <time>2026-03-23T11:07:05Z</time>
      </trkpt>
      <trkpt lat="44.74403" lon="6.87128">
        <ele>2684.1</ele>
        <time>2026-03-23T11:07:06Z</time>
      </trkpt>
      <trkpt lat="44.74404" lon="6.87128">
        <ele>2684.2</ele>
        <time>2026-03-23T11:07:07Z</time>
      </trkpt>
      <trkpt lat="44.74404" lon="6.87129">
        <ele>2684.2</ele>
        <time>2026-03-23T11:07:08Z</time>
      </trkpt>
      <trkpt lat="44.74405" lon="6.87129">
        <ele>2684.2</ele>
        <time>2026-03-23T11:07:09Z</time>
      </trkpt>
      <trkpt lat="44.74405" lon="6.87129">
        <ele>2684.8</ele>
        <time>2026-03-23T11:07:10Z</time>
      </trkpt>
      <trkpt lat="44.74406" lon="6.87129">
        <ele>2684.8</ele>
        <time>2026-03-23T11:07:11Z</time>
      </trkpt>
      <trkpt lat="44.74406" lon="6.87129">
        <ele>2684.8</ele>
        <time>2026-03-23T11:07:12Z</time>
      </trkpt>
      <trkpt lat="44.74407" lon="6.8713">
        <ele>2684.8</ele>
        <time>2026-03-23T11:07:13Z</time>
      </trkpt>
      <trkpt lat="44.74407" lon="6.8713">
        <ele>2684.8</ele>
        <time>2026-03-23T11:07:14Z</time>
      </trkpt>
      <trkpt lat="44.74407" lon="6.8713">
        <ele>2684.8</ele>
        <time>2026-03-23T11:07:15Z</time>
      </trkpt>
      <trkpt lat="44.74408" lon="6.8713">
        <ele>2684.8</ele>
        <time>2026-03-23T11:07:16Z</time>
      </trkpt>
      <trkpt lat="44.74408" lon="6.8713">
        <ele>2685.5</ele>
        <time>2026-03-23T11:07:17Z</time>
      </trkpt>
      <trkpt lat="44.74409" lon="6.8713">
        <ele>2685.5</ele>
        <time>2026-03-23T11:07:18Z</time>
      </trkpt>
      <trkpt lat="44.74409" lon="6.8713">
        <ele>2685.5</ele>
        <time>2026-03-23T11:07:19Z</time>
      </trkpt>
      <trkpt lat="44.7441" lon="6.8713">
        <ele>2685.5</ele>
        <time>2026-03-23T11:07:20Z</time>
      </trkpt>
      <trkpt lat="44.7441" lon="6.87131">
        <ele>2686.7</ele>
        <time>2026-03-23T11:07:21Z</time>
      </trkpt>
      <trkpt lat="44.7441" lon="6.87131">
        <ele>2686.7</ele>
        <time>2026-03-23T11:07:22Z</time>
      </trkpt>
      <trkpt lat="44.74411" lon="6.87131">
        <ele>2686.7</ele>
        <time>2026-03-23T11:07:23Z</time>
      </trkpt>
      <trkpt lat="44.74411" lon="6.87132">
        <ele>2686.7</ele>
        <time>2026-03-23T11:07:24Z</time>
      </trkpt>
      <trkpt lat="44.74411" lon="6.87132">
        <ele>2687.4</ele>
        <time>2026-03-23T11:07:25Z</time>
      </trkpt>
      <trkpt lat="44.74412" lon="6.87133">
        <ele>2687.4</ele>
        <time>2026-03-23T11:07:26Z</time>
      </trkpt>
      <trkpt lat="44.74412" lon="6.87133">
        <ele>2687.4</ele>
        <time>2026-03-23T11:07:27Z</time>
      </trkpt>
      <trkpt lat="44.74412" lon="6.87133">
        <ele>2687.4</ele>
        <time>2026-03-23T11:07:28Z</time>
      </trkpt>
      <trkpt lat="44.74413" lon="6.87133">
        <ele>2687.4</ele>
        <time>2026-03-23T11:07:29Z</time>
      </trkpt>
      <trkpt lat="44.74413" lon="6.87133">
        <ele>2687.4</ele>
        <time>2026-03-23T11:07:30Z</time>
      </trkpt>
      <trkpt lat="44.74413" lon="6.87133">
        <ele>2687.4</ele>
        <time>2026-03-23T11:07:31Z</time>
      </trkpt>
      <trkpt lat="44.74414" lon="6.87133">
        <ele>2687.4</ele>
        <time>2026-03-23T11:07:32Z</time>
      </trkpt>
      <trkpt lat="44.74414" lon="6.87132">
        <ele>2687.4</ele>
        <time>2026-03-23T11:07:33Z</time>
      </trkpt>
      <trkpt lat="44.74414" lon="6.87132">
        <ele>2687.4</ele>
        <time>2026-03-23T11:07:34Z</time>
      </trkpt>
      <trkpt lat="44.74414" lon="6.87132">
        <ele>2687.4</ele>
        <time>2026-03-23T11:07:35Z</time>
      </trkpt>
      <trkpt lat="44.74414" lon="6.87132">
        <ele>2687.5</ele>
        <time>2026-03-23T11:07:36Z</time>
      </trkpt>
      <trkpt lat="44.74414" lon="6.87131">
        <ele>2688.2</ele>
        <time>2026-03-23T11:07:37Z</time>
      </trkpt>
      <trkpt lat="44.74415" lon="6.87131">
        <ele>2688.2</ele>
        <time>2026-03-23T11:07:38Z</time>
      </trkpt>
      <trkpt lat="44.74415" lon="6.87131">
        <ele>2688.2</ele>
        <time>2026-03-23T11:07:39Z</time>
      </trkpt>
      <trkpt lat="44.74415" lon="6.87131">
        <ele>2688.2</ele>
        <time>2026-03-23T11:07:40Z</time>
      </trkpt>
      <trkpt lat="44.74416" lon="6.87131">
        <ele>2688.2</ele>
        <time>2026-03-23T11:07:41Z</time>
      </trkpt>
      <trkpt lat="44.74416" lon="6.87131">
        <ele>2688.2</ele>
        <time>2026-03-23T11:07:42Z</time>
      </trkpt>
      <trkpt lat="44.74416" lon="6.8713">
        <ele>2687</ele>
        <time>2026-03-23T11:07:43Z</time>
      </trkpt>
      <trkpt lat="44.74417" lon="6.8713">
        <ele>2687</ele>
        <time>2026-03-23T11:07:44Z</time>
      </trkpt>
      <trkpt lat="44.74417" lon="6.87131">
        <ele>2688.2</ele>
        <time>2026-03-23T11:07:45Z</time>
      </trkpt>
      <trkpt lat="44.74418" lon="6.87131">
        <ele>2688.9</ele>
        <time>2026-03-23T11:07:46Z</time>
      </trkpt>
      <trkpt lat="44.74418" lon="6.87131">
        <ele>2689</ele>
        <time>2026-03-23T11:07:47Z</time>
      </trkpt>
      <trkpt lat="44.74418" lon="6.87131">
        <ele>2689</ele>
        <time>2026-03-23T11:07:48Z</time>
      </trkpt>
      <trkpt lat="44.74418" lon="6.87131">
        <ele>2689</ele>
        <time>2026-03-23T11:07:49Z</time>
      </trkpt>
      <trkpt lat="44.74419" lon="6.87132">
        <ele>2689</ele>
        <time>2026-03-23T11:07:50Z</time>
      </trkpt>
      <trkpt lat="44.74418" lon="6.87132">
        <ele>2689</ele>
        <time>2026-03-23T11:07:51Z</time>
      </trkpt>
      <trkpt lat="44.74418" lon="6.87133">
        <ele>2689</ele>
        <time>2026-03-23T11:07:52Z</time>
      </trkpt>
      <trkpt lat="44.74419" lon="6.87133">
        <ele>2689</ele>
        <time>2026-03-23T11:07:53Z</time>
      </trkpt>
      <trkpt lat="44.74419" lon="6.87134">
        <ele>2689</ele>
        <time>2026-03-23T11:07:54Z</time>
      </trkpt>
      <trkpt lat="44.74419" lon="6.87134">
        <ele>2689</ele>
        <time>2026-03-23T11:07:55Z</time>
      </trkpt>
      <trkpt lat="44.74419" lon="6.87135">
        <ele>2689</ele>
        <time>2026-03-23T11:07:56Z</time>
      </trkpt>
      <trkpt lat="44.74419" lon="6.87135">
        <ele>2690.3</ele>
        <time>2026-03-23T11:07:57Z</time>
      </trkpt>
      <trkpt lat="44.74419" lon="6.87136">
        <ele>2690.3</ele>
        <time>2026-03-23T11:07:58Z</time>
      </trkpt>
      <trkpt lat="44.74419" lon="6.87136">
        <ele>2690.4</ele>
        <time>2026-03-23T11:07:59Z</time>
      </trkpt>
      <trkpt lat="44.74419" lon="6.87136">
        <ele>2690.4</ele>
        <time>2026-03-23T11:08:00Z</time>
      </trkpt>
      <trkpt lat="44.74419" lon="6.87136">
        <ele>2690.4</ele>
        <time>2026-03-23T11:08:01Z</time>
      </trkpt>
      <trkpt lat="44.7442" lon="6.87137">
        <ele>2690.4</ele>
        <time>2026-03-23T11:08:02Z</time>
      </trkpt>
      <trkpt lat="44.7442" lon="6.87137">
        <ele>2690.4</ele>
        <time>2026-03-23T11:08:03Z</time>
      </trkpt>
      <trkpt lat="44.7442" lon="6.87137">
        <ele>2690.4</ele>
        <time>2026-03-23T11:08:04Z</time>
      </trkpt>
      <trkpt lat="44.7442" lon="6.87138">
        <ele>2690.4</ele>
        <time>2026-03-23T11:08:05Z</time>
      </trkpt>
      <trkpt lat="44.74419" lon="6.87138">
        <ele>2690.4</ele>
        <time>2026-03-23T11:08:06Z</time>
      </trkpt>
      <trkpt lat="44.74419" lon="6.87139">
        <ele>2690.4</ele>
        <time>2026-03-23T11:08:07Z</time>
      </trkpt>
      <trkpt lat="44.74419" lon="6.87139">
        <ele>2691.8</ele>
        <time>2026-03-23T11:08:08Z</time>
      </trkpt>
      <trkpt lat="44.74419" lon="6.8714">
        <ele>2691.8</ele>
        <time>2026-03-23T11:08:09Z</time>
      </trkpt>
      <trkpt lat="44.74419" lon="6.8714">
        <ele>2691.8</ele>
        <time>2026-03-23T11:08:10Z</time>
      </trkpt>
      <trkpt lat="44.74419" lon="6.87141">
        <ele>2691.8</ele>
        <time>2026-03-23T11:08:11Z</time>
      </trkpt>
      <trkpt lat="44.74419" lon="6.87141">
        <ele>2691.8</ele>
        <time>2026-03-23T11:08:12Z</time>
      </trkpt>
      <trkpt lat="44.74419" lon="6.87142">
        <ele>2691.8</ele>
        <time>2026-03-23T11:08:13Z</time>
      </trkpt>
      <trkpt lat="44.74419" lon="6.87142">
        <ele>2691.8</ele>
        <time>2026-03-23T11:08:14Z</time>
      </trkpt>
      <trkpt lat="44.74419" lon="6.87143">
        <ele>2691.8</ele>
        <time>2026-03-23T11:08:15Z</time>
      </trkpt>
      <trkpt lat="44.74419" lon="6.87144">
        <ele>2693.3</ele>
        <time>2026-03-23T11:08:16Z</time>
      </trkpt>
      <trkpt lat="44.74419" lon="6.87144">
        <ele>2693.3</ele>
        <time>2026-03-23T11:08:17Z</time>
      </trkpt>
      <trkpt lat="44.74419" lon="6.87145">
        <ele>2693.3</ele>
        <time>2026-03-23T11:08:18Z</time>
      </trkpt>
      <trkpt lat="44.74419" lon="6.87145">
        <ele>2693.3</ele>
        <time>2026-03-23T11:08:19Z</time>
      </trkpt>
      <trkpt lat="44.74418" lon="6.87145">
        <ele>2693.3</ele>
        <time>2026-03-23T11:08:20Z</time>
      </trkpt>
      <trkpt lat="44.74418" lon="6.87146">
        <ele>2693.3</ele>
        <time>2026-03-23T11:08:21Z</time>
      </trkpt>
      <trkpt lat="44.74417" lon="6.87147">
        <ele>2693.3</ele>
        <time>2026-03-23T11:08:22Z</time>
      </trkpt>
      <trkpt lat="44.74417" lon="6.87147">
        <ele>2693.3</ele>
        <time>2026-03-23T11:08:23Z</time>
      </trkpt>
      <trkpt lat="44.74417" lon="6.87147">
        <ele>2692.5</ele>
        <time>2026-03-23T11:08:24Z</time>
      </trkpt>
      <trkpt lat="44.74416" lon="6.87148">
        <ele>2693.9</ele>
        <time>2026-03-23T11:08:25Z</time>
      </trkpt>
      <trkpt lat="44.74415" lon="6.87149">
        <ele>2693.9</ele>
        <time>2026-03-23T11:08:26Z</time>
      </trkpt>
      <trkpt lat="44.74415" lon="6.8715">
        <ele>2693.9</ele>
        <time>2026-03-23T11:08:27Z</time>
      </trkpt>
      <trkpt lat="44.74414" lon="6.8715">
        <ele>2694</ele>
        <time>2026-03-23T11:08:28Z</time>
      </trkpt>
      <trkpt lat="44.74414" lon="6.87151">
        <ele>2693.2</ele>
        <time>2026-03-23T11:08:29Z</time>
      </trkpt>
      <trkpt lat="44.74414" lon="6.87152">
        <ele>2693.2</ele>
        <time>2026-03-23T11:08:30Z</time>
      </trkpt>
      <trkpt lat="44.74413" lon="6.87153">
        <ele>2694.6</ele>
        <time>2026-03-23T11:08:31Z</time>
      </trkpt>
      <trkpt lat="44.74413" lon="6.87153">
        <ele>2694.6</ele>
        <time>2026-03-23T11:08:32Z</time>
      </trkpt>
      <trkpt lat="44.74413" lon="6.87153">
        <ele>2694.6</ele>
        <time>2026-03-23T11:08:33Z</time>
      </trkpt>
      <trkpt lat="44.74413" lon="6.87153">
        <ele>2694.6</ele>
        <time>2026-03-23T11:08:34Z</time>
      </trkpt>
      <trkpt lat="44.74413" lon="6.87153">
        <ele>2694.6</ele>
        <time>2026-03-23T11:08:35Z</time>
      </trkpt>
      <trkpt lat="44.74414" lon="6.87152">
        <ele>2694.6</ele>
        <time>2026-03-23T11:08:36Z</time>
      </trkpt>
      <trkpt lat="44.74414" lon="6.87152">
        <ele>2694.6</ele>
        <time>2026-03-23T11:08:37Z</time>
      </trkpt>
      <trkpt lat="44.74414" lon="6.87153">
        <ele>2694.6</ele>
        <time>2026-03-23T11:08:38Z</time>
      </trkpt>
      <trkpt lat="44.74414" lon="6.87153">
        <ele>2694.6</ele>
        <time>2026-03-23T11:08:39Z</time>
      </trkpt>
      <trkpt lat="44.74414" lon="6.87153">
        <ele>2694.6</ele>
        <time>2026-03-23T11:08:40Z</time>
      </trkpt>
      <trkpt lat="44.74413" lon="6.87154">
        <ele>2694.6</ele>
        <time>2026-03-23T11:08:41Z</time>
      </trkpt>
      <trkpt lat="44.74413" lon="6.87155">
        <ele>2694.7</ele>
        <time>2026-03-23T11:08:42Z</time>
      </trkpt>
      <trkpt lat="44.74413" lon="6.87156">
        <ele>2694.7</ele>
        <time>2026-03-23T11:08:43Z</time>
      </trkpt>
      <trkpt lat="44.74412" lon="6.87156">
        <ele>2694.7</ele>
        <time>2026-03-23T11:08:44Z</time>
      </trkpt>
      <trkpt lat="44.74412" lon="6.87157">
        <ele>2696.1</ele>
        <time>2026-03-23T11:08:45Z</time>
      </trkpt>
      <trkpt lat="44.74412" lon="6.87158">
        <ele>2696.1</ele>
        <time>2026-03-23T11:08:46Z</time>
      </trkpt>
      <trkpt lat="44.74411" lon="6.87159">
        <ele>2696.1</ele>
        <time>2026-03-23T11:08:47Z</time>
      </trkpt>
      <trkpt lat="44.74411" lon="6.8716">
        <ele>2695.4</ele>
        <time>2026-03-23T11:08:48Z</time>
      </trkpt>
      <trkpt lat="44.74411" lon="6.8716">
        <ele>2696.1</ele>
        <time>2026-03-23T11:08:49Z</time>
      </trkpt>
      <trkpt lat="44.74411" lon="6.87161">
        <ele>2696.8</ele>
        <time>2026-03-23T11:08:50Z</time>
      </trkpt>
      <trkpt lat="44.74411" lon="6.87162">
        <ele>2696.8</ele>
        <time>2026-03-23T11:08:51Z</time>
      </trkpt>
      <trkpt lat="44.74411" lon="6.87162">
        <ele>2696.8</ele>
        <time>2026-03-23T11:08:52Z</time>
      </trkpt>
      <trkpt lat="44.74411" lon="6.87162">
        <ele>2697.5</ele>
        <time>2026-03-23T11:08:53Z</time>
      </trkpt>
      <trkpt lat="44.74411" lon="6.87163">
        <ele>2696.8</ele>
        <time>2026-03-23T11:08:54Z</time>
      </trkpt>
      <trkpt lat="44.74411" lon="6.87163">
        <ele>2696.8</ele>
        <time>2026-03-23T11:08:55Z</time>
      </trkpt>
      <trkpt lat="44.74411" lon="6.87164">
        <ele>2696.8</ele>
        <time>2026-03-23T11:08:56Z</time>
      </trkpt>
      <trkpt lat="44.74411" lon="6.87164">
        <ele>2696.8</ele>
        <time>2026-03-23T11:08:57Z</time>
      </trkpt>
      <trkpt lat="44.7441" lon="6.87164">
        <ele>2696.8</ele>
        <time>2026-03-23T11:08:58Z</time>
      </trkpt>
      <trkpt lat="44.7441" lon="6.87165">
        <ele>2696.8</ele>
        <time>2026-03-23T11:08:59Z</time>
      </trkpt>
      <trkpt lat="44.7441" lon="6.87165">
        <ele>2696.8</ele>
        <time>2026-03-23T11:09:00Z</time>
      </trkpt>
      <trkpt lat="44.7441" lon="6.87165">
        <ele>2698.2</ele>
        <time>2026-03-23T11:09:01Z</time>
      </trkpt>
      <trkpt lat="44.7441" lon="6.87165">
        <ele>2698.2</ele>
        <time>2026-03-23T11:09:02Z</time>
      </trkpt>
      <trkpt lat="44.7441" lon="6.87165">
        <ele>2698.2</ele>
        <time>2026-03-23T11:09:03Z</time>
      </trkpt>
      <trkpt lat="44.7441" lon="6.87166">
        <ele>2698.2</ele>
        <time>2026-03-23T11:09:04Z</time>
      </trkpt>
      <trkpt lat="44.7441" lon="6.87166">
        <ele>2698.2</ele>
        <time>2026-03-23T11:09:05Z</time>
      </trkpt>
      <trkpt lat="44.74411" lon="6.87166">
        <ele>2698.2</ele>
        <time>2026-03-23T11:09:06Z</time>
      </trkpt>
      <trkpt lat="44.7441" lon="6.87167">
        <ele>2698.2</ele>
        <time>2026-03-23T11:09:07Z</time>
      </trkpt>
      <trkpt lat="44.7441" lon="6.87167">
        <ele>2698.2</ele>
        <time>2026-03-23T11:09:08Z</time>
      </trkpt>
      <trkpt lat="44.7441" lon="6.87168">
        <ele>2698.2</ele>
        <time>2026-03-23T11:09:09Z</time>
      </trkpt>
      <trkpt lat="44.7441" lon="6.87168">
        <ele>2698.2</ele>
        <time>2026-03-23T11:09:10Z</time>
      </trkpt>
      <trkpt lat="44.7441" lon="6.87169">
        <ele>2698.2</ele>
        <time>2026-03-23T11:09:11Z</time>
      </trkpt>
      <trkpt lat="44.7441" lon="6.87169">
        <ele>2699.6</ele>
        <time>2026-03-23T11:09:12Z</time>
      </trkpt>
      <trkpt lat="44.74409" lon="6.8717">
        <ele>2699.6</ele>
        <time>2026-03-23T11:09:13Z</time>
      </trkpt>
      <trkpt lat="44.74409" lon="6.87171">
        <ele>2699.6</ele>
        <time>2026-03-23T11:09:14Z</time>
      </trkpt>
      <trkpt lat="44.74409" lon="6.87171">
        <ele>2699.6</ele>
        <time>2026-03-23T11:09:15Z</time>
      </trkpt>
      <trkpt lat="44.74409" lon="6.87172">
        <ele>2699.6</ele>
        <time>2026-03-23T11:09:16Z</time>
      </trkpt>
      <trkpt lat="44.74409" lon="6.87172">
        <ele>2699.6</ele>
        <time>2026-03-23T11:09:17Z</time>
      </trkpt>
      <trkpt lat="44.74409" lon="6.87172">
        <ele>2699.6</ele>
        <time>2026-03-23T11:09:18Z</time>
      </trkpt>
      <trkpt lat="44.74408" lon="6.87173">
        <ele>2699.6</ele>
        <time>2026-03-23T11:09:19Z</time>
      </trkpt>
      <trkpt lat="44.74408" lon="6.87173">
        <ele>2700.3</ele>
        <time>2026-03-23T11:09:20Z</time>
      </trkpt>
      <trkpt lat="44.74408" lon="6.87174">
        <ele>2700.3</ele>
        <time>2026-03-23T11:09:21Z</time>
      </trkpt>
      <trkpt lat="44.74408" lon="6.87175">
        <ele>2700.3</ele>
        <time>2026-03-23T11:09:22Z</time>
      </trkpt>
      <trkpt lat="44.74407" lon="6.87175">
        <ele>2700.3</ele>
        <time>2026-03-23T11:09:23Z</time>
      </trkpt>
      <trkpt lat="44.74407" lon="6.87175">
        <ele>2700.3</ele>
        <time>2026-03-23T11:09:24Z</time>
      </trkpt>
      <trkpt lat="44.74408" lon="6.87175">
        <ele>2700.3</ele>
        <time>2026-03-23T11:09:25Z</time>
      </trkpt>
      <trkpt lat="44.74407" lon="6.87175">
        <ele>2700.3</ele>
        <time>2026-03-23T11:09:26Z</time>
      </trkpt>
      <trkpt lat="44.74407" lon="6.87176">
        <ele>2700.3</ele>
        <time>2026-03-23T11:09:27Z</time>
      </trkpt>
      <trkpt lat="44.74407" lon="6.87176">
        <ele>2700.3</ele>
        <time>2026-03-23T11:09:28Z</time>
      </trkpt>
      <trkpt lat="44.74407" lon="6.87177">
        <ele>2700.3</ele>
        <time>2026-03-23T11:09:29Z</time>
      </trkpt>
      <trkpt lat="44.74408" lon="6.87177">
        <ele>2700.3</ele>
        <time>2026-03-23T11:09:30Z</time>
      </trkpt>
      <trkpt lat="44.74407" lon="6.87178">
        <ele>2701.6</ele>
        <time>2026-03-23T11:09:31Z</time>
      </trkpt>
      <trkpt lat="44.74407" lon="6.87178">
        <ele>2701.6</ele>
        <time>2026-03-23T11:09:32Z</time>
      </trkpt>
      <trkpt lat="44.74405" lon="6.87178">
        <ele>2701.6</ele>
        <time>2026-03-23T11:09:33Z</time>
      </trkpt>
      <trkpt lat="44.74405" lon="6.87179">
        <ele>2701</ele>
        <time>2026-03-23T11:09:34Z</time>
      </trkpt>
      <trkpt lat="44.74404" lon="6.87179">
        <ele>2701</ele>
        <time>2026-03-23T11:09:35Z</time>
      </trkpt>
      <trkpt lat="44.74404" lon="6.8718">
        <ele>2701</ele>
        <time>2026-03-23T11:09:36Z</time>
      </trkpt>
      <trkpt lat="44.74404" lon="6.8718">
        <ele>2701</ele>
        <time>2026-03-23T11:09:37Z</time>
      </trkpt>
      <trkpt lat="44.74404" lon="6.87181">
        <ele>2701.1</ele>
        <time>2026-03-23T11:09:38Z</time>
      </trkpt>
      <trkpt lat="44.74404" lon="6.87181">
        <ele>2701.1</ele>
        <time>2026-03-23T11:09:39Z</time>
      </trkpt>
      <trkpt lat="44.74404" lon="6.87182">
        <ele>2701.1</ele>
        <time>2026-03-23T11:09:40Z</time>
      </trkpt>
      <trkpt lat="44.74403" lon="6.87182">
        <ele>2702.4</ele>
        <time>2026-03-23T11:09:41Z</time>
      </trkpt>
      <trkpt lat="44.74403" lon="6.87183">
        <ele>2702.4</ele>
        <time>2026-03-23T11:09:42Z</time>
      </trkpt>
      <trkpt lat="44.74403" lon="6.87183">
        <ele>2702.4</ele>
        <time>2026-03-23T11:09:43Z</time>
      </trkpt>
      <trkpt lat="44.74404" lon="6.87185">
        <ele>2702.4</ele>
        <time>2026-03-23T11:09:44Z</time>
      </trkpt>
      <trkpt lat="44.74405" lon="6.87186">
        <ele>2703.7</ele>
        <time>2026-03-23T11:09:45Z</time>
      </trkpt>
      <trkpt lat="44.74406" lon="6.87188">
        <ele>2704.3</ele>
        <time>2026-03-23T11:09:46Z</time>
      </trkpt>
      <trkpt lat="44.74407" lon="6.87188">
        <ele>2704.3</ele>
        <time>2026-03-23T11:09:47Z</time>
      </trkpt>
      <trkpt lat="44.74407" lon="6.8719">
        <ele>2704.3</ele>
        <time>2026-03-23T11:09:48Z</time>
      </trkpt>
      <trkpt lat="44.74407" lon="6.87191">
        <ele>2705.7</ele>
        <time>2026-03-23T11:09:49Z</time>
      </trkpt>
      <trkpt lat="44.74407" lon="6.87192">
        <ele>2705.7</ele>
        <time>2026-03-23T11:09:50Z</time>
      </trkpt>
      <trkpt lat="44.74407" lon="6.87192">
        <ele>2705.7</ele>
        <time>2026-03-23T11:09:51Z</time>
      </trkpt>
      <trkpt lat="44.74407" lon="6.87193">
        <ele>2705.7</ele>
        <time>2026-03-23T11:09:52Z</time>
      </trkpt>
      <trkpt lat="44.74406" lon="6.87193">
        <ele>2705.7</ele>
        <time>2026-03-23T11:09:53Z</time>
      </trkpt>
      <trkpt lat="44.74406" lon="6.87193">
        <ele>2705.7</ele>
        <time>2026-03-23T11:09:54Z</time>
      </trkpt>
      <trkpt lat="44.74405" lon="6.87194">
        <ele>2705.7</ele>
        <time>2026-03-23T11:09:55Z</time>
      </trkpt>
      <trkpt lat="44.74406" lon="6.87195">
        <ele>2707.1</ele>
        <time>2026-03-23T11:09:56Z</time>
      </trkpt>
      <trkpt lat="44.74407" lon="6.87196">
        <ele>2707.1</ele>
        <time>2026-03-23T11:09:57Z</time>
      </trkpt>
      <trkpt lat="44.74407" lon="6.87197">
        <ele>2707.1</ele>
        <time>2026-03-23T11:09:58Z</time>
      </trkpt>
      <trkpt lat="44.74407" lon="6.87197">
        <ele>2707.1</ele>
        <time>2026-03-23T11:09:59Z</time>
      </trkpt>
      <trkpt lat="44.74406" lon="6.87197">
        <ele>2707.1</ele>
        <time>2026-03-23T11:10:00Z</time>
      </trkpt>
      <trkpt lat="44.74406" lon="6.87197">
        <ele>2707.1</ele>
        <time>2026-03-23T11:10:01Z</time>
      </trkpt>
      <trkpt lat="44.74406" lon="6.87197">
        <ele>2707.2</ele>
        <time>2026-03-23T11:10:02Z</time>
      </trkpt>
      <trkpt lat="44.74405" lon="6.87197">
        <ele>2707.2</ele>
        <time>2026-03-23T11:10:03Z</time>
      </trkpt>
      <trkpt lat="44.74405" lon="6.87197">
        <ele>2706.6</ele>
        <time>2026-03-23T11:10:04Z</time>
      </trkpt>
      <trkpt lat="44.74404" lon="6.87198">
        <ele>2706.6</ele>
        <time>2026-03-23T11:10:05Z</time>
      </trkpt>
      <trkpt lat="44.74404" lon="6.87198">
        <ele>2706.6</ele>
        <time>2026-03-23T11:10:06Z</time>
      </trkpt>
      <trkpt lat="44.74404" lon="6.87197">
        <ele>2706.6</ele>
        <time>2026-03-23T11:10:07Z</time>
      </trkpt>
      <trkpt lat="44.74404" lon="6.87196">
        <ele>2706.6</ele>
        <time>2026-03-23T11:10:08Z</time>
      </trkpt>
      <trkpt lat="44.74403" lon="6.87196">
        <ele>2706.6</ele>
        <time>2026-03-23T11:10:09Z</time>
      </trkpt>
      <trkpt lat="44.74403" lon="6.87197">
        <ele>2706.6</ele>
        <time>2026-03-23T11:10:10Z</time>
      </trkpt>
      <trkpt lat="44.74402" lon="6.87197">
        <ele>2706.6</ele>
        <time>2026-03-23T11:10:11Z</time>
      </trkpt>
      <trkpt lat="44.74402" lon="6.87198">
        <ele>2706.1</ele>
        <time>2026-03-23T11:10:12Z</time>
      </trkpt>
      <trkpt lat="44.74402" lon="6.87199">
        <ele>2707.4</ele>
        <time>2026-03-23T11:10:13Z</time>
      </trkpt>
      <trkpt lat="44.74402" lon="6.87201">
        <ele>2707.4</ele>
        <time>2026-03-23T11:10:14Z</time>
      </trkpt>
      <trkpt lat="44.74402" lon="6.87202">
        <ele>2708</ele>
        <time>2026-03-23T11:10:15Z</time>
      </trkpt>
      <trkpt lat="44.74402" lon="6.87203">
        <ele>2708</ele>
        <time>2026-03-23T11:10:16Z</time>
      </trkpt>
      <trkpt lat="44.74402" lon="6.87203">
        <ele>2708</ele>
        <time>2026-03-23T11:10:17Z</time>
      </trkpt>
      <trkpt lat="44.74402" lon="6.87204">
        <ele>2708.7</ele>
        <time>2026-03-23T11:10:18Z</time>
      </trkpt>
      <trkpt lat="44.74403" lon="6.87204">
        <ele>2709.3</ele>
        <time>2026-03-23T11:10:19Z</time>
      </trkpt>
      <trkpt lat="44.74403" lon="6.87205">
        <ele>2709.3</ele>
        <time>2026-03-23T11:10:20Z</time>
      </trkpt>
      <trkpt lat="44.74403" lon="6.87205">
        <ele>2709.3</ele>
        <time>2026-03-23T11:10:21Z</time>
      </trkpt>
      <trkpt lat="44.74404" lon="6.87205">
        <ele>2709.3</ele>
        <time>2026-03-23T11:10:22Z</time>
      </trkpt>
      <trkpt lat="44.74404" lon="6.87206">
        <ele>2709.3</ele>
        <time>2026-03-23T11:10:23Z</time>
      </trkpt>
      <trkpt lat="44.74404" lon="6.87206">
        <ele>2709.3</ele>
        <time>2026-03-23T11:10:24Z</time>
      </trkpt>
      <trkpt lat="44.74404" lon="6.87207">
        <ele>2709.3</ele>
        <time>2026-03-23T11:10:25Z</time>
      </trkpt>
      <trkpt lat="44.74404" lon="6.87207">
        <ele>2709.3</ele>
        <time>2026-03-23T11:10:26Z</time>
      </trkpt>
      <trkpt lat="44.74404" lon="6.87208">
        <ele>2710.5</ele>
        <time>2026-03-23T11:10:27Z</time>
      </trkpt>
      <trkpt lat="44.74404" lon="6.87208">
        <ele>2710.5</ele>
        <time>2026-03-23T11:10:28Z</time>
      </trkpt>
      <trkpt lat="44.74403" lon="6.87209">
        <ele>2710.5</ele>
        <time>2026-03-23T11:10:29Z</time>
      </trkpt>
      <trkpt lat="44.74402" lon="6.87208">
        <ele>2710</ele>
        <time>2026-03-23T11:10:30Z</time>
      </trkpt>
      <trkpt lat="44.74402" lon="6.87207">
        <ele>2708.8</ele>
        <time>2026-03-23T11:10:31Z</time>
      </trkpt>
      <trkpt lat="44.74401" lon="6.87207">
        <ele>2708.8</ele>
        <time>2026-03-23T11:10:32Z</time>
      </trkpt>
      <trkpt lat="44.74402" lon="6.87208">
        <ele>2710</ele>
        <time>2026-03-23T11:10:33Z</time>
      </trkpt>
      <trkpt lat="44.74402" lon="6.87208">
        <ele>2710</ele>
        <time>2026-03-23T11:10:34Z</time>
      </trkpt>
      <trkpt lat="44.74402" lon="6.87208">
        <ele>2710</ele>
        <time>2026-03-23T11:10:35Z</time>
      </trkpt>
      <trkpt lat="44.74402" lon="6.87209">
        <ele>2710.6</ele>
        <time>2026-03-23T11:10:36Z</time>
      </trkpt>
      <trkpt lat="44.74402" lon="6.87209">
        <ele>2710</ele>
        <time>2026-03-23T11:10:37Z</time>
      </trkpt>
      <trkpt lat="44.74401" lon="6.87209">
        <ele>2710</ele>
        <time>2026-03-23T11:10:38Z</time>
      </trkpt>
      <trkpt lat="44.74401" lon="6.8721">
        <ele>2710</ele>
        <time>2026-03-23T11:10:39Z</time>
      </trkpt>
      <trkpt lat="44.744" lon="6.8721">
        <ele>2710</ele>
        <time>2026-03-23T11:10:40Z</time>
      </trkpt>
      <trkpt lat="44.744" lon="6.87211">
        <ele>2710</ele>
        <time>2026-03-23T11:10:41Z</time>
      </trkpt>
      <trkpt lat="44.744" lon="6.87212">
        <ele>2710</ele>
        <time>2026-03-23T11:10:42Z</time>
      </trkpt>
      <trkpt lat="44.74399" lon="6.87212">
        <ele>2710.1</ele>
        <time>2026-03-23T11:10:43Z</time>
      </trkpt>
      <trkpt lat="44.74398" lon="6.87212">
        <ele>2710.6</ele>
        <time>2026-03-23T11:10:44Z</time>
      </trkpt>
      <trkpt lat="44.74398" lon="6.87212">
        <ele>2710.6</ele>
        <time>2026-03-23T11:10:45Z</time>
      </trkpt>
      <trkpt lat="44.74397" lon="6.87212">
        <ele>2710.6</ele>
        <time>2026-03-23T11:10:46Z</time>
      </trkpt>
      <trkpt lat="44.74397" lon="6.87212">
        <ele>2710.6</ele>
        <time>2026-03-23T11:10:47Z</time>
      </trkpt>
      <trkpt lat="44.74396" lon="6.87212">
        <ele>2710</ele>
        <time>2026-03-23T11:10:48Z</time>
      </trkpt>
      <trkpt lat="44.74396" lon="6.87213">
        <ele>2710</ele>
        <time>2026-03-23T11:10:49Z</time>
      </trkpt>
      <trkpt lat="44.74396" lon="6.87213">
        <ele>2710.7</ele>
        <time>2026-03-23T11:10:50Z</time>
      </trkpt>
      <trkpt lat="44.74397" lon="6.87214">
        <ele>2710.7</ele>
        <time>2026-03-23T11:10:51Z</time>
      </trkpt>
      <trkpt lat="44.74397" lon="6.87214">
        <ele>2710.7</ele>
        <time>2026-03-23T11:10:52Z</time>
      </trkpt>
      <trkpt lat="44.74396" lon="6.87214">
        <ele>2710</ele>
        <time>2026-03-23T11:10:53Z</time>
      </trkpt>
      <trkpt lat="44.74396" lon="6.87214">
        <ele>2710.1</ele>
        <time>2026-03-23T11:10:54Z</time>
      </trkpt>
      <trkpt lat="44.74396" lon="6.87214">
        <ele>2710.1</ele>
        <time>2026-03-23T11:10:55Z</time>
      </trkpt>
      <trkpt lat="44.74395" lon="6.87214">
        <ele>2710.1</ele>
        <time>2026-03-23T11:10:56Z</time>
      </trkpt>
      <trkpt lat="44.74395" lon="6.87214">
        <ele>2710.1</ele>
        <time>2026-03-23T11:10:57Z</time>
      </trkpt>
      <trkpt lat="44.74395" lon="6.87214">
        <ele>2710.1</ele>
        <time>2026-03-23T11:10:58Z</time>
      </trkpt>
      <trkpt lat="44.74395" lon="6.87214">
        <ele>2710.1</ele>
        <time>2026-03-23T11:10:59Z</time>
      </trkpt>
      <trkpt lat="44.74395" lon="6.87214">
        <ele>2710.1</ele>
        <time>2026-03-23T11:11:00Z</time>
      </trkpt>
      <trkpt lat="44.74395" lon="6.87214">
        <ele>2710.1</ele>
        <time>2026-03-23T11:11:01Z</time>
      </trkpt>
      <trkpt lat="44.74396" lon="6.87215">
        <ele>2710.1</ele>
        <time>2026-03-23T11:11:02Z</time>
      </trkpt>
      <trkpt lat="44.74396" lon="6.87215">
        <ele>2710.1</ele>
        <time>2026-03-23T11:11:03Z</time>
      </trkpt>
      <trkpt lat="44.74396" lon="6.87215">
        <ele>2710.7</ele>
        <time>2026-03-23T11:11:04Z</time>
      </trkpt>
      <trkpt lat="44.74396" lon="6.87215">
        <ele>2710.7</ele>
        <time>2026-03-23T11:11:05Z</time>
      </trkpt>
      <trkpt lat="44.74397" lon="6.87215">
        <ele>2710.7</ele>
        <time>2026-03-23T11:11:06Z</time>
      </trkpt>
      <trkpt lat="44.74397" lon="6.87215">
        <ele>2710.8</ele>
        <time>2026-03-23T11:11:07Z</time>
      </trkpt>
      <trkpt lat="44.74397" lon="6.87215">
        <ele>2710.8</ele>
        <time>2026-03-23T11:11:08Z</time>
      </trkpt>
      <trkpt lat="44.74397" lon="6.87215">
        <ele>2710.8</ele>
        <time>2026-03-23T11:11:09Z</time>
      </trkpt>
      <trkpt lat="44.74397" lon="6.87215">
        <ele>2710.8</ele>
        <time>2026-03-23T11:11:10Z</time>
      </trkpt>
      <trkpt lat="44.74397" lon="6.87215">
        <ele>2710.8</ele>
        <time>2026-03-23T11:11:11Z</time>
      </trkpt>
      <trkpt lat="44.74398" lon="6.87215">
        <ele>2710.8</ele>
        <time>2026-03-23T11:11:12Z</time>
      </trkpt>
      <trkpt lat="44.74398" lon="6.87216">
        <ele>2710.8</ele>
        <time>2026-03-23T11:11:13Z</time>
      </trkpt>
      <trkpt lat="44.74398" lon="6.87216">
        <ele>2710.8</ele>
        <time>2026-03-23T11:11:14Z</time>
      </trkpt>
      <trkpt lat="44.74398" lon="6.87216">
        <ele>2710.8</ele>
        <time>2026-03-23T11:11:15Z</time>
      </trkpt>
      <trkpt lat="44.74398" lon="6.87216">
        <ele>2710.8</ele>
        <time>2026-03-23T11:11:16Z</time>
      </trkpt>
      <trkpt lat="44.74398" lon="6.87216">
        <ele>2710.8</ele>
        <time>2026-03-23T11:11:17Z</time>
      </trkpt>
      <trkpt lat="44.74398" lon="6.87216">
        <ele>2710.8</ele>
        <time>2026-03-23T11:11:18Z</time>
      </trkpt>
      <trkpt lat="44.74399" lon="6.87216">
        <ele>2710.8</ele>
        <time>2026-03-23T11:11:19Z</time>
      </trkpt>
      <trkpt lat="44.74399" lon="6.87216">
        <ele>2710.8</ele>
        <time>2026-03-23T11:11:20Z</time>
      </trkpt>
      <trkpt lat="44.74399" lon="6.87216">
        <ele>2712.6</ele>
        <time>2026-03-23T11:11:21Z</time>
      </trkpt>
      <trkpt lat="44.74399" lon="6.87216">
        <ele>2712.6</ele>
        <time>2026-03-23T11:11:22Z</time>
      </trkpt>
      <trkpt lat="44.744" lon="6.87216">
        <ele>2712.6</ele>
        <time>2026-03-23T11:11:23Z</time>
      </trkpt>
      <trkpt lat="44.744" lon="6.87217">
        <ele>2712.6</ele>
        <time>2026-03-23T11:11:24Z</time>
      </trkpt>
      <trkpt lat="44.74401" lon="6.87217">
        <ele>2712.6</ele>
        <time>2026-03-23T11:11:25Z</time>
      </trkpt>
      <trkpt lat="44.74401" lon="6.87217">
        <ele>2712.6</ele>
        <time>2026-03-23T11:11:26Z</time>
      </trkpt>
      <trkpt lat="44.74401" lon="6.87217">
        <ele>2712.6</ele>
        <time>2026-03-23T11:11:27Z</time>
      </trkpt>
      <trkpt lat="44.74402" lon="6.87217">
        <ele>2712.6</ele>
        <time>2026-03-23T11:11:28Z</time>
      </trkpt>
      <trkpt lat="44.74402" lon="6.87217">
        <ele>2713.2</ele>
        <time>2026-03-23T11:11:29Z</time>
      </trkpt>
      <trkpt lat="44.74403" lon="6.87218">
        <ele>2713.2</ele>
        <time>2026-03-23T11:11:30Z</time>
      </trkpt>
      <trkpt lat="44.74403" lon="6.87218">
        <ele>2713.2</ele>
        <time>2026-03-23T11:11:31Z</time>
      </trkpt>
      <trkpt lat="44.74403" lon="6.87218">
        <ele>2713.2</ele>
        <time>2026-03-23T11:11:32Z</time>
      </trkpt>
      <trkpt lat="44.74404" lon="6.87219">
        <ele>2713.2</ele>
        <time>2026-03-23T11:11:33Z</time>
      </trkpt>
      <trkpt lat="44.74404" lon="6.8722">
        <ele>2713.2</ele>
        <time>2026-03-23T11:11:34Z</time>
      </trkpt>
      <trkpt lat="44.74405" lon="6.87221">
        <ele>2714.4</ele>
        <time>2026-03-23T11:11:35Z</time>
      </trkpt>
      <trkpt lat="44.74405" lon="6.87221">
        <ele>2715</ele>
        <time>2026-03-23T11:11:36Z</time>
      </trkpt>
      <trkpt lat="44.74405" lon="6.87221">
        <ele>2715</ele>
        <time>2026-03-23T11:11:37Z</time>
      </trkpt>
      <trkpt lat="44.74405" lon="6.87221">
        <ele>2715</ele>
        <time>2026-03-23T11:11:38Z</time>
      </trkpt>
      <trkpt lat="44.74405" lon="6.87222">
        <ele>2714.4</ele>
        <time>2026-03-23T11:11:39Z</time>
      </trkpt>
      <trkpt lat="44.74405" lon="6.87221">
        <ele>2714.4</ele>
        <time>2026-03-23T11:11:40Z</time>
      </trkpt>
      <trkpt lat="44.74405" lon="6.87221">
        <ele>2715</ele>
        <time>2026-03-23T11:11:41Z</time>
      </trkpt>
      <trkpt lat="44.74406" lon="6.87221">
        <ele>2715</ele>
        <time>2026-03-23T11:11:42Z</time>
      </trkpt>
      <trkpt lat="44.74406" lon="6.87222">
        <ele>2715.1</ele>
        <time>2026-03-23T11:11:43Z</time>
      </trkpt>
      <trkpt lat="44.74406" lon="6.87222">
        <ele>2715.1</ele>
        <time>2026-03-23T11:11:44Z</time>
      </trkpt>
      <trkpt lat="44.74406" lon="6.87222">
        <ele>2715.1</ele>
        <time>2026-03-23T11:11:45Z</time>
      </trkpt>
      <trkpt lat="44.74407" lon="6.87223">
        <ele>2715.1</ele>
        <time>2026-03-23T11:11:46Z</time>
      </trkpt>
      <trkpt lat="44.74407" lon="6.87223">
        <ele>2715.1</ele>
        <time>2026-03-23T11:11:47Z</time>
      </trkpt>
      <trkpt lat="44.74407" lon="6.87223">
        <ele>2715.1</ele>
        <time>2026-03-23T11:11:48Z</time>
      </trkpt>
      <trkpt lat="44.74408" lon="6.87224">
        <ele>2715.1</ele>
        <time>2026-03-23T11:11:49Z</time>
      </trkpt>
      <trkpt lat="44.74408" lon="6.87224">
        <ele>2715.7</ele>
        <time>2026-03-23T11:11:50Z</time>
      </trkpt>
      <trkpt lat="44.74409" lon="6.87224">
        <ele>2715.7</ele>
        <time>2026-03-23T11:11:51Z</time>
      </trkpt>
      <trkpt lat="44.74409" lon="6.87225">
        <ele>2715.7</ele>
        <time>2026-03-23T11:11:52Z</time>
      </trkpt>
      <trkpt lat="44.7441" lon="6.87225">
        <ele>2717</ele>
        <time>2026-03-23T11:11:53Z</time>
      </trkpt>
      <trkpt lat="44.7441" lon="6.87226">
        <ele>2717</ele>
        <time>2026-03-23T11:11:54Z</time>
      </trkpt>
      <trkpt lat="44.7441" lon="6.87226">
        <ele>2717</ele>
        <time>2026-03-23T11:11:55Z</time>
      </trkpt>
      <trkpt lat="44.74411" lon="6.87226">
        <ele>2717</ele>
        <time>2026-03-23T11:11:56Z</time>
      </trkpt>
      <trkpt lat="44.74411" lon="6.87226">
        <ele>2717</ele>
        <time>2026-03-23T11:11:57Z</time>
      </trkpt>
      <trkpt lat="44.74411" lon="6.87226">
        <ele>2717</ele>
        <time>2026-03-23T11:11:58Z</time>
      </trkpt>
      <trkpt lat="44.74411" lon="6.87227">
        <ele>2717</ele>
        <time>2026-03-23T11:11:59Z</time>
      </trkpt>
      <trkpt lat="44.74411" lon="6.87227">
        <ele>2717.8</ele>
        <time>2026-03-23T11:12:00Z</time>
      </trkpt>
      <trkpt lat="44.74412" lon="6.87227">
        <ele>2717.8</ele>
        <time>2026-03-23T11:12:01Z</time>
      </trkpt>
      <trkpt lat="44.74412" lon="6.87227">
        <ele>2717.8</ele>
        <time>2026-03-23T11:12:02Z</time>
      </trkpt>
      <trkpt lat="44.74412" lon="6.87228">
        <ele>2717.8</ele>
        <time>2026-03-23T11:12:03Z</time>
      </trkpt>
      <trkpt lat="44.74413" lon="6.87228">
        <ele>2717.8</ele>
        <time>2026-03-23T11:12:04Z</time>
      </trkpt>
      <trkpt lat="44.74413" lon="6.87229">
        <ele>2717.8</ele>
        <time>2026-03-23T11:12:05Z</time>
      </trkpt>
      <trkpt lat="44.74414" lon="6.87229">
        <ele>2717.8</ele>
        <time>2026-03-23T11:12:06Z</time>
      </trkpt>
      <trkpt lat="44.74414" lon="6.8723">
        <ele>2719.1</ele>
        <time>2026-03-23T11:12:07Z</time>
      </trkpt>
      <trkpt lat="44.74414" lon="6.8723">
        <ele>2719.9</ele>
        <time>2026-03-23T11:12:08Z</time>
      </trkpt>
      <trkpt lat="44.74415" lon="6.8723">
        <ele>2719.9</ele>
        <time>2026-03-23T11:12:09Z</time>
      </trkpt>
      <trkpt lat="44.74415" lon="6.8723">
        <ele>2719.9</ele>
        <time>2026-03-23T11:12:10Z</time>
      </trkpt>
      <trkpt lat="44.74415" lon="6.8723">
        <ele>2719.9</ele>
        <time>2026-03-23T11:12:11Z</time>
      </trkpt>
      <trkpt lat="44.74416" lon="6.87231">
        <ele>2719.9</ele>
        <time>2026-03-23T11:12:12Z</time>
      </trkpt>
      <trkpt lat="44.74416" lon="6.87232">
        <ele>2719.9</ele>
        <time>2026-03-23T11:12:13Z</time>
      </trkpt>
      <trkpt lat="44.74416" lon="6.87232">
        <ele>2719.9</ele>
        <time>2026-03-23T11:12:14Z</time>
      </trkpt>
      <trkpt lat="44.74416" lon="6.87232">
        <ele>2719.9</ele>
        <time>2026-03-23T11:12:15Z</time>
      </trkpt>
      <trkpt lat="44.74417" lon="6.87232">
        <ele>2719.9</ele>
        <time>2026-03-23T11:12:16Z</time>
      </trkpt>
      <trkpt lat="44.74417" lon="6.87232">
        <ele>2720</ele>
        <time>2026-03-23T11:12:17Z</time>
      </trkpt>
      <trkpt lat="44.74417" lon="6.87232">
        <ele>2720</ele>
        <time>2026-03-23T11:12:18Z</time>
      </trkpt>
      <trkpt lat="44.74417" lon="6.87232">
        <ele>2720.8</ele>
        <time>2026-03-23T11:12:19Z</time>
      </trkpt>
      <trkpt lat="44.74418" lon="6.87231">
        <ele>2720.8</ele>
        <time>2026-03-23T11:12:20Z</time>
      </trkpt>
      <trkpt lat="44.74418" lon="6.87232">
        <ele>2720.8</ele>
        <time>2026-03-23T11:12:21Z</time>
      </trkpt>
      <trkpt lat="44.74418" lon="6.87232">
        <ele>2720.8</ele>
        <time>2026-03-23T11:12:22Z</time>
      </trkpt>
      <trkpt lat="44.74418" lon="6.87232">
        <ele>2720.9</ele>
        <time>2026-03-23T11:12:23Z</time>
      </trkpt>
      <trkpt lat="44.74419" lon="6.87233">
        <ele>2720.9</ele>
        <time>2026-03-23T11:12:24Z</time>
      </trkpt>
      <trkpt lat="44.74419" lon="6.87233">
        <ele>2720.9</ele>
        <time>2026-03-23T11:12:25Z</time>
      </trkpt>
      <trkpt lat="44.7442" lon="6.87233">
        <ele>2720.9</ele>
        <time>2026-03-23T11:12:26Z</time>
      </trkpt>
      <trkpt lat="44.7442" lon="6.87234">
        <ele>2722.2</ele>
        <time>2026-03-23T11:12:27Z</time>
      </trkpt>
      <trkpt lat="44.7442" lon="6.87234">
        <ele>2722.2</ele>
        <time>2026-03-23T11:12:28Z</time>
      </trkpt>
      <trkpt lat="44.74421" lon="6.87234">
        <ele>2723.1</ele>
        <time>2026-03-23T11:12:29Z</time>
      </trkpt>
      <trkpt lat="44.74421" lon="6.87234">
        <ele>2723.1</ele>
        <time>2026-03-23T11:12:30Z</time>
      </trkpt>
      <trkpt lat="44.74422" lon="6.87234">
        <ele>2723.1</ele>
        <time>2026-03-23T11:12:31Z</time>
      </trkpt>
      <trkpt lat="44.74422" lon="6.87234">
        <ele>2723.1</ele>
        <time>2026-03-23T11:12:32Z</time>
      </trkpt>
      <trkpt lat="44.74422" lon="6.87234">
        <ele>2723.1</ele>
        <time>2026-03-23T11:12:33Z</time>
      </trkpt>
      <trkpt lat="44.74423" lon="6.87234">
        <ele>2723.1</ele>
        <time>2026-03-23T11:12:34Z</time>
      </trkpt>
      <trkpt lat="44.74423" lon="6.87234">
        <ele>2723.1</ele>
        <time>2026-03-23T11:12:35Z</time>
      </trkpt>
      <trkpt lat="44.74423" lon="6.87234">
        <ele>2723.1</ele>
        <time>2026-03-23T11:12:36Z</time>
      </trkpt>
      <trkpt lat="44.74423" lon="6.87235">
        <ele>2723.1</ele>
        <time>2026-03-23T11:12:37Z</time>
      </trkpt>
      <trkpt lat="44.74423" lon="6.87235">
        <ele>2723.1</ele>
        <time>2026-03-23T11:12:38Z</time>
      </trkpt>
      <trkpt lat="44.74424" lon="6.87235">
        <ele>2724</ele>
        <time>2026-03-23T11:12:39Z</time>
      </trkpt>
      <trkpt lat="44.74424" lon="6.87235">
        <ele>2724</ele>
        <time>2026-03-23T11:12:40Z</time>
      </trkpt>
      <trkpt lat="44.74424" lon="6.87235">
        <ele>2724</ele>
        <time>2026-03-23T11:12:41Z</time>
      </trkpt>
      <trkpt lat="44.74424" lon="6.87235">
        <ele>2724</ele>
        <time>2026-03-23T11:12:42Z</time>
      </trkpt>
      <trkpt lat="44.74425" lon="6.87235">
        <ele>2724</ele>
        <time>2026-03-23T11:12:43Z</time>
      </trkpt>
      <trkpt lat="44.74425" lon="6.87236">
        <ele>2724</ele>
        <time>2026-03-23T11:12:44Z</time>
      </trkpt>
      <trkpt lat="44.74425" lon="6.87235">
        <ele>2724</ele>
        <time>2026-03-23T11:12:45Z</time>
      </trkpt>
      <trkpt lat="44.74426" lon="6.87236">
        <ele>2724</ele>
        <time>2026-03-23T11:12:46Z</time>
      </trkpt>
      <trkpt lat="44.74426" lon="6.87236">
        <ele>2724</ele>
        <time>2026-03-23T11:12:47Z</time>
      </trkpt>
      <trkpt lat="44.74427" lon="6.87236">
        <ele>2724.8</ele>
        <time>2026-03-23T11:12:48Z</time>
      </trkpt>
      <trkpt lat="44.74427" lon="6.87237">
        <ele>2724.8</ele>
        <time>2026-03-23T11:12:49Z</time>
      </trkpt>
      <trkpt lat="44.74428" lon="6.87237">
        <ele>2724.8</ele>
        <time>2026-03-23T11:12:50Z</time>
      </trkpt>
      <trkpt lat="44.74428" lon="6.87238">
        <ele>2726.1</ele>
        <time>2026-03-23T11:12:51Z</time>
      </trkpt>
      <trkpt lat="44.74429" lon="6.87238">
        <ele>2726.1</ele>
        <time>2026-03-23T11:12:52Z</time>
      </trkpt>
      <trkpt lat="44.74429" lon="6.87239">
        <ele>2726.1</ele>
        <time>2026-03-23T11:12:53Z</time>
      </trkpt>
      <trkpt lat="44.7443" lon="6.87239">
        <ele>2726.9</ele>
        <time>2026-03-23T11:12:54Z</time>
      </trkpt>
      <trkpt lat="44.7443" lon="6.87239">
        <ele>2726.9</ele>
        <time>2026-03-23T11:12:55Z</time>
      </trkpt>
      <trkpt lat="44.7443" lon="6.87239">
        <ele>2726.9</ele>
        <time>2026-03-23T11:12:56Z</time>
      </trkpt>
      <trkpt lat="44.74431" lon="6.87239">
        <ele>2726.9</ele>
        <time>2026-03-23T11:12:57Z</time>
      </trkpt>
      <trkpt lat="44.74431" lon="6.8724">
        <ele>2726.9</ele>
        <time>2026-03-23T11:12:58Z</time>
      </trkpt>
      <trkpt lat="44.74431" lon="6.8724">
        <ele>2726.9</ele>
        <time>2026-03-23T11:12:59Z</time>
      </trkpt>
      <trkpt lat="44.74432" lon="6.87241">
        <ele>2726.9</ele>
        <time>2026-03-23T11:13:00Z</time>
      </trkpt>
      <trkpt lat="44.74432" lon="6.87241">
        <ele>2726.9</ele>
        <time>2026-03-23T11:13:01Z</time>
      </trkpt>
      <trkpt lat="44.74432" lon="6.87241">
        <ele>2726.9</ele>
        <time>2026-03-23T11:13:02Z</time>
      </trkpt>
      <trkpt lat="44.74433" lon="6.87242">
        <ele>2727.7</ele>
        <time>2026-03-23T11:13:03Z</time>
      </trkpt>
      <trkpt lat="44.74434" lon="6.87242">
        <ele>2727.7</ele>
        <time>2026-03-23T11:13:04Z</time>
      </trkpt>
      <trkpt lat="44.74435" lon="6.87242">
        <ele>2727.7</ele>
        <time>2026-03-23T11:13:05Z</time>
      </trkpt>
      <trkpt lat="44.74435" lon="6.87241">
        <ele>2727.7</ele>
        <time>2026-03-23T11:13:06Z</time>
      </trkpt>
      <trkpt lat="44.74436" lon="6.87242">
        <ele>2727.7</ele>
        <time>2026-03-23T11:13:07Z</time>
      </trkpt>
      <trkpt lat="44.74436" lon="6.87242">
        <ele>2728.5</ele>
        <time>2026-03-23T11:13:08Z</time>
      </trkpt>
      <trkpt lat="44.74436" lon="6.87242">
        <ele>2729.7</ele>
        <time>2026-03-23T11:13:09Z</time>
      </trkpt>
      <trkpt lat="44.74436" lon="6.87242">
        <ele>2729.8</ele>
        <time>2026-03-23T11:13:10Z</time>
      </trkpt>
      <trkpt lat="44.74437" lon="6.87242">
        <ele>2729.8</ele>
        <time>2026-03-23T11:13:11Z</time>
      </trkpt>
      <trkpt lat="44.74437" lon="6.87242">
        <ele>2729.8</ele>
        <time>2026-03-23T11:13:12Z</time>
      </trkpt>
      <trkpt lat="44.74437" lon="6.87242">
        <ele>2729.8</ele>
        <time>2026-03-23T11:13:13Z</time>
      </trkpt>
      <trkpt lat="44.74438" lon="6.87242">
        <ele>2729.8</ele>
        <time>2026-03-23T11:13:14Z</time>
      </trkpt>
      <trkpt lat="44.74438" lon="6.87242">
        <ele>2729.8</ele>
        <time>2026-03-23T11:13:15Z</time>
      </trkpt>
      <trkpt lat="44.74438" lon="6.87242">
        <ele>2729.8</ele>
        <time>2026-03-23T11:13:16Z</time>
      </trkpt>
      <trkpt lat="44.74438" lon="6.87242">
        <ele>2729.8</ele>
        <time>2026-03-23T11:13:17Z</time>
      </trkpt>
      <trkpt lat="44.74439" lon="6.87243">
        <ele>2730.6</ele>
        <time>2026-03-23T11:13:18Z</time>
      </trkpt>
      <trkpt lat="44.74439" lon="6.87243">
        <ele>2730.6</ele>
        <time>2026-03-23T11:13:19Z</time>
      </trkpt>
      <trkpt lat="44.74439" lon="6.87243">
        <ele>2730.6</ele>
        <time>2026-03-23T11:13:20Z</time>
      </trkpt>
      <trkpt lat="44.74439" lon="6.87244">
        <ele>2730.6</ele>
        <time>2026-03-23T11:13:21Z</time>
      </trkpt>
      <trkpt lat="44.74439" lon="6.87244">
        <ele>2730.6</ele>
        <time>2026-03-23T11:13:22Z</time>
      </trkpt>
      <trkpt lat="44.74439" lon="6.87244">
        <ele>2730.6</ele>
        <time>2026-03-23T11:13:23Z</time>
      </trkpt>
      <trkpt lat="44.7444" lon="6.87244">
        <ele>2730.6</ele>
        <time>2026-03-23T11:13:24Z</time>
      </trkpt>
      <trkpt lat="44.7444" lon="6.87244">
        <ele>2730.6</ele>
        <time>2026-03-23T11:13:25Z</time>
      </trkpt>
      <trkpt lat="44.74441" lon="6.87245">
        <ele>2730.6</ele>
        <time>2026-03-23T11:13:26Z</time>
      </trkpt>
      <trkpt lat="44.74441" lon="6.87245">
        <ele>2730.6</ele>
        <time>2026-03-23T11:13:27Z</time>
      </trkpt>
      <trkpt lat="44.74441" lon="6.87245">
        <ele>2730.6</ele>
        <time>2026-03-23T11:13:28Z</time>
      </trkpt>
      <trkpt lat="44.74442" lon="6.87245">
        <ele>2731.4</ele>
        <time>2026-03-23T11:13:29Z</time>
      </trkpt>
      <trkpt lat="44.74442" lon="6.87245">
        <ele>2731.4</ele>
        <time>2026-03-23T11:13:30Z</time>
      </trkpt>
      <trkpt lat="44.74443" lon="6.87245">
        <ele>2731.4</ele>
        <time>2026-03-23T11:13:31Z</time>
      </trkpt>
      <trkpt lat="44.74443" lon="6.87245">
        <ele>2731.4</ele>
        <time>2026-03-23T11:13:32Z</time>
      </trkpt>
      <trkpt lat="44.74444" lon="6.87245">
        <ele>2731.4</ele>
        <time>2026-03-23T11:13:33Z</time>
      </trkpt>
      <trkpt lat="44.74444" lon="6.87246">
        <ele>2731.4</ele>
        <time>2026-03-23T11:13:34Z</time>
      </trkpt>
      <trkpt lat="44.74444" lon="6.87246">
        <ele>2731.4</ele>
        <time>2026-03-23T11:13:35Z</time>
      </trkpt>
      <trkpt lat="44.74445" lon="6.87246">
        <ele>2731.4</ele>
        <time>2026-03-23T11:13:36Z</time>
      </trkpt>
      <trkpt lat="44.74445" lon="6.87247">
        <ele>2733.3</ele>
        <time>2026-03-23T11:13:37Z</time>
      </trkpt>
      <trkpt lat="44.74445" lon="6.87247">
        <ele>2733.3</ele>
        <time>2026-03-23T11:13:38Z</time>
      </trkpt>
      <trkpt lat="44.74446" lon="6.87248">
        <ele>2733.3</ele>
        <time>2026-03-23T11:13:39Z</time>
      </trkpt>
      <trkpt lat="44.74446" lon="6.87249">
        <ele>2733.3</ele>
        <time>2026-03-23T11:13:40Z</time>
      </trkpt>
      <trkpt lat="44.74447" lon="6.87249">
        <ele>2733.3</ele>
        <time>2026-03-23T11:13:41Z</time>
      </trkpt>
      <trkpt lat="44.74447" lon="6.87249">
        <ele>2733.4</ele>
        <time>2026-03-23T11:13:42Z</time>
      </trkpt>
      <trkpt lat="44.74447" lon="6.8725">
        <ele>2733.4</ele>
        <time>2026-03-23T11:13:43Z</time>
      </trkpt>
      <trkpt lat="44.74448" lon="6.8725">
        <ele>2733.4</ele>
        <time>2026-03-23T11:13:44Z</time>
      </trkpt>
      <trkpt lat="44.74448" lon="6.8725">
        <ele>2734</ele>
        <time>2026-03-23T11:13:45Z</time>
      </trkpt>
      <trkpt lat="44.74448" lon="6.8725">
        <ele>2734</ele>
        <time>2026-03-23T11:13:46Z</time>
      </trkpt>
      <trkpt lat="44.74449" lon="6.8725">
        <ele>2734</ele>
        <time>2026-03-23T11:13:47Z</time>
      </trkpt>
      <trkpt lat="44.74449" lon="6.87251">
        <ele>2735.1</ele>
        <time>2026-03-23T11:13:48Z</time>
      </trkpt>
      <trkpt lat="44.74449" lon="6.87251">
        <ele>2735.2</ele>
        <time>2026-03-23T11:13:49Z</time>
      </trkpt>
      <trkpt lat="44.74449" lon="6.87251">
        <ele>2735.2</ele>
        <time>2026-03-23T11:13:50Z</time>
      </trkpt>
      <trkpt lat="44.7445" lon="6.87251">
        <ele>2735.2</ele>
        <time>2026-03-23T11:13:51Z</time>
      </trkpt>
      <trkpt lat="44.7445" lon="6.87252">
        <ele>2735.2</ele>
        <time>2026-03-23T11:13:52Z</time>
      </trkpt>
      <trkpt lat="44.7445" lon="6.87252">
        <ele>2735.2</ele>
        <time>2026-03-23T11:13:53Z</time>
      </trkpt>
      <trkpt lat="44.74451" lon="6.87252">
        <ele>2735.2</ele>
        <time>2026-03-23T11:13:54Z</time>
      </trkpt>
      <trkpt lat="44.74451" lon="6.87253">
        <ele>2735.8</ele>
        <time>2026-03-23T11:13:55Z</time>
      </trkpt>
      <trkpt lat="44.74451" lon="6.87253">
        <ele>2735.8</ele>
        <time>2026-03-23T11:13:56Z</time>
      </trkpt>
      <trkpt lat="44.74452" lon="6.87254">
        <ele>2735.8</ele>
        <time>2026-03-23T11:13:57Z</time>
      </trkpt>
      <trkpt lat="44.74452" lon="6.87254">
        <ele>2735.8</ele>
        <time>2026-03-23T11:13:58Z</time>
      </trkpt>
      <trkpt lat="44.74452" lon="6.87255">
        <ele>2735.8</ele>
        <time>2026-03-23T11:13:59Z</time>
      </trkpt>
      <trkpt lat="44.74453" lon="6.87255">
        <ele>2735.8</ele>
        <time>2026-03-23T11:14:00Z</time>
      </trkpt>
      <trkpt lat="44.74453" lon="6.87255">
        <ele>2735.8</ele>
        <time>2026-03-23T11:14:01Z</time>
      </trkpt>
      <trkpt lat="44.74454" lon="6.87255">
        <ele>2736.8</ele>
        <time>2026-03-23T11:14:02Z</time>
      </trkpt>
      <trkpt lat="44.74454" lon="6.87256">
        <ele>2737.4</ele>
        <time>2026-03-23T11:14:03Z</time>
      </trkpt>
      <trkpt lat="44.74454" lon="6.87256">
        <ele>2737.4</ele>
        <time>2026-03-23T11:14:04Z</time>
      </trkpt>
      <trkpt lat="44.74454" lon="6.87257">
        <ele>2737.4</ele>
        <time>2026-03-23T11:14:05Z</time>
      </trkpt>
      <trkpt lat="44.74454" lon="6.87257">
        <ele>2737.4</ele>
        <time>2026-03-23T11:14:06Z</time>
      </trkpt>
      <trkpt lat="44.74454" lon="6.87257">
        <ele>2737.4</ele>
        <time>2026-03-23T11:14:07Z</time>
      </trkpt>
      <trkpt lat="44.74454" lon="6.87257">
        <ele>2737.4</ele>
        <time>2026-03-23T11:14:08Z</time>
      </trkpt>
      <trkpt lat="44.74454" lon="6.87257">
        <ele>2737.4</ele>
        <time>2026-03-23T11:14:09Z</time>
      </trkpt>
      <trkpt lat="44.74455" lon="6.87258">
        <ele>2737.4</ele>
        <time>2026-03-23T11:14:10Z</time>
      </trkpt>
      <trkpt lat="44.74455" lon="6.87258">
        <ele>2737.4</ele>
        <time>2026-03-23T11:14:11Z</time>
      </trkpt>
      <trkpt lat="44.74455" lon="6.87258">
        <ele>2737.4</ele>
        <time>2026-03-23T11:14:12Z</time>
      </trkpt>
      <trkpt lat="44.74455" lon="6.87259">
        <ele>2737.4</ele>
        <time>2026-03-23T11:14:13Z</time>
      </trkpt>
      <trkpt lat="44.74455" lon="6.87259">
        <ele>2738.4</ele>
        <time>2026-03-23T11:14:14Z</time>
      </trkpt>
      <trkpt lat="44.74455" lon="6.8726">
        <ele>2738.4</ele>
        <time>2026-03-23T11:14:15Z</time>
      </trkpt>
      <trkpt lat="44.74455" lon="6.8726">
        <ele>2738.4</ele>
        <time>2026-03-23T11:14:16Z</time>
      </trkpt>
      <trkpt lat="44.74455" lon="6.8726">
        <ele>2738.4</ele>
        <time>2026-03-23T11:14:17Z</time>
      </trkpt>
      <trkpt lat="44.74456" lon="6.87261">
        <ele>2738.4</ele>
        <time>2026-03-23T11:14:18Z</time>
      </trkpt>
      <trkpt lat="44.74456" lon="6.87261">
        <ele>2738.4</ele>
        <time>2026-03-23T11:14:19Z</time>
      </trkpt>
      <trkpt lat="44.74456" lon="6.87262">
        <ele>2738.4</ele>
        <time>2026-03-23T11:14:20Z</time>
      </trkpt>
      <trkpt lat="44.74456" lon="6.87262">
        <ele>2738.4</ele>
        <time>2026-03-23T11:14:21Z</time>
      </trkpt>
      <trkpt lat="44.74456" lon="6.87262">
        <ele>2738.4</ele>
        <time>2026-03-23T11:14:22Z</time>
      </trkpt>
      <trkpt lat="44.74456" lon="6.87262">
        <ele>2738.4</ele>
        <time>2026-03-23T11:14:23Z</time>
      </trkpt>
      <trkpt lat="44.74456" lon="6.87263">
        <ele>2738.4</ele>
        <time>2026-03-23T11:14:24Z</time>
      </trkpt>
      <trkpt lat="44.74456" lon="6.87263">
        <ele>2738.4</ele>
        <time>2026-03-23T11:14:25Z</time>
      </trkpt>
      <trkpt lat="44.74456" lon="6.87264">
        <ele>2739.3</ele>
        <time>2026-03-23T11:14:26Z</time>
      </trkpt>
      <trkpt lat="44.74456" lon="6.87264">
        <ele>2739.3</ele>
        <time>2026-03-23T11:14:27Z</time>
      </trkpt>
      <trkpt lat="44.74456" lon="6.87265">
        <ele>2739.3</ele>
        <time>2026-03-23T11:14:28Z</time>
      </trkpt>
      <trkpt lat="44.74457" lon="6.87265">
        <ele>2739.3</ele>
        <time>2026-03-23T11:14:29Z</time>
      </trkpt>
      <trkpt lat="44.74457" lon="6.87266">
        <ele>2739.8</ele>
        <time>2026-03-23T11:14:30Z</time>
      </trkpt>
      <trkpt lat="44.74458" lon="6.87266">
        <ele>2739.8</ele>
        <time>2026-03-23T11:14:31Z</time>
      </trkpt>
      <trkpt lat="44.74458" lon="6.87267">
        <ele>2739.8</ele>
        <time>2026-03-23T11:14:32Z</time>
      </trkpt>
      <trkpt lat="44.74457" lon="6.87268">
        <ele>2739.8</ele>
        <time>2026-03-23T11:14:33Z</time>
      </trkpt>
      <trkpt lat="44.74457" lon="6.87268">
        <ele>2740.7</ele>
        <time>2026-03-23T11:14:34Z</time>
      </trkpt>
      <trkpt lat="44.74457" lon="6.87269">
        <ele>2740.7</ele>
        <time>2026-03-23T11:14:35Z</time>
      </trkpt>
      <trkpt lat="44.74458" lon="6.8727">
        <ele>2740.7</ele>
        <time>2026-03-23T11:14:36Z</time>
      </trkpt>
      <trkpt lat="44.74458" lon="6.8727">
        <ele>2740.7</ele>
        <time>2026-03-23T11:14:37Z</time>
      </trkpt>
      <trkpt lat="44.74458" lon="6.8727">
        <ele>2740.7</ele>
        <time>2026-03-23T11:14:38Z</time>
      </trkpt>
      <trkpt lat="44.74458" lon="6.87271">
        <ele>2740.7</ele>
        <time>2026-03-23T11:14:39Z</time>
      </trkpt>
      <trkpt lat="44.7446" lon="6.87272">
        <ele>2741.6</ele>
        <time>2026-03-23T11:14:40Z</time>
      </trkpt>
      <trkpt lat="44.74461" lon="6.87274">
        <ele>2742.1</ele>
        <time>2026-03-23T11:14:41Z</time>
      </trkpt>
      <trkpt lat="44.74461" lon="6.87274">
        <ele>2742.1</ele>
        <time>2026-03-23T11:14:42Z</time>
      </trkpt>
      <trkpt lat="44.74462" lon="6.87273">
        <ele>2742.1</ele>
        <time>2026-03-23T11:14:43Z</time>
      </trkpt>
      <trkpt lat="44.74462" lon="6.87274">
        <ele>2742.1</ele>
        <time>2026-03-23T11:14:44Z</time>
      </trkpt>
      <trkpt lat="44.74462" lon="6.87274">
        <ele>2742.1</ele>
        <time>2026-03-23T11:14:45Z</time>
      </trkpt>
      <trkpt lat="44.74462" lon="6.87275">
        <ele>2742.1</ele>
        <time>2026-03-23T11:14:46Z</time>
      </trkpt>
      <trkpt lat="44.74462" lon="6.87276">
        <ele>2742.1</ele>
        <time>2026-03-23T11:14:47Z</time>
      </trkpt>
      <trkpt lat="44.74462" lon="6.87276">
        <ele>2742.2</ele>
        <time>2026-03-23T11:14:48Z</time>
      </trkpt>
      <trkpt lat="44.74462" lon="6.87277">
        <ele>2743.1</ele>
        <time>2026-03-23T11:14:49Z</time>
      </trkpt>
      <trkpt lat="44.74462" lon="6.87277">
        <ele>2743.1</ele>
        <time>2026-03-23T11:14:50Z</time>
      </trkpt>
      <trkpt lat="44.7446" lon="6.87276">
        <ele>2742.2</ele>
        <time>2026-03-23T11:14:51Z</time>
      </trkpt>
      <trkpt lat="44.74459" lon="6.87276">
        <ele>2741.7</ele>
        <time>2026-03-23T11:14:52Z</time>
      </trkpt>
      <trkpt lat="44.74459" lon="6.87276">
        <ele>2742.6</ele>
        <time>2026-03-23T11:14:53Z</time>
      </trkpt>
      <trkpt lat="44.74458" lon="6.87277">
        <ele>2742.6</ele>
        <time>2026-03-23T11:14:54Z</time>
      </trkpt>
      <trkpt lat="44.74458" lon="6.87277">
        <ele>2742.6</ele>
        <time>2026-03-23T11:14:55Z</time>
      </trkpt>
      <trkpt lat="44.74457" lon="6.87278">
        <ele>2742.6</ele>
        <time>2026-03-23T11:14:56Z</time>
      </trkpt>
      <trkpt lat="44.74458" lon="6.87279">
        <ele>2742.6</ele>
        <time>2026-03-23T11:14:57Z</time>
      </trkpt>
      <trkpt lat="44.74459" lon="6.8728">
        <ele>2742.6</ele>
        <time>2026-03-23T11:14:58Z</time>
      </trkpt>
      <trkpt lat="44.74459" lon="6.87281">
        <ele>2743.5</ele>
        <time>2026-03-23T11:14:59Z</time>
      </trkpt>
      <trkpt lat="44.7446" lon="6.87282">
        <ele>2743.5</ele>
        <time>2026-03-23T11:15:00Z</time>
      </trkpt>
      <trkpt lat="44.7446" lon="6.87282">
        <ele>2744</ele>
        <time>2026-03-23T11:15:01Z</time>
      </trkpt>
      <trkpt lat="44.7446" lon="6.87283">
        <ele>2744</ele>
        <time>2026-03-23T11:15:02Z</time>
      </trkpt>
      <trkpt lat="44.7446" lon="6.87283">
        <ele>2744</ele>
        <time>2026-03-23T11:15:03Z</time>
      </trkpt>
      <trkpt lat="44.7446" lon="6.87283">
        <ele>2744</ele>
        <time>2026-03-23T11:15:04Z</time>
      </trkpt>
      <trkpt lat="44.7446" lon="6.87283">
        <ele>2744.1</ele>
        <time>2026-03-23T11:15:05Z</time>
      </trkpt>
      <trkpt lat="44.74461" lon="6.87284">
        <ele>2744.1</ele>
        <time>2026-03-23T11:15:06Z</time>
      </trkpt>
      <trkpt lat="44.74461" lon="6.87285">
        <ele>2744.1</ele>
        <time>2026-03-23T11:15:07Z</time>
      </trkpt>
      <trkpt lat="44.74461" lon="6.87285">
        <ele>2744.1</ele>
        <time>2026-03-23T11:15:08Z</time>
      </trkpt>
      <trkpt lat="44.7446" lon="6.87285">
        <ele>2744.5</ele>
        <time>2026-03-23T11:15:09Z</time>
      </trkpt>
      <trkpt lat="44.74459" lon="6.87285">
        <ele>2744.5</ele>
        <time>2026-03-23T11:15:10Z</time>
      </trkpt>
      <trkpt lat="44.74458" lon="6.87285">
        <ele>2744.5</ele>
        <time>2026-03-23T11:15:11Z</time>
      </trkpt>
      <trkpt lat="44.74457" lon="6.87286">
        <ele>2744.5</ele>
        <time>2026-03-23T11:15:12Z</time>
      </trkpt>
      <trkpt lat="44.74457" lon="6.87286">
        <ele>2744.1</ele>
        <time>2026-03-23T11:15:13Z</time>
      </trkpt>
      <trkpt lat="44.74457" lon="6.87286">
        <ele>2744.1</ele>
        <time>2026-03-23T11:15:14Z</time>
      </trkpt>
      <trkpt lat="44.74457" lon="6.87286">
        <ele>2744.1</ele>
        <time>2026-03-23T11:15:15Z</time>
      </trkpt>
      <trkpt lat="44.74457" lon="6.87286">
        <ele>2744.5</ele>
        <time>2026-03-23T11:15:16Z</time>
      </trkpt>
      <trkpt lat="44.74457" lon="6.87286">
        <ele>2744.5</ele>
        <time>2026-03-23T11:15:17Z</time>
      </trkpt>
      <trkpt lat="44.74457" lon="6.87287">
        <ele>2744.5</ele>
        <time>2026-03-23T11:15:18Z</time>
      </trkpt>
      <trkpt lat="44.74456" lon="6.87287">
        <ele>2744.1</ele>
        <time>2026-03-23T11:15:19Z</time>
      </trkpt>
      <trkpt lat="44.74456" lon="6.87287">
        <ele>2744.1</ele>
        <time>2026-03-23T11:15:20Z</time>
      </trkpt>
      <trkpt lat="44.74455" lon="6.87288">
        <ele>2744.1</ele>
        <time>2026-03-23T11:15:21Z</time>
      </trkpt>
      <trkpt lat="44.74455" lon="6.87288">
        <ele>2744.1</ele>
        <time>2026-03-23T11:15:22Z</time>
      </trkpt>
      <trkpt lat="44.74455" lon="6.87288">
        <ele>2744.1</ele>
        <time>2026-03-23T11:15:23Z</time>
      </trkpt>
      <trkpt lat="44.74455" lon="6.87289">
        <ele>2744.1</ele>
        <time>2026-03-23T11:15:24Z</time>
      </trkpt>
      <trkpt lat="44.74454" lon="6.8729">
        <ele>2745</ele>
        <time>2026-03-23T11:15:25Z</time>
      </trkpt>
      <trkpt lat="44.74454" lon="6.8729">
        <ele>2745</ele>
        <time>2026-03-23T11:15:26Z</time>
      </trkpt>
      <trkpt lat="44.74454" lon="6.87291">
        <ele>2744.6</ele>
        <time>2026-03-23T11:15:27Z</time>
      </trkpt>
      <trkpt lat="44.74453" lon="6.87292">
        <ele>2744.6</ele>
        <time>2026-03-23T11:15:28Z</time>
      </trkpt>
      <trkpt lat="44.74453" lon="6.87292">
        <ele>2744.6</ele>
        <time>2026-03-23T11:15:29Z</time>
      </trkpt>
      <trkpt lat="44.74453" lon="6.87293">
        <ele>2744.6</ele>
        <time>2026-03-23T11:15:30Z</time>
      </trkpt>
      <trkpt lat="44.74453" lon="6.87293">
        <ele>2744.6</ele>
        <time>2026-03-23T11:15:31Z</time>
      </trkpt>
      <trkpt lat="44.74453" lon="6.87294">
        <ele>2745.4</ele>
        <time>2026-03-23T11:15:32Z</time>
      </trkpt>
      <trkpt lat="44.74454" lon="6.87294">
        <ele>2745.4</ele>
        <time>2026-03-23T11:15:33Z</time>
      </trkpt>
      <trkpt lat="44.74454" lon="6.87295">
        <ele>2745.4</ele>
        <time>2026-03-23T11:15:34Z</time>
      </trkpt>
      <trkpt lat="44.74454" lon="6.87296">
        <ele>2745.4</ele>
        <time>2026-03-23T11:15:35Z</time>
      </trkpt>
      <trkpt lat="44.74455" lon="6.87297">
        <ele>2745.9</ele>
        <time>2026-03-23T11:15:36Z</time>
      </trkpt>
      <trkpt lat="44.74455" lon="6.87298">
        <ele>2745.9</ele>
        <time>2026-03-23T11:15:37Z</time>
      </trkpt>
      <trkpt lat="44.74454" lon="6.87298">
        <ele>2746.7</ele>
        <time>2026-03-23T11:15:38Z</time>
      </trkpt>
      <trkpt lat="44.74454" lon="6.87299">
        <ele>2746.2</ele>
        <time>2026-03-23T11:15:39Z</time>
      </trkpt>
      <trkpt lat="44.74454" lon="6.873">
        <ele>2746.7</ele>
        <time>2026-03-23T11:15:40Z</time>
      </trkpt>
      <trkpt lat="44.74454" lon="6.873">
        <ele>2746.7</ele>
        <time>2026-03-23T11:15:41Z</time>
      </trkpt>
      <trkpt lat="44.74455" lon="6.873">
        <ele>2746.7</ele>
        <time>2026-03-23T11:15:42Z</time>
      </trkpt>
      <trkpt lat="44.74455" lon="6.87301">
        <ele>2746.7</ele>
        <time>2026-03-23T11:15:43Z</time>
      </trkpt>
      <trkpt lat="44.74454" lon="6.87301">
        <ele>2746.7</ele>
        <time>2026-03-23T11:15:44Z</time>
      </trkpt>
      <trkpt lat="44.74454" lon="6.87302">
        <ele>2746.7</ele>
        <time>2026-03-23T11:15:45Z</time>
      </trkpt>
      <trkpt lat="44.74454" lon="6.87302">
        <ele>2746.3</ele>
        <time>2026-03-23T11:15:46Z</time>
      </trkpt>
      <trkpt lat="44.74454" lon="6.87303">
        <ele>2747</ele>
        <time>2026-03-23T11:15:47Z</time>
      </trkpt>
      <trkpt lat="44.74454" lon="6.87303">
        <ele>2747.1</ele>
        <time>2026-03-23T11:15:48Z</time>
      </trkpt>
      <trkpt lat="44.74453" lon="6.87303">
        <ele>2747.1</ele>
        <time>2026-03-23T11:15:49Z</time>
      </trkpt>
      <trkpt lat="44.74453" lon="6.87303">
        <ele>2747.1</ele>
        <time>2026-03-23T11:15:50Z</time>
      </trkpt>
      <trkpt lat="44.74452" lon="6.87304">
        <ele>2747.1</ele>
        <time>2026-03-23T11:15:51Z</time>
      </trkpt>
      <trkpt lat="44.74452" lon="6.87304">
        <ele>2747.1</ele>
        <time>2026-03-23T11:15:52Z</time>
      </trkpt>
      <trkpt lat="44.74451" lon="6.87304">
        <ele>2747.1</ele>
        <time>2026-03-23T11:15:53Z</time>
      </trkpt>
      <trkpt lat="44.74451" lon="6.87305">
        <ele>2747.1</ele>
        <time>2026-03-23T11:15:54Z</time>
      </trkpt>
      <trkpt lat="44.74451" lon="6.87306">
        <ele>2746.7</ele>
        <time>2026-03-23T11:15:55Z</time>
      </trkpt>
      <trkpt lat="44.74451" lon="6.87306">
        <ele>2746.7</ele>
        <time>2026-03-23T11:15:56Z</time>
      </trkpt>
      <trkpt lat="44.74449" lon="6.87307">
        <ele>2747.4</ele>
        <time>2026-03-23T11:15:57Z</time>
      </trkpt>
      <trkpt lat="44.74449" lon="6.87308">
        <ele>2747.4</ele>
        <time>2026-03-23T11:15:58Z</time>
      </trkpt>
      <trkpt lat="44.7445" lon="6.8731">
        <ele>2747.4</ele>
        <time>2026-03-23T11:15:59Z</time>
      </trkpt>
      <trkpt lat="44.7445" lon="6.87311">
        <ele>2748.1</ele>
        <time>2026-03-23T11:16:00Z</time>
      </trkpt>
      <trkpt lat="44.74451" lon="6.87311">
        <ele>2748.1</ele>
        <time>2026-03-23T11:16:01Z</time>
      </trkpt>
      <trkpt lat="44.74451" lon="6.87312">
        <ele>2748.1</ele>
        <time>2026-03-23T11:16:02Z</time>
      </trkpt>
      <trkpt lat="44.7445" lon="6.87311">
        <ele>2748.2</ele>
        <time>2026-03-23T11:16:03Z</time>
      </trkpt>
      <trkpt lat="44.7445" lon="6.87311">
        <ele>2748.2</ele>
        <time>2026-03-23T11:16:04Z</time>
      </trkpt>
      <trkpt lat="44.7445" lon="6.87311">
        <ele>2748.2</ele>
        <time>2026-03-23T11:16:05Z</time>
      </trkpt>
      <trkpt lat="44.7445" lon="6.87311">
        <ele>2748.2</ele>
        <time>2026-03-23T11:16:06Z</time>
      </trkpt>
      <trkpt lat="44.7445" lon="6.87311">
        <ele>2748.2</ele>
        <time>2026-03-23T11:16:07Z</time>
      </trkpt>
      <trkpt lat="44.7445" lon="6.87311">
        <ele>2748.2</ele>
        <time>2026-03-23T11:16:08Z</time>
      </trkpt>
      <trkpt lat="44.7445" lon="6.87311">
        <ele>2748.2</ele>
        <time>2026-03-23T11:16:09Z</time>
      </trkpt>
      <trkpt lat="44.7445" lon="6.87312">
        <ele>2748.2</ele>
        <time>2026-03-23T11:16:10Z</time>
      </trkpt>
      <trkpt lat="44.7445" lon="6.87312">
        <ele>2748.2</ele>
        <time>2026-03-23T11:16:11Z</time>
      </trkpt>
      <trkpt lat="44.7445" lon="6.87312">
        <ele>2748.2</ele>
        <time>2026-03-23T11:16:12Z</time>
      </trkpt>
      <trkpt lat="44.7445" lon="6.87312">
        <ele>2748.2</ele>
        <time>2026-03-23T11:16:13Z</time>
      </trkpt>
      <trkpt lat="44.7445" lon="6.87313">
        <ele>2748.2</ele>
        <time>2026-03-23T11:16:14Z</time>
      </trkpt>
      <trkpt lat="44.7445" lon="6.87313">
        <ele>2748.2</ele>
        <time>2026-03-23T11:16:15Z</time>
      </trkpt>
      <trkpt lat="44.7445" lon="6.87314">
        <ele>2748.2</ele>
        <time>2026-03-23T11:16:16Z</time>
      </trkpt>
      <trkpt lat="44.74451" lon="6.87315">
        <ele>2748.7</ele>
        <time>2026-03-23T11:16:17Z</time>
      </trkpt>
      <trkpt lat="44.74452" lon="6.87315">
        <ele>2749.4</ele>
        <time>2026-03-23T11:16:18Z</time>
      </trkpt>
      <trkpt lat="44.74453" lon="6.87316">
        <ele>2749.4</ele>
        <time>2026-03-23T11:16:19Z</time>
      </trkpt>
      <trkpt lat="44.74454" lon="6.87316">
        <ele>2749.4</ele>
        <time>2026-03-23T11:16:20Z</time>
      </trkpt>
      <trkpt lat="44.74454" lon="6.87316">
        <ele>2749.4</ele>
        <time>2026-03-23T11:16:21Z</time>
      </trkpt>
      <trkpt lat="44.74454" lon="6.87316">
        <ele>2749.4</ele>
        <time>2026-03-23T11:16:22Z</time>
      </trkpt>
      <trkpt lat="44.74454" lon="6.87317">
        <ele>2749.9</ele>
        <time>2026-03-23T11:16:23Z</time>
      </trkpt>
      <trkpt lat="44.74454" lon="6.87317">
        <ele>2749.4</ele>
        <time>2026-03-23T11:16:24Z</time>
      </trkpt>
      <trkpt lat="44.74454" lon="6.87318">
        <ele>2749.9</ele>
        <time>2026-03-23T11:16:25Z</time>
      </trkpt>
      <trkpt lat="44.74454" lon="6.87318">
        <ele>2749.9</ele>
        <time>2026-03-23T11:16:26Z</time>
      </trkpt>
      <trkpt lat="44.74454" lon="6.87318">
        <ele>2749.9</ele>
        <time>2026-03-23T11:16:27Z</time>
      </trkpt>
      <trkpt lat="44.74454" lon="6.87318">
        <ele>2749.9</ele>
        <time>2026-03-23T11:16:28Z</time>
      </trkpt>
      <trkpt lat="44.74454" lon="6.87318">
        <ele>2749.9</ele>
        <time>2026-03-23T11:16:29Z</time>
      </trkpt>
      <trkpt lat="44.74454" lon="6.87319">
        <ele>2749.9</ele>
        <time>2026-03-23T11:16:30Z</time>
      </trkpt>
      <trkpt lat="44.74455" lon="6.87319">
        <ele>2749.9</ele>
        <time>2026-03-23T11:16:31Z</time>
      </trkpt>
      <trkpt lat="44.74455" lon="6.8732">
        <ele>2750.6</ele>
        <time>2026-03-23T11:16:32Z</time>
      </trkpt>
      <trkpt lat="44.74456" lon="6.8732">
        <ele>2750.7</ele>
        <time>2026-03-23T11:16:33Z</time>
      </trkpt>
      <trkpt lat="44.74456" lon="6.87321">
        <ele>2750.7</ele>
        <time>2026-03-23T11:16:34Z</time>
      </trkpt>
      <trkpt lat="44.74455" lon="6.87321">
        <ele>2750.7</ele>
        <time>2026-03-23T11:16:35Z</time>
      </trkpt>
      <trkpt lat="44.74455" lon="6.87322">
        <ele>2750.7</ele>
        <time>2026-03-23T11:16:36Z</time>
      </trkpt>
      <trkpt lat="44.74455" lon="6.87322">
        <ele>2750.7</ele>
        <time>2026-03-23T11:16:37Z</time>
      </trkpt>
      <trkpt lat="44.74455" lon="6.87323">
        <ele>2750.7</ele>
        <time>2026-03-23T11:16:38Z</time>
      </trkpt>
      <trkpt lat="44.74455" lon="6.87323">
        <ele>2750.7</ele>
        <time>2026-03-23T11:16:39Z</time>
      </trkpt>
      <trkpt lat="44.74455" lon="6.87323">
        <ele>2750.7</ele>
        <time>2026-03-23T11:16:40Z</time>
      </trkpt>
      <trkpt lat="44.74455" lon="6.87323">
        <ele>2750.7</ele>
        <time>2026-03-23T11:16:41Z</time>
      </trkpt>
      <trkpt lat="44.74455" lon="6.87323">
        <ele>2750.7</ele>
        <time>2026-03-23T11:16:42Z</time>
      </trkpt>
      <trkpt lat="44.74455" lon="6.87323">
        <ele>2750.7</ele>
        <time>2026-03-23T11:16:43Z</time>
      </trkpt>
      <trkpt lat="44.74455" lon="6.87323">
        <ele>2750.7</ele>
        <time>2026-03-23T11:16:44Z</time>
      </trkpt>
      <trkpt lat="44.74456" lon="6.87323">
        <ele>2750.7</ele>
        <time>2026-03-23T11:16:45Z</time>
      </trkpt>
      <trkpt lat="44.74456" lon="6.87323">
        <ele>2750.7</ele>
        <time>2026-03-23T11:16:46Z</time>
      </trkpt>
      <trkpt lat="44.74456" lon="6.87322">
        <ele>2750.7</ele>
        <time>2026-03-23T11:16:47Z</time>
      </trkpt>
      <trkpt lat="44.74457" lon="6.87322">
        <ele>2750.7</ele>
        <time>2026-03-23T11:16:48Z</time>
      </trkpt>
      <trkpt lat="44.74457" lon="6.87322">
        <ele>2751.2</ele>
        <time>2026-03-23T11:16:49Z</time>
      </trkpt>
      <trkpt lat="44.74458" lon="6.87323">
        <ele>2751.2</ele>
        <time>2026-03-23T11:16:50Z</time>
      </trkpt>
      <trkpt lat="44.74458" lon="6.87323">
        <ele>2751.2</ele>
        <time>2026-03-23T11:16:51Z</time>
      </trkpt>
      <trkpt lat="44.74458" lon="6.87323">
        <ele>2751.2</ele>
        <time>2026-03-23T11:16:52Z</time>
      </trkpt>
      <trkpt lat="44.74458" lon="6.87323">
        <ele>2751.2</ele>
        <time>2026-03-23T11:16:53Z</time>
      </trkpt>
      <trkpt lat="44.74459" lon="6.87323">
        <ele>2751.2</ele>
        <time>2026-03-23T11:16:54Z</time>
      </trkpt>
      <trkpt lat="44.74459" lon="6.87323">
        <ele>2751.2</ele>
        <time>2026-03-23T11:16:55Z</time>
      </trkpt>
      <trkpt lat="44.74458" lon="6.87322">
        <ele>2751.2</ele>
        <time>2026-03-23T11:16:56Z</time>
      </trkpt>
      <trkpt lat="44.74458" lon="6.87323">
        <ele>2751.2</ele>
        <time>2026-03-23T11:16:57Z</time>
      </trkpt>
      <trkpt lat="44.74458" lon="6.87323">
        <ele>2751.2</ele>
        <time>2026-03-23T11:16:58Z</time>
      </trkpt>
      <trkpt lat="44.74458" lon="6.87324">
        <ele>2752</ele>
        <time>2026-03-23T11:16:59Z</time>
      </trkpt>
      <trkpt lat="44.74458" lon="6.87324">
        <ele>2752</ele>
        <time>2026-03-23T11:17:00Z</time>
      </trkpt>
      <trkpt lat="44.74459" lon="6.87325">
        <ele>2752</ele>
        <time>2026-03-23T11:17:01Z</time>
      </trkpt>
      <trkpt lat="44.74458" lon="6.87325">
        <ele>2752</ele>
        <time>2026-03-23T11:17:02Z</time>
      </trkpt>
      <trkpt lat="44.74458" lon="6.87326">
        <ele>2752</ele>
        <time>2026-03-23T11:17:03Z</time>
      </trkpt>
      <trkpt lat="44.74459" lon="6.87326">
        <ele>2752.1</ele>
        <time>2026-03-23T11:17:04Z</time>
      </trkpt>
      <trkpt lat="44.74459" lon="6.87326">
        <ele>2752.1</ele>
        <time>2026-03-23T11:17:05Z</time>
      </trkpt>
      <trkpt lat="44.74459" lon="6.87327">
        <ele>2752.1</ele>
        <time>2026-03-23T11:17:06Z</time>
      </trkpt>
      <trkpt lat="44.74459" lon="6.87327">
        <ele>2752.1</ele>
        <time>2026-03-23T11:17:07Z</time>
      </trkpt>
      <trkpt lat="44.74458" lon="6.87328">
        <ele>2752.9</ele>
        <time>2026-03-23T11:17:08Z</time>
      </trkpt>
      <trkpt lat="44.74459" lon="6.87329">
        <ele>2752.9</ele>
        <time>2026-03-23T11:17:09Z</time>
      </trkpt>
      <trkpt lat="44.74459" lon="6.8733">
        <ele>2752.9</ele>
        <time>2026-03-23T11:17:10Z</time>
      </trkpt>
      <trkpt lat="44.74459" lon="6.8733">
        <ele>2752.9</ele>
        <time>2026-03-23T11:17:11Z</time>
      </trkpt>
      <trkpt lat="44.74459" lon="6.8733">
        <ele>2752.9</ele>
        <time>2026-03-23T11:17:12Z</time>
      </trkpt>
      <trkpt lat="44.74459" lon="6.87331">
        <ele>2752.9</ele>
        <time>2026-03-23T11:17:13Z</time>
      </trkpt>
      <trkpt lat="44.74459" lon="6.87331">
        <ele>2752.9</ele>
        <time>2026-03-23T11:17:14Z</time>
      </trkpt>
      <trkpt lat="44.7446" lon="6.87332">
        <ele>2752.9</ele>
        <time>2026-03-23T11:17:15Z</time>
      </trkpt>
      <trkpt lat="44.74459" lon="6.87333">
        <ele>2753.8</ele>
        <time>2026-03-23T11:17:16Z</time>
      </trkpt>
      <trkpt lat="44.74459" lon="6.87333">
        <ele>2753.8</ele>
        <time>2026-03-23T11:17:17Z</time>
      </trkpt>
      <trkpt lat="44.74459" lon="6.87333">
        <ele>2753.8</ele>
        <time>2026-03-23T11:17:18Z</time>
      </trkpt>
      <trkpt lat="44.74459" lon="6.87333">
        <ele>2753.8</ele>
        <time>2026-03-23T11:17:19Z</time>
      </trkpt>
      <trkpt lat="44.7446" lon="6.87335">
        <ele>2753.8</ele>
        <time>2026-03-23T11:17:20Z</time>
      </trkpt>
      <trkpt lat="44.74461" lon="6.87335">
        <ele>2754.2</ele>
        <time>2026-03-23T11:17:21Z</time>
      </trkpt>
      <trkpt lat="44.74462" lon="6.87336">
        <ele>2754.3</ele>
        <time>2026-03-23T11:17:22Z</time>
      </trkpt>
      <trkpt lat="44.74462" lon="6.87336">
        <ele>2754.3</ele>
        <time>2026-03-23T11:17:23Z</time>
      </trkpt>
      <trkpt lat="44.74463" lon="6.87337">
        <ele>2755.1</ele>
        <time>2026-03-23T11:17:24Z</time>
      </trkpt>
      <trkpt lat="44.74463" lon="6.87339">
        <ele>2755.1</ele>
        <time>2026-03-23T11:17:25Z</time>
      </trkpt>
      <trkpt lat="44.74463" lon="6.87339">
        <ele>2755.6</ele>
        <time>2026-03-23T11:17:26Z</time>
      </trkpt>
      <trkpt lat="44.74463" lon="6.8734">
        <ele>2755.6</ele>
        <time>2026-03-23T11:17:27Z</time>
      </trkpt>
      <trkpt lat="44.74463" lon="6.87341">
        <ele>2755.6</ele>
        <time>2026-03-23T11:17:28Z</time>
      </trkpt>
      <trkpt lat="44.74463" lon="6.87341">
        <ele>2755.9</ele>
        <time>2026-03-23T11:17:29Z</time>
      </trkpt>
      <trkpt lat="44.74463" lon="6.87342">
        <ele>2756.4</ele>
        <time>2026-03-23T11:17:30Z</time>
      </trkpt>
      <trkpt lat="44.74463" lon="6.87342">
        <ele>2756.4</ele>
        <time>2026-03-23T11:17:31Z</time>
      </trkpt>
      <trkpt lat="44.74463" lon="6.87343">
        <ele>2755.9</ele>
        <time>2026-03-23T11:17:32Z</time>
      </trkpt>
      <trkpt lat="44.74463" lon="6.87344">
        <ele>2755.9</ele>
        <time>2026-03-23T11:17:33Z</time>
      </trkpt>
      <trkpt lat="44.74462" lon="6.87344">
        <ele>2755.9</ele>
        <time>2026-03-23T11:17:34Z</time>
      </trkpt>
      <trkpt lat="44.74462" lon="6.87344">
        <ele>2755.9</ele>
        <time>2026-03-23T11:17:35Z</time>
      </trkpt>
      <trkpt lat="44.74462" lon="6.87344">
        <ele>2755.9</ele>
        <time>2026-03-23T11:17:36Z</time>
      </trkpt>
      <trkpt lat="44.74462" lon="6.87345">
        <ele>2755.9</ele>
        <time>2026-03-23T11:17:37Z</time>
      </trkpt>
      <trkpt lat="44.74462" lon="6.87345">
        <ele>2756.7</ele>
        <time>2026-03-23T11:17:38Z</time>
      </trkpt>
      <trkpt lat="44.74462" lon="6.87346">
        <ele>2756.7</ele>
        <time>2026-03-23T11:17:39Z</time>
      </trkpt>
      <trkpt lat="44.74462" lon="6.87346">
        <ele>2756.7</ele>
        <time>2026-03-23T11:17:40Z</time>
      </trkpt>
      <trkpt lat="44.74461" lon="6.87346">
        <ele>2756.7</ele>
        <time>2026-03-23T11:17:41Z</time>
      </trkpt>
      <trkpt lat="44.74461" lon="6.87347">
        <ele>2756.7</ele>
        <time>2026-03-23T11:17:42Z</time>
      </trkpt>
      <trkpt lat="44.74461" lon="6.87347">
        <ele>2756.7</ele>
        <time>2026-03-23T11:17:43Z</time>
      </trkpt>
      <trkpt lat="44.74461" lon="6.87348">
        <ele>2756.7</ele>
        <time>2026-03-23T11:17:44Z</time>
      </trkpt>
      <trkpt lat="44.74461" lon="6.87348">
        <ele>2756.7</ele>
        <time>2026-03-23T11:17:45Z</time>
      </trkpt>
      <trkpt lat="44.74461" lon="6.87349">
        <ele>2756.7</ele>
        <time>2026-03-23T11:17:46Z</time>
      </trkpt>
      <trkpt lat="44.7446" lon="6.8735">
        <ele>2757.4</ele>
        <time>2026-03-23T11:17:47Z</time>
      </trkpt>
      <trkpt lat="44.74461" lon="6.8735">
        <ele>2757.4</ele>
        <time>2026-03-23T11:17:48Z</time>
      </trkpt>
      <trkpt lat="44.7446" lon="6.87351">
        <ele>2757.4</ele>
        <time>2026-03-23T11:17:49Z</time>
      </trkpt>
      <trkpt lat="44.7446" lon="6.87352">
        <ele>2757.5</ele>
        <time>2026-03-23T11:17:50Z</time>
      </trkpt>
      <trkpt lat="44.7446" lon="6.87353">
        <ele>2756.9</ele>
        <time>2026-03-23T11:17:51Z</time>
      </trkpt>
      <trkpt lat="44.7446" lon="6.87353">
        <ele>2756.9</ele>
        <time>2026-03-23T11:17:52Z</time>
      </trkpt>
      <trkpt lat="44.74459" lon="6.87354">
        <ele>2757.6</ele>
        <time>2026-03-23T11:17:53Z</time>
      </trkpt>
      <trkpt lat="44.74459" lon="6.87354">
        <ele>2757.6</ele>
        <time>2026-03-23T11:17:54Z</time>
      </trkpt>
      <trkpt lat="44.74459" lon="6.87355">
        <ele>2757.6</ele>
        <time>2026-03-23T11:17:55Z</time>
      </trkpt>
      <trkpt lat="44.74459" lon="6.87356">
        <ele>2757.6</ele>
        <time>2026-03-23T11:17:56Z</time>
      </trkpt>
      <trkpt lat="44.74459" lon="6.87356">
        <ele>2757.7</ele>
        <time>2026-03-23T11:17:57Z</time>
      </trkpt>
      <trkpt lat="44.74459" lon="6.87357">
        <ele>2757.7</ele>
        <time>2026-03-23T11:17:58Z</time>
      </trkpt>
      <trkpt lat="44.74459" lon="6.87357">
        <ele>2757.7</ele>
        <time>2026-03-23T11:17:59Z</time>
      </trkpt>
      <trkpt lat="44.74459" lon="6.87357">
        <ele>2757.7</ele>
        <time>2026-03-23T11:18:00Z</time>
      </trkpt>
      <trkpt lat="44.74459" lon="6.87358">
        <ele>2757.7</ele>
        <time>2026-03-23T11:18:01Z</time>
      </trkpt>
      <trkpt lat="44.74459" lon="6.87357">
        <ele>2757.7</ele>
        <time>2026-03-23T11:18:02Z</time>
      </trkpt>
      <trkpt lat="44.74459" lon="6.87358">
        <ele>2757.7</ele>
        <time>2026-03-23T11:18:03Z</time>
      </trkpt>
      <trkpt lat="44.74459" lon="6.87358">
        <ele>2757.7</ele>
        <time>2026-03-23T11:18:04Z</time>
      </trkpt>
      <trkpt lat="44.74459" lon="6.87358">
        <ele>2758.4</ele>
        <time>2026-03-23T11:18:05Z</time>
      </trkpt>
      <trkpt lat="44.7446" lon="6.87359">
        <ele>2758.4</ele>
        <time>2026-03-23T11:18:06Z</time>
      </trkpt>
      <trkpt lat="44.7446" lon="6.87359">
        <ele>2758.4</ele>
        <time>2026-03-23T11:18:07Z</time>
      </trkpt>
      <trkpt lat="44.7446" lon="6.87359">
        <ele>2759</ele>
        <time>2026-03-23T11:18:08Z</time>
      </trkpt>
      <trkpt lat="44.7446" lon="6.87359">
        <ele>2759</ele>
        <time>2026-03-23T11:18:09Z</time>
      </trkpt>
      <trkpt lat="44.74461" lon="6.87359">
        <ele>2759</ele>
        <time>2026-03-23T11:18:10Z</time>
      </trkpt>
      <trkpt lat="44.74461" lon="6.8736">
        <ele>2759</ele>
        <time>2026-03-23T11:18:11Z</time>
      </trkpt>
      <trkpt lat="44.7446" lon="6.8736">
        <ele>2759</ele>
        <time>2026-03-23T11:18:12Z</time>
      </trkpt>
      <trkpt lat="44.7446" lon="6.8736">
        <ele>2759</ele>
        <time>2026-03-23T11:18:13Z</time>
      </trkpt>
      <trkpt lat="44.7446" lon="6.87361">
        <ele>2759</ele>
        <time>2026-03-23T11:18:14Z</time>
      </trkpt>
      <trkpt lat="44.7446" lon="6.87362">
        <ele>2759</ele>
        <time>2026-03-23T11:18:15Z</time>
      </trkpt>
      <trkpt lat="44.7446" lon="6.87362">
        <ele>2759</ele>
        <time>2026-03-23T11:18:16Z</time>
      </trkpt>
      <trkpt lat="44.74461" lon="6.87362">
        <ele>2759</ele>
        <time>2026-03-23T11:18:17Z</time>
      </trkpt>
      <trkpt lat="44.74461" lon="6.87362">
        <ele>2759.8</ele>
        <time>2026-03-23T11:18:18Z</time>
      </trkpt>
      <trkpt lat="44.74461" lon="6.87362">
        <ele>2759.8</ele>
        <time>2026-03-23T11:18:19Z</time>
      </trkpt>
      <trkpt lat="44.74461" lon="6.87363">
        <ele>2759.8</ele>
        <time>2026-03-23T11:18:20Z</time>
      </trkpt>
      <trkpt lat="44.74462" lon="6.87363">
        <ele>2759.8</ele>
        <time>2026-03-23T11:18:21Z</time>
      </trkpt>
      <trkpt lat="44.74464" lon="6.87364">
        <ele>2760.4</ele>
        <time>2026-03-23T11:18:22Z</time>
      </trkpt>
      <trkpt lat="44.74464" lon="6.87364">
        <ele>2760.4</ele>
        <time>2026-03-23T11:18:23Z</time>
      </trkpt>
      <trkpt lat="44.74465" lon="6.87364">
        <ele>2760.4</ele>
        <time>2026-03-23T11:18:24Z</time>
      </trkpt>
      <trkpt lat="44.74465" lon="6.87365">
        <ele>2760.4</ele>
        <time>2026-03-23T11:18:25Z</time>
      </trkpt>
      <trkpt lat="44.74465" lon="6.87365">
        <ele>2760.4</ele>
        <time>2026-03-23T11:18:26Z</time>
      </trkpt>
      <trkpt lat="44.74465" lon="6.87365">
        <ele>2760.4</ele>
        <time>2026-03-23T11:18:27Z</time>
      </trkpt>
      <trkpt lat="44.74465" lon="6.87365">
        <ele>2760.4</ele>
        <time>2026-03-23T11:18:28Z</time>
      </trkpt>
      <trkpt lat="44.74465" lon="6.87365">
        <ele>2760.4</ele>
        <time>2026-03-23T11:18:29Z</time>
      </trkpt>
      <trkpt lat="44.74465" lon="6.87366">
        <ele>2760.4</ele>
        <time>2026-03-23T11:18:30Z</time>
      </trkpt>
      <trkpt lat="44.74465" lon="6.87366">
        <ele>2760.4</ele>
        <time>2026-03-23T11:18:31Z</time>
      </trkpt>
      <trkpt lat="44.74466" lon="6.87366">
        <ele>2760.4</ele>
        <time>2026-03-23T11:18:32Z</time>
      </trkpt>
      <trkpt lat="44.74465" lon="6.87366">
        <ele>2760.4</ele>
        <time>2026-03-23T11:18:33Z</time>
      </trkpt>
      <trkpt lat="44.74466" lon="6.87366">
        <ele>2760.4</ele>
        <time>2026-03-23T11:18:34Z</time>
      </trkpt>
      <trkpt lat="44.74465" lon="6.87366">
        <ele>2760.4</ele>
        <time>2026-03-23T11:18:35Z</time>
      </trkpt>
      <trkpt lat="44.74465" lon="6.87367">
        <ele>2761.2</ele>
        <time>2026-03-23T11:18:36Z</time>
      </trkpt>
      <trkpt lat="44.74466" lon="6.87367">
        <ele>2761.2</ele>
        <time>2026-03-23T11:18:37Z</time>
      </trkpt>
      <trkpt lat="44.74466" lon="6.87367">
        <ele>2761.2</ele>
        <time>2026-03-23T11:18:38Z</time>
      </trkpt>
      <trkpt lat="44.74466" lon="6.87368">
        <ele>2761.8</ele>
        <time>2026-03-23T11:18:39Z</time>
      </trkpt>
      <trkpt lat="44.74467" lon="6.87368">
        <ele>2761.8</ele>
        <time>2026-03-23T11:18:40Z</time>
      </trkpt>
      <trkpt lat="44.74467" lon="6.87368">
        <ele>2761.8</ele>
        <time>2026-03-23T11:18:41Z</time>
      </trkpt>
      <trkpt lat="44.74467" lon="6.87368">
        <ele>2761.8</ele>
        <time>2026-03-23T11:18:42Z</time>
      </trkpt>
      <trkpt lat="44.74468" lon="6.87368">
        <ele>2761.8</ele>
        <time>2026-03-23T11:18:43Z</time>
      </trkpt>
      <trkpt lat="44.74468" lon="6.87368">
        <ele>2761.8</ele>
        <time>2026-03-23T11:18:44Z</time>
      </trkpt>
      <trkpt lat="44.74468" lon="6.87368">
        <ele>2761.8</ele>
        <time>2026-03-23T11:18:45Z</time>
      </trkpt>
      <trkpt lat="44.74468" lon="6.87367">
        <ele>2761.8</ele>
        <time>2026-03-23T11:18:46Z</time>
      </trkpt>
      <trkpt lat="44.74469" lon="6.87367">
        <ele>2761.8</ele>
        <time>2026-03-23T11:18:47Z</time>
      </trkpt>
      <trkpt lat="44.74469" lon="6.87367">
        <ele>2762.4</ele>
        <time>2026-03-23T11:18:48Z</time>
      </trkpt>
      <trkpt lat="44.7447" lon="6.87367">
        <ele>2762.4</ele>
        <time>2026-03-23T11:18:49Z</time>
      </trkpt>
      <trkpt lat="44.7447" lon="6.87367">
        <ele>2762.4</ele>
        <time>2026-03-23T11:18:50Z</time>
      </trkpt>
      <trkpt lat="44.7447" lon="6.87367">
        <ele>2762.4</ele>
        <time>2026-03-23T11:18:51Z</time>
      </trkpt>
      <trkpt lat="44.74471" lon="6.87367">
        <ele>2762.4</ele>
        <time>2026-03-23T11:18:52Z</time>
      </trkpt>
      <trkpt lat="44.74471" lon="6.87367">
        <ele>2762.4</ele>
        <time>2026-03-23T11:18:53Z</time>
      </trkpt>
      <trkpt lat="44.74472" lon="6.87368">
        <ele>2762.4</ele>
        <time>2026-03-23T11:18:54Z</time>
      </trkpt>
      <trkpt lat="44.74472" lon="6.87369">
        <ele>2762.4</ele>
        <time>2026-03-23T11:18:55Z</time>
      </trkpt>
      <trkpt lat="44.74472" lon="6.8737">
        <ele>2762.4</ele>
        <time>2026-03-23T11:18:56Z</time>
      </trkpt>
      <trkpt lat="44.74472" lon="6.87371">
        <ele>2762.4</ele>
        <time>2026-03-23T11:18:57Z</time>
      </trkpt>
      <trkpt lat="44.74472" lon="6.87371">
        <ele>2763.7</ele>
        <time>2026-03-23T11:18:58Z</time>
      </trkpt>
      <trkpt lat="44.74473" lon="6.87371">
        <ele>2763.7</ele>
        <time>2026-03-23T11:18:59Z</time>
      </trkpt>
      <trkpt lat="44.74473" lon="6.87371">
        <ele>2763.7</ele>
        <time>2026-03-23T11:19:00Z</time>
      </trkpt>
      <trkpt lat="44.74474" lon="6.87372">
        <ele>2763.7</ele>
        <time>2026-03-23T11:19:01Z</time>
      </trkpt>
      <trkpt lat="44.74474" lon="6.87372">
        <ele>2763.7</ele>
        <time>2026-03-23T11:19:02Z</time>
      </trkpt>
      <trkpt lat="44.74474" lon="6.87372">
        <ele>2763.7</ele>
        <time>2026-03-23T11:19:03Z</time>
      </trkpt>
      <trkpt lat="44.74474" lon="6.87373">
        <ele>2763.7</ele>
        <time>2026-03-23T11:19:04Z</time>
      </trkpt>
      <trkpt lat="44.74474" lon="6.87373">
        <ele>2763.7</ele>
        <time>2026-03-23T11:19:05Z</time>
      </trkpt>
      <trkpt lat="44.74474" lon="6.87373">
        <ele>2763.7</ele>
        <time>2026-03-23T11:19:06Z</time>
      </trkpt>
      <trkpt lat="44.74475" lon="6.87374">
        <ele>2763.7</ele>
        <time>2026-03-23T11:19:07Z</time>
      </trkpt>
      <trkpt lat="44.74475" lon="6.87374">
        <ele>2763.8</ele>
        <time>2026-03-23T11:19:08Z</time>
      </trkpt>
      <trkpt lat="44.74475" lon="6.87374">
        <ele>2763.8</ele>
        <time>2026-03-23T11:19:09Z</time>
      </trkpt>
      <trkpt lat="44.74475" lon="6.87374">
        <ele>2764.2</ele>
        <time>2026-03-23T11:19:10Z</time>
      </trkpt>
      <trkpt lat="44.74476" lon="6.87375">
        <ele>2764.2</ele>
        <time>2026-03-23T11:19:11Z</time>
      </trkpt>
      <trkpt lat="44.74476" lon="6.87375">
        <ele>2764.2</ele>
        <time>2026-03-23T11:19:12Z</time>
      </trkpt>
      <trkpt lat="44.74476" lon="6.87375">
        <ele>2765</ele>
        <time>2026-03-23T11:19:13Z</time>
      </trkpt>
      <trkpt lat="44.74477" lon="6.87376">
        <ele>2765</ele>
        <time>2026-03-23T11:19:14Z</time>
      </trkpt>
      <trkpt lat="44.74477" lon="6.87376">
        <ele>2765</ele>
        <time>2026-03-23T11:19:15Z</time>
      </trkpt>
      <trkpt lat="44.74478" lon="6.87377">
        <ele>2765</ele>
        <time>2026-03-23T11:19:16Z</time>
      </trkpt>
      <trkpt lat="44.74478" lon="6.87377">
        <ele>2765</ele>
        <time>2026-03-23T11:19:17Z</time>
      </trkpt>
      <trkpt lat="44.74478" lon="6.87377">
        <ele>2765.4</ele>
        <time>2026-03-23T11:19:18Z</time>
      </trkpt>
      <trkpt lat="44.74479" lon="6.87377">
        <ele>2765.4</ele>
        <time>2026-03-23T11:19:19Z</time>
      </trkpt>
      <trkpt lat="44.74479" lon="6.87377">
        <ele>2765.4</ele>
        <time>2026-03-23T11:19:20Z</time>
      </trkpt>
      <trkpt lat="44.74479" lon="6.87376">
        <ele>2765.4</ele>
        <time>2026-03-23T11:19:21Z</time>
      </trkpt>
      <trkpt lat="44.74479" lon="6.87375">
        <ele>2765.4</ele>
        <time>2026-03-23T11:19:22Z</time>
      </trkpt>
      <trkpt lat="44.7448" lon="6.87375">
        <ele>2764.7</ele>
        <time>2026-03-23T11:19:23Z</time>
      </trkpt>
      <trkpt lat="44.7448" lon="6.87374">
        <ele>2764.7</ele>
        <time>2026-03-23T11:19:24Z</time>
      </trkpt>
      <trkpt lat="44.7448" lon="6.87373">
        <ele>2764.8</ele>
        <time>2026-03-23T11:19:25Z</time>
      </trkpt>
      <trkpt lat="44.74481" lon="6.87372">
        <ele>2764.8</ele>
        <time>2026-03-23T11:19:26Z</time>
      </trkpt>
      <trkpt lat="44.74481" lon="6.87372">
        <ele>2764.8</ele>
        <time>2026-03-23T11:19:27Z</time>
      </trkpt>
      <trkpt lat="44.74481" lon="6.87371">
        <ele>2764.8</ele>
        <time>2026-03-23T11:19:28Z</time>
      </trkpt>
      <trkpt lat="44.74481" lon="6.87371">
        <ele>2764.4</ele>
        <time>2026-03-23T11:19:29Z</time>
      </trkpt>
      <trkpt lat="44.74482" lon="6.8737">
        <ele>2764.4</ele>
        <time>2026-03-23T11:19:30Z</time>
      </trkpt>
      <trkpt lat="44.74482" lon="6.8737">
        <ele>2764.4</ele>
        <time>2026-03-23T11:19:31Z</time>
      </trkpt>
      <trkpt lat="44.74482" lon="6.87369">
        <ele>2764.4</ele>
        <time>2026-03-23T11:19:32Z</time>
      </trkpt>
      <trkpt lat="44.74483" lon="6.87369">
        <ele>2764.5</ele>
        <time>2026-03-23T11:19:33Z</time>
      </trkpt>
      <trkpt lat="44.74483" lon="6.87369">
        <ele>2764.5</ele>
        <time>2026-03-23T11:19:34Z</time>
      </trkpt>
      <trkpt lat="44.74483" lon="6.87368">
        <ele>2764.5</ele>
        <time>2026-03-23T11:19:35Z</time>
      </trkpt>
      <trkpt lat="44.74484" lon="6.87368">
        <ele>2764.5</ele>
        <time>2026-03-23T11:19:36Z</time>
      </trkpt>
      <trkpt lat="44.74484" lon="6.87367">
        <ele>2764.5</ele>
        <time>2026-03-23T11:19:37Z</time>
      </trkpt>
      <trkpt lat="44.74484" lon="6.87367">
        <ele>2764.5</ele>
        <time>2026-03-23T11:19:38Z</time>
      </trkpt>
      <trkpt lat="44.74485" lon="6.87367">
        <ele>2764.9</ele>
        <time>2026-03-23T11:19:39Z</time>
      </trkpt>
      <trkpt lat="44.74485" lon="6.87367">
        <ele>2764.9</ele>
        <time>2026-03-23T11:19:40Z</time>
      </trkpt>
      <trkpt lat="44.74485" lon="6.87367">
        <ele>2764.9</ele>
        <time>2026-03-23T11:19:41Z</time>
      </trkpt>
      <trkpt lat="44.74486" lon="6.87367">
        <ele>2764.9</ele>
        <time>2026-03-23T11:19:42Z</time>
      </trkpt>
      <trkpt lat="44.74486" lon="6.87367">
        <ele>2764.9</ele>
        <time>2026-03-23T11:19:43Z</time>
      </trkpt>
      <trkpt lat="44.74486" lon="6.87367">
        <ele>2764.9</ele>
        <time>2026-03-23T11:19:44Z</time>
      </trkpt>
      <trkpt lat="44.74486" lon="6.87367">
        <ele>2764.9</ele>
        <time>2026-03-23T11:19:45Z</time>
      </trkpt>
      <trkpt lat="44.74487" lon="6.87367">
        <ele>2764.9</ele>
        <time>2026-03-23T11:19:46Z</time>
      </trkpt>
      <trkpt lat="44.74487" lon="6.87367">
        <ele>2764.9</ele>
        <time>2026-03-23T11:19:47Z</time>
      </trkpt>
      <trkpt lat="44.74488" lon="6.87367">
        <ele>2765.2</ele>
        <time>2026-03-23T11:19:48Z</time>
      </trkpt>
      <trkpt lat="44.74488" lon="6.87367">
        <ele>2765.3</ele>
        <time>2026-03-23T11:19:49Z</time>
      </trkpt>
      <trkpt lat="44.74489" lon="6.87367">
        <ele>2765.3</ele>
        <time>2026-03-23T11:19:50Z</time>
      </trkpt>
      <trkpt lat="44.74489" lon="6.87367">
        <ele>2765.3</ele>
        <time>2026-03-23T11:19:51Z</time>
      </trkpt>
      <trkpt lat="44.74489" lon="6.87368">
        <ele>2765.3</ele>
        <time>2026-03-23T11:19:52Z</time>
      </trkpt>
      <trkpt lat="44.7449" lon="6.87368">
        <ele>2765.3</ele>
        <time>2026-03-23T11:19:53Z</time>
      </trkpt>
      <trkpt lat="44.7449" lon="6.87368">
        <ele>2765.3</ele>
        <time>2026-03-23T11:19:54Z</time>
      </trkpt>
      <trkpt lat="44.7449" lon="6.87368">
        <ele>2765.3</ele>
        <time>2026-03-23T11:19:55Z</time>
      </trkpt>
      <trkpt lat="44.7449" lon="6.87368">
        <ele>2765.3</ele>
        <time>2026-03-23T11:19:56Z</time>
      </trkpt>
      <trkpt lat="44.74491" lon="6.87368">
        <ele>2765.6</ele>
        <time>2026-03-23T11:19:57Z</time>
      </trkpt>
      <trkpt lat="44.74491" lon="6.87369">
        <ele>2765.6</ele>
        <time>2026-03-23T11:19:58Z</time>
      </trkpt>
      <trkpt lat="44.74491" lon="6.87369">
        <ele>2765.6</ele>
        <time>2026-03-23T11:19:59Z</time>
      </trkpt>
      <trkpt lat="44.74491" lon="6.87369">
        <ele>2765.6</ele>
        <time>2026-03-23T11:20:00Z</time>
      </trkpt>
      <trkpt lat="44.74492" lon="6.8737">
        <ele>2765.6</ele>
        <time>2026-03-23T11:20:01Z</time>
      </trkpt>
      <trkpt lat="44.74492" lon="6.87371">
        <ele>2765.6</ele>
        <time>2026-03-23T11:20:02Z</time>
      </trkpt>
      <trkpt lat="44.74493" lon="6.87371">
        <ele>2766.3</ele>
        <time>2026-03-23T11:20:03Z</time>
      </trkpt>
      <trkpt lat="44.74493" lon="6.87372">
        <ele>2766.3</ele>
        <time>2026-03-23T11:20:04Z</time>
      </trkpt>
      <trkpt lat="44.74494" lon="6.87373">
        <ele>2766.6</ele>
        <time>2026-03-23T11:20:05Z</time>
      </trkpt>
      <trkpt lat="44.74494" lon="6.87374">
        <ele>2766.6</ele>
        <time>2026-03-23T11:20:06Z</time>
      </trkpt>
      <trkpt lat="44.74495" lon="6.87375">
        <ele>2766.6</ele>
        <time>2026-03-23T11:20:07Z</time>
      </trkpt>
      <trkpt lat="44.74495" lon="6.87375">
        <ele>2767.2</ele>
        <time>2026-03-23T11:20:08Z</time>
      </trkpt>
      <trkpt lat="44.74495" lon="6.87376">
        <ele>2767.2</ele>
        <time>2026-03-23T11:20:09Z</time>
      </trkpt>
      <trkpt lat="44.74495" lon="6.87376">
        <ele>2767.2</ele>
        <time>2026-03-23T11:20:10Z</time>
      </trkpt>
      <trkpt lat="44.74496" lon="6.87377">
        <ele>2767.2</ele>
        <time>2026-03-23T11:20:11Z</time>
      </trkpt>
      <trkpt lat="44.74496" lon="6.87377">
        <ele>2767.2</ele>
        <time>2026-03-23T11:20:12Z</time>
      </trkpt>
      <trkpt lat="44.74496" lon="6.87378">
        <ele>2767.2</ele>
        <time>2026-03-23T11:20:13Z</time>
      </trkpt>
      <trkpt lat="44.74496" lon="6.87378">
        <ele>2767.2</ele>
        <time>2026-03-23T11:20:14Z</time>
      </trkpt>
      <trkpt lat="44.74496" lon="6.87378">
        <ele>2767.2</ele>
        <time>2026-03-23T11:20:15Z</time>
      </trkpt>
      <trkpt lat="44.74496" lon="6.87379">
        <ele>2767.2</ele>
        <time>2026-03-23T11:20:16Z</time>
      </trkpt>
      <trkpt lat="44.74497" lon="6.87379">
        <ele>2767.4</ele>
        <time>2026-03-23T11:20:17Z</time>
      </trkpt>
      <trkpt lat="44.74497" lon="6.8738">
        <ele>2767.9</ele>
        <time>2026-03-23T11:20:18Z</time>
      </trkpt>
      <trkpt lat="44.74498" lon="6.8738">
        <ele>2767.9</ele>
        <time>2026-03-23T11:20:19Z</time>
      </trkpt>
      <trkpt lat="44.74498" lon="6.87381">
        <ele>2768</ele>
        <time>2026-03-23T11:20:20Z</time>
      </trkpt>
      <trkpt lat="44.74498" lon="6.87381">
        <ele>2768</ele>
        <time>2026-03-23T11:20:21Z</time>
      </trkpt>
      <trkpt lat="44.74499" lon="6.87382">
        <ele>2768</ele>
        <time>2026-03-23T11:20:22Z</time>
      </trkpt>
      <trkpt lat="44.74499" lon="6.87382">
        <ele>2768</ele>
        <time>2026-03-23T11:20:23Z</time>
      </trkpt>
      <trkpt lat="44.745" lon="6.87382">
        <ele>2768</ele>
        <time>2026-03-23T11:20:24Z</time>
      </trkpt>
      <trkpt lat="44.74501" lon="6.87382">
        <ele>2768</ele>
        <time>2026-03-23T11:20:25Z</time>
      </trkpt>
      <trkpt lat="44.74501" lon="6.87383">
        <ele>2768</ele>
        <time>2026-03-23T11:20:26Z</time>
      </trkpt>
      <trkpt lat="44.74501" lon="6.87383">
        <ele>2768</ele>
        <time>2026-03-23T11:20:27Z</time>
      </trkpt>
      <trkpt lat="44.74502" lon="6.87384">
        <ele>2768.1</ele>
        <time>2026-03-23T11:20:28Z</time>
      </trkpt>
      <trkpt lat="44.74502" lon="6.87384">
        <ele>2768.5</ele>
        <time>2026-03-23T11:20:29Z</time>
      </trkpt>
      <trkpt lat="44.74502" lon="6.87385">
        <ele>2768.5</ele>
        <time>2026-03-23T11:20:30Z</time>
      </trkpt>
      <trkpt lat="44.74503" lon="6.87385">
        <ele>2768.5</ele>
        <time>2026-03-23T11:20:31Z</time>
      </trkpt>
      <trkpt lat="44.74503" lon="6.87386">
        <ele>2768.5</ele>
        <time>2026-03-23T11:20:32Z</time>
      </trkpt>
      <trkpt lat="44.74503" lon="6.87386">
        <ele>2768.5</ele>
        <time>2026-03-23T11:20:33Z</time>
      </trkpt>
      <trkpt lat="44.74503" lon="6.87387">
        <ele>2768.5</ele>
        <time>2026-03-23T11:20:34Z</time>
      </trkpt>
      <trkpt lat="44.74504" lon="6.87387">
        <ele>2768.5</ele>
        <time>2026-03-23T11:20:35Z</time>
      </trkpt>
      <trkpt lat="44.74504" lon="6.87387">
        <ele>2768.5</ele>
        <time>2026-03-23T11:20:36Z</time>
      </trkpt>
      <trkpt lat="44.74504" lon="6.87388">
        <ele>2768.5</ele>
        <time>2026-03-23T11:20:37Z</time>
      </trkpt>
      <trkpt lat="44.74504" lon="6.87388">
        <ele>2768.6</ele>
        <time>2026-03-23T11:20:38Z</time>
      </trkpt>
      <trkpt lat="44.74504" lon="6.87388">
        <ele>2768.9</ele>
        <time>2026-03-23T11:20:39Z</time>
      </trkpt>
      <trkpt lat="44.74504" lon="6.87389">
        <ele>2769</ele>
        <time>2026-03-23T11:20:40Z</time>
      </trkpt>
      <trkpt lat="44.74505" lon="6.87389">
        <ele>2769</ele>
        <time>2026-03-23T11:20:41Z</time>
      </trkpt>
      <trkpt lat="44.74505" lon="6.87389">
        <ele>2769</ele>
        <time>2026-03-23T11:20:42Z</time>
      </trkpt>
      <trkpt lat="44.74505" lon="6.8739">
        <ele>2769</ele>
        <time>2026-03-23T11:20:43Z</time>
      </trkpt>
      <trkpt lat="44.74505" lon="6.8739">
        <ele>2769</ele>
        <time>2026-03-23T11:20:44Z</time>
      </trkpt>
      <trkpt lat="44.74505" lon="6.8739">
        <ele>2769</ele>
        <time>2026-03-23T11:20:45Z</time>
      </trkpt>
      <trkpt lat="44.74506" lon="6.87391">
        <ele>2768.9</ele>
        <time>2026-03-23T11:20:46Z</time>
      </trkpt>
      <trkpt lat="44.74506" lon="6.87391">
        <ele>2768.9</ele>
        <time>2026-03-23T11:20:47Z</time>
      </trkpt>
      <trkpt lat="44.74507" lon="6.87391">
        <ele>2768.9</ele>
        <time>2026-03-23T11:20:48Z</time>
      </trkpt>
      <trkpt lat="44.74507" lon="6.87392">
        <ele>2768.9</ele>
        <time>2026-03-23T11:20:49Z</time>
      </trkpt>
      <trkpt lat="44.74507" lon="6.87392">
        <ele>2768.9</ele>
        <time>2026-03-23T11:20:50Z</time>
      </trkpt>
      <trkpt lat="44.74508" lon="6.87392">
        <ele>2769.2</ele>
        <time>2026-03-23T11:20:51Z</time>
      </trkpt>
      <trkpt lat="44.74508" lon="6.87393">
        <ele>2769.3</ele>
        <time>2026-03-23T11:20:52Z</time>
      </trkpt>
      <trkpt lat="44.74509" lon="6.87393">
        <ele>2769.3</ele>
        <time>2026-03-23T11:20:53Z</time>
      </trkpt>
      <trkpt lat="44.74509" lon="6.87393">
        <ele>2769.1</ele>
        <time>2026-03-23T11:20:54Z</time>
      </trkpt>
      <trkpt lat="44.7451" lon="6.87394">
        <ele>2769.1</ele>
        <time>2026-03-23T11:20:55Z</time>
      </trkpt>
      <trkpt lat="44.7451" lon="6.87395">
        <ele>2769.1</ele>
        <time>2026-03-23T11:20:56Z</time>
      </trkpt>
      <trkpt lat="44.74511" lon="6.87395">
        <ele>2769.1</ele>
        <time>2026-03-23T11:20:57Z</time>
      </trkpt>
      <trkpt lat="44.74512" lon="6.87396">
        <ele>2769.1</ele>
        <time>2026-03-23T11:20:58Z</time>
      </trkpt>
      <trkpt lat="44.74512" lon="6.87396">
        <ele>2768.9</ele>
        <time>2026-03-23T11:20:59Z</time>
      </trkpt>
      <trkpt lat="44.74512" lon="6.87397">
        <ele>2769.2</ele>
        <time>2026-03-23T11:21:00Z</time>
      </trkpt>
      <trkpt lat="44.74512" lon="6.87397">
        <ele>2769.2</ele>
        <time>2026-03-23T11:21:01Z</time>
      </trkpt>
      <trkpt lat="44.74512" lon="6.87398">
        <ele>2769.2</ele>
        <time>2026-03-23T11:21:02Z</time>
      </trkpt>
      <trkpt lat="44.74512" lon="6.87399">
        <ele>2769.4</ele>
        <time>2026-03-23T11:21:03Z</time>
      </trkpt>
      <trkpt lat="44.74512" lon="6.874">
        <ele>2769.2</ele>
        <time>2026-03-23T11:21:04Z</time>
      </trkpt>
      <trkpt lat="44.74512" lon="6.874">
        <ele>2769.2</ele>
        <time>2026-03-23T11:21:05Z</time>
      </trkpt>
      <trkpt lat="44.74513" lon="6.87401">
        <ele>2769.2</ele>
        <time>2026-03-23T11:21:06Z</time>
      </trkpt>
      <trkpt lat="44.74513" lon="6.87401">
        <ele>2769.5</ele>
        <time>2026-03-23T11:21:07Z</time>
      </trkpt>
      <trkpt lat="44.74513" lon="6.87402">
        <ele>2769.5</ele>
        <time>2026-03-23T11:21:08Z</time>
      </trkpt>
      <trkpt lat="44.74514" lon="6.87403">
        <ele>2769.5</ele>
        <time>2026-03-23T11:21:09Z</time>
      </trkpt>
      <trkpt lat="44.74514" lon="6.87404">
        <ele>2769.5</ele>
        <time>2026-03-23T11:21:10Z</time>
      </trkpt>
      <trkpt lat="44.74515" lon="6.87405">
        <ele>2769.5</ele>
        <time>2026-03-23T11:21:11Z</time>
      </trkpt>
      <trkpt lat="44.74515" lon="6.87405">
        <ele>2769.2</ele>
        <time>2026-03-23T11:21:12Z</time>
      </trkpt>
      <trkpt lat="44.74515" lon="6.87406">
        <ele>2769.4</ele>
        <time>2026-03-23T11:21:13Z</time>
      </trkpt>
      <trkpt lat="44.74515" lon="6.87406">
        <ele>2769.4</ele>
        <time>2026-03-23T11:21:14Z</time>
      </trkpt>
      <trkpt lat="44.74515" lon="6.87407">
        <ele>2769.7</ele>
        <time>2026-03-23T11:21:15Z</time>
      </trkpt>
      <trkpt lat="44.74515" lon="6.87408">
        <ele>2769.7</ele>
        <time>2026-03-23T11:21:16Z</time>
      </trkpt>
      <trkpt lat="44.74515" lon="6.87408">
        <ele>2769.8</ele>
        <time>2026-03-23T11:21:17Z</time>
      </trkpt>
      <trkpt lat="44.74515" lon="6.87409">
        <ele>2769.8</ele>
        <time>2026-03-23T11:21:18Z</time>
      </trkpt>
      <trkpt lat="44.74515" lon="6.8741">
        <ele>2770</ele>
        <time>2026-03-23T11:21:19Z</time>
      </trkpt>
      <trkpt lat="44.74515" lon="6.8741">
        <ele>2770</ele>
        <time>2026-03-23T11:21:20Z</time>
      </trkpt>
      <trkpt lat="44.74515" lon="6.87411">
        <ele>2769.7</ele>
        <time>2026-03-23T11:21:21Z</time>
      </trkpt>
      <trkpt lat="44.74516" lon="6.87412">
        <ele>2769.7</ele>
        <time>2026-03-23T11:21:22Z</time>
      </trkpt>
      <trkpt lat="44.74515" lon="6.87413">
        <ele>2769.7</ele>
        <time>2026-03-23T11:21:23Z</time>
      </trkpt>
      <trkpt lat="44.74515" lon="6.87413">
        <ele>2770</ele>
        <time>2026-03-23T11:21:24Z</time>
      </trkpt>
      <trkpt lat="44.74514" lon="6.87414">
        <ele>2770.2</ele>
        <time>2026-03-23T11:21:25Z</time>
      </trkpt>
      <trkpt lat="44.74514" lon="6.87415">
        <ele>2770.2</ele>
        <time>2026-03-23T11:21:26Z</time>
      </trkpt>
      <trkpt lat="44.74514" lon="6.87416">
        <ele>2770.2</ele>
        <time>2026-03-23T11:21:27Z</time>
      </trkpt>
      <trkpt lat="44.74513" lon="6.87416">
        <ele>2770.2</ele>
        <time>2026-03-23T11:21:28Z</time>
      </trkpt>
      <trkpt lat="44.74513" lon="6.87417">
        <ele>2770.3</ele>
        <time>2026-03-23T11:21:29Z</time>
      </trkpt>
      <trkpt lat="44.74513" lon="6.87418">
        <ele>2770.3</ele>
        <time>2026-03-23T11:21:30Z</time>
      </trkpt>
      <trkpt lat="44.74513" lon="6.87418">
        <ele>2770.5</ele>
        <time>2026-03-23T11:21:31Z</time>
      </trkpt>
      <trkpt lat="44.74513" lon="6.87419">
        <ele>2770.5</ele>
        <time>2026-03-23T11:21:32Z</time>
      </trkpt>
      <trkpt lat="44.74514" lon="6.8742">
        <ele>2770.5</ele>
        <time>2026-03-23T11:21:33Z</time>
      </trkpt>
      <trkpt lat="44.74514" lon="6.8742">
        <ele>2770.5</ele>
        <time>2026-03-23T11:21:34Z</time>
      </trkpt>
      <trkpt lat="44.74515" lon="6.87421">
        <ele>2770.5</ele>
        <time>2026-03-23T11:21:35Z</time>
      </trkpt>
      <trkpt lat="44.74515" lon="6.87421">
        <ele>2770.2</ele>
        <time>2026-03-23T11:21:36Z</time>
      </trkpt>
      <trkpt lat="44.74515" lon="6.87422">
        <ele>2770.2</ele>
        <time>2026-03-23T11:21:37Z</time>
      </trkpt>
      <trkpt lat="44.74515" lon="6.87422">
        <ele>2770.4</ele>
        <time>2026-03-23T11:21:38Z</time>
      </trkpt>
      <trkpt lat="44.74515" lon="6.87423">
        <ele>2770.4</ele>
        <time>2026-03-23T11:21:39Z</time>
      </trkpt>
      <trkpt lat="44.74515" lon="6.87423">
        <ele>2770.4</ele>
        <time>2026-03-23T11:21:40Z</time>
      </trkpt>
      <trkpt lat="44.74516" lon="6.87424">
        <ele>2770.4</ele>
        <time>2026-03-23T11:21:41Z</time>
      </trkpt>
      <trkpt lat="44.74516" lon="6.87424">
        <ele>2770.4</ele>
        <time>2026-03-23T11:21:42Z</time>
      </trkpt>
      <trkpt lat="44.74517" lon="6.87425">
        <ele>2770.4</ele>
        <time>2026-03-23T11:21:43Z</time>
      </trkpt>
      <trkpt lat="44.74517" lon="6.87426">
        <ele>2770.4</ele>
        <time>2026-03-23T11:21:44Z</time>
      </trkpt>
      <trkpt lat="44.74517" lon="6.87426">
        <ele>2770.4</ele>
        <time>2026-03-23T11:21:45Z</time>
      </trkpt>
      <trkpt lat="44.74518" lon="6.87426">
        <ele>2770</ele>
        <time>2026-03-23T11:21:46Z</time>
      </trkpt>
      <trkpt lat="44.74519" lon="6.87426">
        <ele>2770</ele>
        <time>2026-03-23T11:21:47Z</time>
      </trkpt>
      <trkpt lat="44.74519" lon="6.87426">
        <ele>2770</ele>
        <time>2026-03-23T11:21:48Z</time>
      </trkpt>
      <trkpt lat="44.74519" lon="6.87426">
        <ele>2770</ele>
        <time>2026-03-23T11:21:49Z</time>
      </trkpt>
      <trkpt lat="44.7452" lon="6.87426">
        <ele>2770</ele>
        <time>2026-03-23T11:21:50Z</time>
      </trkpt>
      <trkpt lat="44.7452" lon="6.87426">
        <ele>2770</ele>
        <time>2026-03-23T11:21:51Z</time>
      </trkpt>
      <trkpt lat="44.7452" lon="6.87426">
        <ele>2770.1</ele>
        <time>2026-03-23T11:21:52Z</time>
      </trkpt>
      <trkpt lat="44.74521" lon="6.87426">
        <ele>2770.1</ele>
        <time>2026-03-23T11:21:53Z</time>
      </trkpt>
      <trkpt lat="44.74521" lon="6.87425">
        <ele>2769.6</ele>
        <time>2026-03-23T11:21:54Z</time>
      </trkpt>
      <trkpt lat="44.74521" lon="6.87424">
        <ele>2769.6</ele>
        <time>2026-03-23T11:21:55Z</time>
      </trkpt>
      <trkpt lat="44.74521" lon="6.87423">
        <ele>2769.6</ele>
        <time>2026-03-23T11:21:56Z</time>
      </trkpt>
      <trkpt lat="44.74522" lon="6.87422">
        <ele>2769.6</ele>
        <time>2026-03-23T11:21:57Z</time>
      </trkpt>
      <trkpt lat="44.74522" lon="6.87422">
        <ele>2769.4</ele>
        <time>2026-03-23T11:21:58Z</time>
      </trkpt>
      <trkpt lat="44.74522" lon="6.87421">
        <ele>2769.4</ele>
        <time>2026-03-23T11:21:59Z</time>
      </trkpt>
      <trkpt lat="44.74522" lon="6.8742">
        <ele>2769.4</ele>
        <time>2026-03-23T11:22:00Z</time>
      </trkpt>
      <trkpt lat="44.74523" lon="6.87418">
        <ele>2769.5</ele>
        <time>2026-03-23T11:22:01Z</time>
      </trkpt>
      <trkpt lat="44.74523" lon="6.87418">
        <ele>2769.3</ele>
        <time>2026-03-23T11:22:02Z</time>
      </trkpt>
      <trkpt lat="44.74523" lon="6.87417">
        <ele>2769.3</ele>
        <time>2026-03-23T11:22:03Z</time>
      </trkpt>
      <trkpt lat="44.74523" lon="6.87416">
        <ele>2769.3</ele>
        <time>2026-03-23T11:22:04Z</time>
      </trkpt>
      <trkpt lat="44.74524" lon="6.87415">
        <ele>2769.3</ele>
        <time>2026-03-23T11:22:05Z</time>
      </trkpt>
      <trkpt lat="44.74524" lon="6.87414">
        <ele>2769.3</ele>
        <time>2026-03-23T11:22:06Z</time>
      </trkpt>
      <trkpt lat="44.74524" lon="6.87414">
        <ele>2769.1</ele>
        <time>2026-03-23T11:22:07Z</time>
      </trkpt>
      <trkpt lat="44.74524" lon="6.87413">
        <ele>2768.6</ele>
        <time>2026-03-23T11:22:08Z</time>
      </trkpt>
      <trkpt lat="44.74525" lon="6.87413">
        <ele>2768.6</ele>
        <time>2026-03-23T11:22:09Z</time>
      </trkpt>
      <trkpt lat="44.74525" lon="6.87412">
        <ele>2768.6</ele>
        <time>2026-03-23T11:22:10Z</time>
      </trkpt>
      <trkpt lat="44.74525" lon="6.87412">
        <ele>2768.6</ele>
        <time>2026-03-23T11:22:11Z</time>
      </trkpt>
      <trkpt lat="44.74525" lon="6.87411">
        <ele>2768.6</ele>
        <time>2026-03-23T11:22:12Z</time>
      </trkpt>
      <trkpt lat="44.74525" lon="6.8741">
        <ele>2768.6</ele>
        <time>2026-03-23T11:22:13Z</time>
      </trkpt>
      <trkpt lat="44.74525" lon="6.8741">
        <ele>2768.7</ele>
        <time>2026-03-23T11:22:14Z</time>
      </trkpt>
      <trkpt lat="44.74526" lon="6.87409">
        <ele>2768.5</ele>
        <time>2026-03-23T11:22:15Z</time>
      </trkpt>
      <trkpt lat="44.74526" lon="6.87409">
        <ele>2768.5</ele>
        <time>2026-03-23T11:22:16Z</time>
      </trkpt>
      <trkpt lat="44.74526" lon="6.87408">
        <ele>2768.5</ele>
        <time>2026-03-23T11:22:17Z</time>
      </trkpt>
      <trkpt lat="44.74526" lon="6.87408">
        <ele>2768.5</ele>
        <time>2026-03-23T11:22:18Z</time>
      </trkpt>
      <trkpt lat="44.74526" lon="6.87407">
        <ele>2768.5</ele>
        <time>2026-03-23T11:22:19Z</time>
      </trkpt>
      <trkpt lat="44.74526" lon="6.87406">
        <ele>2768.5</ele>
        <time>2026-03-23T11:22:20Z</time>
      </trkpt>
      <trkpt lat="44.74526" lon="6.87405">
        <ele>2768.5</ele>
        <time>2026-03-23T11:22:21Z</time>
      </trkpt>
      <trkpt lat="44.74526" lon="6.87405">
        <ele>2768.4</ele>
        <time>2026-03-23T11:22:22Z</time>
      </trkpt>
      <trkpt lat="44.74526" lon="6.87403">
        <ele>2768.4</ele>
        <time>2026-03-23T11:22:23Z</time>
      </trkpt>
      <trkpt lat="44.74526" lon="6.87402">
        <ele>2768.4</ele>
        <time>2026-03-23T11:22:24Z</time>
      </trkpt>
      <trkpt lat="44.74527" lon="6.87402">
        <ele>2768.4</ele>
        <time>2026-03-23T11:22:25Z</time>
      </trkpt>
      <trkpt lat="44.74527" lon="6.87401">
        <ele>2768.2</ele>
        <time>2026-03-23T11:22:26Z</time>
      </trkpt>
      <trkpt lat="44.74525" lon="6.87401">
        <ele>2768.4</ele>
        <time>2026-03-23T11:22:27Z</time>
      </trkpt>
      <trkpt lat="44.74524" lon="6.87404">
        <ele>2768.9</ele>
        <time>2026-03-23T11:22:28Z</time>
      </trkpt>
      <trkpt lat="44.74524" lon="6.87405">
        <ele>2768.4</ele>
        <time>2026-03-23T11:22:29Z</time>
      </trkpt>
      <trkpt lat="44.74525" lon="6.87406">
        <ele>2768.6</ele>
        <time>2026-03-23T11:22:30Z</time>
      </trkpt>
      <trkpt lat="44.74525" lon="6.87406">
        <ele>2768.6</ele>
        <time>2026-03-23T11:22:31Z</time>
      </trkpt>
      <trkpt lat="44.74526" lon="6.87406">
        <ele>2768.6</ele>
        <time>2026-03-23T11:22:32Z</time>
      </trkpt>
      <trkpt lat="44.74526" lon="6.87407">
        <ele>2768.6</ele>
        <time>2026-03-23T11:22:33Z</time>
      </trkpt>
      <trkpt lat="44.74528" lon="6.87406">
        <ele>2768</ele>
        <time>2026-03-23T11:22:34Z</time>
      </trkpt>
      <trkpt lat="44.74528" lon="6.87405">
        <ele>2767.9</ele>
        <time>2026-03-23T11:22:35Z</time>
      </trkpt>
      <trkpt lat="44.74528" lon="6.87404">
        <ele>2767.9</ele>
        <time>2026-03-23T11:22:36Z</time>
      </trkpt>
      <trkpt lat="44.74528" lon="6.87402">
        <ele>2767.9</ele>
        <time>2026-03-23T11:22:37Z</time>
      </trkpt>
      <trkpt lat="44.74528" lon="6.87401">
        <ele>2767.7</ele>
        <time>2026-03-23T11:22:38Z</time>
      </trkpt>
      <trkpt lat="44.74528" lon="6.874">
        <ele>2767.7</ele>
        <time>2026-03-23T11:22:39Z</time>
      </trkpt>
      <trkpt lat="44.74528" lon="6.87399">
        <ele>2767.7</ele>
        <time>2026-03-23T11:22:40Z</time>
      </trkpt>
      <trkpt lat="44.74528" lon="6.87398">
        <ele>2767.7</ele>
        <time>2026-03-23T11:22:41Z</time>
      </trkpt>
      <trkpt lat="44.74528" lon="6.87397">
        <ele>2767.7</ele>
        <time>2026-03-23T11:22:42Z</time>
      </trkpt>
      <trkpt lat="44.74529" lon="6.87396">
        <ele>2767.6</ele>
        <time>2026-03-23T11:22:43Z</time>
      </trkpt>
      <trkpt lat="44.74529" lon="6.87395">
        <ele>2767.6</ele>
        <time>2026-03-23T11:22:44Z</time>
      </trkpt>
      <trkpt lat="44.74529" lon="6.87394">
        <ele>2767.6</ele>
        <time>2026-03-23T11:22:45Z</time>
      </trkpt>
      <trkpt lat="44.74529" lon="6.87394">
        <ele>2767.6</ele>
        <time>2026-03-23T11:22:46Z</time>
      </trkpt>
      <trkpt lat="44.7453" lon="6.87393">
        <ele>2767.6</ele>
        <time>2026-03-23T11:22:47Z</time>
      </trkpt>
      <trkpt lat="44.7453" lon="6.87392">
        <ele>2767.6</ele>
        <time>2026-03-23T11:22:48Z</time>
      </trkpt>
      <trkpt lat="44.7453" lon="6.87392">
        <ele>2767</ele>
        <time>2026-03-23T11:22:49Z</time>
      </trkpt>
      <trkpt lat="44.74531" lon="6.87393">
        <ele>2767</ele>
        <time>2026-03-23T11:22:50Z</time>
      </trkpt>
      <trkpt lat="44.74531" lon="6.87393">
        <ele>2767</ele>
        <time>2026-03-23T11:22:51Z</time>
      </trkpt>
      <trkpt lat="44.74531" lon="6.87394">
        <ele>2767.1</ele>
        <time>2026-03-23T11:22:52Z</time>
      </trkpt>
      <trkpt lat="44.74531" lon="6.87394">
        <ele>2767.1</ele>
        <time>2026-03-23T11:22:53Z</time>
      </trkpt>
      <trkpt lat="44.74531" lon="6.87395">
        <ele>2767.1</ele>
        <time>2026-03-23T11:22:54Z</time>
      </trkpt>
      <trkpt lat="44.74533" lon="6.87394">
        <ele>2767.1</ele>
        <time>2026-03-23T11:22:55Z</time>
      </trkpt>
      <trkpt lat="44.74533" lon="6.87393">
        <ele>2766.5</ele>
        <time>2026-03-23T11:22:56Z</time>
      </trkpt>
      <trkpt lat="44.74534" lon="6.87395">
        <ele>2766.5</ele>
        <time>2026-03-23T11:22:57Z</time>
      </trkpt>
      <trkpt lat="44.74534" lon="6.87396">
        <ele>2766.5</ele>
        <time>2026-03-23T11:22:58Z</time>
      </trkpt>
      <trkpt lat="44.74534" lon="6.87396">
        <ele>2766.5</ele>
        <time>2026-03-23T11:22:59Z</time>
      </trkpt>
      <trkpt lat="44.74534" lon="6.87396">
        <ele>2766.5</ele>
        <time>2026-03-23T11:23:00Z</time>
      </trkpt>
      <trkpt lat="44.74534" lon="6.87396">
        <ele>2766.5</ele>
        <time>2026-03-23T11:23:01Z</time>
      </trkpt>
      <trkpt lat="44.74534" lon="6.87397">
        <ele>2766.6</ele>
        <time>2026-03-23T11:23:02Z</time>
      </trkpt>
      <trkpt lat="44.74534" lon="6.87397">
        <ele>2766.6</ele>
        <time>2026-03-23T11:23:03Z</time>
      </trkpt>
      <trkpt lat="44.74535" lon="6.87398">
        <ele>2766.6</ele>
        <time>2026-03-23T11:23:04Z</time>
      </trkpt>
      <trkpt lat="44.74535" lon="6.87399">
        <ele>2766.6</ele>
        <time>2026-03-23T11:23:05Z</time>
      </trkpt>
      <trkpt lat="44.74535" lon="6.87399">
        <ele>2766.6</ele>
        <time>2026-03-23T11:23:06Z</time>
      </trkpt>
      <trkpt lat="44.74535" lon="6.874">
        <ele>2766.6</ele>
        <time>2026-03-23T11:23:07Z</time>
      </trkpt>
      <trkpt lat="44.74536" lon="6.874">
        <ele>2766.6</ele>
        <time>2026-03-23T11:23:08Z</time>
      </trkpt>
      <trkpt lat="44.74536" lon="6.87401">
        <ele>2766.6</ele>
        <time>2026-03-23T11:23:09Z</time>
      </trkpt>
      <trkpt lat="44.74536" lon="6.87402">
        <ele>2766.6</ele>
        <time>2026-03-23T11:23:10Z</time>
      </trkpt>
      <trkpt lat="44.74536" lon="6.87402">
        <ele>2766.6</ele>
        <time>2026-03-23T11:23:11Z</time>
      </trkpt>
      <trkpt lat="44.74537" lon="6.87403">
        <ele>2766.6</ele>
        <time>2026-03-23T11:23:12Z</time>
      </trkpt>
      <trkpt lat="44.74537" lon="6.87404">
        <ele>2766.7</ele>
        <time>2026-03-23T11:23:13Z</time>
      </trkpt>
      <trkpt lat="44.74537" lon="6.87404">
        <ele>2766.7</ele>
        <time>2026-03-23T11:23:14Z</time>
      </trkpt>
      <trkpt lat="44.74537" lon="6.87405">
        <ele>2766.7</ele>
        <time>2026-03-23T11:23:15Z</time>
      </trkpt>
      <trkpt lat="44.74537" lon="6.87405">
        <ele>2766.7</ele>
        <time>2026-03-23T11:23:16Z</time>
      </trkpt>
      <trkpt lat="44.74537" lon="6.87406">
        <ele>2766.7</ele>
        <time>2026-03-23T11:23:17Z</time>
      </trkpt>
      <trkpt lat="44.74537" lon="6.87406">
        <ele>2766.7</ele>
        <time>2026-03-23T11:23:18Z</time>
      </trkpt>
      <trkpt lat="44.74537" lon="6.87407">
        <ele>2766.7</ele>
        <time>2026-03-23T11:23:19Z</time>
      </trkpt>
      <trkpt lat="44.74537" lon="6.87408">
        <ele>2766.7</ele>
        <time>2026-03-23T11:23:20Z</time>
      </trkpt>
      <trkpt lat="44.74537" lon="6.87409">
        <ele>2766.7</ele>
        <time>2026-03-23T11:23:21Z</time>
      </trkpt>
      <trkpt lat="44.74537" lon="6.8741">
        <ele>2766.7</ele>
        <time>2026-03-23T11:23:22Z</time>
      </trkpt>
      <trkpt lat="44.74537" lon="6.8741">
        <ele>2766.8</ele>
        <time>2026-03-23T11:23:23Z</time>
      </trkpt>
      <trkpt lat="44.74538" lon="6.87411">
        <ele>2766.8</ele>
        <time>2026-03-23T11:23:24Z</time>
      </trkpt>
      <trkpt lat="44.74538" lon="6.87412">
        <ele>2766.8</ele>
        <time>2026-03-23T11:23:25Z</time>
      </trkpt>
      <trkpt lat="44.74538" lon="6.87413">
        <ele>2766.8</ele>
        <time>2026-03-23T11:23:26Z</time>
      </trkpt>
      <trkpt lat="44.74539" lon="6.87413">
        <ele>2766.8</ele>
        <time>2026-03-23T11:23:27Z</time>
      </trkpt>
      <trkpt lat="44.74539" lon="6.87413">
        <ele>2766.8</ele>
        <time>2026-03-23T11:23:28Z</time>
      </trkpt>
      <trkpt lat="44.74539" lon="6.87413">
        <ele>2766.8</ele>
        <time>2026-03-23T11:23:29Z</time>
      </trkpt>
      <trkpt lat="44.7454" lon="6.87414">
        <ele>2766.8</ele>
        <time>2026-03-23T11:23:30Z</time>
      </trkpt>
      <trkpt lat="44.7454" lon="6.87414">
        <ele>2766.8</ele>
        <time>2026-03-23T11:23:31Z</time>
      </trkpt>
      <trkpt lat="44.7454" lon="6.87415">
        <ele>2766.8</ele>
        <time>2026-03-23T11:23:32Z</time>
      </trkpt>
      <trkpt lat="44.74541" lon="6.87414">
        <ele>2766.8</ele>
        <time>2026-03-23T11:23:33Z</time>
      </trkpt>
      <trkpt lat="44.74541" lon="6.87415">
        <ele>2766.8</ele>
        <time>2026-03-23T11:23:34Z</time>
      </trkpt>
      <trkpt lat="44.74541" lon="6.87415">
        <ele>2766.9</ele>
        <time>2026-03-23T11:23:35Z</time>
      </trkpt>
      <trkpt lat="44.74541" lon="6.87416">
        <ele>2766.9</ele>
        <time>2026-03-23T11:23:36Z</time>
      </trkpt>
      <trkpt lat="44.74542" lon="6.87416">
        <ele>2766.9</ele>
        <time>2026-03-23T11:23:37Z</time>
      </trkpt>
      <trkpt lat="44.74543" lon="6.87416">
        <ele>2766.9</ele>
        <time>2026-03-23T11:23:38Z</time>
      </trkpt>
      <trkpt lat="44.74543" lon="6.87417">
        <ele>2766.9</ele>
        <time>2026-03-23T11:23:39Z</time>
      </trkpt>
      <trkpt lat="44.74543" lon="6.87417">
        <ele>2766.9</ele>
        <time>2026-03-23T11:23:40Z</time>
      </trkpt>
      <trkpt lat="44.74543" lon="6.87418">
        <ele>2766.9</ele>
        <time>2026-03-23T11:23:41Z</time>
      </trkpt>
      <trkpt lat="44.74543" lon="6.87418">
        <ele>2766.9</ele>
        <time>2026-03-23T11:23:42Z</time>
      </trkpt>
      <trkpt lat="44.74543" lon="6.87419">
        <ele>2766.9</ele>
        <time>2026-03-23T11:23:43Z</time>
      </trkpt>
      <trkpt lat="44.74543" lon="6.8742">
        <ele>2766.9</ele>
        <time>2026-03-23T11:23:44Z</time>
      </trkpt>
      <trkpt lat="44.74543" lon="6.8742">
        <ele>2767</ele>
        <time>2026-03-23T11:23:45Z</time>
      </trkpt>
      <trkpt lat="44.74543" lon="6.87421">
        <ele>2767</ele>
        <time>2026-03-23T11:23:46Z</time>
      </trkpt>
      <trkpt lat="44.74543" lon="6.87421">
        <ele>2767</ele>
        <time>2026-03-23T11:23:47Z</time>
      </trkpt>
      <trkpt lat="44.74543" lon="6.87421">
        <ele>2767</ele>
        <time>2026-03-23T11:23:48Z</time>
      </trkpt>
      <trkpt lat="44.74543" lon="6.87421">
        <ele>2767</ele>
        <time>2026-03-23T11:23:49Z</time>
      </trkpt>
      <trkpt lat="44.74543" lon="6.87421">
        <ele>2767</ele>
        <time>2026-03-23T11:23:50Z</time>
      </trkpt>
      <trkpt lat="44.74543" lon="6.87421">
        <ele>2767</ele>
        <time>2026-03-23T11:23:51Z</time>
      </trkpt>
      <trkpt lat="44.74543" lon="6.87421">
        <ele>2767</ele>
        <time>2026-03-23T11:23:52Z</time>
      </trkpt>
      <trkpt lat="44.74543" lon="6.87421">
        <ele>2767</ele>
        <time>2026-03-23T11:23:53Z</time>
      </trkpt>
      <trkpt lat="44.74543" lon="6.87421">
        <ele>2767</ele>
        <time>2026-03-23T11:23:54Z</time>
      </trkpt>
      <trkpt lat="44.74543" lon="6.87421">
        <ele>2767</ele>
        <time>2026-03-23T11:23:55Z</time>
      </trkpt>
      <trkpt lat="44.74544" lon="6.87422">
        <ele>2767</ele>
        <time>2026-03-23T11:23:56Z</time>
      </trkpt>
      <trkpt lat="44.74544" lon="6.87422">
        <ele>2767</ele>
        <time>2026-03-23T11:23:57Z</time>
      </trkpt>
      <trkpt lat="44.74544" lon="6.87423">
        <ele>2767</ele>
        <time>2026-03-23T11:23:58Z</time>
      </trkpt>
      <trkpt lat="44.74543" lon="6.87423">
        <ele>2767</ele>
        <time>2026-03-23T11:23:59Z</time>
      </trkpt>
      <trkpt lat="44.74543" lon="6.87423">
        <ele>2767</ele>
        <time>2026-03-23T11:24:00Z</time>
      </trkpt>
      <trkpt lat="44.74543" lon="6.87423">
        <ele>2767</ele>
        <time>2026-03-23T11:24:01Z</time>
      </trkpt>
      <trkpt lat="44.74543" lon="6.87423">
        <ele>2767</ele>
        <time>2026-03-23T11:24:02Z</time>
      </trkpt>
      <trkpt lat="44.74543" lon="6.87423">
        <ele>2767</ele>
        <time>2026-03-23T11:24:03Z</time>
      </trkpt>
      <trkpt lat="44.74543" lon="6.87423">
        <ele>2767</ele>
        <time>2026-03-23T11:24:04Z</time>
      </trkpt>
      <trkpt lat="44.74543" lon="6.87423">
        <ele>2767</ele>
        <time>2026-03-23T11:24:05Z</time>
      </trkpt>
      <trkpt lat="44.74543" lon="6.87423">
        <ele>2767</ele>
        <time>2026-03-23T11:24:06Z</time>
      </trkpt>
      <trkpt lat="44.74543" lon="6.87423">
        <ele>2767</ele>
        <time>2026-03-23T11:24:07Z</time>
      </trkpt>
      <trkpt lat="44.74543" lon="6.87423">
        <ele>2767</ele>
        <time>2026-03-23T11:24:08Z</time>
      </trkpt>
      <trkpt lat="44.74543" lon="6.87423">
        <ele>2767</ele>
        <time>2026-03-23T11:24:09Z</time>
      </trkpt>
      <trkpt lat="44.74543" lon="6.87423">
        <ele>2767</ele>
        <time>2026-03-23T11:24:10Z</time>
      </trkpt>
      <trkpt lat="44.74543" lon="6.87423">
        <ele>2767</ele>
        <time>2026-03-23T11:24:11Z</time>
      </trkpt>
      <trkpt lat="44.74543" lon="6.87423">
        <ele>2767</ele>
        <time>2026-03-23T11:24:12Z</time>
      </trkpt>
      <trkpt lat="44.74543" lon="6.87423">
        <ele>2767</ele>
        <time>2026-03-23T11:24:13Z</time>
      </trkpt>
      <trkpt lat="44.74543" lon="6.87423">
        <ele>2767</ele>
        <time>2026-03-23T11:24:14Z</time>
      </trkpt>
      <trkpt lat="44.74543" lon="6.87423">
        <ele>2767</ele>
        <time>2026-03-23T11:24:15Z</time>
      </trkpt>
      <trkpt lat="44.74543" lon="6.87423">
        <ele>2767</ele>
        <time>2026-03-23T11:24:16Z</time>
      </trkpt>
      <trkpt lat="44.74543" lon="6.87423">
        <ele>2767</ele>
        <time>2026-03-23T11:24:17Z</time>
      </trkpt>
      <trkpt lat="44.74543" lon="6.87423">
        <ele>2767</ele>
        <time>2026-03-23T11:24:18Z</time>
      </trkpt>
      <trkpt lat="44.74543" lon="6.87423">
        <ele>2767</ele>
        <time>2026-03-23T11:24:19Z</time>
      </trkpt>
      <trkpt lat="44.74543" lon="6.87423">
        <ele>2767</ele>
        <time>2026-03-23T11:24:20Z</time>
      </trkpt>
      <trkpt lat="44.74543" lon="6.87423">
        <ele>2767</ele>
        <time>2026-03-23T11:24:21Z</time>
      </trkpt>
      <trkpt lat="44.74543" lon="6.87423">
        <ele>2767</ele>
        <time>2026-03-23T11:24:22Z</time>
      </trkpt>
      <trkpt lat="44.74543" lon="6.87423">
        <ele>2767</ele>
        <time>2026-03-23T11:24:23Z</time>
      </trkpt>
      <trkpt lat="44.74543" lon="6.87423">
        <ele>2767</ele>
        <time>2026-03-23T11:24:24Z</time>
      </trkpt>
      <trkpt lat="44.74543" lon="6.87423">
        <ele>2767</ele>
        <time>2026-03-23T11:24:25Z</time>
      </trkpt>
      <trkpt lat="44.74543" lon="6.87423">
        <ele>2767</ele>
        <time>2026-03-23T11:24:26Z</time>
      </trkpt>
      <trkpt lat="44.74543" lon="6.87423">
        <ele>2767</ele>
        <time>2026-03-23T11:24:27Z</time>
      </trkpt>
      <trkpt lat="44.74543" lon="6.87423">
        <ele>2767</ele>
        <time>2026-03-23T11:24:28Z</time>
      </trkpt>
      <trkpt lat="44.74543" lon="6.87423">
        <ele>2767</ele>
        <time>2026-03-23T11:24:29Z</time>
      </trkpt>
      <trkpt lat="44.74543" lon="6.87423">
        <ele>2767</ele>
        <time>2026-03-23T11:24:30Z</time>
      </trkpt>
      <trkpt lat="44.74543" lon="6.87423">
        <ele>2767</ele>
        <time>2026-03-23T11:24:31Z</time>
      </trkpt>
      <trkpt lat="44.74543" lon="6.87424">
        <ele>2767</ele>
        <time>2026-03-23T11:24:32Z</time>
      </trkpt>
      <trkpt lat="44.74543" lon="6.87424">
        <ele>2767</ele>
        <time>2026-03-23T11:24:33Z</time>
      </trkpt>
      <trkpt lat="44.74543" lon="6.87424">
        <ele>2767</ele>
        <time>2026-03-23T11:24:34Z</time>
      </trkpt>
      <trkpt lat="44.74543" lon="6.87424">
        <ele>2767</ele>
        <time>2026-03-23T11:24:35Z</time>
      </trkpt>
      <trkpt lat="44.74543" lon="6.87424">
        <ele>2767</ele>
        <time>2026-03-23T11:24:36Z</time>
      </trkpt>
      <trkpt lat="44.74543" lon="6.87424">
        <ele>2767</ele>
        <time>2026-03-23T11:24:37Z</time>
      </trkpt>
      <trkpt lat="44.74543" lon="6.87424">
        <ele>2767</ele>
        <time>2026-03-23T11:24:38Z</time>
      </trkpt>
      <trkpt lat="44.74543" lon="6.87424">
        <ele>2767</ele>
        <time>2026-03-23T11:24:39Z</time>
      </trkpt>
      <trkpt lat="44.74544" lon="6.87424">
        <ele>2767</ele>
        <time>2026-03-23T11:24:40Z</time>
      </trkpt>
      <trkpt lat="44.74544" lon="6.87424">
        <ele>2767</ele>
        <time>2026-03-23T11:24:41Z</time>
      </trkpt>
      <trkpt lat="44.74545" lon="6.87425">
        <ele>2767.1</ele>
        <time>2026-03-23T11:24:42Z</time>
      </trkpt>
      <trkpt lat="44.74545" lon="6.87425">
        <ele>2767.1</ele>
        <time>2026-03-23T11:24:43Z</time>
      </trkpt>
      <trkpt lat="44.74546" lon="6.87426">
        <ele>2767.1</ele>
        <time>2026-03-23T11:24:44Z</time>
      </trkpt>
      <trkpt lat="44.74546" lon="6.87426">
        <ele>2767.1</ele>
        <time>2026-03-23T11:24:45Z</time>
      </trkpt>
      <trkpt lat="44.74546" lon="6.87427">
        <ele>2767.1</ele>
        <time>2026-03-23T11:24:46Z</time>
      </trkpt>
      <trkpt lat="44.74546" lon="6.87427">
        <ele>2767.1</ele>
        <time>2026-03-23T11:24:47Z</time>
      </trkpt>
      <trkpt lat="44.74546" lon="6.87427">
        <ele>2767.1</ele>
        <time>2026-03-23T11:24:48Z</time>
      </trkpt>
      <trkpt lat="44.74546" lon="6.87428">
        <ele>2767.1</ele>
        <time>2026-03-23T11:24:49Z</time>
      </trkpt>
      <trkpt lat="44.74545" lon="6.87428">
        <ele>2767.1</ele>
        <time>2026-03-23T11:24:50Z</time>
      </trkpt>
      <trkpt lat="44.74545" lon="6.87428">
        <ele>2767.1</ele>
        <time>2026-03-23T11:24:51Z</time>
      </trkpt>
      <trkpt lat="44.74545" lon="6.87428">
        <ele>2767.1</ele>
        <time>2026-03-23T11:24:52Z</time>
      </trkpt>
      <trkpt lat="44.74545" lon="6.87428">
        <ele>2767.1</ele>
        <time>2026-03-23T11:24:53Z</time>
      </trkpt>
      <trkpt lat="44.74545" lon="6.87428">
        <ele>2767.1</ele>
        <time>2026-03-23T11:24:54Z</time>
      </trkpt>
      <trkpt lat="44.74545" lon="6.87428">
        <ele>2767.1</ele>
        <time>2026-03-23T11:24:55Z</time>
      </trkpt>
      <trkpt lat="44.74545" lon="6.87428">
        <ele>2767.1</ele>
        <time>2026-03-23T11:24:56Z</time>
      </trkpt>
      <trkpt lat="44.74545" lon="6.87428">
        <ele>2767.1</ele>
        <time>2026-03-23T11:24:57Z</time>
      </trkpt>
      <trkpt lat="44.74545" lon="6.87428">
        <ele>2767.1</ele>
        <time>2026-03-23T11:24:58Z</time>
      </trkpt>
      <trkpt lat="44.74545" lon="6.87428">
        <ele>2767.1</ele>
        <time>2026-03-23T11:24:59Z</time>
      </trkpt>
      <trkpt lat="44.74545" lon="6.87427">
        <ele>2767.1</ele>
        <time>2026-03-23T11:25:00Z</time>
      </trkpt>
      <trkpt lat="44.74544" lon="6.87427">
        <ele>2767.1</ele>
        <time>2026-03-23T11:25:01Z</time>
      </trkpt>
      <trkpt lat="44.74544" lon="6.87427">
        <ele>2767.1</ele>
        <time>2026-03-23T11:25:02Z</time>
      </trkpt>
      <trkpt lat="44.74543" lon="6.87426">
        <ele>2767.1</ele>
        <time>2026-03-23T11:25:03Z</time>
      </trkpt>
      <trkpt lat="44.74543" lon="6.87426">
        <ele>2767.1</ele>
        <time>2026-03-23T11:25:04Z</time>
      </trkpt>
      <trkpt lat="44.74543" lon="6.87426">
        <ele>2767.1</ele>
        <time>2026-03-23T11:25:05Z</time>
      </trkpt>
      <trkpt lat="44.74543" lon="6.87426">
        <ele>2767.1</ele>
        <time>2026-03-23T11:25:06Z</time>
      </trkpt>
      <trkpt lat="44.74543" lon="6.87426">
        <ele>2767.1</ele>
        <time>2026-03-23T11:25:07Z</time>
      </trkpt>
      <trkpt lat="44.74543" lon="6.87426">
        <ele>2767.1</ele>
        <time>2026-03-23T11:25:08Z</time>
      </trkpt>
      <trkpt lat="44.74543" lon="6.87426">
        <ele>2767.1</ele>
        <time>2026-03-23T11:25:09Z</time>
      </trkpt>
      <trkpt lat="44.74543" lon="6.87426">
        <ele>2767.1</ele>
        <time>2026-03-23T11:25:10Z</time>
      </trkpt>
      <trkpt lat="44.74543" lon="6.87426">
        <ele>2767.1</ele>
        <time>2026-03-23T11:25:11Z</time>
      </trkpt>
      <trkpt lat="44.74543" lon="6.87426">
        <ele>2767.1</ele>
        <time>2026-03-23T11:25:12Z</time>
      </trkpt>
      <trkpt lat="44.74543" lon="6.87426">
        <ele>2767.1</ele>
        <time>2026-03-23T11:25:13Z</time>
      </trkpt>
      <trkpt lat="44.74543" lon="6.87426">
        <ele>2767.1</ele>
        <time>2026-03-23T11:25:14Z</time>
      </trkpt>
      <trkpt lat="44.74543" lon="6.87426">
        <ele>2767.1</ele>
        <time>2026-03-23T11:25:15Z</time>
      </trkpt>
      <trkpt lat="44.74543" lon="6.87426">
        <ele>2767.1</ele>
        <time>2026-03-23T11:25:16Z</time>
      </trkpt>
      <trkpt lat="44.74543" lon="6.87426">
        <ele>2767.1</ele>
        <time>2026-03-23T11:25:17Z</time>
      </trkpt>
      <trkpt lat="44.74543" lon="6.87426">
        <ele>2767.1</ele>
        <time>2026-03-23T11:25:18Z</time>
      </trkpt>
      <trkpt lat="44.74543" lon="6.87426">
        <ele>2767.1</ele>
        <time>2026-03-23T11:25:19Z</time>
      </trkpt>
      <trkpt lat="44.74543" lon="6.87426">
        <ele>2767.1</ele>
        <time>2026-03-23T11:25:20Z</time>
      </trkpt>
      <trkpt lat="44.74543" lon="6.87426">
        <ele>2767.1</ele>
        <time>2026-03-23T11:25:21Z</time>
      </trkpt>
      <trkpt lat="44.74543" lon="6.87426">
        <ele>2767.1</ele>
        <time>2026-03-23T11:25:22Z</time>
      </trkpt>
      <trkpt lat="44.74543" lon="6.87426">
        <ele>2767.1</ele>
        <time>2026-03-23T11:25:23Z</time>
      </trkpt>
      <trkpt lat="44.74543" lon="6.87426">
        <ele>2767.1</ele>
        <time>2026-03-23T11:25:24Z</time>
      </trkpt>
      <trkpt lat="44.74543" lon="6.87426">
        <ele>2767.1</ele>
        <time>2026-03-23T11:25:25Z</time>
      </trkpt>
      <trkpt lat="44.74543" lon="6.87427">
        <ele>2767.1</ele>
        <time>2026-03-23T11:25:26Z</time>
      </trkpt>
      <trkpt lat="44.74543" lon="6.87427">
        <ele>2767.2</ele>
        <time>2026-03-23T11:25:27Z</time>
      </trkpt>
      <trkpt lat="44.74543" lon="6.87427">
        <ele>2767.2</ele>
        <time>2026-03-23T11:25:28Z</time>
      </trkpt>
      <trkpt lat="44.74543" lon="6.87427">
        <ele>2767.2</ele>
        <time>2026-03-23T11:25:29Z</time>
      </trkpt>
      <trkpt lat="44.74543" lon="6.87427">
        <ele>2767.2</ele>
        <time>2026-03-23T11:25:30Z</time>
      </trkpt>
      <trkpt lat="44.74543" lon="6.87427">
        <ele>2767.2</ele>
        <time>2026-03-23T11:25:31Z</time>
      </trkpt>
      <trkpt lat="44.74543" lon="6.87427">
        <ele>2767.2</ele>
        <time>2026-03-23T11:25:32Z</time>
      </trkpt>
      <trkpt lat="44.74543" lon="6.87427">
        <ele>2767.2</ele>
        <time>2026-03-23T11:25:33Z</time>
      </trkpt>
      <trkpt lat="44.74543" lon="6.87427">
        <ele>2767.2</ele>
        <time>2026-03-23T11:25:34Z</time>
      </trkpt>
      <trkpt lat="44.74543" lon="6.87427">
        <ele>2767.2</ele>
        <time>2026-03-23T11:25:35Z</time>
      </trkpt>
      <trkpt lat="44.74543" lon="6.87427">
        <ele>2767.2</ele>
        <time>2026-03-23T11:25:36Z</time>
      </trkpt>
      <trkpt lat="44.74543" lon="6.87427">
        <ele>2767.2</ele>
        <time>2026-03-23T11:25:37Z</time>
      </trkpt>
      <trkpt lat="44.74543" lon="6.87427">
        <ele>2767.2</ele>
        <time>2026-03-23T11:25:38Z</time>
      </trkpt>
      <trkpt lat="44.74544" lon="6.87427">
        <ele>2767.2</ele>
        <time>2026-03-23T11:25:39Z</time>
      </trkpt>
      <trkpt lat="44.74544" lon="6.87427">
        <ele>2767.2</ele>
        <time>2026-03-23T11:25:40Z</time>
      </trkpt>
      <trkpt lat="44.74544" lon="6.87427">
        <ele>2767.2</ele>
        <time>2026-03-23T11:25:41Z</time>
      </trkpt>
      <trkpt lat="44.74544" lon="6.87427">
        <ele>2767.2</ele>
        <time>2026-03-23T11:25:42Z</time>
      </trkpt>
      <trkpt lat="44.74544" lon="6.87427">
        <ele>2767.2</ele>
        <time>2026-03-23T11:25:43Z</time>
      </trkpt>
      <trkpt lat="44.74544" lon="6.87427">
        <ele>2767.2</ele>
        <time>2026-03-23T11:25:44Z</time>
      </trkpt>
      <trkpt lat="44.74544" lon="6.87427">
        <ele>2767.2</ele>
        <time>2026-03-23T11:25:45Z</time>
      </trkpt>
      <trkpt lat="44.74544" lon="6.87427">
        <ele>2767.2</ele>
        <time>2026-03-23T11:25:46Z</time>
      </trkpt>
      <trkpt lat="44.74544" lon="6.87427">
        <ele>2767.2</ele>
        <time>2026-03-23T11:25:47Z</time>
      </trkpt>
      <trkpt lat="44.74544" lon="6.87427">
        <ele>2767.2</ele>
        <time>2026-03-23T11:25:48Z</time>
      </trkpt>
      <trkpt lat="44.74544" lon="6.87427">
        <ele>2767.2</ele>
        <time>2026-03-23T11:25:49Z</time>
      </trkpt>
      <trkpt lat="44.74544" lon="6.87427">
        <ele>2767.2</ele>
        <time>2026-03-23T11:25:50Z</time>
      </trkpt>
      <trkpt lat="44.74544" lon="6.87427">
        <ele>2767.2</ele>
        <time>2026-03-23T11:25:51Z</time>
      </trkpt>
      <trkpt lat="44.74544" lon="6.87427">
        <ele>2767.2</ele>
        <time>2026-03-23T11:25:52Z</time>
      </trkpt>
      <trkpt lat="44.74545" lon="6.87427">
        <ele>2767.2</ele>
        <time>2026-03-23T11:25:53Z</time>
      </trkpt>
      <trkpt lat="44.74545" lon="6.87427">
        <ele>2767.2</ele>
        <time>2026-03-23T11:25:54Z</time>
      </trkpt>
      <trkpt lat="44.74545" lon="6.87427">
        <ele>2767.2</ele>
        <time>2026-03-23T11:25:55Z</time>
      </trkpt>
      <trkpt lat="44.74545" lon="6.87427">
        <ele>2767.2</ele>
        <time>2026-03-23T11:25:56Z</time>
      </trkpt>
      <trkpt lat="44.74545" lon="6.87427">
        <ele>2767.2</ele>
        <time>2026-03-23T11:25:57Z</time>
      </trkpt>
      <trkpt lat="44.74545" lon="6.87427">
        <ele>2767.2</ele>
        <time>2026-03-23T11:25:58Z</time>
      </trkpt>
      <trkpt lat="44.74545" lon="6.87427">
        <ele>2767.2</ele>
        <time>2026-03-23T11:25:59Z</time>
      </trkpt>
      <trkpt lat="44.74545" lon="6.87427">
        <ele>2767.2</ele>
        <time>2026-03-23T11:26:00Z</time>
      </trkpt>
      <trkpt lat="44.74545" lon="6.87427">
        <ele>2767.2</ele>
        <time>2026-03-23T11:26:01Z</time>
      </trkpt>
      <trkpt lat="44.74545" lon="6.87427">
        <ele>2767.2</ele>
        <time>2026-03-23T11:26:02Z</time>
      </trkpt>
      <trkpt lat="44.74545" lon="6.87427">
        <ele>2767.2</ele>
        <time>2026-03-23T11:26:03Z</time>
      </trkpt>
      <trkpt lat="44.74545" lon="6.87427">
        <ele>2767.2</ele>
        <time>2026-03-23T11:26:04Z</time>
      </trkpt>
      <trkpt lat="44.74545" lon="6.87427">
        <ele>2767.2</ele>
        <time>2026-03-23T11:26:05Z</time>
      </trkpt>
      <trkpt lat="44.74545" lon="6.87427">
        <ele>2767.2</ele>
        <time>2026-03-23T11:26:06Z</time>
      </trkpt>
      <trkpt lat="44.74545" lon="6.87427">
        <ele>2767.2</ele>
        <time>2026-03-23T11:26:07Z</time>
      </trkpt>
      <trkpt lat="44.74545" lon="6.87427">
        <ele>2767.2</ele>
        <time>2026-03-23T11:26:08Z</time>
      </trkpt>
      <trkpt lat="44.74545" lon="6.87427">
        <ele>2767.2</ele>
        <time>2026-03-23T11:26:09Z</time>
      </trkpt>
      <trkpt lat="44.74545" lon="6.87427">
        <ele>2767.2</ele>
        <time>2026-03-23T11:26:10Z</time>
      </trkpt>
      <trkpt lat="44.74545" lon="6.87427">
        <ele>2767.2</ele>
        <time>2026-03-23T11:26:11Z</time>
      </trkpt>
      <trkpt lat="44.74545" lon="6.87427">
        <ele>2767.2</ele>
        <time>2026-03-23T11:26:12Z</time>
      </trkpt>
      <trkpt lat="44.74546" lon="6.87426">
        <ele>2767.2</ele>
        <time>2026-03-23T11:26:13Z</time>
      </trkpt>
      <trkpt lat="44.74545" lon="6.87426">
        <ele>2767.2</ele>
        <time>2026-03-23T11:26:14Z</time>
      </trkpt>
      <trkpt lat="44.74545" lon="6.87426">
        <ele>2767.2</ele>
        <time>2026-03-23T11:26:15Z</time>
      </trkpt>
      <trkpt lat="44.74545" lon="6.87426">
        <ele>2767.2</ele>
        <time>2026-03-23T11:26:16Z</time>
      </trkpt>
      <trkpt lat="44.74545" lon="6.87426">
        <ele>2767.2</ele>
        <time>2026-03-23T11:26:17Z</time>
      </trkpt>
      <trkpt lat="44.74545" lon="6.87426">
        <ele>2767.2</ele>
        <time>2026-03-23T11:26:18Z</time>
      </trkpt>
      <trkpt lat="44.74545" lon="6.87426">
        <ele>2767.2</ele>
        <time>2026-03-23T11:26:19Z</time>
      </trkpt>
      <trkpt lat="44.74545" lon="6.87426">
        <ele>2767.2</ele>
        <time>2026-03-23T11:26:20Z</time>
      </trkpt>
      <trkpt lat="44.74545" lon="6.87426">
        <ele>2767.2</ele>
        <time>2026-03-23T11:26:21Z</time>
      </trkpt>
      <trkpt lat="44.74545" lon="6.87426">
        <ele>2767.2</ele>
        <time>2026-03-23T11:26:22Z</time>
      </trkpt>
      <trkpt lat="44.74545" lon="6.87426">
        <ele>2767.2</ele>
        <time>2026-03-23T11:26:23Z</time>
      </trkpt>
      <trkpt lat="44.74545" lon="6.87426">
        <ele>2767.2</ele>
        <time>2026-03-23T11:26:24Z</time>
      </trkpt>
      <trkpt lat="44.74545" lon="6.87426">
        <ele>2767.2</ele>
        <time>2026-03-23T11:26:25Z</time>
      </trkpt>
      <trkpt lat="44.74545" lon="6.87426">
        <ele>2767.2</ele>
        <time>2026-03-23T11:26:26Z</time>
      </trkpt>
      <trkpt lat="44.74545" lon="6.87425">
        <ele>2767.2</ele>
        <time>2026-03-23T11:26:27Z</time>
      </trkpt>
      <trkpt lat="44.74545" lon="6.87425">
        <ele>2767.2</ele>
        <time>2026-03-23T11:26:28Z</time>
      </trkpt>
      <trkpt lat="44.74545" lon="6.87425">
        <ele>2767.2</ele>
        <time>2026-03-23T11:26:29Z</time>
      </trkpt>
      <trkpt lat="44.74545" lon="6.87425">
        <ele>2767.2</ele>
        <time>2026-03-23T11:26:30Z</time>
      </trkpt>
      <trkpt lat="44.74545" lon="6.87425">
        <ele>2767.2</ele>
        <time>2026-03-23T11:26:31Z</time>
      </trkpt>
      <trkpt lat="44.74545" lon="6.87426">
        <ele>2767.2</ele>
        <time>2026-03-23T11:26:32Z</time>
      </trkpt>
      <trkpt lat="44.74545" lon="6.87426">
        <ele>2767.2</ele>
        <time>2026-03-23T11:26:33Z</time>
      </trkpt>
      <trkpt lat="44.74545" lon="6.87426">
        <ele>2767.2</ele>
        <time>2026-03-23T11:26:34Z</time>
      </trkpt>
      <trkpt lat="44.74545" lon="6.87425">
        <ele>2767.2</ele>
        <time>2026-03-23T11:26:35Z</time>
      </trkpt>
      <trkpt lat="44.74545" lon="6.87425">
        <ele>2767.2</ele>
        <time>2026-03-23T11:26:36Z</time>
      </trkpt>
      <trkpt lat="44.74545" lon="6.87425">
        <ele>2767.2</ele>
        <time>2026-03-23T11:26:37Z</time>
      </trkpt>
      <trkpt lat="44.74545" lon="6.87425">
        <ele>2767.2</ele>
        <time>2026-03-23T11:26:38Z</time>
      </trkpt>
      <trkpt lat="44.74545" lon="6.87425">
        <ele>2767.2</ele>
        <time>2026-03-23T11:26:39Z</time>
      </trkpt>
      <trkpt lat="44.74545" lon="6.87425">
        <ele>2767.2</ele>
        <time>2026-03-23T11:26:40Z</time>
      </trkpt>
      <trkpt lat="44.74545" lon="6.87425">
        <ele>2767.2</ele>
        <time>2026-03-23T11:26:41Z</time>
      </trkpt>
      <trkpt lat="44.74544" lon="6.87425">
        <ele>2767.2</ele>
        <time>2026-03-23T11:26:42Z</time>
      </trkpt>
      <trkpt lat="44.74544" lon="6.87425">
        <ele>2767.2</ele>
        <time>2026-03-23T11:26:43Z</time>
      </trkpt>
      <trkpt lat="44.74544" lon="6.87425">
        <ele>2767.2</ele>
        <time>2026-03-23T11:26:44Z</time>
      </trkpt>
      <trkpt lat="44.74544" lon="6.87425">
        <ele>2767.2</ele>
        <time>2026-03-23T11:26:45Z</time>
      </trkpt>
      <trkpt lat="44.74544" lon="6.87425">
        <ele>2767.2</ele>
        <time>2026-03-23T11:26:46Z</time>
      </trkpt>
      <trkpt lat="44.74544" lon="6.87425">
        <ele>2767.2</ele>
        <time>2026-03-23T11:26:47Z</time>
      </trkpt>
      <trkpt lat="44.74544" lon="6.87425">
        <ele>2767.2</ele>
        <time>2026-03-23T11:26:48Z</time>
      </trkpt>
      <trkpt lat="44.74544" lon="6.87425">
        <ele>2767.2</ele>
        <time>2026-03-23T11:26:49Z</time>
      </trkpt>
      <trkpt lat="44.74544" lon="6.87425">
        <ele>2767.3</ele>
        <time>2026-03-23T11:26:50Z</time>
      </trkpt>
      <trkpt lat="44.74544" lon="6.87425">
        <ele>2767.3</ele>
        <time>2026-03-23T11:26:51Z</time>
      </trkpt>
      <trkpt lat="44.74544" lon="6.87425">
        <ele>2767.3</ele>
        <time>2026-03-23T11:26:52Z</time>
      </trkpt>
      <trkpt lat="44.74544" lon="6.87425">
        <ele>2767.3</ele>
        <time>2026-03-23T11:26:53Z</time>
      </trkpt>
      <trkpt lat="44.74544" lon="6.87425">
        <ele>2767.3</ele>
        <time>2026-03-23T11:26:54Z</time>
      </trkpt>
      <trkpt lat="44.74544" lon="6.87425">
        <ele>2767.3</ele>
        <time>2026-03-23T11:26:55Z</time>
      </trkpt>
      <trkpt lat="44.74545" lon="6.87425">
        <ele>2767.3</ele>
        <time>2026-03-23T11:26:56Z</time>
      </trkpt>
      <trkpt lat="44.74545" lon="6.87426">
        <ele>2767.3</ele>
        <time>2026-03-23T11:26:57Z</time>
      </trkpt>
      <trkpt lat="44.74545" lon="6.87426">
        <ele>2767.3</ele>
        <time>2026-03-23T11:26:58Z</time>
      </trkpt>
      <trkpt lat="44.74545" lon="6.87426">
        <ele>2767.3</ele>
        <time>2026-03-23T11:26:59Z</time>
      </trkpt>
      <trkpt lat="44.74545" lon="6.87425">
        <ele>2767.3</ele>
        <time>2026-03-23T11:27:00Z</time>
      </trkpt>
      <trkpt lat="44.74544" lon="6.87425">
        <ele>2767.3</ele>
        <time>2026-03-23T11:27:01Z</time>
      </trkpt>
      <trkpt lat="44.74544" lon="6.87425">
        <ele>2767.3</ele>
        <time>2026-03-23T11:27:02Z</time>
      </trkpt>
      <trkpt lat="44.74544" lon="6.87425">
        <ele>2767.3</ele>
        <time>2026-03-23T11:27:03Z</time>
      </trkpt>
      <trkpt lat="44.74544" lon="6.87425">
        <ele>2767.3</ele>
        <time>2026-03-23T11:27:04Z</time>
      </trkpt>
      <trkpt lat="44.74544" lon="6.87425">
        <ele>2767.3</ele>
        <time>2026-03-23T11:27:05Z</time>
      </trkpt>
      <trkpt lat="44.74544" lon="6.87425">
        <ele>2767.3</ele>
        <time>2026-03-23T11:27:06Z</time>
      </trkpt>
      <trkpt lat="44.74544" lon="6.87425">
        <ele>2767.3</ele>
        <time>2026-03-23T11:27:07Z</time>
      </trkpt>
      <trkpt lat="44.74544" lon="6.87425">
        <ele>2767.3</ele>
        <time>2026-03-23T11:27:08Z</time>
      </trkpt>
      <trkpt lat="44.74544" lon="6.87426">
        <ele>2767.3</ele>
        <time>2026-03-23T11:27:09Z</time>
      </trkpt>
      <trkpt lat="44.74544" lon="6.87426">
        <ele>2767.3</ele>
        <time>2026-03-23T11:27:10Z</time>
      </trkpt>
      <trkpt lat="44.74544" lon="6.87426">
        <ele>2767.3</ele>
        <time>2026-03-23T11:27:11Z</time>
      </trkpt>
      <trkpt lat="44.74544" lon="6.87426">
        <ele>2767.3</ele>
        <time>2026-03-23T11:27:12Z</time>
      </trkpt>
      <trkpt lat="44.74544" lon="6.87426">
        <ele>2767.3</ele>
        <time>2026-03-23T11:27:13Z</time>
      </trkpt>
      <trkpt lat="44.74544" lon="6.87426">
        <ele>2767.3</ele>
        <time>2026-03-23T11:27:14Z</time>
      </trkpt>
      <trkpt lat="44.74544" lon="6.87426">
        <ele>2767.3</ele>
        <time>2026-03-23T11:27:15Z</time>
      </trkpt>
      <trkpt lat="44.74544" lon="6.87426">
        <ele>2767.3</ele>
        <time>2026-03-23T11:27:16Z</time>
      </trkpt>
      <trkpt lat="44.74544" lon="6.87426">
        <ele>2767.3</ele>
        <time>2026-03-23T11:27:17Z</time>
      </trkpt>
      <trkpt lat="44.74544" lon="6.87426">
        <ele>2767.3</ele>
        <time>2026-03-23T11:27:18Z</time>
      </trkpt>
      <trkpt lat="44.74544" lon="6.87426">
        <ele>2767.3</ele>
        <time>2026-03-23T11:27:19Z</time>
      </trkpt>
      <trkpt lat="44.74544" lon="6.87426">
        <ele>2767.3</ele>
        <time>2026-03-23T11:27:20Z</time>
      </trkpt>
      <trkpt lat="44.74544" lon="6.87426">
        <ele>2767.3</ele>
        <time>2026-03-23T11:27:21Z</time>
      </trkpt>
      <trkpt lat="44.74544" lon="6.87426">
        <ele>2767.3</ele>
        <time>2026-03-23T11:27:22Z</time>
      </trkpt>
      <trkpt lat="44.74544" lon="6.87426">
        <ele>2767.3</ele>
        <time>2026-03-23T11:27:23Z</time>
      </trkpt>
      <trkpt lat="44.74544" lon="6.87426">
        <ele>2767.3</ele>
        <time>2026-03-23T11:27:24Z</time>
      </trkpt>
      <trkpt lat="44.74544" lon="6.87426">
        <ele>2767.3</ele>
        <time>2026-03-23T11:27:25Z</time>
      </trkpt>
      <trkpt lat="44.74544" lon="6.87426">
        <ele>2767.3</ele>
        <time>2026-03-23T11:27:26Z</time>
      </trkpt>
      <trkpt lat="44.74544" lon="6.87426">
        <ele>2767.3</ele>
        <time>2026-03-23T11:27:27Z</time>
      </trkpt>
      <trkpt lat="44.74545" lon="6.87426">
        <ele>2767.3</ele>
        <time>2026-03-23T11:27:28Z</time>
      </trkpt>
      <trkpt lat="44.74545" lon="6.87426">
        <ele>2767.3</ele>
        <time>2026-03-23T11:27:29Z</time>
      </trkpt>
      <trkpt lat="44.74544" lon="6.87426">
        <ele>2767.3</ele>
        <time>2026-03-23T11:27:30Z</time>
      </trkpt>
      <trkpt lat="44.74545" lon="6.87426">
        <ele>2767.3</ele>
        <time>2026-03-23T11:27:31Z</time>
      </trkpt>
      <trkpt lat="44.74545" lon="6.87425">
        <ele>2767.3</ele>
        <time>2026-03-23T11:27:32Z</time>
      </trkpt>
      <trkpt lat="44.74545" lon="6.87425">
        <ele>2767.3</ele>
        <time>2026-03-23T11:27:33Z</time>
      </trkpt>
      <trkpt lat="44.74545" lon="6.87425">
        <ele>2767.3</ele>
        <time>2026-03-23T11:27:34Z</time>
      </trkpt>
      <trkpt lat="44.74545" lon="6.87425">
        <ele>2767.3</ele>
        <time>2026-03-23T11:27:35Z</time>
      </trkpt>
      <trkpt lat="44.74545" lon="6.87425">
        <ele>2767.3</ele>
        <time>2026-03-23T11:27:36Z</time>
      </trkpt>
      <trkpt lat="44.74545" lon="6.87425">
        <ele>2767.3</ele>
        <time>2026-03-23T11:27:37Z</time>
      </trkpt>
      <trkpt lat="44.74545" lon="6.87425">
        <ele>2767.3</ele>
        <time>2026-03-23T11:27:38Z</time>
      </trkpt>
      <trkpt lat="44.74545" lon="6.87425">
        <ele>2767.3</ele>
        <time>2026-03-23T11:27:39Z</time>
      </trkpt>
      <trkpt lat="44.74545" lon="6.87425">
        <ele>2767.3</ele>
        <time>2026-03-23T11:27:40Z</time>
      </trkpt>
      <trkpt lat="44.74545" lon="6.87425">
        <ele>2767.3</ele>
        <time>2026-03-23T11:27:41Z</time>
      </trkpt>
      <trkpt lat="44.74545" lon="6.87425">
        <ele>2767.3</ele>
        <time>2026-03-23T11:27:42Z</time>
      </trkpt>
      <trkpt lat="44.74545" lon="6.87425">
        <ele>2767.3</ele>
        <time>2026-03-23T11:27:43Z</time>
      </trkpt>
      <trkpt lat="44.74545" lon="6.87425">
        <ele>2767.3</ele>
        <time>2026-03-23T11:27:44Z</time>
      </trkpt>
      <trkpt lat="44.74544" lon="6.87425">
        <ele>2767.3</ele>
        <time>2026-03-23T11:27:45Z</time>
      </trkpt>
      <trkpt lat="44.74544" lon="6.87425">
        <ele>2767.3</ele>
        <time>2026-03-23T11:27:46Z</time>
      </trkpt>
      <trkpt lat="44.74544" lon="6.87425">
        <ele>2767.3</ele>
        <time>2026-03-23T11:27:47Z</time>
      </trkpt>
      <trkpt lat="44.74544" lon="6.87425">
        <ele>2767.3</ele>
        <time>2026-03-23T11:27:48Z</time>
      </trkpt>
      <trkpt lat="44.74544" lon="6.87425">
        <ele>2767.3</ele>
        <time>2026-03-23T11:27:49Z</time>
      </trkpt>
      <trkpt lat="44.74544" lon="6.87425">
        <ele>2767.3</ele>
        <time>2026-03-23T11:27:50Z</time>
      </trkpt>
      <trkpt lat="44.74545" lon="6.87425">
        <ele>2767.3</ele>
        <time>2026-03-23T11:27:51Z</time>
      </trkpt>
      <trkpt lat="44.74545" lon="6.87425">
        <ele>2767.3</ele>
        <time>2026-03-23T11:27:52Z</time>
      </trkpt>
      <trkpt lat="44.74545" lon="6.87425">
        <ele>2767.3</ele>
        <time>2026-03-23T11:27:53Z</time>
      </trkpt>
      <trkpt lat="44.74544" lon="6.87425">
        <ele>2767.3</ele>
        <time>2026-03-23T11:27:54Z</time>
      </trkpt>
      <trkpt lat="44.74545" lon="6.87425">
        <ele>2767.3</ele>
        <time>2026-03-23T11:27:55Z</time>
      </trkpt>
      <trkpt lat="44.74545" lon="6.87425">
        <ele>2767.3</ele>
        <time>2026-03-23T11:27:56Z</time>
      </trkpt>
      <trkpt lat="44.74545" lon="6.87425">
        <ele>2767.3</ele>
        <time>2026-03-23T11:27:57Z</time>
      </trkpt>
      <trkpt lat="44.74545" lon="6.87425">
        <ele>2767.3</ele>
        <time>2026-03-23T11:27:58Z</time>
      </trkpt>
      <trkpt lat="44.74545" lon="6.87425">
        <ele>2767.3</ele>
        <time>2026-03-23T11:27:59Z</time>
      </trkpt>
      <trkpt lat="44.74545" lon="6.87425">
        <ele>2767.3</ele>
        <time>2026-03-23T11:28:00Z</time>
      </trkpt>
      <trkpt lat="44.74545" lon="6.87425">
        <ele>2767.3</ele>
        <time>2026-03-23T11:28:01Z</time>
      </trkpt>
      <trkpt lat="44.74545" lon="6.87425">
        <ele>2767.3</ele>
        <time>2026-03-23T11:28:02Z</time>
      </trkpt>
      <trkpt lat="44.74545" lon="6.87425">
        <ele>2767.3</ele>
        <time>2026-03-23T11:28:03Z</time>
      </trkpt>
      <trkpt lat="44.74545" lon="6.87426">
        <ele>2767.3</ele>
        <time>2026-03-23T11:28:04Z</time>
      </trkpt>
      <trkpt lat="44.74545" lon="6.87426">
        <ele>2767.3</ele>
        <time>2026-03-23T11:28:05Z</time>
      </trkpt>
      <trkpt lat="44.74545" lon="6.87426">
        <ele>2767.4</ele>
        <time>2026-03-23T11:28:06Z</time>
      </trkpt>
      <trkpt lat="44.74545" lon="6.87425">
        <ele>2767.4</ele>
        <time>2026-03-23T11:28:07Z</time>
      </trkpt>
      <trkpt lat="44.74545" lon="6.87425">
        <ele>2767.4</ele>
        <time>2026-03-23T11:28:08Z</time>
      </trkpt>
      <trkpt lat="44.74545" lon="6.87425">
        <ele>2767.4</ele>
        <time>2026-03-23T11:28:09Z</time>
      </trkpt>
      <trkpt lat="44.74545" lon="6.87425">
        <ele>2767.4</ele>
        <time>2026-03-23T11:28:10Z</time>
      </trkpt>
      <trkpt lat="44.74545" lon="6.87425">
        <ele>2767.4</ele>
        <time>2026-03-23T11:28:11Z</time>
      </trkpt>
      <trkpt lat="44.74545" lon="6.87425">
        <ele>2767.4</ele>
        <time>2026-03-23T11:28:12Z</time>
      </trkpt>
      <trkpt lat="44.74545" lon="6.87425">
        <ele>2767.4</ele>
        <time>2026-03-23T11:28:13Z</time>
      </trkpt>
      <trkpt lat="44.74545" lon="6.87425">
        <ele>2767.4</ele>
        <time>2026-03-23T11:28:14Z</time>
      </trkpt>
      <trkpt lat="44.74545" lon="6.87425">
        <ele>2767.4</ele>
        <time>2026-03-23T11:28:15Z</time>
      </trkpt>
      <trkpt lat="44.74545" lon="6.87425">
        <ele>2767.4</ele>
        <time>2026-03-23T11:28:16Z</time>
      </trkpt>
      <trkpt lat="44.74545" lon="6.87426">
        <ele>2767.4</ele>
        <time>2026-03-23T11:28:17Z</time>
      </trkpt>
      <trkpt lat="44.74545" lon="6.87426">
        <ele>2767.4</ele>
        <time>2026-03-23T11:28:18Z</time>
      </trkpt>
      <trkpt lat="44.74545" lon="6.87426">
        <ele>2767.4</ele>
        <time>2026-03-23T11:28:19Z</time>
      </trkpt>
      <trkpt lat="44.74545" lon="6.87426">
        <ele>2767.4</ele>
        <time>2026-03-23T11:28:20Z</time>
      </trkpt>
      <trkpt lat="44.74545" lon="6.87426">
        <ele>2767.4</ele>
        <time>2026-03-23T11:28:21Z</time>
      </trkpt>
      <trkpt lat="44.74545" lon="6.87426">
        <ele>2767.4</ele>
        <time>2026-03-23T11:28:22Z</time>
      </trkpt>
      <trkpt lat="44.74545" lon="6.87426">
        <ele>2767.4</ele>
        <time>2026-03-23T11:28:23Z</time>
      </trkpt>
      <trkpt lat="44.74545" lon="6.87426">
        <ele>2767.4</ele>
        <time>2026-03-23T11:28:24Z</time>
      </trkpt>
      <trkpt lat="44.74545" lon="6.87426">
        <ele>2767.4</ele>
        <time>2026-03-23T11:28:25Z</time>
      </trkpt>
      <trkpt lat="44.74545" lon="6.87426">
        <ele>2767.4</ele>
        <time>2026-03-23T11:28:26Z</time>
      </trkpt>
      <trkpt lat="44.74545" lon="6.87426">
        <ele>2767.4</ele>
        <time>2026-03-23T11:28:27Z</time>
      </trkpt>
      <trkpt lat="44.74545" lon="6.87426">
        <ele>2767.4</ele>
        <time>2026-03-23T11:28:28Z</time>
      </trkpt>
      <trkpt lat="44.74545" lon="6.87426">
        <ele>2767.4</ele>
        <time>2026-03-23T11:28:29Z</time>
      </trkpt>
      <trkpt lat="44.74545" lon="6.87426">
        <ele>2767.4</ele>
        <time>2026-03-23T11:28:30Z</time>
      </trkpt>
      <trkpt lat="44.74546" lon="6.87426">
        <ele>2767.4</ele>
        <time>2026-03-23T11:28:31Z</time>
      </trkpt>
      <trkpt lat="44.74545" lon="6.87426">
        <ele>2767.4</ele>
        <time>2026-03-23T11:28:32Z</time>
      </trkpt>
      <trkpt lat="44.74545" lon="6.87426">
        <ele>2767.4</ele>
        <time>2026-03-23T11:28:33Z</time>
      </trkpt>
      <trkpt lat="44.74545" lon="6.87426">
        <ele>2767.4</ele>
        <time>2026-03-23T11:28:34Z</time>
      </trkpt>
      <trkpt lat="44.74545" lon="6.87426">
        <ele>2767.4</ele>
        <time>2026-03-23T11:28:35Z</time>
      </trkpt>
      <trkpt lat="44.74545" lon="6.87426">
        <ele>2767.4</ele>
        <time>2026-03-23T11:28:36Z</time>
      </trkpt>
      <trkpt lat="44.74545" lon="6.87425">
        <ele>2767.4</ele>
        <time>2026-03-23T11:28:37Z</time>
      </trkpt>
      <trkpt lat="44.74545" lon="6.87425">
        <ele>2767.4</ele>
        <time>2026-03-23T11:28:38Z</time>
      </trkpt>
      <trkpt lat="44.74545" lon="6.87425">
        <ele>2767.4</ele>
        <time>2026-03-23T11:28:39Z</time>
      </trkpt>
      <trkpt lat="44.74545" lon="6.87425">
        <ele>2767.4</ele>
        <time>2026-03-23T11:28:40Z</time>
      </trkpt>
      <trkpt lat="44.74546" lon="6.87425">
        <ele>2767.4</ele>
        <time>2026-03-23T11:28:41Z</time>
      </trkpt>
      <trkpt lat="44.74546" lon="6.87425">
        <ele>2767.4</ele>
        <time>2026-03-23T11:28:42Z</time>
      </trkpt>
      <trkpt lat="44.74546" lon="6.87425">
        <ele>2767.4</ele>
        <time>2026-03-23T11:28:43Z</time>
      </trkpt>
      <trkpt lat="44.74546" lon="6.87425">
        <ele>2767.4</ele>
        <time>2026-03-23T11:28:44Z</time>
      </trkpt>
      <trkpt lat="44.74546" lon="6.87425">
        <ele>2767.4</ele>
        <time>2026-03-23T11:28:45Z</time>
      </trkpt>
      <trkpt lat="44.74546" lon="6.87425">
        <ele>2767.4</ele>
        <time>2026-03-23T11:28:46Z</time>
      </trkpt>
      <trkpt lat="44.74546" lon="6.87425">
        <ele>2767.4</ele>
        <time>2026-03-23T11:28:47Z</time>
      </trkpt>
      <trkpt lat="44.74546" lon="6.87425">
        <ele>2767.4</ele>
        <time>2026-03-23T11:28:48Z</time>
      </trkpt>
      <trkpt lat="44.74546" lon="6.87425">
        <ele>2767.4</ele>
        <time>2026-03-23T11:28:49Z</time>
      </trkpt>
      <trkpt lat="44.74546" lon="6.87425">
        <ele>2767.4</ele>
        <time>2026-03-23T11:28:50Z</time>
      </trkpt>
      <trkpt lat="44.74546" lon="6.87425">
        <ele>2767.4</ele>
        <time>2026-03-23T11:28:51Z</time>
      </trkpt>
      <trkpt lat="44.74546" lon="6.87425">
        <ele>2767.4</ele>
        <time>2026-03-23T11:28:52Z</time>
      </trkpt>
      <trkpt lat="44.74546" lon="6.87425">
        <ele>2767.4</ele>
        <time>2026-03-23T11:28:53Z</time>
      </trkpt>
      <trkpt lat="44.74546" lon="6.87425">
        <ele>2767.4</ele>
        <time>2026-03-23T11:28:54Z</time>
      </trkpt>
      <trkpt lat="44.74546" lon="6.87425">
        <ele>2767.4</ele>
        <time>2026-03-23T11:28:55Z</time>
      </trkpt>
      <trkpt lat="44.74546" lon="6.87425">
        <ele>2767.4</ele>
        <time>2026-03-23T11:28:56Z</time>
      </trkpt>
      <trkpt lat="44.74546" lon="6.87425">
        <ele>2767.4</ele>
        <time>2026-03-23T11:28:57Z</time>
      </trkpt>
      <trkpt lat="44.74546" lon="6.87425">
        <ele>2767.4</ele>
        <time>2026-03-23T11:28:58Z</time>
      </trkpt>
      <trkpt lat="44.74546" lon="6.87425">
        <ele>2767.4</ele>
        <time>2026-03-23T11:28:59Z</time>
      </trkpt>
      <trkpt lat="44.74546" lon="6.87425">
        <ele>2767.4</ele>
        <time>2026-03-23T11:29:00Z</time>
      </trkpt>
      <trkpt lat="44.74546" lon="6.87425">
        <ele>2767.4</ele>
        <time>2026-03-23T11:29:01Z</time>
      </trkpt>
      <trkpt lat="44.74546" lon="6.87425">
        <ele>2767.4</ele>
        <time>2026-03-23T11:29:02Z</time>
      </trkpt>
      <trkpt lat="44.74546" lon="6.87425">
        <ele>2767.4</ele>
        <time>2026-03-23T11:29:03Z</time>
      </trkpt>
      <trkpt lat="44.74546" lon="6.87425">
        <ele>2767.4</ele>
        <time>2026-03-23T11:29:04Z</time>
      </trkpt>
      <trkpt lat="44.74546" lon="6.87425">
        <ele>2767.4</ele>
        <time>2026-03-23T11:29:05Z</time>
      </trkpt>
      <trkpt lat="44.74546" lon="6.87425">
        <ele>2767.4</ele>
        <time>2026-03-23T11:29:06Z</time>
      </trkpt>
      <trkpt lat="44.74546" lon="6.87425">
        <ele>2767.4</ele>
        <time>2026-03-23T11:29:07Z</time>
      </trkpt>
      <trkpt lat="44.74546" lon="6.87425">
        <ele>2767.4</ele>
        <time>2026-03-23T11:29:08Z</time>
      </trkpt>
      <trkpt lat="44.74546" lon="6.87425">
        <ele>2767.4</ele>
        <time>2026-03-23T11:29:09Z</time>
      </trkpt>
      <trkpt lat="44.74546" lon="6.87425">
        <ele>2767.4</ele>
        <time>2026-03-23T11:29:10Z</time>
      </trkpt>
      <trkpt lat="44.74546" lon="6.87426">
        <ele>2767.4</ele>
        <time>2026-03-23T11:29:11Z</time>
      </trkpt>
      <trkpt lat="44.74546" lon="6.87426">
        <ele>2767.4</ele>
        <time>2026-03-23T11:29:12Z</time>
      </trkpt>
      <trkpt lat="44.74545" lon="6.87426">
        <ele>2767.4</ele>
        <time>2026-03-23T11:29:13Z</time>
      </trkpt>
      <trkpt lat="44.74545" lon="6.87426">
        <ele>2767.4</ele>
        <time>2026-03-23T11:29:14Z</time>
      </trkpt>
      <trkpt lat="44.74545" lon="6.87426">
        <ele>2767.4</ele>
        <time>2026-03-23T11:29:15Z</time>
      </trkpt>
      <trkpt lat="44.74545" lon="6.87427">
        <ele>2767.4</ele>
        <time>2026-03-23T11:29:16Z</time>
      </trkpt>
      <trkpt lat="44.74545" lon="6.87427">
        <ele>2767.4</ele>
        <time>2026-03-23T11:29:17Z</time>
      </trkpt>
      <trkpt lat="44.74545" lon="6.87426">
        <ele>2767.4</ele>
        <time>2026-03-23T11:29:18Z</time>
      </trkpt>
      <trkpt lat="44.74545" lon="6.87426">
        <ele>2767.4</ele>
        <time>2026-03-23T11:29:19Z</time>
      </trkpt>
      <trkpt lat="44.74545" lon="6.87426">
        <ele>2767.4</ele>
        <time>2026-03-23T11:29:20Z</time>
      </trkpt>
      <trkpt lat="44.74545" lon="6.87426">
        <ele>2767.4</ele>
        <time>2026-03-23T11:29:21Z</time>
      </trkpt>
      <trkpt lat="44.74546" lon="6.87426">
        <ele>2767.4</ele>
        <time>2026-03-23T11:29:22Z</time>
      </trkpt>
      <trkpt lat="44.74546" lon="6.87426">
        <ele>2767.4</ele>
        <time>2026-03-23T11:29:23Z</time>
      </trkpt>
      <trkpt lat="44.74546" lon="6.87426">
        <ele>2767.4</ele>
        <time>2026-03-23T11:29:24Z</time>
      </trkpt>
      <trkpt lat="44.74546" lon="6.87426">
        <ele>2767.5</ele>
        <time>2026-03-23T11:29:25Z</time>
      </trkpt>
      <trkpt lat="44.74546" lon="6.87426">
        <ele>2767.5</ele>
        <time>2026-03-23T11:29:26Z</time>
      </trkpt>
      <trkpt lat="44.74546" lon="6.87426">
        <ele>2767.5</ele>
        <time>2026-03-23T11:29:27Z</time>
      </trkpt>
      <trkpt lat="44.74546" lon="6.87426">
        <ele>2767.5</ele>
        <time>2026-03-23T11:29:28Z</time>
      </trkpt>
      <trkpt lat="44.74546" lon="6.87426">
        <ele>2767.5</ele>
        <time>2026-03-23T11:29:29Z</time>
      </trkpt>
      <trkpt lat="44.74546" lon="6.87426">
        <ele>2767.5</ele>
        <time>2026-03-23T11:29:30Z</time>
      </trkpt>
      <trkpt lat="44.74546" lon="6.87426">
        <ele>2767.5</ele>
        <time>2026-03-23T11:29:31Z</time>
      </trkpt>
      <trkpt lat="44.74546" lon="6.87426">
        <ele>2767.5</ele>
        <time>2026-03-23T11:29:32Z</time>
      </trkpt>
      <trkpt lat="44.74546" lon="6.87426">
        <ele>2767.5</ele>
        <time>2026-03-23T11:29:33Z</time>
      </trkpt>
      <trkpt lat="44.74546" lon="6.87426">
        <ele>2767.5</ele>
        <time>2026-03-23T11:29:34Z</time>
      </trkpt>
      <trkpt lat="44.74546" lon="6.87426">
        <ele>2767.5</ele>
        <time>2026-03-23T11:29:35Z</time>
      </trkpt>
      <trkpt lat="44.74546" lon="6.87426">
        <ele>2767.5</ele>
        <time>2026-03-23T11:29:36Z</time>
      </trkpt>
      <trkpt lat="44.74546" lon="6.87426">
        <ele>2767.5</ele>
        <time>2026-03-23T11:29:37Z</time>
      </trkpt>
      <trkpt lat="44.74546" lon="6.87426">
        <ele>2767.5</ele>
        <time>2026-03-23T11:29:38Z</time>
      </trkpt>
      <trkpt lat="44.74546" lon="6.87426">
        <ele>2767.5</ele>
        <time>2026-03-23T11:29:39Z</time>
      </trkpt>
      <trkpt lat="44.74546" lon="6.87426">
        <ele>2767.5</ele>
        <time>2026-03-23T11:29:40Z</time>
      </trkpt>
      <trkpt lat="44.74546" lon="6.87426">
        <ele>2767.5</ele>
        <time>2026-03-23T11:29:41Z</time>
      </trkpt>
      <trkpt lat="44.74546" lon="6.87426">
        <ele>2767.5</ele>
        <time>2026-03-23T11:29:42Z</time>
      </trkpt>
      <trkpt lat="44.74546" lon="6.87426">
        <ele>2767.5</ele>
        <time>2026-03-23T11:29:43Z</time>
      </trkpt>
      <trkpt lat="44.74546" lon="6.87426">
        <ele>2767.5</ele>
        <time>2026-03-23T11:29:44Z</time>
      </trkpt>
      <trkpt lat="44.74546" lon="6.87426">
        <ele>2767.5</ele>
        <time>2026-03-23T11:29:45Z</time>
      </trkpt>
      <trkpt lat="44.74546" lon="6.87426">
        <ele>2767.5</ele>
        <time>2026-03-23T11:29:46Z</time>
      </trkpt>
      <trkpt lat="44.74546" lon="6.87426">
        <ele>2767.5</ele>
        <time>2026-03-23T11:29:47Z</time>
      </trkpt>
      <trkpt lat="44.74546" lon="6.87426">
        <ele>2767.5</ele>
        <time>2026-03-23T11:29:48Z</time>
      </trkpt>
      <trkpt lat="44.74546" lon="6.87426">
        <ele>2767.5</ele>
        <time>2026-03-23T11:29:49Z</time>
      </trkpt>
      <trkpt lat="44.74546" lon="6.87426">
        <ele>2767.5</ele>
        <time>2026-03-23T11:29:50Z</time>
      </trkpt>
      <trkpt lat="44.74546" lon="6.87426">
        <ele>2767.5</ele>
        <time>2026-03-23T11:29:51Z</time>
      </trkpt>
      <trkpt lat="44.74546" lon="6.87426">
        <ele>2767.5</ele>
        <time>2026-03-23T11:29:52Z</time>
      </trkpt>
      <trkpt lat="44.74546" lon="6.87426">
        <ele>2767.5</ele>
        <time>2026-03-23T11:29:53Z</time>
      </trkpt>
      <trkpt lat="44.74546" lon="6.87426">
        <ele>2767.5</ele>
        <time>2026-03-23T11:29:54Z</time>
      </trkpt>
      <trkpt lat="44.74546" lon="6.87426">
        <ele>2767.5</ele>
        <time>2026-03-23T11:29:55Z</time>
      </trkpt>
      <trkpt lat="44.74546" lon="6.87426">
        <ele>2767.5</ele>
        <time>2026-03-23T11:29:56Z</time>
      </trkpt>
      <trkpt lat="44.74546" lon="6.87426">
        <ele>2767.5</ele>
        <time>2026-03-23T11:29:57Z</time>
      </trkpt>
      <trkpt lat="44.74546" lon="6.87427">
        <ele>2767.5</ele>
        <time>2026-03-23T11:29:58Z</time>
      </trkpt>
      <trkpt lat="44.74546" lon="6.87427">
        <ele>2767.5</ele>
        <time>2026-03-23T11:29:59Z</time>
      </trkpt>
      <trkpt lat="44.74545" lon="6.87427">
        <ele>2767.5</ele>
        <time>2026-03-23T11:30:00Z</time>
      </trkpt>
      <trkpt lat="44.74545" lon="6.87427">
        <ele>2767.5</ele>
        <time>2026-03-23T11:30:01Z</time>
      </trkpt>
      <trkpt lat="44.74545" lon="6.87427">
        <ele>2767.5</ele>
        <time>2026-03-23T11:30:02Z</time>
      </trkpt>
      <trkpt lat="44.74545" lon="6.87427">
        <ele>2767.5</ele>
        <time>2026-03-23T11:30:03Z</time>
      </trkpt>
      <trkpt lat="44.74545" lon="6.87427">
        <ele>2767.5</ele>
        <time>2026-03-23T11:30:04Z</time>
      </trkpt>
      <trkpt lat="44.74545" lon="6.87427">
        <ele>2767.5</ele>
        <time>2026-03-23T11:30:05Z</time>
      </trkpt>
      <trkpt lat="44.74545" lon="6.87427">
        <ele>2767.5</ele>
        <time>2026-03-23T11:30:06Z</time>
      </trkpt>
      <trkpt lat="44.74545" lon="6.87427">
        <ele>2767.5</ele>
        <time>2026-03-23T11:30:07Z</time>
      </trkpt>
      <trkpt lat="44.74545" lon="6.87427">
        <ele>2767.5</ele>
        <time>2026-03-23T11:30:08Z</time>
      </trkpt>
      <trkpt lat="44.74545" lon="6.87427">
        <ele>2767.5</ele>
        <time>2026-03-23T11:30:09Z</time>
      </trkpt>
      <trkpt lat="44.74545" lon="6.87427">
        <ele>2767.5</ele>
        <time>2026-03-23T11:30:10Z</time>
      </trkpt>
      <trkpt lat="44.74545" lon="6.87427">
        <ele>2767.5</ele>
        <time>2026-03-23T11:30:11Z</time>
      </trkpt>
      <trkpt lat="44.74546" lon="6.87426">
        <ele>2767.5</ele>
        <time>2026-03-23T11:30:12Z</time>
      </trkpt>
      <trkpt lat="44.74546" lon="6.87425">
        <ele>2767.5</ele>
        <time>2026-03-23T11:30:13Z</time>
      </trkpt>
      <trkpt lat="44.74546" lon="6.87425">
        <ele>2767.5</ele>
        <time>2026-03-23T11:30:14Z</time>
      </trkpt>
      <trkpt lat="44.74546" lon="6.87425">
        <ele>2767.5</ele>
        <time>2026-03-23T11:30:15Z</time>
      </trkpt>
      <trkpt lat="44.74546" lon="6.87425">
        <ele>2767.5</ele>
        <time>2026-03-23T11:30:16Z</time>
      </trkpt>
      <trkpt lat="44.74546" lon="6.87426">
        <ele>2767.5</ele>
        <time>2026-03-23T11:30:17Z</time>
      </trkpt>
      <trkpt lat="44.74546" lon="6.87426">
        <ele>2767.5</ele>
        <time>2026-03-23T11:30:18Z</time>
      </trkpt>
      <trkpt lat="44.74546" lon="6.87426">
        <ele>2767.5</ele>
        <time>2026-03-23T11:30:19Z</time>
      </trkpt>
      <trkpt lat="44.74546" lon="6.87426">
        <ele>2767.5</ele>
        <time>2026-03-23T11:30:20Z</time>
      </trkpt>
      <trkpt lat="44.74546" lon="6.87426">
        <ele>2767.5</ele>
        <time>2026-03-23T11:30:21Z</time>
      </trkpt>
      <trkpt lat="44.74546" lon="6.87426">
        <ele>2767.5</ele>
        <time>2026-03-23T11:30:22Z</time>
      </trkpt>
      <trkpt lat="44.74546" lon="6.87426">
        <ele>2767.5</ele>
        <time>2026-03-23T11:30:23Z</time>
      </trkpt>
      <trkpt lat="44.74546" lon="6.87426">
        <ele>2767.5</ele>
        <time>2026-03-23T11:30:24Z</time>
      </trkpt>
      <trkpt lat="44.74546" lon="6.87425">
        <ele>2767.5</ele>
        <time>2026-03-23T11:30:25Z</time>
      </trkpt>
      <trkpt lat="44.74546" lon="6.87425">
        <ele>2767.6</ele>
        <time>2026-03-23T11:30:26Z</time>
      </trkpt>
      <trkpt lat="44.74546" lon="6.87425">
        <ele>2767.6</ele>
        <time>2026-03-23T11:30:27Z</time>
      </trkpt>
      <trkpt lat="44.74546" lon="6.87425">
        <ele>2767.6</ele>
        <time>2026-03-23T11:30:28Z</time>
      </trkpt>
      <trkpt lat="44.74546" lon="6.87425">
        <ele>2767.6</ele>
        <time>2026-03-23T11:30:29Z</time>
      </trkpt>
      <trkpt lat="44.74546" lon="6.87425">
        <ele>2767.6</ele>
        <time>2026-03-23T11:30:30Z</time>
      </trkpt>
      <trkpt lat="44.74546" lon="6.87425">
        <ele>2767.6</ele>
        <time>2026-03-23T11:30:31Z</time>
      </trkpt>
      <trkpt lat="44.74546" lon="6.87425">
        <ele>2767.6</ele>
        <time>2026-03-23T11:30:32Z</time>
      </trkpt>
      <trkpt lat="44.74546" lon="6.87425">
        <ele>2767.6</ele>
        <time>2026-03-23T11:30:33Z</time>
      </trkpt>
      <trkpt lat="44.74546" lon="6.87425">
        <ele>2767.6</ele>
        <time>2026-03-23T11:30:34Z</time>
      </trkpt>
      <trkpt lat="44.74546" lon="6.87425">
        <ele>2767.6</ele>
        <time>2026-03-23T11:30:35Z</time>
      </trkpt>
      <trkpt lat="44.74546" lon="6.87425">
        <ele>2767.6</ele>
        <time>2026-03-23T11:30:36Z</time>
      </trkpt>
      <trkpt lat="44.74546" lon="6.87425">
        <ele>2767.6</ele>
        <time>2026-03-23T11:30:37Z</time>
      </trkpt>
      <trkpt lat="44.74546" lon="6.87425">
        <ele>2767.6</ele>
        <time>2026-03-23T11:30:38Z</time>
      </trkpt>
      <trkpt lat="44.74546" lon="6.87425">
        <ele>2767.6</ele>
        <time>2026-03-23T11:30:39Z</time>
      </trkpt>
      <trkpt lat="44.74546" lon="6.87426">
        <ele>2767.6</ele>
        <time>2026-03-23T11:30:40Z</time>
      </trkpt>
      <trkpt lat="44.74546" lon="6.87426">
        <ele>2767.6</ele>
        <time>2026-03-23T11:30:41Z</time>
      </trkpt>
      <trkpt lat="44.74546" lon="6.87425">
        <ele>2767.6</ele>
        <time>2026-03-23T11:30:42Z</time>
      </trkpt>
      <trkpt lat="44.74546" lon="6.87425">
        <ele>2767.6</ele>
        <time>2026-03-23T11:30:43Z</time>
      </trkpt>
      <trkpt lat="44.74546" lon="6.87425">
        <ele>2767.6</ele>
        <time>2026-03-23T11:30:44Z</time>
      </trkpt>
      <trkpt lat="44.74546" lon="6.87425">
        <ele>2767.6</ele>
        <time>2026-03-23T11:30:45Z</time>
      </trkpt>
      <trkpt lat="44.74546" lon="6.87425">
        <ele>2767.6</ele>
        <time>2026-03-23T11:30:46Z</time>
      </trkpt>
      <trkpt lat="44.74546" lon="6.87425">
        <ele>2767.6</ele>
        <time>2026-03-23T11:30:47Z</time>
      </trkpt>
      <trkpt lat="44.74546" lon="6.87425">
        <ele>2767.6</ele>
        <time>2026-03-23T11:30:48Z</time>
      </trkpt>
      <trkpt lat="44.74546" lon="6.87425">
        <ele>2767.6</ele>
        <time>2026-03-23T11:30:49Z</time>
      </trkpt>
      <trkpt lat="44.74547" lon="6.87423">
        <ele>2767.6</ele>
        <time>2026-03-23T11:30:50Z</time>
      </trkpt>
      <trkpt lat="44.74547" lon="6.87422">
        <ele>2767.6</ele>
        <time>2026-03-23T11:30:51Z</time>
      </trkpt>
      <trkpt lat="44.74547" lon="6.87422">
        <ele>2767.6</ele>
        <time>2026-03-23T11:30:52Z</time>
      </trkpt>
      <trkpt lat="44.74547" lon="6.87422">
        <ele>2767.6</ele>
        <time>2026-03-23T11:30:53Z</time>
      </trkpt>
      <trkpt lat="44.74547" lon="6.87422">
        <ele>2767.6</ele>
        <time>2026-03-23T11:30:54Z</time>
      </trkpt>
      <trkpt lat="44.74547" lon="6.87422">
        <ele>2767.6</ele>
        <time>2026-03-23T11:30:55Z</time>
      </trkpt>
      <trkpt lat="44.74547" lon="6.87422">
        <ele>2767.6</ele>
        <time>2026-03-23T11:30:56Z</time>
      </trkpt>
      <trkpt lat="44.74547" lon="6.87422">
        <ele>2767.6</ele>
        <time>2026-03-23T11:30:57Z</time>
      </trkpt>
      <trkpt lat="44.74547" lon="6.87422">
        <ele>2767.6</ele>
        <time>2026-03-23T11:30:58Z</time>
      </trkpt>
      <trkpt lat="44.74547" lon="6.87422">
        <ele>2767.6</ele>
        <time>2026-03-23T11:30:59Z</time>
      </trkpt>
      <trkpt lat="44.74547" lon="6.87422">
        <ele>2767.6</ele>
        <time>2026-03-23T11:31:00Z</time>
      </trkpt>
      <trkpt lat="44.74547" lon="6.87422">
        <ele>2767.6</ele>
        <time>2026-03-23T11:31:01Z</time>
      </trkpt>
      <trkpt lat="44.74547" lon="6.87422">
        <ele>2767.6</ele>
        <time>2026-03-23T11:31:02Z</time>
      </trkpt>
      <trkpt lat="44.74547" lon="6.87422">
        <ele>2767.6</ele>
        <time>2026-03-23T11:31:03Z</time>
      </trkpt>
      <trkpt lat="44.74547" lon="6.87422">
        <ele>2767.6</ele>
        <time>2026-03-23T11:31:04Z</time>
      </trkpt>
      <trkpt lat="44.74547" lon="6.87422">
        <ele>2767.6</ele>
        <time>2026-03-23T11:31:05Z</time>
      </trkpt>
      <trkpt lat="44.74547" lon="6.87422">
        <ele>2767.6</ele>
        <time>2026-03-23T11:31:06Z</time>
      </trkpt>
      <trkpt lat="44.74547" lon="6.87423">
        <ele>2767.6</ele>
        <time>2026-03-23T11:31:07Z</time>
      </trkpt>
      <trkpt lat="44.74547" lon="6.87423">
        <ele>2767.6</ele>
        <time>2026-03-23T11:31:08Z</time>
      </trkpt>
      <trkpt lat="44.74546" lon="6.87424">
        <ele>2767.6</ele>
        <time>2026-03-23T11:31:09Z</time>
      </trkpt>
      <trkpt lat="44.74546" lon="6.87424">
        <ele>2767.6</ele>
        <time>2026-03-23T11:31:10Z</time>
      </trkpt>
      <trkpt lat="44.74546" lon="6.87424">
        <ele>2767.6</ele>
        <time>2026-03-23T11:31:11Z</time>
      </trkpt>
      <trkpt lat="44.74546" lon="6.87424">
        <ele>2767.7</ele>
        <time>2026-03-23T11:31:12Z</time>
      </trkpt>
      <trkpt lat="44.74546" lon="6.87424">
        <ele>2767.7</ele>
        <time>2026-03-23T11:31:13Z</time>
      </trkpt>
      <trkpt lat="44.74546" lon="6.87424">
        <ele>2767.7</ele>
        <time>2026-03-23T11:31:14Z</time>
      </trkpt>
      <trkpt lat="44.74546" lon="6.87424">
        <ele>2767.7</ele>
        <time>2026-03-23T11:31:15Z</time>
      </trkpt>
      <trkpt lat="44.74546" lon="6.87424">
        <ele>2767.7</ele>
        <time>2026-03-23T11:31:16Z</time>
      </trkpt>
      <trkpt lat="44.74546" lon="6.87424">
        <ele>2767.7</ele>
        <time>2026-03-23T11:31:17Z</time>
      </trkpt>
      <trkpt lat="44.74546" lon="6.87424">
        <ele>2767.7</ele>
        <time>2026-03-23T11:31:18Z</time>
      </trkpt>
      <trkpt lat="44.74546" lon="6.87424">
        <ele>2767.7</ele>
        <time>2026-03-23T11:31:19Z</time>
      </trkpt>
      <trkpt lat="44.74546" lon="6.87424">
        <ele>2767.7</ele>
        <time>2026-03-23T11:31:20Z</time>
      </trkpt>
      <trkpt lat="44.74546" lon="6.87424">
        <ele>2767.7</ele>
        <time>2026-03-23T11:31:21Z</time>
      </trkpt>
      <trkpt lat="44.74546" lon="6.87424">
        <ele>2767.7</ele>
        <time>2026-03-23T11:31:22Z</time>
      </trkpt>
      <trkpt lat="44.74546" lon="6.87424">
        <ele>2767.7</ele>
        <time>2026-03-23T11:31:23Z</time>
      </trkpt>
      <trkpt lat="44.74546" lon="6.87424">
        <ele>2767.7</ele>
        <time>2026-03-23T11:31:24Z</time>
      </trkpt>
      <trkpt lat="44.74546" lon="6.87424">
        <ele>2767.7</ele>
        <time>2026-03-23T11:31:25Z</time>
      </trkpt>
      <trkpt lat="44.74546" lon="6.87424">
        <ele>2767.7</ele>
        <time>2026-03-23T11:31:26Z</time>
      </trkpt>
      <trkpt lat="44.74546" lon="6.87424">
        <ele>2767.7</ele>
        <time>2026-03-23T11:31:27Z</time>
      </trkpt>
      <trkpt lat="44.74546" lon="6.87424">
        <ele>2767.7</ele>
        <time>2026-03-23T11:31:28Z</time>
      </trkpt>
      <trkpt lat="44.74546" lon="6.87424">
        <ele>2767.7</ele>
        <time>2026-03-23T11:31:29Z</time>
      </trkpt>
      <trkpt lat="44.74546" lon="6.87424">
        <ele>2767.7</ele>
        <time>2026-03-23T11:31:30Z</time>
      </trkpt>
      <trkpt lat="44.74546" lon="6.87424">
        <ele>2767.7</ele>
        <time>2026-03-23T11:31:31Z</time>
      </trkpt>
      <trkpt lat="44.74546" lon="6.87424">
        <ele>2767.7</ele>
        <time>2026-03-23T11:31:32Z</time>
      </trkpt>
      <trkpt lat="44.74546" lon="6.87425">
        <ele>2767.7</ele>
        <time>2026-03-23T11:31:33Z</time>
      </trkpt>
      <trkpt lat="44.74546" lon="6.87425">
        <ele>2767.7</ele>
        <time>2026-03-23T11:31:34Z</time>
      </trkpt>
      <trkpt lat="44.74546" lon="6.87425">
        <ele>2767.7</ele>
        <time>2026-03-23T11:31:35Z</time>
      </trkpt>
      <trkpt lat="44.74546" lon="6.87425">
        <ele>2767.7</ele>
        <time>2026-03-23T11:31:36Z</time>
      </trkpt>
      <trkpt lat="44.74546" lon="6.87425">
        <ele>2767.7</ele>
        <time>2026-03-23T11:31:37Z</time>
      </trkpt>
      <trkpt lat="44.74546" lon="6.87425">
        <ele>2767.7</ele>
        <time>2026-03-23T11:31:38Z</time>
      </trkpt>
      <trkpt lat="44.74546" lon="6.87425">
        <ele>2767.7</ele>
        <time>2026-03-23T11:31:39Z</time>
      </trkpt>
      <trkpt lat="44.74546" lon="6.87425">
        <ele>2767.7</ele>
        <time>2026-03-23T11:31:40Z</time>
      </trkpt>
      <trkpt lat="44.74546" lon="6.87425">
        <ele>2767.7</ele>
        <time>2026-03-23T11:31:41Z</time>
      </trkpt>
      <trkpt lat="44.74546" lon="6.87425">
        <ele>2767.7</ele>
        <time>2026-03-23T11:31:42Z</time>
      </trkpt>
      <trkpt lat="44.74546" lon="6.87425">
        <ele>2767.7</ele>
        <time>2026-03-23T11:31:43Z</time>
      </trkpt>
      <trkpt lat="44.74546" lon="6.87425">
        <ele>2767.7</ele>
        <time>2026-03-23T11:31:44Z</time>
      </trkpt>
      <trkpt lat="44.74546" lon="6.87426">
        <ele>2767.7</ele>
        <time>2026-03-23T11:31:45Z</time>
      </trkpt>
      <trkpt lat="44.74546" lon="6.87426">
        <ele>2767.7</ele>
        <time>2026-03-23T11:31:46Z</time>
      </trkpt>
      <trkpt lat="44.74546" lon="6.87426">
        <ele>2767.7</ele>
        <time>2026-03-23T11:31:47Z</time>
      </trkpt>
      <trkpt lat="44.74546" lon="6.87426">
        <ele>2767.7</ele>
        <time>2026-03-23T11:31:48Z</time>
      </trkpt>
      <trkpt lat="44.74546" lon="6.87426">
        <ele>2767.7</ele>
        <time>2026-03-23T11:31:49Z</time>
      </trkpt>
      <trkpt lat="44.74546" lon="6.87426">
        <ele>2767.7</ele>
        <time>2026-03-23T11:31:50Z</time>
      </trkpt>
      <trkpt lat="44.74546" lon="6.87426">
        <ele>2767.7</ele>
        <time>2026-03-23T11:31:51Z</time>
      </trkpt>
      <trkpt lat="44.74546" lon="6.87426">
        <ele>2767.7</ele>
        <time>2026-03-23T11:31:52Z</time>
      </trkpt>
      <trkpt lat="44.74546" lon="6.87426">
        <ele>2767.7</ele>
        <time>2026-03-23T11:31:53Z</time>
      </trkpt>
      <trkpt lat="44.74546" lon="6.87426">
        <ele>2767.7</ele>
        <time>2026-03-23T11:31:54Z</time>
      </trkpt>
      <trkpt lat="44.74546" lon="6.87426">
        <ele>2767.7</ele>
        <time>2026-03-23T11:31:55Z</time>
      </trkpt>
      <trkpt lat="44.74546" lon="6.87426">
        <ele>2767.7</ele>
        <time>2026-03-23T11:31:56Z</time>
      </trkpt>
      <trkpt lat="44.74546" lon="6.87426">
        <ele>2767.7</ele>
        <time>2026-03-23T11:31:57Z</time>
      </trkpt>
      <trkpt lat="44.74546" lon="6.87426">
        <ele>2767.7</ele>
        <time>2026-03-23T11:31:58Z</time>
      </trkpt>
      <trkpt lat="44.74546" lon="6.87426">
        <ele>2767.7</ele>
        <time>2026-03-23T11:31:59Z</time>
      </trkpt>
      <trkpt lat="44.74546" lon="6.87426">
        <ele>2767.7</ele>
        <time>2026-03-23T11:32:00Z</time>
      </trkpt>
      <trkpt lat="44.74546" lon="6.87426">
        <ele>2767.7</ele>
        <time>2026-03-23T11:32:01Z</time>
      </trkpt>
      <trkpt lat="44.74546" lon="6.87426">
        <ele>2767.7</ele>
        <time>2026-03-23T11:32:02Z</time>
      </trkpt>
      <trkpt lat="44.74546" lon="6.87426">
        <ele>2767.7</ele>
        <time>2026-03-23T11:32:03Z</time>
      </trkpt>
      <trkpt lat="44.74545" lon="6.87426">
        <ele>2767.7</ele>
        <time>2026-03-23T11:32:04Z</time>
      </trkpt>
      <trkpt lat="44.74545" lon="6.87426">
        <ele>2767.7</ele>
        <time>2026-03-23T11:32:05Z</time>
      </trkpt>
      <trkpt lat="44.74545" lon="6.87426">
        <ele>2767.7</ele>
        <time>2026-03-23T11:32:06Z</time>
      </trkpt>
      <trkpt lat="44.74545" lon="6.87426">
        <ele>2767.7</ele>
        <time>2026-03-23T11:32:07Z</time>
      </trkpt>
      <trkpt lat="44.74545" lon="6.87426">
        <ele>2767.7</ele>
        <time>2026-03-23T11:32:08Z</time>
      </trkpt>
      <trkpt lat="44.74545" lon="6.87426">
        <ele>2767.7</ele>
        <time>2026-03-23T11:32:09Z</time>
      </trkpt>
      <trkpt lat="44.74545" lon="6.87426">
        <ele>2767.7</ele>
        <time>2026-03-23T11:32:10Z</time>
      </trkpt>
      <trkpt lat="44.74545" lon="6.87426">
        <ele>2767.7</ele>
        <time>2026-03-23T11:32:11Z</time>
      </trkpt>
      <trkpt lat="44.74545" lon="6.87427">
        <ele>2767.7</ele>
        <time>2026-03-23T11:32:12Z</time>
      </trkpt>
      <trkpt lat="44.74545" lon="6.87427">
        <ele>2767.7</ele>
        <time>2026-03-23T11:32:13Z</time>
      </trkpt>
      <trkpt lat="44.74545" lon="6.87427">
        <ele>2767.7</ele>
        <time>2026-03-23T11:32:14Z</time>
      </trkpt>
      <trkpt lat="44.74545" lon="6.87427">
        <ele>2767.7</ele>
        <time>2026-03-23T11:32:15Z</time>
      </trkpt>
      <trkpt lat="44.74545" lon="6.87427">
        <ele>2767.7</ele>
        <time>2026-03-23T11:32:16Z</time>
      </trkpt>
      <trkpt lat="44.74545" lon="6.87427">
        <ele>2767.7</ele>
        <time>2026-03-23T11:32:17Z</time>
      </trkpt>
      <trkpt lat="44.74545" lon="6.87427">
        <ele>2767.7</ele>
        <time>2026-03-23T11:32:18Z</time>
      </trkpt>
      <trkpt lat="44.74545" lon="6.87427">
        <ele>2767.7</ele>
        <time>2026-03-23T11:32:19Z</time>
      </trkpt>
      <trkpt lat="44.74545" lon="6.87427">
        <ele>2767.7</ele>
        <time>2026-03-23T11:32:20Z</time>
      </trkpt>
      <trkpt lat="44.74545" lon="6.87427">
        <ele>2767.7</ele>
        <time>2026-03-23T11:32:21Z</time>
      </trkpt>
      <trkpt lat="44.74545" lon="6.87428">
        <ele>2767.7</ele>
        <time>2026-03-23T11:32:22Z</time>
      </trkpt>
      <trkpt lat="44.74546" lon="6.87428">
        <ele>2767.8</ele>
        <time>2026-03-23T11:32:23Z</time>
      </trkpt>
      <trkpt lat="44.74546" lon="6.87428">
        <ele>2767.8</ele>
        <time>2026-03-23T11:32:24Z</time>
      </trkpt>
      <trkpt lat="44.74546" lon="6.87428">
        <ele>2767.8</ele>
        <time>2026-03-23T11:32:25Z</time>
      </trkpt>
      <trkpt lat="44.74546" lon="6.87428">
        <ele>2767.8</ele>
        <time>2026-03-23T11:32:26Z</time>
      </trkpt>
      <trkpt lat="44.74546" lon="6.87428">
        <ele>2767.8</ele>
        <time>2026-03-23T11:32:27Z</time>
      </trkpt>
      <trkpt lat="44.74546" lon="6.87428">
        <ele>2767.8</ele>
        <time>2026-03-23T11:32:28Z</time>
      </trkpt>
      <trkpt lat="44.74546" lon="6.87428">
        <ele>2767.8</ele>
        <time>2026-03-23T11:32:29Z</time>
      </trkpt>
      <trkpt lat="44.74546" lon="6.87428">
        <ele>2767.8</ele>
        <time>2026-03-23T11:32:30Z</time>
      </trkpt>
      <trkpt lat="44.74546" lon="6.87427">
        <ele>2767.8</ele>
        <time>2026-03-23T11:32:31Z</time>
      </trkpt>
      <trkpt lat="44.74546" lon="6.87427">
        <ele>2767.8</ele>
        <time>2026-03-23T11:32:32Z</time>
      </trkpt>
      <trkpt lat="44.74546" lon="6.87427">
        <ele>2767.8</ele>
        <time>2026-03-23T11:32:33Z</time>
      </trkpt>
      <trkpt lat="44.74546" lon="6.87427">
        <ele>2767.8</ele>
        <time>2026-03-23T11:32:34Z</time>
      </trkpt>
      <trkpt lat="44.74546" lon="6.87427">
        <ele>2767.8</ele>
        <time>2026-03-23T11:32:35Z</time>
      </trkpt>
      <trkpt lat="44.74546" lon="6.87427">
        <ele>2767.8</ele>
        <time>2026-03-23T11:32:36Z</time>
      </trkpt>
      <trkpt lat="44.74546" lon="6.87427">
        <ele>2767.8</ele>
        <time>2026-03-23T11:32:37Z</time>
      </trkpt>
      <trkpt lat="44.74546" lon="6.87427">
        <ele>2767.8</ele>
        <time>2026-03-23T11:32:38Z</time>
      </trkpt>
      <trkpt lat="44.74546" lon="6.87427">
        <ele>2767.8</ele>
        <time>2026-03-23T11:32:39Z</time>
      </trkpt>
      <trkpt lat="44.74546" lon="6.87427">
        <ele>2767.8</ele>
        <time>2026-03-23T11:32:40Z</time>
      </trkpt>
      <trkpt lat="44.74546" lon="6.87427">
        <ele>2767.8</ele>
        <time>2026-03-23T11:32:41Z</time>
      </trkpt>
      <trkpt lat="44.74546" lon="6.87427">
        <ele>2767.8</ele>
        <time>2026-03-23T11:32:42Z</time>
      </trkpt>
      <trkpt lat="44.74546" lon="6.87427">
        <ele>2767.8</ele>
        <time>2026-03-23T11:32:43Z</time>
      </trkpt>
      <trkpt lat="44.74546" lon="6.87427">
        <ele>2767.8</ele>
        <time>2026-03-23T11:32:44Z</time>
      </trkpt>
      <trkpt lat="44.74546" lon="6.87426">
        <ele>2767.8</ele>
        <time>2026-03-23T11:32:45Z</time>
      </trkpt>
      <trkpt lat="44.74546" lon="6.87426">
        <ele>2767.8</ele>
        <time>2026-03-23T11:32:46Z</time>
      </trkpt>
      <trkpt lat="44.74546" lon="6.87426">
        <ele>2767.8</ele>
        <time>2026-03-23T11:32:47Z</time>
      </trkpt>
      <trkpt lat="44.74546" lon="6.87426">
        <ele>2767.8</ele>
        <time>2026-03-23T11:32:48Z</time>
      </trkpt>
      <trkpt lat="44.74546" lon="6.87426">
        <ele>2767.8</ele>
        <time>2026-03-23T11:32:49Z</time>
      </trkpt>
      <trkpt lat="44.74546" lon="6.87426">
        <ele>2767.8</ele>
        <time>2026-03-23T11:32:50Z</time>
      </trkpt>
      <trkpt lat="44.74546" lon="6.87426">
        <ele>2767.8</ele>
        <time>2026-03-23T11:32:51Z</time>
      </trkpt>
      <trkpt lat="44.74547" lon="6.87426">
        <ele>2767.8</ele>
        <time>2026-03-23T11:32:52Z</time>
      </trkpt>
      <trkpt lat="44.74547" lon="6.87426">
        <ele>2767.8</ele>
        <time>2026-03-23T11:32:53Z</time>
      </trkpt>
      <trkpt lat="44.74547" lon="6.87426">
        <ele>2767.8</ele>
        <time>2026-03-23T11:32:54Z</time>
      </trkpt>
      <trkpt lat="44.74547" lon="6.87426">
        <ele>2767.8</ele>
        <time>2026-03-23T11:32:55Z</time>
      </trkpt>
      <trkpt lat="44.74547" lon="6.87426">
        <ele>2767.8</ele>
        <time>2026-03-23T11:32:56Z</time>
      </trkpt>
      <trkpt lat="44.74547" lon="6.87426">
        <ele>2767.8</ele>
        <time>2026-03-23T11:32:57Z</time>
      </trkpt>
      <trkpt lat="44.74546" lon="6.87426">
        <ele>2767.8</ele>
        <time>2026-03-23T11:32:58Z</time>
      </trkpt>
      <trkpt lat="44.74546" lon="6.87426">
        <ele>2767.8</ele>
        <time>2026-03-23T11:32:59Z</time>
      </trkpt>
      <trkpt lat="44.74546" lon="6.87426">
        <ele>2767.8</ele>
        <time>2026-03-23T11:33:00Z</time>
      </trkpt>
      <trkpt lat="44.74546" lon="6.87426">
        <ele>2767.8</ele>
        <time>2026-03-23T11:33:01Z</time>
      </trkpt>
      <trkpt lat="44.74546" lon="6.87426">
        <ele>2767.8</ele>
        <time>2026-03-23T11:33:02Z</time>
      </trkpt>
      <trkpt lat="44.74546" lon="6.87426">
        <ele>2767.8</ele>
        <time>2026-03-23T11:33:03Z</time>
      </trkpt>
      <trkpt lat="44.74546" lon="6.87426">
        <ele>2767.8</ele>
        <time>2026-03-23T11:33:04Z</time>
      </trkpt>
      <trkpt lat="44.74546" lon="6.87426">
        <ele>2767.8</ele>
        <time>2026-03-23T11:33:05Z</time>
      </trkpt>
      <trkpt lat="44.74546" lon="6.87426">
        <ele>2767.8</ele>
        <time>2026-03-23T11:33:06Z</time>
      </trkpt>
      <trkpt lat="44.74546" lon="6.87426">
        <ele>2767.8</ele>
        <time>2026-03-23T11:33:07Z</time>
      </trkpt>
      <trkpt lat="44.74546" lon="6.87426">
        <ele>2767.8</ele>
        <time>2026-03-23T11:33:08Z</time>
      </trkpt>
      <trkpt lat="44.74546" lon="6.87427">
        <ele>2767.8</ele>
        <time>2026-03-23T11:33:09Z</time>
      </trkpt>
      <trkpt lat="44.74546" lon="6.87426">
        <ele>2767.9</ele>
        <time>2026-03-23T11:33:10Z</time>
      </trkpt>
      <trkpt lat="44.74545" lon="6.87426">
        <ele>2767.9</ele>
        <time>2026-03-23T11:33:11Z</time>
      </trkpt>
      <trkpt lat="44.74545" lon="6.87426">
        <ele>2767.9</ele>
        <time>2026-03-23T11:33:12Z</time>
      </trkpt>
      <trkpt lat="44.74545" lon="6.87426">
        <ele>2767.9</ele>
        <time>2026-03-23T11:33:13Z</time>
      </trkpt>
      <trkpt lat="44.74545" lon="6.87426">
        <ele>2767.9</ele>
        <time>2026-03-23T11:33:14Z</time>
      </trkpt>
      <trkpt lat="44.74546" lon="6.87426">
        <ele>2767.9</ele>
        <time>2026-03-23T11:33:15Z</time>
      </trkpt>
      <trkpt lat="44.74546" lon="6.87426">
        <ele>2767.9</ele>
        <time>2026-03-23T11:33:16Z</time>
      </trkpt>
      <trkpt lat="44.74546" lon="6.87426">
        <ele>2767.9</ele>
        <time>2026-03-23T11:33:17Z</time>
      </trkpt>
      <trkpt lat="44.74546" lon="6.87426">
        <ele>2767.9</ele>
        <time>2026-03-23T11:33:18Z</time>
      </trkpt>
      <trkpt lat="44.74546" lon="6.87426">
        <ele>2767.9</ele>
        <time>2026-03-23T11:33:19Z</time>
      </trkpt>
      <trkpt lat="44.74546" lon="6.87426">
        <ele>2767.9</ele>
        <time>2026-03-23T11:33:20Z</time>
      </trkpt>
      <trkpt lat="44.74546" lon="6.87426">
        <ele>2767.9</ele>
        <time>2026-03-23T11:33:21Z</time>
      </trkpt>
      <trkpt lat="44.74546" lon="6.87426">
        <ele>2767.9</ele>
        <time>2026-03-23T11:33:22Z</time>
      </trkpt>
      <trkpt lat="44.74546" lon="6.87426">
        <ele>2767.9</ele>
        <time>2026-03-23T11:33:23Z</time>
      </trkpt>
      <trkpt lat="44.74546" lon="6.87426">
        <ele>2767.9</ele>
        <time>2026-03-23T11:33:24Z</time>
      </trkpt>
      <trkpt lat="44.74546" lon="6.87426">
        <ele>2767.9</ele>
        <time>2026-03-23T11:33:25Z</time>
      </trkpt>
      <trkpt lat="44.74546" lon="6.87427">
        <ele>2767.9</ele>
        <time>2026-03-23T11:33:26Z</time>
      </trkpt>
      <trkpt lat="44.74546" lon="6.87427">
        <ele>2767.9</ele>
        <time>2026-03-23T11:33:27Z</time>
      </trkpt>
      <trkpt lat="44.74546" lon="6.87427">
        <ele>2767.9</ele>
        <time>2026-03-23T11:33:28Z</time>
      </trkpt>
      <trkpt lat="44.74546" lon="6.87427">
        <ele>2767.9</ele>
        <time>2026-03-23T11:33:29Z</time>
      </trkpt>
      <trkpt lat="44.74546" lon="6.87427">
        <ele>2767.9</ele>
        <time>2026-03-23T11:33:30Z</time>
      </trkpt>
      <trkpt lat="44.74546" lon="6.87427">
        <ele>2767.9</ele>
        <time>2026-03-23T11:33:31Z</time>
      </trkpt>
      <trkpt lat="44.74546" lon="6.87427">
        <ele>2767.9</ele>
        <time>2026-03-23T11:33:32Z</time>
      </trkpt>
      <trkpt lat="44.74546" lon="6.87427">
        <ele>2767.9</ele>
        <time>2026-03-23T11:33:33Z</time>
      </trkpt>
      <trkpt lat="44.74546" lon="6.87427">
        <ele>2767.9</ele>
        <time>2026-03-23T11:33:34Z</time>
      </trkpt>
      <trkpt lat="44.74546" lon="6.87427">
        <ele>2767.9</ele>
        <time>2026-03-23T11:33:35Z</time>
      </trkpt>
      <trkpt lat="44.74545" lon="6.87427">
        <ele>2767.9</ele>
        <time>2026-03-23T11:33:36Z</time>
      </trkpt>
      <trkpt lat="44.74545" lon="6.87427">
        <ele>2767.9</ele>
        <time>2026-03-23T11:33:37Z</time>
      </trkpt>
      <trkpt lat="44.74545" lon="6.87427">
        <ele>2767.9</ele>
        <time>2026-03-23T11:33:38Z</time>
      </trkpt>
      <trkpt lat="44.74545" lon="6.87427">
        <ele>2767.9</ele>
        <time>2026-03-23T11:33:39Z</time>
      </trkpt>
      <trkpt lat="44.74545" lon="6.87427">
        <ele>2767.9</ele>
        <time>2026-03-23T11:33:40Z</time>
      </trkpt>
      <trkpt lat="44.74545" lon="6.87427">
        <ele>2767.9</ele>
        <time>2026-03-23T11:33:41Z</time>
      </trkpt>
      <trkpt lat="44.74544" lon="6.87427">
        <ele>2767.9</ele>
        <time>2026-03-23T11:33:42Z</time>
      </trkpt>
      <trkpt lat="44.74544" lon="6.87427">
        <ele>2767.9</ele>
        <time>2026-03-23T11:33:43Z</time>
      </trkpt>
      <trkpt lat="44.74544" lon="6.87428">
        <ele>2767.9</ele>
        <time>2026-03-23T11:33:44Z</time>
      </trkpt>
      <trkpt lat="44.74544" lon="6.87428">
        <ele>2767.9</ele>
        <time>2026-03-23T11:33:45Z</time>
      </trkpt>
      <trkpt lat="44.74544" lon="6.87428">
        <ele>2767.9</ele>
        <time>2026-03-23T11:33:46Z</time>
      </trkpt>
      <trkpt lat="44.74544" lon="6.87428">
        <ele>2767.9</ele>
        <time>2026-03-23T11:33:47Z</time>
      </trkpt>
      <trkpt lat="44.74544" lon="6.87428">
        <ele>2767.9</ele>
        <time>2026-03-23T11:33:48Z</time>
      </trkpt>
      <trkpt lat="44.74544" lon="6.87428">
        <ele>2767.9</ele>
        <time>2026-03-23T11:33:49Z</time>
      </trkpt>
      <trkpt lat="44.74544" lon="6.87428">
        <ele>2767.9</ele>
        <time>2026-03-23T11:33:50Z</time>
      </trkpt>
      <trkpt lat="44.74544" lon="6.87428">
        <ele>2767.9</ele>
        <time>2026-03-23T11:33:51Z</time>
      </trkpt>
      <trkpt lat="44.74544" lon="6.87428">
        <ele>2767.9</ele>
        <time>2026-03-23T11:33:52Z</time>
      </trkpt>
      <trkpt lat="44.74544" lon="6.87428">
        <ele>2767.9</ele>
        <time>2026-03-23T11:33:53Z</time>
      </trkpt>
      <trkpt lat="44.74544" lon="6.87428">
        <ele>2767.9</ele>
        <time>2026-03-23T11:33:54Z</time>
      </trkpt>
      <trkpt lat="44.74544" lon="6.87428">
        <ele>2767.9</ele>
        <time>2026-03-23T11:33:55Z</time>
      </trkpt>
      <trkpt lat="44.74544" lon="6.87428">
        <ele>2767.9</ele>
        <time>2026-03-23T11:33:56Z</time>
      </trkpt>
      <trkpt lat="44.74544" lon="6.87428">
        <ele>2767.9</ele>
        <time>2026-03-23T11:33:57Z</time>
      </trkpt>
      <trkpt lat="44.74544" lon="6.87428">
        <ele>2767.9</ele>
        <time>2026-03-23T11:33:58Z</time>
      </trkpt>
      <trkpt lat="44.74544" lon="6.87428">
        <ele>2767.9</ele>
        <time>2026-03-23T11:33:59Z</time>
      </trkpt>
      <trkpt lat="44.74544" lon="6.87428">
        <ele>2767.9</ele>
        <time>2026-03-23T11:34:00Z</time>
      </trkpt>
      <trkpt lat="44.74544" lon="6.87428">
        <ele>2767.9</ele>
        <time>2026-03-23T11:34:01Z</time>
      </trkpt>
      <trkpt lat="44.74544" lon="6.87428">
        <ele>2767.9</ele>
        <time>2026-03-23T11:34:02Z</time>
      </trkpt>
      <trkpt lat="44.74544" lon="6.87428">
        <ele>2767.9</ele>
        <time>2026-03-23T11:34:03Z</time>
      </trkpt>
      <trkpt lat="44.74544" lon="6.87428">
        <ele>2767.9</ele>
        <time>2026-03-23T11:34:04Z</time>
      </trkpt>
      <trkpt lat="44.74544" lon="6.87428">
        <ele>2767.9</ele>
        <time>2026-03-23T11:34:05Z</time>
      </trkpt>
      <trkpt lat="44.74544" lon="6.87428">
        <ele>2767.9</ele>
        <time>2026-03-23T11:34:06Z</time>
      </trkpt>
      <trkpt lat="44.74544" lon="6.87428">
        <ele>2767.9</ele>
        <time>2026-03-23T11:34:07Z</time>
      </trkpt>
      <trkpt lat="44.74544" lon="6.87428">
        <ele>2767.9</ele>
        <time>2026-03-23T11:34:08Z</time>
      </trkpt>
      <trkpt lat="44.74544" lon="6.87428">
        <ele>2767.9</ele>
        <time>2026-03-23T11:34:09Z</time>
      </trkpt>
      <trkpt lat="44.74544" lon="6.87428">
        <ele>2767.9</ele>
        <time>2026-03-23T11:34:10Z</time>
      </trkpt>
      <trkpt lat="44.74544" lon="6.87428">
        <ele>2767.9</ele>
        <time>2026-03-23T11:34:11Z</time>
      </trkpt>
      <trkpt lat="44.74544" lon="6.87428">
        <ele>2767.9</ele>
        <time>2026-03-23T11:34:12Z</time>
      </trkpt>
      <trkpt lat="44.74544" lon="6.87428">
        <ele>2767.9</ele>
        <time>2026-03-23T11:34:13Z</time>
      </trkpt>
      <trkpt lat="44.74544" lon="6.87428">
        <ele>2767.9</ele>
        <time>2026-03-23T11:34:14Z</time>
      </trkpt>
      <trkpt lat="44.74544" lon="6.87428">
        <ele>2767.9</ele>
        <time>2026-03-23T11:34:15Z</time>
      </trkpt>
      <trkpt lat="44.74544" lon="6.87428">
        <ele>2767.9</ele>
        <time>2026-03-23T11:34:16Z</time>
      </trkpt>
      <trkpt lat="44.74544" lon="6.87428">
        <ele>2767.9</ele>
        <time>2026-03-23T11:34:17Z</time>
      </trkpt>
      <trkpt lat="44.74544" lon="6.87428">
        <ele>2767.9</ele>
        <time>2026-03-23T11:34:18Z</time>
      </trkpt>
      <trkpt lat="44.74544" lon="6.87428">
        <ele>2767.9</ele>
        <time>2026-03-23T11:34:19Z</time>
      </trkpt>
      <trkpt lat="44.74544" lon="6.87428">
        <ele>2767.9</ele>
        <time>2026-03-23T11:34:20Z</time>
      </trkpt>
      <trkpt lat="44.74544" lon="6.87428">
        <ele>2767.9</ele>
        <time>2026-03-23T11:34:21Z</time>
      </trkpt>
      <trkpt lat="44.74544" lon="6.87428">
        <ele>2767.9</ele>
        <time>2026-03-23T11:34:22Z</time>
      </trkpt>
      <trkpt lat="44.74544" lon="6.87427">
        <ele>2767.9</ele>
        <time>2026-03-23T11:34:23Z</time>
      </trkpt>
      <trkpt lat="44.74545" lon="6.87427">
        <ele>2767.9</ele>
        <time>2026-03-23T11:34:24Z</time>
      </trkpt>
      <trkpt lat="44.74545" lon="6.87427">
        <ele>2767.9</ele>
        <time>2026-03-23T11:34:25Z</time>
      </trkpt>
      <trkpt lat="44.74545" lon="6.87427">
        <ele>2767.9</ele>
        <time>2026-03-23T11:34:26Z</time>
      </trkpt>
      <trkpt lat="44.74545" lon="6.87427">
        <ele>2767.9</ele>
        <time>2026-03-23T11:34:27Z</time>
      </trkpt>
      <trkpt lat="44.74545" lon="6.87427">
        <ele>2767.9</ele>
        <time>2026-03-23T11:34:28Z</time>
      </trkpt>
      <trkpt lat="44.74545" lon="6.87427">
        <ele>2767.9</ele>
        <time>2026-03-23T11:34:29Z</time>
      </trkpt>
      <trkpt lat="44.74545" lon="6.87427">
        <ele>2768</ele>
        <time>2026-03-23T11:34:30Z</time>
      </trkpt>
      <trkpt lat="44.74545" lon="6.87427">
        <ele>2768</ele>
        <time>2026-03-23T11:34:31Z</time>
      </trkpt>
      <trkpt lat="44.74545" lon="6.87427">
        <ele>2768</ele>
        <time>2026-03-23T11:34:32Z</time>
      </trkpt>
      <trkpt lat="44.74545" lon="6.87427">
        <ele>2768</ele>
        <time>2026-03-23T11:34:33Z</time>
      </trkpt>
      <trkpt lat="44.74545" lon="6.87427">
        <ele>2768</ele>
        <time>2026-03-23T11:34:34Z</time>
      </trkpt>
      <trkpt lat="44.74545" lon="6.87427">
        <ele>2768</ele>
        <time>2026-03-23T11:34:35Z</time>
      </trkpt>
      <trkpt lat="44.74545" lon="6.87427">
        <ele>2768</ele>
        <time>2026-03-23T11:34:36Z</time>
      </trkpt>
      <trkpt lat="44.74545" lon="6.87427">
        <ele>2768</ele>
        <time>2026-03-23T11:34:37Z</time>
      </trkpt>
      <trkpt lat="44.74545" lon="6.87427">
        <ele>2768</ele>
        <time>2026-03-23T11:34:38Z</time>
      </trkpt>
      <trkpt lat="44.74545" lon="6.87427">
        <ele>2768</ele>
        <time>2026-03-23T11:34:39Z</time>
      </trkpt>
      <trkpt lat="44.74545" lon="6.87427">
        <ele>2768</ele>
        <time>2026-03-23T11:34:40Z</time>
      </trkpt>
      <trkpt lat="44.74545" lon="6.87427">
        <ele>2768</ele>
        <time>2026-03-23T11:34:41Z</time>
      </trkpt>
      <trkpt lat="44.74545" lon="6.87427">
        <ele>2768</ele>
        <time>2026-03-23T11:34:42Z</time>
      </trkpt>
      <trkpt lat="44.74545" lon="6.87427">
        <ele>2768</ele>
        <time>2026-03-23T11:34:43Z</time>
      </trkpt>
      <trkpt lat="44.74545" lon="6.87427">
        <ele>2768</ele>
        <time>2026-03-23T11:34:44Z</time>
      </trkpt>
      <trkpt lat="44.74545" lon="6.87427">
        <ele>2768</ele>
        <time>2026-03-23T11:34:45Z</time>
      </trkpt>
      <trkpt lat="44.74545" lon="6.87427">
        <ele>2768</ele>
        <time>2026-03-23T11:34:46Z</time>
      </trkpt>
      <trkpt lat="44.74545" lon="6.87427">
        <ele>2768</ele>
        <time>2026-03-23T11:34:47Z</time>
      </trkpt>
      <trkpt lat="44.74545" lon="6.87427">
        <ele>2768</ele>
        <time>2026-03-23T11:34:48Z</time>
      </trkpt>
      <trkpt lat="44.74545" lon="6.87427">
        <ele>2768</ele>
        <time>2026-03-23T11:34:49Z</time>
      </trkpt>
      <trkpt lat="44.74545" lon="6.87427">
        <ele>2768</ele>
        <time>2026-03-23T11:34:50Z</time>
      </trkpt>
      <trkpt lat="44.74545" lon="6.87427">
        <ele>2768</ele>
        <time>2026-03-23T11:34:51Z</time>
      </trkpt>
      <trkpt lat="44.74545" lon="6.87427">
        <ele>2768</ele>
        <time>2026-03-23T11:34:52Z</time>
      </trkpt>
      <trkpt lat="44.74545" lon="6.87427">
        <ele>2768</ele>
        <time>2026-03-23T11:34:53Z</time>
      </trkpt>
      <trkpt lat="44.74545" lon="6.87427">
        <ele>2768</ele>
        <time>2026-03-23T11:34:54Z</time>
      </trkpt>
      <trkpt lat="44.74544" lon="6.87427">
        <ele>2768</ele>
        <time>2026-03-23T11:34:55Z</time>
      </trkpt>
      <trkpt lat="44.74544" lon="6.87426">
        <ele>2768</ele>
        <time>2026-03-23T11:34:56Z</time>
      </trkpt>
      <trkpt lat="44.74544" lon="6.87426">
        <ele>2768</ele>
        <time>2026-03-23T11:34:57Z</time>
      </trkpt>
      <trkpt lat="44.74544" lon="6.87426">
        <ele>2768</ele>
        <time>2026-03-23T11:34:58Z</time>
      </trkpt>
      <trkpt lat="44.74544" lon="6.87426">
        <ele>2768</ele>
        <time>2026-03-23T11:34:59Z</time>
      </trkpt>
      <trkpt lat="44.74544" lon="6.87426">
        <ele>2768</ele>
        <time>2026-03-23T11:35:00Z</time>
      </trkpt>
      <trkpt lat="44.74544" lon="6.87426">
        <ele>2768</ele>
        <time>2026-03-23T11:35:01Z</time>
      </trkpt>
      <trkpt lat="44.74544" lon="6.87426">
        <ele>2768</ele>
        <time>2026-03-23T11:35:02Z</time>
      </trkpt>
      <trkpt lat="44.74544" lon="6.87426">
        <ele>2768</ele>
        <time>2026-03-23T11:35:03Z</time>
      </trkpt>
      <trkpt lat="44.74544" lon="6.87426">
        <ele>2768</ele>
        <time>2026-03-23T11:35:04Z</time>
      </trkpt>
      <trkpt lat="44.74544" lon="6.87426">
        <ele>2768</ele>
        <time>2026-03-23T11:35:05Z</time>
      </trkpt>
      <trkpt lat="44.74544" lon="6.87426">
        <ele>2768</ele>
        <time>2026-03-23T11:35:06Z</time>
      </trkpt>
      <trkpt lat="44.74544" lon="6.87426">
        <ele>2768</ele>
        <time>2026-03-23T11:35:07Z</time>
      </trkpt>
      <trkpt lat="44.74544" lon="6.87426">
        <ele>2768</ele>
        <time>2026-03-23T11:35:08Z</time>
      </trkpt>
      <trkpt lat="44.74544" lon="6.87426">
        <ele>2768</ele>
        <time>2026-03-23T11:35:09Z</time>
      </trkpt>
      <trkpt lat="44.74544" lon="6.87426">
        <ele>2768</ele>
        <time>2026-03-23T11:35:10Z</time>
      </trkpt>
      <trkpt lat="44.74544" lon="6.87426">
        <ele>2768</ele>
        <time>2026-03-23T11:35:11Z</time>
      </trkpt>
      <trkpt lat="44.74544" lon="6.87426">
        <ele>2768</ele>
        <time>2026-03-23T11:35:12Z</time>
      </trkpt>
      <trkpt lat="44.74544" lon="6.87426">
        <ele>2768</ele>
        <time>2026-03-23T11:35:13Z</time>
      </trkpt>
      <trkpt lat="44.74544" lon="6.87426">
        <ele>2768</ele>
        <time>2026-03-23T11:35:14Z</time>
      </trkpt>
      <trkpt lat="44.74544" lon="6.87426">
        <ele>2768</ele>
        <time>2026-03-23T11:35:15Z</time>
      </trkpt>
      <trkpt lat="44.74544" lon="6.87426">
        <ele>2768</ele>
        <time>2026-03-23T11:35:16Z</time>
      </trkpt>
      <trkpt lat="44.74544" lon="6.87426">
        <ele>2768</ele>
        <time>2026-03-23T11:35:17Z</time>
      </trkpt>
      <trkpt lat="44.74544" lon="6.87427">
        <ele>2768</ele>
        <time>2026-03-23T11:35:18Z</time>
      </trkpt>
      <trkpt lat="44.74544" lon="6.87427">
        <ele>2768</ele>
        <time>2026-03-23T11:35:19Z</time>
      </trkpt>
      <trkpt lat="44.74544" lon="6.87427">
        <ele>2768</ele>
        <time>2026-03-23T11:35:20Z</time>
      </trkpt>
      <trkpt lat="44.74544" lon="6.87427">
        <ele>2768</ele>
        <time>2026-03-23T11:35:21Z</time>
      </trkpt>
      <trkpt lat="44.74544" lon="6.87427">
        <ele>2768</ele>
        <time>2026-03-23T11:35:22Z</time>
      </trkpt>
      <trkpt lat="44.74544" lon="6.87427">
        <ele>2768</ele>
        <time>2026-03-23T11:35:23Z</time>
      </trkpt>
      <trkpt lat="44.74544" lon="6.87426">
        <ele>2768</ele>
        <time>2026-03-23T11:35:24Z</time>
      </trkpt>
      <trkpt lat="44.74544" lon="6.87426">
        <ele>2768</ele>
        <time>2026-03-23T11:35:25Z</time>
      </trkpt>
      <trkpt lat="44.74544" lon="6.87426">
        <ele>2768</ele>
        <time>2026-03-23T11:35:26Z</time>
      </trkpt>
      <trkpt lat="44.74544" lon="6.87426">
        <ele>2768</ele>
        <time>2026-03-23T11:35:27Z</time>
      </trkpt>
      <trkpt lat="44.74544" lon="6.87426">
        <ele>2768</ele>
        <time>2026-03-23T11:35:28Z</time>
      </trkpt>
      <trkpt lat="44.74544" lon="6.87426">
        <ele>2768</ele>
        <time>2026-03-23T11:35:29Z</time>
      </trkpt>
      <trkpt lat="44.74544" lon="6.87426">
        <ele>2768</ele>
        <time>2026-03-23T11:35:30Z</time>
      </trkpt>
      <trkpt lat="44.74544" lon="6.87426">
        <ele>2768</ele>
        <time>2026-03-23T11:35:31Z</time>
      </trkpt>
      <trkpt lat="44.74544" lon="6.87426">
        <ele>2768</ele>
        <time>2026-03-23T11:35:32Z</time>
      </trkpt>
      <trkpt lat="44.74544" lon="6.87426">
        <ele>2768</ele>
        <time>2026-03-23T11:35:33Z</time>
      </trkpt>
      <trkpt lat="44.74544" lon="6.87426">
        <ele>2768</ele>
        <time>2026-03-23T11:35:34Z</time>
      </trkpt>
      <trkpt lat="44.74544" lon="6.87426">
        <ele>2768</ele>
        <time>2026-03-23T11:35:35Z</time>
      </trkpt>
      <trkpt lat="44.74544" lon="6.87426">
        <ele>2768</ele>
        <time>2026-03-23T11:35:36Z</time>
      </trkpt>
      <trkpt lat="44.74544" lon="6.87426">
        <ele>2768</ele>
        <time>2026-03-23T11:35:37Z</time>
      </trkpt>
      <trkpt lat="44.74544" lon="6.87426">
        <ele>2768</ele>
        <time>2026-03-23T11:35:38Z</time>
      </trkpt>
      <trkpt lat="44.74544" lon="6.87426">
        <ele>2768</ele>
        <time>2026-03-23T11:35:39Z</time>
      </trkpt>
      <trkpt lat="44.74544" lon="6.87426">
        <ele>2768</ele>
        <time>2026-03-23T11:35:40Z</time>
      </trkpt>
      <trkpt lat="44.74544" lon="6.87426">
        <ele>2768</ele>
        <time>2026-03-23T11:35:41Z</time>
      </trkpt>
      <trkpt lat="44.74544" lon="6.87426">
        <ele>2768</ele>
        <time>2026-03-23T11:35:42Z</time>
      </trkpt>
      <trkpt lat="44.74544" lon="6.87426">
        <ele>2768</ele>
        <time>2026-03-23T11:35:43Z</time>
      </trkpt>
      <trkpt lat="44.74544" lon="6.87426">
        <ele>2768</ele>
        <time>2026-03-23T11:35:44Z</time>
      </trkpt>
      <trkpt lat="44.74544" lon="6.87426">
        <ele>2768</ele>
        <time>2026-03-23T11:35:45Z</time>
      </trkpt>
      <trkpt lat="44.74544" lon="6.87426">
        <ele>2768</ele>
        <time>2026-03-23T11:35:46Z</time>
      </trkpt>
      <trkpt lat="44.74544" lon="6.87426">
        <ele>2768</ele>
        <time>2026-03-23T11:35:47Z</time>
      </trkpt>
      <trkpt lat="44.74544" lon="6.87426">
        <ele>2768</ele>
        <time>2026-03-23T11:35:48Z</time>
      </trkpt>
      <trkpt lat="44.74544" lon="6.87426">
        <ele>2768</ele>
        <time>2026-03-23T11:35:49Z</time>
      </trkpt>
      <trkpt lat="44.74544" lon="6.87426">
        <ele>2768</ele>
        <time>2026-03-23T11:35:50Z</time>
      </trkpt>
      <trkpt lat="44.74544" lon="6.87426">
        <ele>2768</ele>
        <time>2026-03-23T11:35:51Z</time>
      </trkpt>
      <trkpt lat="44.74544" lon="6.87426">
        <ele>2768</ele>
        <time>2026-03-23T11:35:52Z</time>
      </trkpt>
      <trkpt lat="44.74544" lon="6.87426">
        <ele>2768</ele>
        <time>2026-03-23T11:35:53Z</time>
      </trkpt>
      <trkpt lat="44.74544" lon="6.87426">
        <ele>2768</ele>
        <time>2026-03-23T11:35:54Z</time>
      </trkpt>
      <trkpt lat="44.74544" lon="6.87426">
        <ele>2768</ele>
        <time>2026-03-23T11:35:55Z</time>
      </trkpt>
      <trkpt lat="44.74544" lon="6.87426">
        <ele>2768</ele>
        <time>2026-03-23T11:35:56Z</time>
      </trkpt>
      <trkpt lat="44.74544" lon="6.87426">
        <ele>2768</ele>
        <time>2026-03-23T11:35:57Z</time>
      </trkpt>
      <trkpt lat="44.74544" lon="6.87426">
        <ele>2768</ele>
        <time>2026-03-23T11:35:58Z</time>
      </trkpt>
      <trkpt lat="44.74544" lon="6.87426">
        <ele>2768</ele>
        <time>2026-03-23T11:35:59Z</time>
      </trkpt>
      <trkpt lat="44.74544" lon="6.87426">
        <ele>2768</ele>
        <time>2026-03-23T11:36:00Z</time>
      </trkpt>
      <trkpt lat="44.74544" lon="6.87426">
        <ele>2768</ele>
        <time>2026-03-23T11:36:01Z</time>
      </trkpt>
      <trkpt lat="44.74544" lon="6.87426">
        <ele>2768</ele>
        <time>2026-03-23T11:36:02Z</time>
      </trkpt>
      <trkpt lat="44.74544" lon="6.87427">
        <ele>2768</ele>
        <time>2026-03-23T11:36:03Z</time>
      </trkpt>
      <trkpt lat="44.74545" lon="6.87427">
        <ele>2768</ele>
        <time>2026-03-23T11:36:04Z</time>
      </trkpt>
      <trkpt lat="44.74545" lon="6.87427">
        <ele>2768</ele>
        <time>2026-03-23T11:36:05Z</time>
      </trkpt>
      <trkpt lat="44.74545" lon="6.87427">
        <ele>2768</ele>
        <time>2026-03-23T11:36:06Z</time>
      </trkpt>
      <trkpt lat="44.74545" lon="6.87427">
        <ele>2768</ele>
        <time>2026-03-23T11:36:07Z</time>
      </trkpt>
      <trkpt lat="44.74545" lon="6.87427">
        <ele>2768</ele>
        <time>2026-03-23T11:36:08Z</time>
      </trkpt>
      <trkpt lat="44.74545" lon="6.87427">
        <ele>2768</ele>
        <time>2026-03-23T11:36:09Z</time>
      </trkpt>
      <trkpt lat="44.74545" lon="6.87427">
        <ele>2768</ele>
        <time>2026-03-23T11:36:10Z</time>
      </trkpt>
      <trkpt lat="44.74545" lon="6.87427">
        <ele>2768</ele>
        <time>2026-03-23T11:36:11Z</time>
      </trkpt>
      <trkpt lat="44.74545" lon="6.87427">
        <ele>2768</ele>
        <time>2026-03-23T11:36:12Z</time>
      </trkpt>
      <trkpt lat="44.74545" lon="6.87427">
        <ele>2768</ele>
        <time>2026-03-23T11:36:13Z</time>
      </trkpt>
      <trkpt lat="44.74545" lon="6.87427">
        <ele>2768</ele>
        <time>2026-03-23T11:36:14Z</time>
      </trkpt>
      <trkpt lat="44.74545" lon="6.87427">
        <ele>2768</ele>
        <time>2026-03-23T11:36:15Z</time>
      </trkpt>
      <trkpt lat="44.74545" lon="6.87427">
        <ele>2768</ele>
        <time>2026-03-23T11:36:16Z</time>
      </trkpt>
      <trkpt lat="44.74545" lon="6.87427">
        <ele>2768</ele>
        <time>2026-03-23T11:36:17Z</time>
      </trkpt>
      <trkpt lat="44.74545" lon="6.87427">
        <ele>2768</ele>
        <time>2026-03-23T11:36:18Z</time>
      </trkpt>
      <trkpt lat="44.74545" lon="6.87427">
        <ele>2768</ele>
        <time>2026-03-23T11:36:19Z</time>
      </trkpt>
      <trkpt lat="44.74545" lon="6.87427">
        <ele>2768</ele>
        <time>2026-03-23T11:36:20Z</time>
      </trkpt>
      <trkpt lat="44.74545" lon="6.87427">
        <ele>2768</ele>
        <time>2026-03-23T11:36:21Z</time>
      </trkpt>
      <trkpt lat="44.74545" lon="6.87427">
        <ele>2768</ele>
        <time>2026-03-23T11:36:22Z</time>
      </trkpt>
      <trkpt lat="44.74545" lon="6.87427">
        <ele>2768</ele>
        <time>2026-03-23T11:36:23Z</time>
      </trkpt>
      <trkpt lat="44.74545" lon="6.87427">
        <ele>2768</ele>
        <time>2026-03-23T11:36:24Z</time>
      </trkpt>
      <trkpt lat="44.74545" lon="6.87427">
        <ele>2768</ele>
        <time>2026-03-23T11:36:25Z</time>
      </trkpt>
      <trkpt lat="44.74545" lon="6.87427">
        <ele>2768</ele>
        <time>2026-03-23T11:36:26Z</time>
      </trkpt>
      <trkpt lat="44.74545" lon="6.87427">
        <ele>2768</ele>
        <time>2026-03-23T11:36:27Z</time>
      </trkpt>
      <trkpt lat="44.74545" lon="6.87427">
        <ele>2768</ele>
        <time>2026-03-23T11:36:28Z</time>
      </trkpt>
      <trkpt lat="44.74545" lon="6.87427">
        <ele>2768</ele>
        <time>2026-03-23T11:36:29Z</time>
      </trkpt>
      <trkpt lat="44.74545" lon="6.87427">
        <ele>2768</ele>
        <time>2026-03-23T11:36:30Z</time>
      </trkpt>
      <trkpt lat="44.74545" lon="6.87427">
        <ele>2768</ele>
        <time>2026-03-23T11:36:31Z</time>
      </trkpt>
      <trkpt lat="44.74545" lon="6.87427">
        <ele>2768</ele>
        <time>2026-03-23T11:36:32Z</time>
      </trkpt>
      <trkpt lat="44.74545" lon="6.87427">
        <ele>2768</ele>
        <time>2026-03-23T11:36:33Z</time>
      </trkpt>
      <trkpt lat="44.74545" lon="6.87427">
        <ele>2768</ele>
        <time>2026-03-23T11:36:34Z</time>
      </trkpt>
      <trkpt lat="44.74545" lon="6.87427">
        <ele>2768</ele>
        <time>2026-03-23T11:36:35Z</time>
      </trkpt>
      <trkpt lat="44.74545" lon="6.87427">
        <ele>2768</ele>
        <time>2026-03-23T11:36:36Z</time>
      </trkpt>
      <trkpt lat="44.74545" lon="6.87427">
        <ele>2768</ele>
        <time>2026-03-23T11:36:37Z</time>
      </trkpt>
      <trkpt lat="44.74545" lon="6.87427">
        <ele>2768</ele>
        <time>2026-03-23T11:36:38Z</time>
      </trkpt>
      <trkpt lat="44.74545" lon="6.87427">
        <ele>2768</ele>
        <time>2026-03-23T11:36:39Z</time>
      </trkpt>
      <trkpt lat="44.74544" lon="6.87427">
        <ele>2768</ele>
        <time>2026-03-23T11:36:40Z</time>
      </trkpt>
      <trkpt lat="44.74545" lon="6.87427">
        <ele>2768</ele>
        <time>2026-03-23T11:36:41Z</time>
      </trkpt>
      <trkpt lat="44.74545" lon="6.87426">
        <ele>2768</ele>
        <time>2026-03-23T11:36:42Z</time>
      </trkpt>
      <trkpt lat="44.74545" lon="6.87426">
        <ele>2768</ele>
        <time>2026-03-23T11:36:43Z</time>
      </trkpt>
      <trkpt lat="44.74545" lon="6.87426">
        <ele>2768</ele>
        <time>2026-03-23T11:36:44Z</time>
      </trkpt>
      <trkpt lat="44.74545" lon="6.87426">
        <ele>2768</ele>
        <time>2026-03-23T11:36:45Z</time>
      </trkpt>
      <trkpt lat="44.74545" lon="6.87426">
        <ele>2768</ele>
        <time>2026-03-23T11:36:46Z</time>
      </trkpt>
      <trkpt lat="44.74545" lon="6.87426">
        <ele>2768</ele>
        <time>2026-03-23T11:36:47Z</time>
      </trkpt>
      <trkpt lat="44.74545" lon="6.87426">
        <ele>2768</ele>
        <time>2026-03-23T11:36:48Z</time>
      </trkpt>
      <trkpt lat="44.74545" lon="6.87426">
        <ele>2768</ele>
        <time>2026-03-23T11:36:49Z</time>
      </trkpt>
      <trkpt lat="44.74545" lon="6.87426">
        <ele>2768</ele>
        <time>2026-03-23T11:36:50Z</time>
      </trkpt>
      <trkpt lat="44.74545" lon="6.87426">
        <ele>2768</ele>
        <time>2026-03-23T11:36:51Z</time>
      </trkpt>
      <trkpt lat="44.74545" lon="6.87426">
        <ele>2768</ele>
        <time>2026-03-23T11:36:52Z</time>
      </trkpt>
      <trkpt lat="44.74545" lon="6.87426">
        <ele>2768</ele>
        <time>2026-03-23T11:36:53Z</time>
      </trkpt>
      <trkpt lat="44.74545" lon="6.87426">
        <ele>2768</ele>
        <time>2026-03-23T11:36:54Z</time>
      </trkpt>
      <trkpt lat="44.74545" lon="6.87427">
        <ele>2768</ele>
        <time>2026-03-23T11:36:55Z</time>
      </trkpt>
      <trkpt lat="44.74545" lon="6.87427">
        <ele>2768</ele>
        <time>2026-03-23T11:36:56Z</time>
      </trkpt>
      <trkpt lat="44.74545" lon="6.87427">
        <ele>2768.1</ele>
        <time>2026-03-23T11:36:57Z</time>
      </trkpt>
      <trkpt lat="44.74545" lon="6.87427">
        <ele>2768.1</ele>
        <time>2026-03-23T11:36:58Z</time>
      </trkpt>
      <trkpt lat="44.74545" lon="6.87427">
        <ele>2768.1</ele>
        <time>2026-03-23T11:36:59Z</time>
      </trkpt>
      <trkpt lat="44.74545" lon="6.87427">
        <ele>2768.1</ele>
        <time>2026-03-23T11:37:00Z</time>
      </trkpt>
      <trkpt lat="44.74545" lon="6.87427">
        <ele>2768.1</ele>
        <time>2026-03-23T11:37:01Z</time>
      </trkpt>
      <trkpt lat="44.74545" lon="6.87427">
        <ele>2768.1</ele>
        <time>2026-03-23T11:37:02Z</time>
      </trkpt>
      <trkpt lat="44.74545" lon="6.87427">
        <ele>2768.1</ele>
        <time>2026-03-23T11:37:03Z</time>
      </trkpt>
      <trkpt lat="44.74545" lon="6.87427">
        <ele>2768.1</ele>
        <time>2026-03-23T11:37:04Z</time>
      </trkpt>
      <trkpt lat="44.74545" lon="6.87427">
        <ele>2768.1</ele>
        <time>2026-03-23T11:37:05Z</time>
      </trkpt>
      <trkpt lat="44.74545" lon="6.87427">
        <ele>2768.1</ele>
        <time>2026-03-23T11:37:06Z</time>
      </trkpt>
      <trkpt lat="44.74545" lon="6.87427">
        <ele>2768.1</ele>
        <time>2026-03-23T11:37:07Z</time>
      </trkpt>
      <trkpt lat="44.74545" lon="6.87427">
        <ele>2768.1</ele>
        <time>2026-03-23T11:37:08Z</time>
      </trkpt>
      <trkpt lat="44.74545" lon="6.87427">
        <ele>2768.1</ele>
        <time>2026-03-23T11:37:09Z</time>
      </trkpt>
      <trkpt lat="44.74545" lon="6.87427">
        <ele>2768.1</ele>
        <time>2026-03-23T11:37:10Z</time>
      </trkpt>
      <trkpt lat="44.74545" lon="6.87427">
        <ele>2768.1</ele>
        <time>2026-03-23T11:37:11Z</time>
      </trkpt>
      <trkpt lat="44.74545" lon="6.87427">
        <ele>2768.1</ele>
        <time>2026-03-23T11:37:12Z</time>
      </trkpt>
      <trkpt lat="44.74545" lon="6.87427">
        <ele>2768.1</ele>
        <time>2026-03-23T11:37:13Z</time>
      </trkpt>
      <trkpt lat="44.74545" lon="6.87427">
        <ele>2768.1</ele>
        <time>2026-03-23T11:37:14Z</time>
      </trkpt>
      <trkpt lat="44.74545" lon="6.87427">
        <ele>2768.1</ele>
        <time>2026-03-23T11:37:15Z</time>
      </trkpt>
      <trkpt lat="44.74545" lon="6.87427">
        <ele>2768.1</ele>
        <time>2026-03-23T11:37:16Z</time>
      </trkpt>
      <trkpt lat="44.74545" lon="6.87427">
        <ele>2768.1</ele>
        <time>2026-03-23T11:37:17Z</time>
      </trkpt>
      <trkpt lat="44.74545" lon="6.87427">
        <ele>2768.1</ele>
        <time>2026-03-23T11:37:18Z</time>
      </trkpt>
      <trkpt lat="44.74545" lon="6.87427">
        <ele>2768.1</ele>
        <time>2026-03-23T11:37:19Z</time>
      </trkpt>
      <trkpt lat="44.74545" lon="6.87427">
        <ele>2768.1</ele>
        <time>2026-03-23T11:37:20Z</time>
      </trkpt>
      <trkpt lat="44.74545" lon="6.87428">
        <ele>2768.1</ele>
        <time>2026-03-23T11:37:21Z</time>
      </trkpt>
      <trkpt lat="44.74545" lon="6.87428">
        <ele>2768.1</ele>
        <time>2026-03-23T11:37:22Z</time>
      </trkpt>
      <trkpt lat="44.74545" lon="6.87428">
        <ele>2768.1</ele>
        <time>2026-03-23T11:37:23Z</time>
      </trkpt>
      <trkpt lat="44.74545" lon="6.87428">
        <ele>2768.1</ele>
        <time>2026-03-23T11:37:24Z</time>
      </trkpt>
      <trkpt lat="44.74545" lon="6.87428">
        <ele>2768.1</ele>
        <time>2026-03-23T11:37:25Z</time>
      </trkpt>
      <trkpt lat="44.74545" lon="6.87428">
        <ele>2768.1</ele>
        <time>2026-03-23T11:37:26Z</time>
      </trkpt>
      <trkpt lat="44.74545" lon="6.87428">
        <ele>2768.1</ele>
        <time>2026-03-23T11:37:27Z</time>
      </trkpt>
      <trkpt lat="44.74545" lon="6.87428">
        <ele>2768.1</ele>
        <time>2026-03-23T11:37:28Z</time>
      </trkpt>
      <trkpt lat="44.74545" lon="6.87428">
        <ele>2768.1</ele>
        <time>2026-03-23T11:37:29Z</time>
      </trkpt>
      <trkpt lat="44.74545" lon="6.87428">
        <ele>2768.1</ele>
        <time>2026-03-23T11:37:30Z</time>
      </trkpt>
      <trkpt lat="44.74545" lon="6.87428">
        <ele>2768.1</ele>
        <time>2026-03-23T11:37:31Z</time>
      </trkpt>
      <trkpt lat="44.74545" lon="6.87428">
        <ele>2768.1</ele>
        <time>2026-03-23T11:37:32Z</time>
      </trkpt>
      <trkpt lat="44.74545" lon="6.87428">
        <ele>2768.1</ele>
        <time>2026-03-23T11:37:33Z</time>
      </trkpt>
      <trkpt lat="44.74545" lon="6.87428">
        <ele>2768.1</ele>
        <time>2026-03-23T11:37:34Z</time>
      </trkpt>
      <trkpt lat="44.74545" lon="6.87428">
        <ele>2768.1</ele>
        <time>2026-03-23T11:37:35Z</time>
      </trkpt>
      <trkpt lat="44.74545" lon="6.87428">
        <ele>2768.1</ele>
        <time>2026-03-23T11:37:36Z</time>
      </trkpt>
      <trkpt lat="44.74545" lon="6.87428">
        <ele>2768.1</ele>
        <time>2026-03-23T11:37:37Z</time>
      </trkpt>
      <trkpt lat="44.74545" lon="6.87428">
        <ele>2768.1</ele>
        <time>2026-03-23T11:37:38Z</time>
      </trkpt>
      <trkpt lat="44.74545" lon="6.87428">
        <ele>2768.1</ele>
        <time>2026-03-23T11:37:39Z</time>
      </trkpt>
      <trkpt lat="44.74545" lon="6.87428">
        <ele>2768.1</ele>
        <time>2026-03-23T11:37:40Z</time>
      </trkpt>
      <trkpt lat="44.74545" lon="6.87428">
        <ele>2768.1</ele>
        <time>2026-03-23T11:37:41Z</time>
      </trkpt>
      <trkpt lat="44.74545" lon="6.87428">
        <ele>2768.1</ele>
        <time>2026-03-23T11:37:42Z</time>
      </trkpt>
      <trkpt lat="44.74545" lon="6.87428">
        <ele>2768.1</ele>
        <time>2026-03-23T11:37:43Z</time>
      </trkpt>
      <trkpt lat="44.74545" lon="6.87429">
        <ele>2768.1</ele>
        <time>2026-03-23T11:37:44Z</time>
      </trkpt>
      <trkpt lat="44.74545" lon="6.87429">
        <ele>2768.1</ele>
        <time>2026-03-23T11:37:45Z</time>
      </trkpt>
      <trkpt lat="44.74545" lon="6.87429">
        <ele>2768.1</ele>
        <time>2026-03-23T11:37:46Z</time>
      </trkpt>
      <trkpt lat="44.74545" lon="6.87428">
        <ele>2768.1</ele>
        <time>2026-03-23T11:37:47Z</time>
      </trkpt>
      <trkpt lat="44.74545" lon="6.87428">
        <ele>2768.1</ele>
        <time>2026-03-23T11:37:48Z</time>
      </trkpt>
      <trkpt lat="44.74545" lon="6.87428">
        <ele>2768.1</ele>
        <time>2026-03-23T11:37:49Z</time>
      </trkpt>
      <trkpt lat="44.74546" lon="6.87428">
        <ele>2768.1</ele>
        <time>2026-03-23T11:37:50Z</time>
      </trkpt>
      <trkpt lat="44.74546" lon="6.87428">
        <ele>2768.1</ele>
        <time>2026-03-23T11:37:51Z</time>
      </trkpt>
      <trkpt lat="44.74546" lon="6.87428">
        <ele>2768.1</ele>
        <time>2026-03-23T11:37:52Z</time>
      </trkpt>
      <trkpt lat="44.74546" lon="6.87428">
        <ele>2768.1</ele>
        <time>2026-03-23T11:37:53Z</time>
      </trkpt>
      <trkpt lat="44.74546" lon="6.87428">
        <ele>2768.1</ele>
        <time>2026-03-23T11:37:54Z</time>
      </trkpt>
      <trkpt lat="44.74546" lon="6.87428">
        <ele>2768.1</ele>
        <time>2026-03-23T11:37:55Z</time>
      </trkpt>
      <trkpt lat="44.74546" lon="6.87428">
        <ele>2768.1</ele>
        <time>2026-03-23T11:37:56Z</time>
      </trkpt>
      <trkpt lat="44.74546" lon="6.87428">
        <ele>2768.1</ele>
        <time>2026-03-23T11:37:57Z</time>
      </trkpt>
      <trkpt lat="44.74546" lon="6.87428">
        <ele>2768.1</ele>
        <time>2026-03-23T11:37:58Z</time>
      </trkpt>
      <trkpt lat="44.74546" lon="6.87428">
        <ele>2768.1</ele>
        <time>2026-03-23T11:37:59Z</time>
      </trkpt>
      <trkpt lat="44.74546" lon="6.87428">
        <ele>2768.1</ele>
        <time>2026-03-23T11:38:00Z</time>
      </trkpt>
      <trkpt lat="44.74546" lon="6.87428">
        <ele>2768.1</ele>
        <time>2026-03-23T11:38:01Z</time>
      </trkpt>
      <trkpt lat="44.74546" lon="6.87428">
        <ele>2768.1</ele>
        <time>2026-03-23T11:38:02Z</time>
      </trkpt>
      <trkpt lat="44.74546" lon="6.87428">
        <ele>2768.1</ele>
        <time>2026-03-23T11:38:03Z</time>
      </trkpt>
      <trkpt lat="44.74546" lon="6.87428">
        <ele>2768.1</ele>
        <time>2026-03-23T11:38:04Z</time>
      </trkpt>
      <trkpt lat="44.74546" lon="6.87428">
        <ele>2768.1</ele>
        <time>2026-03-23T11:38:05Z</time>
      </trkpt>
      <trkpt lat="44.74546" lon="6.87428">
        <ele>2768.1</ele>
        <time>2026-03-23T11:38:06Z</time>
      </trkpt>
      <trkpt lat="44.74546" lon="6.87428">
        <ele>2768.1</ele>
        <time>2026-03-23T11:38:07Z</time>
      </trkpt>
      <trkpt lat="44.74546" lon="6.87428">
        <ele>2768.1</ele>
        <time>2026-03-23T11:38:08Z</time>
      </trkpt>
      <trkpt lat="44.74546" lon="6.87428">
        <ele>2768.1</ele>
        <time>2026-03-23T11:38:09Z</time>
      </trkpt>
      <trkpt lat="44.74546" lon="6.87428">
        <ele>2768.1</ele>
        <time>2026-03-23T11:38:10Z</time>
      </trkpt>
      <trkpt lat="44.74546" lon="6.87428">
        <ele>2768.1</ele>
        <time>2026-03-23T11:38:11Z</time>
      </trkpt>
      <trkpt lat="44.74546" lon="6.87428">
        <ele>2768.1</ele>
        <time>2026-03-23T11:38:12Z</time>
      </trkpt>
      <trkpt lat="44.74546" lon="6.87428">
        <ele>2768.2</ele>
        <time>2026-03-23T11:38:13Z</time>
      </trkpt>
      <trkpt lat="44.74546" lon="6.87428">
        <ele>2768.2</ele>
        <time>2026-03-23T11:38:14Z</time>
      </trkpt>
      <trkpt lat="44.74546" lon="6.87428">
        <ele>2768.2</ele>
        <time>2026-03-23T11:38:15Z</time>
      </trkpt>
      <trkpt lat="44.74546" lon="6.87428">
        <ele>2768.2</ele>
        <time>2026-03-23T11:38:16Z</time>
      </trkpt>
      <trkpt lat="44.74546" lon="6.87428">
        <ele>2768.2</ele>
        <time>2026-03-23T11:38:17Z</time>
      </trkpt>
      <trkpt lat="44.74546" lon="6.87428">
        <ele>2768.2</ele>
        <time>2026-03-23T11:38:18Z</time>
      </trkpt>
      <trkpt lat="44.74546" lon="6.87428">
        <ele>2768.2</ele>
        <time>2026-03-23T11:38:19Z</time>
      </trkpt>
      <trkpt lat="44.74546" lon="6.87427">
        <ele>2768.2</ele>
        <time>2026-03-23T11:38:20Z</time>
      </trkpt>
      <trkpt lat="44.74546" lon="6.87427">
        <ele>2768.2</ele>
        <time>2026-03-23T11:38:21Z</time>
      </trkpt>
      <trkpt lat="44.74545" lon="6.87427">
        <ele>2768.2</ele>
        <time>2026-03-23T11:38:22Z</time>
      </trkpt>
      <trkpt lat="44.74545" lon="6.87427">
        <ele>2768.2</ele>
        <time>2026-03-23T11:38:23Z</time>
      </trkpt>
      <trkpt lat="44.74545" lon="6.87427">
        <ele>2768.2</ele>
        <time>2026-03-23T11:38:24Z</time>
      </trkpt>
      <trkpt lat="44.74545" lon="6.87427">
        <ele>2768.2</ele>
        <time>2026-03-23T11:38:25Z</time>
      </trkpt>
      <trkpt lat="44.74545" lon="6.87427">
        <ele>2768.2</ele>
        <time>2026-03-23T11:38:26Z</time>
      </trkpt>
      <trkpt lat="44.74545" lon="6.87427">
        <ele>2768.2</ele>
        <time>2026-03-23T11:38:27Z</time>
      </trkpt>
      <trkpt lat="44.74545" lon="6.87427">
        <ele>2768.2</ele>
        <time>2026-03-23T11:38:28Z</time>
      </trkpt>
      <trkpt lat="44.74545" lon="6.87427">
        <ele>2768.2</ele>
        <time>2026-03-23T11:38:29Z</time>
      </trkpt>
      <trkpt lat="44.74545" lon="6.87427">
        <ele>2768.2</ele>
        <time>2026-03-23T11:38:30Z</time>
      </trkpt>
      <trkpt lat="44.74545" lon="6.87427">
        <ele>2768.2</ele>
        <time>2026-03-23T11:38:31Z</time>
      </trkpt>
      <trkpt lat="44.74545" lon="6.87427">
        <ele>2768.2</ele>
        <time>2026-03-23T11:38:32Z</time>
      </trkpt>
      <trkpt lat="44.74545" lon="6.87427">
        <ele>2768.2</ele>
        <time>2026-03-23T11:38:33Z</time>
      </trkpt>
      <trkpt lat="44.74545" lon="6.87427">
        <ele>2768.2</ele>
        <time>2026-03-23T11:38:34Z</time>
      </trkpt>
      <trkpt lat="44.74545" lon="6.87427">
        <ele>2768.2</ele>
        <time>2026-03-23T11:38:35Z</time>
      </trkpt>
      <trkpt lat="44.74545" lon="6.87427">
        <ele>2768.2</ele>
        <time>2026-03-23T11:38:36Z</time>
      </trkpt>
      <trkpt lat="44.74545" lon="6.87427">
        <ele>2768.2</ele>
        <time>2026-03-23T11:38:37Z</time>
      </trkpt>
      <trkpt lat="44.74545" lon="6.87427">
        <ele>2768.2</ele>
        <time>2026-03-23T11:38:38Z</time>
      </trkpt>
      <trkpt lat="44.74545" lon="6.87427">
        <ele>2768.2</ele>
        <time>2026-03-23T11:38:39Z</time>
      </trkpt>
      <trkpt lat="44.74545" lon="6.87427">
        <ele>2768.2</ele>
        <time>2026-03-23T11:38:40Z</time>
      </trkpt>
      <trkpt lat="44.74545" lon="6.87427">
        <ele>2768.2</ele>
        <time>2026-03-23T11:38:41Z</time>
      </trkpt>
      <trkpt lat="44.74545" lon="6.87427">
        <ele>2768.2</ele>
        <time>2026-03-23T11:38:42Z</time>
      </trkpt>
      <trkpt lat="44.74545" lon="6.87427">
        <ele>2768.2</ele>
        <time>2026-03-23T11:38:43Z</time>
      </trkpt>
      <trkpt lat="44.74545" lon="6.87427">
        <ele>2768.2</ele>
        <time>2026-03-23T11:38:44Z</time>
      </trkpt>
      <trkpt lat="44.74545" lon="6.87427">
        <ele>2768.2</ele>
        <time>2026-03-23T11:38:45Z</time>
      </trkpt>
      <trkpt lat="44.74545" lon="6.87427">
        <ele>2768.2</ele>
        <time>2026-03-23T11:38:46Z</time>
      </trkpt>
      <trkpt lat="44.74545" lon="6.87427">
        <ele>2768.2</ele>
        <time>2026-03-23T11:38:47Z</time>
      </trkpt>
      <trkpt lat="44.74545" lon="6.87427">
        <ele>2768.2</ele>
        <time>2026-03-23T11:38:48Z</time>
      </trkpt>
      <trkpt lat="44.74545" lon="6.87427">
        <ele>2768.2</ele>
        <time>2026-03-23T11:38:49Z</time>
      </trkpt>
      <trkpt lat="44.74545" lon="6.87427">
        <ele>2768.2</ele>
        <time>2026-03-23T11:38:50Z</time>
      </trkpt>
      <trkpt lat="44.74545" lon="6.87427">
        <ele>2768.2</ele>
        <time>2026-03-23T11:38:51Z</time>
      </trkpt>
      <trkpt lat="44.74545" lon="6.87427">
        <ele>2768.2</ele>
        <time>2026-03-23T11:38:52Z</time>
      </trkpt>
      <trkpt lat="44.74545" lon="6.87427">
        <ele>2768.2</ele>
        <time>2026-03-23T11:38:53Z</time>
      </trkpt>
      <trkpt lat="44.74545" lon="6.87427">
        <ele>2768.2</ele>
        <time>2026-03-23T11:38:54Z</time>
      </trkpt>
      <trkpt lat="44.74545" lon="6.87427">
        <ele>2768.2</ele>
        <time>2026-03-23T11:38:55Z</time>
      </trkpt>
      <trkpt lat="44.74545" lon="6.87427">
        <ele>2768.2</ele>
        <time>2026-03-23T11:38:56Z</time>
      </trkpt>
      <trkpt lat="44.74545" lon="6.87427">
        <ele>2768.2</ele>
        <time>2026-03-23T11:38:57Z</time>
      </trkpt>
      <trkpt lat="44.74545" lon="6.87427">
        <ele>2768.2</ele>
        <time>2026-03-23T11:38:58Z</time>
      </trkpt>
      <trkpt lat="44.74545" lon="6.87427">
        <ele>2768.2</ele>
        <time>2026-03-23T11:38:59Z</time>
      </trkpt>
      <trkpt lat="44.74545" lon="6.87427">
        <ele>2768.2</ele>
        <time>2026-03-23T11:39:00Z</time>
      </trkpt>
      <trkpt lat="44.74545" lon="6.87427">
        <ele>2768.2</ele>
        <time>2026-03-23T11:39:01Z</time>
      </trkpt>
      <trkpt lat="44.74545" lon="6.87427">
        <ele>2768.2</ele>
        <time>2026-03-23T11:39:02Z</time>
      </trkpt>
      <trkpt lat="44.74545" lon="6.87427">
        <ele>2768.2</ele>
        <time>2026-03-23T11:39:03Z</time>
      </trkpt>
      <trkpt lat="44.74545" lon="6.87427">
        <ele>2768.2</ele>
        <time>2026-03-23T11:39:04Z</time>
      </trkpt>
      <trkpt lat="44.74545" lon="6.87427">
        <ele>2768.2</ele>
        <time>2026-03-23T11:39:05Z</time>
      </trkpt>
      <trkpt lat="44.74545" lon="6.87427">
        <ele>2768.2</ele>
        <time>2026-03-23T11:39:06Z</time>
      </trkpt>
      <trkpt lat="44.74545" lon="6.87427">
        <ele>2768.2</ele>
        <time>2026-03-23T11:39:07Z</time>
      </trkpt>
      <trkpt lat="44.74545" lon="6.87427">
        <ele>2768.2</ele>
        <time>2026-03-23T11:39:08Z</time>
      </trkpt>
      <trkpt lat="44.74545" lon="6.87427">
        <ele>2768.2</ele>
        <time>2026-03-23T11:39:09Z</time>
      </trkpt>
      <trkpt lat="44.74545" lon="6.87427">
        <ele>2768.2</ele>
        <time>2026-03-23T11:39:10Z</time>
      </trkpt>
      <trkpt lat="44.74545" lon="6.87427">
        <ele>2768.2</ele>
        <time>2026-03-23T11:39:11Z</time>
      </trkpt>
      <trkpt lat="44.74545" lon="6.87427">
        <ele>2768.2</ele>
        <time>2026-03-23T11:39:12Z</time>
      </trkpt>
      <trkpt lat="44.74545" lon="6.87427">
        <ele>2768.2</ele>
        <time>2026-03-23T11:39:13Z</time>
      </trkpt>
      <trkpt lat="44.74545" lon="6.87427">
        <ele>2768.2</ele>
        <time>2026-03-23T11:39:14Z</time>
      </trkpt>
      <trkpt lat="44.74545" lon="6.87427">
        <ele>2768.2</ele>
        <time>2026-03-23T11:39:15Z</time>
      </trkpt>
      <trkpt lat="44.74545" lon="6.87427">
        <ele>2768.2</ele>
        <time>2026-03-23T11:39:16Z</time>
      </trkpt>
      <trkpt lat="44.74545" lon="6.87427">
        <ele>2768.2</ele>
        <time>2026-03-23T11:39:17Z</time>
      </trkpt>
      <trkpt lat="44.74545" lon="6.87427">
        <ele>2768.2</ele>
        <time>2026-03-23T11:39:18Z</time>
      </trkpt>
      <trkpt lat="44.74545" lon="6.87427">
        <ele>2768.2</ele>
        <time>2026-03-23T11:39:19Z</time>
      </trkpt>
      <trkpt lat="44.74545" lon="6.87427">
        <ele>2768.2</ele>
        <time>2026-03-23T11:39:20Z</time>
      </trkpt>
      <trkpt lat="44.74545" lon="6.87427">
        <ele>2768.2</ele>
        <time>2026-03-23T11:39:21Z</time>
      </trkpt>
      <trkpt lat="44.74545" lon="6.87427">
        <ele>2768.2</ele>
        <time>2026-03-23T11:39:22Z</time>
      </trkpt>
      <trkpt lat="44.74545" lon="6.87427">
        <ele>2768.2</ele>
        <time>2026-03-23T11:39:23Z</time>
      </trkpt>
      <trkpt lat="44.74545" lon="6.87428">
        <ele>2768.2</ele>
        <time>2026-03-23T11:39:24Z</time>
      </trkpt>
      <trkpt lat="44.74545" lon="6.87428">
        <ele>2768.2</ele>
        <time>2026-03-23T11:39:25Z</time>
      </trkpt>
      <trkpt lat="44.74545" lon="6.87428">
        <ele>2768.2</ele>
        <time>2026-03-23T11:39:26Z</time>
      </trkpt>
      <trkpt lat="44.74544" lon="6.87428">
        <ele>2768.2</ele>
        <time>2026-03-23T11:39:27Z</time>
      </trkpt>
      <trkpt lat="44.74545" lon="6.87427">
        <ele>2768.2</ele>
        <time>2026-03-23T11:39:28Z</time>
      </trkpt>
      <trkpt lat="44.74545" lon="6.87427">
        <ele>2768.2</ele>
        <time>2026-03-23T11:39:29Z</time>
      </trkpt>
      <trkpt lat="44.74545" lon="6.87427">
        <ele>2768.2</ele>
        <time>2026-03-23T11:39:30Z</time>
      </trkpt>
      <trkpt lat="44.74545" lon="6.87427">
        <ele>2768.2</ele>
        <time>2026-03-23T11:39:31Z</time>
      </trkpt>
      <trkpt lat="44.74545" lon="6.87427">
        <ele>2768.2</ele>
        <time>2026-03-23T11:39:32Z</time>
      </trkpt>
      <trkpt lat="44.74545" lon="6.87427">
        <ele>2768.2</ele>
        <time>2026-03-23T11:39:33Z</time>
      </trkpt>
      <trkpt lat="44.74545" lon="6.87427">
        <ele>2768.2</ele>
        <time>2026-03-23T11:39:34Z</time>
      </trkpt>
      <trkpt lat="44.74545" lon="6.87427">
        <ele>2768.2</ele>
        <time>2026-03-23T11:39:35Z</time>
      </trkpt>
      <trkpt lat="44.74545" lon="6.87427">
        <ele>2768.2</ele>
        <time>2026-03-23T11:39:36Z</time>
      </trkpt>
      <trkpt lat="44.74545" lon="6.87427">
        <ele>2768.2</ele>
        <time>2026-03-23T11:39:37Z</time>
      </trkpt>
      <trkpt lat="44.74545" lon="6.87427">
        <ele>2768.2</ele>
        <time>2026-03-23T11:39:38Z</time>
      </trkpt>
      <trkpt lat="44.74545" lon="6.87427">
        <ele>2768.2</ele>
        <time>2026-03-23T11:39:39Z</time>
      </trkpt>
      <trkpt lat="44.74545" lon="6.87427">
        <ele>2768.2</ele>
        <time>2026-03-23T11:39:40Z</time>
      </trkpt>
      <trkpt lat="44.74545" lon="6.87427">
        <ele>2768.2</ele>
        <time>2026-03-23T11:39:41Z</time>
      </trkpt>
      <trkpt lat="44.74545" lon="6.87427">
        <ele>2768.2</ele>
        <time>2026-03-23T11:39:42Z</time>
      </trkpt>
      <trkpt lat="44.74545" lon="6.87427">
        <ele>2768.2</ele>
        <time>2026-03-23T11:39:43Z</time>
      </trkpt>
      <trkpt lat="44.74544" lon="6.87427">
        <ele>2768.3</ele>
        <time>2026-03-23T11:39:44Z</time>
      </trkpt>
      <trkpt lat="44.74544" lon="6.87427">
        <ele>2768.3</ele>
        <time>2026-03-23T11:39:45Z</time>
      </trkpt>
      <trkpt lat="44.74544" lon="6.87427">
        <ele>2768.3</ele>
        <time>2026-03-23T11:39:46Z</time>
      </trkpt>
      <trkpt lat="44.74543" lon="6.87427">
        <ele>2768.3</ele>
        <time>2026-03-23T11:39:47Z</time>
      </trkpt>
      <trkpt lat="44.74543" lon="6.87427">
        <ele>2768.3</ele>
        <time>2026-03-23T11:39:48Z</time>
      </trkpt>
      <trkpt lat="44.74543" lon="6.87427">
        <ele>2768.3</ele>
        <time>2026-03-23T11:39:49Z</time>
      </trkpt>
      <trkpt lat="44.74543" lon="6.87427">
        <ele>2768.3</ele>
        <time>2026-03-23T11:39:50Z</time>
      </trkpt>
      <trkpt lat="44.74543" lon="6.87427">
        <ele>2768.3</ele>
        <time>2026-03-23T11:39:51Z</time>
      </trkpt>
      <trkpt lat="44.74543" lon="6.87427">
        <ele>2768.3</ele>
        <time>2026-03-23T11:39:52Z</time>
      </trkpt>
      <trkpt lat="44.74543" lon="6.87427">
        <ele>2768.3</ele>
        <time>2026-03-23T11:39:53Z</time>
      </trkpt>
      <trkpt lat="44.74543" lon="6.87427">
        <ele>2768.3</ele>
        <time>2026-03-23T11:39:54Z</time>
      </trkpt>
      <trkpt lat="44.74543" lon="6.87427">
        <ele>2768.3</ele>
        <time>2026-03-23T11:39:55Z</time>
      </trkpt>
      <trkpt lat="44.74543" lon="6.87427">
        <ele>2768.3</ele>
        <time>2026-03-23T11:39:56Z</time>
      </trkpt>
      <trkpt lat="44.74543" lon="6.87427">
        <ele>2768.3</ele>
        <time>2026-03-23T11:39:57Z</time>
      </trkpt>
      <trkpt lat="44.74543" lon="6.87427">
        <ele>2768.3</ele>
        <time>2026-03-23T11:39:58Z</time>
      </trkpt>
      <trkpt lat="44.74543" lon="6.87427">
        <ele>2768.3</ele>
        <time>2026-03-23T11:39:59Z</time>
      </trkpt>
      <trkpt lat="44.74543" lon="6.87427">
        <ele>2768.3</ele>
        <time>2026-03-23T11:40:00Z</time>
      </trkpt>
      <trkpt lat="44.74543" lon="6.87427">
        <ele>2768.3</ele>
        <time>2026-03-23T11:40:01Z</time>
      </trkpt>
      <trkpt lat="44.74543" lon="6.87427">
        <ele>2768.3</ele>
        <time>2026-03-23T11:40:02Z</time>
      </trkpt>
      <trkpt lat="44.74543" lon="6.87427">
        <ele>2768.3</ele>
        <time>2026-03-23T11:40:03Z</time>
      </trkpt>
      <trkpt lat="44.74543" lon="6.87427">
        <ele>2768.3</ele>
        <time>2026-03-23T11:40:04Z</time>
      </trkpt>
      <trkpt lat="44.74544" lon="6.87427">
        <ele>2768.3</ele>
        <time>2026-03-23T11:40:05Z</time>
      </trkpt>
      <trkpt lat="44.74544" lon="6.87427">
        <ele>2768.3</ele>
        <time>2026-03-23T11:40:06Z</time>
      </trkpt>
      <trkpt lat="44.74544" lon="6.87427">
        <ele>2768.3</ele>
        <time>2026-03-23T11:40:07Z</time>
      </trkpt>
      <trkpt lat="44.74544" lon="6.87427">
        <ele>2768.3</ele>
        <time>2026-03-23T11:40:08Z</time>
      </trkpt>
      <trkpt lat="44.74544" lon="6.87427">
        <ele>2768.3</ele>
        <time>2026-03-23T11:40:09Z</time>
      </trkpt>
      <trkpt lat="44.74544" lon="6.87427">
        <ele>2768.3</ele>
        <time>2026-03-23T11:40:10Z</time>
      </trkpt>
      <trkpt lat="44.74544" lon="6.87427">
        <ele>2768.3</ele>
        <time>2026-03-23T11:40:11Z</time>
      </trkpt>
      <trkpt lat="44.74544" lon="6.87427">
        <ele>2768.3</ele>
        <time>2026-03-23T11:40:12Z</time>
      </trkpt>
      <trkpt lat="44.74544" lon="6.87427">
        <ele>2768.3</ele>
        <time>2026-03-23T11:40:13Z</time>
      </trkpt>
      <trkpt lat="44.74544" lon="6.87427">
        <ele>2768.3</ele>
        <time>2026-03-23T11:40:14Z</time>
      </trkpt>
      <trkpt lat="44.74544" lon="6.87427">
        <ele>2768.3</ele>
        <time>2026-03-23T11:40:15Z</time>
      </trkpt>
      <trkpt lat="44.74544" lon="6.87427">
        <ele>2768.3</ele>
        <time>2026-03-23T11:40:16Z</time>
      </trkpt>
      <trkpt lat="44.74544" lon="6.87427">
        <ele>2768.3</ele>
        <time>2026-03-23T11:40:17Z</time>
      </trkpt>
      <trkpt lat="44.74544" lon="6.87427">
        <ele>2768.3</ele>
        <time>2026-03-23T11:40:18Z</time>
      </trkpt>
      <trkpt lat="44.74544" lon="6.87427">
        <ele>2768.3</ele>
        <time>2026-03-23T11:40:19Z</time>
      </trkpt>
      <trkpt lat="44.74544" lon="6.87427">
        <ele>2768.3</ele>
        <time>2026-03-23T11:40:20Z</time>
      </trkpt>
      <trkpt lat="44.74544" lon="6.87427">
        <ele>2768.3</ele>
        <time>2026-03-23T11:40:21Z</time>
      </trkpt>
      <trkpt lat="44.74544" lon="6.87427">
        <ele>2768.3</ele>
        <time>2026-03-23T11:40:22Z</time>
      </trkpt>
      <trkpt lat="44.74544" lon="6.87427">
        <ele>2768.3</ele>
        <time>2026-03-23T11:40:23Z</time>
      </trkpt>
      <trkpt lat="44.74544" lon="6.87427">
        <ele>2768.3</ele>
        <time>2026-03-23T11:40:24Z</time>
      </trkpt>
      <trkpt lat="44.74544" lon="6.87427">
        <ele>2768.3</ele>
        <time>2026-03-23T11:40:25Z</time>
      </trkpt>
      <trkpt lat="44.74544" lon="6.87427">
        <ele>2768.3</ele>
        <time>2026-03-23T11:40:26Z</time>
      </trkpt>
      <trkpt lat="44.74544" lon="6.87427">
        <ele>2768.3</ele>
        <time>2026-03-23T11:40:27Z</time>
      </trkpt>
      <trkpt lat="44.74545" lon="6.87426">
        <ele>2768.3</ele>
        <time>2026-03-23T11:40:28Z</time>
      </trkpt>
      <trkpt lat="44.74545" lon="6.87426">
        <ele>2768.3</ele>
        <time>2026-03-23T11:40:29Z</time>
      </trkpt>
      <trkpt lat="44.74545" lon="6.87426">
        <ele>2768.3</ele>
        <time>2026-03-23T11:40:30Z</time>
      </trkpt>
      <trkpt lat="44.74545" lon="6.87426">
        <ele>2768.3</ele>
        <time>2026-03-23T11:40:31Z</time>
      </trkpt>
      <trkpt lat="44.74545" lon="6.87426">
        <ele>2768.3</ele>
        <time>2026-03-23T11:40:32Z</time>
      </trkpt>
      <trkpt lat="44.74545" lon="6.87426">
        <ele>2768.3</ele>
        <time>2026-03-23T11:40:33Z</time>
      </trkpt>
      <trkpt lat="44.74545" lon="6.87426">
        <ele>2768.3</ele>
        <time>2026-03-23T11:40:34Z</time>
      </trkpt>
      <trkpt lat="44.74545" lon="6.87426">
        <ele>2768.3</ele>
        <time>2026-03-23T11:40:35Z</time>
      </trkpt>
      <trkpt lat="44.74545" lon="6.87426">
        <ele>2768.3</ele>
        <time>2026-03-23T11:40:36Z</time>
      </trkpt>
      <trkpt lat="44.74545" lon="6.87426">
        <ele>2768.3</ele>
        <time>2026-03-23T11:40:37Z</time>
      </trkpt>
      <trkpt lat="44.74545" lon="6.87426">
        <ele>2768.3</ele>
        <time>2026-03-23T11:40:38Z</time>
      </trkpt>
      <trkpt lat="44.74545" lon="6.87426">
        <ele>2768.3</ele>
        <time>2026-03-23T11:40:39Z</time>
      </trkpt>
      <trkpt lat="44.74545" lon="6.87426">
        <ele>2768.3</ele>
        <time>2026-03-23T11:40:40Z</time>
      </trkpt>
      <trkpt lat="44.74545" lon="6.87426">
        <ele>2768.3</ele>
        <time>2026-03-23T11:40:41Z</time>
      </trkpt>
      <trkpt lat="44.74545" lon="6.87426">
        <ele>2768.3</ele>
        <time>2026-03-23T11:40:42Z</time>
      </trkpt>
      <trkpt lat="44.74545" lon="6.87426">
        <ele>2768.3</ele>
        <time>2026-03-23T11:40:43Z</time>
      </trkpt>
      <trkpt lat="44.74545" lon="6.87426">
        <ele>2768.3</ele>
        <time>2026-03-23T11:40:44Z</time>
      </trkpt>
      <trkpt lat="44.74545" lon="6.87426">
        <ele>2768.3</ele>
        <time>2026-03-23T11:40:45Z</time>
      </trkpt>
      <trkpt lat="44.74545" lon="6.87426">
        <ele>2768.3</ele>
        <time>2026-03-23T11:40:46Z</time>
      </trkpt>
      <trkpt lat="44.74545" lon="6.87426">
        <ele>2768.3</ele>
        <time>2026-03-23T11:40:47Z</time>
      </trkpt>
      <trkpt lat="44.74545" lon="6.87426">
        <ele>2768.3</ele>
        <time>2026-03-23T11:40:48Z</time>
      </trkpt>
      <trkpt lat="44.74545" lon="6.87426">
        <ele>2768.3</ele>
        <time>2026-03-23T11:40:49Z</time>
      </trkpt>
      <trkpt lat="44.74545" lon="6.87426">
        <ele>2768.3</ele>
        <time>2026-03-23T11:40:50Z</time>
      </trkpt>
      <trkpt lat="44.74545" lon="6.87426">
        <ele>2768.3</ele>
        <time>2026-03-23T11:40:51Z</time>
      </trkpt>
      <trkpt lat="44.74545" lon="6.87426">
        <ele>2768.3</ele>
        <time>2026-03-23T11:40:52Z</time>
      </trkpt>
      <trkpt lat="44.74545" lon="6.87426">
        <ele>2768.3</ele>
        <time>2026-03-23T11:40:53Z</time>
      </trkpt>
      <trkpt lat="44.74545" lon="6.87426">
        <ele>2768.3</ele>
        <time>2026-03-23T11:40:54Z</time>
      </trkpt>
      <trkpt lat="44.74545" lon="6.87426">
        <ele>2768.3</ele>
        <time>2026-03-23T11:40:55Z</time>
      </trkpt>
      <trkpt lat="44.74546" lon="6.87426">
        <ele>2768.3</ele>
        <time>2026-03-23T11:40:56Z</time>
      </trkpt>
      <trkpt lat="44.74546" lon="6.87427">
        <ele>2768.3</ele>
        <time>2026-03-23T11:40:57Z</time>
      </trkpt>
      <trkpt lat="44.74546" lon="6.87427">
        <ele>2768.3</ele>
        <time>2026-03-23T11:40:58Z</time>
      </trkpt>
      <trkpt lat="44.74546" lon="6.87427">
        <ele>2768.3</ele>
        <time>2026-03-23T11:40:59Z</time>
      </trkpt>
      <trkpt lat="44.74546" lon="6.87427">
        <ele>2768.3</ele>
        <time>2026-03-23T11:41:00Z</time>
      </trkpt>
      <trkpt lat="44.74546" lon="6.87427">
        <ele>2768.3</ele>
        <time>2026-03-23T11:41:01Z</time>
      </trkpt>
      <trkpt lat="44.74546" lon="6.87427">
        <ele>2768.3</ele>
        <time>2026-03-23T11:41:02Z</time>
      </trkpt>
      <trkpt lat="44.74546" lon="6.87427">
        <ele>2768.3</ele>
        <time>2026-03-23T11:41:03Z</time>
      </trkpt>
      <trkpt lat="44.74545" lon="6.87427">
        <ele>2768.4</ele>
        <time>2026-03-23T11:41:04Z</time>
      </trkpt>
      <trkpt lat="44.74545" lon="6.87427">
        <ele>2768.4</ele>
        <time>2026-03-23T11:41:05Z</time>
      </trkpt>
      <trkpt lat="44.74545" lon="6.87427">
        <ele>2768.4</ele>
        <time>2026-03-23T11:41:06Z</time>
      </trkpt>
      <trkpt lat="44.74545" lon="6.87426">
        <ele>2768.4</ele>
        <time>2026-03-23T11:41:07Z</time>
      </trkpt>
      <trkpt lat="44.74545" lon="6.87426">
        <ele>2768.4</ele>
        <time>2026-03-23T11:41:08Z</time>
      </trkpt>
      <trkpt lat="44.74545" lon="6.87426">
        <ele>2768.4</ele>
        <time>2026-03-23T11:41:09Z</time>
      </trkpt>
      <trkpt lat="44.74545" lon="6.87426">
        <ele>2768.4</ele>
        <time>2026-03-23T11:41:10Z</time>
      </trkpt>
      <trkpt lat="44.74545" lon="6.87426">
        <ele>2768.4</ele>
        <time>2026-03-23T11:41:11Z</time>
      </trkpt>
      <trkpt lat="44.74545" lon="6.87426">
        <ele>2768.4</ele>
        <time>2026-03-23T11:41:12Z</time>
      </trkpt>
      <trkpt lat="44.74545" lon="6.87426">
        <ele>2768.4</ele>
        <time>2026-03-23T11:41:13Z</time>
      </trkpt>
      <trkpt lat="44.74545" lon="6.87426">
        <ele>2768.4</ele>
        <time>2026-03-23T11:41:14Z</time>
      </trkpt>
      <trkpt lat="44.74545" lon="6.87426">
        <ele>2768.4</ele>
        <time>2026-03-23T11:41:15Z</time>
      </trkpt>
      <trkpt lat="44.74546" lon="6.87426">
        <ele>2768.4</ele>
        <time>2026-03-23T11:41:16Z</time>
      </trkpt>
      <trkpt lat="44.74546" lon="6.87426">
        <ele>2768.4</ele>
        <time>2026-03-23T11:41:17Z</time>
      </trkpt>
      <trkpt lat="44.74545" lon="6.87426">
        <ele>2768.4</ele>
        <time>2026-03-23T11:41:18Z</time>
      </trkpt>
      <trkpt lat="44.74545" lon="6.87426">
        <ele>2768.4</ele>
        <time>2026-03-23T11:41:19Z</time>
      </trkpt>
      <trkpt lat="44.74545" lon="6.87426">
        <ele>2768.4</ele>
        <time>2026-03-23T11:41:20Z</time>
      </trkpt>
      <trkpt lat="44.74545" lon="6.87426">
        <ele>2768.4</ele>
        <time>2026-03-23T11:41:21Z</time>
      </trkpt>
      <trkpt lat="44.74545" lon="6.87426">
        <ele>2768.4</ele>
        <time>2026-03-23T11:41:22Z</time>
      </trkpt>
      <trkpt lat="44.74545" lon="6.87426">
        <ele>2768.4</ele>
        <time>2026-03-23T11:41:23Z</time>
      </trkpt>
      <trkpt lat="44.74545" lon="6.87426">
        <ele>2768.4</ele>
        <time>2026-03-23T11:41:24Z</time>
      </trkpt>
      <trkpt lat="44.74545" lon="6.87426">
        <ele>2768.4</ele>
        <time>2026-03-23T11:41:25Z</time>
      </trkpt>
      <trkpt lat="44.74545" lon="6.87426">
        <ele>2768.4</ele>
        <time>2026-03-23T11:41:26Z</time>
      </trkpt>
      <trkpt lat="44.74545" lon="6.87426">
        <ele>2768.4</ele>
        <time>2026-03-23T11:41:27Z</time>
      </trkpt>
      <trkpt lat="44.74545" lon="6.87426">
        <ele>2768.4</ele>
        <time>2026-03-23T11:41:28Z</time>
      </trkpt>
      <trkpt lat="44.74545" lon="6.87426">
        <ele>2768.4</ele>
        <time>2026-03-23T11:41:29Z</time>
      </trkpt>
      <trkpt lat="44.74545" lon="6.87426">
        <ele>2768.4</ele>
        <time>2026-03-23T11:41:30Z</time>
      </trkpt>
      <trkpt lat="44.74545" lon="6.87426">
        <ele>2768.4</ele>
        <time>2026-03-23T11:41:31Z</time>
      </trkpt>
      <trkpt lat="44.74545" lon="6.87426">
        <ele>2768.4</ele>
        <time>2026-03-23T11:41:32Z</time>
      </trkpt>
      <trkpt lat="44.74545" lon="6.87426">
        <ele>2768.4</ele>
        <time>2026-03-23T11:41:33Z</time>
      </trkpt>
      <trkpt lat="44.74545" lon="6.87426">
        <ele>2768.4</ele>
        <time>2026-03-23T11:41:34Z</time>
      </trkpt>
      <trkpt lat="44.74544" lon="6.87426">
        <ele>2768.4</ele>
        <time>2026-03-23T11:41:35Z</time>
      </trkpt>
      <trkpt lat="44.74544" lon="6.87426">
        <ele>2768.4</ele>
        <time>2026-03-23T11:41:36Z</time>
      </trkpt>
      <trkpt lat="44.74544" lon="6.87426">
        <ele>2768.4</ele>
        <time>2026-03-23T11:41:37Z</time>
      </trkpt>
      <trkpt lat="44.74544" lon="6.87426">
        <ele>2768.4</ele>
        <time>2026-03-23T11:41:38Z</time>
      </trkpt>
      <trkpt lat="44.74544" lon="6.87426">
        <ele>2768.4</ele>
        <time>2026-03-23T11:41:39Z</time>
      </trkpt>
      <trkpt lat="44.74544" lon="6.87426">
        <ele>2768.4</ele>
        <time>2026-03-23T11:41:40Z</time>
      </trkpt>
      <trkpt lat="44.74544" lon="6.87426">
        <ele>2768.4</ele>
        <time>2026-03-23T11:41:41Z</time>
      </trkpt>
      <trkpt lat="44.74544" lon="6.87426">
        <ele>2768.4</ele>
        <time>2026-03-23T11:41:42Z</time>
      </trkpt>
      <trkpt lat="44.74544" lon="6.87426">
        <ele>2768.4</ele>
        <time>2026-03-23T11:41:43Z</time>
      </trkpt>
      <trkpt lat="44.74544" lon="6.87426">
        <ele>2768.4</ele>
        <time>2026-03-23T11:41:44Z</time>
      </trkpt>
      <trkpt lat="44.74544" lon="6.87426">
        <ele>2768.4</ele>
        <time>2026-03-23T11:41:45Z</time>
      </trkpt>
      <trkpt lat="44.74544" lon="6.87426">
        <ele>2768.4</ele>
        <time>2026-03-23T11:41:46Z</time>
      </trkpt>
      <trkpt lat="44.74544" lon="6.87426">
        <ele>2768.4</ele>
        <time>2026-03-23T11:41:47Z</time>
      </trkpt>
      <trkpt lat="44.74544" lon="6.87426">
        <ele>2768.4</ele>
        <time>2026-03-23T11:41:48Z</time>
      </trkpt>
      <trkpt lat="44.74544" lon="6.87426">
        <ele>2768.4</ele>
        <time>2026-03-23T11:41:49Z</time>
      </trkpt>
      <trkpt lat="44.74544" lon="6.87426">
        <ele>2768.4</ele>
        <time>2026-03-23T11:41:50Z</time>
      </trkpt>
      <trkpt lat="44.74544" lon="6.87426">
        <ele>2768.4</ele>
        <time>2026-03-23T11:41:51Z</time>
      </trkpt>
      <trkpt lat="44.74544" lon="6.87426">
        <ele>2768.4</ele>
        <time>2026-03-23T11:41:52Z</time>
      </trkpt>
      <trkpt lat="44.74544" lon="6.87426">
        <ele>2768.4</ele>
        <time>2026-03-23T11:41:53Z</time>
      </trkpt>
      <trkpt lat="44.74544" lon="6.87426">
        <ele>2768.4</ele>
        <time>2026-03-23T11:41:54Z</time>
      </trkpt>
      <trkpt lat="44.74544" lon="6.87426">
        <ele>2768.4</ele>
        <time>2026-03-23T11:41:55Z</time>
      </trkpt>
      <trkpt lat="44.74544" lon="6.87426">
        <ele>2768.4</ele>
        <time>2026-03-23T11:41:56Z</time>
      </trkpt>
      <trkpt lat="44.74544" lon="6.87426">
        <ele>2768.4</ele>
        <time>2026-03-23T11:41:57Z</time>
      </trkpt>
      <trkpt lat="44.74544" lon="6.87426">
        <ele>2768.4</ele>
        <time>2026-03-23T11:41:58Z</time>
      </trkpt>
      <trkpt lat="44.74544" lon="6.87426">
        <ele>2768.4</ele>
        <time>2026-03-23T11:41:59Z</time>
      </trkpt>
      <trkpt lat="44.74544" lon="6.87426">
        <ele>2768.4</ele>
        <time>2026-03-23T11:42:00Z</time>
      </trkpt>
      <trkpt lat="44.74544" lon="6.87426">
        <ele>2768.4</ele>
        <time>2026-03-23T11:42:01Z</time>
      </trkpt>
      <trkpt lat="44.74544" lon="6.87426">
        <ele>2768.4</ele>
        <time>2026-03-23T11:42:02Z</time>
      </trkpt>
      <trkpt lat="44.74544" lon="6.87426">
        <ele>2768.4</ele>
        <time>2026-03-23T11:42:03Z</time>
      </trkpt>
      <trkpt lat="44.74544" lon="6.87426">
        <ele>2768.4</ele>
        <time>2026-03-23T11:42:04Z</time>
      </trkpt>
      <trkpt lat="44.74544" lon="6.87426">
        <ele>2768.4</ele>
        <time>2026-03-23T11:42:05Z</time>
      </trkpt>
      <trkpt lat="44.74544" lon="6.87426">
        <ele>2768.4</ele>
        <time>2026-03-23T11:42:06Z</time>
      </trkpt>
      <trkpt lat="44.74544" lon="6.87426">
        <ele>2768.4</ele>
        <time>2026-03-23T11:42:07Z</time>
      </trkpt>
      <trkpt lat="44.74544" lon="6.87426">
        <ele>2768.4</ele>
        <time>2026-03-23T11:42:08Z</time>
      </trkpt>
      <trkpt lat="44.74544" lon="6.87426">
        <ele>2768.4</ele>
        <time>2026-03-23T11:42:09Z</time>
      </trkpt>
      <trkpt lat="44.74544" lon="6.87426">
        <ele>2768.4</ele>
        <time>2026-03-23T11:42:10Z</time>
      </trkpt>
      <trkpt lat="44.74544" lon="6.87426">
        <ele>2768.4</ele>
        <time>2026-03-23T11:42:11Z</time>
      </trkpt>
      <trkpt lat="44.74545" lon="6.87427">
        <ele>2768.4</ele>
        <time>2026-03-23T11:42:12Z</time>
      </trkpt>
      <trkpt lat="44.74545" lon="6.87427">
        <ele>2768.4</ele>
        <time>2026-03-23T11:42:13Z</time>
      </trkpt>
      <trkpt lat="44.74545" lon="6.87427">
        <ele>2768.5</ele>
        <time>2026-03-23T11:42:14Z</time>
      </trkpt>
      <trkpt lat="44.74545" lon="6.87427">
        <ele>2768.5</ele>
        <time>2026-03-23T11:42:15Z</time>
      </trkpt>
      <trkpt lat="44.74545" lon="6.87427">
        <ele>2768.5</ele>
        <time>2026-03-23T11:42:16Z</time>
      </trkpt>
      <trkpt lat="44.74546" lon="6.87427">
        <ele>2768.5</ele>
        <time>2026-03-23T11:42:17Z</time>
      </trkpt>
      <trkpt lat="44.74546" lon="6.87427">
        <ele>2768.5</ele>
        <time>2026-03-23T11:42:18Z</time>
      </trkpt>
      <trkpt lat="44.74546" lon="6.87427">
        <ele>2768.5</ele>
        <time>2026-03-23T11:42:19Z</time>
      </trkpt>
      <trkpt lat="44.74546" lon="6.87426">
        <ele>2768.5</ele>
        <time>2026-03-23T11:42:20Z</time>
      </trkpt>
      <trkpt lat="44.74546" lon="6.87426">
        <ele>2768.5</ele>
        <time>2026-03-23T11:42:21Z</time>
      </trkpt>
      <trkpt lat="44.74546" lon="6.87426">
        <ele>2768.5</ele>
        <time>2026-03-23T11:42:22Z</time>
      </trkpt>
      <trkpt lat="44.74546" lon="6.87426">
        <ele>2768.5</ele>
        <time>2026-03-23T11:42:23Z</time>
      </trkpt>
      <trkpt lat="44.74546" lon="6.87426">
        <ele>2768.5</ele>
        <time>2026-03-23T11:42:24Z</time>
      </trkpt>
      <trkpt lat="44.74546" lon="6.87426">
        <ele>2768.5</ele>
        <time>2026-03-23T11:42:25Z</time>
      </trkpt>
      <trkpt lat="44.74546" lon="6.87426">
        <ele>2768.5</ele>
        <time>2026-03-23T11:42:26Z</time>
      </trkpt>
      <trkpt lat="44.74546" lon="6.87426">
        <ele>2768.5</ele>
        <time>2026-03-23T11:42:27Z</time>
      </trkpt>
      <trkpt lat="44.74546" lon="6.87426">
        <ele>2768.5</ele>
        <time>2026-03-23T11:42:28Z</time>
      </trkpt>
      <trkpt lat="44.74546" lon="6.87426">
        <ele>2768.5</ele>
        <time>2026-03-23T11:42:29Z</time>
      </trkpt>
      <trkpt lat="44.74546" lon="6.87426">
        <ele>2768.5</ele>
        <time>2026-03-23T11:42:30Z</time>
      </trkpt>
      <trkpt lat="44.74546" lon="6.87426">
        <ele>2768.5</ele>
        <time>2026-03-23T11:42:31Z</time>
      </trkpt>
      <trkpt lat="44.74546" lon="6.87426">
        <ele>2768.5</ele>
        <time>2026-03-23T11:42:32Z</time>
      </trkpt>
      <trkpt lat="44.74546" lon="6.87427">
        <ele>2768.5</ele>
        <time>2026-03-23T11:42:33Z</time>
      </trkpt>
      <trkpt lat="44.74546" lon="6.87426">
        <ele>2768.5</ele>
        <time>2026-03-23T11:42:34Z</time>
      </trkpt>
      <trkpt lat="44.74546" lon="6.87426">
        <ele>2768.5</ele>
        <time>2026-03-23T11:42:35Z</time>
      </trkpt>
      <trkpt lat="44.74546" lon="6.87426">
        <ele>2768.5</ele>
        <time>2026-03-23T11:42:36Z</time>
      </trkpt>
      <trkpt lat="44.74546" lon="6.87426">
        <ele>2768.5</ele>
        <time>2026-03-23T11:42:37Z</time>
      </trkpt>
      <trkpt lat="44.74546" lon="6.87426">
        <ele>2768.5</ele>
        <time>2026-03-23T11:42:38Z</time>
      </trkpt>
      <trkpt lat="44.74546" lon="6.87426">
        <ele>2768.5</ele>
        <time>2026-03-23T11:42:39Z</time>
      </trkpt>
      <trkpt lat="44.74545" lon="6.87426">
        <ele>2768.5</ele>
        <time>2026-03-23T11:42:40Z</time>
      </trkpt>
      <trkpt lat="44.74545" lon="6.87426">
        <ele>2768.5</ele>
        <time>2026-03-23T11:42:41Z</time>
      </trkpt>
      <trkpt lat="44.74545" lon="6.87426">
        <ele>2768.5</ele>
        <time>2026-03-23T11:42:42Z</time>
      </trkpt>
      <trkpt lat="44.74545" lon="6.87425">
        <ele>2768.5</ele>
        <time>2026-03-23T11:42:43Z</time>
      </trkpt>
      <trkpt lat="44.74545" lon="6.87425">
        <ele>2768.5</ele>
        <time>2026-03-23T11:42:44Z</time>
      </trkpt>
      <trkpt lat="44.74545" lon="6.87425">
        <ele>2768.5</ele>
        <time>2026-03-23T11:42:45Z</time>
      </trkpt>
      <trkpt lat="44.74545" lon="6.87426">
        <ele>2768.5</ele>
        <time>2026-03-23T11:42:46Z</time>
      </trkpt>
      <trkpt lat="44.74545" lon="6.87426">
        <ele>2768.5</ele>
        <time>2026-03-23T11:42:47Z</time>
      </trkpt>
      <trkpt lat="44.74545" lon="6.87426">
        <ele>2768.5</ele>
        <time>2026-03-23T11:42:48Z</time>
      </trkpt>
      <trkpt lat="44.74545" lon="6.87427">
        <ele>2768.5</ele>
        <time>2026-03-23T11:42:49Z</time>
      </trkpt>
      <trkpt lat="44.74546" lon="6.87427">
        <ele>2768.6</ele>
        <time>2026-03-23T11:42:50Z</time>
      </trkpt>
      <trkpt lat="44.74546" lon="6.87428">
        <ele>2768.6</ele>
        <time>2026-03-23T11:42:51Z</time>
      </trkpt>
      <trkpt lat="44.74547" lon="6.87428">
        <ele>2768.6</ele>
        <time>2026-03-23T11:42:52Z</time>
      </trkpt>
      <trkpt lat="44.74547" lon="6.87428">
        <ele>2768.6</ele>
        <time>2026-03-23T11:42:53Z</time>
      </trkpt>
      <trkpt lat="44.74546" lon="6.87428">
        <ele>2768.6</ele>
        <time>2026-03-23T11:42:54Z</time>
      </trkpt>
      <trkpt lat="44.74546" lon="6.87428">
        <ele>2768.6</ele>
        <time>2026-03-23T11:42:55Z</time>
      </trkpt>
      <trkpt lat="44.74545" lon="6.87428">
        <ele>2768.6</ele>
        <time>2026-03-23T11:42:56Z</time>
      </trkpt>
      <trkpt lat="44.74545" lon="6.87428">
        <ele>2768.6</ele>
        <time>2026-03-23T11:42:57Z</time>
      </trkpt>
      <trkpt lat="44.74545" lon="6.87428">
        <ele>2768.6</ele>
        <time>2026-03-23T11:42:58Z</time>
      </trkpt>
      <trkpt lat="44.74545" lon="6.87428">
        <ele>2768.6</ele>
        <time>2026-03-23T11:42:59Z</time>
      </trkpt>
      <trkpt lat="44.74545" lon="6.87428">
        <ele>2768.6</ele>
        <time>2026-03-23T11:43:00Z</time>
      </trkpt>
      <trkpt lat="44.74545" lon="6.87428">
        <ele>2768.6</ele>
        <time>2026-03-23T11:43:01Z</time>
      </trkpt>
      <trkpt lat="44.74545" lon="6.87428">
        <ele>2768.6</ele>
        <time>2026-03-23T11:43:02Z</time>
      </trkpt>
      <trkpt lat="44.74545" lon="6.87428">
        <ele>2768.6</ele>
        <time>2026-03-23T11:43:03Z</time>
      </trkpt>
      <trkpt lat="44.74545" lon="6.87428">
        <ele>2768.6</ele>
        <time>2026-03-23T11:43:04Z</time>
      </trkpt>
      <trkpt lat="44.74545" lon="6.87428">
        <ele>2768.6</ele>
        <time>2026-03-23T11:43:05Z</time>
      </trkpt>
      <trkpt lat="44.74545" lon="6.87428">
        <ele>2768.6</ele>
        <time>2026-03-23T11:43:06Z</time>
      </trkpt>
      <trkpt lat="44.74545" lon="6.87428">
        <ele>2768.6</ele>
        <time>2026-03-23T11:43:07Z</time>
      </trkpt>
      <trkpt lat="44.74545" lon="6.87428">
        <ele>2768.6</ele>
        <time>2026-03-23T11:43:08Z</time>
      </trkpt>
      <trkpt lat="44.74545" lon="6.87429">
        <ele>2768.6</ele>
        <time>2026-03-23T11:43:09Z</time>
      </trkpt>
      <trkpt lat="44.74545" lon="6.87429">
        <ele>2768.6</ele>
        <time>2026-03-23T11:43:10Z</time>
      </trkpt>
      <trkpt lat="44.74545" lon="6.87429">
        <ele>2768.6</ele>
        <time>2026-03-23T11:43:11Z</time>
      </trkpt>
      <trkpt lat="44.74545" lon="6.87429">
        <ele>2768.6</ele>
        <time>2026-03-23T11:43:12Z</time>
      </trkpt>
      <trkpt lat="44.74545" lon="6.87429">
        <ele>2768.6</ele>
        <time>2026-03-23T11:43:13Z</time>
      </trkpt>
      <trkpt lat="44.74545" lon="6.87429">
        <ele>2768.6</ele>
        <time>2026-03-23T11:43:14Z</time>
      </trkpt>
      <trkpt lat="44.74545" lon="6.87429">
        <ele>2768.6</ele>
        <time>2026-03-23T11:43:15Z</time>
      </trkpt>
      <trkpt lat="44.74545" lon="6.87428">
        <ele>2768.6</ele>
        <time>2026-03-23T11:43:16Z</time>
      </trkpt>
      <trkpt lat="44.74545" lon="6.87428">
        <ele>2768.6</ele>
        <time>2026-03-23T11:43:17Z</time>
      </trkpt>
      <trkpt lat="44.74544" lon="6.87428">
        <ele>2768.7</ele>
        <time>2026-03-23T11:43:18Z</time>
      </trkpt>
      <trkpt lat="44.74543" lon="6.87427">
        <ele>2768.7</ele>
        <time>2026-03-23T11:43:19Z</time>
      </trkpt>
      <trkpt lat="44.74543" lon="6.87426">
        <ele>2768.7</ele>
        <time>2026-03-23T11:43:20Z</time>
      </trkpt>
      <trkpt lat="44.74542" lon="6.87426">
        <ele>2768.7</ele>
        <time>2026-03-23T11:43:21Z</time>
      </trkpt>
      <trkpt lat="44.74542" lon="6.87425">
        <ele>2768.7</ele>
        <time>2026-03-23T11:43:22Z</time>
      </trkpt>
      <trkpt lat="44.74542" lon="6.87425">
        <ele>2768.7</ele>
        <time>2026-03-23T11:43:23Z</time>
      </trkpt>
      <trkpt lat="44.74542" lon="6.87425">
        <ele>2768.7</ele>
        <time>2026-03-23T11:43:24Z</time>
      </trkpt>
      <trkpt lat="44.74542" lon="6.87424">
        <ele>2768.7</ele>
        <time>2026-03-23T11:43:25Z</time>
      </trkpt>
      <trkpt lat="44.74542" lon="6.87424">
        <ele>2768.7</ele>
        <time>2026-03-23T11:43:26Z</time>
      </trkpt>
      <trkpt lat="44.74542" lon="6.87424">
        <ele>2768.7</ele>
        <time>2026-03-23T11:43:27Z</time>
      </trkpt>
      <trkpt lat="44.74542" lon="6.87424">
        <ele>2768.7</ele>
        <time>2026-03-23T11:43:28Z</time>
      </trkpt>
      <trkpt lat="44.74542" lon="6.87424">
        <ele>2768.7</ele>
        <time>2026-03-23T11:43:29Z</time>
      </trkpt>
      <trkpt lat="44.74542" lon="6.87424">
        <ele>2768.7</ele>
        <time>2026-03-23T11:43:30Z</time>
      </trkpt>
      <trkpt lat="44.74542" lon="6.87424">
        <ele>2768.7</ele>
        <time>2026-03-23T11:43:31Z</time>
      </trkpt>
      <trkpt lat="44.74542" lon="6.87424">
        <ele>2768.7</ele>
        <time>2026-03-23T11:43:32Z</time>
      </trkpt>
      <trkpt lat="44.74542" lon="6.87424">
        <ele>2768.7</ele>
        <time>2026-03-23T11:43:33Z</time>
      </trkpt>
      <trkpt lat="44.74542" lon="6.87424">
        <ele>2768.7</ele>
        <time>2026-03-23T11:43:34Z</time>
      </trkpt>
      <trkpt lat="44.74542" lon="6.87424">
        <ele>2768.7</ele>
        <time>2026-03-23T11:43:35Z</time>
      </trkpt>
      <trkpt lat="44.74542" lon="6.87424">
        <ele>2768.7</ele>
        <time>2026-03-23T11:43:36Z</time>
      </trkpt>
      <trkpt lat="44.74542" lon="6.87424">
        <ele>2768.7</ele>
        <time>2026-03-23T11:43:37Z</time>
      </trkpt>
      <trkpt lat="44.74542" lon="6.87424">
        <ele>2768.7</ele>
        <time>2026-03-23T11:43:38Z</time>
      </trkpt>
      <trkpt lat="44.74542" lon="6.87424">
        <ele>2768.7</ele>
        <time>2026-03-23T11:43:39Z</time>
      </trkpt>
      <trkpt lat="44.74542" lon="6.87424">
        <ele>2768.7</ele>
        <time>2026-03-23T11:43:40Z</time>
      </trkpt>
      <trkpt lat="44.74543" lon="6.87423">
        <ele>2768.8</ele>
        <time>2026-03-23T11:43:41Z</time>
      </trkpt>
      <trkpt lat="44.74543" lon="6.87423">
        <ele>2768.8</ele>
        <time>2026-03-23T11:43:42Z</time>
      </trkpt>
      <trkpt lat="44.74543" lon="6.87423">
        <ele>2768.8</ele>
        <time>2026-03-23T11:43:43Z</time>
      </trkpt>
      <trkpt lat="44.74543" lon="6.87423">
        <ele>2768.8</ele>
        <time>2026-03-23T11:43:44Z</time>
      </trkpt>
      <trkpt lat="44.74543" lon="6.87423">
        <ele>2768.8</ele>
        <time>2026-03-23T11:43:45Z</time>
      </trkpt>
      <trkpt lat="44.74543" lon="6.87423">
        <ele>2768.8</ele>
        <time>2026-03-23T11:43:46Z</time>
      </trkpt>
      <trkpt lat="44.74543" lon="6.87423">
        <ele>2768.8</ele>
        <time>2026-03-23T11:43:47Z</time>
      </trkpt>
      <trkpt lat="44.74543" lon="6.87423">
        <ele>2768.8</ele>
        <time>2026-03-23T11:43:48Z</time>
      </trkpt>
      <trkpt lat="44.74542" lon="6.87422">
        <ele>2768.8</ele>
        <time>2026-03-23T11:43:49Z</time>
      </trkpt>
      <trkpt lat="44.74542" lon="6.87422">
        <ele>2768.8</ele>
        <time>2026-03-23T11:43:50Z</time>
      </trkpt>
      <trkpt lat="44.74542" lon="6.87422">
        <ele>2768.8</ele>
        <time>2026-03-23T11:43:51Z</time>
      </trkpt>
      <trkpt lat="44.74542" lon="6.87422">
        <ele>2768.8</ele>
        <time>2026-03-23T11:43:52Z</time>
      </trkpt>
      <trkpt lat="44.74542" lon="6.87423">
        <ele>2768.8</ele>
        <time>2026-03-23T11:43:53Z</time>
      </trkpt>
      <trkpt lat="44.74542" lon="6.87423">
        <ele>2768.8</ele>
        <time>2026-03-23T11:43:54Z</time>
      </trkpt>
      <trkpt lat="44.74542" lon="6.87423">
        <ele>2768.8</ele>
        <time>2026-03-23T11:43:55Z</time>
      </trkpt>
      <trkpt lat="44.74542" lon="6.87424">
        <ele>2768.8</ele>
        <time>2026-03-23T11:43:56Z</time>
      </trkpt>
      <trkpt lat="44.74542" lon="6.87424">
        <ele>2768.8</ele>
        <time>2026-03-23T11:43:57Z</time>
      </trkpt>
      <trkpt lat="44.74542" lon="6.87424">
        <ele>2768.8</ele>
        <time>2026-03-23T11:43:58Z</time>
      </trkpt>
      <trkpt lat="44.74541" lon="6.87424">
        <ele>2768.8</ele>
        <time>2026-03-23T11:43:59Z</time>
      </trkpt>
      <trkpt lat="44.74542" lon="6.87424">
        <ele>2768.8</ele>
        <time>2026-03-23T11:44:00Z</time>
      </trkpt>
      <trkpt lat="44.74542" lon="6.87424">
        <ele>2768.8</ele>
        <time>2026-03-23T11:44:01Z</time>
      </trkpt>
      <trkpt lat="44.74542" lon="6.87424">
        <ele>2768.8</ele>
        <time>2026-03-23T11:44:02Z</time>
      </trkpt>
      <trkpt lat="44.74542" lon="6.87424">
        <ele>2768.8</ele>
        <time>2026-03-23T11:44:03Z</time>
      </trkpt>
      <trkpt lat="44.74541" lon="6.87424">
        <ele>2768.8</ele>
        <time>2026-03-23T11:44:04Z</time>
      </trkpt>
      <trkpt lat="44.74541" lon="6.87425">
        <ele>2768.8</ele>
        <time>2026-03-23T11:44:05Z</time>
      </trkpt>
      <trkpt lat="44.74541" lon="6.87424">
        <ele>2768.9</ele>
        <time>2026-03-23T11:44:06Z</time>
      </trkpt>
      <trkpt lat="44.74541" lon="6.87424">
        <ele>2768.9</ele>
        <time>2026-03-23T11:44:07Z</time>
      </trkpt>
      <trkpt lat="44.74541" lon="6.87424">
        <ele>2768.9</ele>
        <time>2026-03-23T11:44:08Z</time>
      </trkpt>
      <trkpt lat="44.74542" lon="6.87423">
        <ele>2768.9</ele>
        <time>2026-03-23T11:44:09Z</time>
      </trkpt>
      <trkpt lat="44.74542" lon="6.87423">
        <ele>2768.9</ele>
        <time>2026-03-23T11:44:10Z</time>
      </trkpt>
      <trkpt lat="44.74542" lon="6.87423">
        <ele>2768.9</ele>
        <time>2026-03-23T11:44:11Z</time>
      </trkpt>
      <trkpt lat="44.74542" lon="6.87423">
        <ele>2768.9</ele>
        <time>2026-03-23T11:44:12Z</time>
      </trkpt>
      <trkpt lat="44.74542" lon="6.87423">
        <ele>2768.9</ele>
        <time>2026-03-23T11:44:13Z</time>
      </trkpt>
      <trkpt lat="44.74542" lon="6.87423">
        <ele>2768.9</ele>
        <time>2026-03-23T11:44:14Z</time>
      </trkpt>
      <trkpt lat="44.74542" lon="6.87423">
        <ele>2768.9</ele>
        <time>2026-03-23T11:44:15Z</time>
      </trkpt>
      <trkpt lat="44.74542" lon="6.87423">
        <ele>2768.9</ele>
        <time>2026-03-23T11:44:16Z</time>
      </trkpt>
      <trkpt lat="44.74542" lon="6.87423">
        <ele>2768.9</ele>
        <time>2026-03-23T11:44:17Z</time>
      </trkpt>
      <trkpt lat="44.74542" lon="6.87423">
        <ele>2768.9</ele>
        <time>2026-03-23T11:44:18Z</time>
      </trkpt>
      <trkpt lat="44.74542" lon="6.87423">
        <ele>2768.9</ele>
        <time>2026-03-23T11:44:19Z</time>
      </trkpt>
      <trkpt lat="44.74542" lon="6.87423">
        <ele>2768.9</ele>
        <time>2026-03-23T11:44:20Z</time>
      </trkpt>
      <trkpt lat="44.74542" lon="6.87423">
        <ele>2768.9</ele>
        <time>2026-03-23T11:44:21Z</time>
      </trkpt>
      <trkpt lat="44.74542" lon="6.87423">
        <ele>2768.9</ele>
        <time>2026-03-23T11:44:22Z</time>
      </trkpt>
      <trkpt lat="44.74542" lon="6.87423">
        <ele>2768.9</ele>
        <time>2026-03-23T11:44:23Z</time>
      </trkpt>
      <trkpt lat="44.74542" lon="6.87423">
        <ele>2768.9</ele>
        <time>2026-03-23T11:44:24Z</time>
      </trkpt>
      <trkpt lat="44.74542" lon="6.87423">
        <ele>2768.9</ele>
        <time>2026-03-23T11:44:25Z</time>
      </trkpt>
      <trkpt lat="44.74542" lon="6.87423">
        <ele>2768.9</ele>
        <time>2026-03-23T11:44:26Z</time>
      </trkpt>
      <trkpt lat="44.74542" lon="6.87423">
        <ele>2768.9</ele>
        <time>2026-03-23T11:44:27Z</time>
      </trkpt>
      <trkpt lat="44.74542" lon="6.87424">
        <ele>2768.9</ele>
        <time>2026-03-23T11:44:28Z</time>
      </trkpt>
      <trkpt lat="44.74542" lon="6.87424">
        <ele>2768.9</ele>
        <time>2026-03-23T11:44:29Z</time>
      </trkpt>
      <trkpt lat="44.74543" lon="6.87424">
        <ele>2768.9</ele>
        <time>2026-03-23T11:44:30Z</time>
      </trkpt>
      <trkpt lat="44.74543" lon="6.87423">
        <ele>2768.9</ele>
        <time>2026-03-23T11:44:31Z</time>
      </trkpt>
      <trkpt lat="44.74542" lon="6.87423">
        <ele>2768.9</ele>
        <time>2026-03-23T11:44:32Z</time>
      </trkpt>
      <trkpt lat="44.74542" lon="6.87423">
        <ele>2768.9</ele>
        <time>2026-03-23T11:44:33Z</time>
      </trkpt>
      <trkpt lat="44.74542" lon="6.87423">
        <ele>2768.9</ele>
        <time>2026-03-23T11:44:34Z</time>
      </trkpt>
      <trkpt lat="44.74542" lon="6.87423">
        <ele>2768.9</ele>
        <time>2026-03-23T11:44:35Z</time>
      </trkpt>
      <trkpt lat="44.74542" lon="6.87423">
        <ele>2768.9</ele>
        <time>2026-03-23T11:44:36Z</time>
      </trkpt>
      <trkpt lat="44.74542" lon="6.87423">
        <ele>2768.9</ele>
        <time>2026-03-23T11:44:37Z</time>
      </trkpt>
      <trkpt lat="44.74542" lon="6.87423">
        <ele>2768.9</ele>
        <time>2026-03-23T11:44:38Z</time>
      </trkpt>
      <trkpt lat="44.74542" lon="6.87423">
        <ele>2768.9</ele>
        <time>2026-03-23T11:44:39Z</time>
      </trkpt>
      <trkpt lat="44.74542" lon="6.87423">
        <ele>2768.9</ele>
        <time>2026-03-23T11:44:40Z</time>
      </trkpt>
      <trkpt lat="44.74542" lon="6.87423">
        <ele>2768.9</ele>
        <time>2026-03-23T11:44:41Z</time>
      </trkpt>
      <trkpt lat="44.74542" lon="6.87423">
        <ele>2768.9</ele>
        <time>2026-03-23T11:44:42Z</time>
      </trkpt>
      <trkpt lat="44.74542" lon="6.87423">
        <ele>2768.9</ele>
        <time>2026-03-23T11:44:43Z</time>
      </trkpt>
      <trkpt lat="44.74542" lon="6.87423">
        <ele>2768.9</ele>
        <time>2026-03-23T11:44:44Z</time>
      </trkpt>
      <trkpt lat="44.74542" lon="6.87423">
        <ele>2768.9</ele>
        <time>2026-03-23T11:44:45Z</time>
      </trkpt>
      <trkpt lat="44.74542" lon="6.87423">
        <ele>2768.9</ele>
        <time>2026-03-23T11:44:46Z</time>
      </trkpt>
      <trkpt lat="44.74542" lon="6.87423">
        <ele>2768.9</ele>
        <time>2026-03-23T11:44:47Z</time>
      </trkpt>
      <trkpt lat="44.74542" lon="6.87423">
        <ele>2768.9</ele>
        <time>2026-03-23T11:44:48Z</time>
      </trkpt>
      <trkpt lat="44.74542" lon="6.87423">
        <ele>2768.9</ele>
        <time>2026-03-23T11:44:49Z</time>
      </trkpt>
      <trkpt lat="44.74542" lon="6.87423">
        <ele>2768.9</ele>
        <time>2026-03-23T11:44:50Z</time>
      </trkpt>
      <trkpt lat="44.74542" lon="6.87423">
        <ele>2768.9</ele>
        <time>2026-03-23T11:44:51Z</time>
      </trkpt>
      <trkpt lat="44.74542" lon="6.87423">
        <ele>2768.9</ele>
        <time>2026-03-23T11:44:52Z</time>
      </trkpt>
      <trkpt lat="44.74542" lon="6.87423">
        <ele>2768.9</ele>
        <time>2026-03-23T11:44:53Z</time>
      </trkpt>
      <trkpt lat="44.74542" lon="6.87423">
        <ele>2768.9</ele>
        <time>2026-03-23T11:44:54Z</time>
      </trkpt>
      <trkpt lat="44.74542" lon="6.87423">
        <ele>2768.9</ele>
        <time>2026-03-23T11:44:55Z</time>
      </trkpt>
      <trkpt lat="44.74542" lon="6.87423">
        <ele>2768.9</ele>
        <time>2026-03-23T11:44:56Z</time>
      </trkpt>
      <trkpt lat="44.74542" lon="6.87423">
        <ele>2768.9</ele>
        <time>2026-03-23T11:44:57Z</time>
      </trkpt>
      <trkpt lat="44.74542" lon="6.87423">
        <ele>2768.9</ele>
        <time>2026-03-23T11:44:58Z</time>
      </trkpt>
      <trkpt lat="44.74542" lon="6.87423">
        <ele>2768.9</ele>
        <time>2026-03-23T11:44:59Z</time>
      </trkpt>
      <trkpt lat="44.74542" lon="6.87423">
        <ele>2768.9</ele>
        <time>2026-03-23T11:45:00Z</time>
      </trkpt>
      <trkpt lat="44.74542" lon="6.87423">
        <ele>2768.9</ele>
        <time>2026-03-23T11:45:01Z</time>
      </trkpt>
      <trkpt lat="44.74542" lon="6.87423">
        <ele>2768.9</ele>
        <time>2026-03-23T11:45:02Z</time>
      </trkpt>
      <trkpt lat="44.74542" lon="6.87423">
        <ele>2768.9</ele>
        <time>2026-03-23T11:45:03Z</time>
      </trkpt>
      <trkpt lat="44.74542" lon="6.87423">
        <ele>2768.9</ele>
        <time>2026-03-23T11:45:04Z</time>
      </trkpt>
      <trkpt lat="44.74542" lon="6.87423">
        <ele>2768.9</ele>
        <time>2026-03-23T11:45:05Z</time>
      </trkpt>
      <trkpt lat="44.74542" lon="6.87423">
        <ele>2768.9</ele>
        <time>2026-03-23T11:45:06Z</time>
      </trkpt>
      <trkpt lat="44.74542" lon="6.87423">
        <ele>2768.9</ele>
        <time>2026-03-23T11:45:07Z</time>
      </trkpt>
      <trkpt lat="44.74542" lon="6.87423">
        <ele>2768.9</ele>
        <time>2026-03-23T11:45:08Z</time>
      </trkpt>
      <trkpt lat="44.74542" lon="6.87423">
        <ele>2768.9</ele>
        <time>2026-03-23T11:45:09Z</time>
      </trkpt>
      <trkpt lat="44.74542" lon="6.87423">
        <ele>2768.9</ele>
        <time>2026-03-23T11:45:10Z</time>
      </trkpt>
      <trkpt lat="44.74542" lon="6.87423">
        <ele>2768.9</ele>
        <time>2026-03-23T11:45:11Z</time>
      </trkpt>
      <trkpt lat="44.74542" lon="6.87423">
        <ele>2768.9</ele>
        <time>2026-03-23T11:45:12Z</time>
      </trkpt>
      <trkpt lat="44.74542" lon="6.87423">
        <ele>2768.9</ele>
        <time>2026-03-23T11:45:13Z</time>
      </trkpt>
      <trkpt lat="44.74542" lon="6.87423">
        <ele>2768.9</ele>
        <time>2026-03-23T11:45:14Z</time>
      </trkpt>
      <trkpt lat="44.74542" lon="6.87423">
        <ele>2768.9</ele>
        <time>2026-03-23T11:45:15Z</time>
      </trkpt>
      <trkpt lat="44.74542" lon="6.87423">
        <ele>2768.9</ele>
        <time>2026-03-23T11:45:16Z</time>
      </trkpt>
      <trkpt lat="44.74542" lon="6.87423">
        <ele>2768.9</ele>
        <time>2026-03-23T11:45:17Z</time>
      </trkpt>
      <trkpt lat="44.74542" lon="6.87423">
        <ele>2768.9</ele>
        <time>2026-03-23T11:45:18Z</time>
      </trkpt>
      <trkpt lat="44.74542" lon="6.87423">
        <ele>2768.9</ele>
        <time>2026-03-23T11:45:19Z</time>
      </trkpt>
      <trkpt lat="44.74542" lon="6.87423">
        <ele>2768.9</ele>
        <time>2026-03-23T11:45:20Z</time>
      </trkpt>
      <trkpt lat="44.74543" lon="6.87423">
        <ele>2768.9</ele>
        <time>2026-03-23T11:45:21Z</time>
      </trkpt>
      <trkpt lat="44.74543" lon="6.87423">
        <ele>2768.9</ele>
        <time>2026-03-23T11:45:22Z</time>
      </trkpt>
      <trkpt lat="44.74543" lon="6.87423">
        <ele>2768.9</ele>
        <time>2026-03-23T11:45:23Z</time>
      </trkpt>
      <trkpt lat="44.74543" lon="6.87423">
        <ele>2768.9</ele>
        <time>2026-03-23T11:45:24Z</time>
      </trkpt>
      <trkpt lat="44.74543" lon="6.87423">
        <ele>2768.9</ele>
        <time>2026-03-23T11:45:25Z</time>
      </trkpt>
      <trkpt lat="44.74543" lon="6.87423">
        <ele>2768.9</ele>
        <time>2026-03-23T11:45:26Z</time>
      </trkpt>
      <trkpt lat="44.74543" lon="6.87423">
        <ele>2768.9</ele>
        <time>2026-03-23T11:45:27Z</time>
      </trkpt>
      <trkpt lat="44.74543" lon="6.87423">
        <ele>2768.9</ele>
        <time>2026-03-23T11:45:28Z</time>
      </trkpt>
      <trkpt lat="44.74543" lon="6.87423">
        <ele>2768.9</ele>
        <time>2026-03-23T11:45:29Z</time>
      </trkpt>
      <trkpt lat="44.74543" lon="6.87423">
        <ele>2768.9</ele>
        <time>2026-03-23T11:45:30Z</time>
      </trkpt>
      <trkpt lat="44.74543" lon="6.87423">
        <ele>2768.9</ele>
        <time>2026-03-23T11:45:31Z</time>
      </trkpt>
      <trkpt lat="44.74543" lon="6.87423">
        <ele>2768.9</ele>
        <time>2026-03-23T11:45:32Z</time>
      </trkpt>
      <trkpt lat="44.74543" lon="6.87423">
        <ele>2768.9</ele>
        <time>2026-03-23T11:45:33Z</time>
      </trkpt>
      <trkpt lat="44.74543" lon="6.87423">
        <ele>2768.9</ele>
        <time>2026-03-23T11:45:34Z</time>
      </trkpt>
      <trkpt lat="44.74543" lon="6.87423">
        <ele>2768.9</ele>
        <time>2026-03-23T11:45:35Z</time>
      </trkpt>
      <trkpt lat="44.74543" lon="6.87423">
        <ele>2768.9</ele>
        <time>2026-03-23T11:45:36Z</time>
      </trkpt>
      <trkpt lat="44.74543" lon="6.87423">
        <ele>2768.9</ele>
        <time>2026-03-23T11:45:37Z</time>
      </trkpt>
      <trkpt lat="44.74543" lon="6.87423">
        <ele>2768.9</ele>
        <time>2026-03-23T11:45:38Z</time>
      </trkpt>
      <trkpt lat="44.74543" lon="6.87423">
        <ele>2768.9</ele>
        <time>2026-03-23T11:45:39Z</time>
      </trkpt>
      <trkpt lat="44.74544" lon="6.87423">
        <ele>2769</ele>
        <time>2026-03-23T11:45:40Z</time>
      </trkpt>
      <trkpt lat="44.74544" lon="6.87423">
        <ele>2769</ele>
        <time>2026-03-23T11:45:41Z</time>
      </trkpt>
      <trkpt lat="44.74543" lon="6.87423">
        <ele>2769</ele>
        <time>2026-03-23T11:45:42Z</time>
      </trkpt>
      <trkpt lat="44.74543" lon="6.87423">
        <ele>2769</ele>
        <time>2026-03-23T11:45:43Z</time>
      </trkpt>
      <trkpt lat="44.74543" lon="6.87423">
        <ele>2769</ele>
        <time>2026-03-23T11:45:44Z</time>
      </trkpt>
      <trkpt lat="44.74543" lon="6.87423">
        <ele>2769</ele>
        <time>2026-03-23T11:45:45Z</time>
      </trkpt>
      <trkpt lat="44.74543" lon="6.87423">
        <ele>2769</ele>
        <time>2026-03-23T11:45:46Z</time>
      </trkpt>
      <trkpt lat="44.74544" lon="6.87424">
        <ele>2769</ele>
        <time>2026-03-23T11:45:47Z</time>
      </trkpt>
      <trkpt lat="44.74544" lon="6.87424">
        <ele>2769</ele>
        <time>2026-03-23T11:45:48Z</time>
      </trkpt>
      <trkpt lat="44.74544" lon="6.87424">
        <ele>2769</ele>
        <time>2026-03-23T11:45:49Z</time>
      </trkpt>
      <trkpt lat="44.74544" lon="6.87425">
        <ele>2769</ele>
        <time>2026-03-23T11:45:50Z</time>
      </trkpt>
      <trkpt lat="44.74543" lon="6.87425">
        <ele>2769</ele>
        <time>2026-03-23T11:45:51Z</time>
      </trkpt>
      <trkpt lat="44.74544" lon="6.87425">
        <ele>2769</ele>
        <time>2026-03-23T11:45:52Z</time>
      </trkpt>
      <trkpt lat="44.74544" lon="6.87426">
        <ele>2769</ele>
        <time>2026-03-23T11:45:53Z</time>
      </trkpt>
      <trkpt lat="44.74544" lon="6.87426">
        <ele>2769</ele>
        <time>2026-03-23T11:45:54Z</time>
      </trkpt>
      <trkpt lat="44.74544" lon="6.87426">
        <ele>2769</ele>
        <time>2026-03-23T11:45:55Z</time>
      </trkpt>
      <trkpt lat="44.74544" lon="6.87426">
        <ele>2769</ele>
        <time>2026-03-23T11:45:56Z</time>
      </trkpt>
      <trkpt lat="44.74544" lon="6.87427">
        <ele>2769</ele>
        <time>2026-03-23T11:45:57Z</time>
      </trkpt>
      <trkpt lat="44.74544" lon="6.87427">
        <ele>2769</ele>
        <time>2026-03-23T11:45:58Z</time>
      </trkpt>
      <trkpt lat="44.74544" lon="6.87427">
        <ele>2769</ele>
        <time>2026-03-23T11:45:59Z</time>
      </trkpt>
      <trkpt lat="44.74544" lon="6.87427">
        <ele>2769</ele>
        <time>2026-03-23T11:46:00Z</time>
      </trkpt>
      <trkpt lat="44.74544" lon="6.87427">
        <ele>2769</ele>
        <time>2026-03-23T11:46:01Z</time>
      </trkpt>
      <trkpt lat="44.74544" lon="6.87427">
        <ele>2769</ele>
        <time>2026-03-23T11:46:02Z</time>
      </trkpt>
      <trkpt lat="44.74545" lon="6.87427">
        <ele>2769</ele>
        <time>2026-03-23T11:46:03Z</time>
      </trkpt>
      <trkpt lat="44.74545" lon="6.87427">
        <ele>2769</ele>
        <time>2026-03-23T11:46:04Z</time>
      </trkpt>
      <trkpt lat="44.74545" lon="6.87427">
        <ele>2769</ele>
        <time>2026-03-23T11:46:05Z</time>
      </trkpt>
      <trkpt lat="44.74545" lon="6.87427">
        <ele>2769</ele>
        <time>2026-03-23T11:46:06Z</time>
      </trkpt>
      <trkpt lat="44.74545" lon="6.87427">
        <ele>2769</ele>
        <time>2026-03-23T11:46:07Z</time>
      </trkpt>
      <trkpt lat="44.74545" lon="6.87427">
        <ele>2769</ele>
        <time>2026-03-23T11:46:08Z</time>
      </trkpt>
      <trkpt lat="44.74545" lon="6.87427">
        <ele>2769</ele>
        <time>2026-03-23T11:46:09Z</time>
      </trkpt>
      <trkpt lat="44.74545" lon="6.87427">
        <ele>2769</ele>
        <time>2026-03-23T11:46:10Z</time>
      </trkpt>
      <trkpt lat="44.74545" lon="6.87427">
        <ele>2769</ele>
        <time>2026-03-23T11:46:11Z</time>
      </trkpt>
      <trkpt lat="44.74545" lon="6.87427">
        <ele>2769</ele>
        <time>2026-03-23T11:46:12Z</time>
      </trkpt>
      <trkpt lat="44.74545" lon="6.87427">
        <ele>2769</ele>
        <time>2026-03-23T11:46:13Z</time>
      </trkpt>
      <trkpt lat="44.74545" lon="6.87427">
        <ele>2769.1</ele>
        <time>2026-03-23T11:46:14Z</time>
      </trkpt>
      <trkpt lat="44.74544" lon="6.87427">
        <ele>2769.1</ele>
        <time>2026-03-23T11:46:15Z</time>
      </trkpt>
      <trkpt lat="44.74544" lon="6.87427">
        <ele>2769.1</ele>
        <time>2026-03-23T11:46:16Z</time>
      </trkpt>
      <trkpt lat="44.74544" lon="6.87427">
        <ele>2769.1</ele>
        <time>2026-03-23T11:46:17Z</time>
      </trkpt>
      <trkpt lat="44.74544" lon="6.87426">
        <ele>2769.1</ele>
        <time>2026-03-23T11:46:18Z</time>
      </trkpt>
      <trkpt lat="44.74544" lon="6.87426">
        <ele>2769.1</ele>
        <time>2026-03-23T11:46:19Z</time>
      </trkpt>
      <trkpt lat="44.74544" lon="6.87426">
        <ele>2769.1</ele>
        <time>2026-03-23T11:46:20Z</time>
      </trkpt>
      <trkpt lat="44.74544" lon="6.87427">
        <ele>2769.1</ele>
        <time>2026-03-23T11:46:21Z</time>
      </trkpt>
      <trkpt lat="44.74545" lon="6.87427">
        <ele>2769.1</ele>
        <time>2026-03-23T11:46:22Z</time>
      </trkpt>
      <trkpt lat="44.74544" lon="6.87427">
        <ele>2769.1</ele>
        <time>2026-03-23T11:46:23Z</time>
      </trkpt>
      <trkpt lat="44.74544" lon="6.87427">
        <ele>2769.1</ele>
        <time>2026-03-23T11:46:24Z</time>
      </trkpt>
      <trkpt lat="44.74544" lon="6.87427">
        <ele>2769.1</ele>
        <time>2026-03-23T11:46:25Z</time>
      </trkpt>
      <trkpt lat="44.74544" lon="6.87427">
        <ele>2769.1</ele>
        <time>2026-03-23T11:46:26Z</time>
      </trkpt>
      <trkpt lat="44.74544" lon="6.87427">
        <ele>2769.1</ele>
        <time>2026-03-23T11:46:27Z</time>
      </trkpt>
      <trkpt lat="44.74543" lon="6.87428">
        <ele>2769.1</ele>
        <time>2026-03-23T11:46:28Z</time>
      </trkpt>
      <trkpt lat="44.74543" lon="6.87428">
        <ele>2769.1</ele>
        <time>2026-03-23T11:46:29Z</time>
      </trkpt>
      <trkpt lat="44.74543" lon="6.87427">
        <ele>2769.1</ele>
        <time>2026-03-23T11:46:30Z</time>
      </trkpt>
      <trkpt lat="44.74543" lon="6.87427">
        <ele>2769.1</ele>
        <time>2026-03-23T11:46:31Z</time>
      </trkpt>
      <trkpt lat="44.74543" lon="6.87427">
        <ele>2769.1</ele>
        <time>2026-03-23T11:46:32Z</time>
      </trkpt>
      <trkpt lat="44.74543" lon="6.87427">
        <ele>2769.1</ele>
        <time>2026-03-23T11:46:33Z</time>
      </trkpt>
      <trkpt lat="44.74543" lon="6.87427">
        <ele>2769.1</ele>
        <time>2026-03-23T11:46:34Z</time>
      </trkpt>
      <trkpt lat="44.74543" lon="6.87427">
        <ele>2769.1</ele>
        <time>2026-03-23T11:46:35Z</time>
      </trkpt>
      <trkpt lat="44.74543" lon="6.87427">
        <ele>2769.1</ele>
        <time>2026-03-23T11:46:36Z</time>
      </trkpt>
      <trkpt lat="44.74543" lon="6.87427">
        <ele>2769.1</ele>
        <time>2026-03-23T11:46:37Z</time>
      </trkpt>
      <trkpt lat="44.74543" lon="6.87427">
        <ele>2769.1</ele>
        <time>2026-03-23T11:46:38Z</time>
      </trkpt>
      <trkpt lat="44.74543" lon="6.87427">
        <ele>2769.1</ele>
        <time>2026-03-23T11:46:39Z</time>
      </trkpt>
      <trkpt lat="44.74543" lon="6.87427">
        <ele>2769.1</ele>
        <time>2026-03-23T11:46:40Z</time>
      </trkpt>
      <trkpt lat="44.74543" lon="6.87427">
        <ele>2769.1</ele>
        <time>2026-03-23T11:46:41Z</time>
      </trkpt>
      <trkpt lat="44.74543" lon="6.87427">
        <ele>2769.1</ele>
        <time>2026-03-23T11:46:42Z</time>
      </trkpt>
      <trkpt lat="44.74543" lon="6.87427">
        <ele>2769.1</ele>
        <time>2026-03-23T11:46:43Z</time>
      </trkpt>
      <trkpt lat="44.74543" lon="6.87427">
        <ele>2769.1</ele>
        <time>2026-03-23T11:46:44Z</time>
      </trkpt>
      <trkpt lat="44.74543" lon="6.87427">
        <ele>2769.1</ele>
        <time>2026-03-23T11:46:45Z</time>
      </trkpt>
      <trkpt lat="44.74543" lon="6.87427">
        <ele>2769.1</ele>
        <time>2026-03-23T11:46:46Z</time>
      </trkpt>
      <trkpt lat="44.74543" lon="6.87427">
        <ele>2769.1</ele>
        <time>2026-03-23T11:46:47Z</time>
      </trkpt>
      <trkpt lat="44.74543" lon="6.87427">
        <ele>2769.1</ele>
        <time>2026-03-23T11:46:48Z</time>
      </trkpt>
      <trkpt lat="44.74543" lon="6.87427">
        <ele>2769.1</ele>
        <time>2026-03-23T11:46:49Z</time>
      </trkpt>
      <trkpt lat="44.74543" lon="6.87427">
        <ele>2769.1</ele>
        <time>2026-03-23T11:46:50Z</time>
      </trkpt>
      <trkpt lat="44.74543" lon="6.87427">
        <ele>2769.1</ele>
        <time>2026-03-23T11:46:51Z</time>
      </trkpt>
      <trkpt lat="44.74543" lon="6.87427">
        <ele>2769.1</ele>
        <time>2026-03-23T11:46:52Z</time>
      </trkpt>
      <trkpt lat="44.74543" lon="6.87427">
        <ele>2769.1</ele>
        <time>2026-03-23T11:46:53Z</time>
      </trkpt>
      <trkpt lat="44.74543" lon="6.87427">
        <ele>2769.1</ele>
        <time>2026-03-23T11:46:54Z</time>
      </trkpt>
      <trkpt lat="44.74543" lon="6.87427">
        <ele>2769.1</ele>
        <time>2026-03-23T11:46:55Z</time>
      </trkpt>
      <trkpt lat="44.74543" lon="6.87427">
        <ele>2769.1</ele>
        <time>2026-03-23T11:46:56Z</time>
      </trkpt>
      <trkpt lat="44.74543" lon="6.87427">
        <ele>2769.1</ele>
        <time>2026-03-23T11:46:57Z</time>
      </trkpt>
      <trkpt lat="44.74543" lon="6.87427">
        <ele>2769.1</ele>
        <time>2026-03-23T11:46:58Z</time>
      </trkpt>
      <trkpt lat="44.74543" lon="6.87427">
        <ele>2769.1</ele>
        <time>2026-03-23T11:46:59Z</time>
      </trkpt>
      <trkpt lat="44.74543" lon="6.87427">
        <ele>2769.1</ele>
        <time>2026-03-23T11:47:00Z</time>
      </trkpt>
      <trkpt lat="44.74543" lon="6.87427">
        <ele>2769.1</ele>
        <time>2026-03-23T11:47:01Z</time>
      </trkpt>
      <trkpt lat="44.74543" lon="6.87427">
        <ele>2769.1</ele>
        <time>2026-03-23T11:47:02Z</time>
      </trkpt>
      <trkpt lat="44.74543" lon="6.87427">
        <ele>2769.1</ele>
        <time>2026-03-23T11:47:03Z</time>
      </trkpt>
      <trkpt lat="44.74543" lon="6.87427">
        <ele>2769.1</ele>
        <time>2026-03-23T11:47:04Z</time>
      </trkpt>
      <trkpt lat="44.74543" lon="6.87427">
        <ele>2769.1</ele>
        <time>2026-03-23T11:47:05Z</time>
      </trkpt>
      <trkpt lat="44.74543" lon="6.87427">
        <ele>2769.1</ele>
        <time>2026-03-23T11:47:06Z</time>
      </trkpt>
      <trkpt lat="44.74543" lon="6.87427">
        <ele>2769.1</ele>
        <time>2026-03-23T11:47:07Z</time>
      </trkpt>
      <trkpt lat="44.74543" lon="6.87427">
        <ele>2769.1</ele>
        <time>2026-03-23T11:47:08Z</time>
      </trkpt>
      <trkpt lat="44.74543" lon="6.87427">
        <ele>2769.1</ele>
        <time>2026-03-23T11:47:09Z</time>
      </trkpt>
      <trkpt lat="44.74543" lon="6.87427">
        <ele>2769.1</ele>
        <time>2026-03-23T11:47:10Z</time>
      </trkpt>
      <trkpt lat="44.74543" lon="6.87427">
        <ele>2769.1</ele>
        <time>2026-03-23T11:47:11Z</time>
      </trkpt>
      <trkpt lat="44.74543" lon="6.87427">
        <ele>2769.1</ele>
        <time>2026-03-23T11:47:12Z</time>
      </trkpt>
      <trkpt lat="44.74543" lon="6.87427">
        <ele>2769.1</ele>
        <time>2026-03-23T11:47:13Z</time>
      </trkpt>
      <trkpt lat="44.74543" lon="6.87427">
        <ele>2769.1</ele>
        <time>2026-03-23T11:47:14Z</time>
      </trkpt>
      <trkpt lat="44.74543" lon="6.87427">
        <ele>2769.1</ele>
        <time>2026-03-23T11:47:15Z</time>
      </trkpt>
      <trkpt lat="44.74543" lon="6.87427">
        <ele>2769.1</ele>
        <time>2026-03-23T11:47:16Z</time>
      </trkpt>
      <trkpt lat="44.74543" lon="6.87427">
        <ele>2769.1</ele>
        <time>2026-03-23T11:47:17Z</time>
      </trkpt>
      <trkpt lat="44.74543" lon="6.87427">
        <ele>2769.1</ele>
        <time>2026-03-23T11:47:18Z</time>
      </trkpt>
      <trkpt lat="44.74543" lon="6.87427">
        <ele>2769.1</ele>
        <time>2026-03-23T11:47:19Z</time>
      </trkpt>
      <trkpt lat="44.74543" lon="6.87427">
        <ele>2769.1</ele>
        <time>2026-03-23T11:47:20Z</time>
      </trkpt>
      <trkpt lat="44.74543" lon="6.87427">
        <ele>2769.1</ele>
        <time>2026-03-23T11:47:21Z</time>
      </trkpt>
      <trkpt lat="44.74543" lon="6.87427">
        <ele>2769.1</ele>
        <time>2026-03-23T11:47:22Z</time>
      </trkpt>
      <trkpt lat="44.74543" lon="6.87427">
        <ele>2769.1</ele>
        <time>2026-03-23T11:47:23Z</time>
      </trkpt>
      <trkpt lat="44.74543" lon="6.87427">
        <ele>2769.1</ele>
        <time>2026-03-23T11:47:24Z</time>
      </trkpt>
      <trkpt lat="44.74543" lon="6.87427">
        <ele>2769.1</ele>
        <time>2026-03-23T11:47:25Z</time>
      </trkpt>
      <trkpt lat="44.74543" lon="6.87427">
        <ele>2769.1</ele>
        <time>2026-03-23T11:47:26Z</time>
      </trkpt>
      <trkpt lat="44.74543" lon="6.87427">
        <ele>2769.1</ele>
        <time>2026-03-23T11:47:27Z</time>
      </trkpt>
      <trkpt lat="44.74543" lon="6.87427">
        <ele>2769.1</ele>
        <time>2026-03-23T11:47:28Z</time>
      </trkpt>
      <trkpt lat="44.74543" lon="6.87427">
        <ele>2769.1</ele>
        <time>2026-03-23T11:47:29Z</time>
      </trkpt>
      <trkpt lat="44.74543" lon="6.87427">
        <ele>2769.1</ele>
        <time>2026-03-23T11:47:30Z</time>
      </trkpt>
      <trkpt lat="44.74543" lon="6.87427">
        <ele>2769.1</ele>
        <time>2026-03-23T11:47:31Z</time>
      </trkpt>
      <trkpt lat="44.74543" lon="6.87428">
        <ele>2769.2</ele>
        <time>2026-03-23T11:47:32Z</time>
      </trkpt>
      <trkpt lat="44.74543" lon="6.87428">
        <ele>2769.2</ele>
        <time>2026-03-23T11:47:33Z</time>
      </trkpt>
      <trkpt lat="44.74543" lon="6.87428">
        <ele>2769.2</ele>
        <time>2026-03-23T11:47:34Z</time>
      </trkpt>
      <trkpt lat="44.74542" lon="6.87429">
        <ele>2769.2</ele>
        <time>2026-03-23T11:47:35Z</time>
      </trkpt>
      <trkpt lat="44.74542" lon="6.87429">
        <ele>2769.2</ele>
        <time>2026-03-23T11:47:36Z</time>
      </trkpt>
      <trkpt lat="44.74542" lon="6.87429">
        <ele>2769.2</ele>
        <time>2026-03-23T11:47:37Z</time>
      </trkpt>
      <trkpt lat="44.74542" lon="6.87429">
        <ele>2769.2</ele>
        <time>2026-03-23T11:47:38Z</time>
      </trkpt>
      <trkpt lat="44.74543" lon="6.87429">
        <ele>2769.2</ele>
        <time>2026-03-23T11:47:39Z</time>
      </trkpt>
      <trkpt lat="44.74542" lon="6.8743">
        <ele>2769.2</ele>
        <time>2026-03-23T11:47:40Z</time>
      </trkpt>
      <trkpt lat="44.74542" lon="6.8743">
        <ele>2769.2</ele>
        <time>2026-03-23T11:47:41Z</time>
      </trkpt>
      <trkpt lat="44.74542" lon="6.87429">
        <ele>2769.2</ele>
        <time>2026-03-23T11:47:42Z</time>
      </trkpt>
      <trkpt lat="44.74542" lon="6.87429">
        <ele>2769.2</ele>
        <time>2026-03-23T11:47:43Z</time>
      </trkpt>
      <trkpt lat="44.74542" lon="6.87429">
        <ele>2769.2</ele>
        <time>2026-03-23T11:47:44Z</time>
      </trkpt>
      <trkpt lat="44.74542" lon="6.87429">
        <ele>2769.2</ele>
        <time>2026-03-23T11:47:45Z</time>
      </trkpt>
      <trkpt lat="44.74542" lon="6.87429">
        <ele>2769.2</ele>
        <time>2026-03-23T11:47:46Z</time>
      </trkpt>
      <trkpt lat="44.74542" lon="6.8743">
        <ele>2769.2</ele>
        <time>2026-03-23T11:47:47Z</time>
      </trkpt>
      <trkpt lat="44.74542" lon="6.87429">
        <ele>2769.2</ele>
        <time>2026-03-23T11:47:48Z</time>
      </trkpt>
      <trkpt lat="44.74542" lon="6.87429">
        <ele>2769.2</ele>
        <time>2026-03-23T11:47:49Z</time>
      </trkpt>
      <trkpt lat="44.74543" lon="6.87429">
        <ele>2769.2</ele>
        <time>2026-03-23T11:47:50Z</time>
      </trkpt>
      <trkpt lat="44.74543" lon="6.87429">
        <ele>2769.2</ele>
        <time>2026-03-23T11:47:51Z</time>
      </trkpt>
      <trkpt lat="44.74543" lon="6.87429">
        <ele>2769.2</ele>
        <time>2026-03-23T11:47:52Z</time>
      </trkpt>
      <trkpt lat="44.74543" lon="6.87428">
        <ele>2769.2</ele>
        <time>2026-03-23T11:47:53Z</time>
      </trkpt>
      <trkpt lat="44.74543" lon="6.87428">
        <ele>2769.2</ele>
        <time>2026-03-23T11:47:54Z</time>
      </trkpt>
      <trkpt lat="44.74543" lon="6.87428">
        <ele>2769.2</ele>
        <time>2026-03-23T11:47:55Z</time>
      </trkpt>
      <trkpt lat="44.74543" lon="6.87428">
        <ele>2769.2</ele>
        <time>2026-03-23T11:47:56Z</time>
      </trkpt>
      <trkpt lat="44.74543" lon="6.87428">
        <ele>2769.2</ele>
        <time>2026-03-23T11:47:57Z</time>
      </trkpt>
      <trkpt lat="44.74543" lon="6.87428">
        <ele>2769.2</ele>
        <time>2026-03-23T11:47:58Z</time>
      </trkpt>
      <trkpt lat="44.74544" lon="6.87428">
        <ele>2769.2</ele>
        <time>2026-03-23T11:47:59Z</time>
      </trkpt>
      <trkpt lat="44.74544" lon="6.87428">
        <ele>2769.2</ele>
        <time>2026-03-23T11:48:00Z</time>
      </trkpt>
      <trkpt lat="44.74544" lon="6.87428">
        <ele>2769.2</ele>
        <time>2026-03-23T11:48:01Z</time>
      </trkpt>
      <trkpt lat="44.74544" lon="6.87428">
        <ele>2769.2</ele>
        <time>2026-03-23T11:48:02Z</time>
      </trkpt>
      <trkpt lat="44.74544" lon="6.87428">
        <ele>2769.2</ele>
        <time>2026-03-23T11:48:03Z</time>
      </trkpt>
      <trkpt lat="44.74544" lon="6.87428">
        <ele>2769.2</ele>
        <time>2026-03-23T11:48:04Z</time>
      </trkpt>
      <trkpt lat="44.74544" lon="6.87428">
        <ele>2769.2</ele>
        <time>2026-03-23T11:48:05Z</time>
      </trkpt>
      <trkpt lat="44.74544" lon="6.87428">
        <ele>2769.2</ele>
        <time>2026-03-23T11:48:06Z</time>
      </trkpt>
      <trkpt lat="44.74544" lon="6.87428">
        <ele>2769.2</ele>
        <time>2026-03-23T11:48:07Z</time>
      </trkpt>
      <trkpt lat="44.74544" lon="6.87428">
        <ele>2769.2</ele>
        <time>2026-03-23T11:48:08Z</time>
      </trkpt>
      <trkpt lat="44.74544" lon="6.87428">
        <ele>2769.2</ele>
        <time>2026-03-23T11:48:09Z</time>
      </trkpt>
      <trkpt lat="44.74544" lon="6.87427">
        <ele>2769.2</ele>
        <time>2026-03-23T11:48:10Z</time>
      </trkpt>
      <trkpt lat="44.74544" lon="6.87427">
        <ele>2769.3</ele>
        <time>2026-03-23T11:48:11Z</time>
      </trkpt>
      <trkpt lat="44.74544" lon="6.87427">
        <ele>2769.3</ele>
        <time>2026-03-23T11:48:12Z</time>
      </trkpt>
      <trkpt lat="44.74544" lon="6.87427">
        <ele>2769.3</ele>
        <time>2026-03-23T11:48:13Z</time>
      </trkpt>
      <trkpt lat="44.74544" lon="6.87427">
        <ele>2769.3</ele>
        <time>2026-03-23T11:48:14Z</time>
      </trkpt>
      <trkpt lat="44.74544" lon="6.87427">
        <ele>2769.3</ele>
        <time>2026-03-23T11:48:15Z</time>
      </trkpt>
      <trkpt lat="44.74544" lon="6.87427">
        <ele>2769.3</ele>
        <time>2026-03-23T11:48:16Z</time>
      </trkpt>
      <trkpt lat="44.74544" lon="6.87427">
        <ele>2769.3</ele>
        <time>2026-03-23T11:48:17Z</time>
      </trkpt>
      <trkpt lat="44.74544" lon="6.87426">
        <ele>2769.3</ele>
        <time>2026-03-23T11:48:18Z</time>
      </trkpt>
      <trkpt lat="44.74544" lon="6.87426">
        <ele>2769.3</ele>
        <time>2026-03-23T11:48:19Z</time>
      </trkpt>
      <trkpt lat="44.74544" lon="6.87426">
        <ele>2769.3</ele>
        <time>2026-03-23T11:48:20Z</time>
      </trkpt>
      <trkpt lat="44.74544" lon="6.87426">
        <ele>2769.3</ele>
        <time>2026-03-23T11:48:21Z</time>
      </trkpt>
      <trkpt lat="44.74544" lon="6.87426">
        <ele>2769.3</ele>
        <time>2026-03-23T11:48:22Z</time>
      </trkpt>
      <trkpt lat="44.74544" lon="6.87426">
        <ele>2769.3</ele>
        <time>2026-03-23T11:48:23Z</time>
      </trkpt>
      <trkpt lat="44.74544" lon="6.87426">
        <ele>2769.3</ele>
        <time>2026-03-23T11:48:24Z</time>
      </trkpt>
      <trkpt lat="44.74544" lon="6.87426">
        <ele>2769.3</ele>
        <time>2026-03-23T11:48:25Z</time>
      </trkpt>
      <trkpt lat="44.74544" lon="6.87426">
        <ele>2769.3</ele>
        <time>2026-03-23T11:48:26Z</time>
      </trkpt>
      <trkpt lat="44.74544" lon="6.87426">
        <ele>2769.3</ele>
        <time>2026-03-23T11:48:27Z</time>
      </trkpt>
      <trkpt lat="44.74544" lon="6.87426">
        <ele>2769.3</ele>
        <time>2026-03-23T11:48:28Z</time>
      </trkpt>
      <trkpt lat="44.74544" lon="6.87426">
        <ele>2769.3</ele>
        <time>2026-03-23T11:48:29Z</time>
      </trkpt>
      <trkpt lat="44.74544" lon="6.87426">
        <ele>2769.3</ele>
        <time>2026-03-23T11:48:30Z</time>
      </trkpt>
      <trkpt lat="44.74544" lon="6.87426">
        <ele>2769.3</ele>
        <time>2026-03-23T11:48:31Z</time>
      </trkpt>
      <trkpt lat="44.74544" lon="6.87426">
        <ele>2769.3</ele>
        <time>2026-03-23T11:48:32Z</time>
      </trkpt>
      <trkpt lat="44.74544" lon="6.87426">
        <ele>2769.3</ele>
        <time>2026-03-23T11:48:33Z</time>
      </trkpt>
      <trkpt lat="44.74544" lon="6.87426">
        <ele>2769.3</ele>
        <time>2026-03-23T11:48:34Z</time>
      </trkpt>
      <trkpt lat="44.74544" lon="6.87426">
        <ele>2769.3</ele>
        <time>2026-03-23T11:48:35Z</time>
      </trkpt>
      <trkpt lat="44.74544" lon="6.87426">
        <ele>2769.3</ele>
        <time>2026-03-23T11:48:36Z</time>
      </trkpt>
      <trkpt lat="44.74544" lon="6.87426">
        <ele>2769.3</ele>
        <time>2026-03-23T11:48:37Z</time>
      </trkpt>
      <trkpt lat="44.74544" lon="6.87426">
        <ele>2769.3</ele>
        <time>2026-03-23T11:48:38Z</time>
      </trkpt>
      <trkpt lat="44.74544" lon="6.87426">
        <ele>2769.3</ele>
        <time>2026-03-23T11:48:39Z</time>
      </trkpt>
      <trkpt lat="44.74544" lon="6.87426">
        <ele>2769.3</ele>
        <time>2026-03-23T11:48:40Z</time>
      </trkpt>
      <trkpt lat="44.74544" lon="6.87426">
        <ele>2769.3</ele>
        <time>2026-03-23T11:48:41Z</time>
      </trkpt>
      <trkpt lat="44.74544" lon="6.87426">
        <ele>2769.3</ele>
        <time>2026-03-23T11:48:42Z</time>
      </trkpt>
      <trkpt lat="44.74544" lon="6.87426">
        <ele>2769.3</ele>
        <time>2026-03-23T11:48:43Z</time>
      </trkpt>
      <trkpt lat="44.74544" lon="6.87426">
        <ele>2769.3</ele>
        <time>2026-03-23T11:48:44Z</time>
      </trkpt>
      <trkpt lat="44.74544" lon="6.87426">
        <ele>2769.3</ele>
        <time>2026-03-23T11:48:45Z</time>
      </trkpt>
      <trkpt lat="44.74544" lon="6.87426">
        <ele>2769.3</ele>
        <time>2026-03-23T11:48:46Z</time>
      </trkpt>
      <trkpt lat="44.74544" lon="6.87426">
        <ele>2769.3</ele>
        <time>2026-03-23T11:48:47Z</time>
      </trkpt>
      <trkpt lat="44.74544" lon="6.87426">
        <ele>2769.3</ele>
        <time>2026-03-23T11:48:48Z</time>
      </trkpt>
      <trkpt lat="44.74544" lon="6.87426">
        <ele>2769.3</ele>
        <time>2026-03-23T11:48:49Z</time>
      </trkpt>
      <trkpt lat="44.74544" lon="6.87426">
        <ele>2769.3</ele>
        <time>2026-03-23T11:48:50Z</time>
      </trkpt>
      <trkpt lat="44.74544" lon="6.87426">
        <ele>2769.3</ele>
        <time>2026-03-23T11:48:51Z</time>
      </trkpt>
      <trkpt lat="44.74544" lon="6.87426">
        <ele>2769.3</ele>
        <time>2026-03-23T11:48:52Z</time>
      </trkpt>
      <trkpt lat="44.74544" lon="6.87426">
        <ele>2769.3</ele>
        <time>2026-03-23T11:48:53Z</time>
      </trkpt>
      <trkpt lat="44.74544" lon="6.87426">
        <ele>2769.3</ele>
        <time>2026-03-23T11:48:54Z</time>
      </trkpt>
      <trkpt lat="44.74544" lon="6.87426">
        <ele>2769.3</ele>
        <time>2026-03-23T11:48:55Z</time>
      </trkpt>
      <trkpt lat="44.74544" lon="6.87426">
        <ele>2769.3</ele>
        <time>2026-03-23T11:48:56Z</time>
      </trkpt>
      <trkpt lat="44.74544" lon="6.87426">
        <ele>2769.3</ele>
        <time>2026-03-23T11:48:57Z</time>
      </trkpt>
      <trkpt lat="44.74544" lon="6.87426">
        <ele>2769.3</ele>
        <time>2026-03-23T11:48:58Z</time>
      </trkpt>
      <trkpt lat="44.74544" lon="6.87426">
        <ele>2769.3</ele>
        <time>2026-03-23T11:48:59Z</time>
      </trkpt>
      <trkpt lat="44.74544" lon="6.87426">
        <ele>2769.3</ele>
        <time>2026-03-23T11:49:00Z</time>
      </trkpt>
      <trkpt lat="44.74544" lon="6.87426">
        <ele>2769.3</ele>
        <time>2026-03-23T11:49:01Z</time>
      </trkpt>
      <trkpt lat="44.74544" lon="6.87426">
        <ele>2769.3</ele>
        <time>2026-03-23T11:49:02Z</time>
      </trkpt>
      <trkpt lat="44.74544" lon="6.87426">
        <ele>2769.3</ele>
        <time>2026-03-23T11:49:03Z</time>
      </trkpt>
      <trkpt lat="44.74544" lon="6.87426">
        <ele>2769.3</ele>
        <time>2026-03-23T11:49:04Z</time>
      </trkpt>
      <trkpt lat="44.74544" lon="6.87426">
        <ele>2769.3</ele>
        <time>2026-03-23T11:49:05Z</time>
      </trkpt>
      <trkpt lat="44.74544" lon="6.87426">
        <ele>2769.3</ele>
        <time>2026-03-23T11:49:06Z</time>
      </trkpt>
      <trkpt lat="44.74544" lon="6.87426">
        <ele>2769.3</ele>
        <time>2026-03-23T11:49:07Z</time>
      </trkpt>
      <trkpt lat="44.74544" lon="6.87426">
        <ele>2769.3</ele>
        <time>2026-03-23T11:49:08Z</time>
      </trkpt>
      <trkpt lat="44.74544" lon="6.87426">
        <ele>2769.3</ele>
        <time>2026-03-23T11:49:09Z</time>
      </trkpt>
      <trkpt lat="44.74544" lon="6.87426">
        <ele>2769.3</ele>
        <time>2026-03-23T11:49:10Z</time>
      </trkpt>
      <trkpt lat="44.74544" lon="6.87426">
        <ele>2769.3</ele>
        <time>2026-03-23T11:49:11Z</time>
      </trkpt>
      <trkpt lat="44.74544" lon="6.87426">
        <ele>2769.3</ele>
        <time>2026-03-23T11:49:12Z</time>
      </trkpt>
      <trkpt lat="44.74544" lon="6.87426">
        <ele>2769.3</ele>
        <time>2026-03-23T11:49:13Z</time>
      </trkpt>
      <trkpt lat="44.74544" lon="6.87426">
        <ele>2769.3</ele>
        <time>2026-03-23T11:49:14Z</time>
      </trkpt>
      <trkpt lat="44.74544" lon="6.87426">
        <ele>2769.3</ele>
        <time>2026-03-23T11:49:15Z</time>
      </trkpt>
      <trkpt lat="44.74544" lon="6.87426">
        <ele>2769.3</ele>
        <time>2026-03-23T11:49:16Z</time>
      </trkpt>
      <trkpt lat="44.74544" lon="6.87426">
        <ele>2769.3</ele>
        <time>2026-03-23T11:49:17Z</time>
      </trkpt>
      <trkpt lat="44.74544" lon="6.87426">
        <ele>2769.3</ele>
        <time>2026-03-23T11:49:18Z</time>
      </trkpt>
      <trkpt lat="44.74544" lon="6.87426">
        <ele>2769.3</ele>
        <time>2026-03-23T11:49:19Z</time>
      </trkpt>
      <trkpt lat="44.74544" lon="6.87426">
        <ele>2769.3</ele>
        <time>2026-03-23T11:49:20Z</time>
      </trkpt>
      <trkpt lat="44.74544" lon="6.87426">
        <ele>2769.3</ele>
        <time>2026-03-23T11:49:21Z</time>
      </trkpt>
      <trkpt lat="44.74544" lon="6.87426">
        <ele>2769.3</ele>
        <time>2026-03-23T11:49:22Z</time>
      </trkpt>
      <trkpt lat="44.74544" lon="6.87426">
        <ele>2769.3</ele>
        <time>2026-03-23T11:49:23Z</time>
      </trkpt>
      <trkpt lat="44.74544" lon="6.87426">
        <ele>2769.3</ele>
        <time>2026-03-23T11:49:24Z</time>
      </trkpt>
      <trkpt lat="44.74544" lon="6.87426">
        <ele>2769.3</ele>
        <time>2026-03-23T11:49:25Z</time>
      </trkpt>
      <trkpt lat="44.74544" lon="6.87426">
        <ele>2769.3</ele>
        <time>2026-03-23T11:49:26Z</time>
      </trkpt>
      <trkpt lat="44.74544" lon="6.87426">
        <ele>2769.3</ele>
        <time>2026-03-23T11:49:27Z</time>
      </trkpt>
      <trkpt lat="44.74544" lon="6.87426">
        <ele>2769.3</ele>
        <time>2026-03-23T11:49:28Z</time>
      </trkpt>
      <trkpt lat="44.74544" lon="6.87426">
        <ele>2769.3</ele>
        <time>2026-03-23T11:49:29Z</time>
      </trkpt>
      <trkpt lat="44.74544" lon="6.87426">
        <ele>2769.3</ele>
        <time>2026-03-23T11:49:30Z</time>
      </trkpt>
      <trkpt lat="44.74544" lon="6.87426">
        <ele>2769.3</ele>
        <time>2026-03-23T11:49:31Z</time>
      </trkpt>
      <trkpt lat="44.74544" lon="6.87426">
        <ele>2769.3</ele>
        <time>2026-03-23T11:49:32Z</time>
      </trkpt>
      <trkpt lat="44.74544" lon="6.87426">
        <ele>2769.3</ele>
        <time>2026-03-23T11:49:33Z</time>
      </trkpt>
      <trkpt lat="44.74544" lon="6.87426">
        <ele>2769.3</ele>
        <time>2026-03-23T11:49:34Z</time>
      </trkpt>
      <trkpt lat="44.74544" lon="6.87426">
        <ele>2769.3</ele>
        <time>2026-03-23T11:49:35Z</time>
      </trkpt>
      <trkpt lat="44.74544" lon="6.87426">
        <ele>2769.3</ele>
        <time>2026-03-23T11:49:36Z</time>
      </trkpt>
      <trkpt lat="44.74544" lon="6.87426">
        <ele>2769.3</ele>
        <time>2026-03-23T11:49:37Z</time>
      </trkpt>
      <trkpt lat="44.74544" lon="6.87426">
        <ele>2769.3</ele>
        <time>2026-03-23T11:49:38Z</time>
      </trkpt>
      <trkpt lat="44.74544" lon="6.87426">
        <ele>2769.3</ele>
        <time>2026-03-23T11:49:39Z</time>
      </trkpt>
      <trkpt lat="44.74544" lon="6.87426">
        <ele>2769.3</ele>
        <time>2026-03-23T11:49:40Z</time>
      </trkpt>
      <trkpt lat="44.74544" lon="6.87426">
        <ele>2769.3</ele>
        <time>2026-03-23T11:49:41Z</time>
      </trkpt>
      <trkpt lat="44.74544" lon="6.87426">
        <ele>2769.3</ele>
        <time>2026-03-23T11:49:42Z</time>
      </trkpt>
      <trkpt lat="44.74544" lon="6.87426">
        <ele>2769.3</ele>
        <time>2026-03-23T11:49:43Z</time>
      </trkpt>
      <trkpt lat="44.74544" lon="6.87426">
        <ele>2769.3</ele>
        <time>2026-03-23T11:49:44Z</time>
      </trkpt>
      <trkpt lat="44.74544" lon="6.87426">
        <ele>2769.3</ele>
        <time>2026-03-23T11:49:45Z</time>
      </trkpt>
      <trkpt lat="44.74544" lon="6.87426">
        <ele>2769.3</ele>
        <time>2026-03-23T11:49:46Z</time>
      </trkpt>
      <trkpt lat="44.74544" lon="6.87426">
        <ele>2769.3</ele>
        <time>2026-03-23T11:49:47Z</time>
      </trkpt>
      <trkpt lat="44.74544" lon="6.87426">
        <ele>2769.3</ele>
        <time>2026-03-23T11:49:48Z</time>
      </trkpt>
      <trkpt lat="44.74544" lon="6.87426">
        <ele>2769.3</ele>
        <time>2026-03-23T11:49:49Z</time>
      </trkpt>
      <trkpt lat="44.74544" lon="6.87426">
        <ele>2769.3</ele>
        <time>2026-03-23T11:49:50Z</time>
      </trkpt>
      <trkpt lat="44.74544" lon="6.87426">
        <ele>2769.3</ele>
        <time>2026-03-23T11:49:51Z</time>
      </trkpt>
      <trkpt lat="44.74544" lon="6.87426">
        <ele>2769.3</ele>
        <time>2026-03-23T11:49:52Z</time>
      </trkpt>
      <trkpt lat="44.74544" lon="6.87426">
        <ele>2769.3</ele>
        <time>2026-03-23T11:49:53Z</time>
      </trkpt>
      <trkpt lat="44.74544" lon="6.87426">
        <ele>2769.3</ele>
        <time>2026-03-23T11:49:54Z</time>
      </trkpt>
      <trkpt lat="44.74544" lon="6.87426">
        <ele>2769.3</ele>
        <time>2026-03-23T11:49:55Z</time>
      </trkpt>
      <trkpt lat="44.74544" lon="6.87426">
        <ele>2769.3</ele>
        <time>2026-03-23T11:49:56Z</time>
      </trkpt>
      <trkpt lat="44.74544" lon="6.87426">
        <ele>2769.3</ele>
        <time>2026-03-23T11:49:57Z</time>
      </trkpt>
      <trkpt lat="44.74544" lon="6.87426">
        <ele>2769.3</ele>
        <time>2026-03-23T11:49:58Z</time>
      </trkpt>
      <trkpt lat="44.74544" lon="6.87426">
        <ele>2769.3</ele>
        <time>2026-03-23T11:49:59Z</time>
      </trkpt>
      <trkpt lat="44.74544" lon="6.87426">
        <ele>2769.3</ele>
        <time>2026-03-23T11:50:00Z</time>
      </trkpt>
      <trkpt lat="44.74544" lon="6.87426">
        <ele>2769.3</ele>
        <time>2026-03-23T11:50:01Z</time>
      </trkpt>
      <trkpt lat="44.74544" lon="6.87426">
        <ele>2769.3</ele>
        <time>2026-03-23T11:50:02Z</time>
      </trkpt>
      <trkpt lat="44.74544" lon="6.87426">
        <ele>2769.3</ele>
        <time>2026-03-23T11:50:03Z</time>
      </trkpt>
      <trkpt lat="44.74544" lon="6.87426">
        <ele>2769.3</ele>
        <time>2026-03-23T11:50:04Z</time>
      </trkpt>
      <trkpt lat="44.74544" lon="6.87426">
        <ele>2769.3</ele>
        <time>2026-03-23T11:50:05Z</time>
      </trkpt>
      <trkpt lat="44.74544" lon="6.87426">
        <ele>2769.3</ele>
        <time>2026-03-23T11:50:06Z</time>
      </trkpt>
      <trkpt lat="44.74544" lon="6.87427">
        <ele>2769.3</ele>
        <time>2026-03-23T11:50:07Z</time>
      </trkpt>
      <trkpt lat="44.74544" lon="6.87427">
        <ele>2769.3</ele>
        <time>2026-03-23T11:50:08Z</time>
      </trkpt>
      <trkpt lat="44.74544" lon="6.87427">
        <ele>2769.3</ele>
        <time>2026-03-23T11:50:09Z</time>
      </trkpt>
      <trkpt lat="44.74544" lon="6.87427">
        <ele>2769.3</ele>
        <time>2026-03-23T11:50:10Z</time>
      </trkpt>
      <trkpt lat="44.74544" lon="6.87427">
        <ele>2769.3</ele>
        <time>2026-03-23T11:50:11Z</time>
      </trkpt>
      <trkpt lat="44.74544" lon="6.87427">
        <ele>2769.3</ele>
        <time>2026-03-23T11:50:12Z</time>
      </trkpt>
      <trkpt lat="44.74544" lon="6.87427">
        <ele>2769.3</ele>
        <time>2026-03-23T11:50:13Z</time>
      </trkpt>
      <trkpt lat="44.74544" lon="6.87427">
        <ele>2769.3</ele>
        <time>2026-03-23T11:50:14Z</time>
      </trkpt>
      <trkpt lat="44.74544" lon="6.87426">
        <ele>2769.3</ele>
        <time>2026-03-23T11:50:15Z</time>
      </trkpt>
      <trkpt lat="44.74544" lon="6.87426">
        <ele>2769.3</ele>
        <time>2026-03-23T11:50:16Z</time>
      </trkpt>
      <trkpt lat="44.74544" lon="6.87427">
        <ele>2769.3</ele>
        <time>2026-03-23T11:50:17Z</time>
      </trkpt>
      <trkpt lat="44.74544" lon="6.87426">
        <ele>2769.3</ele>
        <time>2026-03-23T11:50:18Z</time>
      </trkpt>
      <trkpt lat="44.74544" lon="6.87426">
        <ele>2769.3</ele>
        <time>2026-03-23T11:50:19Z</time>
      </trkpt>
      <trkpt lat="44.74544" lon="6.87426">
        <ele>2769.3</ele>
        <time>2026-03-23T11:50:20Z</time>
      </trkpt>
      <trkpt lat="44.74544" lon="6.87426">
        <ele>2769.3</ele>
        <time>2026-03-23T11:50:21Z</time>
      </trkpt>
      <trkpt lat="44.74544" lon="6.87426">
        <ele>2769.3</ele>
        <time>2026-03-23T11:50:22Z</time>
      </trkpt>
      <trkpt lat="44.74544" lon="6.87426">
        <ele>2769.3</ele>
        <time>2026-03-23T11:50:23Z</time>
      </trkpt>
      <trkpt lat="44.74545" lon="6.87426">
        <ele>2769.3</ele>
        <time>2026-03-23T11:50:24Z</time>
      </trkpt>
      <trkpt lat="44.74544" lon="6.87426">
        <ele>2769.4</ele>
        <time>2026-03-23T11:50:25Z</time>
      </trkpt>
      <trkpt lat="44.74544" lon="6.87426">
        <ele>2769.4</ele>
        <time>2026-03-23T11:50:26Z</time>
      </trkpt>
      <trkpt lat="44.74544" lon="6.87426">
        <ele>2769.4</ele>
        <time>2026-03-23T11:50:27Z</time>
      </trkpt>
      <trkpt lat="44.74544" lon="6.87426">
        <ele>2769.4</ele>
        <time>2026-03-23T11:50:28Z</time>
      </trkpt>
      <trkpt lat="44.74544" lon="6.87426">
        <ele>2769.4</ele>
        <time>2026-03-23T11:50:29Z</time>
      </trkpt>
      <trkpt lat="44.74544" lon="6.87426">
        <ele>2769.4</ele>
        <time>2026-03-23T11:50:30Z</time>
      </trkpt>
      <trkpt lat="44.74544" lon="6.87426">
        <ele>2769.4</ele>
        <time>2026-03-23T11:50:31Z</time>
      </trkpt>
      <trkpt lat="44.74543" lon="6.87426">
        <ele>2769.4</ele>
        <time>2026-03-23T11:50:32Z</time>
      </trkpt>
      <trkpt lat="44.74543" lon="6.87425">
        <ele>2769.4</ele>
        <time>2026-03-23T11:50:33Z</time>
      </trkpt>
      <trkpt lat="44.74543" lon="6.87425">
        <ele>2769.4</ele>
        <time>2026-03-23T11:50:34Z</time>
      </trkpt>
      <trkpt lat="44.74543" lon="6.87425">
        <ele>2769.4</ele>
        <time>2026-03-23T11:50:35Z</time>
      </trkpt>
      <trkpt lat="44.74543" lon="6.87425">
        <ele>2769.4</ele>
        <time>2026-03-23T11:50:36Z</time>
      </trkpt>
      <trkpt lat="44.74543" lon="6.87425">
        <ele>2769.4</ele>
        <time>2026-03-23T11:50:37Z</time>
      </trkpt>
      <trkpt lat="44.74543" lon="6.87425">
        <ele>2769.4</ele>
        <time>2026-03-23T11:50:38Z</time>
      </trkpt>
      <trkpt lat="44.74543" lon="6.87425">
        <ele>2769.4</ele>
        <time>2026-03-23T11:50:39Z</time>
      </trkpt>
      <trkpt lat="44.74543" lon="6.87425">
        <ele>2769.4</ele>
        <time>2026-03-23T11:50:40Z</time>
      </trkpt>
      <trkpt lat="44.74543" lon="6.87425">
        <ele>2769.4</ele>
        <time>2026-03-23T11:50:41Z</time>
      </trkpt>
      <trkpt lat="44.74543" lon="6.87425">
        <ele>2769.4</ele>
        <time>2026-03-23T11:50:42Z</time>
      </trkpt>
      <trkpt lat="44.74543" lon="6.87425">
        <ele>2769.4</ele>
        <time>2026-03-23T11:50:43Z</time>
      </trkpt>
      <trkpt lat="44.74543" lon="6.87425">
        <ele>2769.4</ele>
        <time>2026-03-23T11:50:44Z</time>
      </trkpt>
      <trkpt lat="44.74543" lon="6.87425">
        <ele>2769.4</ele>
        <time>2026-03-23T11:50:45Z</time>
      </trkpt>
      <trkpt lat="44.74543" lon="6.87425">
        <ele>2769.4</ele>
        <time>2026-03-23T11:50:46Z</time>
      </trkpt>
      <trkpt lat="44.74543" lon="6.87425">
        <ele>2769.4</ele>
        <time>2026-03-23T11:50:47Z</time>
      </trkpt>
      <trkpt lat="44.74543" lon="6.87425">
        <ele>2769.4</ele>
        <time>2026-03-23T11:50:48Z</time>
      </trkpt>
      <trkpt lat="44.74543" lon="6.87425">
        <ele>2769.4</ele>
        <time>2026-03-23T11:50:49Z</time>
      </trkpt>
      <trkpt lat="44.74543" lon="6.87425">
        <ele>2769.4</ele>
        <time>2026-03-23T11:50:50Z</time>
      </trkpt>
      <trkpt lat="44.74543" lon="6.87425">
        <ele>2769.4</ele>
        <time>2026-03-23T11:50:51Z</time>
      </trkpt>
      <trkpt lat="44.74544" lon="6.87425">
        <ele>2769.4</ele>
        <time>2026-03-23T11:50:52Z</time>
      </trkpt>
      <trkpt lat="44.74544" lon="6.87425">
        <ele>2769.4</ele>
        <time>2026-03-23T11:50:53Z</time>
      </trkpt>
      <trkpt lat="44.74544" lon="6.87425">
        <ele>2769.4</ele>
        <time>2026-03-23T11:50:54Z</time>
      </trkpt>
      <trkpt lat="44.74544" lon="6.87425">
        <ele>2769.4</ele>
        <time>2026-03-23T11:50:55Z</time>
      </trkpt>
      <trkpt lat="44.74544" lon="6.87425">
        <ele>2769.4</ele>
        <time>2026-03-23T11:50:56Z</time>
      </trkpt>
      <trkpt lat="44.74544" lon="6.87425">
        <ele>2769.4</ele>
        <time>2026-03-23T11:50:57Z</time>
      </trkpt>
      <trkpt lat="44.74544" lon="6.87425">
        <ele>2769.4</ele>
        <time>2026-03-23T11:50:58Z</time>
      </trkpt>
      <trkpt lat="44.74544" lon="6.87425">
        <ele>2769.4</ele>
        <time>2026-03-23T11:50:59Z</time>
      </trkpt>
      <trkpt lat="44.74544" lon="6.87425">
        <ele>2769.4</ele>
        <time>2026-03-23T11:51:00Z</time>
      </trkpt>
      <trkpt lat="44.74544" lon="6.87425">
        <ele>2769.4</ele>
        <time>2026-03-23T11:51:01Z</time>
      </trkpt>
      <trkpt lat="44.74544" lon="6.87425">
        <ele>2769.4</ele>
        <time>2026-03-23T11:51:02Z</time>
      </trkpt>
      <trkpt lat="44.74544" lon="6.87425">
        <ele>2769.4</ele>
        <time>2026-03-23T11:51:03Z</time>
      </trkpt>
      <trkpt lat="44.74543" lon="6.87426">
        <ele>2769.4</ele>
        <time>2026-03-23T11:51:04Z</time>
      </trkpt>
      <trkpt lat="44.74543" lon="6.87425">
        <ele>2769.4</ele>
        <time>2026-03-23T11:51:05Z</time>
      </trkpt>
      <trkpt lat="44.74544" lon="6.87425">
        <ele>2769.4</ele>
        <time>2026-03-23T11:51:06Z</time>
      </trkpt>
      <trkpt lat="44.74544" lon="6.87425">
        <ele>2769.4</ele>
        <time>2026-03-23T11:51:07Z</time>
      </trkpt>
      <trkpt lat="44.74543" lon="6.87424">
        <ele>2769.4</ele>
        <time>2026-03-23T11:51:08Z</time>
      </trkpt>
      <trkpt lat="44.74542" lon="6.87423">
        <ele>2769.5</ele>
        <time>2026-03-23T11:51:09Z</time>
      </trkpt>
      <trkpt lat="44.74542" lon="6.87423">
        <ele>2769.5</ele>
        <time>2026-03-23T11:51:10Z</time>
      </trkpt>
      <trkpt lat="44.74542" lon="6.87424">
        <ele>2769.5</ele>
        <time>2026-03-23T11:51:11Z</time>
      </trkpt>
      <trkpt lat="44.74542" lon="6.87424">
        <ele>2769.5</ele>
        <time>2026-03-23T11:51:12Z</time>
      </trkpt>
      <trkpt lat="44.74542" lon="6.87423">
        <ele>2769.5</ele>
        <time>2026-03-23T11:51:13Z</time>
      </trkpt>
      <trkpt lat="44.74542" lon="6.87423">
        <ele>2769.5</ele>
        <time>2026-03-23T11:51:14Z</time>
      </trkpt>
      <trkpt lat="44.74542" lon="6.87423">
        <ele>2769.5</ele>
        <time>2026-03-23T11:51:15Z</time>
      </trkpt>
      <trkpt lat="44.74542" lon="6.87423">
        <ele>2769.5</ele>
        <time>2026-03-23T11:51:16Z</time>
      </trkpt>
      <trkpt lat="44.74542" lon="6.87423">
        <ele>2769.5</ele>
        <time>2026-03-23T11:51:17Z</time>
      </trkpt>
      <trkpt lat="44.74542" lon="6.87423">
        <ele>2769.5</ele>
        <time>2026-03-23T11:51:18Z</time>
      </trkpt>
      <trkpt lat="44.74542" lon="6.87423">
        <ele>2769.5</ele>
        <time>2026-03-23T11:51:19Z</time>
      </trkpt>
      <trkpt lat="44.74542" lon="6.87423">
        <ele>2769.5</ele>
        <time>2026-03-23T11:51:20Z</time>
      </trkpt>
      <trkpt lat="44.74542" lon="6.87423">
        <ele>2769.5</ele>
        <time>2026-03-23T11:51:21Z</time>
      </trkpt>
      <trkpt lat="44.74542" lon="6.87423">
        <ele>2769.5</ele>
        <time>2026-03-23T11:51:22Z</time>
      </trkpt>
      <trkpt lat="44.74542" lon="6.87423">
        <ele>2769.5</ele>
        <time>2026-03-23T11:51:23Z</time>
      </trkpt>
      <trkpt lat="44.74542" lon="6.87423">
        <ele>2769.5</ele>
        <time>2026-03-23T11:51:24Z</time>
      </trkpt>
      <trkpt lat="44.74542" lon="6.87423">
        <ele>2769.5</ele>
        <time>2026-03-23T11:51:25Z</time>
      </trkpt>
      <trkpt lat="44.74542" lon="6.87423">
        <ele>2769.5</ele>
        <time>2026-03-23T11:51:26Z</time>
      </trkpt>
      <trkpt lat="44.74542" lon="6.87423">
        <ele>2769.5</ele>
        <time>2026-03-23T11:51:27Z</time>
      </trkpt>
      <trkpt lat="44.74542" lon="6.87423">
        <ele>2769.5</ele>
        <time>2026-03-23T11:51:28Z</time>
      </trkpt>
      <trkpt lat="44.74542" lon="6.87423">
        <ele>2769.5</ele>
        <time>2026-03-23T11:51:29Z</time>
      </trkpt>
      <trkpt lat="44.74542" lon="6.87423">
        <ele>2769.5</ele>
        <time>2026-03-23T11:51:30Z</time>
      </trkpt>
      <trkpt lat="44.74542" lon="6.87423">
        <ele>2769.5</ele>
        <time>2026-03-23T11:51:31Z</time>
      </trkpt>
      <trkpt lat="44.74542" lon="6.87423">
        <ele>2769.5</ele>
        <time>2026-03-23T11:51:32Z</time>
      </trkpt>
      <trkpt lat="44.74542" lon="6.87423">
        <ele>2769.5</ele>
        <time>2026-03-23T11:51:33Z</time>
      </trkpt>
      <trkpt lat="44.74542" lon="6.87423">
        <ele>2769.5</ele>
        <time>2026-03-23T11:51:34Z</time>
      </trkpt>
      <trkpt lat="44.74542" lon="6.87423">
        <ele>2769.5</ele>
        <time>2026-03-23T11:51:35Z</time>
      </trkpt>
      <trkpt lat="44.74542" lon="6.87423">
        <ele>2769.5</ele>
        <time>2026-03-23T11:51:36Z</time>
      </trkpt>
      <trkpt lat="44.74542" lon="6.87423">
        <ele>2769.5</ele>
        <time>2026-03-23T11:51:37Z</time>
      </trkpt>
      <trkpt lat="44.74542" lon="6.87423">
        <ele>2769.5</ele>
        <time>2026-03-23T11:51:38Z</time>
      </trkpt>
      <trkpt lat="44.74542" lon="6.87423">
        <ele>2769.5</ele>
        <time>2026-03-23T11:51:39Z</time>
      </trkpt>
      <trkpt lat="44.74542" lon="6.87423">
        <ele>2769.5</ele>
        <time>2026-03-23T11:51:40Z</time>
      </trkpt>
      <trkpt lat="44.74542" lon="6.87423">
        <ele>2769.5</ele>
        <time>2026-03-23T11:51:41Z</time>
      </trkpt>
      <trkpt lat="44.74542" lon="6.87423">
        <ele>2769.5</ele>
        <time>2026-03-23T11:51:42Z</time>
      </trkpt>
      <trkpt lat="44.74542" lon="6.87423">
        <ele>2769.5</ele>
        <time>2026-03-23T11:51:43Z</time>
      </trkpt>
      <trkpt lat="44.74542" lon="6.87423">
        <ele>2769.5</ele>
        <time>2026-03-23T11:51:44Z</time>
      </trkpt>
      <trkpt lat="44.74542" lon="6.87423">
        <ele>2769.5</ele>
        <time>2026-03-23T11:51:45Z</time>
      </trkpt>
      <trkpt lat="44.74542" lon="6.87423">
        <ele>2769.5</ele>
        <time>2026-03-23T11:51:46Z</time>
      </trkpt>
      <trkpt lat="44.74542" lon="6.87423">
        <ele>2769.5</ele>
        <time>2026-03-23T11:51:47Z</time>
      </trkpt>
      <trkpt lat="44.74542" lon="6.87424">
        <ele>2769.5</ele>
        <time>2026-03-23T11:51:48Z</time>
      </trkpt>
      <trkpt lat="44.74543" lon="6.87424">
        <ele>2769.5</ele>
        <time>2026-03-23T11:51:49Z</time>
      </trkpt>
      <trkpt lat="44.74543" lon="6.87424">
        <ele>2769.5</ele>
        <time>2026-03-23T11:51:50Z</time>
      </trkpt>
      <trkpt lat="44.74543" lon="6.87424">
        <ele>2769.5</ele>
        <time>2026-03-23T11:51:51Z</time>
      </trkpt>
      <trkpt lat="44.74543" lon="6.87424">
        <ele>2769.5</ele>
        <time>2026-03-23T11:51:52Z</time>
      </trkpt>
      <trkpt lat="44.74543" lon="6.87424">
        <ele>2769.5</ele>
        <time>2026-03-23T11:51:53Z</time>
      </trkpt>
      <trkpt lat="44.74543" lon="6.87424">
        <ele>2769.5</ele>
        <time>2026-03-23T11:51:54Z</time>
      </trkpt>
      <trkpt lat="44.74543" lon="6.87424">
        <ele>2769.5</ele>
        <time>2026-03-23T11:51:55Z</time>
      </trkpt>
      <trkpt lat="44.74543" lon="6.87424">
        <ele>2769.5</ele>
        <time>2026-03-23T11:51:56Z</time>
      </trkpt>
      <trkpt lat="44.74543" lon="6.87424">
        <ele>2769.5</ele>
        <time>2026-03-23T11:51:57Z</time>
      </trkpt>
      <trkpt lat="44.74543" lon="6.87424">
        <ele>2769.5</ele>
        <time>2026-03-23T11:51:58Z</time>
      </trkpt>
      <trkpt lat="44.74543" lon="6.87424">
        <ele>2769.5</ele>
        <time>2026-03-23T11:51:59Z</time>
      </trkpt>
      <trkpt lat="44.74543" lon="6.87424">
        <ele>2769.5</ele>
        <time>2026-03-23T11:52:00Z</time>
      </trkpt>
      <trkpt lat="44.74543" lon="6.87424">
        <ele>2769.5</ele>
        <time>2026-03-23T11:52:01Z</time>
      </trkpt>
      <trkpt lat="44.74543" lon="6.87424">
        <ele>2769.5</ele>
        <time>2026-03-23T11:52:02Z</time>
      </trkpt>
      <trkpt lat="44.74543" lon="6.87424">
        <ele>2769.5</ele>
        <time>2026-03-23T11:52:03Z</time>
      </trkpt>
      <trkpt lat="44.74543" lon="6.87424">
        <ele>2769.5</ele>
        <time>2026-03-23T11:52:04Z</time>
      </trkpt>
      <trkpt lat="44.74543" lon="6.87424">
        <ele>2769.5</ele>
        <time>2026-03-23T11:52:05Z</time>
      </trkpt>
      <trkpt lat="44.74543" lon="6.87424">
        <ele>2769.5</ele>
        <time>2026-03-23T11:52:06Z</time>
      </trkpt>
      <trkpt lat="44.74543" lon="6.87424">
        <ele>2769.5</ele>
        <time>2026-03-23T11:52:07Z</time>
      </trkpt>
      <trkpt lat="44.74543" lon="6.87424">
        <ele>2769.5</ele>
        <time>2026-03-23T11:52:08Z</time>
      </trkpt>
      <trkpt lat="44.74543" lon="6.87424">
        <ele>2769.5</ele>
        <time>2026-03-23T11:52:09Z</time>
      </trkpt>
      <trkpt lat="44.74543" lon="6.87425">
        <ele>2769.5</ele>
        <time>2026-03-23T11:52:10Z</time>
      </trkpt>
      <trkpt lat="44.74543" lon="6.87425">
        <ele>2769.5</ele>
        <time>2026-03-23T11:52:11Z</time>
      </trkpt>
      <trkpt lat="44.74543" lon="6.87425">
        <ele>2769.5</ele>
        <time>2026-03-23T11:52:12Z</time>
      </trkpt>
      <trkpt lat="44.74543" lon="6.87424">
        <ele>2769.5</ele>
        <time>2026-03-23T11:52:13Z</time>
      </trkpt>
      <trkpt lat="44.74543" lon="6.87424">
        <ele>2769.5</ele>
        <time>2026-03-23T11:52:14Z</time>
      </trkpt>
      <trkpt lat="44.74543" lon="6.87424">
        <ele>2769.5</ele>
        <time>2026-03-23T11:52:15Z</time>
      </trkpt>
      <trkpt lat="44.74543" lon="6.87424">
        <ele>2769.5</ele>
        <time>2026-03-23T11:52:16Z</time>
      </trkpt>
      <trkpt lat="44.74543" lon="6.87424">
        <ele>2769.5</ele>
        <time>2026-03-23T11:52:17Z</time>
      </trkpt>
      <trkpt lat="44.74543" lon="6.87424">
        <ele>2769.5</ele>
        <time>2026-03-23T11:52:18Z</time>
      </trkpt>
      <trkpt lat="44.74543" lon="6.87424">
        <ele>2769.5</ele>
        <time>2026-03-23T11:52:19Z</time>
      </trkpt>
      <trkpt lat="44.74543" lon="6.87424">
        <ele>2769.5</ele>
        <time>2026-03-23T11:52:20Z</time>
      </trkpt>
      <trkpt lat="44.74543" lon="6.87424">
        <ele>2769.5</ele>
        <time>2026-03-23T11:52:21Z</time>
      </trkpt>
      <trkpt lat="44.74543" lon="6.87424">
        <ele>2769.5</ele>
        <time>2026-03-23T11:52:22Z</time>
      </trkpt>
      <trkpt lat="44.74543" lon="6.87424">
        <ele>2769.5</ele>
        <time>2026-03-23T11:52:23Z</time>
      </trkpt>
      <trkpt lat="44.74543" lon="6.87424">
        <ele>2769.5</ele>
        <time>2026-03-23T11:52:24Z</time>
      </trkpt>
      <trkpt lat="44.74543" lon="6.87424">
        <ele>2769.5</ele>
        <time>2026-03-23T11:52:25Z</time>
      </trkpt>
      <trkpt lat="44.74543" lon="6.87424">
        <ele>2769.5</ele>
        <time>2026-03-23T11:52:26Z</time>
      </trkpt>
      <trkpt lat="44.74543" lon="6.87424">
        <ele>2769.5</ele>
        <time>2026-03-23T11:52:27Z</time>
      </trkpt>
      <trkpt lat="44.74543" lon="6.87424">
        <ele>2769.5</ele>
        <time>2026-03-23T11:52:28Z</time>
      </trkpt>
      <trkpt lat="44.74543" lon="6.87424">
        <ele>2769.5</ele>
        <time>2026-03-23T11:52:29Z</time>
      </trkpt>
      <trkpt lat="44.74543" lon="6.87424">
        <ele>2769.5</ele>
        <time>2026-03-23T11:52:30Z</time>
      </trkpt>
      <trkpt lat="44.74543" lon="6.87424">
        <ele>2769.5</ele>
        <time>2026-03-23T11:52:31Z</time>
      </trkpt>
      <trkpt lat="44.74543" lon="6.87424">
        <ele>2769.5</ele>
        <time>2026-03-23T11:52:32Z</time>
      </trkpt>
      <trkpt lat="44.74543" lon="6.87424">
        <ele>2769.5</ele>
        <time>2026-03-23T11:52:33Z</time>
      </trkpt>
      <trkpt lat="44.74543" lon="6.87424">
        <ele>2769.5</ele>
        <time>2026-03-23T11:52:34Z</time>
      </trkpt>
      <trkpt lat="44.74543" lon="6.87424">
        <ele>2769.5</ele>
        <time>2026-03-23T11:52:35Z</time>
      </trkpt>
      <trkpt lat="44.74543" lon="6.87424">
        <ele>2769.5</ele>
        <time>2026-03-23T11:52:36Z</time>
      </trkpt>
      <trkpt lat="44.74543" lon="6.87424">
        <ele>2769.5</ele>
        <time>2026-03-23T11:52:37Z</time>
      </trkpt>
      <trkpt lat="44.74543" lon="6.87424">
        <ele>2769.5</ele>
        <time>2026-03-23T11:52:38Z</time>
      </trkpt>
      <trkpt lat="44.74543" lon="6.87424">
        <ele>2769.5</ele>
        <time>2026-03-23T11:52:39Z</time>
      </trkpt>
      <trkpt lat="44.74543" lon="6.87424">
        <ele>2769.5</ele>
        <time>2026-03-23T11:52:40Z</time>
      </trkpt>
      <trkpt lat="44.74543" lon="6.87424">
        <ele>2769.5</ele>
        <time>2026-03-23T11:52:41Z</time>
      </trkpt>
      <trkpt lat="44.74543" lon="6.87424">
        <ele>2769.5</ele>
        <time>2026-03-23T11:52:42Z</time>
      </trkpt>
      <trkpt lat="44.74543" lon="6.87424">
        <ele>2769.5</ele>
        <time>2026-03-23T11:52:43Z</time>
      </trkpt>
      <trkpt lat="44.74543" lon="6.87424">
        <ele>2769.5</ele>
        <time>2026-03-23T11:52:44Z</time>
      </trkpt>
      <trkpt lat="44.74543" lon="6.87424">
        <ele>2769.5</ele>
        <time>2026-03-23T11:52:45Z</time>
      </trkpt>
      <trkpt lat="44.74543" lon="6.87423">
        <ele>2769.6</ele>
        <time>2026-03-23T11:52:46Z</time>
      </trkpt>
      <trkpt lat="44.74543" lon="6.87423">
        <ele>2769.6</ele>
        <time>2026-03-23T11:52:47Z</time>
      </trkpt>
      <trkpt lat="44.74543" lon="6.87423">
        <ele>2769.6</ele>
        <time>2026-03-23T11:52:48Z</time>
      </trkpt>
      <trkpt lat="44.74543" lon="6.87423">
        <ele>2769.6</ele>
        <time>2026-03-23T11:52:49Z</time>
      </trkpt>
      <trkpt lat="44.74543" lon="6.87423">
        <ele>2769.6</ele>
        <time>2026-03-23T11:52:50Z</time>
      </trkpt>
      <trkpt lat="44.74543" lon="6.87424">
        <ele>2769.6</ele>
        <time>2026-03-23T11:52:51Z</time>
      </trkpt>
      <trkpt lat="44.74543" lon="6.87424">
        <ele>2769.6</ele>
        <time>2026-03-23T11:52:52Z</time>
      </trkpt>
      <trkpt lat="44.74543" lon="6.87424">
        <ele>2769.6</ele>
        <time>2026-03-23T11:52:53Z</time>
      </trkpt>
      <trkpt lat="44.74543" lon="6.87424">
        <ele>2769.6</ele>
        <time>2026-03-23T11:52:54Z</time>
      </trkpt>
      <trkpt lat="44.74543" lon="6.87424">
        <ele>2769.6</ele>
        <time>2026-03-23T11:52:55Z</time>
      </trkpt>
      <trkpt lat="44.74543" lon="6.87424">
        <ele>2769.6</ele>
        <time>2026-03-23T11:52:56Z</time>
      </trkpt>
      <trkpt lat="44.74543" lon="6.87424">
        <ele>2769.6</ele>
        <time>2026-03-23T11:52:57Z</time>
      </trkpt>
      <trkpt lat="44.74543" lon="6.87424">
        <ele>2769.6</ele>
        <time>2026-03-23T11:52:58Z</time>
      </trkpt>
      <trkpt lat="44.74543" lon="6.87424">
        <ele>2769.6</ele>
        <time>2026-03-23T11:52:59Z</time>
      </trkpt>
      <trkpt lat="44.74543" lon="6.87424">
        <ele>2769.6</ele>
        <time>2026-03-23T11:53:00Z</time>
      </trkpt>
      <trkpt lat="44.74543" lon="6.87424">
        <ele>2769.6</ele>
        <time>2026-03-23T11:53:01Z</time>
      </trkpt>
      <trkpt lat="44.74543" lon="6.87425">
        <ele>2769.6</ele>
        <time>2026-03-23T11:53:02Z</time>
      </trkpt>
      <trkpt lat="44.74543" lon="6.87425">
        <ele>2769.6</ele>
        <time>2026-03-23T11:53:03Z</time>
      </trkpt>
      <trkpt lat="44.74543" lon="6.87424">
        <ele>2769.6</ele>
        <time>2026-03-23T11:53:04Z</time>
      </trkpt>
      <trkpt lat="44.74543" lon="6.87423">
        <ele>2769.6</ele>
        <time>2026-03-23T11:53:05Z</time>
      </trkpt>
      <trkpt lat="44.74543" lon="6.87422">
        <ele>2769.6</ele>
        <time>2026-03-23T11:53:06Z</time>
      </trkpt>
      <trkpt lat="44.74543" lon="6.87421">
        <ele>2769.6</ele>
        <time>2026-03-23T11:53:07Z</time>
      </trkpt>
      <trkpt lat="44.74543" lon="6.87421">
        <ele>2769.6</ele>
        <time>2026-03-23T11:53:08Z</time>
      </trkpt>
      <trkpt lat="44.74543" lon="6.87421">
        <ele>2769.6</ele>
        <time>2026-03-23T11:53:09Z</time>
      </trkpt>
      <trkpt lat="44.74544" lon="6.87421">
        <ele>2769.6</ele>
        <time>2026-03-23T11:53:10Z</time>
      </trkpt>
      <trkpt lat="44.74544" lon="6.8742">
        <ele>2769.6</ele>
        <time>2026-03-23T11:53:11Z</time>
      </trkpt>
      <trkpt lat="44.74545" lon="6.8742">
        <ele>2769.7</ele>
        <time>2026-03-23T11:53:12Z</time>
      </trkpt>
      <trkpt lat="44.74545" lon="6.8742">
        <ele>2769.7</ele>
        <time>2026-03-23T11:53:13Z</time>
      </trkpt>
      <trkpt lat="44.74546" lon="6.8742">
        <ele>2769.7</ele>
        <time>2026-03-23T11:53:14Z</time>
      </trkpt>
      <trkpt lat="44.74546" lon="6.87421">
        <ele>2769.7</ele>
        <time>2026-03-23T11:53:15Z</time>
      </trkpt>
      <trkpt lat="44.74546" lon="6.87421">
        <ele>2769.7</ele>
        <time>2026-03-23T11:53:16Z</time>
      </trkpt>
      <trkpt lat="44.74546" lon="6.87421">
        <ele>2769.7</ele>
        <time>2026-03-23T11:53:17Z</time>
      </trkpt>
      <trkpt lat="44.74546" lon="6.87421">
        <ele>2769.7</ele>
        <time>2026-03-23T11:53:18Z</time>
      </trkpt>
      <trkpt lat="44.74546" lon="6.87421">
        <ele>2769.7</ele>
        <time>2026-03-23T11:53:19Z</time>
      </trkpt>
      <trkpt lat="44.74547" lon="6.87422">
        <ele>2769.7</ele>
        <time>2026-03-23T11:53:20Z</time>
      </trkpt>
      <trkpt lat="44.74546" lon="6.87422">
        <ele>2769.7</ele>
        <time>2026-03-23T11:53:21Z</time>
      </trkpt>
      <trkpt lat="44.74546" lon="6.87422">
        <ele>2769.7</ele>
        <time>2026-03-23T11:53:22Z</time>
      </trkpt>
      <trkpt lat="44.74546" lon="6.87422">
        <ele>2769.7</ele>
        <time>2026-03-23T11:53:23Z</time>
      </trkpt>
      <trkpt lat="44.74546" lon="6.87422">
        <ele>2769.7</ele>
        <time>2026-03-23T11:53:24Z</time>
      </trkpt>
      <trkpt lat="44.74546" lon="6.87422">
        <ele>2769.7</ele>
        <time>2026-03-23T11:53:25Z</time>
      </trkpt>
      <trkpt lat="44.74546" lon="6.87422">
        <ele>2769.7</ele>
        <time>2026-03-23T11:53:26Z</time>
      </trkpt>
      <trkpt lat="44.74546" lon="6.87422">
        <ele>2769.7</ele>
        <time>2026-03-23T11:53:27Z</time>
      </trkpt>
      <trkpt lat="44.74546" lon="6.87422">
        <ele>2769.7</ele>
        <time>2026-03-23T11:53:28Z</time>
      </trkpt>
      <trkpt lat="44.74546" lon="6.87422">
        <ele>2769.7</ele>
        <time>2026-03-23T11:53:29Z</time>
      </trkpt>
      <trkpt lat="44.74546" lon="6.87422">
        <ele>2769.7</ele>
        <time>2026-03-23T11:53:30Z</time>
      </trkpt>
      <trkpt lat="44.74546" lon="6.87422">
        <ele>2769.7</ele>
        <time>2026-03-23T11:53:31Z</time>
      </trkpt>
      <trkpt lat="44.74546" lon="6.87422">
        <ele>2769.7</ele>
        <time>2026-03-23T11:53:32Z</time>
      </trkpt>
      <trkpt lat="44.74546" lon="6.87422">
        <ele>2769.7</ele>
        <time>2026-03-23T11:53:33Z</time>
      </trkpt>
      <trkpt lat="44.74546" lon="6.87422">
        <ele>2769.7</ele>
        <time>2026-03-23T11:53:34Z</time>
      </trkpt>
      <trkpt lat="44.74546" lon="6.87422">
        <ele>2769.7</ele>
        <time>2026-03-23T11:53:35Z</time>
      </trkpt>
      <trkpt lat="44.74545" lon="6.87423">
        <ele>2769.7</ele>
        <time>2026-03-23T11:53:36Z</time>
      </trkpt>
      <trkpt lat="44.74545" lon="6.87423">
        <ele>2769.7</ele>
        <time>2026-03-23T11:53:37Z</time>
      </trkpt>
      <trkpt lat="44.74545" lon="6.87423">
        <ele>2769.7</ele>
        <time>2026-03-23T11:53:38Z</time>
      </trkpt>
      <trkpt lat="44.74545" lon="6.87423">
        <ele>2769.7</ele>
        <time>2026-03-23T11:53:39Z</time>
      </trkpt>
      <trkpt lat="44.74545" lon="6.87423">
        <ele>2769.8</ele>
        <time>2026-03-23T11:53:40Z</time>
      </trkpt>
      <trkpt lat="44.74545" lon="6.87423">
        <ele>2769.8</ele>
        <time>2026-03-23T11:53:41Z</time>
      </trkpt>
      <trkpt lat="44.74545" lon="6.87423">
        <ele>2769.8</ele>
        <time>2026-03-23T11:53:42Z</time>
      </trkpt>
      <trkpt lat="44.74545" lon="6.87423">
        <ele>2769.8</ele>
        <time>2026-03-23T11:53:43Z</time>
      </trkpt>
      <trkpt lat="44.74545" lon="6.87423">
        <ele>2769.8</ele>
        <time>2026-03-23T11:53:44Z</time>
      </trkpt>
      <trkpt lat="44.74545" lon="6.87422">
        <ele>2769.8</ele>
        <time>2026-03-23T11:53:45Z</time>
      </trkpt>
      <trkpt lat="44.74545" lon="6.87423">
        <ele>2769.8</ele>
        <time>2026-03-23T11:53:46Z</time>
      </trkpt>
      <trkpt lat="44.74546" lon="6.87423">
        <ele>2769.8</ele>
        <time>2026-03-23T11:53:47Z</time>
      </trkpt>
      <trkpt lat="44.74546" lon="6.87423">
        <ele>2769.8</ele>
        <time>2026-03-23T11:53:48Z</time>
      </trkpt>
      <trkpt lat="44.74546" lon="6.87423">
        <ele>2769.8</ele>
        <time>2026-03-23T11:53:49Z</time>
      </trkpt>
      <trkpt lat="44.74546" lon="6.87423">
        <ele>2769.8</ele>
        <time>2026-03-23T11:53:50Z</time>
      </trkpt>
      <trkpt lat="44.74546" lon="6.87423">
        <ele>2769.8</ele>
        <time>2026-03-23T11:53:51Z</time>
      </trkpt>
      <trkpt lat="44.74546" lon="6.87423">
        <ele>2769.8</ele>
        <time>2026-03-23T11:53:52Z</time>
      </trkpt>
      <trkpt lat="44.74546" lon="6.87423">
        <ele>2769.8</ele>
        <time>2026-03-23T11:53:53Z</time>
      </trkpt>
      <trkpt lat="44.74546" lon="6.87423">
        <ele>2769.8</ele>
        <time>2026-03-23T11:53:54Z</time>
      </trkpt>
      <trkpt lat="44.74546" lon="6.87423">
        <ele>2769.8</ele>
        <time>2026-03-23T11:53:55Z</time>
      </trkpt>
      <trkpt lat="44.74546" lon="6.87423">
        <ele>2769.8</ele>
        <time>2026-03-23T11:53:56Z</time>
      </trkpt>
      <trkpt lat="44.74546" lon="6.87423">
        <ele>2769.8</ele>
        <time>2026-03-23T11:53:57Z</time>
      </trkpt>
      <trkpt lat="44.74546" lon="6.87423">
        <ele>2769.8</ele>
        <time>2026-03-23T11:53:58Z</time>
      </trkpt>
      <trkpt lat="44.74546" lon="6.87423">
        <ele>2769.8</ele>
        <time>2026-03-23T11:53:59Z</time>
      </trkpt>
      <trkpt lat="44.74546" lon="6.87423">
        <ele>2769.8</ele>
        <time>2026-03-23T11:54:00Z</time>
      </trkpt>
      <trkpt lat="44.74546" lon="6.87423">
        <ele>2769.8</ele>
        <time>2026-03-23T11:54:01Z</time>
      </trkpt>
      <trkpt lat="44.74546" lon="6.87423">
        <ele>2769.8</ele>
        <time>2026-03-23T11:54:02Z</time>
      </trkpt>
      <trkpt lat="44.74546" lon="6.87423">
        <ele>2769.8</ele>
        <time>2026-03-23T11:54:03Z</time>
      </trkpt>
      <trkpt lat="44.74546" lon="6.87423">
        <ele>2769.8</ele>
        <time>2026-03-23T11:54:04Z</time>
      </trkpt>
      <trkpt lat="44.74546" lon="6.87423">
        <ele>2769.8</ele>
        <time>2026-03-23T11:54:05Z</time>
      </trkpt>
      <trkpt lat="44.74546" lon="6.87423">
        <ele>2769.8</ele>
        <time>2026-03-23T11:54:06Z</time>
      </trkpt>
      <trkpt lat="44.74546" lon="6.87423">
        <ele>2769.8</ele>
        <time>2026-03-23T11:54:07Z</time>
      </trkpt>
      <trkpt lat="44.74546" lon="6.87423">
        <ele>2769.8</ele>
        <time>2026-03-23T11:54:08Z</time>
      </trkpt>
      <trkpt lat="44.74546" lon="6.87423">
        <ele>2769.8</ele>
        <time>2026-03-23T11:54:09Z</time>
      </trkpt>
      <trkpt lat="44.74546" lon="6.87423">
        <ele>2769.8</ele>
        <time>2026-03-23T11:54:10Z</time>
      </trkpt>
      <trkpt lat="44.74546" lon="6.87423">
        <ele>2769.8</ele>
        <time>2026-03-23T11:54:11Z</time>
      </trkpt>
      <trkpt lat="44.74546" lon="6.87423">
        <ele>2769.8</ele>
        <time>2026-03-23T11:54:12Z</time>
      </trkpt>
      <trkpt lat="44.74546" lon="6.87423">
        <ele>2769.8</ele>
        <time>2026-03-23T11:54:13Z</time>
      </trkpt>
      <trkpt lat="44.74546" lon="6.87423">
        <ele>2769.8</ele>
        <time>2026-03-23T11:54:14Z</time>
      </trkpt>
      <trkpt lat="44.74546" lon="6.87423">
        <ele>2769.8</ele>
        <time>2026-03-23T11:54:15Z</time>
      </trkpt>
      <trkpt lat="44.74546" lon="6.87423">
        <ele>2769.8</ele>
        <time>2026-03-23T11:54:16Z</time>
      </trkpt>
      <trkpt lat="44.74546" lon="6.87423">
        <ele>2769.8</ele>
        <time>2026-03-23T11:54:17Z</time>
      </trkpt>
      <trkpt lat="44.74546" lon="6.87423">
        <ele>2769.8</ele>
        <time>2026-03-23T11:54:18Z</time>
      </trkpt>
      <trkpt lat="44.74546" lon="6.87423">
        <ele>2769.8</ele>
        <time>2026-03-23T11:54:19Z</time>
      </trkpt>
      <trkpt lat="44.74546" lon="6.87422">
        <ele>2769.8</ele>
        <time>2026-03-23T11:54:20Z</time>
      </trkpt>
      <trkpt lat="44.74546" lon="6.87423">
        <ele>2769.8</ele>
        <time>2026-03-23T11:54:21Z</time>
      </trkpt>
      <trkpt lat="44.74546" lon="6.87423">
        <ele>2769.8</ele>
        <time>2026-03-23T11:54:22Z</time>
      </trkpt>
      <trkpt lat="44.74546" lon="6.87423">
        <ele>2769.8</ele>
        <time>2026-03-23T11:54:23Z</time>
      </trkpt>
      <trkpt lat="44.74546" lon="6.87423">
        <ele>2769.8</ele>
        <time>2026-03-23T11:54:24Z</time>
      </trkpt>
      <trkpt lat="44.74546" lon="6.87423">
        <ele>2769.8</ele>
        <time>2026-03-23T11:54:25Z</time>
      </trkpt>
      <trkpt lat="44.74546" lon="6.87423">
        <ele>2769.8</ele>
        <time>2026-03-23T11:54:26Z</time>
      </trkpt>
      <trkpt lat="44.74546" lon="6.87423">
        <ele>2769.8</ele>
        <time>2026-03-23T11:54:27Z</time>
      </trkpt>
      <trkpt lat="44.74546" lon="6.87423">
        <ele>2769.8</ele>
        <time>2026-03-23T11:54:28Z</time>
      </trkpt>
      <trkpt lat="44.74546" lon="6.87423">
        <ele>2769.8</ele>
        <time>2026-03-23T11:54:29Z</time>
      </trkpt>
      <trkpt lat="44.74546" lon="6.87423">
        <ele>2769.8</ele>
        <time>2026-03-23T11:54:30Z</time>
      </trkpt>
      <trkpt lat="44.74546" lon="6.87423">
        <ele>2769.8</ele>
        <time>2026-03-23T11:54:31Z</time>
      </trkpt>
      <trkpt lat="44.74546" lon="6.87423">
        <ele>2769.8</ele>
        <time>2026-03-23T11:54:32Z</time>
      </trkpt>
      <trkpt lat="44.74546" lon="6.87423">
        <ele>2769.8</ele>
        <time>2026-03-23T11:54:33Z</time>
      </trkpt>
      <trkpt lat="44.74546" lon="6.87423">
        <ele>2769.8</ele>
        <time>2026-03-23T11:54:34Z</time>
      </trkpt>
      <trkpt lat="44.74546" lon="6.87423">
        <ele>2769.8</ele>
        <time>2026-03-23T11:54:35Z</time>
      </trkpt>
      <trkpt lat="44.74546" lon="6.87423">
        <ele>2769.8</ele>
        <time>2026-03-23T11:54:36Z</time>
      </trkpt>
      <trkpt lat="44.74546" lon="6.87423">
        <ele>2769.8</ele>
        <time>2026-03-23T11:54:37Z</time>
      </trkpt>
      <trkpt lat="44.74546" lon="6.87423">
        <ele>2769.8</ele>
        <time>2026-03-23T11:54:38Z</time>
      </trkpt>
      <trkpt lat="44.74546" lon="6.87423">
        <ele>2769.8</ele>
        <time>2026-03-23T11:54:39Z</time>
      </trkpt>
      <trkpt lat="44.74546" lon="6.87423">
        <ele>2769.8</ele>
        <time>2026-03-23T11:54:40Z</time>
      </trkpt>
      <trkpt lat="44.74546" lon="6.87423">
        <ele>2769.8</ele>
        <time>2026-03-23T11:54:41Z</time>
      </trkpt>
      <trkpt lat="44.74546" lon="6.87423">
        <ele>2769.8</ele>
        <time>2026-03-23T11:54:42Z</time>
      </trkpt>
      <trkpt lat="44.74546" lon="6.87423">
        <ele>2769.8</ele>
        <time>2026-03-23T11:54:43Z</time>
      </trkpt>
      <trkpt lat="44.74546" lon="6.87423">
        <ele>2769.8</ele>
        <time>2026-03-23T11:54:44Z</time>
      </trkpt>
      <trkpt lat="44.74545" lon="6.87423">
        <ele>2769.8</ele>
        <time>2026-03-23T11:54:45Z</time>
      </trkpt>
      <trkpt lat="44.74545" lon="6.87423">
        <ele>2769.8</ele>
        <time>2026-03-23T11:54:46Z</time>
      </trkpt>
      <trkpt lat="44.74545" lon="6.87423">
        <ele>2769.8</ele>
        <time>2026-03-23T11:54:47Z</time>
      </trkpt>
      <trkpt lat="44.74545" lon="6.87423">
        <ele>2769.8</ele>
        <time>2026-03-23T11:54:48Z</time>
      </trkpt>
      <trkpt lat="44.74545" lon="6.87423">
        <ele>2769.8</ele>
        <time>2026-03-23T11:54:49Z</time>
      </trkpt>
      <trkpt lat="44.74545" lon="6.87423">
        <ele>2769.8</ele>
        <time>2026-03-23T11:54:50Z</time>
      </trkpt>
      <trkpt lat="44.74545" lon="6.87423">
        <ele>2769.8</ele>
        <time>2026-03-23T11:54:51Z</time>
      </trkpt>
      <trkpt lat="44.74545" lon="6.87423">
        <ele>2769.8</ele>
        <time>2026-03-23T11:54:52Z</time>
      </trkpt>
      <trkpt lat="44.74545" lon="6.87423">
        <ele>2769.8</ele>
        <time>2026-03-23T11:54:53Z</time>
      </trkpt>
      <trkpt lat="44.74545" lon="6.87424">
        <ele>2769.8</ele>
        <time>2026-03-23T11:54:54Z</time>
      </trkpt>
      <trkpt lat="44.74545" lon="6.87424">
        <ele>2769.8</ele>
        <time>2026-03-23T11:54:55Z</time>
      </trkpt>
      <trkpt lat="44.74545" lon="6.87424">
        <ele>2769.8</ele>
        <time>2026-03-23T11:54:56Z</time>
      </trkpt>
      <trkpt lat="44.74545" lon="6.87424">
        <ele>2769.8</ele>
        <time>2026-03-23T11:54:57Z</time>
      </trkpt>
      <trkpt lat="44.74545" lon="6.87424">
        <ele>2769.8</ele>
        <time>2026-03-23T11:54:58Z</time>
      </trkpt>
      <trkpt lat="44.74545" lon="6.87424">
        <ele>2769.8</ele>
        <time>2026-03-23T11:54:59Z</time>
      </trkpt>
      <trkpt lat="44.74545" lon="6.87424">
        <ele>2769.8</ele>
        <time>2026-03-23T11:55:00Z</time>
      </trkpt>
      <trkpt lat="44.74545" lon="6.87424">
        <ele>2769.8</ele>
        <time>2026-03-23T11:55:01Z</time>
      </trkpt>
      <trkpt lat="44.74545" lon="6.87424">
        <ele>2769.8</ele>
        <time>2026-03-23T11:55:02Z</time>
      </trkpt>
      <trkpt lat="44.74545" lon="6.87424">
        <ele>2769.8</ele>
        <time>2026-03-23T11:55:03Z</time>
      </trkpt>
      <trkpt lat="44.74545" lon="6.87424">
        <ele>2769.8</ele>
        <time>2026-03-23T11:55:04Z</time>
      </trkpt>
      <trkpt lat="44.74545" lon="6.87424">
        <ele>2769.8</ele>
        <time>2026-03-23T11:55:05Z</time>
      </trkpt>
      <trkpt lat="44.74545" lon="6.87424">
        <ele>2769.8</ele>
        <time>2026-03-23T11:55:06Z</time>
      </trkpt>
      <trkpt lat="44.74545" lon="6.87424">
        <ele>2769.8</ele>
        <time>2026-03-23T11:55:07Z</time>
      </trkpt>
      <trkpt lat="44.74545" lon="6.87424">
        <ele>2769.8</ele>
        <time>2026-03-23T11:55:08Z</time>
      </trkpt>
      <trkpt lat="44.74545" lon="6.87424">
        <ele>2769.8</ele>
        <time>2026-03-23T11:55:09Z</time>
      </trkpt>
      <trkpt lat="44.74545" lon="6.87424">
        <ele>2769.8</ele>
        <time>2026-03-23T11:55:10Z</time>
      </trkpt>
      <trkpt lat="44.74545" lon="6.87424">
        <ele>2769.8</ele>
        <time>2026-03-23T11:55:11Z</time>
      </trkpt>
      <trkpt lat="44.74545" lon="6.87424">
        <ele>2769.8</ele>
        <time>2026-03-23T11:55:12Z</time>
      </trkpt>
      <trkpt lat="44.74545" lon="6.87424">
        <ele>2769.8</ele>
        <time>2026-03-23T11:55:13Z</time>
      </trkpt>
      <trkpt lat="44.74545" lon="6.87424">
        <ele>2769.8</ele>
        <time>2026-03-23T11:55:14Z</time>
      </trkpt>
      <trkpt lat="44.74545" lon="6.87425">
        <ele>2769.8</ele>
        <time>2026-03-23T11:55:15Z</time>
      </trkpt>
      <trkpt lat="44.74545" lon="6.87425">
        <ele>2769.8</ele>
        <time>2026-03-23T11:55:16Z</time>
      </trkpt>
      <trkpt lat="44.74545" lon="6.87425">
        <ele>2769.8</ele>
        <time>2026-03-23T11:55:17Z</time>
      </trkpt>
      <trkpt lat="44.74545" lon="6.87425">
        <ele>2769.8</ele>
        <time>2026-03-23T11:55:18Z</time>
      </trkpt>
      <trkpt lat="44.74545" lon="6.87425">
        <ele>2769.8</ele>
        <time>2026-03-23T11:55:19Z</time>
      </trkpt>
      <trkpt lat="44.74545" lon="6.87425">
        <ele>2769.8</ele>
        <time>2026-03-23T11:55:20Z</time>
      </trkpt>
      <trkpt lat="44.74545" lon="6.87425">
        <ele>2769.8</ele>
        <time>2026-03-23T11:55:21Z</time>
      </trkpt>
      <trkpt lat="44.74545" lon="6.87425">
        <ele>2769.8</ele>
        <time>2026-03-23T11:55:22Z</time>
      </trkpt>
      <trkpt lat="44.74545" lon="6.87425">
        <ele>2769.8</ele>
        <time>2026-03-23T11:55:23Z</time>
      </trkpt>
      <trkpt lat="44.74545" lon="6.87425">
        <ele>2769.9</ele>
        <time>2026-03-23T11:55:24Z</time>
      </trkpt>
      <trkpt lat="44.74545" lon="6.87425">
        <ele>2769.9</ele>
        <time>2026-03-23T11:55:25Z</time>
      </trkpt>
      <trkpt lat="44.74546" lon="6.87425">
        <ele>2769.9</ele>
        <time>2026-03-23T11:55:26Z</time>
      </trkpt>
      <trkpt lat="44.74546" lon="6.87426">
        <ele>2769.9</ele>
        <time>2026-03-23T11:55:27Z</time>
      </trkpt>
      <trkpt lat="44.74546" lon="6.87427">
        <ele>2769.9</ele>
        <time>2026-03-23T11:55:28Z</time>
      </trkpt>
      <trkpt lat="44.74546" lon="6.87428">
        <ele>2769.9</ele>
        <time>2026-03-23T11:55:29Z</time>
      </trkpt>
      <trkpt lat="44.74545" lon="6.87428">
        <ele>2769.9</ele>
        <time>2026-03-23T11:55:30Z</time>
      </trkpt>
      <trkpt lat="44.74545" lon="6.87428">
        <ele>2769.9</ele>
        <time>2026-03-23T11:55:31Z</time>
      </trkpt>
      <trkpt lat="44.74545" lon="6.87428">
        <ele>2769.9</ele>
        <time>2026-03-23T11:55:32Z</time>
      </trkpt>
      <trkpt lat="44.74545" lon="6.87427">
        <ele>2769.9</ele>
        <time>2026-03-23T11:55:33Z</time>
      </trkpt>
      <trkpt lat="44.74545" lon="6.87427">
        <ele>2769.9</ele>
        <time>2026-03-23T11:55:34Z</time>
      </trkpt>
      <trkpt lat="44.74545" lon="6.87427">
        <ele>2769.9</ele>
        <time>2026-03-23T11:55:35Z</time>
      </trkpt>
      <trkpt lat="44.74545" lon="6.87427">
        <ele>2769.9</ele>
        <time>2026-03-23T11:55:36Z</time>
      </trkpt>
      <trkpt lat="44.74545" lon="6.87427">
        <ele>2769.9</ele>
        <time>2026-03-23T11:55:37Z</time>
      </trkpt>
      <trkpt lat="44.74545" lon="6.87427">
        <ele>2769.9</ele>
        <time>2026-03-23T11:55:38Z</time>
      </trkpt>
      <trkpt lat="44.74545" lon="6.87427">
        <ele>2769.9</ele>
        <time>2026-03-23T11:55:39Z</time>
      </trkpt>
      <trkpt lat="44.74545" lon="6.87427">
        <ele>2769.9</ele>
        <time>2026-03-23T11:55:40Z</time>
      </trkpt>
      <trkpt lat="44.74545" lon="6.87427">
        <ele>2769.9</ele>
        <time>2026-03-23T11:55:41Z</time>
      </trkpt>
      <trkpt lat="44.74545" lon="6.87427">
        <ele>2769.9</ele>
        <time>2026-03-23T11:55:42Z</time>
      </trkpt>
      <trkpt lat="44.74545" lon="6.87427">
        <ele>2769.9</ele>
        <time>2026-03-23T11:55:43Z</time>
      </trkpt>
      <trkpt lat="44.74545" lon="6.87427">
        <ele>2769.9</ele>
        <time>2026-03-23T11:55:44Z</time>
      </trkpt>
      <trkpt lat="44.74545" lon="6.87427">
        <ele>2769.9</ele>
        <time>2026-03-23T11:55:45Z</time>
      </trkpt>
      <trkpt lat="44.74545" lon="6.87427">
        <ele>2769.9</ele>
        <time>2026-03-23T11:55:46Z</time>
      </trkpt>
      <trkpt lat="44.74545" lon="6.87427">
        <ele>2769.9</ele>
        <time>2026-03-23T11:55:47Z</time>
      </trkpt>
      <trkpt lat="44.74545" lon="6.87427">
        <ele>2769.9</ele>
        <time>2026-03-23T11:55:48Z</time>
      </trkpt>
      <trkpt lat="44.74545" lon="6.87427">
        <ele>2769.9</ele>
        <time>2026-03-23T11:55:49Z</time>
      </trkpt>
      <trkpt lat="44.74545" lon="6.87427">
        <ele>2769.9</ele>
        <time>2026-03-23T11:55:50Z</time>
      </trkpt>
      <trkpt lat="44.74545" lon="6.87427">
        <ele>2769.9</ele>
        <time>2026-03-23T11:55:51Z</time>
      </trkpt>
      <trkpt lat="44.74545" lon="6.87427">
        <ele>2769.9</ele>
        <time>2026-03-23T11:55:52Z</time>
      </trkpt>
      <trkpt lat="44.74545" lon="6.87427">
        <ele>2769.9</ele>
        <time>2026-03-23T11:55:53Z</time>
      </trkpt>
      <trkpt lat="44.74545" lon="6.87427">
        <ele>2769.9</ele>
        <time>2026-03-23T11:55:54Z</time>
      </trkpt>
      <trkpt lat="44.74545" lon="6.87427">
        <ele>2769.9</ele>
        <time>2026-03-23T11:55:55Z</time>
      </trkpt>
      <trkpt lat="44.74545" lon="6.87427">
        <ele>2769.9</ele>
        <time>2026-03-23T11:55:56Z</time>
      </trkpt>
      <trkpt lat="44.74545" lon="6.87427">
        <ele>2769.9</ele>
        <time>2026-03-23T11:55:57Z</time>
      </trkpt>
      <trkpt lat="44.74545" lon="6.87427">
        <ele>2769.9</ele>
        <time>2026-03-23T11:55:58Z</time>
      </trkpt>
      <trkpt lat="44.74545" lon="6.87427">
        <ele>2769.9</ele>
        <time>2026-03-23T11:55:59Z</time>
      </trkpt>
      <trkpt lat="44.74545" lon="6.87427">
        <ele>2769.9</ele>
        <time>2026-03-23T11:56:00Z</time>
      </trkpt>
      <trkpt lat="44.74545" lon="6.87427">
        <ele>2769.9</ele>
        <time>2026-03-23T11:56:01Z</time>
      </trkpt>
      <trkpt lat="44.74545" lon="6.87427">
        <ele>2769.9</ele>
        <time>2026-03-23T11:56:02Z</time>
      </trkpt>
      <trkpt lat="44.74545" lon="6.87427">
        <ele>2769.9</ele>
        <time>2026-03-23T11:56:03Z</time>
      </trkpt>
      <trkpt lat="44.74545" lon="6.87427">
        <ele>2769.9</ele>
        <time>2026-03-23T11:56:04Z</time>
      </trkpt>
      <trkpt lat="44.74545" lon="6.87427">
        <ele>2769.9</ele>
        <time>2026-03-23T11:56:05Z</time>
      </trkpt>
      <trkpt lat="44.74545" lon="6.87427">
        <ele>2769.9</ele>
        <time>2026-03-23T11:56:06Z</time>
      </trkpt>
      <trkpt lat="44.74545" lon="6.87427">
        <ele>2769.9</ele>
        <time>2026-03-23T11:56:07Z</time>
      </trkpt>
      <trkpt lat="44.74545" lon="6.87427">
        <ele>2769.9</ele>
        <time>2026-03-23T11:56:08Z</time>
      </trkpt>
      <trkpt lat="44.74545" lon="6.87427">
        <ele>2769.9</ele>
        <time>2026-03-23T11:56:09Z</time>
      </trkpt>
      <trkpt lat="44.74545" lon="6.87427">
        <ele>2769.9</ele>
        <time>2026-03-23T11:56:10Z</time>
      </trkpt>
      <trkpt lat="44.74545" lon="6.87427">
        <ele>2769.9</ele>
        <time>2026-03-23T11:56:11Z</time>
      </trkpt>
      <trkpt lat="44.74545" lon="6.87427">
        <ele>2769.9</ele>
        <time>2026-03-23T11:56:12Z</time>
      </trkpt>
      <trkpt lat="44.74545" lon="6.87427">
        <ele>2769.9</ele>
        <time>2026-03-23T11:56:13Z</time>
      </trkpt>
      <trkpt lat="44.74545" lon="6.87427">
        <ele>2769.9</ele>
        <time>2026-03-23T11:56:14Z</time>
      </trkpt>
      <trkpt lat="44.74545" lon="6.87427">
        <ele>2769.9</ele>
        <time>2026-03-23T11:56:15Z</time>
      </trkpt>
      <trkpt lat="44.74545" lon="6.87427">
        <ele>2769.9</ele>
        <time>2026-03-23T11:56:16Z</time>
      </trkpt>
      <trkpt lat="44.74545" lon="6.87427">
        <ele>2769.9</ele>
        <time>2026-03-23T11:56:17Z</time>
      </trkpt>
      <trkpt lat="44.74545" lon="6.87427">
        <ele>2769.9</ele>
        <time>2026-03-23T11:56:18Z</time>
      </trkpt>
      <trkpt lat="44.74545" lon="6.87427">
        <ele>2769.9</ele>
        <time>2026-03-23T11:56:19Z</time>
      </trkpt>
      <trkpt lat="44.74545" lon="6.87427">
        <ele>2769.9</ele>
        <time>2026-03-23T11:56:20Z</time>
      </trkpt>
      <trkpt lat="44.74545" lon="6.87427">
        <ele>2769.9</ele>
        <time>2026-03-23T11:56:21Z</time>
      </trkpt>
      <trkpt lat="44.74545" lon="6.87427">
        <ele>2769.9</ele>
        <time>2026-03-23T11:56:22Z</time>
      </trkpt>
      <trkpt lat="44.74545" lon="6.87427">
        <ele>2769.9</ele>
        <time>2026-03-23T11:56:23Z</time>
      </trkpt>
      <trkpt lat="44.74545" lon="6.87427">
        <ele>2769.9</ele>
        <time>2026-03-23T11:56:24Z</time>
      </trkpt>
      <trkpt lat="44.74545" lon="6.87427">
        <ele>2769.9</ele>
        <time>2026-03-23T11:56:25Z</time>
      </trkpt>
      <trkpt lat="44.74545" lon="6.87427">
        <ele>2769.9</ele>
        <time>2026-03-23T11:56:26Z</time>
      </trkpt>
      <trkpt lat="44.74545" lon="6.87427">
        <ele>2769.9</ele>
        <time>2026-03-23T11:56:27Z</time>
      </trkpt>
      <trkpt lat="44.74545" lon="6.87427">
        <ele>2769.9</ele>
        <time>2026-03-23T11:56:28Z</time>
      </trkpt>
      <trkpt lat="44.74545" lon="6.87427">
        <ele>2769.9</ele>
        <time>2026-03-23T11:56:29Z</time>
      </trkpt>
      <trkpt lat="44.74545" lon="6.87427">
        <ele>2769.9</ele>
        <time>2026-03-23T11:56:30Z</time>
      </trkpt>
      <trkpt lat="44.74545" lon="6.87427">
        <ele>2769.9</ele>
        <time>2026-03-23T11:56:31Z</time>
      </trkpt>
      <trkpt lat="44.74545" lon="6.87427">
        <ele>2769.9</ele>
        <time>2026-03-23T11:56:32Z</time>
      </trkpt>
      <trkpt lat="44.74545" lon="6.87427">
        <ele>2769.9</ele>
        <time>2026-03-23T11:56:33Z</time>
      </trkpt>
      <trkpt lat="44.74545" lon="6.87427">
        <ele>2769.9</ele>
        <time>2026-03-23T11:56:34Z</time>
      </trkpt>
      <trkpt lat="44.74545" lon="6.87427">
        <ele>2769.9</ele>
        <time>2026-03-23T11:56:35Z</time>
      </trkpt>
      <trkpt lat="44.74545" lon="6.87427">
        <ele>2769.9</ele>
        <time>2026-03-23T11:56:36Z</time>
      </trkpt>
      <trkpt lat="44.74545" lon="6.87426">
        <ele>2769.9</ele>
        <time>2026-03-23T11:56:37Z</time>
      </trkpt>
      <trkpt lat="44.74545" lon="6.87425">
        <ele>2769.9</ele>
        <time>2026-03-23T11:56:38Z</time>
      </trkpt>
      <trkpt lat="44.74544" lon="6.87425">
        <ele>2770</ele>
        <time>2026-03-23T11:56:39Z</time>
      </trkpt>
      <trkpt lat="44.74544" lon="6.87425">
        <ele>2770</ele>
        <time>2026-03-23T11:56:40Z</time>
      </trkpt>
      <trkpt lat="44.74543" lon="6.87425">
        <ele>2770</ele>
        <time>2026-03-23T11:56:41Z</time>
      </trkpt>
      <trkpt lat="44.74543" lon="6.87424">
        <ele>2770</ele>
        <time>2026-03-23T11:56:42Z</time>
      </trkpt>
      <trkpt lat="44.74543" lon="6.87424">
        <ele>2770</ele>
        <time>2026-03-23T11:56:43Z</time>
      </trkpt>
      <trkpt lat="44.74543" lon="6.87423">
        <ele>2770</ele>
        <time>2026-03-23T11:56:44Z</time>
      </trkpt>
      <trkpt lat="44.74543" lon="6.87423">
        <ele>2770</ele>
        <time>2026-03-23T11:56:45Z</time>
      </trkpt>
      <trkpt lat="44.74543" lon="6.87423">
        <ele>2770</ele>
        <time>2026-03-23T11:56:46Z</time>
      </trkpt>
      <trkpt lat="44.74543" lon="6.87423">
        <ele>2770</ele>
        <time>2026-03-23T11:56:47Z</time>
      </trkpt>
      <trkpt lat="44.74543" lon="6.87423">
        <ele>2770</ele>
        <time>2026-03-23T11:56:48Z</time>
      </trkpt>
      <trkpt lat="44.74543" lon="6.87423">
        <ele>2770</ele>
        <time>2026-03-23T11:56:49Z</time>
      </trkpt>
      <trkpt lat="44.74543" lon="6.87423">
        <ele>2770</ele>
        <time>2026-03-23T11:56:50Z</time>
      </trkpt>
      <trkpt lat="44.74543" lon="6.87423">
        <ele>2770</ele>
        <time>2026-03-23T11:56:51Z</time>
      </trkpt>
      <trkpt lat="44.74543" lon="6.87423">
        <ele>2770</ele>
        <time>2026-03-23T11:56:52Z</time>
      </trkpt>
      <trkpt lat="44.74543" lon="6.87423">
        <ele>2770</ele>
        <time>2026-03-23T11:56:53Z</time>
      </trkpt>
      <trkpt lat="44.74543" lon="6.87423">
        <ele>2770</ele>
        <time>2026-03-23T11:56:54Z</time>
      </trkpt>
      <trkpt lat="44.74543" lon="6.87423">
        <ele>2770</ele>
        <time>2026-03-23T11:56:55Z</time>
      </trkpt>
      <trkpt lat="44.74543" lon="6.87423">
        <ele>2770</ele>
        <time>2026-03-23T11:56:56Z</time>
      </trkpt>
      <trkpt lat="44.74543" lon="6.87423">
        <ele>2770</ele>
        <time>2026-03-23T11:56:57Z</time>
      </trkpt>
      <trkpt lat="44.74543" lon="6.87423">
        <ele>2770</ele>
        <time>2026-03-23T11:56:58Z</time>
      </trkpt>
      <trkpt lat="44.74543" lon="6.87423">
        <ele>2770</ele>
        <time>2026-03-23T11:56:59Z</time>
      </trkpt>
      <trkpt lat="44.74543" lon="6.87423">
        <ele>2770</ele>
        <time>2026-03-23T11:57:00Z</time>
      </trkpt>
      <trkpt lat="44.74543" lon="6.87423">
        <ele>2770</ele>
        <time>2026-03-23T11:57:01Z</time>
      </trkpt>
      <trkpt lat="44.74543" lon="6.87423">
        <ele>2770</ele>
        <time>2026-03-23T11:57:02Z</time>
      </trkpt>
      <trkpt lat="44.74543" lon="6.87423">
        <ele>2770</ele>
        <time>2026-03-23T11:57:03Z</time>
      </trkpt>
      <trkpt lat="44.74543" lon="6.87423">
        <ele>2770</ele>
        <time>2026-03-23T11:57:04Z</time>
      </trkpt>
      <trkpt lat="44.74543" lon="6.87423">
        <ele>2770</ele>
        <time>2026-03-23T11:57:05Z</time>
      </trkpt>
      <trkpt lat="44.74543" lon="6.87423">
        <ele>2770</ele>
        <time>2026-03-23T11:57:06Z</time>
      </trkpt>
      <trkpt lat="44.74543" lon="6.87423">
        <ele>2770</ele>
        <time>2026-03-23T11:57:07Z</time>
      </trkpt>
      <trkpt lat="44.74543" lon="6.87423">
        <ele>2770</ele>
        <time>2026-03-23T11:57:08Z</time>
      </trkpt>
      <trkpt lat="44.74543" lon="6.87423">
        <ele>2770</ele>
        <time>2026-03-23T11:57:09Z</time>
      </trkpt>
      <trkpt lat="44.74544" lon="6.87423">
        <ele>2770</ele>
        <time>2026-03-23T11:57:10Z</time>
      </trkpt>
      <trkpt lat="44.74544" lon="6.87423">
        <ele>2770</ele>
        <time>2026-03-23T11:57:11Z</time>
      </trkpt>
      <trkpt lat="44.74544" lon="6.87423">
        <ele>2770</ele>
        <time>2026-03-23T11:57:12Z</time>
      </trkpt>
      <trkpt lat="44.74544" lon="6.87424">
        <ele>2770</ele>
        <time>2026-03-23T11:57:13Z</time>
      </trkpt>
      <trkpt lat="44.74543" lon="6.87425">
        <ele>2770</ele>
        <time>2026-03-23T11:57:14Z</time>
      </trkpt>
      <trkpt lat="44.74543" lon="6.87426">
        <ele>2770</ele>
        <time>2026-03-23T11:57:15Z</time>
      </trkpt>
      <trkpt lat="44.74543" lon="6.87427">
        <ele>2770.1</ele>
        <time>2026-03-23T11:57:16Z</time>
      </trkpt>
      <trkpt lat="44.74543" lon="6.87428">
        <ele>2770.1</ele>
        <time>2026-03-23T11:57:17Z</time>
      </trkpt>
      <trkpt lat="44.74544" lon="6.87428">
        <ele>2770.1</ele>
        <time>2026-03-23T11:57:18Z</time>
      </trkpt>
      <trkpt lat="44.74544" lon="6.87429">
        <ele>2770.1</ele>
        <time>2026-03-23T11:57:19Z</time>
      </trkpt>
      <trkpt lat="44.74544" lon="6.87428">
        <ele>2770.1</ele>
        <time>2026-03-23T11:57:20Z</time>
      </trkpt>
      <trkpt lat="44.74544" lon="6.87427">
        <ele>2770.1</ele>
        <time>2026-03-23T11:57:21Z</time>
      </trkpt>
      <trkpt lat="44.74544" lon="6.87427">
        <ele>2770.1</ele>
        <time>2026-03-23T11:57:22Z</time>
      </trkpt>
      <trkpt lat="44.74544" lon="6.87427">
        <ele>2770.1</ele>
        <time>2026-03-23T11:57:23Z</time>
      </trkpt>
      <trkpt lat="44.74544" lon="6.87427">
        <ele>2770.1</ele>
        <time>2026-03-23T11:57:24Z</time>
      </trkpt>
      <trkpt lat="44.74543" lon="6.87426">
        <ele>2770.1</ele>
        <time>2026-03-23T11:57:25Z</time>
      </trkpt>
      <trkpt lat="44.74543" lon="6.87426">
        <ele>2770.1</ele>
        <time>2026-03-23T11:57:26Z</time>
      </trkpt>
      <trkpt lat="44.74542" lon="6.87425">
        <ele>2770.2</ele>
        <time>2026-03-23T11:57:27Z</time>
      </trkpt>
      <trkpt lat="44.74542" lon="6.87425">
        <ele>2770.2</ele>
        <time>2026-03-23T11:57:28Z</time>
      </trkpt>
      <trkpt lat="44.74542" lon="6.87424">
        <ele>2770.2</ele>
        <time>2026-03-23T11:57:29Z</time>
      </trkpt>
      <trkpt lat="44.74543" lon="6.87424">
        <ele>2770.2</ele>
        <time>2026-03-23T11:57:30Z</time>
      </trkpt>
      <trkpt lat="44.74543" lon="6.87425">
        <ele>2770.2</ele>
        <time>2026-03-23T11:57:31Z</time>
      </trkpt>
      <trkpt lat="44.74543" lon="6.87425">
        <ele>2770.2</ele>
        <time>2026-03-23T11:57:32Z</time>
      </trkpt>
      <trkpt lat="44.74543" lon="6.87425">
        <ele>2770.2</ele>
        <time>2026-03-23T11:57:33Z</time>
      </trkpt>
      <trkpt lat="44.74543" lon="6.87425">
        <ele>2770.2</ele>
        <time>2026-03-23T11:57:34Z</time>
      </trkpt>
      <trkpt lat="44.74543" lon="6.87425">
        <ele>2770.2</ele>
        <time>2026-03-23T11:57:35Z</time>
      </trkpt>
      <trkpt lat="44.74543" lon="6.87425">
        <ele>2770.2</ele>
        <time>2026-03-23T11:57:36Z</time>
      </trkpt>
      <trkpt lat="44.74543" lon="6.87425">
        <ele>2770.2</ele>
        <time>2026-03-23T11:57:37Z</time>
      </trkpt>
      <trkpt lat="44.74543" lon="6.87425">
        <ele>2770.2</ele>
        <time>2026-03-23T11:57:38Z</time>
      </trkpt>
      <trkpt lat="44.74543" lon="6.87425">
        <ele>2770.2</ele>
        <time>2026-03-23T11:57:39Z</time>
      </trkpt>
      <trkpt lat="44.74543" lon="6.87425">
        <ele>2770.2</ele>
        <time>2026-03-23T11:57:40Z</time>
      </trkpt>
      <trkpt lat="44.74543" lon="6.87425">
        <ele>2770.2</ele>
        <time>2026-03-23T11:57:41Z</time>
      </trkpt>
      <trkpt lat="44.74543" lon="6.87425">
        <ele>2770.2</ele>
        <time>2026-03-23T11:57:42Z</time>
      </trkpt>
      <trkpt lat="44.74543" lon="6.87425">
        <ele>2770.2</ele>
        <time>2026-03-23T11:57:43Z</time>
      </trkpt>
      <trkpt lat="44.74543" lon="6.87425">
        <ele>2770.2</ele>
        <time>2026-03-23T11:57:44Z</time>
      </trkpt>
      <trkpt lat="44.74543" lon="6.87425">
        <ele>2770.2</ele>
        <time>2026-03-23T11:57:45Z</time>
      </trkpt>
      <trkpt lat="44.74543" lon="6.87425">
        <ele>2770.2</ele>
        <time>2026-03-23T11:57:46Z</time>
      </trkpt>
      <trkpt lat="44.74543" lon="6.87425">
        <ele>2770.2</ele>
        <time>2026-03-23T11:57:47Z</time>
      </trkpt>
      <trkpt lat="44.74543" lon="6.87425">
        <ele>2770.2</ele>
        <time>2026-03-23T11:57:48Z</time>
      </trkpt>
      <trkpt lat="44.74543" lon="6.87425">
        <ele>2770.2</ele>
        <time>2026-03-23T11:57:49Z</time>
      </trkpt>
      <trkpt lat="44.74543" lon="6.87425">
        <ele>2770.2</ele>
        <time>2026-03-23T11:57:50Z</time>
      </trkpt>
      <trkpt lat="44.74543" lon="6.87425">
        <ele>2770.2</ele>
        <time>2026-03-23T11:57:51Z</time>
      </trkpt>
      <trkpt lat="44.74543" lon="6.87425">
        <ele>2770.2</ele>
        <time>2026-03-23T11:57:52Z</time>
      </trkpt>
      <trkpt lat="44.74543" lon="6.87425">
        <ele>2770.2</ele>
        <time>2026-03-23T11:57:53Z</time>
      </trkpt>
      <trkpt lat="44.74543" lon="6.87425">
        <ele>2770.2</ele>
        <time>2026-03-23T11:57:54Z</time>
      </trkpt>
      <trkpt lat="44.74543" lon="6.87425">
        <ele>2770.2</ele>
        <time>2026-03-23T11:57:55Z</time>
      </trkpt>
      <trkpt lat="44.74543" lon="6.87425">
        <ele>2770.2</ele>
        <time>2026-03-23T11:57:56Z</time>
      </trkpt>
      <trkpt lat="44.74543" lon="6.87425">
        <ele>2770.2</ele>
        <time>2026-03-23T11:57:57Z</time>
      </trkpt>
      <trkpt lat="44.74543" lon="6.87425">
        <ele>2770.2</ele>
        <time>2026-03-23T11:57:58Z</time>
      </trkpt>
      <trkpt lat="44.74543" lon="6.87425">
        <ele>2770.2</ele>
        <time>2026-03-23T11:57:59Z</time>
      </trkpt>
      <trkpt lat="44.74543" lon="6.87425">
        <ele>2770.2</ele>
        <time>2026-03-23T11:58:00Z</time>
      </trkpt>
      <trkpt lat="44.74543" lon="6.87425">
        <ele>2770.2</ele>
        <time>2026-03-23T11:58:01Z</time>
      </trkpt>
      <trkpt lat="44.74543" lon="6.87425">
        <ele>2770.2</ele>
        <time>2026-03-23T11:58:02Z</time>
      </trkpt>
      <trkpt lat="44.74543" lon="6.87425">
        <ele>2770.2</ele>
        <time>2026-03-23T11:58:03Z</time>
      </trkpt>
      <trkpt lat="44.74543" lon="6.87425">
        <ele>2770.2</ele>
        <time>2026-03-23T11:58:04Z</time>
      </trkpt>
      <trkpt lat="44.74543" lon="6.87425">
        <ele>2770.2</ele>
        <time>2026-03-23T11:58:05Z</time>
      </trkpt>
      <trkpt lat="44.74543" lon="6.87425">
        <ele>2770.2</ele>
        <time>2026-03-23T11:58:06Z</time>
      </trkpt>
      <trkpt lat="44.74543" lon="6.87425">
        <ele>2770.2</ele>
        <time>2026-03-23T11:58:07Z</time>
      </trkpt>
      <trkpt lat="44.74543" lon="6.87425">
        <ele>2770.2</ele>
        <time>2026-03-23T11:58:08Z</time>
      </trkpt>
      <trkpt lat="44.74543" lon="6.87425">
        <ele>2770.2</ele>
        <time>2026-03-23T11:58:09Z</time>
      </trkpt>
      <trkpt lat="44.74543" lon="6.87425">
        <ele>2770.2</ele>
        <time>2026-03-23T11:58:10Z</time>
      </trkpt>
      <trkpt lat="44.74543" lon="6.87425">
        <ele>2770.2</ele>
        <time>2026-03-23T11:58:11Z</time>
      </trkpt>
      <trkpt lat="44.74543" lon="6.87425">
        <ele>2770.2</ele>
        <time>2026-03-23T11:58:12Z</time>
      </trkpt>
      <trkpt lat="44.74543" lon="6.87425">
        <ele>2770.2</ele>
        <time>2026-03-23T11:58:13Z</time>
      </trkpt>
      <trkpt lat="44.74543" lon="6.87425">
        <ele>2770.2</ele>
        <time>2026-03-23T11:58:14Z</time>
      </trkpt>
      <trkpt lat="44.74543" lon="6.87425">
        <ele>2770.2</ele>
        <time>2026-03-23T11:58:15Z</time>
      </trkpt>
      <trkpt lat="44.74543" lon="6.87425">
        <ele>2770.2</ele>
        <time>2026-03-23T11:58:16Z</time>
      </trkpt>
      <trkpt lat="44.74543" lon="6.87425">
        <ele>2770.2</ele>
        <time>2026-03-23T11:58:17Z</time>
      </trkpt>
      <trkpt lat="44.74543" lon="6.87425">
        <ele>2770.2</ele>
        <time>2026-03-23T11:58:18Z</time>
      </trkpt>
      <trkpt lat="44.74543" lon="6.87425">
        <ele>2770.2</ele>
        <time>2026-03-23T11:58:19Z</time>
      </trkpt>
      <trkpt lat="44.74543" lon="6.87425">
        <ele>2770.2</ele>
        <time>2026-03-23T11:58:20Z</time>
      </trkpt>
      <trkpt lat="44.74543" lon="6.87425">
        <ele>2770.2</ele>
        <time>2026-03-23T11:58:21Z</time>
      </trkpt>
      <trkpt lat="44.74543" lon="6.87425">
        <ele>2770.2</ele>
        <time>2026-03-23T11:58:22Z</time>
      </trkpt>
      <trkpt lat="44.74543" lon="6.87425">
        <ele>2770.2</ele>
        <time>2026-03-23T11:58:23Z</time>
      </trkpt>
      <trkpt lat="44.74543" lon="6.87425">
        <ele>2770.2</ele>
        <time>2026-03-23T11:58:24Z</time>
      </trkpt>
      <trkpt lat="44.74543" lon="6.87425">
        <ele>2770.2</ele>
        <time>2026-03-23T11:58:25Z</time>
      </trkpt>
      <trkpt lat="44.74543" lon="6.87425">
        <ele>2770.2</ele>
        <time>2026-03-23T11:58:26Z</time>
      </trkpt>
      <trkpt lat="44.74543" lon="6.87425">
        <ele>2770.2</ele>
        <time>2026-03-23T11:58:27Z</time>
      </trkpt>
      <trkpt lat="44.74543" lon="6.87425">
        <ele>2770.2</ele>
        <time>2026-03-23T11:58:28Z</time>
      </trkpt>
      <trkpt lat="44.74543" lon="6.87425">
        <ele>2770.2</ele>
        <time>2026-03-23T11:58:29Z</time>
      </trkpt>
      <trkpt lat="44.74543" lon="6.87425">
        <ele>2770.2</ele>
        <time>2026-03-23T11:58:30Z</time>
      </trkpt>
      <trkpt lat="44.74543" lon="6.87425">
        <ele>2770.2</ele>
        <time>2026-03-23T11:58:31Z</time>
      </trkpt>
      <trkpt lat="44.74543" lon="6.87425">
        <ele>2770.2</ele>
        <time>2026-03-23T11:58:32Z</time>
      </trkpt>
      <trkpt lat="44.74543" lon="6.87425">
        <ele>2770.2</ele>
        <time>2026-03-23T11:58:33Z</time>
      </trkpt>
      <trkpt lat="44.74543" lon="6.87425">
        <ele>2770.2</ele>
        <time>2026-03-23T11:58:34Z</time>
      </trkpt>
      <trkpt lat="44.74543" lon="6.87425">
        <ele>2770.2</ele>
        <time>2026-03-23T11:58:35Z</time>
      </trkpt>
      <trkpt lat="44.74543" lon="6.87425">
        <ele>2770.2</ele>
        <time>2026-03-23T11:58:36Z</time>
      </trkpt>
      <trkpt lat="44.74543" lon="6.87425">
        <ele>2770.2</ele>
        <time>2026-03-23T11:58:37Z</time>
      </trkpt>
      <trkpt lat="44.74543" lon="6.87425">
        <ele>2770.2</ele>
        <time>2026-03-23T11:58:38Z</time>
      </trkpt>
      <trkpt lat="44.74543" lon="6.87425">
        <ele>2770.2</ele>
        <time>2026-03-23T11:58:39Z</time>
      </trkpt>
      <trkpt lat="44.74543" lon="6.87425">
        <ele>2770.2</ele>
        <time>2026-03-23T11:58:40Z</time>
      </trkpt>
      <trkpt lat="44.74543" lon="6.87425">
        <ele>2770.2</ele>
        <time>2026-03-23T11:58:41Z</time>
      </trkpt>
      <trkpt lat="44.74543" lon="6.87425">
        <ele>2770.2</ele>
        <time>2026-03-23T11:58:42Z</time>
      </trkpt>
      <trkpt lat="44.74543" lon="6.87425">
        <ele>2770.2</ele>
        <time>2026-03-23T11:58:43Z</time>
      </trkpt>
      <trkpt lat="44.74543" lon="6.87425">
        <ele>2770.2</ele>
        <time>2026-03-23T11:58:44Z</time>
      </trkpt>
      <trkpt lat="44.74543" lon="6.87425">
        <ele>2770.2</ele>
        <time>2026-03-23T11:58:45Z</time>
      </trkpt>
      <trkpt lat="44.74543" lon="6.87425">
        <ele>2770.2</ele>
        <time>2026-03-23T11:58:46Z</time>
      </trkpt>
      <trkpt lat="44.74543" lon="6.87425">
        <ele>2770.2</ele>
        <time>2026-03-23T11:58:47Z</time>
      </trkpt>
      <trkpt lat="44.74543" lon="6.87425">
        <ele>2770.2</ele>
        <time>2026-03-23T11:58:48Z</time>
      </trkpt>
      <trkpt lat="44.74543" lon="6.87425">
        <ele>2770.2</ele>
        <time>2026-03-23T11:58:49Z</time>
      </trkpt>
      <trkpt lat="44.74543" lon="6.87425">
        <ele>2770.2</ele>
        <time>2026-03-23T11:58:50Z</time>
      </trkpt>
      <trkpt lat="44.74543" lon="6.87425">
        <ele>2770.2</ele>
        <time>2026-03-23T11:58:51Z</time>
      </trkpt>
      <trkpt lat="44.74543" lon="6.87425">
        <ele>2770.2</ele>
        <time>2026-03-23T11:58:52Z</time>
      </trkpt>
      <trkpt lat="44.74543" lon="6.87425">
        <ele>2770.2</ele>
        <time>2026-03-23T11:58:53Z</time>
      </trkpt>
      <trkpt lat="44.74543" lon="6.87425">
        <ele>2770.2</ele>
        <time>2026-03-23T11:58:54Z</time>
      </trkpt>
      <trkpt lat="44.74543" lon="6.87425">
        <ele>2770.2</ele>
        <time>2026-03-23T11:58:55Z</time>
      </trkpt>
      <trkpt lat="44.74543" lon="6.87425">
        <ele>2770.2</ele>
        <time>2026-03-23T11:58:56Z</time>
      </trkpt>
      <trkpt lat="44.74543" lon="6.87425">
        <ele>2770.2</ele>
        <time>2026-03-23T11:58:57Z</time>
      </trkpt>
      <trkpt lat="44.74543" lon="6.87425">
        <ele>2770.2</ele>
        <time>2026-03-23T11:58:58Z</time>
      </trkpt>
      <trkpt lat="44.74543" lon="6.87425">
        <ele>2770.2</ele>
        <time>2026-03-23T11:58:59Z</time>
      </trkpt>
      <trkpt lat="44.74543" lon="6.87425">
        <ele>2770.2</ele>
        <time>2026-03-23T11:59:00Z</time>
      </trkpt>
      <trkpt lat="44.74543" lon="6.87425">
        <ele>2770.2</ele>
        <time>2026-03-23T11:59:01Z</time>
      </trkpt>
      <trkpt lat="44.74543" lon="6.87425">
        <ele>2770.2</ele>
        <time>2026-03-23T11:59:02Z</time>
      </trkpt>
      <trkpt lat="44.74543" lon="6.87425">
        <ele>2770.2</ele>
        <time>2026-03-23T11:59:03Z</time>
      </trkpt>
      <trkpt lat="44.74543" lon="6.87425">
        <ele>2770.2</ele>
        <time>2026-03-23T11:59:04Z</time>
      </trkpt>
      <trkpt lat="44.74543" lon="6.87425">
        <ele>2770.2</ele>
        <time>2026-03-23T11:59:05Z</time>
      </trkpt>
      <trkpt lat="44.74543" lon="6.87425">
        <ele>2770.2</ele>
        <time>2026-03-23T11:59:06Z</time>
      </trkpt>
      <trkpt lat="44.74543" lon="6.87425">
        <ele>2770.2</ele>
        <time>2026-03-23T11:59:07Z</time>
      </trkpt>
      <trkpt lat="44.74543" lon="6.87425">
        <ele>2770.2</ele>
        <time>2026-03-23T11:59:08Z</time>
      </trkpt>
      <trkpt lat="44.74543" lon="6.87425">
        <ele>2770.2</ele>
        <time>2026-03-23T11:59:09Z</time>
      </trkpt>
      <trkpt lat="44.74543" lon="6.87425">
        <ele>2770.2</ele>
        <time>2026-03-23T11:59:10Z</time>
      </trkpt>
      <trkpt lat="44.74543" lon="6.87425">
        <ele>2770.2</ele>
        <time>2026-03-23T11:59:11Z</time>
      </trkpt>
      <trkpt lat="44.74543" lon="6.87425">
        <ele>2770.2</ele>
        <time>2026-03-23T11:59:12Z</time>
      </trkpt>
      <trkpt lat="44.74543" lon="6.87425">
        <ele>2770.2</ele>
        <time>2026-03-23T11:59:13Z</time>
      </trkpt>
      <trkpt lat="44.74543" lon="6.87425">
        <ele>2770.2</ele>
        <time>2026-03-23T11:59:14Z</time>
      </trkpt>
      <trkpt lat="44.74543" lon="6.87425">
        <ele>2770.2</ele>
        <time>2026-03-23T11:59:15Z</time>
      </trkpt>
      <trkpt lat="44.74543" lon="6.87425">
        <ele>2770.2</ele>
        <time>2026-03-23T11:59:16Z</time>
      </trkpt>
      <trkpt lat="44.74543" lon="6.87425">
        <ele>2770.2</ele>
        <time>2026-03-23T11:59:17Z</time>
      </trkpt>
      <trkpt lat="44.74543" lon="6.87425">
        <ele>2770.2</ele>
        <time>2026-03-23T11:59:18Z</time>
      </trkpt>
      <trkpt lat="44.74543" lon="6.87425">
        <ele>2770.2</ele>
        <time>2026-03-23T11:59:19Z</time>
      </trkpt>
      <trkpt lat="44.74543" lon="6.87425">
        <ele>2770.2</ele>
        <time>2026-03-23T11:59:20Z</time>
      </trkpt>
      <trkpt lat="44.74543" lon="6.87425">
        <ele>2770.2</ele>
        <time>2026-03-23T11:59:21Z</time>
      </trkpt>
      <trkpt lat="44.74543" lon="6.87425">
        <ele>2770.2</ele>
        <time>2026-03-23T11:59:22Z</time>
      </trkpt>
      <trkpt lat="44.74543" lon="6.87425">
        <ele>2770.2</ele>
        <time>2026-03-23T11:59:23Z</time>
      </trkpt>
      <trkpt lat="44.74543" lon="6.87425">
        <ele>2770.2</ele>
        <time>2026-03-23T11:59:24Z</time>
      </trkpt>
      <trkpt lat="44.74543" lon="6.87425">
        <ele>2770.2</ele>
        <time>2026-03-23T11:59:25Z</time>
      </trkpt>
      <trkpt lat="44.74543" lon="6.87425">
        <ele>2770.2</ele>
        <time>2026-03-23T11:59:26Z</time>
      </trkpt>
      <trkpt lat="44.74543" lon="6.87425">
        <ele>2770.2</ele>
        <time>2026-03-23T11:59:27Z</time>
      </trkpt>
      <trkpt lat="44.74543" lon="6.87425">
        <ele>2770.2</ele>
        <time>2026-03-23T11:59:28Z</time>
      </trkpt>
      <trkpt lat="44.74543" lon="6.87425">
        <ele>2770.2</ele>
        <time>2026-03-23T11:59:29Z</time>
      </trkpt>
      <trkpt lat="44.74543" lon="6.87425">
        <ele>2770.2</ele>
        <time>2026-03-23T11:59:30Z</time>
      </trkpt>
      <trkpt lat="44.74543" lon="6.87425">
        <ele>2770.2</ele>
        <time>2026-03-23T11:59:31Z</time>
      </trkpt>
      <trkpt lat="44.74543" lon="6.87425">
        <ele>2770.2</ele>
        <time>2026-03-23T11:59:32Z</time>
      </trkpt>
      <trkpt lat="44.74543" lon="6.87425">
        <ele>2770.2</ele>
        <time>2026-03-23T11:59:33Z</time>
      </trkpt>
      <trkpt lat="44.74543" lon="6.87425">
        <ele>2770.2</ele>
        <time>2026-03-23T11:59:34Z</time>
      </trkpt>
      <trkpt lat="44.74543" lon="6.87425">
        <ele>2770.2</ele>
        <time>2026-03-23T11:59:35Z</time>
      </trkpt>
      <trkpt lat="44.74543" lon="6.87425">
        <ele>2770.2</ele>
        <time>2026-03-23T11:59:36Z</time>
      </trkpt>
      <trkpt lat="44.74543" lon="6.87425">
        <ele>2770.2</ele>
        <time>2026-03-23T11:59:37Z</time>
      </trkpt>
      <trkpt lat="44.74543" lon="6.87425">
        <ele>2770.2</ele>
        <time>2026-03-23T11:59:38Z</time>
      </trkpt>
      <trkpt lat="44.74543" lon="6.87425">
        <ele>2770.2</ele>
        <time>2026-03-23T11:59:39Z</time>
      </trkpt>
      <trkpt lat="44.74543" lon="6.87425">
        <ele>2770.2</ele>
        <time>2026-03-23T11:59:40Z</time>
      </trkpt>
      <trkpt lat="44.74543" lon="6.87425">
        <ele>2770.2</ele>
        <time>2026-03-23T11:59:41Z</time>
      </trkpt>
      <trkpt lat="44.74543" lon="6.87425">
        <ele>2770.2</ele>
        <time>2026-03-23T11:59:42Z</time>
      </trkpt>
      <trkpt lat="44.74543" lon="6.87425">
        <ele>2770.2</ele>
        <time>2026-03-23T11:59:43Z</time>
      </trkpt>
      <trkpt lat="44.74543" lon="6.87425">
        <ele>2770.2</ele>
        <time>2026-03-23T11:59:44Z</time>
      </trkpt>
      <trkpt lat="44.74543" lon="6.87425">
        <ele>2770.2</ele>
        <time>2026-03-23T11:59:45Z</time>
      </trkpt>
      <trkpt lat="44.74543" lon="6.87425">
        <ele>2770.2</ele>
        <time>2026-03-23T11:59:46Z</time>
      </trkpt>
      <trkpt lat="44.74543" lon="6.87424">
        <ele>2770.2</ele>
        <time>2026-03-23T11:59:47Z</time>
      </trkpt>
      <trkpt lat="44.74543" lon="6.87424">
        <ele>2770.2</ele>
        <time>2026-03-23T11:59:48Z</time>
      </trkpt>
      <trkpt lat="44.74543" lon="6.87424">
        <ele>2770.2</ele>
        <time>2026-03-23T11:59:49Z</time>
      </trkpt>
      <trkpt lat="44.74543" lon="6.87424">
        <ele>2770.2</ele>
        <time>2026-03-23T11:59:50Z</time>
      </trkpt>
      <trkpt lat="44.74543" lon="6.87424">
        <ele>2770.2</ele>
        <time>2026-03-23T11:59:51Z</time>
      </trkpt>
      <trkpt lat="44.74543" lon="6.87424">
        <ele>2770.2</ele>
        <time>2026-03-23T11:59:52Z</time>
      </trkpt>
      <trkpt lat="44.74543" lon="6.87424">
        <ele>2770.2</ele>
        <time>2026-03-23T11:59:53Z</time>
      </trkpt>
      <trkpt lat="44.74543" lon="6.87424">
        <ele>2770.2</ele>
        <time>2026-03-23T11:59:54Z</time>
      </trkpt>
      <trkpt lat="44.74543" lon="6.87424">
        <ele>2770.2</ele>
        <time>2026-03-23T11:59:55Z</time>
      </trkpt>
      <trkpt lat="44.74543" lon="6.87424">
        <ele>2770.2</ele>
        <time>2026-03-23T11:59:56Z</time>
      </trkpt>
      <trkpt lat="44.74543" lon="6.87424">
        <ele>2770.2</ele>
        <time>2026-03-23T11:59:57Z</time>
      </trkpt>
      <trkpt lat="44.74543" lon="6.87424">
        <ele>2770.2</ele>
        <time>2026-03-23T11:59:58Z</time>
      </trkpt>
      <trkpt lat="44.74543" lon="6.87424">
        <ele>2770.2</ele>
        <time>2026-03-23T11:59:59Z</time>
      </trkpt>
      <trkpt lat="44.74543" lon="6.87424">
        <ele>2770.2</ele>
        <time>2026-03-23T12:00:00Z</time>
      </trkpt>
      <trkpt lat="44.74543" lon="6.87424">
        <ele>2770.2</ele>
        <time>2026-03-23T12:00:01Z</time>
      </trkpt>
      <trkpt lat="44.74543" lon="6.87424">
        <ele>2770.2</ele>
        <time>2026-03-23T12:00:02Z</time>
      </trkpt>
      <trkpt lat="44.74543" lon="6.87424">
        <ele>2770.2</ele>
        <time>2026-03-23T12:00:03Z</time>
      </trkpt>
      <trkpt lat="44.74543" lon="6.87424">
        <ele>2770.2</ele>
        <time>2026-03-23T12:00:04Z</time>
      </trkpt>
      <trkpt lat="44.74543" lon="6.87424">
        <ele>2770.2</ele>
        <time>2026-03-23T12:00:05Z</time>
      </trkpt>
      <trkpt lat="44.74543" lon="6.87424">
        <ele>2770.2</ele>
        <time>2026-03-23T12:00:06Z</time>
      </trkpt>
      <trkpt lat="44.74543" lon="6.87424">
        <ele>2770.2</ele>
        <time>2026-03-23T12:00:07Z</time>
      </trkpt>
      <trkpt lat="44.74543" lon="6.87424">
        <ele>2770.2</ele>
        <time>2026-03-23T12:00:08Z</time>
      </trkpt>
      <trkpt lat="44.74543" lon="6.87424">
        <ele>2770.2</ele>
        <time>2026-03-23T12:00:09Z</time>
      </trkpt>
      <trkpt lat="44.74543" lon="6.87424">
        <ele>2770.2</ele>
        <time>2026-03-23T12:00:10Z</time>
      </trkpt>
      <trkpt lat="44.74543" lon="6.87424">
        <ele>2770.2</ele>
        <time>2026-03-23T12:00:11Z</time>
      </trkpt>
      <trkpt lat="44.74543" lon="6.87424">
        <ele>2770.2</ele>
        <time>2026-03-23T12:00:12Z</time>
      </trkpt>
      <trkpt lat="44.74543" lon="6.87424">
        <ele>2770.2</ele>
        <time>2026-03-23T12:00:13Z</time>
      </trkpt>
      <trkpt lat="44.74543" lon="6.87424">
        <ele>2770.2</ele>
        <time>2026-03-23T12:00:14Z</time>
      </trkpt>
      <trkpt lat="44.74543" lon="6.87424">
        <ele>2770.2</ele>
        <time>2026-03-23T12:00:15Z</time>
      </trkpt>
      <trkpt lat="44.74543" lon="6.87424">
        <ele>2770.2</ele>
        <time>2026-03-23T12:00:16Z</time>
      </trkpt>
      <trkpt lat="44.74543" lon="6.87424">
        <ele>2770.2</ele>
        <time>2026-03-23T12:00:17Z</time>
      </trkpt>
      <trkpt lat="44.74543" lon="6.87424">
        <ele>2770.2</ele>
        <time>2026-03-23T12:00:18Z</time>
      </trkpt>
      <trkpt lat="44.74543" lon="6.87424">
        <ele>2770.2</ele>
        <time>2026-03-23T12:00:19Z</time>
      </trkpt>
      <trkpt lat="44.74543" lon="6.87424">
        <ele>2770.2</ele>
        <time>2026-03-23T12:00:20Z</time>
      </trkpt>
      <trkpt lat="44.74543" lon="6.87425">
        <ele>2770.2</ele>
        <time>2026-03-23T12:00:21Z</time>
      </trkpt>
      <trkpt lat="44.74543" lon="6.87425">
        <ele>2770.2</ele>
        <time>2026-03-23T12:00:22Z</time>
      </trkpt>
      <trkpt lat="44.74543" lon="6.87425">
        <ele>2770.2</ele>
        <time>2026-03-23T12:00:23Z</time>
      </trkpt>
      <trkpt lat="44.74543" lon="6.87425">
        <ele>2770.2</ele>
        <time>2026-03-23T12:00:24Z</time>
      </trkpt>
      <trkpt lat="44.74543" lon="6.87425">
        <ele>2770.2</ele>
        <time>2026-03-23T12:00:25Z</time>
      </trkpt>
      <trkpt lat="44.74543" lon="6.87425">
        <ele>2770.2</ele>
        <time>2026-03-23T12:00:26Z</time>
      </trkpt>
      <trkpt lat="44.74543" lon="6.87425">
        <ele>2770.2</ele>
        <time>2026-03-23T12:00:27Z</time>
      </trkpt>
      <trkpt lat="44.74543" lon="6.87425">
        <ele>2770.2</ele>
        <time>2026-03-23T12:00:28Z</time>
      </trkpt>
      <trkpt lat="44.74543" lon="6.87425">
        <ele>2770.2</ele>
        <time>2026-03-23T12:00:29Z</time>
      </trkpt>
      <trkpt lat="44.74543" lon="6.87425">
        <ele>2770.2</ele>
        <time>2026-03-23T12:00:30Z</time>
      </trkpt>
      <trkpt lat="44.74543" lon="6.87425">
        <ele>2770.2</ele>
        <time>2026-03-23T12:00:31Z</time>
      </trkpt>
      <trkpt lat="44.74543" lon="6.87425">
        <ele>2770.2</ele>
        <time>2026-03-23T12:00:32Z</time>
      </trkpt>
      <trkpt lat="44.74543" lon="6.87425">
        <ele>2770.2</ele>
        <time>2026-03-23T12:00:33Z</time>
      </trkpt>
      <trkpt lat="44.74543" lon="6.87425">
        <ele>2770.2</ele>
        <time>2026-03-23T12:00:34Z</time>
      </trkpt>
      <trkpt lat="44.74543" lon="6.87425">
        <ele>2770.2</ele>
        <time>2026-03-23T12:00:35Z</time>
      </trkpt>
      <trkpt lat="44.74543" lon="6.87425">
        <ele>2770.2</ele>
        <time>2026-03-23T12:00:36Z</time>
      </trkpt>
      <trkpt lat="44.74543" lon="6.87425">
        <ele>2770.2</ele>
        <time>2026-03-23T12:00:37Z</time>
      </trkpt>
      <trkpt lat="44.74543" lon="6.87425">
        <ele>2770.2</ele>
        <time>2026-03-23T12:00:38Z</time>
      </trkpt>
      <trkpt lat="44.74543" lon="6.87425">
        <ele>2770.2</ele>
        <time>2026-03-23T12:00:39Z</time>
      </trkpt>
      <trkpt lat="44.74543" lon="6.87425">
        <ele>2770.2</ele>
        <time>2026-03-23T12:00:40Z</time>
      </trkpt>
      <trkpt lat="44.74543" lon="6.87425">
        <ele>2770.2</ele>
        <time>2026-03-23T12:00:41Z</time>
      </trkpt>
      <trkpt lat="44.74543" lon="6.87425">
        <ele>2770.2</ele>
        <time>2026-03-23T12:00:42Z</time>
      </trkpt>
      <trkpt lat="44.74543" lon="6.87425">
        <ele>2770.2</ele>
        <time>2026-03-23T12:00:43Z</time>
      </trkpt>
      <trkpt lat="44.74543" lon="6.87425">
        <ele>2770.2</ele>
        <time>2026-03-23T12:00:44Z</time>
      </trkpt>
      <trkpt lat="44.74543" lon="6.87425">
        <ele>2770.2</ele>
        <time>2026-03-23T12:00:45Z</time>
      </trkpt>
      <trkpt lat="44.74543" lon="6.87425">
        <ele>2770.2</ele>
        <time>2026-03-23T12:00:46Z</time>
      </trkpt>
      <trkpt lat="44.74543" lon="6.87425">
        <ele>2770.2</ele>
        <time>2026-03-23T12:00:47Z</time>
      </trkpt>
      <trkpt lat="44.74543" lon="6.87425">
        <ele>2770.2</ele>
        <time>2026-03-23T12:00:48Z</time>
      </trkpt>
      <trkpt lat="44.74543" lon="6.87425">
        <ele>2770.2</ele>
        <time>2026-03-23T12:00:49Z</time>
      </trkpt>
      <trkpt lat="44.74543" lon="6.87425">
        <ele>2770.2</ele>
        <time>2026-03-23T12:00:50Z</time>
      </trkpt>
      <trkpt lat="44.74543" lon="6.87424">
        <ele>2770.2</ele>
        <time>2026-03-23T12:00:51Z</time>
      </trkpt>
      <trkpt lat="44.74543" lon="6.87424">
        <ele>2770.2</ele>
        <time>2026-03-23T12:00:52Z</time>
      </trkpt>
      <trkpt lat="44.74543" lon="6.87424">
        <ele>2770.2</ele>
        <time>2026-03-23T12:00:53Z</time>
      </trkpt>
      <trkpt lat="44.74543" lon="6.87424">
        <ele>2770.2</ele>
        <time>2026-03-23T12:00:54Z</time>
      </trkpt>
      <trkpt lat="44.74543" lon="6.87424">
        <ele>2770.2</ele>
        <time>2026-03-23T12:00:55Z</time>
      </trkpt>
      <trkpt lat="44.74543" lon="6.87424">
        <ele>2770.2</ele>
        <time>2026-03-23T12:00:56Z</time>
      </trkpt>
      <trkpt lat="44.74543" lon="6.87424">
        <ele>2770.2</ele>
        <time>2026-03-23T12:00:57Z</time>
      </trkpt>
      <trkpt lat="44.74543" lon="6.87424">
        <ele>2770.2</ele>
        <time>2026-03-23T12:00:58Z</time>
      </trkpt>
      <trkpt lat="44.74543" lon="6.87424">
        <ele>2770.2</ele>
        <time>2026-03-23T12:00:59Z</time>
      </trkpt>
      <trkpt lat="44.74543" lon="6.87424">
        <ele>2770.2</ele>
        <time>2026-03-23T12:01:00Z</time>
      </trkpt>
      <trkpt lat="44.74543" lon="6.87424">
        <ele>2770.2</ele>
        <time>2026-03-23T12:01:01Z</time>
      </trkpt>
      <trkpt lat="44.74543" lon="6.87424">
        <ele>2770.2</ele>
        <time>2026-03-23T12:01:02Z</time>
      </trkpt>
      <trkpt lat="44.74543" lon="6.87424">
        <ele>2770.2</ele>
        <time>2026-03-23T12:01:03Z</time>
      </trkpt>
      <trkpt lat="44.74543" lon="6.87424">
        <ele>2770.2</ele>
        <time>2026-03-23T12:01:04Z</time>
      </trkpt>
      <trkpt lat="44.74543" lon="6.87424">
        <ele>2770.2</ele>
        <time>2026-03-23T12:01:05Z</time>
      </trkpt>
      <trkpt lat="44.74543" lon="6.87424">
        <ele>2770.2</ele>
        <time>2026-03-23T12:01:06Z</time>
      </trkpt>
      <trkpt lat="44.74543" lon="6.87424">
        <ele>2770.2</ele>
        <time>2026-03-23T12:01:07Z</time>
      </trkpt>
      <trkpt lat="44.74543" lon="6.87424">
        <ele>2770.2</ele>
        <time>2026-03-23T12:01:08Z</time>
      </trkpt>
      <trkpt lat="44.74543" lon="6.87424">
        <ele>2770.2</ele>
        <time>2026-03-23T12:01:09Z</time>
      </trkpt>
      <trkpt lat="44.74543" lon="6.87424">
        <ele>2770.2</ele>
        <time>2026-03-23T12:01:10Z</time>
      </trkpt>
      <trkpt lat="44.74543" lon="6.87424">
        <ele>2770.2</ele>
        <time>2026-03-23T12:01:11Z</time>
      </trkpt>
      <trkpt lat="44.74543" lon="6.87424">
        <ele>2770.2</ele>
        <time>2026-03-23T12:01:12Z</time>
      </trkpt>
      <trkpt lat="44.74543" lon="6.87424">
        <ele>2770.2</ele>
        <time>2026-03-23T12:01:13Z</time>
      </trkpt>
      <trkpt lat="44.74543" lon="6.87424">
        <ele>2770.2</ele>
        <time>2026-03-23T12:01:14Z</time>
      </trkpt>
      <trkpt lat="44.74543" lon="6.87424">
        <ele>2770.2</ele>
        <time>2026-03-23T12:01:15Z</time>
      </trkpt>
      <trkpt lat="44.74543" lon="6.87424">
        <ele>2770.2</ele>
        <time>2026-03-23T12:01:16Z</time>
      </trkpt>
      <trkpt lat="44.74543" lon="6.87424">
        <ele>2770.2</ele>
        <time>2026-03-23T12:01:17Z</time>
      </trkpt>
      <trkpt lat="44.74543" lon="6.87424">
        <ele>2770.2</ele>
        <time>2026-03-23T12:01:18Z</time>
      </trkpt>
      <trkpt lat="44.74543" lon="6.87425">
        <ele>2770.2</ele>
        <time>2026-03-23T12:01:19Z</time>
      </trkpt>
      <trkpt lat="44.74543" lon="6.87425">
        <ele>2770.2</ele>
        <time>2026-03-23T12:01:20Z</time>
      </trkpt>
      <trkpt lat="44.74543" lon="6.87425">
        <ele>2770.2</ele>
        <time>2026-03-23T12:01:21Z</time>
      </trkpt>
      <trkpt lat="44.74543" lon="6.87425">
        <ele>2770.2</ele>
        <time>2026-03-23T12:01:22Z</time>
      </trkpt>
      <trkpt lat="44.74543" lon="6.87425">
        <ele>2770.2</ele>
        <time>2026-03-23T12:01:23Z</time>
      </trkpt>
      <trkpt lat="44.74543" lon="6.87425">
        <ele>2770.2</ele>
        <time>2026-03-23T12:01:24Z</time>
      </trkpt>
      <trkpt lat="44.74543" lon="6.87425">
        <ele>2770.2</ele>
        <time>2026-03-23T12:01:25Z</time>
      </trkpt>
      <trkpt lat="44.74543" lon="6.87425">
        <ele>2770.2</ele>
        <time>2026-03-23T12:01:26Z</time>
      </trkpt>
      <trkpt lat="44.74543" lon="6.87425">
        <ele>2770.2</ele>
        <time>2026-03-23T12:01:27Z</time>
      </trkpt>
      <trkpt lat="44.74543" lon="6.87425">
        <ele>2770.2</ele>
        <time>2026-03-23T12:01:28Z</time>
      </trkpt>
      <trkpt lat="44.74543" lon="6.87425">
        <ele>2770.2</ele>
        <time>2026-03-23T12:01:29Z</time>
      </trkpt>
      <trkpt lat="44.74543" lon="6.87425">
        <ele>2770.2</ele>
        <time>2026-03-23T12:01:30Z</time>
      </trkpt>
      <trkpt lat="44.74543" lon="6.87425">
        <ele>2770.2</ele>
        <time>2026-03-23T12:01:31Z</time>
      </trkpt>
      <trkpt lat="44.74543" lon="6.87425">
        <ele>2770.2</ele>
        <time>2026-03-23T12:01:32Z</time>
      </trkpt>
      <trkpt lat="44.74543" lon="6.87425">
        <ele>2770.2</ele>
        <time>2026-03-23T12:01:33Z</time>
      </trkpt>
      <trkpt lat="44.74543" lon="6.87425">
        <ele>2770.2</ele>
        <time>2026-03-23T12:01:34Z</time>
      </trkpt>
      <trkpt lat="44.74543" lon="6.87425">
        <ele>2770.2</ele>
        <time>2026-03-23T12:01:35Z</time>
      </trkpt>
      <trkpt lat="44.74543" lon="6.87425">
        <ele>2770.2</ele>
        <time>2026-03-23T12:01:36Z</time>
      </trkpt>
      <trkpt lat="44.74543" lon="6.87425">
        <ele>2770.2</ele>
        <time>2026-03-23T12:01:37Z</time>
      </trkpt>
      <trkpt lat="44.74543" lon="6.87425">
        <ele>2770.2</ele>
        <time>2026-03-23T12:01:38Z</time>
      </trkpt>
      <trkpt lat="44.74543" lon="6.87425">
        <ele>2770.2</ele>
        <time>2026-03-23T12:01:39Z</time>
      </trkpt>
      <trkpt lat="44.74543" lon="6.87425">
        <ele>2770.2</ele>
        <time>2026-03-23T12:01:40Z</time>
      </trkpt>
      <trkpt lat="44.74543" lon="6.87425">
        <ele>2770.2</ele>
        <time>2026-03-23T12:01:41Z</time>
      </trkpt>
      <trkpt lat="44.74543" lon="6.87425">
        <ele>2770.2</ele>
        <time>2026-03-23T12:01:42Z</time>
      </trkpt>
      <trkpt lat="44.74543" lon="6.87425">
        <ele>2770.2</ele>
        <time>2026-03-23T12:01:43Z</time>
      </trkpt>
      <trkpt lat="44.74543" lon="6.87425">
        <ele>2770.2</ele>
        <time>2026-03-23T12:01:44Z</time>
      </trkpt>
      <trkpt lat="44.74543" lon="6.87425">
        <ele>2770.2</ele>
        <time>2026-03-23T12:01:45Z</time>
      </trkpt>
      <trkpt lat="44.74543" lon="6.87425">
        <ele>2770.2</ele>
        <time>2026-03-23T12:01:46Z</time>
      </trkpt>
      <trkpt lat="44.74543" lon="6.87425">
        <ele>2770.2</ele>
        <time>2026-03-23T12:01:47Z</time>
      </trkpt>
      <trkpt lat="44.74543" lon="6.87425">
        <ele>2770.2</ele>
        <time>2026-03-23T12:01:48Z</time>
      </trkpt>
      <trkpt lat="44.74543" lon="6.87425">
        <ele>2770.2</ele>
        <time>2026-03-23T12:01:49Z</time>
      </trkpt>
      <trkpt lat="44.74543" lon="6.87425">
        <ele>2770.2</ele>
        <time>2026-03-23T12:01:50Z</time>
      </trkpt>
      <trkpt lat="44.74543" lon="6.87425">
        <ele>2770.2</ele>
        <time>2026-03-23T12:01:51Z</time>
      </trkpt>
      <trkpt lat="44.74543" lon="6.87425">
        <ele>2770.2</ele>
        <time>2026-03-23T12:01:52Z</time>
      </trkpt>
      <trkpt lat="44.74543" lon="6.87425">
        <ele>2770.2</ele>
        <time>2026-03-23T12:01:53Z</time>
      </trkpt>
      <trkpt lat="44.74543" lon="6.87425">
        <ele>2770.2</ele>
        <time>2026-03-23T12:01:54Z</time>
      </trkpt>
      <trkpt lat="44.74543" lon="6.87425">
        <ele>2770.2</ele>
        <time>2026-03-23T12:01:55Z</time>
      </trkpt>
      <trkpt lat="44.74543" lon="6.87425">
        <ele>2770.2</ele>
        <time>2026-03-23T12:01:56Z</time>
      </trkpt>
      <trkpt lat="44.74543" lon="6.87425">
        <ele>2770.2</ele>
        <time>2026-03-23T12:01:57Z</time>
      </trkpt>
      <trkpt lat="44.74543" lon="6.87425">
        <ele>2770.2</ele>
        <time>2026-03-23T12:01:58Z</time>
      </trkpt>
      <trkpt lat="44.74543" lon="6.87425">
        <ele>2770.2</ele>
        <time>2026-03-23T12:01:59Z</time>
      </trkpt>
      <trkpt lat="44.74543" lon="6.87425">
        <ele>2770.2</ele>
        <time>2026-03-23T12:02:00Z</time>
      </trkpt>
      <trkpt lat="44.74543" lon="6.87425">
        <ele>2770.2</ele>
        <time>2026-03-23T12:02:01Z</time>
      </trkpt>
      <trkpt lat="44.74543" lon="6.87425">
        <ele>2770.2</ele>
        <time>2026-03-23T12:02:02Z</time>
      </trkpt>
      <trkpt lat="44.74543" lon="6.87425">
        <ele>2770.2</ele>
        <time>2026-03-23T12:02:03Z</time>
      </trkpt>
      <trkpt lat="44.74543" lon="6.87425">
        <ele>2770.2</ele>
        <time>2026-03-23T12:02:04Z</time>
      </trkpt>
      <trkpt lat="44.74543" lon="6.87425">
        <ele>2770.2</ele>
        <time>2026-03-23T12:02:05Z</time>
      </trkpt>
      <trkpt lat="44.74543" lon="6.87425">
        <ele>2770.2</ele>
        <time>2026-03-23T12:02:06Z</time>
      </trkpt>
      <trkpt lat="44.74543" lon="6.87425">
        <ele>2770.2</ele>
        <time>2026-03-23T12:02:07Z</time>
      </trkpt>
      <trkpt lat="44.74543" lon="6.87425">
        <ele>2770.2</ele>
        <time>2026-03-23T12:02:08Z</time>
      </trkpt>
      <trkpt lat="44.74543" lon="6.87425">
        <ele>2770.2</ele>
        <time>2026-03-23T12:02:09Z</time>
      </trkpt>
      <trkpt lat="44.74543" lon="6.87425">
        <ele>2770.2</ele>
        <time>2026-03-23T12:02:10Z</time>
      </trkpt>
      <trkpt lat="44.74543" lon="6.87425">
        <ele>2770.2</ele>
        <time>2026-03-23T12:02:11Z</time>
      </trkpt>
      <trkpt lat="44.74543" lon="6.87425">
        <ele>2770.2</ele>
        <time>2026-03-23T12:02:12Z</time>
      </trkpt>
      <trkpt lat="44.74543" lon="6.87425">
        <ele>2770.2</ele>
        <time>2026-03-23T12:02:13Z</time>
      </trkpt>
      <trkpt lat="44.74543" lon="6.87425">
        <ele>2770.2</ele>
        <time>2026-03-23T12:02:14Z</time>
      </trkpt>
      <trkpt lat="44.74543" lon="6.87425">
        <ele>2770.2</ele>
        <time>2026-03-23T12:02:15Z</time>
      </trkpt>
      <trkpt lat="44.74543" lon="6.87425">
        <ele>2770.2</ele>
        <time>2026-03-23T12:02:16Z</time>
      </trkpt>
      <trkpt lat="44.74543" lon="6.87425">
        <ele>2770.2</ele>
        <time>2026-03-23T12:02:17Z</time>
      </trkpt>
      <trkpt lat="44.74543" lon="6.87425">
        <ele>2770.2</ele>
        <time>2026-03-23T12:02:18Z</time>
      </trkpt>
      <trkpt lat="44.74543" lon="6.87425">
        <ele>2770.2</ele>
        <time>2026-03-23T12:02:19Z</time>
      </trkpt>
      <trkpt lat="44.74543" lon="6.87425">
        <ele>2770.2</ele>
        <time>2026-03-23T12:02:20Z</time>
      </trkpt>
      <trkpt lat="44.74543" lon="6.87425">
        <ele>2770.2</ele>
        <time>2026-03-23T12:02:21Z</time>
      </trkpt>
      <trkpt lat="44.74543" lon="6.87425">
        <ele>2770.2</ele>
        <time>2026-03-23T12:02:22Z</time>
      </trkpt>
      <trkpt lat="44.74543" lon="6.87425">
        <ele>2770.2</ele>
        <time>2026-03-23T12:02:23Z</time>
      </trkpt>
      <trkpt lat="44.74543" lon="6.87425">
        <ele>2770.2</ele>
        <time>2026-03-23T12:02:24Z</time>
      </trkpt>
      <trkpt lat="44.74543" lon="6.87425">
        <ele>2770.2</ele>
        <time>2026-03-23T12:02:25Z</time>
      </trkpt>
      <trkpt lat="44.74543" lon="6.87425">
        <ele>2770.2</ele>
        <time>2026-03-23T12:02:26Z</time>
      </trkpt>
      <trkpt lat="44.74543" lon="6.87425">
        <ele>2770.2</ele>
        <time>2026-03-23T12:02:27Z</time>
      </trkpt>
      <trkpt lat="44.74543" lon="6.87425">
        <ele>2770.2</ele>
        <time>2026-03-23T12:02:28Z</time>
      </trkpt>
      <trkpt lat="44.74543" lon="6.87425">
        <ele>2770.2</ele>
        <time>2026-03-23T12:02:29Z</time>
      </trkpt>
      <trkpt lat="44.74543" lon="6.87425">
        <ele>2770.2</ele>
        <time>2026-03-23T12:02:30Z</time>
      </trkpt>
      <trkpt lat="44.74543" lon="6.87425">
        <ele>2770.2</ele>
        <time>2026-03-23T12:02:31Z</time>
      </trkpt>
      <trkpt lat="44.74543" lon="6.87425">
        <ele>2770.2</ele>
        <time>2026-03-23T12:02:32Z</time>
      </trkpt>
      <trkpt lat="44.74543" lon="6.87425">
        <ele>2770.2</ele>
        <time>2026-03-23T12:02:33Z</time>
      </trkpt>
      <trkpt lat="44.74543" lon="6.87425">
        <ele>2770.2</ele>
        <time>2026-03-23T12:02:34Z</time>
      </trkpt>
      <trkpt lat="44.74543" lon="6.87425">
        <ele>2770.2</ele>
        <time>2026-03-23T12:02:35Z</time>
      </trkpt>
      <trkpt lat="44.74543" lon="6.87425">
        <ele>2770.2</ele>
        <time>2026-03-23T12:02:36Z</time>
      </trkpt>
      <trkpt lat="44.74543" lon="6.87425">
        <ele>2770.2</ele>
        <time>2026-03-23T12:02:37Z</time>
      </trkpt>
      <trkpt lat="44.74543" lon="6.87425">
        <ele>2770.2</ele>
        <time>2026-03-23T12:02:38Z</time>
      </trkpt>
      <trkpt lat="44.74543" lon="6.87425">
        <ele>2770.2</ele>
        <time>2026-03-23T12:02:39Z</time>
      </trkpt>
      <trkpt lat="44.74543" lon="6.87425">
        <ele>2770.2</ele>
        <time>2026-03-23T12:02:40Z</time>
      </trkpt>
      <trkpt lat="44.74543" lon="6.87425">
        <ele>2770.2</ele>
        <time>2026-03-23T12:02:41Z</time>
      </trkpt>
      <trkpt lat="44.74543" lon="6.87425">
        <ele>2770.2</ele>
        <time>2026-03-23T12:02:42Z</time>
      </trkpt>
      <trkpt lat="44.74543" lon="6.87425">
        <ele>2770.2</ele>
        <time>2026-03-23T12:02:43Z</time>
      </trkpt>
      <trkpt lat="44.74543" lon="6.87425">
        <ele>2770.2</ele>
        <time>2026-03-23T12:02:44Z</time>
      </trkpt>
      <trkpt lat="44.74543" lon="6.87425">
        <ele>2770.2</ele>
        <time>2026-03-23T12:02:45Z</time>
      </trkpt>
      <trkpt lat="44.74543" lon="6.87425">
        <ele>2770.2</ele>
        <time>2026-03-23T12:02:46Z</time>
      </trkpt>
      <trkpt lat="44.74543" lon="6.87425">
        <ele>2770.2</ele>
        <time>2026-03-23T12:02:47Z</time>
      </trkpt>
      <trkpt lat="44.74543" lon="6.87425">
        <ele>2770.2</ele>
        <time>2026-03-23T12:02:48Z</time>
      </trkpt>
      <trkpt lat="44.74543" lon="6.87425">
        <ele>2770.2</ele>
        <time>2026-03-23T12:02:49Z</time>
      </trkpt>
      <trkpt lat="44.74543" lon="6.87425">
        <ele>2770.2</ele>
        <time>2026-03-23T12:02:50Z</time>
      </trkpt>
      <trkpt lat="44.74543" lon="6.87425">
        <ele>2770.2</ele>
        <time>2026-03-23T12:02:51Z</time>
      </trkpt>
      <trkpt lat="44.74543" lon="6.87425">
        <ele>2770.2</ele>
        <time>2026-03-23T12:02:52Z</time>
      </trkpt>
      <trkpt lat="44.74543" lon="6.87425">
        <ele>2770.2</ele>
        <time>2026-03-23T12:02:53Z</time>
      </trkpt>
      <trkpt lat="44.74543" lon="6.87425">
        <ele>2770.2</ele>
        <time>2026-03-23T12:02:54Z</time>
      </trkpt>
      <trkpt lat="44.74543" lon="6.87425">
        <ele>2770.2</ele>
        <time>2026-03-23T12:02:55Z</time>
      </trkpt>
      <trkpt lat="44.74543" lon="6.87425">
        <ele>2770.2</ele>
        <time>2026-03-23T12:02:56Z</time>
      </trkpt>
      <trkpt lat="44.74543" lon="6.87425">
        <ele>2770.2</ele>
        <time>2026-03-23T12:02:57Z</time>
      </trkpt>
      <trkpt lat="44.74543" lon="6.87425">
        <ele>2770.2</ele>
        <time>2026-03-23T12:02:58Z</time>
      </trkpt>
      <trkpt lat="44.74543" lon="6.87425">
        <ele>2770.2</ele>
        <time>2026-03-23T12:02:59Z</time>
      </trkpt>
      <trkpt lat="44.74543" lon="6.87425">
        <ele>2770.2</ele>
        <time>2026-03-23T12:03:00Z</time>
      </trkpt>
      <trkpt lat="44.74543" lon="6.87425">
        <ele>2770.2</ele>
        <time>2026-03-23T12:03:01Z</time>
      </trkpt>
      <trkpt lat="44.74543" lon="6.87425">
        <ele>2770.2</ele>
        <time>2026-03-23T12:03:02Z</time>
      </trkpt>
      <trkpt lat="44.74544" lon="6.87425">
        <ele>2770.3</ele>
        <time>2026-03-23T12:03:03Z</time>
      </trkpt>
      <trkpt lat="44.74544" lon="6.87425">
        <ele>2770.3</ele>
        <time>2026-03-23T12:03:04Z</time>
      </trkpt>
      <trkpt lat="44.74544" lon="6.87425">
        <ele>2770.3</ele>
        <time>2026-03-23T12:03:05Z</time>
      </trkpt>
      <trkpt lat="44.74544" lon="6.87425">
        <ele>2770.3</ele>
        <time>2026-03-23T12:03:06Z</time>
      </trkpt>
      <trkpt lat="44.74544" lon="6.87425">
        <ele>2770.3</ele>
        <time>2026-03-23T12:03:07Z</time>
      </trkpt>
      <trkpt lat="44.74544" lon="6.87425">
        <ele>2770.3</ele>
        <time>2026-03-23T12:03:08Z</time>
      </trkpt>
      <trkpt lat="44.74544" lon="6.87425">
        <ele>2770.3</ele>
        <time>2026-03-23T12:03:09Z</time>
      </trkpt>
      <trkpt lat="44.74544" lon="6.87425">
        <ele>2770.3</ele>
        <time>2026-03-23T12:03:10Z</time>
      </trkpt>
      <trkpt lat="44.74544" lon="6.87425">
        <ele>2770.3</ele>
        <time>2026-03-23T12:03:11Z</time>
      </trkpt>
      <trkpt lat="44.74544" lon="6.87425">
        <ele>2770.3</ele>
        <time>2026-03-23T12:03:12Z</time>
      </trkpt>
      <trkpt lat="44.74544" lon="6.87425">
        <ele>2770.3</ele>
        <time>2026-03-23T12:03:13Z</time>
      </trkpt>
      <trkpt lat="44.74544" lon="6.87425">
        <ele>2770.3</ele>
        <time>2026-03-23T12:03:14Z</time>
      </trkpt>
      <trkpt lat="44.74544" lon="6.87425">
        <ele>2770.3</ele>
        <time>2026-03-23T12:03:15Z</time>
      </trkpt>
      <trkpt lat="44.74544" lon="6.87425">
        <ele>2770.3</ele>
        <time>2026-03-23T12:03:16Z</time>
      </trkpt>
      <trkpt lat="44.74544" lon="6.87425">
        <ele>2770.3</ele>
        <time>2026-03-23T12:03:17Z</time>
      </trkpt>
      <trkpt lat="44.74544" lon="6.87425">
        <ele>2770.3</ele>
        <time>2026-03-23T12:03:18Z</time>
      </trkpt>
      <trkpt lat="44.74544" lon="6.87425">
        <ele>2770.3</ele>
        <time>2026-03-23T12:03:19Z</time>
      </trkpt>
      <trkpt lat="44.74544" lon="6.87425">
        <ele>2770.3</ele>
        <time>2026-03-23T12:03:20Z</time>
      </trkpt>
      <trkpt lat="44.74544" lon="6.87425">
        <ele>2770.3</ele>
        <time>2026-03-23T12:03:21Z</time>
      </trkpt>
      <trkpt lat="44.74544" lon="6.87425">
        <ele>2770.3</ele>
        <time>2026-03-23T12:03:22Z</time>
      </trkpt>
      <trkpt lat="44.74544" lon="6.87425">
        <ele>2770.3</ele>
        <time>2026-03-23T12:03:23Z</time>
      </trkpt>
      <trkpt lat="44.74544" lon="6.87425">
        <ele>2770.3</ele>
        <time>2026-03-23T12:03:24Z</time>
      </trkpt>
      <trkpt lat="44.74544" lon="6.87425">
        <ele>2770.3</ele>
        <time>2026-03-23T12:03:25Z</time>
      </trkpt>
      <trkpt lat="44.74544" lon="6.87425">
        <ele>2770.3</ele>
        <time>2026-03-23T12:03:26Z</time>
      </trkpt>
      <trkpt lat="44.74544" lon="6.87425">
        <ele>2770.3</ele>
        <time>2026-03-23T12:03:27Z</time>
      </trkpt>
      <trkpt lat="44.74544" lon="6.87425">
        <ele>2770.3</ele>
        <time>2026-03-23T12:03:28Z</time>
      </trkpt>
      <trkpt lat="44.74544" lon="6.87425">
        <ele>2770.3</ele>
        <time>2026-03-23T12:03:29Z</time>
      </trkpt>
      <trkpt lat="44.74544" lon="6.87425">
        <ele>2770.3</ele>
        <time>2026-03-23T12:03:30Z</time>
      </trkpt>
      <trkpt lat="44.74544" lon="6.87425">
        <ele>2770.3</ele>
        <time>2026-03-23T12:03:31Z</time>
      </trkpt>
      <trkpt lat="44.74543" lon="6.87425">
        <ele>2770.3</ele>
        <time>2026-03-23T12:03:32Z</time>
      </trkpt>
      <trkpt lat="44.74543" lon="6.87425">
        <ele>2770.3</ele>
        <time>2026-03-23T12:03:33Z</time>
      </trkpt>
      <trkpt lat="44.74543" lon="6.87425">
        <ele>2770.3</ele>
        <time>2026-03-23T12:03:34Z</time>
      </trkpt>
      <trkpt lat="44.74543" lon="6.87425">
        <ele>2770.3</ele>
        <time>2026-03-23T12:03:35Z</time>
      </trkpt>
      <trkpt lat="44.74543" lon="6.87425">
        <ele>2770.3</ele>
        <time>2026-03-23T12:03:36Z</time>
      </trkpt>
      <trkpt lat="44.74543" lon="6.87425">
        <ele>2770.3</ele>
        <time>2026-03-23T12:03:37Z</time>
      </trkpt>
      <trkpt lat="44.74543" lon="6.87425">
        <ele>2770.3</ele>
        <time>2026-03-23T12:03:38Z</time>
      </trkpt>
      <trkpt lat="44.74543" lon="6.87425">
        <ele>2770.3</ele>
        <time>2026-03-23T12:03:39Z</time>
      </trkpt>
      <trkpt lat="44.74543" lon="6.87425">
        <ele>2770.3</ele>
        <time>2026-03-23T12:03:40Z</time>
      </trkpt>
      <trkpt lat="44.74543" lon="6.87425">
        <ele>2770.3</ele>
        <time>2026-03-23T12:03:41Z</time>
      </trkpt>
      <trkpt lat="44.74543" lon="6.87425">
        <ele>2770.3</ele>
        <time>2026-03-23T12:03:42Z</time>
      </trkpt>
      <trkpt lat="44.74543" lon="6.87425">
        <ele>2770.3</ele>
        <time>2026-03-23T12:03:43Z</time>
      </trkpt>
      <trkpt lat="44.74543" lon="6.87425">
        <ele>2770.3</ele>
        <time>2026-03-23T12:03:44Z</time>
      </trkpt>
      <trkpt lat="44.74543" lon="6.87425">
        <ele>2770.3</ele>
        <time>2026-03-23T12:03:45Z</time>
      </trkpt>
      <trkpt lat="44.74542" lon="6.87424">
        <ele>2770.3</ele>
        <time>2026-03-23T12:03:46Z</time>
      </trkpt>
      <trkpt lat="44.74542" lon="6.87425">
        <ele>2770.3</ele>
        <time>2026-03-23T12:03:47Z</time>
      </trkpt>
      <trkpt lat="44.74542" lon="6.87425">
        <ele>2770.3</ele>
        <time>2026-03-23T12:03:48Z</time>
      </trkpt>
      <trkpt lat="44.74542" lon="6.87425">
        <ele>2770.3</ele>
        <time>2026-03-23T12:03:49Z</time>
      </trkpt>
      <trkpt lat="44.74542" lon="6.87425">
        <ele>2770.3</ele>
        <time>2026-03-23T12:03:50Z</time>
      </trkpt>
      <trkpt lat="44.74542" lon="6.87425">
        <ele>2770.3</ele>
        <time>2026-03-23T12:03:51Z</time>
      </trkpt>
      <trkpt lat="44.74542" lon="6.87425">
        <ele>2770.3</ele>
        <time>2026-03-23T12:03:52Z</time>
      </trkpt>
      <trkpt lat="44.74542" lon="6.87425">
        <ele>2770.3</ele>
        <time>2026-03-23T12:03:53Z</time>
      </trkpt>
      <trkpt lat="44.74542" lon="6.87424">
        <ele>2770.3</ele>
        <time>2026-03-23T12:03:54Z</time>
      </trkpt>
      <trkpt lat="44.74542" lon="6.87424">
        <ele>2770.3</ele>
        <time>2026-03-23T12:03:55Z</time>
      </trkpt>
      <trkpt lat="44.74541" lon="6.87423">
        <ele>2770.3</ele>
        <time>2026-03-23T12:03:56Z</time>
      </trkpt>
      <trkpt lat="44.74541" lon="6.87422">
        <ele>2770.4</ele>
        <time>2026-03-23T12:03:57Z</time>
      </trkpt>
      <trkpt lat="44.74541" lon="6.87421">
        <ele>2770.4</ele>
        <time>2026-03-23T12:03:58Z</time>
      </trkpt>
      <trkpt lat="44.74542" lon="6.87419">
        <ele>2770.4</ele>
        <time>2026-03-23T12:03:59Z</time>
      </trkpt>
      <trkpt lat="44.74542" lon="6.87418">
        <ele>2770.4</ele>
        <time>2026-03-23T12:04:00Z</time>
      </trkpt>
      <trkpt lat="44.74543" lon="6.87418">
        <ele>2770.4</ele>
        <time>2026-03-23T12:04:01Z</time>
      </trkpt>
      <trkpt lat="44.74543" lon="6.87418">
        <ele>2770.4</ele>
        <time>2026-03-23T12:04:02Z</time>
      </trkpt>
      <trkpt lat="44.74543" lon="6.87417">
        <ele>2770.4</ele>
        <time>2026-03-23T12:04:03Z</time>
      </trkpt>
      <trkpt lat="44.74543" lon="6.87417">
        <ele>2770.4</ele>
        <time>2026-03-23T12:04:04Z</time>
      </trkpt>
      <trkpt lat="44.74543" lon="6.87418">
        <ele>2770.4</ele>
        <time>2026-03-23T12:04:05Z</time>
      </trkpt>
      <trkpt lat="44.74543" lon="6.87418">
        <ele>2770.4</ele>
        <time>2026-03-23T12:04:06Z</time>
      </trkpt>
      <trkpt lat="44.74544" lon="6.87419">
        <ele>2770.4</ele>
        <time>2026-03-23T12:04:07Z</time>
      </trkpt>
      <trkpt lat="44.74544" lon="6.87419">
        <ele>2770.5</ele>
        <time>2026-03-23T12:04:08Z</time>
      </trkpt>
      <trkpt lat="44.74544" lon="6.87419">
        <ele>2770.5</ele>
        <time>2026-03-23T12:04:09Z</time>
      </trkpt>
      <trkpt lat="44.74544" lon="6.87419">
        <ele>2770.5</ele>
        <time>2026-03-23T12:04:10Z</time>
      </trkpt>
      <trkpt lat="44.74544" lon="6.87419">
        <ele>2770.5</ele>
        <time>2026-03-23T12:04:11Z</time>
      </trkpt>
      <trkpt lat="44.74544" lon="6.87419">
        <ele>2770.5</ele>
        <time>2026-03-23T12:04:12Z</time>
      </trkpt>
      <trkpt lat="44.74544" lon="6.87419">
        <ele>2770.5</ele>
        <time>2026-03-23T12:04:13Z</time>
      </trkpt>
      <trkpt lat="44.74544" lon="6.87419">
        <ele>2770.5</ele>
        <time>2026-03-23T12:04:14Z</time>
      </trkpt>
      <trkpt lat="44.74544" lon="6.87419">
        <ele>2770.5</ele>
        <time>2026-03-23T12:04:15Z</time>
      </trkpt>
      <trkpt lat="44.74544" lon="6.8742">
        <ele>2770.5</ele>
        <time>2026-03-23T12:04:16Z</time>
      </trkpt>
      <trkpt lat="44.74544" lon="6.8742">
        <ele>2770.5</ele>
        <time>2026-03-23T12:04:17Z</time>
      </trkpt>
      <trkpt lat="44.74544" lon="6.8742">
        <ele>2770.5</ele>
        <time>2026-03-23T12:04:18Z</time>
      </trkpt>
      <trkpt lat="44.74544" lon="6.8742">
        <ele>2770.5</ele>
        <time>2026-03-23T12:04:19Z</time>
      </trkpt>
      <trkpt lat="44.74544" lon="6.8742">
        <ele>2770.5</ele>
        <time>2026-03-23T12:04:20Z</time>
      </trkpt>
      <trkpt lat="44.74544" lon="6.8742">
        <ele>2770.5</ele>
        <time>2026-03-23T12:04:21Z</time>
      </trkpt>
      <trkpt lat="44.74544" lon="6.8742">
        <ele>2770.5</ele>
        <time>2026-03-23T12:04:22Z</time>
      </trkpt>
      <trkpt lat="44.74544" lon="6.8742">
        <ele>2770.5</ele>
        <time>2026-03-23T12:04:23Z</time>
      </trkpt>
      <trkpt lat="44.74544" lon="6.8742">
        <ele>2770.5</ele>
        <time>2026-03-23T12:04:24Z</time>
      </trkpt>
      <trkpt lat="44.74544" lon="6.8742">
        <ele>2770.5</ele>
        <time>2026-03-23T12:04:25Z</time>
      </trkpt>
      <trkpt lat="44.74544" lon="6.8742">
        <ele>2770.5</ele>
        <time>2026-03-23T12:04:26Z</time>
      </trkpt>
      <trkpt lat="44.74544" lon="6.8742">
        <ele>2770.5</ele>
        <time>2026-03-23T12:04:27Z</time>
      </trkpt>
      <trkpt lat="44.74544" lon="6.8742">
        <ele>2770.5</ele>
        <time>2026-03-23T12:04:28Z</time>
      </trkpt>
      <trkpt lat="44.74544" lon="6.8742">
        <ele>2770.5</ele>
        <time>2026-03-23T12:04:29Z</time>
      </trkpt>
      <trkpt lat="44.74544" lon="6.8742">
        <ele>2770.5</ele>
        <time>2026-03-23T12:04:30Z</time>
      </trkpt>
      <trkpt lat="44.74544" lon="6.8742">
        <ele>2770.5</ele>
        <time>2026-03-23T12:04:31Z</time>
      </trkpt>
      <trkpt lat="44.74544" lon="6.8742">
        <ele>2770.5</ele>
        <time>2026-03-23T12:04:32Z</time>
      </trkpt>
      <trkpt lat="44.74544" lon="6.8742">
        <ele>2770.5</ele>
        <time>2026-03-23T12:04:33Z</time>
      </trkpt>
      <trkpt lat="44.74544" lon="6.8742">
        <ele>2770.5</ele>
        <time>2026-03-23T12:04:34Z</time>
      </trkpt>
      <trkpt lat="44.74544" lon="6.8742">
        <ele>2770.5</ele>
        <time>2026-03-23T12:04:35Z</time>
      </trkpt>
      <trkpt lat="44.74544" lon="6.8742">
        <ele>2770.5</ele>
        <time>2026-03-23T12:04:36Z</time>
      </trkpt>
      <trkpt lat="44.74544" lon="6.8742">
        <ele>2770.5</ele>
        <time>2026-03-23T12:04:37Z</time>
      </trkpt>
      <trkpt lat="44.74544" lon="6.8742">
        <ele>2770.5</ele>
        <time>2026-03-23T12:04:38Z</time>
      </trkpt>
      <trkpt lat="44.74544" lon="6.8742">
        <ele>2770.5</ele>
        <time>2026-03-23T12:04:39Z</time>
      </trkpt>
      <trkpt lat="44.74544" lon="6.8742">
        <ele>2770.5</ele>
        <time>2026-03-23T12:04:40Z</time>
      </trkpt>
      <trkpt lat="44.74544" lon="6.8742">
        <ele>2770.5</ele>
        <time>2026-03-23T12:04:41Z</time>
      </trkpt>
      <trkpt lat="44.74543" lon="6.8742">
        <ele>2770.5</ele>
        <time>2026-03-23T12:04:42Z</time>
      </trkpt>
      <trkpt lat="44.74543" lon="6.8742">
        <ele>2770.5</ele>
        <time>2026-03-23T12:04:43Z</time>
      </trkpt>
      <trkpt lat="44.74543" lon="6.8742">
        <ele>2770.5</ele>
        <time>2026-03-23T12:04:44Z</time>
      </trkpt>
      <trkpt lat="44.74543" lon="6.8742">
        <ele>2770.5</ele>
        <time>2026-03-23T12:04:45Z</time>
      </trkpt>
      <trkpt lat="44.74543" lon="6.8742">
        <ele>2770.5</ele>
        <time>2026-03-23T12:04:46Z</time>
      </trkpt>
      <trkpt lat="44.74543" lon="6.8742">
        <ele>2770.5</ele>
        <time>2026-03-23T12:04:47Z</time>
      </trkpt>
      <trkpt lat="44.74543" lon="6.8742">
        <ele>2770.5</ele>
        <time>2026-03-23T12:04:48Z</time>
      </trkpt>
      <trkpt lat="44.74543" lon="6.8742">
        <ele>2770.5</ele>
        <time>2026-03-23T12:04:49Z</time>
      </trkpt>
      <trkpt lat="44.74543" lon="6.8742">
        <ele>2770.5</ele>
        <time>2026-03-23T12:04:50Z</time>
      </trkpt>
      <trkpt lat="44.74543" lon="6.8742">
        <ele>2770.5</ele>
        <time>2026-03-23T12:04:51Z</time>
      </trkpt>
      <trkpt lat="44.74544" lon="6.8742">
        <ele>2770.5</ele>
        <time>2026-03-23T12:04:52Z</time>
      </trkpt>
      <trkpt lat="44.74543" lon="6.87421">
        <ele>2770.5</ele>
        <time>2026-03-23T12:04:53Z</time>
      </trkpt>
      <trkpt lat="44.74543" lon="6.87421">
        <ele>2770.5</ele>
        <time>2026-03-23T12:04:54Z</time>
      </trkpt>
      <trkpt lat="44.74543" lon="6.87422">
        <ele>2770.5</ele>
        <time>2026-03-23T12:04:55Z</time>
      </trkpt>
      <trkpt lat="44.74543" lon="6.87422">
        <ele>2770.5</ele>
        <time>2026-03-23T12:04:56Z</time>
      </trkpt>
      <trkpt lat="44.74543" lon="6.87422">
        <ele>2770.5</ele>
        <time>2026-03-23T12:04:57Z</time>
      </trkpt>
      <trkpt lat="44.74543" lon="6.87422">
        <ele>2770.5</ele>
        <time>2026-03-23T12:04:58Z</time>
      </trkpt>
      <trkpt lat="44.74543" lon="6.87423">
        <ele>2770.5</ele>
        <time>2026-03-23T12:04:59Z</time>
      </trkpt>
      <trkpt lat="44.74543" lon="6.87423">
        <ele>2770.5</ele>
        <time>2026-03-23T12:05:00Z</time>
      </trkpt>
      <trkpt lat="44.74543" lon="6.87422">
        <ele>2770.6</ele>
        <time>2026-03-23T12:05:01Z</time>
      </trkpt>
      <trkpt lat="44.74543" lon="6.87422">
        <ele>2770.6</ele>
        <time>2026-03-23T12:05:02Z</time>
      </trkpt>
      <trkpt lat="44.74543" lon="6.87421">
        <ele>2770.6</ele>
        <time>2026-03-23T12:05:03Z</time>
      </trkpt>
      <trkpt lat="44.74543" lon="6.87421">
        <ele>2770.6</ele>
        <time>2026-03-23T12:05:04Z</time>
      </trkpt>
      <trkpt lat="44.74543" lon="6.87421">
        <ele>2770.6</ele>
        <time>2026-03-23T12:05:05Z</time>
      </trkpt>
      <trkpt lat="44.74543" lon="6.87421">
        <ele>2770.6</ele>
        <time>2026-03-23T12:05:06Z</time>
      </trkpt>
      <trkpt lat="44.74543" lon="6.87421">
        <ele>2770.6</ele>
        <time>2026-03-23T12:05:07Z</time>
      </trkpt>
      <trkpt lat="44.74543" lon="6.87421">
        <ele>2770.6</ele>
        <time>2026-03-23T12:05:08Z</time>
      </trkpt>
      <trkpt lat="44.74543" lon="6.87421">
        <ele>2770.6</ele>
        <time>2026-03-23T12:05:09Z</time>
      </trkpt>
      <trkpt lat="44.74543" lon="6.87421">
        <ele>2770.6</ele>
        <time>2026-03-23T12:05:10Z</time>
      </trkpt>
      <trkpt lat="44.74543" lon="6.87421">
        <ele>2770.6</ele>
        <time>2026-03-23T12:05:11Z</time>
      </trkpt>
      <trkpt lat="44.74543" lon="6.87421">
        <ele>2770.6</ele>
        <time>2026-03-23T12:05:12Z</time>
      </trkpt>
      <trkpt lat="44.74543" lon="6.87421">
        <ele>2770.6</ele>
        <time>2026-03-23T12:05:13Z</time>
      </trkpt>
      <trkpt lat="44.74543" lon="6.87422">
        <ele>2770.6</ele>
        <time>2026-03-23T12:05:14Z</time>
      </trkpt>
      <trkpt lat="44.74543" lon="6.87422">
        <ele>2770.6</ele>
        <time>2026-03-23T12:05:15Z</time>
      </trkpt>
      <trkpt lat="44.74543" lon="6.87422">
        <ele>2770.6</ele>
        <time>2026-03-23T12:05:16Z</time>
      </trkpt>
      <trkpt lat="44.74543" lon="6.87422">
        <ele>2770.6</ele>
        <time>2026-03-23T12:05:17Z</time>
      </trkpt>
      <trkpt lat="44.74543" lon="6.87423">
        <ele>2770.6</ele>
        <time>2026-03-23T12:05:18Z</time>
      </trkpt>
      <trkpt lat="44.74543" lon="6.87423">
        <ele>2770.6</ele>
        <time>2026-03-23T12:05:19Z</time>
      </trkpt>
      <trkpt lat="44.74543" lon="6.87423">
        <ele>2770.6</ele>
        <time>2026-03-23T12:05:20Z</time>
      </trkpt>
      <trkpt lat="44.74542" lon="6.87424">
        <ele>2770.6</ele>
        <time>2026-03-23T12:05:21Z</time>
      </trkpt>
      <trkpt lat="44.74542" lon="6.87424">
        <ele>2770.6</ele>
        <time>2026-03-23T12:05:22Z</time>
      </trkpt>
      <trkpt lat="44.74543" lon="6.87424">
        <ele>2770.6</ele>
        <time>2026-03-23T12:05:23Z</time>
      </trkpt>
      <trkpt lat="44.74543" lon="6.87425">
        <ele>2770.6</ele>
        <time>2026-03-23T12:05:24Z</time>
      </trkpt>
      <trkpt lat="44.74543" lon="6.87425">
        <ele>2770.6</ele>
        <time>2026-03-23T12:05:25Z</time>
      </trkpt>
      <trkpt lat="44.74543" lon="6.87425">
        <ele>2770.6</ele>
        <time>2026-03-23T12:05:26Z</time>
      </trkpt>
      <trkpt lat="44.74543" lon="6.87426">
        <ele>2770.6</ele>
        <time>2026-03-23T12:05:27Z</time>
      </trkpt>
      <trkpt lat="44.74544" lon="6.87426">
        <ele>2770.6</ele>
        <time>2026-03-23T12:05:28Z</time>
      </trkpt>
      <trkpt lat="44.74544" lon="6.87426">
        <ele>2770.7</ele>
        <time>2026-03-23T12:05:29Z</time>
      </trkpt>
      <trkpt lat="44.74544" lon="6.87426">
        <ele>2770.7</ele>
        <time>2026-03-23T12:05:30Z</time>
      </trkpt>
      <trkpt lat="44.74544" lon="6.87426">
        <ele>2770.7</ele>
        <time>2026-03-23T12:05:31Z</time>
      </trkpt>
      <trkpt lat="44.74544" lon="6.87426">
        <ele>2770.7</ele>
        <time>2026-03-23T12:05:32Z</time>
      </trkpt>
      <trkpt lat="44.74544" lon="6.87426">
        <ele>2770.7</ele>
        <time>2026-03-23T12:05:33Z</time>
      </trkpt>
      <trkpt lat="44.74544" lon="6.87426">
        <ele>2770.7</ele>
        <time>2026-03-23T12:05:34Z</time>
      </trkpt>
      <trkpt lat="44.74544" lon="6.87426">
        <ele>2770.7</ele>
        <time>2026-03-23T12:05:35Z</time>
      </trkpt>
      <trkpt lat="44.74544" lon="6.87426">
        <ele>2770.7</ele>
        <time>2026-03-23T12:05:36Z</time>
      </trkpt>
      <trkpt lat="44.74544" lon="6.87426">
        <ele>2770.7</ele>
        <time>2026-03-23T12:05:37Z</time>
      </trkpt>
      <trkpt lat="44.74544" lon="6.87426">
        <ele>2770.7</ele>
        <time>2026-03-23T12:05:38Z</time>
      </trkpt>
      <trkpt lat="44.74544" lon="6.87426">
        <ele>2770.7</ele>
        <time>2026-03-23T12:05:39Z</time>
      </trkpt>
      <trkpt lat="44.74544" lon="6.87426">
        <ele>2770.7</ele>
        <time>2026-03-23T12:05:40Z</time>
      </trkpt>
      <trkpt lat="44.74544" lon="6.87426">
        <ele>2770.7</ele>
        <time>2026-03-23T12:05:41Z</time>
      </trkpt>
      <trkpt lat="44.74544" lon="6.87426">
        <ele>2770.7</ele>
        <time>2026-03-23T12:05:42Z</time>
      </trkpt>
      <trkpt lat="44.74545" lon="6.87426">
        <ele>2770.7</ele>
        <time>2026-03-23T12:05:43Z</time>
      </trkpt>
      <trkpt lat="44.74545" lon="6.87426">
        <ele>2770.7</ele>
        <time>2026-03-23T12:05:44Z</time>
      </trkpt>
      <trkpt lat="44.74545" lon="6.87426">
        <ele>2770.7</ele>
        <time>2026-03-23T12:05:45Z</time>
      </trkpt>
      <trkpt lat="44.74545" lon="6.87426">
        <ele>2770.7</ele>
        <time>2026-03-23T12:05:46Z</time>
      </trkpt>
      <trkpt lat="44.74545" lon="6.87426">
        <ele>2770.7</ele>
        <time>2026-03-23T12:05:47Z</time>
      </trkpt>
      <trkpt lat="44.74545" lon="6.87427">
        <ele>2770.7</ele>
        <time>2026-03-23T12:05:48Z</time>
      </trkpt>
      <trkpt lat="44.74545" lon="6.87427">
        <ele>2770.7</ele>
        <time>2026-03-23T12:05:49Z</time>
      </trkpt>
      <trkpt lat="44.74545" lon="6.87427">
        <ele>2770.7</ele>
        <time>2026-03-23T12:05:50Z</time>
      </trkpt>
      <trkpt lat="44.74545" lon="6.87427">
        <ele>2770.7</ele>
        <time>2026-03-23T12:05:51Z</time>
      </trkpt>
      <trkpt lat="44.74545" lon="6.87427">
        <ele>2770.7</ele>
        <time>2026-03-23T12:05:52Z</time>
      </trkpt>
      <trkpt lat="44.74545" lon="6.87427">
        <ele>2770.7</ele>
        <time>2026-03-23T12:05:53Z</time>
      </trkpt>
      <trkpt lat="44.74545" lon="6.87427">
        <ele>2770.7</ele>
        <time>2026-03-23T12:05:54Z</time>
      </trkpt>
      <trkpt lat="44.74545" lon="6.87427">
        <ele>2770.7</ele>
        <time>2026-03-23T12:05:55Z</time>
      </trkpt>
      <trkpt lat="44.74545" lon="6.87427">
        <ele>2770.7</ele>
        <time>2026-03-23T12:05:56Z</time>
      </trkpt>
      <trkpt lat="44.74545" lon="6.87427">
        <ele>2770.7</ele>
        <time>2026-03-23T12:05:57Z</time>
      </trkpt>
      <trkpt lat="44.74545" lon="6.87426">
        <ele>2770.7</ele>
        <time>2026-03-23T12:05:58Z</time>
      </trkpt>
      <trkpt lat="44.74545" lon="6.87426">
        <ele>2770.7</ele>
        <time>2026-03-23T12:05:59Z</time>
      </trkpt>
      <trkpt lat="44.74545" lon="6.87426">
        <ele>2770.7</ele>
        <time>2026-03-23T12:06:00Z</time>
      </trkpt>
      <trkpt lat="44.74546" lon="6.87426">
        <ele>2770.7</ele>
        <time>2026-03-23T12:06:01Z</time>
      </trkpt>
      <trkpt lat="44.74546" lon="6.87426">
        <ele>2770.7</ele>
        <time>2026-03-23T12:06:02Z</time>
      </trkpt>
      <trkpt lat="44.74546" lon="6.87426">
        <ele>2770.7</ele>
        <time>2026-03-23T12:06:03Z</time>
      </trkpt>
      <trkpt lat="44.74546" lon="6.87426">
        <ele>2770.7</ele>
        <time>2026-03-23T12:06:04Z</time>
      </trkpt>
      <trkpt lat="44.74546" lon="6.87426">
        <ele>2770.7</ele>
        <time>2026-03-23T12:06:05Z</time>
      </trkpt>
      <trkpt lat="44.74546" lon="6.87426">
        <ele>2770.7</ele>
        <time>2026-03-23T12:06:06Z</time>
      </trkpt>
      <trkpt lat="44.74546" lon="6.87426">
        <ele>2770.7</ele>
        <time>2026-03-23T12:06:07Z</time>
      </trkpt>
      <trkpt lat="44.74546" lon="6.87426">
        <ele>2770.7</ele>
        <time>2026-03-23T12:06:08Z</time>
      </trkpt>
      <trkpt lat="44.74546" lon="6.87426">
        <ele>2770.7</ele>
        <time>2026-03-23T12:06:09Z</time>
      </trkpt>
      <trkpt lat="44.74546" lon="6.87426">
        <ele>2770.7</ele>
        <time>2026-03-23T12:06:10Z</time>
      </trkpt>
      <trkpt lat="44.74546" lon="6.87426">
        <ele>2770.7</ele>
        <time>2026-03-23T12:06:11Z</time>
      </trkpt>
      <trkpt lat="44.74546" lon="6.87426">
        <ele>2770.7</ele>
        <time>2026-03-23T12:06:12Z</time>
      </trkpt>
      <trkpt lat="44.74546" lon="6.87426">
        <ele>2770.7</ele>
        <time>2026-03-23T12:06:13Z</time>
      </trkpt>
      <trkpt lat="44.74546" lon="6.87426">
        <ele>2770.7</ele>
        <time>2026-03-23T12:06:14Z</time>
      </trkpt>
      <trkpt lat="44.74546" lon="6.87426">
        <ele>2770.7</ele>
        <time>2026-03-23T12:06:15Z</time>
      </trkpt>
      <trkpt lat="44.74546" lon="6.87426">
        <ele>2770.7</ele>
        <time>2026-03-23T12:06:16Z</time>
      </trkpt>
      <trkpt lat="44.74546" lon="6.87427">
        <ele>2770.7</ele>
        <time>2026-03-23T12:06:17Z</time>
      </trkpt>
      <trkpt lat="44.74546" lon="6.87427">
        <ele>2770.7</ele>
        <time>2026-03-23T12:06:18Z</time>
      </trkpt>
      <trkpt lat="44.74546" lon="6.87427">
        <ele>2770.7</ele>
        <time>2026-03-23T12:06:19Z</time>
      </trkpt>
      <trkpt lat="44.74546" lon="6.87427">
        <ele>2770.7</ele>
        <time>2026-03-23T12:06:20Z</time>
      </trkpt>
      <trkpt lat="44.74546" lon="6.87427">
        <ele>2770.7</ele>
        <time>2026-03-23T12:06:21Z</time>
      </trkpt>
      <trkpt lat="44.74546" lon="6.87427">
        <ele>2770.7</ele>
        <time>2026-03-23T12:06:22Z</time>
      </trkpt>
      <trkpt lat="44.74546" lon="6.87427">
        <ele>2770.7</ele>
        <time>2026-03-23T12:06:23Z</time>
      </trkpt>
      <trkpt lat="44.74546" lon="6.87427">
        <ele>2770.7</ele>
        <time>2026-03-23T12:06:24Z</time>
      </trkpt>
      <trkpt lat="44.74546" lon="6.87427">
        <ele>2770.7</ele>
        <time>2026-03-23T12:06:25Z</time>
      </trkpt>
      <trkpt lat="44.74546" lon="6.87427">
        <ele>2770.7</ele>
        <time>2026-03-23T12:06:26Z</time>
      </trkpt>
      <trkpt lat="44.74546" lon="6.87426">
        <ele>2770.7</ele>
        <time>2026-03-23T12:06:27Z</time>
      </trkpt>
      <trkpt lat="44.74546" lon="6.87426">
        <ele>2770.7</ele>
        <time>2026-03-23T12:06:28Z</time>
      </trkpt>
      <trkpt lat="44.74546" lon="6.87426">
        <ele>2770.7</ele>
        <time>2026-03-23T12:06:29Z</time>
      </trkpt>
      <trkpt lat="44.74546" lon="6.87426">
        <ele>2770.7</ele>
        <time>2026-03-23T12:06:30Z</time>
      </trkpt>
      <trkpt lat="44.74546" lon="6.87426">
        <ele>2770.7</ele>
        <time>2026-03-23T12:06:31Z</time>
      </trkpt>
      <trkpt lat="44.74546" lon="6.87426">
        <ele>2770.7</ele>
        <time>2026-03-23T12:06:32Z</time>
      </trkpt>
      <trkpt lat="44.74546" lon="6.87426">
        <ele>2770.7</ele>
        <time>2026-03-23T12:06:33Z</time>
      </trkpt>
      <trkpt lat="44.74546" lon="6.87426">
        <ele>2770.7</ele>
        <time>2026-03-23T12:06:34Z</time>
      </trkpt>
      <trkpt lat="44.74546" lon="6.87426">
        <ele>2770.7</ele>
        <time>2026-03-23T12:06:35Z</time>
      </trkpt>
      <trkpt lat="44.74546" lon="6.87426">
        <ele>2770.7</ele>
        <time>2026-03-23T12:06:36Z</time>
      </trkpt>
      <trkpt lat="44.74545" lon="6.87426">
        <ele>2770.7</ele>
        <time>2026-03-23T12:06:37Z</time>
      </trkpt>
      <trkpt lat="44.74545" lon="6.87427">
        <ele>2770.7</ele>
        <time>2026-03-23T12:06:38Z</time>
      </trkpt>
      <trkpt lat="44.74545" lon="6.87427">
        <ele>2770.7</ele>
        <time>2026-03-23T12:06:39Z</time>
      </trkpt>
      <trkpt lat="44.74545" lon="6.87427">
        <ele>2770.7</ele>
        <time>2026-03-23T12:06:40Z</time>
      </trkpt>
      <trkpt lat="44.74545" lon="6.87427">
        <ele>2770.7</ele>
        <time>2026-03-23T12:06:41Z</time>
      </trkpt>
      <trkpt lat="44.74545" lon="6.87427">
        <ele>2770.7</ele>
        <time>2026-03-23T12:06:42Z</time>
      </trkpt>
      <trkpt lat="44.74545" lon="6.87427">
        <ele>2770.7</ele>
        <time>2026-03-23T12:06:43Z</time>
      </trkpt>
      <trkpt lat="44.74545" lon="6.87426">
        <ele>2770.7</ele>
        <time>2026-03-23T12:06:44Z</time>
      </trkpt>
      <trkpt lat="44.74545" lon="6.87426">
        <ele>2770.7</ele>
        <time>2026-03-23T12:06:45Z</time>
      </trkpt>
      <trkpt lat="44.74545" lon="6.87426">
        <ele>2770.7</ele>
        <time>2026-03-23T12:06:46Z</time>
      </trkpt>
      <trkpt lat="44.74545" lon="6.87426">
        <ele>2770.7</ele>
        <time>2026-03-23T12:06:47Z</time>
      </trkpt>
      <trkpt lat="44.74545" lon="6.87426">
        <ele>2770.7</ele>
        <time>2026-03-23T12:06:48Z</time>
      </trkpt>
      <trkpt lat="44.74545" lon="6.87426">
        <ele>2770.7</ele>
        <time>2026-03-23T12:06:49Z</time>
      </trkpt>
      <trkpt lat="44.74545" lon="6.87426">
        <ele>2770.7</ele>
        <time>2026-03-23T12:06:50Z</time>
      </trkpt>
      <trkpt lat="44.74545" lon="6.87426">
        <ele>2770.7</ele>
        <time>2026-03-23T12:06:51Z</time>
      </trkpt>
      <trkpt lat="44.74545" lon="6.87426">
        <ele>2770.7</ele>
        <time>2026-03-23T12:06:52Z</time>
      </trkpt>
      <trkpt lat="44.74545" lon="6.87426">
        <ele>2770.7</ele>
        <time>2026-03-23T12:06:53Z</time>
      </trkpt>
      <trkpt lat="44.74545" lon="6.87426">
        <ele>2770.7</ele>
        <time>2026-03-23T12:06:54Z</time>
      </trkpt>
      <trkpt lat="44.74545" lon="6.87426">
        <ele>2770.7</ele>
        <time>2026-03-23T12:06:55Z</time>
      </trkpt>
      <trkpt lat="44.74545" lon="6.87426">
        <ele>2770.7</ele>
        <time>2026-03-23T12:06:56Z</time>
      </trkpt>
      <trkpt lat="44.74545" lon="6.87426">
        <ele>2770.7</ele>
        <time>2026-03-23T12:06:57Z</time>
      </trkpt>
      <trkpt lat="44.74545" lon="6.87426">
        <ele>2770.7</ele>
        <time>2026-03-23T12:06:58Z</time>
      </trkpt>
      <trkpt lat="44.74546" lon="6.87426">
        <ele>2770.7</ele>
        <time>2026-03-23T12:06:59Z</time>
      </trkpt>
      <trkpt lat="44.74546" lon="6.87426">
        <ele>2770.7</ele>
        <time>2026-03-23T12:07:00Z</time>
      </trkpt>
      <trkpt lat="44.74546" lon="6.87426">
        <ele>2770.7</ele>
        <time>2026-03-23T12:07:01Z</time>
      </trkpt>
      <trkpt lat="44.74546" lon="6.87426">
        <ele>2770.7</ele>
        <time>2026-03-23T12:07:02Z</time>
      </trkpt>
      <trkpt lat="44.74545" lon="6.87426">
        <ele>2770.7</ele>
        <time>2026-03-23T12:07:03Z</time>
      </trkpt>
      <trkpt lat="44.74545" lon="6.87426">
        <ele>2770.7</ele>
        <time>2026-03-23T12:07:04Z</time>
      </trkpt>
      <trkpt lat="44.74545" lon="6.87426">
        <ele>2770.7</ele>
        <time>2026-03-23T12:07:05Z</time>
      </trkpt>
      <trkpt lat="44.74545" lon="6.87426">
        <ele>2770.7</ele>
        <time>2026-03-23T12:07:06Z</time>
      </trkpt>
      <trkpt lat="44.74545" lon="6.87426">
        <ele>2770.8</ele>
        <time>2026-03-23T12:07:07Z</time>
      </trkpt>
      <trkpt lat="44.74545" lon="6.87426">
        <ele>2770.8</ele>
        <time>2026-03-23T12:07:08Z</time>
      </trkpt>
      <trkpt lat="44.74545" lon="6.87426">
        <ele>2770.8</ele>
        <time>2026-03-23T12:07:09Z</time>
      </trkpt>
      <trkpt lat="44.74545" lon="6.87426">
        <ele>2770.8</ele>
        <time>2026-03-23T12:07:10Z</time>
      </trkpt>
      <trkpt lat="44.74545" lon="6.87426">
        <ele>2770.8</ele>
        <time>2026-03-23T12:07:11Z</time>
      </trkpt>
      <trkpt lat="44.74545" lon="6.87426">
        <ele>2770.8</ele>
        <time>2026-03-23T12:07:12Z</time>
      </trkpt>
      <trkpt lat="44.74545" lon="6.87426">
        <ele>2770.8</ele>
        <time>2026-03-23T12:07:13Z</time>
      </trkpt>
      <trkpt lat="44.74545" lon="6.87426">
        <ele>2770.8</ele>
        <time>2026-03-23T12:07:14Z</time>
      </trkpt>
      <trkpt lat="44.74545" lon="6.87426">
        <ele>2770.8</ele>
        <time>2026-03-23T12:07:15Z</time>
      </trkpt>
      <trkpt lat="44.74545" lon="6.87426">
        <ele>2770.8</ele>
        <time>2026-03-23T12:07:16Z</time>
      </trkpt>
      <trkpt lat="44.74545" lon="6.87426">
        <ele>2770.8</ele>
        <time>2026-03-23T12:07:17Z</time>
      </trkpt>
      <trkpt lat="44.74545" lon="6.87426">
        <ele>2770.8</ele>
        <time>2026-03-23T12:07:18Z</time>
      </trkpt>
      <trkpt lat="44.74545" lon="6.87426">
        <ele>2770.8</ele>
        <time>2026-03-23T12:07:19Z</time>
      </trkpt>
      <trkpt lat="44.74545" lon="6.87426">
        <ele>2770.8</ele>
        <time>2026-03-23T12:07:20Z</time>
      </trkpt>
      <trkpt lat="44.74545" lon="6.87426">
        <ele>2770.8</ele>
        <time>2026-03-23T12:07:21Z</time>
      </trkpt>
      <trkpt lat="44.74545" lon="6.87426">
        <ele>2770.8</ele>
        <time>2026-03-23T12:07:22Z</time>
      </trkpt>
      <trkpt lat="44.74545" lon="6.87426">
        <ele>2770.8</ele>
        <time>2026-03-23T12:07:23Z</time>
      </trkpt>
      <trkpt lat="44.74545" lon="6.87426">
        <ele>2770.8</ele>
        <time>2026-03-23T12:07:24Z</time>
      </trkpt>
      <trkpt lat="44.74545" lon="6.87426">
        <ele>2770.8</ele>
        <time>2026-03-23T12:07:25Z</time>
      </trkpt>
      <trkpt lat="44.74545" lon="6.87426">
        <ele>2770.8</ele>
        <time>2026-03-23T12:07:26Z</time>
      </trkpt>
      <trkpt lat="44.74545" lon="6.87426">
        <ele>2770.8</ele>
        <time>2026-03-23T12:07:27Z</time>
      </trkpt>
      <trkpt lat="44.74545" lon="6.87426">
        <ele>2770.8</ele>
        <time>2026-03-23T12:07:28Z</time>
      </trkpt>
      <trkpt lat="44.74545" lon="6.87426">
        <ele>2770.8</ele>
        <time>2026-03-23T12:07:29Z</time>
      </trkpt>
      <trkpt lat="44.74545" lon="6.87426">
        <ele>2770.8</ele>
        <time>2026-03-23T12:07:30Z</time>
      </trkpt>
      <trkpt lat="44.74545" lon="6.87426">
        <ele>2770.8</ele>
        <time>2026-03-23T12:07:31Z</time>
      </trkpt>
      <trkpt lat="44.74545" lon="6.87426">
        <ele>2770.8</ele>
        <time>2026-03-23T12:07:32Z</time>
      </trkpt>
      <trkpt lat="44.74545" lon="6.87426">
        <ele>2770.8</ele>
        <time>2026-03-23T12:07:33Z</time>
      </trkpt>
      <trkpt lat="44.74545" lon="6.87426">
        <ele>2770.8</ele>
        <time>2026-03-23T12:07:34Z</time>
      </trkpt>
      <trkpt lat="44.74545" lon="6.87426">
        <ele>2770.8</ele>
        <time>2026-03-23T12:07:35Z</time>
      </trkpt>
      <trkpt lat="44.74545" lon="6.87426">
        <ele>2770.8</ele>
        <time>2026-03-23T12:07:36Z</time>
      </trkpt>
      <trkpt lat="44.74545" lon="6.87426">
        <ele>2770.8</ele>
        <time>2026-03-23T12:07:37Z</time>
      </trkpt>
      <trkpt lat="44.74545" lon="6.87426">
        <ele>2770.8</ele>
        <time>2026-03-23T12:07:38Z</time>
      </trkpt>
      <trkpt lat="44.74545" lon="6.87426">
        <ele>2770.8</ele>
        <time>2026-03-23T12:07:39Z</time>
      </trkpt>
      <trkpt lat="44.74545" lon="6.87426">
        <ele>2770.8</ele>
        <time>2026-03-23T12:07:40Z</time>
      </trkpt>
      <trkpt lat="44.74545" lon="6.87426">
        <ele>2770.8</ele>
        <time>2026-03-23T12:07:41Z</time>
      </trkpt>
      <trkpt lat="44.74545" lon="6.87426">
        <ele>2770.8</ele>
        <time>2026-03-23T12:07:42Z</time>
      </trkpt>
      <trkpt lat="44.74545" lon="6.87426">
        <ele>2770.8</ele>
        <time>2026-03-23T12:07:43Z</time>
      </trkpt>
      <trkpt lat="44.74545" lon="6.87426">
        <ele>2770.8</ele>
        <time>2026-03-23T12:07:44Z</time>
      </trkpt>
      <trkpt lat="44.74545" lon="6.87426">
        <ele>2770.8</ele>
        <time>2026-03-23T12:07:45Z</time>
      </trkpt>
      <trkpt lat="44.74545" lon="6.87426">
        <ele>2770.8</ele>
        <time>2026-03-23T12:07:46Z</time>
      </trkpt>
      <trkpt lat="44.74545" lon="6.87426">
        <ele>2770.8</ele>
        <time>2026-03-23T12:07:47Z</time>
      </trkpt>
      <trkpt lat="44.74545" lon="6.87426">
        <ele>2770.8</ele>
        <time>2026-03-23T12:07:48Z</time>
      </trkpt>
      <trkpt lat="44.74545" lon="6.87426">
        <ele>2770.8</ele>
        <time>2026-03-23T12:07:49Z</time>
      </trkpt>
      <trkpt lat="44.74545" lon="6.87426">
        <ele>2770.8</ele>
        <time>2026-03-23T12:07:50Z</time>
      </trkpt>
      <trkpt lat="44.74545" lon="6.87426">
        <ele>2770.8</ele>
        <time>2026-03-23T12:07:51Z</time>
      </trkpt>
      <trkpt lat="44.74545" lon="6.87426">
        <ele>2770.8</ele>
        <time>2026-03-23T12:07:52Z</time>
      </trkpt>
      <trkpt lat="44.74545" lon="6.87426">
        <ele>2770.8</ele>
        <time>2026-03-23T12:07:53Z</time>
      </trkpt>
      <trkpt lat="44.74545" lon="6.87426">
        <ele>2770.8</ele>
        <time>2026-03-23T12:07:54Z</time>
      </trkpt>
      <trkpt lat="44.74545" lon="6.87426">
        <ele>2770.8</ele>
        <time>2026-03-23T12:07:55Z</time>
      </trkpt>
      <trkpt lat="44.74545" lon="6.87426">
        <ele>2770.8</ele>
        <time>2026-03-23T12:07:56Z</time>
      </trkpt>
      <trkpt lat="44.74545" lon="6.87426">
        <ele>2770.8</ele>
        <time>2026-03-23T12:07:57Z</time>
      </trkpt>
      <trkpt lat="44.74545" lon="6.87426">
        <ele>2770.8</ele>
        <time>2026-03-23T12:07:58Z</time>
      </trkpt>
      <trkpt lat="44.74545" lon="6.87426">
        <ele>2770.8</ele>
        <time>2026-03-23T12:07:59Z</time>
      </trkpt>
      <trkpt lat="44.74545" lon="6.87426">
        <ele>2770.8</ele>
        <time>2026-03-23T12:08:00Z</time>
      </trkpt>
      <trkpt lat="44.74545" lon="6.87426">
        <ele>2770.8</ele>
        <time>2026-03-23T12:08:01Z</time>
      </trkpt>
      <trkpt lat="44.74545" lon="6.87426">
        <ele>2770.8</ele>
        <time>2026-03-23T12:08:02Z</time>
      </trkpt>
      <trkpt lat="44.74545" lon="6.87426">
        <ele>2770.8</ele>
        <time>2026-03-23T12:08:03Z</time>
      </trkpt>
      <trkpt lat="44.74545" lon="6.87426">
        <ele>2770.8</ele>
        <time>2026-03-23T12:08:04Z</time>
      </trkpt>
      <trkpt lat="44.74545" lon="6.87426">
        <ele>2770.8</ele>
        <time>2026-03-23T12:08:05Z</time>
      </trkpt>
      <trkpt lat="44.74545" lon="6.87426">
        <ele>2770.8</ele>
        <time>2026-03-23T12:08:06Z</time>
      </trkpt>
      <trkpt lat="44.74545" lon="6.87426">
        <ele>2770.8</ele>
        <time>2026-03-23T12:08:07Z</time>
      </trkpt>
      <trkpt lat="44.74545" lon="6.87426">
        <ele>2770.8</ele>
        <time>2026-03-23T12:08:08Z</time>
      </trkpt>
      <trkpt lat="44.74545" lon="6.87426">
        <ele>2770.8</ele>
        <time>2026-03-23T12:08:09Z</time>
      </trkpt>
      <trkpt lat="44.74545" lon="6.87426">
        <ele>2770.8</ele>
        <time>2026-03-23T12:08:10Z</time>
      </trkpt>
      <trkpt lat="44.74545" lon="6.87426">
        <ele>2770.8</ele>
        <time>2026-03-23T12:08:11Z</time>
      </trkpt>
      <trkpt lat="44.74545" lon="6.87426">
        <ele>2770.8</ele>
        <time>2026-03-23T12:08:12Z</time>
      </trkpt>
      <trkpt lat="44.74545" lon="6.87426">
        <ele>2770.8</ele>
        <time>2026-03-23T12:08:13Z</time>
      </trkpt>
      <trkpt lat="44.74545" lon="6.87426">
        <ele>2770.8</ele>
        <time>2026-03-23T12:08:14Z</time>
      </trkpt>
      <trkpt lat="44.74545" lon="6.87426">
        <ele>2770.8</ele>
        <time>2026-03-23T12:08:15Z</time>
      </trkpt>
      <trkpt lat="44.74545" lon="6.87426">
        <ele>2770.8</ele>
        <time>2026-03-23T12:08:16Z</time>
      </trkpt>
      <trkpt lat="44.74545" lon="6.87426">
        <ele>2770.8</ele>
        <time>2026-03-23T12:08:17Z</time>
      </trkpt>
      <trkpt lat="44.74545" lon="6.87426">
        <ele>2770.8</ele>
        <time>2026-03-23T12:08:18Z</time>
      </trkpt>
      <trkpt lat="44.74545" lon="6.87426">
        <ele>2770.8</ele>
        <time>2026-03-23T12:08:19Z</time>
      </trkpt>
      <trkpt lat="44.74545" lon="6.87426">
        <ele>2770.8</ele>
        <time>2026-03-23T12:08:20Z</time>
      </trkpt>
      <trkpt lat="44.74545" lon="6.87426">
        <ele>2770.8</ele>
        <time>2026-03-23T12:08:21Z</time>
      </trkpt>
      <trkpt lat="44.74545" lon="6.87426">
        <ele>2770.8</ele>
        <time>2026-03-23T12:08:22Z</time>
      </trkpt>
      <trkpt lat="44.74545" lon="6.87426">
        <ele>2770.8</ele>
        <time>2026-03-23T12:08:23Z</time>
      </trkpt>
      <trkpt lat="44.74545" lon="6.87426">
        <ele>2770.8</ele>
        <time>2026-03-23T12:08:24Z</time>
      </trkpt>
      <trkpt lat="44.74545" lon="6.87426">
        <ele>2770.8</ele>
        <time>2026-03-23T12:08:25Z</time>
      </trkpt>
      <trkpt lat="44.74545" lon="6.87426">
        <ele>2770.8</ele>
        <time>2026-03-23T12:08:26Z</time>
      </trkpt>
      <trkpt lat="44.74546" lon="6.87426">
        <ele>2770.8</ele>
        <time>2026-03-23T12:08:27Z</time>
      </trkpt>
      <trkpt lat="44.74546" lon="6.87426">
        <ele>2770.8</ele>
        <time>2026-03-23T12:08:28Z</time>
      </trkpt>
      <trkpt lat="44.74546" lon="6.87426">
        <ele>2770.8</ele>
        <time>2026-03-23T12:08:29Z</time>
      </trkpt>
      <trkpt lat="44.74546" lon="6.87426">
        <ele>2770.8</ele>
        <time>2026-03-23T12:08:30Z</time>
      </trkpt>
      <trkpt lat="44.74546" lon="6.87426">
        <ele>2770.8</ele>
        <time>2026-03-23T12:08:31Z</time>
      </trkpt>
      <trkpt lat="44.74546" lon="6.87426">
        <ele>2770.8</ele>
        <time>2026-03-23T12:08:32Z</time>
      </trkpt>
      <trkpt lat="44.74546" lon="6.87426">
        <ele>2770.8</ele>
        <time>2026-03-23T12:08:33Z</time>
      </trkpt>
      <trkpt lat="44.74546" lon="6.87426">
        <ele>2770.8</ele>
        <time>2026-03-23T12:08:34Z</time>
      </trkpt>
      <trkpt lat="44.74546" lon="6.87426">
        <ele>2770.8</ele>
        <time>2026-03-23T12:08:35Z</time>
      </trkpt>
      <trkpt lat="44.74546" lon="6.87426">
        <ele>2770.8</ele>
        <time>2026-03-23T12:08:36Z</time>
      </trkpt>
      <trkpt lat="44.74546" lon="6.87426">
        <ele>2770.8</ele>
        <time>2026-03-23T12:08:37Z</time>
      </trkpt>
      <trkpt lat="44.74546" lon="6.87426">
        <ele>2770.8</ele>
        <time>2026-03-23T12:08:38Z</time>
      </trkpt>
      <trkpt lat="44.74546" lon="6.87426">
        <ele>2770.8</ele>
        <time>2026-03-23T12:08:39Z</time>
      </trkpt>
      <trkpt lat="44.74545" lon="6.87426">
        <ele>2770.8</ele>
        <time>2026-03-23T12:08:40Z</time>
      </trkpt>
      <trkpt lat="44.74545" lon="6.87426">
        <ele>2770.8</ele>
        <time>2026-03-23T12:08:41Z</time>
      </trkpt>
      <trkpt lat="44.74545" lon="6.87426">
        <ele>2770.8</ele>
        <time>2026-03-23T12:08:42Z</time>
      </trkpt>
      <trkpt lat="44.74545" lon="6.87426">
        <ele>2770.8</ele>
        <time>2026-03-23T12:08:43Z</time>
      </trkpt>
      <trkpt lat="44.74545" lon="6.87426">
        <ele>2770.8</ele>
        <time>2026-03-23T12:08:44Z</time>
      </trkpt>
      <trkpt lat="44.74545" lon="6.87426">
        <ele>2770.8</ele>
        <time>2026-03-23T12:08:45Z</time>
      </trkpt>
      <trkpt lat="44.74545" lon="6.87426">
        <ele>2770.8</ele>
        <time>2026-03-23T12:08:46Z</time>
      </trkpt>
      <trkpt lat="44.74545" lon="6.87426">
        <ele>2770.8</ele>
        <time>2026-03-23T12:08:47Z</time>
      </trkpt>
      <trkpt lat="44.74545" lon="6.87426">
        <ele>2770.8</ele>
        <time>2026-03-23T12:08:48Z</time>
      </trkpt>
      <trkpt lat="44.74545" lon="6.87426">
        <ele>2770.8</ele>
        <time>2026-03-23T12:08:49Z</time>
      </trkpt>
      <trkpt lat="44.74545" lon="6.87426">
        <ele>2770.8</ele>
        <time>2026-03-23T12:08:50Z</time>
      </trkpt>
      <trkpt lat="44.74546" lon="6.87426">
        <ele>2770.8</ele>
        <time>2026-03-23T12:08:51Z</time>
      </trkpt>
      <trkpt lat="44.74546" lon="6.87425">
        <ele>2770.8</ele>
        <time>2026-03-23T12:08:52Z</time>
      </trkpt>
      <trkpt lat="44.74546" lon="6.87424">
        <ele>2770.8</ele>
        <time>2026-03-23T12:08:53Z</time>
      </trkpt>
      <trkpt lat="44.74547" lon="6.87423">
        <ele>2770.8</ele>
        <time>2026-03-23T12:08:54Z</time>
      </trkpt>
      <trkpt lat="44.74547" lon="6.87423">
        <ele>2770.8</ele>
        <time>2026-03-23T12:08:55Z</time>
      </trkpt>
      <trkpt lat="44.74547" lon="6.87423">
        <ele>2770.8</ele>
        <time>2026-03-23T12:08:56Z</time>
      </trkpt>
      <trkpt lat="44.74547" lon="6.87423">
        <ele>2770.8</ele>
        <time>2026-03-23T12:08:57Z</time>
      </trkpt>
      <trkpt lat="44.74547" lon="6.87423">
        <ele>2770.8</ele>
        <time>2026-03-23T12:08:58Z</time>
      </trkpt>
      <trkpt lat="44.74547" lon="6.87423">
        <ele>2770.8</ele>
        <time>2026-03-23T12:08:59Z</time>
      </trkpt>
      <trkpt lat="44.74547" lon="6.87423">
        <ele>2770.8</ele>
        <time>2026-03-23T12:09:00Z</time>
      </trkpt>
      <trkpt lat="44.74547" lon="6.87423">
        <ele>2770.8</ele>
        <time>2026-03-23T12:09:01Z</time>
      </trkpt>
      <trkpt lat="44.74547" lon="6.87423">
        <ele>2770.8</ele>
        <time>2026-03-23T12:09:02Z</time>
      </trkpt>
      <trkpt lat="44.74547" lon="6.87423">
        <ele>2770.8</ele>
        <time>2026-03-23T12:09:03Z</time>
      </trkpt>
      <trkpt lat="44.74547" lon="6.87423">
        <ele>2770.8</ele>
        <time>2026-03-23T12:09:04Z</time>
      </trkpt>
      <trkpt lat="44.74547" lon="6.87423">
        <ele>2770.8</ele>
        <time>2026-03-23T12:09:05Z</time>
      </trkpt>
      <trkpt lat="44.74547" lon="6.87423">
        <ele>2770.8</ele>
        <time>2026-03-23T12:09:06Z</time>
      </trkpt>
      <trkpt lat="44.74547" lon="6.87423">
        <ele>2770.8</ele>
        <time>2026-03-23T12:09:07Z</time>
      </trkpt>
      <trkpt lat="44.74547" lon="6.87423">
        <ele>2770.8</ele>
        <time>2026-03-23T12:09:08Z</time>
      </trkpt>
      <trkpt lat="44.74547" lon="6.87423">
        <ele>2770.8</ele>
        <time>2026-03-23T12:09:09Z</time>
      </trkpt>
      <trkpt lat="44.74547" lon="6.87423">
        <ele>2770.8</ele>
        <time>2026-03-23T12:09:10Z</time>
      </trkpt>
      <trkpt lat="44.74547" lon="6.87423">
        <ele>2770.8</ele>
        <time>2026-03-23T12:09:11Z</time>
      </trkpt>
      <trkpt lat="44.74547" lon="6.87422">
        <ele>2770.8</ele>
        <time>2026-03-23T12:09:12Z</time>
      </trkpt>
      <trkpt lat="44.74547" lon="6.87422">
        <ele>2770.8</ele>
        <time>2026-03-23T12:09:13Z</time>
      </trkpt>
      <trkpt lat="44.74547" lon="6.87422">
        <ele>2770.8</ele>
        <time>2026-03-23T12:09:14Z</time>
      </trkpt>
      <trkpt lat="44.74547" lon="6.87422">
        <ele>2770.8</ele>
        <time>2026-03-23T12:09:15Z</time>
      </trkpt>
      <trkpt lat="44.74547" lon="6.87422">
        <ele>2770.8</ele>
        <time>2026-03-23T12:09:16Z</time>
      </trkpt>
      <trkpt lat="44.74547" lon="6.87422">
        <ele>2770.8</ele>
        <time>2026-03-23T12:09:17Z</time>
      </trkpt>
      <trkpt lat="44.74547" lon="6.87422">
        <ele>2770.8</ele>
        <time>2026-03-23T12:09:18Z</time>
      </trkpt>
      <trkpt lat="44.74547" lon="6.87422">
        <ele>2770.8</ele>
        <time>2026-03-23T12:09:19Z</time>
      </trkpt>
      <trkpt lat="44.74547" lon="6.87422">
        <ele>2770.8</ele>
        <time>2026-03-23T12:09:20Z</time>
      </trkpt>
      <trkpt lat="44.74547" lon="6.87422">
        <ele>2770.8</ele>
        <time>2026-03-23T12:09:21Z</time>
      </trkpt>
      <trkpt lat="44.74547" lon="6.87422">
        <ele>2770.8</ele>
        <time>2026-03-23T12:09:22Z</time>
      </trkpt>
      <trkpt lat="44.74547" lon="6.87422">
        <ele>2770.8</ele>
        <time>2026-03-23T12:09:23Z</time>
      </trkpt>
      <trkpt lat="44.74547" lon="6.87422">
        <ele>2770.8</ele>
        <time>2026-03-23T12:09:24Z</time>
      </trkpt>
      <trkpt lat="44.74547" lon="6.87422">
        <ele>2770.8</ele>
        <time>2026-03-23T12:09:25Z</time>
      </trkpt>
      <trkpt lat="44.74547" lon="6.87422">
        <ele>2770.8</ele>
        <time>2026-03-23T12:09:26Z</time>
      </trkpt>
      <trkpt lat="44.74547" lon="6.87422">
        <ele>2770.8</ele>
        <time>2026-03-23T12:09:27Z</time>
      </trkpt>
      <trkpt lat="44.74547" lon="6.87422">
        <ele>2770.8</ele>
        <time>2026-03-23T12:09:28Z</time>
      </trkpt>
      <trkpt lat="44.74547" lon="6.87422">
        <ele>2770.8</ele>
        <time>2026-03-23T12:09:29Z</time>
      </trkpt>
      <trkpt lat="44.74547" lon="6.87422">
        <ele>2770.8</ele>
        <time>2026-03-23T12:09:30Z</time>
      </trkpt>
      <trkpt lat="44.74547" lon="6.87422">
        <ele>2770.8</ele>
        <time>2026-03-23T12:09:31Z</time>
      </trkpt>
      <trkpt lat="44.74547" lon="6.87422">
        <ele>2770.8</ele>
        <time>2026-03-23T12:09:32Z</time>
      </trkpt>
      <trkpt lat="44.74547" lon="6.87422">
        <ele>2770.8</ele>
        <time>2026-03-23T12:09:33Z</time>
      </trkpt>
      <trkpt lat="44.74547" lon="6.87422">
        <ele>2770.8</ele>
        <time>2026-03-23T12:09:34Z</time>
      </trkpt>
      <trkpt lat="44.74547" lon="6.87422">
        <ele>2770.8</ele>
        <time>2026-03-23T12:09:35Z</time>
      </trkpt>
      <trkpt lat="44.74547" lon="6.87422">
        <ele>2770.8</ele>
        <time>2026-03-23T12:09:36Z</time>
      </trkpt>
      <trkpt lat="44.74547" lon="6.87422">
        <ele>2770.8</ele>
        <time>2026-03-23T12:09:37Z</time>
      </trkpt>
      <trkpt lat="44.74547" lon="6.87422">
        <ele>2770.8</ele>
        <time>2026-03-23T12:09:38Z</time>
      </trkpt>
      <trkpt lat="44.74547" lon="6.87422">
        <ele>2770.8</ele>
        <time>2026-03-23T12:09:39Z</time>
      </trkpt>
      <trkpt lat="44.74547" lon="6.87422">
        <ele>2770.8</ele>
        <time>2026-03-23T12:09:40Z</time>
      </trkpt>
      <trkpt lat="44.74547" lon="6.87422">
        <ele>2770.8</ele>
        <time>2026-03-23T12:09:41Z</time>
      </trkpt>
      <trkpt lat="44.74547" lon="6.87422">
        <ele>2770.8</ele>
        <time>2026-03-23T12:09:42Z</time>
      </trkpt>
      <trkpt lat="44.74547" lon="6.87422">
        <ele>2770.8</ele>
        <time>2026-03-23T12:09:43Z</time>
      </trkpt>
      <trkpt lat="44.74547" lon="6.87422">
        <ele>2770.8</ele>
        <time>2026-03-23T12:09:44Z</time>
      </trkpt>
      <trkpt lat="44.74547" lon="6.87422">
        <ele>2770.8</ele>
        <time>2026-03-23T12:09:45Z</time>
      </trkpt>
      <trkpt lat="44.74547" lon="6.87422">
        <ele>2770.8</ele>
        <time>2026-03-23T12:09:46Z</time>
      </trkpt>
      <trkpt lat="44.74547" lon="6.87422">
        <ele>2770.8</ele>
        <time>2026-03-23T12:09:47Z</time>
      </trkpt>
      <trkpt lat="44.74547" lon="6.87422">
        <ele>2770.8</ele>
        <time>2026-03-23T12:09:48Z</time>
      </trkpt>
      <trkpt lat="44.74547" lon="6.87422">
        <ele>2770.8</ele>
        <time>2026-03-23T12:09:49Z</time>
      </trkpt>
      <trkpt lat="44.74547" lon="6.87422">
        <ele>2770.8</ele>
        <time>2026-03-23T12:09:50Z</time>
      </trkpt>
      <trkpt lat="44.74547" lon="6.87422">
        <ele>2770.8</ele>
        <time>2026-03-23T12:09:51Z</time>
      </trkpt>
      <trkpt lat="44.74547" lon="6.87422">
        <ele>2770.8</ele>
        <time>2026-03-23T12:09:52Z</time>
      </trkpt>
      <trkpt lat="44.74547" lon="6.87422">
        <ele>2770.8</ele>
        <time>2026-03-23T12:09:53Z</time>
      </trkpt>
      <trkpt lat="44.74547" lon="6.87422">
        <ele>2770.8</ele>
        <time>2026-03-23T12:09:54Z</time>
      </trkpt>
      <trkpt lat="44.74547" lon="6.87422">
        <ele>2770.8</ele>
        <time>2026-03-23T12:09:55Z</time>
      </trkpt>
      <trkpt lat="44.74547" lon="6.87422">
        <ele>2770.8</ele>
        <time>2026-03-23T12:09:56Z</time>
      </trkpt>
      <trkpt lat="44.74547" lon="6.87422">
        <ele>2770.9</ele>
        <time>2026-03-23T12:09:57Z</time>
      </trkpt>
      <trkpt lat="44.74547" lon="6.87421">
        <ele>2771</ele>
        <time>2026-03-23T12:09:58Z</time>
      </trkpt>
      <trkpt lat="44.74546" lon="6.8742">
        <ele>2771</ele>
        <time>2026-03-23T12:09:59Z</time>
      </trkpt>
      <trkpt lat="44.74546" lon="6.8742">
        <ele>2771</ele>
        <time>2026-03-23T12:10:00Z</time>
      </trkpt>
      <trkpt lat="44.74545" lon="6.87419">
        <ele>2771.1</ele>
        <time>2026-03-23T12:10:01Z</time>
      </trkpt>
      <trkpt lat="44.74545" lon="6.8742">
        <ele>2771.1</ele>
        <time>2026-03-23T12:10:02Z</time>
      </trkpt>
      <trkpt lat="44.74545" lon="6.8742">
        <ele>2771.1</ele>
        <time>2026-03-23T12:10:03Z</time>
      </trkpt>
      <trkpt lat="44.74545" lon="6.8742">
        <ele>2771.1</ele>
        <time>2026-03-23T12:10:04Z</time>
      </trkpt>
      <trkpt lat="44.74545" lon="6.8742">
        <ele>2771.2</ele>
        <time>2026-03-23T12:10:05Z</time>
      </trkpt>
      <trkpt lat="44.74545" lon="6.87421">
        <ele>2771.2</ele>
        <time>2026-03-23T12:10:06Z</time>
      </trkpt>
      <trkpt lat="44.74545" lon="6.87421">
        <ele>2771.2</ele>
        <time>2026-03-23T12:10:07Z</time>
      </trkpt>
      <trkpt lat="44.74545" lon="6.87421">
        <ele>2771.2</ele>
        <time>2026-03-23T12:10:08Z</time>
      </trkpt>
      <trkpt lat="44.74545" lon="6.87421">
        <ele>2771.2</ele>
        <time>2026-03-23T12:10:09Z</time>
      </trkpt>
      <trkpt lat="44.74544" lon="6.87421">
        <ele>2771.3</ele>
        <time>2026-03-23T12:10:10Z</time>
      </trkpt>
      <trkpt lat="44.74544" lon="6.87421">
        <ele>2771.3</ele>
        <time>2026-03-23T12:10:11Z</time>
      </trkpt>
      <trkpt lat="44.74544" lon="6.87421">
        <ele>2771.3</ele>
        <time>2026-03-23T12:10:12Z</time>
      </trkpt>
      <trkpt lat="44.74544" lon="6.87421">
        <ele>2771.3</ele>
        <time>2026-03-23T12:10:13Z</time>
      </trkpt>
      <trkpt lat="44.74544" lon="6.87421">
        <ele>2771.4</ele>
        <time>2026-03-23T12:10:14Z</time>
      </trkpt>
      <trkpt lat="44.74544" lon="6.87421">
        <ele>2771.4</ele>
        <time>2026-03-23T12:10:15Z</time>
      </trkpt>
      <trkpt lat="44.74544" lon="6.87421">
        <ele>2771.4</ele>
        <time>2026-03-23T12:10:16Z</time>
      </trkpt>
      <trkpt lat="44.74544" lon="6.87421">
        <ele>2771.4</ele>
        <time>2026-03-23T12:10:17Z</time>
      </trkpt>
      <trkpt lat="44.74544" lon="6.8742">
        <ele>2771.5</ele>
        <time>2026-03-23T12:10:18Z</time>
      </trkpt>
      <trkpt lat="44.74544" lon="6.8742">
        <ele>2771.5</ele>
        <time>2026-03-23T12:10:19Z</time>
      </trkpt>
      <trkpt lat="44.74544" lon="6.8742">
        <ele>2771.5</ele>
        <time>2026-03-23T12:10:20Z</time>
      </trkpt>
      <trkpt lat="44.74544" lon="6.8742">
        <ele>2771.5</ele>
        <time>2026-03-23T12:10:21Z</time>
      </trkpt>
      <trkpt lat="44.74544" lon="6.8742">
        <ele>2771.5</ele>
        <time>2026-03-23T12:10:22Z</time>
      </trkpt>
      <trkpt lat="44.74544" lon="6.8742">
        <ele>2771.6</ele>
        <time>2026-03-23T12:10:23Z</time>
      </trkpt>
      <trkpt lat="44.74544" lon="6.8742">
        <ele>2771.6</ele>
        <time>2026-03-23T12:10:24Z</time>
      </trkpt>
      <trkpt lat="44.74544" lon="6.8742">
        <ele>2771.6</ele>
        <time>2026-03-23T12:10:25Z</time>
      </trkpt>
      <trkpt lat="44.74544" lon="6.8742">
        <ele>2771.6</ele>
        <time>2026-03-23T12:10:26Z</time>
      </trkpt>
      <trkpt lat="44.74544" lon="6.8742">
        <ele>2771.7</ele>
        <time>2026-03-23T12:10:27Z</time>
      </trkpt>
      <trkpt lat="44.74544" lon="6.8742">
        <ele>2771.7</ele>
        <time>2026-03-23T12:10:28Z</time>
      </trkpt>
      <trkpt lat="44.74544" lon="6.8742">
        <ele>2771.7</ele>
        <time>2026-03-23T12:10:29Z</time>
      </trkpt>
      <trkpt lat="44.74544" lon="6.8742">
        <ele>2771.7</ele>
        <time>2026-03-23T12:10:30Z</time>
      </trkpt>
      <trkpt lat="44.74544" lon="6.8742">
        <ele>2771.8</ele>
        <time>2026-03-23T12:10:31Z</time>
      </trkpt>
      <trkpt lat="44.74545" lon="6.8742">
        <ele>2771.8</ele>
        <time>2026-03-23T12:10:32Z</time>
      </trkpt>
      <trkpt lat="44.74544" lon="6.8742">
        <ele>2771.8</ele>
        <time>2026-03-23T12:10:33Z</time>
      </trkpt>
      <trkpt lat="44.74544" lon="6.8742">
        <ele>2771.8</ele>
        <time>2026-03-23T12:10:34Z</time>
      </trkpt>
      <trkpt lat="44.74544" lon="6.8742">
        <ele>2771.8</ele>
        <time>2026-03-23T12:10:35Z</time>
      </trkpt>
      <trkpt lat="44.74544" lon="6.8742">
        <ele>2771.8</ele>
        <time>2026-03-23T12:10:36Z</time>
      </trkpt>
      <trkpt lat="44.74544" lon="6.8742">
        <ele>2771.9</ele>
        <time>2026-03-23T12:10:37Z</time>
      </trkpt>
      <trkpt lat="44.74544" lon="6.8742">
        <ele>2771.9</ele>
        <time>2026-03-23T12:10:38Z</time>
      </trkpt>
      <trkpt lat="44.74544" lon="6.8742">
        <ele>2771.9</ele>
        <time>2026-03-23T12:10:39Z</time>
      </trkpt>
      <trkpt lat="44.74544" lon="6.8742">
        <ele>2771.9</ele>
        <time>2026-03-23T12:10:40Z</time>
      </trkpt>
      <trkpt lat="44.74544" lon="6.8742">
        <ele>2771.9</ele>
        <time>2026-03-23T12:10:41Z</time>
      </trkpt>
      <trkpt lat="44.74544" lon="6.8742">
        <ele>2771.9</ele>
        <time>2026-03-23T12:10:42Z</time>
      </trkpt>
      <trkpt lat="44.74544" lon="6.8742">
        <ele>2772</ele>
        <time>2026-03-23T12:10:43Z</time>
      </trkpt>
      <trkpt lat="44.74544" lon="6.8742">
        <ele>2772</ele>
        <time>2026-03-23T12:10:44Z</time>
      </trkpt>
      <trkpt lat="44.74544" lon="6.8742">
        <ele>2772</ele>
        <time>2026-03-23T12:10:45Z</time>
      </trkpt>
      <trkpt lat="44.74544" lon="6.8742">
        <ele>2772</ele>
        <time>2026-03-23T12:10:46Z</time>
      </trkpt>
      <trkpt lat="44.74544" lon="6.8742">
        <ele>2772</ele>
        <time>2026-03-23T12:10:47Z</time>
      </trkpt>
      <trkpt lat="44.74544" lon="6.8742">
        <ele>2772.1</ele>
        <time>2026-03-23T12:10:48Z</time>
      </trkpt>
      <trkpt lat="44.74544" lon="6.8742">
        <ele>2772.1</ele>
        <time>2026-03-23T12:10:49Z</time>
      </trkpt>
      <trkpt lat="44.74544" lon="6.8742">
        <ele>2772.1</ele>
        <time>2026-03-23T12:10:50Z</time>
      </trkpt>
      <trkpt lat="44.74544" lon="6.8742">
        <ele>2772.1</ele>
        <time>2026-03-23T12:10:51Z</time>
      </trkpt>
      <trkpt lat="44.74544" lon="6.8742">
        <ele>2772.2</ele>
        <time>2026-03-23T12:10:52Z</time>
      </trkpt>
      <trkpt lat="44.74544" lon="6.87421">
        <ele>2772.2</ele>
        <time>2026-03-23T12:10:53Z</time>
      </trkpt>
      <trkpt lat="44.74544" lon="6.87421">
        <ele>2772.2</ele>
        <time>2026-03-23T12:10:54Z</time>
      </trkpt>
      <trkpt lat="44.74544" lon="6.87421">
        <ele>2772.2</ele>
        <time>2026-03-23T12:10:55Z</time>
      </trkpt>
      <trkpt lat="44.74544" lon="6.87421">
        <ele>2772.2</ele>
        <time>2026-03-23T12:10:56Z</time>
      </trkpt>
      <trkpt lat="44.74544" lon="6.87421">
        <ele>2772.3</ele>
        <time>2026-03-23T12:10:57Z</time>
      </trkpt>
      <trkpt lat="44.74544" lon="6.87421">
        <ele>2772.2</ele>
        <time>2026-03-23T12:10:58Z</time>
      </trkpt>
      <trkpt lat="44.74544" lon="6.87421">
        <ele>2772.2</ele>
        <time>2026-03-23T12:10:59Z</time>
      </trkpt>
      <trkpt lat="44.74544" lon="6.87421">
        <ele>2772.3</ele>
        <time>2026-03-23T12:11:00Z</time>
      </trkpt>
      <trkpt lat="44.74544" lon="6.87421">
        <ele>2772.3</ele>
        <time>2026-03-23T12:11:01Z</time>
      </trkpt>
      <trkpt lat="44.74544" lon="6.87421">
        <ele>2772.3</ele>
        <time>2026-03-23T12:11:02Z</time>
      </trkpt>
      <trkpt lat="44.74544" lon="6.87421">
        <ele>2772.3</ele>
        <time>2026-03-23T12:11:03Z</time>
      </trkpt>
      <trkpt lat="44.74544" lon="6.87421">
        <ele>2772.3</ele>
        <time>2026-03-23T12:11:04Z</time>
      </trkpt>
      <trkpt lat="44.74544" lon="6.87421">
        <ele>2772.4</ele>
        <time>2026-03-23T12:11:05Z</time>
      </trkpt>
      <trkpt lat="44.74544" lon="6.87421">
        <ele>2772.4</ele>
        <time>2026-03-23T12:11:06Z</time>
      </trkpt>
      <trkpt lat="44.74544" lon="6.87421">
        <ele>2772.4</ele>
        <time>2026-03-23T12:11:07Z</time>
      </trkpt>
      <trkpt lat="44.74544" lon="6.87421">
        <ele>2772.4</ele>
        <time>2026-03-23T12:11:08Z</time>
      </trkpt>
      <trkpt lat="44.74544" lon="6.87421">
        <ele>2772.5</ele>
        <time>2026-03-23T12:11:09Z</time>
      </trkpt>
      <trkpt lat="44.74544" lon="6.87421">
        <ele>2772.5</ele>
        <time>2026-03-23T12:11:10Z</time>
      </trkpt>
      <trkpt lat="44.74544" lon="6.87421">
        <ele>2772.5</ele>
        <time>2026-03-23T12:11:11Z</time>
      </trkpt>
      <trkpt lat="44.74544" lon="6.87421">
        <ele>2772.5</ele>
        <time>2026-03-23T12:11:12Z</time>
      </trkpt>
      <trkpt lat="44.74544" lon="6.87421">
        <ele>2772.5</ele>
        <time>2026-03-23T12:11:13Z</time>
      </trkpt>
      <trkpt lat="44.74544" lon="6.87421">
        <ele>2772.6</ele>
        <time>2026-03-23T12:11:14Z</time>
      </trkpt>
      <trkpt lat="44.74544" lon="6.87421">
        <ele>2772.6</ele>
        <time>2026-03-23T12:11:15Z</time>
      </trkpt>
      <trkpt lat="44.74544" lon="6.87421">
        <ele>2772.6</ele>
        <time>2026-03-23T12:11:16Z</time>
      </trkpt>
      <trkpt lat="44.74544" lon="6.87421">
        <ele>2772.6</ele>
        <time>2026-03-23T12:11:17Z</time>
      </trkpt>
      <trkpt lat="44.74544" lon="6.87421">
        <ele>2772.6</ele>
        <time>2026-03-23T12:11:18Z</time>
      </trkpt>
      <trkpt lat="44.74544" lon="6.87421">
        <ele>2772.7</ele>
        <time>2026-03-23T12:11:19Z</time>
      </trkpt>
      <trkpt lat="44.74544" lon="6.87421">
        <ele>2772.7</ele>
        <time>2026-03-23T12:11:20Z</time>
      </trkpt>
      <trkpt lat="44.74544" lon="6.87421">
        <ele>2772.7</ele>
        <time>2026-03-23T12:11:21Z</time>
      </trkpt>
      <trkpt lat="44.74544" lon="6.87421">
        <ele>2772.7</ele>
        <time>2026-03-23T12:11:22Z</time>
      </trkpt>
      <trkpt lat="44.74544" lon="6.87421">
        <ele>2772.8</ele>
        <time>2026-03-23T12:11:23Z</time>
      </trkpt>
      <trkpt lat="44.74544" lon="6.87421">
        <ele>2772.8</ele>
        <time>2026-03-23T12:11:24Z</time>
      </trkpt>
      <trkpt lat="44.74544" lon="6.87421">
        <ele>2772.8</ele>
        <time>2026-03-23T12:11:25Z</time>
      </trkpt>
      <trkpt lat="44.74544" lon="6.87421">
        <ele>2772.7</ele>
        <time>2026-03-23T12:11:26Z</time>
      </trkpt>
      <trkpt lat="44.74544" lon="6.87421">
        <ele>2772.7</ele>
        <time>2026-03-23T12:11:27Z</time>
      </trkpt>
      <trkpt lat="44.74545" lon="6.87421">
        <ele>2772.8</ele>
        <time>2026-03-23T12:11:28Z</time>
      </trkpt>
      <trkpt lat="44.74545" lon="6.87421">
        <ele>2772.8</ele>
        <time>2026-03-23T12:11:29Z</time>
      </trkpt>
      <trkpt lat="44.74545" lon="6.8742">
        <ele>2772.8</ele>
        <time>2026-03-23T12:11:30Z</time>
      </trkpt>
      <trkpt lat="44.74545" lon="6.8742">
        <ele>2772.7</ele>
        <time>2026-03-23T12:11:31Z</time>
      </trkpt>
      <trkpt lat="44.74545" lon="6.8742">
        <ele>2772.7</ele>
        <time>2026-03-23T12:11:32Z</time>
      </trkpt>
      <trkpt lat="44.74544" lon="6.8742">
        <ele>2772.8</ele>
        <time>2026-03-23T12:11:33Z</time>
      </trkpt>
      <trkpt lat="44.74544" lon="6.8742">
        <ele>2772.8</ele>
        <time>2026-03-23T12:11:34Z</time>
      </trkpt>
      <trkpt lat="44.74544" lon="6.87419">
        <ele>2772.8</ele>
        <time>2026-03-23T12:11:35Z</time>
      </trkpt>
      <trkpt lat="44.74544" lon="6.8742">
        <ele>2772.7</ele>
        <time>2026-03-23T12:11:36Z</time>
      </trkpt>
      <trkpt lat="44.74544" lon="6.8742">
        <ele>2772.7</ele>
        <time>2026-03-23T12:11:37Z</time>
      </trkpt>
      <trkpt lat="44.74544" lon="6.8742">
        <ele>2772.7</ele>
        <time>2026-03-23T12:11:38Z</time>
      </trkpt>
      <trkpt lat="44.74543" lon="6.8742">
        <ele>2772.6</ele>
        <time>2026-03-23T12:11:39Z</time>
      </trkpt>
      <trkpt lat="44.74543" lon="6.8742">
        <ele>2772.6</ele>
        <time>2026-03-23T12:11:40Z</time>
      </trkpt>
      <trkpt lat="44.74542" lon="6.87419">
        <ele>2772.5</ele>
        <time>2026-03-23T12:11:41Z</time>
      </trkpt>
      <trkpt lat="44.74542" lon="6.87419">
        <ele>2772.5</ele>
        <time>2026-03-23T12:11:42Z</time>
      </trkpt>
      <trkpt lat="44.74542" lon="6.87419">
        <ele>2772.5</ele>
        <time>2026-03-23T12:11:43Z</time>
      </trkpt>
      <trkpt lat="44.74542" lon="6.87419">
        <ele>2772.5</ele>
        <time>2026-03-23T12:11:44Z</time>
      </trkpt>
      <trkpt lat="44.74542" lon="6.87419">
        <ele>2772.5</ele>
        <time>2026-03-23T12:11:45Z</time>
      </trkpt>
      <trkpt lat="44.74542" lon="6.87419">
        <ele>2772.5</ele>
        <time>2026-03-23T12:11:46Z</time>
      </trkpt>
      <trkpt lat="44.74542" lon="6.87419">
        <ele>2772.5</ele>
        <time>2026-03-23T12:11:47Z</time>
      </trkpt>
      <trkpt lat="44.74542" lon="6.87419">
        <ele>2772.5</ele>
        <time>2026-03-23T12:11:48Z</time>
      </trkpt>
      <trkpt lat="44.74542" lon="6.87419">
        <ele>2772.5</ele>
        <time>2026-03-23T12:11:49Z</time>
      </trkpt>
      <trkpt lat="44.74542" lon="6.87419">
        <ele>2772.5</ele>
        <time>2026-03-23T12:11:50Z</time>
      </trkpt>
      <trkpt lat="44.74542" lon="6.87419">
        <ele>2772.5</ele>
        <time>2026-03-23T12:11:51Z</time>
      </trkpt>
      <trkpt lat="44.74542" lon="6.87419">
        <ele>2772.5</ele>
        <time>2026-03-23T12:11:52Z</time>
      </trkpt>
      <trkpt lat="44.74542" lon="6.87419">
        <ele>2772.5</ele>
        <time>2026-03-23T12:11:53Z</time>
      </trkpt>
      <trkpt lat="44.74542" lon="6.87419">
        <ele>2772.5</ele>
        <time>2026-03-23T12:11:54Z</time>
      </trkpt>
      <trkpt lat="44.74542" lon="6.87419">
        <ele>2772.5</ele>
        <time>2026-03-23T12:11:55Z</time>
      </trkpt>
      <trkpt lat="44.74542" lon="6.87419">
        <ele>2772.5</ele>
        <time>2026-03-23T12:11:56Z</time>
      </trkpt>
      <trkpt lat="44.74542" lon="6.87419">
        <ele>2772.5</ele>
        <time>2026-03-23T12:11:57Z</time>
      </trkpt>
      <trkpt lat="44.74542" lon="6.87419">
        <ele>2772.4</ele>
        <time>2026-03-23T12:11:58Z</time>
      </trkpt>
      <trkpt lat="44.74542" lon="6.87419">
        <ele>2772.4</ele>
        <time>2026-03-23T12:11:59Z</time>
      </trkpt>
      <trkpt lat="44.74542" lon="6.87418">
        <ele>2772.4</ele>
        <time>2026-03-23T12:12:00Z</time>
      </trkpt>
      <trkpt lat="44.74542" lon="6.87418">
        <ele>2772.4</ele>
        <time>2026-03-23T12:12:01Z</time>
      </trkpt>
      <trkpt lat="44.74542" lon="6.87418">
        <ele>2772.4</ele>
        <time>2026-03-23T12:12:02Z</time>
      </trkpt>
      <trkpt lat="44.74542" lon="6.87418">
        <ele>2772.4</ele>
        <time>2026-03-23T12:12:03Z</time>
      </trkpt>
      <trkpt lat="44.74542" lon="6.87418">
        <ele>2772.4</ele>
        <time>2026-03-23T12:12:04Z</time>
      </trkpt>
      <trkpt lat="44.74542" lon="6.87418">
        <ele>2772.4</ele>
        <time>2026-03-23T12:12:05Z</time>
      </trkpt>
      <trkpt lat="44.74542" lon="6.87418">
        <ele>2772.4</ele>
        <time>2026-03-23T12:12:06Z</time>
      </trkpt>
      <trkpt lat="44.74542" lon="6.87418">
        <ele>2772.4</ele>
        <time>2026-03-23T12:12:07Z</time>
      </trkpt>
      <trkpt lat="44.74542" lon="6.87418">
        <ele>2772.4</ele>
        <time>2026-03-23T12:12:08Z</time>
      </trkpt>
      <trkpt lat="44.74542" lon="6.87418">
        <ele>2772.4</ele>
        <time>2026-03-23T12:12:09Z</time>
      </trkpt>
      <trkpt lat="44.74542" lon="6.87418">
        <ele>2772.4</ele>
        <time>2026-03-23T12:12:10Z</time>
      </trkpt>
      <trkpt lat="44.74542" lon="6.87418">
        <ele>2772.4</ele>
        <time>2026-03-23T12:12:11Z</time>
      </trkpt>
      <trkpt lat="44.74542" lon="6.87418">
        <ele>2772.4</ele>
        <time>2026-03-23T12:12:12Z</time>
      </trkpt>
      <trkpt lat="44.74542" lon="6.87418">
        <ele>2772.4</ele>
        <time>2026-03-23T12:12:13Z</time>
      </trkpt>
      <trkpt lat="44.74542" lon="6.87418">
        <ele>2772.4</ele>
        <time>2026-03-23T12:12:14Z</time>
      </trkpt>
      <trkpt lat="44.74542" lon="6.87418">
        <ele>2772.3</ele>
        <time>2026-03-23T12:12:15Z</time>
      </trkpt>
      <trkpt lat="44.74542" lon="6.87418">
        <ele>2772.3</ele>
        <time>2026-03-23T12:12:16Z</time>
      </trkpt>
      <trkpt lat="44.74542" lon="6.87418">
        <ele>2772.3</ele>
        <time>2026-03-23T12:12:17Z</time>
      </trkpt>
      <trkpt lat="44.74542" lon="6.87418">
        <ele>2772.3</ele>
        <time>2026-03-23T12:12:18Z</time>
      </trkpt>
      <trkpt lat="44.74542" lon="6.87417">
        <ele>2772.3</ele>
        <time>2026-03-23T12:12:19Z</time>
      </trkpt>
      <trkpt lat="44.74542" lon="6.87417">
        <ele>2772.3</ele>
        <time>2026-03-23T12:12:20Z</time>
      </trkpt>
      <trkpt lat="44.74542" lon="6.87417">
        <ele>2772.3</ele>
        <time>2026-03-23T12:12:21Z</time>
      </trkpt>
      <trkpt lat="44.74542" lon="6.87417">
        <ele>2772.3</ele>
        <time>2026-03-23T12:12:22Z</time>
      </trkpt>
      <trkpt lat="44.74542" lon="6.87417">
        <ele>2772.3</ele>
        <time>2026-03-23T12:12:23Z</time>
      </trkpt>
      <trkpt lat="44.74542" lon="6.87417">
        <ele>2772.3</ele>
        <time>2026-03-23T12:12:24Z</time>
      </trkpt>
      <trkpt lat="44.74542" lon="6.87417">
        <ele>2772.3</ele>
        <time>2026-03-23T12:12:25Z</time>
      </trkpt>
      <trkpt lat="44.74541" lon="6.87417">
        <ele>2772.3</ele>
        <time>2026-03-23T12:12:26Z</time>
      </trkpt>
      <trkpt lat="44.74541" lon="6.87417">
        <ele>2772.3</ele>
        <time>2026-03-23T12:12:27Z</time>
      </trkpt>
      <trkpt lat="44.74541" lon="6.87417">
        <ele>2772.3</ele>
        <time>2026-03-23T12:12:28Z</time>
      </trkpt>
      <trkpt lat="44.74541" lon="6.87417">
        <ele>2772.3</ele>
        <time>2026-03-23T12:12:29Z</time>
      </trkpt>
      <trkpt lat="44.74541" lon="6.87417">
        <ele>2772.3</ele>
        <time>2026-03-23T12:12:30Z</time>
      </trkpt>
      <trkpt lat="44.74541" lon="6.87417">
        <ele>2772.3</ele>
        <time>2026-03-23T12:12:31Z</time>
      </trkpt>
      <trkpt lat="44.74541" lon="6.87417">
        <ele>2772.2</ele>
        <time>2026-03-23T12:12:32Z</time>
      </trkpt>
      <trkpt lat="44.74541" lon="6.87417">
        <ele>2772.2</ele>
        <time>2026-03-23T12:12:33Z</time>
      </trkpt>
      <trkpt lat="44.74541" lon="6.87417">
        <ele>2772.2</ele>
        <time>2026-03-23T12:12:34Z</time>
      </trkpt>
      <trkpt lat="44.74541" lon="6.87417">
        <ele>2772.2</ele>
        <time>2026-03-23T12:12:35Z</time>
      </trkpt>
      <trkpt lat="44.74541" lon="6.87417">
        <ele>2772.2</ele>
        <time>2026-03-23T12:12:36Z</time>
      </trkpt>
      <trkpt lat="44.74541" lon="6.87416">
        <ele>2772.2</ele>
        <time>2026-03-23T12:12:37Z</time>
      </trkpt>
      <trkpt lat="44.74541" lon="6.87416">
        <ele>2772.2</ele>
        <time>2026-03-23T12:12:38Z</time>
      </trkpt>
      <trkpt lat="44.74541" lon="6.87416">
        <ele>2772.2</ele>
        <time>2026-03-23T12:12:39Z</time>
      </trkpt>
      <trkpt lat="44.74541" lon="6.87416">
        <ele>2772.2</ele>
        <time>2026-03-23T12:12:40Z</time>
      </trkpt>
      <trkpt lat="44.74541" lon="6.87416">
        <ele>2772.2</ele>
        <time>2026-03-23T12:12:41Z</time>
      </trkpt>
      <trkpt lat="44.74541" lon="6.87416">
        <ele>2772.2</ele>
        <time>2026-03-23T12:12:42Z</time>
      </trkpt>
      <trkpt lat="44.74541" lon="6.87416">
        <ele>2772.2</ele>
        <time>2026-03-23T12:12:43Z</time>
      </trkpt>
      <trkpt lat="44.74541" lon="6.87416">
        <ele>2772.2</ele>
        <time>2026-03-23T12:12:44Z</time>
      </trkpt>
      <trkpt lat="44.74541" lon="6.87416">
        <ele>2772.2</ele>
        <time>2026-03-23T12:12:45Z</time>
      </trkpt>
      <trkpt lat="44.74541" lon="6.87416">
        <ele>2772.2</ele>
        <time>2026-03-23T12:12:46Z</time>
      </trkpt>
      <trkpt lat="44.74541" lon="6.87416">
        <ele>2772.2</ele>
        <time>2026-03-23T12:12:47Z</time>
      </trkpt>
      <trkpt lat="44.74541" lon="6.87416">
        <ele>2772.2</ele>
        <time>2026-03-23T12:12:48Z</time>
      </trkpt>
      <trkpt lat="44.74541" lon="6.87416">
        <ele>2772.1</ele>
        <time>2026-03-23T12:12:49Z</time>
      </trkpt>
      <trkpt lat="44.74541" lon="6.87416">
        <ele>2772.1</ele>
        <time>2026-03-23T12:12:50Z</time>
      </trkpt>
      <trkpt lat="44.74541" lon="6.87416">
        <ele>2772.1</ele>
        <time>2026-03-23T12:12:51Z</time>
      </trkpt>
      <trkpt lat="44.74541" lon="6.87416">
        <ele>2772.1</ele>
        <time>2026-03-23T12:12:52Z</time>
      </trkpt>
      <trkpt lat="44.74541" lon="6.87416">
        <ele>2772.1</ele>
        <time>2026-03-23T12:12:53Z</time>
      </trkpt>
      <trkpt lat="44.74541" lon="6.87416">
        <ele>2772.1</ele>
        <time>2026-03-23T12:12:54Z</time>
      </trkpt>
      <trkpt lat="44.74541" lon="6.87416">
        <ele>2772.1</ele>
        <time>2026-03-23T12:12:55Z</time>
      </trkpt>
      <trkpt lat="44.74541" lon="6.87415">
        <ele>2772.1</ele>
        <time>2026-03-23T12:12:56Z</time>
      </trkpt>
      <trkpt lat="44.74541" lon="6.87415">
        <ele>2772.1</ele>
        <time>2026-03-23T12:12:57Z</time>
      </trkpt>
      <trkpt lat="44.74541" lon="6.87415">
        <ele>2772.1</ele>
        <time>2026-03-23T12:12:58Z</time>
      </trkpt>
      <trkpt lat="44.74541" lon="6.87415">
        <ele>2772.1</ele>
        <time>2026-03-23T12:12:59Z</time>
      </trkpt>
      <trkpt lat="44.74541" lon="6.87415">
        <ele>2772.1</ele>
        <time>2026-03-23T12:13:00Z</time>
      </trkpt>
      <trkpt lat="44.74541" lon="6.87415">
        <ele>2772.1</ele>
        <time>2026-03-23T12:13:01Z</time>
      </trkpt>
      <trkpt lat="44.74541" lon="6.87415">
        <ele>2772.1</ele>
        <time>2026-03-23T12:13:02Z</time>
      </trkpt>
      <trkpt lat="44.74541" lon="6.87415">
        <ele>2772.1</ele>
        <time>2026-03-23T12:13:03Z</time>
      </trkpt>
      <trkpt lat="44.74541" lon="6.87415">
        <ele>2772.1</ele>
        <time>2026-03-23T12:13:04Z</time>
      </trkpt>
      <trkpt lat="44.74541" lon="6.87415">
        <ele>2772.1</ele>
        <time>2026-03-23T12:13:05Z</time>
      </trkpt>
      <trkpt lat="44.74541" lon="6.87415">
        <ele>2772.1</ele>
        <time>2026-03-23T12:13:06Z</time>
      </trkpt>
      <trkpt lat="44.74541" lon="6.87415">
        <ele>2772</ele>
        <time>2026-03-23T12:13:07Z</time>
      </trkpt>
      <trkpt lat="44.74541" lon="6.87415">
        <ele>2772</ele>
        <time>2026-03-23T12:13:08Z</time>
      </trkpt>
      <trkpt lat="44.74541" lon="6.87415">
        <ele>2772</ele>
        <time>2026-03-23T12:13:09Z</time>
      </trkpt>
      <trkpt lat="44.74541" lon="6.87415">
        <ele>2772</ele>
        <time>2026-03-23T12:13:10Z</time>
      </trkpt>
      <trkpt lat="44.74541" lon="6.87415">
        <ele>2772</ele>
        <time>2026-03-23T12:13:11Z</time>
      </trkpt>
      <trkpt lat="44.74541" lon="6.87415">
        <ele>2772</ele>
        <time>2026-03-23T12:13:12Z</time>
      </trkpt>
      <trkpt lat="44.74541" lon="6.87415">
        <ele>2772</ele>
        <time>2026-03-23T12:13:13Z</time>
      </trkpt>
      <trkpt lat="44.74541" lon="6.87415">
        <ele>2772</ele>
        <time>2026-03-23T12:13:14Z</time>
      </trkpt>
      <trkpt lat="44.74541" lon="6.87414">
        <ele>2772</ele>
        <time>2026-03-23T12:13:15Z</time>
      </trkpt>
      <trkpt lat="44.74541" lon="6.87414">
        <ele>2772</ele>
        <time>2026-03-23T12:13:16Z</time>
      </trkpt>
      <trkpt lat="44.74541" lon="6.87414">
        <ele>2772</ele>
        <time>2026-03-23T12:13:17Z</time>
      </trkpt>
      <trkpt lat="44.74539" lon="6.87412">
        <ele>2771.7</ele>
        <time>2026-03-23T12:13:18Z</time>
      </trkpt>
      <trkpt lat="44.74539" lon="6.8741">
        <ele>2771.6</ele>
        <time>2026-03-23T12:13:19Z</time>
      </trkpt>
      <trkpt lat="44.7454" lon="6.8741">
        <ele>2771</ele>
        <time>2026-03-23T12:13:20Z</time>
      </trkpt>
      <trkpt lat="44.7454" lon="6.8741">
        <ele>2770.9</ele>
        <time>2026-03-23T12:13:21Z</time>
      </trkpt>
      <trkpt lat="44.7454" lon="6.8741">
        <ele>2770.9</ele>
        <time>2026-03-23T12:13:22Z</time>
      </trkpt>
      <trkpt lat="44.7454" lon="6.8741">
        <ele>2770.9</ele>
        <time>2026-03-23T12:13:23Z</time>
      </trkpt>
      <trkpt lat="44.7454" lon="6.8741">
        <ele>2770.9</ele>
        <time>2026-03-23T12:13:24Z</time>
      </trkpt>
      <trkpt lat="44.7454" lon="6.8741">
        <ele>2770.9</ele>
        <time>2026-03-23T12:13:25Z</time>
      </trkpt>
      <trkpt lat="44.7454" lon="6.8741">
        <ele>2770.9</ele>
        <time>2026-03-23T12:13:26Z</time>
      </trkpt>
      <trkpt lat="44.7454" lon="6.8741">
        <ele>2770.9</ele>
        <time>2026-03-23T12:13:27Z</time>
      </trkpt>
      <trkpt lat="44.7454" lon="6.8741">
        <ele>2770.9</ele>
        <time>2026-03-23T12:13:28Z</time>
      </trkpt>
      <trkpt lat="44.7454" lon="6.8741">
        <ele>2770.9</ele>
        <time>2026-03-23T12:13:29Z</time>
      </trkpt>
      <trkpt lat="44.7454" lon="6.8741">
        <ele>2770.8</ele>
        <time>2026-03-23T12:13:30Z</time>
      </trkpt>
      <trkpt lat="44.7454" lon="6.8741">
        <ele>2770.8</ele>
        <time>2026-03-23T12:13:31Z</time>
      </trkpt>
      <trkpt lat="44.7454" lon="6.8741">
        <ele>2770.8</ele>
        <time>2026-03-23T12:13:32Z</time>
      </trkpt>
      <trkpt lat="44.7454" lon="6.8741">
        <ele>2770.8</ele>
        <time>2026-03-23T12:13:33Z</time>
      </trkpt>
      <trkpt lat="44.7454" lon="6.8741">
        <ele>2770.8</ele>
        <time>2026-03-23T12:13:34Z</time>
      </trkpt>
      <trkpt lat="44.7454" lon="6.8741">
        <ele>2770.8</ele>
        <time>2026-03-23T12:13:35Z</time>
      </trkpt>
      <trkpt lat="44.7454" lon="6.8741">
        <ele>2770.8</ele>
        <time>2026-03-23T12:13:36Z</time>
      </trkpt>
      <trkpt lat="44.7454" lon="6.8741">
        <ele>2770.8</ele>
        <time>2026-03-23T12:13:37Z</time>
      </trkpt>
      <trkpt lat="44.7454" lon="6.8741">
        <ele>2770.8</ele>
        <time>2026-03-23T12:13:38Z</time>
      </trkpt>
      <trkpt lat="44.7454" lon="6.8741">
        <ele>2770.7</ele>
        <time>2026-03-23T12:13:39Z</time>
      </trkpt>
      <trkpt lat="44.7454" lon="6.8741">
        <ele>2770.7</ele>
        <time>2026-03-23T12:13:40Z</time>
      </trkpt>
      <trkpt lat="44.7454" lon="6.8741">
        <ele>2770.7</ele>
        <time>2026-03-23T12:13:41Z</time>
      </trkpt>
      <trkpt lat="44.7454" lon="6.8741">
        <ele>2770.7</ele>
        <time>2026-03-23T12:13:42Z</time>
      </trkpt>
      <trkpt lat="44.7454" lon="6.8741">
        <ele>2770.7</ele>
        <time>2026-03-23T12:13:43Z</time>
      </trkpt>
      <trkpt lat="44.7454" lon="6.8741">
        <ele>2770.7</ele>
        <time>2026-03-23T12:13:44Z</time>
      </trkpt>
      <trkpt lat="44.7454" lon="6.8741">
        <ele>2770.7</ele>
        <time>2026-03-23T12:13:45Z</time>
      </trkpt>
      <trkpt lat="44.7454" lon="6.8741">
        <ele>2770.7</ele>
        <time>2026-03-23T12:13:46Z</time>
      </trkpt>
      <trkpt lat="44.7454" lon="6.8741">
        <ele>2770.7</ele>
        <time>2026-03-23T12:13:47Z</time>
      </trkpt>
      <trkpt lat="44.7454" lon="6.8741">
        <ele>2770.6</ele>
        <time>2026-03-23T12:13:48Z</time>
      </trkpt>
      <trkpt lat="44.7454" lon="6.8741">
        <ele>2770.6</ele>
        <time>2026-03-23T12:13:49Z</time>
      </trkpt>
      <trkpt lat="44.7454" lon="6.8741">
        <ele>2770.6</ele>
        <time>2026-03-23T12:13:50Z</time>
      </trkpt>
      <trkpt lat="44.7454" lon="6.8741">
        <ele>2770.6</ele>
        <time>2026-03-23T12:13:51Z</time>
      </trkpt>
      <trkpt lat="44.7454" lon="6.8741">
        <ele>2770.6</ele>
        <time>2026-03-23T12:13:52Z</time>
      </trkpt>
      <trkpt lat="44.7454" lon="6.8741">
        <ele>2770.6</ele>
        <time>2026-03-23T12:13:53Z</time>
      </trkpt>
      <trkpt lat="44.7454" lon="6.8741">
        <ele>2770.6</ele>
        <time>2026-03-23T12:13:54Z</time>
      </trkpt>
      <trkpt lat="44.7454" lon="6.8741">
        <ele>2770.6</ele>
        <time>2026-03-23T12:13:55Z</time>
      </trkpt>
      <trkpt lat="44.7454" lon="6.8741">
        <ele>2770.6</ele>
        <time>2026-03-23T12:13:56Z</time>
      </trkpt>
      <trkpt lat="44.7454" lon="6.8741">
        <ele>2770.6</ele>
        <time>2026-03-23T12:13:57Z</time>
      </trkpt>
      <trkpt lat="44.7454" lon="6.8741">
        <ele>2770.5</ele>
        <time>2026-03-23T12:13:58Z</time>
      </trkpt>
      <trkpt lat="44.7454" lon="6.8741">
        <ele>2770.5</ele>
        <time>2026-03-23T12:13:59Z</time>
      </trkpt>
      <trkpt lat="44.7454" lon="6.8741">
        <ele>2770.5</ele>
        <time>2026-03-23T12:14:00Z</time>
      </trkpt>
      <trkpt lat="44.7454" lon="6.8741">
        <ele>2770.5</ele>
        <time>2026-03-23T12:14:01Z</time>
      </trkpt>
      <trkpt lat="44.7454" lon="6.8741">
        <ele>2770.5</ele>
        <time>2026-03-23T12:14:02Z</time>
      </trkpt>
      <trkpt lat="44.7454" lon="6.8741">
        <ele>2770.5</ele>
        <time>2026-03-23T12:14:03Z</time>
      </trkpt>
      <trkpt lat="44.7454" lon="6.8741">
        <ele>2770.5</ele>
        <time>2026-03-23T12:14:04Z</time>
      </trkpt>
      <trkpt lat="44.7454" lon="6.8741">
        <ele>2770.5</ele>
        <time>2026-03-23T12:14:05Z</time>
      </trkpt>
      <trkpt lat="44.7454" lon="6.8741">
        <ele>2770.5</ele>
        <time>2026-03-23T12:14:06Z</time>
      </trkpt>
      <trkpt lat="44.7454" lon="6.8741">
        <ele>2770.4</ele>
        <time>2026-03-23T12:14:07Z</time>
      </trkpt>
      <trkpt lat="44.7454" lon="6.8741">
        <ele>2770.4</ele>
        <time>2026-03-23T12:14:08Z</time>
      </trkpt>
      <trkpt lat="44.7454" lon="6.8741">
        <ele>2770.4</ele>
        <time>2026-03-23T12:14:09Z</time>
      </trkpt>
      <trkpt lat="44.7454" lon="6.8741">
        <ele>2770.4</ele>
        <time>2026-03-23T12:14:10Z</time>
      </trkpt>
      <trkpt lat="44.7454" lon="6.8741">
        <ele>2770.4</ele>
        <time>2026-03-23T12:14:11Z</time>
      </trkpt>
      <trkpt lat="44.7454" lon="6.8741">
        <ele>2770.4</ele>
        <time>2026-03-23T12:14:12Z</time>
      </trkpt>
      <trkpt lat="44.7454" lon="6.8741">
        <ele>2770.4</ele>
        <time>2026-03-23T12:14:13Z</time>
      </trkpt>
      <trkpt lat="44.7454" lon="6.8741">
        <ele>2770.4</ele>
        <time>2026-03-23T12:14:14Z</time>
      </trkpt>
      <trkpt lat="44.7454" lon="6.87409">
        <ele>2770.2</ele>
        <time>2026-03-23T12:14:15Z</time>
      </trkpt>
      <trkpt lat="44.7454" lon="6.87409">
        <ele>2770.2</ele>
        <time>2026-03-23T12:14:16Z</time>
      </trkpt>
      <trkpt lat="44.7454" lon="6.87409">
        <ele>2770.2</ele>
        <time>2026-03-23T12:14:17Z</time>
      </trkpt>
      <trkpt lat="44.7454" lon="6.87409">
        <ele>2770.2</ele>
        <time>2026-03-23T12:14:18Z</time>
      </trkpt>
      <trkpt lat="44.7454" lon="6.87409">
        <ele>2770.2</ele>
        <time>2026-03-23T12:14:19Z</time>
      </trkpt>
      <trkpt lat="44.7454" lon="6.87409">
        <ele>2770.2</ele>
        <time>2026-03-23T12:14:20Z</time>
      </trkpt>
      <trkpt lat="44.7454" lon="6.87409">
        <ele>2770.2</ele>
        <time>2026-03-23T12:14:21Z</time>
      </trkpt>
      <trkpt lat="44.7454" lon="6.87409">
        <ele>2770.2</ele>
        <time>2026-03-23T12:14:22Z</time>
      </trkpt>
      <trkpt lat="44.7454" lon="6.87409">
        <ele>2770.2</ele>
        <time>2026-03-23T12:14:23Z</time>
      </trkpt>
      <trkpt lat="44.7454" lon="6.87409">
        <ele>2770.1</ele>
        <time>2026-03-23T12:14:24Z</time>
      </trkpt>
      <trkpt lat="44.7454" lon="6.87409">
        <ele>2770.1</ele>
        <time>2026-03-23T12:14:25Z</time>
      </trkpt>
      <trkpt lat="44.7454" lon="6.87409">
        <ele>2770.1</ele>
        <time>2026-03-23T12:14:26Z</time>
      </trkpt>
      <trkpt lat="44.7454" lon="6.87409">
        <ele>2770.1</ele>
        <time>2026-03-23T12:14:27Z</time>
      </trkpt>
      <trkpt lat="44.7454" lon="6.87409">
        <ele>2770.1</ele>
        <time>2026-03-23T12:14:28Z</time>
      </trkpt>
      <trkpt lat="44.7454" lon="6.87409">
        <ele>2770.1</ele>
        <time>2026-03-23T12:14:29Z</time>
      </trkpt>
      <trkpt lat="44.7454" lon="6.87409">
        <ele>2770.1</ele>
        <time>2026-03-23T12:14:30Z</time>
      </trkpt>
      <trkpt lat="44.7454" lon="6.87409">
        <ele>2770.1</ele>
        <time>2026-03-23T12:14:31Z</time>
      </trkpt>
      <trkpt lat="44.7454" lon="6.87409">
        <ele>2770.1</ele>
        <time>2026-03-23T12:14:32Z</time>
      </trkpt>
      <trkpt lat="44.7454" lon="6.87409">
        <ele>2770</ele>
        <time>2026-03-23T12:14:33Z</time>
      </trkpt>
      <trkpt lat="44.7454" lon="6.87409">
        <ele>2770</ele>
        <time>2026-03-23T12:14:34Z</time>
      </trkpt>
      <trkpt lat="44.7454" lon="6.87409">
        <ele>2770</ele>
        <time>2026-03-23T12:14:35Z</time>
      </trkpt>
      <trkpt lat="44.7454" lon="6.87409">
        <ele>2770</ele>
        <time>2026-03-23T12:14:36Z</time>
      </trkpt>
      <trkpt lat="44.74541" lon="6.87409">
        <ele>2770</ele>
        <time>2026-03-23T12:14:37Z</time>
      </trkpt>
      <trkpt lat="44.74541" lon="6.87409">
        <ele>2770</ele>
        <time>2026-03-23T12:14:38Z</time>
      </trkpt>
      <trkpt lat="44.74541" lon="6.87409">
        <ele>2770</ele>
        <time>2026-03-23T12:14:39Z</time>
      </trkpt>
      <trkpt lat="44.74541" lon="6.87409">
        <ele>2770</ele>
        <time>2026-03-23T12:14:40Z</time>
      </trkpt>
      <trkpt lat="44.74541" lon="6.87409">
        <ele>2770</ele>
        <time>2026-03-23T12:14:41Z</time>
      </trkpt>
      <trkpt lat="44.74541" lon="6.87409">
        <ele>2769.9</ele>
        <time>2026-03-23T12:14:42Z</time>
      </trkpt>
      <trkpt lat="44.74541" lon="6.87409">
        <ele>2769.9</ele>
        <time>2026-03-23T12:14:43Z</time>
      </trkpt>
      <trkpt lat="44.74541" lon="6.87409">
        <ele>2769.9</ele>
        <time>2026-03-23T12:14:44Z</time>
      </trkpt>
      <trkpt lat="44.74541" lon="6.87409">
        <ele>2769.9</ele>
        <time>2026-03-23T12:14:45Z</time>
      </trkpt>
      <trkpt lat="44.74541" lon="6.87409">
        <ele>2769.9</ele>
        <time>2026-03-23T12:14:46Z</time>
      </trkpt>
      <trkpt lat="44.74541" lon="6.87409">
        <ele>2769.9</ele>
        <time>2026-03-23T12:14:47Z</time>
      </trkpt>
      <trkpt lat="44.74541" lon="6.87409">
        <ele>2769.9</ele>
        <time>2026-03-23T12:14:48Z</time>
      </trkpt>
      <trkpt lat="44.74541" lon="6.87409">
        <ele>2769.9</ele>
        <time>2026-03-23T12:14:49Z</time>
      </trkpt>
      <trkpt lat="44.74541" lon="6.87409">
        <ele>2769.9</ele>
        <time>2026-03-23T12:14:50Z</time>
      </trkpt>
      <trkpt lat="44.74541" lon="6.87409">
        <ele>2769.8</ele>
        <time>2026-03-23T12:14:51Z</time>
      </trkpt>
      <trkpt lat="44.74541" lon="6.87409">
        <ele>2769.8</ele>
        <time>2026-03-23T12:14:52Z</time>
      </trkpt>
      <trkpt lat="44.74541" lon="6.87409">
        <ele>2769.8</ele>
        <time>2026-03-23T12:14:53Z</time>
      </trkpt>
      <trkpt lat="44.74541" lon="6.87409">
        <ele>2769.8</ele>
        <time>2026-03-23T12:14:54Z</time>
      </trkpt>
      <trkpt lat="44.74541" lon="6.87409">
        <ele>2769.8</ele>
        <time>2026-03-23T12:14:55Z</time>
      </trkpt>
      <trkpt lat="44.74541" lon="6.87409">
        <ele>2769.8</ele>
        <time>2026-03-23T12:14:56Z</time>
      </trkpt>
      <trkpt lat="44.74541" lon="6.87409">
        <ele>2769.8</ele>
        <time>2026-03-23T12:14:57Z</time>
      </trkpt>
      <trkpt lat="44.74541" lon="6.87409">
        <ele>2769.8</ele>
        <time>2026-03-23T12:14:58Z</time>
      </trkpt>
      <trkpt lat="44.74541" lon="6.87409">
        <ele>2769.8</ele>
        <time>2026-03-23T12:14:59Z</time>
      </trkpt>
      <trkpt lat="44.74541" lon="6.87409">
        <ele>2769.8</ele>
        <time>2026-03-23T12:15:00Z</time>
      </trkpt>
      <trkpt lat="44.74541" lon="6.87409">
        <ele>2769.7</ele>
        <time>2026-03-23T12:15:01Z</time>
      </trkpt>
      <trkpt lat="44.74541" lon="6.87409">
        <ele>2769.7</ele>
        <time>2026-03-23T12:15:02Z</time>
      </trkpt>
      <trkpt lat="44.74541" lon="6.87409">
        <ele>2769.7</ele>
        <time>2026-03-23T12:15:03Z</time>
      </trkpt>
      <trkpt lat="44.74541" lon="6.87409">
        <ele>2769.7</ele>
        <time>2026-03-23T12:15:04Z</time>
      </trkpt>
      <trkpt lat="44.74541" lon="6.87409">
        <ele>2769.7</ele>
        <time>2026-03-23T12:15:05Z</time>
      </trkpt>
      <trkpt lat="44.74541" lon="6.87409">
        <ele>2769.7</ele>
        <time>2026-03-23T12:15:06Z</time>
      </trkpt>
      <trkpt lat="44.74541" lon="6.87409">
        <ele>2769.7</ele>
        <time>2026-03-23T12:15:07Z</time>
      </trkpt>
      <trkpt lat="44.74541" lon="6.87409">
        <ele>2769.7</ele>
        <time>2026-03-23T12:15:08Z</time>
      </trkpt>
      <trkpt lat="44.74541" lon="6.87409">
        <ele>2769.7</ele>
        <time>2026-03-23T12:15:09Z</time>
      </trkpt>
      <trkpt lat="44.74541" lon="6.87409">
        <ele>2769.6</ele>
        <time>2026-03-23T12:15:10Z</time>
      </trkpt>
      <trkpt lat="44.74541" lon="6.87409">
        <ele>2769.6</ele>
        <time>2026-03-23T12:15:11Z</time>
      </trkpt>
      <trkpt lat="44.74541" lon="6.87409">
        <ele>2769.6</ele>
        <time>2026-03-23T12:15:12Z</time>
      </trkpt>
      <trkpt lat="44.74541" lon="6.87409">
        <ele>2769.6</ele>
        <time>2026-03-23T12:15:13Z</time>
      </trkpt>
      <trkpt lat="44.74541" lon="6.87409">
        <ele>2769.6</ele>
        <time>2026-03-23T12:15:14Z</time>
      </trkpt>
      <trkpt lat="44.74541" lon="6.87409">
        <ele>2769.6</ele>
        <time>2026-03-23T12:15:15Z</time>
      </trkpt>
      <trkpt lat="44.74541" lon="6.87409">
        <ele>2769.6</ele>
        <time>2026-03-23T12:15:16Z</time>
      </trkpt>
      <trkpt lat="44.74541" lon="6.87409">
        <ele>2769.6</ele>
        <time>2026-03-23T12:15:17Z</time>
      </trkpt>
      <trkpt lat="44.74541" lon="6.87409">
        <ele>2769.6</ele>
        <time>2026-03-23T12:15:18Z</time>
      </trkpt>
      <trkpt lat="44.74541" lon="6.87409">
        <ele>2769.5</ele>
        <time>2026-03-23T12:15:19Z</time>
      </trkpt>
      <trkpt lat="44.74541" lon="6.87409">
        <ele>2769.5</ele>
        <time>2026-03-23T12:15:20Z</time>
      </trkpt>
      <trkpt lat="44.74541" lon="6.87409">
        <ele>2769.5</ele>
        <time>2026-03-23T12:15:21Z</time>
      </trkpt>
      <trkpt lat="44.74541" lon="6.87409">
        <ele>2769.5</ele>
        <time>2026-03-23T12:15:22Z</time>
      </trkpt>
      <trkpt lat="44.74541" lon="6.87409">
        <ele>2769.5</ele>
        <time>2026-03-23T12:15:23Z</time>
      </trkpt>
      <trkpt lat="44.74541" lon="6.87409">
        <ele>2769.5</ele>
        <time>2026-03-23T12:15:24Z</time>
      </trkpt>
      <trkpt lat="44.74541" lon="6.87409">
        <ele>2769.5</ele>
        <time>2026-03-23T12:15:25Z</time>
      </trkpt>
      <trkpt lat="44.74541" lon="6.87409">
        <ele>2769.5</ele>
        <time>2026-03-23T12:15:26Z</time>
      </trkpt>
      <trkpt lat="44.74541" lon="6.87409">
        <ele>2769.5</ele>
        <time>2026-03-23T12:15:27Z</time>
      </trkpt>
      <trkpt lat="44.74541" lon="6.87409">
        <ele>2769.4</ele>
        <time>2026-03-23T12:15:28Z</time>
      </trkpt>
      <trkpt lat="44.74541" lon="6.87409">
        <ele>2769.4</ele>
        <time>2026-03-23T12:15:29Z</time>
      </trkpt>
      <trkpt lat="44.74541" lon="6.87409">
        <ele>2769.4</ele>
        <time>2026-03-23T12:15:30Z</time>
      </trkpt>
      <trkpt lat="44.74541" lon="6.87409">
        <ele>2769.4</ele>
        <time>2026-03-23T12:15:31Z</time>
      </trkpt>
      <trkpt lat="44.74541" lon="6.87409">
        <ele>2769.4</ele>
        <time>2026-03-23T12:15:32Z</time>
      </trkpt>
      <trkpt lat="44.74541" lon="6.87409">
        <ele>2769.4</ele>
        <time>2026-03-23T12:15:33Z</time>
      </trkpt>
      <trkpt lat="44.74541" lon="6.87409">
        <ele>2769.4</ele>
        <time>2026-03-23T12:15:34Z</time>
      </trkpt>
      <trkpt lat="44.74541" lon="6.87409">
        <ele>2769.4</ele>
        <time>2026-03-23T12:15:35Z</time>
      </trkpt>
      <trkpt lat="44.74541" lon="6.87409">
        <ele>2769.4</ele>
        <time>2026-03-23T12:15:36Z</time>
      </trkpt>
      <trkpt lat="44.74541" lon="6.87409">
        <ele>2769.3</ele>
        <time>2026-03-23T12:15:37Z</time>
      </trkpt>
      <trkpt lat="44.74541" lon="6.87409">
        <ele>2769.3</ele>
        <time>2026-03-23T12:15:38Z</time>
      </trkpt>
      <trkpt lat="44.74541" lon="6.87409">
        <ele>2769.3</ele>
        <time>2026-03-23T12:15:39Z</time>
      </trkpt>
      <trkpt lat="44.74541" lon="6.87409">
        <ele>2769.3</ele>
        <time>2026-03-23T12:15:40Z</time>
      </trkpt>
      <trkpt lat="44.74541" lon="6.87409">
        <ele>2769.3</ele>
        <time>2026-03-23T12:15:41Z</time>
      </trkpt>
      <trkpt lat="44.74541" lon="6.87409">
        <ele>2769.3</ele>
        <time>2026-03-23T12:15:42Z</time>
      </trkpt>
      <trkpt lat="44.74541" lon="6.87409">
        <ele>2769.3</ele>
        <time>2026-03-23T12:15:43Z</time>
      </trkpt>
      <trkpt lat="44.74541" lon="6.87409">
        <ele>2769.3</ele>
        <time>2026-03-23T12:15:44Z</time>
      </trkpt>
      <trkpt lat="44.74541" lon="6.87409">
        <ele>2769.3</ele>
        <time>2026-03-23T12:15:45Z</time>
      </trkpt>
      <trkpt lat="44.74541" lon="6.87409">
        <ele>2769.2</ele>
        <time>2026-03-23T12:15:46Z</time>
      </trkpt>
      <trkpt lat="44.74541" lon="6.87409">
        <ele>2769.2</ele>
        <time>2026-03-23T12:15:47Z</time>
      </trkpt>
      <trkpt lat="44.74541" lon="6.87409">
        <ele>2769.2</ele>
        <time>2026-03-23T12:15:48Z</time>
      </trkpt>
      <trkpt lat="44.74541" lon="6.87409">
        <ele>2769.2</ele>
        <time>2026-03-23T12:15:49Z</time>
      </trkpt>
      <trkpt lat="44.74541" lon="6.87409">
        <ele>2769.2</ele>
        <time>2026-03-23T12:15:50Z</time>
      </trkpt>
      <trkpt lat="44.74541" lon="6.87409">
        <ele>2769.2</ele>
        <time>2026-03-23T12:15:51Z</time>
      </trkpt>
      <trkpt lat="44.74541" lon="6.87409">
        <ele>2769.2</ele>
        <time>2026-03-23T12:15:52Z</time>
      </trkpt>
      <trkpt lat="44.74541" lon="6.87409">
        <ele>2769.2</ele>
        <time>2026-03-23T12:15:53Z</time>
      </trkpt>
      <trkpt lat="44.74541" lon="6.87409">
        <ele>2769.2</ele>
        <time>2026-03-23T12:15:54Z</time>
      </trkpt>
      <trkpt lat="44.74541" lon="6.87409">
        <ele>2769.1</ele>
        <time>2026-03-23T12:15:55Z</time>
      </trkpt>
      <trkpt lat="44.74541" lon="6.87409">
        <ele>2769.1</ele>
        <time>2026-03-23T12:15:56Z</time>
      </trkpt>
      <trkpt lat="44.74541" lon="6.87409">
        <ele>2769.1</ele>
        <time>2026-03-23T12:15:57Z</time>
      </trkpt>
      <trkpt lat="44.74541" lon="6.87409">
        <ele>2769.1</ele>
        <time>2026-03-23T12:15:58Z</time>
      </trkpt>
      <trkpt lat="44.74541" lon="6.87409">
        <ele>2769.1</ele>
        <time>2026-03-23T12:15:59Z</time>
      </trkpt>
      <trkpt lat="44.74541" lon="6.87409">
        <ele>2769.1</ele>
        <time>2026-03-23T12:16:00Z</time>
      </trkpt>
      <trkpt lat="44.74541" lon="6.87409">
        <ele>2769.1</ele>
        <time>2026-03-23T12:16:01Z</time>
      </trkpt>
      <trkpt lat="44.74541" lon="6.87409">
        <ele>2769.1</ele>
        <time>2026-03-23T12:16:02Z</time>
      </trkpt>
      <trkpt lat="44.74541" lon="6.87409">
        <ele>2769.1</ele>
        <time>2026-03-23T12:16:03Z</time>
      </trkpt>
      <trkpt lat="44.74541" lon="6.87409">
        <ele>2769</ele>
        <time>2026-03-23T12:16:04Z</time>
      </trkpt>
      <trkpt lat="44.74541" lon="6.87409">
        <ele>2769</ele>
        <time>2026-03-23T12:16:05Z</time>
      </trkpt>
      <trkpt lat="44.74541" lon="6.87409">
        <ele>2769</ele>
        <time>2026-03-23T12:16:06Z</time>
      </trkpt>
      <trkpt lat="44.74541" lon="6.87409">
        <ele>2769</ele>
        <time>2026-03-23T12:16:07Z</time>
      </trkpt>
      <trkpt lat="44.74541" lon="6.87409">
        <ele>2769</ele>
        <time>2026-03-23T12:16:08Z</time>
      </trkpt>
      <trkpt lat="44.74541" lon="6.87409">
        <ele>2769</ele>
        <time>2026-03-23T12:16:09Z</time>
      </trkpt>
      <trkpt lat="44.74541" lon="6.87409">
        <ele>2769</ele>
        <time>2026-03-23T12:16:10Z</time>
      </trkpt>
      <trkpt lat="44.74541" lon="6.87409">
        <ele>2769</ele>
        <time>2026-03-23T12:16:11Z</time>
      </trkpt>
      <trkpt lat="44.74541" lon="6.87409">
        <ele>2769</ele>
        <time>2026-03-23T12:16:12Z</time>
      </trkpt>
      <trkpt lat="44.74541" lon="6.87409">
        <ele>2768.9</ele>
        <time>2026-03-23T12:16:13Z</time>
      </trkpt>
      <trkpt lat="44.74541" lon="6.87409">
        <ele>2768.9</ele>
        <time>2026-03-23T12:16:14Z</time>
      </trkpt>
      <trkpt lat="44.74541" lon="6.87409">
        <ele>2768.9</ele>
        <time>2026-03-23T12:16:15Z</time>
      </trkpt>
      <trkpt lat="44.74541" lon="6.87409">
        <ele>2768.9</ele>
        <time>2026-03-23T12:16:16Z</time>
      </trkpt>
      <trkpt lat="44.74541" lon="6.87409">
        <ele>2768.9</ele>
        <time>2026-03-23T12:16:17Z</time>
      </trkpt>
      <trkpt lat="44.74541" lon="6.87409">
        <ele>2768.9</ele>
        <time>2026-03-23T12:16:18Z</time>
      </trkpt>
      <trkpt lat="44.74541" lon="6.87409">
        <ele>2768.9</ele>
        <time>2026-03-23T12:16:19Z</time>
      </trkpt>
      <trkpt lat="44.74541" lon="6.87409">
        <ele>2768.9</ele>
        <time>2026-03-23T12:16:20Z</time>
      </trkpt>
      <trkpt lat="44.74541" lon="6.87409">
        <ele>2768.9</ele>
        <time>2026-03-23T12:16:21Z</time>
      </trkpt>
      <trkpt lat="44.74541" lon="6.87409">
        <ele>2768.8</ele>
        <time>2026-03-23T12:16:22Z</time>
      </trkpt>
      <trkpt lat="44.74541" lon="6.87409">
        <ele>2768.8</ele>
        <time>2026-03-23T12:16:23Z</time>
      </trkpt>
      <trkpt lat="44.74541" lon="6.87409">
        <ele>2768.8</ele>
        <time>2026-03-23T12:16:24Z</time>
      </trkpt>
      <trkpt lat="44.74541" lon="6.87409">
        <ele>2768.8</ele>
        <time>2026-03-23T12:16:25Z</time>
      </trkpt>
      <trkpt lat="44.74541" lon="6.87409">
        <ele>2768.8</ele>
        <time>2026-03-23T12:16:26Z</time>
      </trkpt>
      <trkpt lat="44.74541" lon="6.87409">
        <ele>2768.8</ele>
        <time>2026-03-23T12:16:27Z</time>
      </trkpt>
      <trkpt lat="44.74541" lon="6.87409">
        <ele>2768.8</ele>
        <time>2026-03-23T12:16:28Z</time>
      </trkpt>
      <trkpt lat="44.74541" lon="6.87409">
        <ele>2768.8</ele>
        <time>2026-03-23T12:16:29Z</time>
      </trkpt>
      <trkpt lat="44.74541" lon="6.87409">
        <ele>2768.8</ele>
        <time>2026-03-23T12:16:30Z</time>
      </trkpt>
      <trkpt lat="44.74541" lon="6.87409">
        <ele>2768.7</ele>
        <time>2026-03-23T12:16:31Z</time>
      </trkpt>
      <trkpt lat="44.74541" lon="6.87409">
        <ele>2768.7</ele>
        <time>2026-03-23T12:16:32Z</time>
      </trkpt>
      <trkpt lat="44.74541" lon="6.87409">
        <ele>2768.7</ele>
        <time>2026-03-23T12:16:33Z</time>
      </trkpt>
      <trkpt lat="44.74541" lon="6.87409">
        <ele>2768.7</ele>
        <time>2026-03-23T12:16:34Z</time>
      </trkpt>
      <trkpt lat="44.74541" lon="6.87409">
        <ele>2768.7</ele>
        <time>2026-03-23T12:16:35Z</time>
      </trkpt>
      <trkpt lat="44.74541" lon="6.87409">
        <ele>2768.7</ele>
        <time>2026-03-23T12:16:36Z</time>
      </trkpt>
      <trkpt lat="44.74541" lon="6.87409">
        <ele>2768.7</ele>
        <time>2026-03-23T12:16:37Z</time>
      </trkpt>
      <trkpt lat="44.74541" lon="6.87409">
        <ele>2768.7</ele>
        <time>2026-03-23T12:16:38Z</time>
      </trkpt>
      <trkpt lat="44.74541" lon="6.87409">
        <ele>2768.7</ele>
        <time>2026-03-23T12:16:39Z</time>
      </trkpt>
      <trkpt lat="44.74541" lon="6.87409">
        <ele>2768.6</ele>
        <time>2026-03-23T12:16:40Z</time>
      </trkpt>
      <trkpt lat="44.74541" lon="6.87409">
        <ele>2768.6</ele>
        <time>2026-03-23T12:16:41Z</time>
      </trkpt>
      <trkpt lat="44.74541" lon="6.87409">
        <ele>2768.6</ele>
        <time>2026-03-23T12:16:42Z</time>
      </trkpt>
      <trkpt lat="44.74541" lon="6.87409">
        <ele>2768.6</ele>
        <time>2026-03-23T12:16:43Z</time>
      </trkpt>
      <trkpt lat="44.74541" lon="6.87409">
        <ele>2768.6</ele>
        <time>2026-03-23T12:16:44Z</time>
      </trkpt>
      <trkpt lat="44.74541" lon="6.87409">
        <ele>2768.6</ele>
        <time>2026-03-23T12:16:45Z</time>
      </trkpt>
      <trkpt lat="44.74541" lon="6.87409">
        <ele>2768.6</ele>
        <time>2026-03-23T12:16:46Z</time>
      </trkpt>
      <trkpt lat="44.74541" lon="6.87409">
        <ele>2768.6</ele>
        <time>2026-03-23T12:16:47Z</time>
      </trkpt>
      <trkpt lat="44.74541" lon="6.87409">
        <ele>2768.6</ele>
        <time>2026-03-23T12:16:48Z</time>
      </trkpt>
      <trkpt lat="44.74541" lon="6.87409">
        <ele>2768.5</ele>
        <time>2026-03-23T12:16:49Z</time>
      </trkpt>
      <trkpt lat="44.74541" lon="6.87409">
        <ele>2768.5</ele>
        <time>2026-03-23T12:16:50Z</time>
      </trkpt>
      <trkpt lat="44.74541" lon="6.87409">
        <ele>2768.5</ele>
        <time>2026-03-23T12:16:51Z</time>
      </trkpt>
      <trkpt lat="44.74541" lon="6.87409">
        <ele>2768.5</ele>
        <time>2026-03-23T12:16:52Z</time>
      </trkpt>
      <trkpt lat="44.74541" lon="6.87409">
        <ele>2768.5</ele>
        <time>2026-03-23T12:16:53Z</time>
      </trkpt>
      <trkpt lat="44.74541" lon="6.87408">
        <ele>2768.5</ele>
        <time>2026-03-23T12:16:54Z</time>
      </trkpt>
      <trkpt lat="44.74541" lon="6.87408">
        <ele>2768.5</ele>
        <time>2026-03-23T12:16:55Z</time>
      </trkpt>
      <trkpt lat="44.74541" lon="6.87408">
        <ele>2768.5</ele>
        <time>2026-03-23T12:16:56Z</time>
      </trkpt>
      <trkpt lat="44.74541" lon="6.87408">
        <ele>2768.5</ele>
        <time>2026-03-23T12:16:57Z</time>
      </trkpt>
      <trkpt lat="44.74541" lon="6.87408">
        <ele>2768.4</ele>
        <time>2026-03-23T12:16:58Z</time>
      </trkpt>
      <trkpt lat="44.74541" lon="6.87408">
        <ele>2768.4</ele>
        <time>2026-03-23T12:16:59Z</time>
      </trkpt>
      <trkpt lat="44.74541" lon="6.87408">
        <ele>2768.4</ele>
        <time>2026-03-23T12:17:00Z</time>
      </trkpt>
      <trkpt lat="44.74541" lon="6.87408">
        <ele>2768.4</ele>
        <time>2026-03-23T12:17:01Z</time>
      </trkpt>
      <trkpt lat="44.74541" lon="6.87408">
        <ele>2768.4</ele>
        <time>2026-03-23T12:17:02Z</time>
      </trkpt>
      <trkpt lat="44.74541" lon="6.87408">
        <ele>2768.4</ele>
        <time>2026-03-23T12:17:03Z</time>
      </trkpt>
      <trkpt lat="44.74541" lon="6.87408">
        <ele>2768.4</ele>
        <time>2026-03-23T12:17:04Z</time>
      </trkpt>
      <trkpt lat="44.74541" lon="6.87408">
        <ele>2768.4</ele>
        <time>2026-03-23T12:17:05Z</time>
      </trkpt>
      <trkpt lat="44.74541" lon="6.87408">
        <ele>2768.4</ele>
        <time>2026-03-23T12:17:06Z</time>
      </trkpt>
      <trkpt lat="44.74541" lon="6.87408">
        <ele>2768.3</ele>
        <time>2026-03-23T12:17:07Z</time>
      </trkpt>
      <trkpt lat="44.74541" lon="6.87408">
        <ele>2768.3</ele>
        <time>2026-03-23T12:17:08Z</time>
      </trkpt>
      <trkpt lat="44.74541" lon="6.87408">
        <ele>2768.3</ele>
        <time>2026-03-23T12:17:09Z</time>
      </trkpt>
      <trkpt lat="44.74541" lon="6.87408">
        <ele>2768.3</ele>
        <time>2026-03-23T12:17:10Z</time>
      </trkpt>
      <trkpt lat="44.74541" lon="6.87408">
        <ele>2768.3</ele>
        <time>2026-03-23T12:17:11Z</time>
      </trkpt>
      <trkpt lat="44.74541" lon="6.87408">
        <ele>2768.3</ele>
        <time>2026-03-23T12:17:12Z</time>
      </trkpt>
      <trkpt lat="44.74541" lon="6.87408">
        <ele>2768.3</ele>
        <time>2026-03-23T12:17:13Z</time>
      </trkpt>
      <trkpt lat="44.74541" lon="6.87408">
        <ele>2768.3</ele>
        <time>2026-03-23T12:17:14Z</time>
      </trkpt>
      <trkpt lat="44.74541" lon="6.87408">
        <ele>2768.3</ele>
        <time>2026-03-23T12:17:15Z</time>
      </trkpt>
      <trkpt lat="44.74541" lon="6.87408">
        <ele>2768.2</ele>
        <time>2026-03-23T12:17:16Z</time>
      </trkpt>
      <trkpt lat="44.74541" lon="6.87408">
        <ele>2768.2</ele>
        <time>2026-03-23T12:17:17Z</time>
      </trkpt>
      <trkpt lat="44.74541" lon="6.87408">
        <ele>2768.2</ele>
        <time>2026-03-23T12:17:18Z</time>
      </trkpt>
      <trkpt lat="44.74541" lon="6.87408">
        <ele>2768.2</ele>
        <time>2026-03-23T12:17:19Z</time>
      </trkpt>
      <trkpt lat="44.74541" lon="6.87408">
        <ele>2768.2</ele>
        <time>2026-03-23T12:17:20Z</time>
      </trkpt>
      <trkpt lat="44.74541" lon="6.87408">
        <ele>2768.2</ele>
        <time>2026-03-23T12:17:21Z</time>
      </trkpt>
      <trkpt lat="44.74541" lon="6.87408">
        <ele>2768.2</ele>
        <time>2026-03-23T12:17:22Z</time>
      </trkpt>
      <trkpt lat="44.74541" lon="6.87408">
        <ele>2768.2</ele>
        <time>2026-03-23T12:17:23Z</time>
      </trkpt>
      <trkpt lat="44.74541" lon="6.87408">
        <ele>2768.2</ele>
        <time>2026-03-23T12:17:24Z</time>
      </trkpt>
      <trkpt lat="44.74541" lon="6.87408">
        <ele>2768.2</ele>
        <time>2026-03-23T12:17:25Z</time>
      </trkpt>
      <trkpt lat="44.74541" lon="6.87408">
        <ele>2768.1</ele>
        <time>2026-03-23T12:17:26Z</time>
      </trkpt>
      <trkpt lat="44.74541" lon="6.87408">
        <ele>2768.1</ele>
        <time>2026-03-23T12:17:27Z</time>
      </trkpt>
      <trkpt lat="44.74542" lon="6.87408">
        <ele>2768.1</ele>
        <time>2026-03-23T12:17:28Z</time>
      </trkpt>
      <trkpt lat="44.74542" lon="6.87408">
        <ele>2768.1</ele>
        <time>2026-03-23T12:17:29Z</time>
      </trkpt>
      <trkpt lat="44.74542" lon="6.87408">
        <ele>2768.1</ele>
        <time>2026-03-23T12:17:30Z</time>
      </trkpt>
      <trkpt lat="44.74542" lon="6.87408">
        <ele>2768.1</ele>
        <time>2026-03-23T12:17:31Z</time>
      </trkpt>
      <trkpt lat="44.74542" lon="6.87408">
        <ele>2768.1</ele>
        <time>2026-03-23T12:17:32Z</time>
      </trkpt>
      <trkpt lat="44.74542" lon="6.87408">
        <ele>2768.1</ele>
        <time>2026-03-23T12:17:33Z</time>
      </trkpt>
      <trkpt lat="44.74542" lon="6.87408">
        <ele>2768.1</ele>
        <time>2026-03-23T12:17:34Z</time>
      </trkpt>
      <trkpt lat="44.74542" lon="6.87408">
        <ele>2768</ele>
        <time>2026-03-23T12:17:35Z</time>
      </trkpt>
      <trkpt lat="44.74542" lon="6.87408">
        <ele>2768</ele>
        <time>2026-03-23T12:17:36Z</time>
      </trkpt>
      <trkpt lat="44.74542" lon="6.87408">
        <ele>2768</ele>
        <time>2026-03-23T12:17:37Z</time>
      </trkpt>
      <trkpt lat="44.74542" lon="6.87408">
        <ele>2768</ele>
        <time>2026-03-23T12:17:38Z</time>
      </trkpt>
      <trkpt lat="44.74542" lon="6.87408">
        <ele>2768</ele>
        <time>2026-03-23T12:17:39Z</time>
      </trkpt>
      <trkpt lat="44.74542" lon="6.87408">
        <ele>2768</ele>
        <time>2026-03-23T12:17:40Z</time>
      </trkpt>
      <trkpt lat="44.74542" lon="6.87408">
        <ele>2768</ele>
        <time>2026-03-23T12:17:41Z</time>
      </trkpt>
      <trkpt lat="44.74542" lon="6.87408">
        <ele>2768</ele>
        <time>2026-03-23T12:17:42Z</time>
      </trkpt>
      <trkpt lat="44.74542" lon="6.87408">
        <ele>2768</ele>
        <time>2026-03-23T12:17:43Z</time>
      </trkpt>
      <trkpt lat="44.74542" lon="6.87408">
        <ele>2767.9</ele>
        <time>2026-03-23T12:17:44Z</time>
      </trkpt>
      <trkpt lat="44.74542" lon="6.87408">
        <ele>2767.9</ele>
        <time>2026-03-23T12:17:45Z</time>
      </trkpt>
      <trkpt lat="44.74542" lon="6.87408">
        <ele>2767.9</ele>
        <time>2026-03-23T12:17:46Z</time>
      </trkpt>
      <trkpt lat="44.74542" lon="6.87408">
        <ele>2767.9</ele>
        <time>2026-03-23T12:17:47Z</time>
      </trkpt>
      <trkpt lat="44.74542" lon="6.87408">
        <ele>2767.9</ele>
        <time>2026-03-23T12:17:48Z</time>
      </trkpt>
      <trkpt lat="44.74542" lon="6.87408">
        <ele>2767.9</ele>
        <time>2026-03-23T12:17:49Z</time>
      </trkpt>
      <trkpt lat="44.74542" lon="6.87408">
        <ele>2767.9</ele>
        <time>2026-03-23T12:17:50Z</time>
      </trkpt>
      <trkpt lat="44.74542" lon="6.87408">
        <ele>2767.9</ele>
        <time>2026-03-23T12:17:51Z</time>
      </trkpt>
      <trkpt lat="44.74542" lon="6.87408">
        <ele>2767.9</ele>
        <time>2026-03-23T12:17:52Z</time>
      </trkpt>
      <trkpt lat="44.74542" lon="6.87408">
        <ele>2767.8</ele>
        <time>2026-03-23T12:17:53Z</time>
      </trkpt>
      <trkpt lat="44.74542" lon="6.87408">
        <ele>2767.8</ele>
        <time>2026-03-23T12:17:54Z</time>
      </trkpt>
      <trkpt lat="44.74542" lon="6.87408">
        <ele>2767.8</ele>
        <time>2026-03-23T12:17:55Z</time>
      </trkpt>
      <trkpt lat="44.74542" lon="6.87408">
        <ele>2767.8</ele>
        <time>2026-03-23T12:17:56Z</time>
      </trkpt>
      <trkpt lat="44.74542" lon="6.87408">
        <ele>2767.8</ele>
        <time>2026-03-23T12:17:57Z</time>
      </trkpt>
      <trkpt lat="44.74542" lon="6.87408">
        <ele>2767.8</ele>
        <time>2026-03-23T12:17:58Z</time>
      </trkpt>
      <trkpt lat="44.74542" lon="6.87408">
        <ele>2767.8</ele>
        <time>2026-03-23T12:17:59Z</time>
      </trkpt>
      <trkpt lat="44.74542" lon="6.87408">
        <ele>2767.8</ele>
        <time>2026-03-23T12:18:00Z</time>
      </trkpt>
      <trkpt lat="44.74542" lon="6.87408">
        <ele>2767.8</ele>
        <time>2026-03-23T12:18:01Z</time>
      </trkpt>
      <trkpt lat="44.74542" lon="6.87408">
        <ele>2767.7</ele>
        <time>2026-03-23T12:18:02Z</time>
      </trkpt>
      <trkpt lat="44.74542" lon="6.87408">
        <ele>2767.7</ele>
        <time>2026-03-23T12:18:03Z</time>
      </trkpt>
      <trkpt lat="44.74542" lon="6.87408">
        <ele>2767.7</ele>
        <time>2026-03-23T12:18:04Z</time>
      </trkpt>
      <trkpt lat="44.74542" lon="6.87408">
        <ele>2767.7</ele>
        <time>2026-03-23T12:18:05Z</time>
      </trkpt>
      <trkpt lat="44.74542" lon="6.87408">
        <ele>2767.7</ele>
        <time>2026-03-23T12:18:06Z</time>
      </trkpt>
      <trkpt lat="44.74542" lon="6.87408">
        <ele>2767.7</ele>
        <time>2026-03-23T12:18:07Z</time>
      </trkpt>
      <trkpt lat="44.74542" lon="6.87408">
        <ele>2767.7</ele>
        <time>2026-03-23T12:18:08Z</time>
      </trkpt>
      <trkpt lat="44.74542" lon="6.87408">
        <ele>2767.7</ele>
        <time>2026-03-23T12:18:09Z</time>
      </trkpt>
      <trkpt lat="44.74542" lon="6.87408">
        <ele>2767.7</ele>
        <time>2026-03-23T12:18:10Z</time>
      </trkpt>
      <trkpt lat="44.74542" lon="6.87408">
        <ele>2767.6</ele>
        <time>2026-03-23T12:18:11Z</time>
      </trkpt>
      <trkpt lat="44.74542" lon="6.87408">
        <ele>2767.6</ele>
        <time>2026-03-23T12:18:12Z</time>
      </trkpt>
      <trkpt lat="44.74542" lon="6.87408">
        <ele>2767.6</ele>
        <time>2026-03-23T12:18:13Z</time>
      </trkpt>
      <trkpt lat="44.74542" lon="6.87408">
        <ele>2767.6</ele>
        <time>2026-03-23T12:18:14Z</time>
      </trkpt>
      <trkpt lat="44.74542" lon="6.87408">
        <ele>2767.6</ele>
        <time>2026-03-23T12:18:15Z</time>
      </trkpt>
      <trkpt lat="44.74542" lon="6.87408">
        <ele>2767.6</ele>
        <time>2026-03-23T12:18:16Z</time>
      </trkpt>
      <trkpt lat="44.74542" lon="6.87408">
        <ele>2767.6</ele>
        <time>2026-03-23T12:18:17Z</time>
      </trkpt>
      <trkpt lat="44.74542" lon="6.87408">
        <ele>2767.6</ele>
        <time>2026-03-23T12:18:18Z</time>
      </trkpt>
      <trkpt lat="44.74542" lon="6.87408">
        <ele>2767.6</ele>
        <time>2026-03-23T12:18:19Z</time>
      </trkpt>
      <trkpt lat="44.74542" lon="6.87408">
        <ele>2767.5</ele>
        <time>2026-03-23T12:18:20Z</time>
      </trkpt>
      <trkpt lat="44.74542" lon="6.87408">
        <ele>2767.5</ele>
        <time>2026-03-23T12:18:21Z</time>
      </trkpt>
      <trkpt lat="44.74542" lon="6.87408">
        <ele>2767.5</ele>
        <time>2026-03-23T12:18:22Z</time>
      </trkpt>
      <trkpt lat="44.74542" lon="6.87408">
        <ele>2767.5</ele>
        <time>2026-03-23T12:18:23Z</time>
      </trkpt>
      <trkpt lat="44.74542" lon="6.87408">
        <ele>2767.5</ele>
        <time>2026-03-23T12:18:24Z</time>
      </trkpt>
      <trkpt lat="44.74542" lon="6.87408">
        <ele>2767.5</ele>
        <time>2026-03-23T12:18:25Z</time>
      </trkpt>
      <trkpt lat="44.74542" lon="6.87408">
        <ele>2767.5</ele>
        <time>2026-03-23T12:18:26Z</time>
      </trkpt>
      <trkpt lat="44.74542" lon="6.87408">
        <ele>2767.5</ele>
        <time>2026-03-23T12:18:27Z</time>
      </trkpt>
      <trkpt lat="44.74542" lon="6.87408">
        <ele>2767.5</ele>
        <time>2026-03-23T12:18:28Z</time>
      </trkpt>
      <trkpt lat="44.74542" lon="6.87408">
        <ele>2767.4</ele>
        <time>2026-03-23T12:18:29Z</time>
      </trkpt>
      <trkpt lat="44.74542" lon="6.87408">
        <ele>2767.4</ele>
        <time>2026-03-23T12:18:30Z</time>
      </trkpt>
      <trkpt lat="44.74542" lon="6.87408">
        <ele>2767.4</ele>
        <time>2026-03-23T12:18:31Z</time>
      </trkpt>
      <trkpt lat="44.74542" lon="6.87408">
        <ele>2767.4</ele>
        <time>2026-03-23T12:18:32Z</time>
      </trkpt>
      <trkpt lat="44.74542" lon="6.87408">
        <ele>2767.4</ele>
        <time>2026-03-23T12:18:33Z</time>
      </trkpt>
      <trkpt lat="44.74542" lon="6.87408">
        <ele>2767.4</ele>
        <time>2026-03-23T12:18:34Z</time>
      </trkpt>
      <trkpt lat="44.74542" lon="6.87408">
        <ele>2767.4</ele>
        <time>2026-03-23T12:18:35Z</time>
      </trkpt>
      <trkpt lat="44.74542" lon="6.87408">
        <ele>2767.4</ele>
        <time>2026-03-23T12:18:36Z</time>
      </trkpt>
      <trkpt lat="44.74542" lon="6.87408">
        <ele>2767.4</ele>
        <time>2026-03-23T12:18:37Z</time>
      </trkpt>
      <trkpt lat="44.74542" lon="6.87408">
        <ele>2767.3</ele>
        <time>2026-03-23T12:18:38Z</time>
      </trkpt>
      <trkpt lat="44.74542" lon="6.87408">
        <ele>2767.3</ele>
        <time>2026-03-23T12:18:39Z</time>
      </trkpt>
      <trkpt lat="44.74542" lon="6.87408">
        <ele>2767.3</ele>
        <time>2026-03-23T12:18:40Z</time>
      </trkpt>
      <trkpt lat="44.74542" lon="6.87408">
        <ele>2767.3</ele>
        <time>2026-03-23T12:18:41Z</time>
      </trkpt>
      <trkpt lat="44.74542" lon="6.87408">
        <ele>2767.3</ele>
        <time>2026-03-23T12:18:42Z</time>
      </trkpt>
      <trkpt lat="44.74542" lon="6.87408">
        <ele>2767.3</ele>
        <time>2026-03-23T12:18:43Z</time>
      </trkpt>
      <trkpt lat="44.74542" lon="6.87408">
        <ele>2767.3</ele>
        <time>2026-03-23T12:18:44Z</time>
      </trkpt>
      <trkpt lat="44.74542" lon="6.87408">
        <ele>2767.3</ele>
        <time>2026-03-23T12:18:45Z</time>
      </trkpt>
      <trkpt lat="44.74542" lon="6.87408">
        <ele>2767.3</ele>
        <time>2026-03-23T12:18:46Z</time>
      </trkpt>
      <trkpt lat="44.74542" lon="6.87408">
        <ele>2767.2</ele>
        <time>2026-03-23T12:18:47Z</time>
      </trkpt>
      <trkpt lat="44.74542" lon="6.87408">
        <ele>2767.2</ele>
        <time>2026-03-23T12:18:48Z</time>
      </trkpt>
      <trkpt lat="44.74542" lon="6.87408">
        <ele>2767.2</ele>
        <time>2026-03-23T12:18:49Z</time>
      </trkpt>
      <trkpt lat="44.74542" lon="6.87408">
        <ele>2767.2</ele>
        <time>2026-03-23T12:18:50Z</time>
      </trkpt>
      <trkpt lat="44.74542" lon="6.87408">
        <ele>2767.2</ele>
        <time>2026-03-23T12:18:51Z</time>
      </trkpt>
      <trkpt lat="44.74542" lon="6.87408">
        <ele>2767.2</ele>
        <time>2026-03-23T12:18:52Z</time>
      </trkpt>
      <trkpt lat="44.74542" lon="6.87408">
        <ele>2767.2</ele>
        <time>2026-03-23T12:18:53Z</time>
      </trkpt>
      <trkpt lat="44.74542" lon="6.87408">
        <ele>2767.2</ele>
        <time>2026-03-23T12:18:54Z</time>
      </trkpt>
      <trkpt lat="44.74542" lon="6.87408">
        <ele>2767.2</ele>
        <time>2026-03-23T12:18:55Z</time>
      </trkpt>
      <trkpt lat="44.74542" lon="6.87408">
        <ele>2767.1</ele>
        <time>2026-03-23T12:18:56Z</time>
      </trkpt>
      <trkpt lat="44.74542" lon="6.87408">
        <ele>2767.1</ele>
        <time>2026-03-23T12:18:57Z</time>
      </trkpt>
      <trkpt lat="44.74542" lon="6.87408">
        <ele>2767.1</ele>
        <time>2026-03-23T12:18:58Z</time>
      </trkpt>
      <trkpt lat="44.74542" lon="6.87408">
        <ele>2767.1</ele>
        <time>2026-03-23T12:18:59Z</time>
      </trkpt>
      <trkpt lat="44.74542" lon="6.87408">
        <ele>2767.1</ele>
        <time>2026-03-23T12:19:00Z</time>
      </trkpt>
      <trkpt lat="44.74542" lon="6.87408">
        <ele>2767.1</ele>
        <time>2026-03-23T12:19:01Z</time>
      </trkpt>
      <trkpt lat="44.74542" lon="6.87408">
        <ele>2767.1</ele>
        <time>2026-03-23T12:19:02Z</time>
      </trkpt>
      <trkpt lat="44.74542" lon="6.87408">
        <ele>2767.1</ele>
        <time>2026-03-23T12:19:03Z</time>
      </trkpt>
      <trkpt lat="44.74542" lon="6.87408">
        <ele>2767.1</ele>
        <time>2026-03-23T12:19:04Z</time>
      </trkpt>
      <trkpt lat="44.74542" lon="6.87408">
        <ele>2767</ele>
        <time>2026-03-23T12:19:05Z</time>
      </trkpt>
      <trkpt lat="44.74542" lon="6.87408">
        <ele>2767</ele>
        <time>2026-03-23T12:19:06Z</time>
      </trkpt>
      <trkpt lat="44.74542" lon="6.87408">
        <ele>2767</ele>
        <time>2026-03-23T12:19:07Z</time>
      </trkpt>
      <trkpt lat="44.74542" lon="6.87408">
        <ele>2767</ele>
        <time>2026-03-23T12:19:08Z</time>
      </trkpt>
      <trkpt lat="44.74542" lon="6.87408">
        <ele>2767</ele>
        <time>2026-03-23T12:19:09Z</time>
      </trkpt>
      <trkpt lat="44.74542" lon="6.87408">
        <ele>2767</ele>
        <time>2026-03-23T12:19:10Z</time>
      </trkpt>
      <trkpt lat="44.74542" lon="6.87408">
        <ele>2767</ele>
        <time>2026-03-23T12:19:11Z</time>
      </trkpt>
      <trkpt lat="44.74542" lon="6.87408">
        <ele>2767</ele>
        <time>2026-03-23T12:19:12Z</time>
      </trkpt>
      <trkpt lat="44.74542" lon="6.87408">
        <ele>2767</ele>
        <time>2026-03-23T12:19:13Z</time>
      </trkpt>
      <trkpt lat="44.74542" lon="6.87408">
        <ele>2766.9</ele>
        <time>2026-03-23T12:19:14Z</time>
      </trkpt>
      <trkpt lat="44.74542" lon="6.87408">
        <ele>2766.9</ele>
        <time>2026-03-23T12:19:15Z</time>
      </trkpt>
      <trkpt lat="44.74542" lon="6.87408">
        <ele>2766.9</ele>
        <time>2026-03-23T12:19:16Z</time>
      </trkpt>
      <trkpt lat="44.74542" lon="6.87408">
        <ele>2766.9</ele>
        <time>2026-03-23T12:19:17Z</time>
      </trkpt>
      <trkpt lat="44.74542" lon="6.87408">
        <ele>2766.9</ele>
        <time>2026-03-23T12:19:18Z</time>
      </trkpt>
      <trkpt lat="44.74542" lon="6.87408">
        <ele>2766.9</ele>
        <time>2026-03-23T12:19:19Z</time>
      </trkpt>
      <trkpt lat="44.74542" lon="6.87408">
        <ele>2766.9</ele>
        <time>2026-03-23T12:19:20Z</time>
      </trkpt>
      <trkpt lat="44.74542" lon="6.87408">
        <ele>2766.9</ele>
        <time>2026-03-23T12:19:21Z</time>
      </trkpt>
      <trkpt lat="44.74542" lon="6.87408">
        <ele>2766.9</ele>
        <time>2026-03-23T12:19:22Z</time>
      </trkpt>
      <trkpt lat="44.74542" lon="6.87408">
        <ele>2766.8</ele>
        <time>2026-03-23T12:19:23Z</time>
      </trkpt>
      <trkpt lat="44.74542" lon="6.87408">
        <ele>2766.8</ele>
        <time>2026-03-23T12:19:24Z</time>
      </trkpt>
      <trkpt lat="44.74542" lon="6.87408">
        <ele>2766.8</ele>
        <time>2026-03-23T12:19:25Z</time>
      </trkpt>
      <trkpt lat="44.74542" lon="6.87408">
        <ele>2766.8</ele>
        <time>2026-03-23T12:19:26Z</time>
      </trkpt>
      <trkpt lat="44.74542" lon="6.87408">
        <ele>2766.8</ele>
        <time>2026-03-23T12:19:27Z</time>
      </trkpt>
      <trkpt lat="44.74542" lon="6.87408">
        <ele>2766.8</ele>
        <time>2026-03-23T12:19:28Z</time>
      </trkpt>
      <trkpt lat="44.74542" lon="6.87408">
        <ele>2766.8</ele>
        <time>2026-03-23T12:19:29Z</time>
      </trkpt>
      <trkpt lat="44.74542" lon="6.87408">
        <ele>2766.8</ele>
        <time>2026-03-23T12:19:30Z</time>
      </trkpt>
      <trkpt lat="44.74542" lon="6.87408">
        <ele>2766.8</ele>
        <time>2026-03-23T12:19:31Z</time>
      </trkpt>
      <trkpt lat="44.74542" lon="6.87408">
        <ele>2766.7</ele>
        <time>2026-03-23T12:19:32Z</time>
      </trkpt>
      <trkpt lat="44.74542" lon="6.87407">
        <ele>2766.7</ele>
        <time>2026-03-23T12:19:33Z</time>
      </trkpt>
      <trkpt lat="44.74542" lon="6.87407">
        <ele>2766.7</ele>
        <time>2026-03-23T12:19:34Z</time>
      </trkpt>
      <trkpt lat="44.74542" lon="6.87407">
        <ele>2766.7</ele>
        <time>2026-03-23T12:19:35Z</time>
      </trkpt>
      <trkpt lat="44.74542" lon="6.87407">
        <ele>2766.7</ele>
        <time>2026-03-23T12:19:36Z</time>
      </trkpt>
      <trkpt lat="44.74542" lon="6.87407">
        <ele>2766.7</ele>
        <time>2026-03-23T12:19:37Z</time>
      </trkpt>
      <trkpt lat="44.74542" lon="6.87407">
        <ele>2766.7</ele>
        <time>2026-03-23T12:19:38Z</time>
      </trkpt>
      <trkpt lat="44.74542" lon="6.87407">
        <ele>2766.7</ele>
        <time>2026-03-23T12:19:39Z</time>
      </trkpt>
      <trkpt lat="44.74542" lon="6.87407">
        <ele>2766.7</ele>
        <time>2026-03-23T12:19:40Z</time>
      </trkpt>
      <trkpt lat="44.74542" lon="6.87407">
        <ele>2766.7</ele>
        <time>2026-03-23T12:19:41Z</time>
      </trkpt>
      <trkpt lat="44.74542" lon="6.87407">
        <ele>2766.6</ele>
        <time>2026-03-23T12:19:42Z</time>
      </trkpt>
      <trkpt lat="44.74542" lon="6.87407">
        <ele>2766.6</ele>
        <time>2026-03-23T12:19:43Z</time>
      </trkpt>
      <trkpt lat="44.74542" lon="6.87407">
        <ele>2766.6</ele>
        <time>2026-03-23T12:19:44Z</time>
      </trkpt>
      <trkpt lat="44.74542" lon="6.87407">
        <ele>2766</ele>
        <time>2026-03-23T12:19:45Z</time>
      </trkpt>
      <trkpt lat="44.74542" lon="6.87407">
        <ele>2766</ele>
        <time>2026-03-23T12:19:46Z</time>
      </trkpt>
      <trkpt lat="44.74542" lon="6.87407">
        <ele>2766</ele>
        <time>2026-03-23T12:19:47Z</time>
      </trkpt>
      <trkpt lat="44.74542" lon="6.87407">
        <ele>2765.9</ele>
        <time>2026-03-23T12:19:48Z</time>
      </trkpt>
      <trkpt lat="44.74542" lon="6.87407">
        <ele>2765.9</ele>
        <time>2026-03-23T12:19:49Z</time>
      </trkpt>
      <trkpt lat="44.74542" lon="6.87407">
        <ele>2765.9</ele>
        <time>2026-03-23T12:19:50Z</time>
      </trkpt>
      <trkpt lat="44.74542" lon="6.87407">
        <ele>2765.9</ele>
        <time>2026-03-23T12:19:51Z</time>
      </trkpt>
      <trkpt lat="44.74542" lon="6.87407">
        <ele>2765.9</ele>
        <time>2026-03-23T12:19:52Z</time>
      </trkpt>
      <trkpt lat="44.74542" lon="6.87407">
        <ele>2765.9</ele>
        <time>2026-03-23T12:19:53Z</time>
      </trkpt>
      <trkpt lat="44.74542" lon="6.87407">
        <ele>2765.9</ele>
        <time>2026-03-23T12:19:54Z</time>
      </trkpt>
      <trkpt lat="44.74542" lon="6.87407">
        <ele>2765.9</ele>
        <time>2026-03-23T12:19:55Z</time>
      </trkpt>
      <trkpt lat="44.74542" lon="6.87407">
        <ele>2765.9</ele>
        <time>2026-03-23T12:19:56Z</time>
      </trkpt>
      <trkpt lat="44.74542" lon="6.87407">
        <ele>2765.8</ele>
        <time>2026-03-23T12:19:57Z</time>
      </trkpt>
      <trkpt lat="44.74542" lon="6.87407">
        <ele>2765.8</ele>
        <time>2026-03-23T12:19:58Z</time>
      </trkpt>
      <trkpt lat="44.74542" lon="6.87407">
        <ele>2765.8</ele>
        <time>2026-03-23T12:19:59Z</time>
      </trkpt>
      <trkpt lat="44.74542" lon="6.87407">
        <ele>2765.8</ele>
        <time>2026-03-23T12:20:00Z</time>
      </trkpt>
      <trkpt lat="44.74542" lon="6.87407">
        <ele>2765.8</ele>
        <time>2026-03-23T12:20:01Z</time>
      </trkpt>
      <trkpt lat="44.74542" lon="6.87407">
        <ele>2765.8</ele>
        <time>2026-03-23T12:20:02Z</time>
      </trkpt>
      <trkpt lat="44.74542" lon="6.87407">
        <ele>2765.8</ele>
        <time>2026-03-23T12:20:03Z</time>
      </trkpt>
      <trkpt lat="44.74542" lon="6.87407">
        <ele>2765.8</ele>
        <time>2026-03-23T12:20:04Z</time>
      </trkpt>
      <trkpt lat="44.74542" lon="6.87407">
        <ele>2765.8</ele>
        <time>2026-03-23T12:20:05Z</time>
      </trkpt>
      <trkpt lat="44.74542" lon="6.87407">
        <ele>2765.7</ele>
        <time>2026-03-23T12:20:06Z</time>
      </trkpt>
      <trkpt lat="44.74542" lon="6.87407">
        <ele>2765.7</ele>
        <time>2026-03-23T12:20:07Z</time>
      </trkpt>
      <trkpt lat="44.74542" lon="6.87407">
        <ele>2765.7</ele>
        <time>2026-03-23T12:20:08Z</time>
      </trkpt>
      <trkpt lat="44.74542" lon="6.87407">
        <ele>2765.7</ele>
        <time>2026-03-23T12:20:09Z</time>
      </trkpt>
      <trkpt lat="44.74542" lon="6.87407">
        <ele>2765.7</ele>
        <time>2026-03-23T12:20:10Z</time>
      </trkpt>
      <trkpt lat="44.74542" lon="6.87407">
        <ele>2765.7</ele>
        <time>2026-03-23T12:20:11Z</time>
      </trkpt>
      <trkpt lat="44.74542" lon="6.87407">
        <ele>2765.7</ele>
        <time>2026-03-23T12:20:12Z</time>
      </trkpt>
      <trkpt lat="44.74542" lon="6.87407">
        <ele>2765.7</ele>
        <time>2026-03-23T12:20:13Z</time>
      </trkpt>
      <trkpt lat="44.74542" lon="6.87407">
        <ele>2765.7</ele>
        <time>2026-03-23T12:20:14Z</time>
      </trkpt>
      <trkpt lat="44.74542" lon="6.87407">
        <ele>2765.6</ele>
        <time>2026-03-23T12:20:15Z</time>
      </trkpt>
      <trkpt lat="44.74542" lon="6.87407">
        <ele>2765.6</ele>
        <time>2026-03-23T12:20:16Z</time>
      </trkpt>
      <trkpt lat="44.74542" lon="6.87407">
        <ele>2765.6</ele>
        <time>2026-03-23T12:20:17Z</time>
      </trkpt>
      <trkpt lat="44.74542" lon="6.87407">
        <ele>2765.6</ele>
        <time>2026-03-23T12:20:18Z</time>
      </trkpt>
      <trkpt lat="44.74543" lon="6.87407">
        <ele>2765.6</ele>
        <time>2026-03-23T12:20:19Z</time>
      </trkpt>
      <trkpt lat="44.74543" lon="6.87407">
        <ele>2765.6</ele>
        <time>2026-03-23T12:20:20Z</time>
      </trkpt>
      <trkpt lat="44.74543" lon="6.87407">
        <ele>2765.6</ele>
        <time>2026-03-23T12:20:21Z</time>
      </trkpt>
      <trkpt lat="44.74543" lon="6.87407">
        <ele>2765.6</ele>
        <time>2026-03-23T12:20:22Z</time>
      </trkpt>
      <trkpt lat="44.74543" lon="6.87407">
        <ele>2765.6</ele>
        <time>2026-03-23T12:20:23Z</time>
      </trkpt>
      <trkpt lat="44.74543" lon="6.87407">
        <ele>2765.5</ele>
        <time>2026-03-23T12:20:24Z</time>
      </trkpt>
      <trkpt lat="44.74543" lon="6.87407">
        <ele>2765.5</ele>
        <time>2026-03-23T12:20:25Z</time>
      </trkpt>
      <trkpt lat="44.74543" lon="6.87407">
        <ele>2765.5</ele>
        <time>2026-03-23T12:20:26Z</time>
      </trkpt>
      <trkpt lat="44.74543" lon="6.87407">
        <ele>2765.5</ele>
        <time>2026-03-23T12:20:27Z</time>
      </trkpt>
      <trkpt lat="44.74543" lon="6.87407">
        <ele>2765.5</ele>
        <time>2026-03-23T12:20:28Z</time>
      </trkpt>
      <trkpt lat="44.74543" lon="6.87407">
        <ele>2765.5</ele>
        <time>2026-03-23T12:20:29Z</time>
      </trkpt>
      <trkpt lat="44.74543" lon="6.87407">
        <ele>2765.5</ele>
        <time>2026-03-23T12:20:30Z</time>
      </trkpt>
      <trkpt lat="44.74543" lon="6.87407">
        <ele>2765.5</ele>
        <time>2026-03-23T12:20:31Z</time>
      </trkpt>
      <trkpt lat="44.74543" lon="6.87407">
        <ele>2765.5</ele>
        <time>2026-03-23T12:20:32Z</time>
      </trkpt>
      <trkpt lat="44.74543" lon="6.87407">
        <ele>2765.4</ele>
        <time>2026-03-23T12:20:33Z</time>
      </trkpt>
      <trkpt lat="44.74543" lon="6.87407">
        <ele>2765.4</ele>
        <time>2026-03-23T12:20:34Z</time>
      </trkpt>
      <trkpt lat="44.74543" lon="6.87407">
        <ele>2765.4</ele>
        <time>2026-03-23T12:20:35Z</time>
      </trkpt>
      <trkpt lat="44.74543" lon="6.87407">
        <ele>2765.4</ele>
        <time>2026-03-23T12:20:36Z</time>
      </trkpt>
      <trkpt lat="44.74543" lon="6.87407">
        <ele>2765.4</ele>
        <time>2026-03-23T12:20:37Z</time>
      </trkpt>
      <trkpt lat="44.74543" lon="6.87407">
        <ele>2765.4</ele>
        <time>2026-03-23T12:20:38Z</time>
      </trkpt>
      <trkpt lat="44.74543" lon="6.87407">
        <ele>2765.4</ele>
        <time>2026-03-23T12:20:39Z</time>
      </trkpt>
      <trkpt lat="44.74543" lon="6.87407">
        <ele>2765.4</ele>
        <time>2026-03-23T12:20:40Z</time>
      </trkpt>
      <trkpt lat="44.74543" lon="6.87407">
        <ele>2765.4</ele>
        <time>2026-03-23T12:20:41Z</time>
      </trkpt>
      <trkpt lat="44.74543" lon="6.87407">
        <ele>2765.3</ele>
        <time>2026-03-23T12:20:42Z</time>
      </trkpt>
      <trkpt lat="44.74543" lon="6.87407">
        <ele>2765.3</ele>
        <time>2026-03-23T12:20:43Z</time>
      </trkpt>
      <trkpt lat="44.74543" lon="6.87407">
        <ele>2765.3</ele>
        <time>2026-03-23T12:20:44Z</time>
      </trkpt>
      <trkpt lat="44.74546" lon="6.87404">
        <ele>2764.5</ele>
        <time>2026-03-23T12:20:45Z</time>
      </trkpt>
      <trkpt lat="44.74547" lon="6.87404">
        <ele>2764.5</ele>
        <time>2026-03-23T12:20:46Z</time>
      </trkpt>
      <trkpt lat="44.7455" lon="6.87402">
        <ele>2763.8</ele>
        <time>2026-03-23T12:20:47Z</time>
      </trkpt>
      <trkpt lat="44.74553" lon="6.87402">
        <ele>2763</ele>
        <time>2026-03-23T12:20:48Z</time>
      </trkpt>
      <trkpt lat="44.74554" lon="6.87402">
        <ele>2763</ele>
        <time>2026-03-23T12:20:49Z</time>
      </trkpt>
      <trkpt lat="44.74556" lon="6.87402">
        <ele>2762.2</ele>
        <time>2026-03-23T12:20:50Z</time>
      </trkpt>
      <trkpt lat="44.74557" lon="6.87401">
        <ele>2762.2</ele>
        <time>2026-03-23T12:20:51Z</time>
      </trkpt>
      <trkpt lat="44.74557" lon="6.87401">
        <ele>2762.2</ele>
        <time>2026-03-23T12:20:52Z</time>
      </trkpt>
      <trkpt lat="44.74558" lon="6.87401">
        <ele>2761.3</ele>
        <time>2026-03-23T12:20:53Z</time>
      </trkpt>
      <trkpt lat="44.74558" lon="6.87401">
        <ele>2761.3</ele>
        <time>2026-03-23T12:20:54Z</time>
      </trkpt>
      <trkpt lat="44.7456" lon="6.874">
        <ele>2761.3</ele>
        <time>2026-03-23T12:20:55Z</time>
      </trkpt>
      <trkpt lat="44.74561" lon="6.87399">
        <ele>2760.5</ele>
        <time>2026-03-23T12:20:56Z</time>
      </trkpt>
      <trkpt lat="44.74561" lon="6.87398">
        <ele>2760.5</ele>
        <time>2026-03-23T12:20:57Z</time>
      </trkpt>
      <trkpt lat="44.74562" lon="6.87398">
        <ele>2760.5</ele>
        <time>2026-03-23T12:20:58Z</time>
      </trkpt>
      <trkpt lat="44.74562" lon="6.87397">
        <ele>2760.4</ele>
        <time>2026-03-23T12:20:59Z</time>
      </trkpt>
      <trkpt lat="44.74563" lon="6.87396">
        <ele>2760.4</ele>
        <time>2026-03-23T12:21:00Z</time>
      </trkpt>
      <trkpt lat="44.74563" lon="6.87395">
        <ele>2760.4</ele>
        <time>2026-03-23T12:21:01Z</time>
      </trkpt>
      <trkpt lat="44.74561" lon="6.87391">
        <ele>2760.3</ele>
        <time>2026-03-23T12:21:02Z</time>
      </trkpt>
      <trkpt lat="44.74558" lon="6.87389">
        <ele>2761.1</ele>
        <time>2026-03-23T12:21:03Z</time>
      </trkpt>
      <trkpt lat="44.74558" lon="6.87388">
        <ele>2761.1</ele>
        <time>2026-03-23T12:21:04Z</time>
      </trkpt>
      <trkpt lat="44.74558" lon="6.87384">
        <ele>2760.9</ele>
        <time>2026-03-23T12:21:05Z</time>
      </trkpt>
      <trkpt lat="44.74558" lon="6.87382">
        <ele>2760.9</ele>
        <time>2026-03-23T12:21:06Z</time>
      </trkpt>
      <trkpt lat="44.74561" lon="6.8738">
        <ele>2760.1</ele>
        <time>2026-03-23T12:21:07Z</time>
      </trkpt>
      <trkpt lat="44.74564" lon="6.8738">
        <ele>2759.3</ele>
        <time>2026-03-23T12:21:08Z</time>
      </trkpt>
      <trkpt lat="44.74567" lon="6.87381">
        <ele>2758.5</ele>
        <time>2026-03-23T12:21:09Z</time>
      </trkpt>
      <trkpt lat="44.7457" lon="6.87382">
        <ele>2757.6</ele>
        <time>2026-03-23T12:21:10Z</time>
      </trkpt>
      <trkpt lat="44.74573" lon="6.87382">
        <ele>2756.7</ele>
        <time>2026-03-23T12:21:11Z</time>
      </trkpt>
      <trkpt lat="44.74575" lon="6.87383">
        <ele>2756.7</ele>
        <time>2026-03-23T12:21:12Z</time>
      </trkpt>
      <trkpt lat="44.74576" lon="6.87382">
        <ele>2755.8</ele>
        <time>2026-03-23T12:21:13Z</time>
      </trkpt>
      <trkpt lat="44.74577" lon="6.87376">
        <ele>2755.7</ele>
        <time>2026-03-23T12:21:14Z</time>
      </trkpt>
      <trkpt lat="44.74577" lon="6.87373">
        <ele>2755.5</ele>
        <time>2026-03-23T12:21:15Z</time>
      </trkpt>
      <trkpt lat="44.74578" lon="6.87369">
        <ele>2755.4</ele>
        <time>2026-03-23T12:21:16Z</time>
      </trkpt>
      <trkpt lat="44.74576" lon="6.87363">
        <ele>2755.2</ele>
        <time>2026-03-23T12:21:17Z</time>
      </trkpt>
      <trkpt lat="44.74579" lon="6.87359">
        <ele>2754.9</ele>
        <time>2026-03-23T12:21:18Z</time>
      </trkpt>
      <trkpt lat="44.74582" lon="6.87358">
        <ele>2752.6</ele>
        <time>2026-03-23T12:21:19Z</time>
      </trkpt>
      <trkpt lat="44.74581" lon="6.87352">
        <ele>2753.3</ele>
        <time>2026-03-23T12:21:20Z</time>
      </trkpt>
      <trkpt lat="44.74583" lon="6.87346">
        <ele>2751.9</ele>
        <time>2026-03-23T12:21:21Z</time>
      </trkpt>
      <trkpt lat="44.74587" lon="6.87342">
        <ele>2750.5</ele>
        <time>2026-03-23T12:21:22Z</time>
      </trkpt>
      <trkpt lat="44.74589" lon="6.87338">
        <ele>2748.9</ele>
        <time>2026-03-23T12:21:23Z</time>
      </trkpt>
      <trkpt lat="44.74591" lon="6.87332">
        <ele>2746.7</ele>
        <time>2026-03-23T12:21:24Z</time>
      </trkpt>
      <trkpt lat="44.74594" lon="6.87327">
        <ele>2745</ele>
        <time>2026-03-23T12:21:25Z</time>
      </trkpt>
      <trkpt lat="44.74597" lon="6.8732">
        <ele>2744.4</ele>
        <time>2026-03-23T12:21:26Z</time>
      </trkpt>
      <trkpt lat="44.74601" lon="6.87315">
        <ele>2741.8</ele>
        <time>2026-03-23T12:21:27Z</time>
      </trkpt>
      <trkpt lat="44.74604" lon="6.87311">
        <ele>2740.2</ele>
        <time>2026-03-23T12:21:28Z</time>
      </trkpt>
      <trkpt lat="44.74606" lon="6.87305">
        <ele>2738.9</ele>
        <time>2026-03-23T12:21:29Z</time>
      </trkpt>
      <trkpt lat="44.74611" lon="6.87304">
        <ele>2736.7</ele>
        <time>2026-03-23T12:21:30Z</time>
      </trkpt>
      <trkpt lat="44.74614" lon="6.87302">
        <ele>2735.5</ele>
        <time>2026-03-23T12:21:31Z</time>
      </trkpt>
      <trkpt lat="44.74617" lon="6.873">
        <ele>2733.7</ele>
        <time>2026-03-23T12:21:32Z</time>
      </trkpt>
      <trkpt lat="44.74618" lon="6.87294">
        <ele>2733.1</ele>
        <time>2026-03-23T12:21:33Z</time>
      </trkpt>
      <trkpt lat="44.74622" lon="6.8729">
        <ele>2730.4</ele>
        <time>2026-03-23T12:21:34Z</time>
      </trkpt>
      <trkpt lat="44.74623" lon="6.87284">
        <ele>2728.9</ele>
        <time>2026-03-23T12:21:35Z</time>
      </trkpt>
      <trkpt lat="44.74626" lon="6.87278">
        <ele>2727.3</ele>
        <time>2026-03-23T12:21:36Z</time>
      </trkpt>
      <trkpt lat="44.74627" lon="6.8727">
        <ele>2725.7</ele>
        <time>2026-03-23T12:21:37Z</time>
      </trkpt>
      <trkpt lat="44.7463" lon="6.87264">
        <ele>2724.1</ele>
        <time>2026-03-23T12:21:38Z</time>
      </trkpt>
      <trkpt lat="44.74631" lon="6.87257">
        <ele>2721.6</ele>
        <time>2026-03-23T12:21:39Z</time>
      </trkpt>
      <trkpt lat="44.74633" lon="6.87252">
        <ele>2720.7</ele>
        <time>2026-03-23T12:21:40Z</time>
      </trkpt>
      <trkpt lat="44.74636" lon="6.87247">
        <ele>2718.7</ele>
        <time>2026-03-23T12:21:41Z</time>
      </trkpt>
      <trkpt lat="44.74637" lon="6.87241">
        <ele>2715.6</ele>
        <time>2026-03-23T12:21:42Z</time>
      </trkpt>
      <trkpt lat="44.74641" lon="6.87236">
        <ele>2713.5</ele>
        <time>2026-03-23T12:21:43Z</time>
      </trkpt>
      <trkpt lat="44.74641" lon="6.87228">
        <ele>2711.3</ele>
        <time>2026-03-23T12:21:44Z</time>
      </trkpt>
      <trkpt lat="44.74645" lon="6.87223">
        <ele>2709.2</ele>
        <time>2026-03-23T12:21:45Z</time>
      </trkpt>
      <trkpt lat="44.74646" lon="6.87215">
        <ele>2706.1</ele>
        <time>2026-03-23T12:21:46Z</time>
      </trkpt>
      <trkpt lat="44.74649" lon="6.8721">
        <ele>2704.1</ele>
        <time>2026-03-23T12:21:47Z</time>
      </trkpt>
      <trkpt lat="44.7465" lon="6.87202">
        <ele>2701.6</ele>
        <time>2026-03-23T12:21:48Z</time>
      </trkpt>
      <trkpt lat="44.74652" lon="6.87196">
        <ele>2699.5</ele>
        <time>2026-03-23T12:21:49Z</time>
      </trkpt>
      <trkpt lat="44.74653" lon="6.87191">
        <ele>2698.2</ele>
        <time>2026-03-23T12:21:50Z</time>
      </trkpt>
      <trkpt lat="44.74651" lon="6.87187">
        <ele>2697.7</ele>
        <time>2026-03-23T12:21:51Z</time>
      </trkpt>
      <trkpt lat="44.74649" lon="6.87185">
        <ele>2697.3</ele>
        <time>2026-03-23T12:21:52Z</time>
      </trkpt>
      <trkpt lat="44.74647" lon="6.8718">
        <ele>2696.1</ele>
        <time>2026-03-23T12:21:53Z</time>
      </trkpt>
      <trkpt lat="44.74647" lon="6.87179">
        <ele>2696.1</ele>
        <time>2026-03-23T12:21:54Z</time>
      </trkpt>
      <trkpt lat="44.74647" lon="6.87175">
        <ele>2694.9</ele>
        <time>2026-03-23T12:21:55Z</time>
      </trkpt>
      <trkpt lat="44.74648" lon="6.87174">
        <ele>2694.9</ele>
        <time>2026-03-23T12:21:56Z</time>
      </trkpt>
      <trkpt lat="44.74649" lon="6.87173">
        <ele>2693.8</ele>
        <time>2026-03-23T12:21:57Z</time>
      </trkpt>
      <trkpt lat="44.74649" lon="6.87173">
        <ele>2693.7</ele>
        <time>2026-03-23T12:21:58Z</time>
      </trkpt>
      <trkpt lat="44.74648" lon="6.87173">
        <ele>2693.7</ele>
        <time>2026-03-23T12:21:59Z</time>
      </trkpt>
      <trkpt lat="44.74649" lon="6.87172">
        <ele>2693.7</ele>
        <time>2026-03-23T12:22:00Z</time>
      </trkpt>
      <trkpt lat="44.74649" lon="6.87172">
        <ele>2692.9</ele>
        <time>2026-03-23T12:22:01Z</time>
      </trkpt>
      <trkpt lat="44.74649" lon="6.87172">
        <ele>2692.9</ele>
        <time>2026-03-23T12:22:02Z</time>
      </trkpt>
      <trkpt lat="44.74649" lon="6.87172">
        <ele>2692.9</ele>
        <time>2026-03-23T12:22:03Z</time>
      </trkpt>
      <trkpt lat="44.74649" lon="6.87172">
        <ele>2692.9</ele>
        <time>2026-03-23T12:22:04Z</time>
      </trkpt>
      <trkpt lat="44.74649" lon="6.87172">
        <ele>2692.8</ele>
        <time>2026-03-23T12:22:05Z</time>
      </trkpt>
      <trkpt lat="44.74649" lon="6.87172">
        <ele>2692.8</ele>
        <time>2026-03-23T12:22:06Z</time>
      </trkpt>
      <trkpt lat="44.74649" lon="6.87172">
        <ele>2692.8</ele>
        <time>2026-03-23T12:22:07Z</time>
      </trkpt>
      <trkpt lat="44.74649" lon="6.87172">
        <ele>2692.8</ele>
        <time>2026-03-23T12:22:08Z</time>
      </trkpt>
      <trkpt lat="44.74649" lon="6.87172">
        <ele>2692.8</ele>
        <time>2026-03-23T12:22:09Z</time>
      </trkpt>
      <trkpt lat="44.74649" lon="6.87172">
        <ele>2692.8</ele>
        <time>2026-03-23T12:22:10Z</time>
      </trkpt>
      <trkpt lat="44.74649" lon="6.87172">
        <ele>2692.8</ele>
        <time>2026-03-23T12:22:11Z</time>
      </trkpt>
      <trkpt lat="44.74649" lon="6.87172">
        <ele>2692.8</ele>
        <time>2026-03-23T12:22:12Z</time>
      </trkpt>
      <trkpt lat="44.74649" lon="6.87172">
        <ele>2692.8</ele>
        <time>2026-03-23T12:22:13Z</time>
      </trkpt>
      <trkpt lat="44.74649" lon="6.87172">
        <ele>2692.7</ele>
        <time>2026-03-23T12:22:14Z</time>
      </trkpt>
      <trkpt lat="44.74649" lon="6.87172">
        <ele>2692.7</ele>
        <time>2026-03-23T12:22:15Z</time>
      </trkpt>
      <trkpt lat="44.74649" lon="6.87172">
        <ele>2692.7</ele>
        <time>2026-03-23T12:22:16Z</time>
      </trkpt>
      <trkpt lat="44.74649" lon="6.87172">
        <ele>2692.7</ele>
        <time>2026-03-23T12:22:17Z</time>
      </trkpt>
      <trkpt lat="44.74649" lon="6.87172">
        <ele>2692.7</ele>
        <time>2026-03-23T12:22:18Z</time>
      </trkpt>
      <trkpt lat="44.74649" lon="6.87172">
        <ele>2692.7</ele>
        <time>2026-03-23T12:22:19Z</time>
      </trkpt>
      <trkpt lat="44.74649" lon="6.87172">
        <ele>2692.7</ele>
        <time>2026-03-23T12:22:20Z</time>
      </trkpt>
      <trkpt lat="44.74649" lon="6.87172">
        <ele>2692.7</ele>
        <time>2026-03-23T12:22:21Z</time>
      </trkpt>
      <trkpt lat="44.74649" lon="6.87172">
        <ele>2692.7</ele>
        <time>2026-03-23T12:22:22Z</time>
      </trkpt>
      <trkpt lat="44.74649" lon="6.87172">
        <ele>2692.6</ele>
        <time>2026-03-23T12:22:23Z</time>
      </trkpt>
      <trkpt lat="44.74649" lon="6.87172">
        <ele>2692.6</ele>
        <time>2026-03-23T12:22:24Z</time>
      </trkpt>
      <trkpt lat="44.74649" lon="6.87171">
        <ele>2693.4</ele>
        <time>2026-03-23T12:22:25Z</time>
      </trkpt>
      <trkpt lat="44.74649" lon="6.87171">
        <ele>2693.4</ele>
        <time>2026-03-23T12:22:26Z</time>
      </trkpt>
      <trkpt lat="44.74649" lon="6.87171">
        <ele>2693.4</ele>
        <time>2026-03-23T12:22:27Z</time>
      </trkpt>
      <trkpt lat="44.74648" lon="6.8717">
        <ele>2693.4</ele>
        <time>2026-03-23T12:22:28Z</time>
      </trkpt>
      <trkpt lat="44.74648" lon="6.8717">
        <ele>2693.4</ele>
        <time>2026-03-23T12:22:29Z</time>
      </trkpt>
      <trkpt lat="44.74648" lon="6.8717">
        <ele>2693.4</ele>
        <time>2026-03-23T12:22:30Z</time>
      </trkpt>
      <trkpt lat="44.74648" lon="6.8717">
        <ele>2693.4</ele>
        <time>2026-03-23T12:22:31Z</time>
      </trkpt>
      <trkpt lat="44.74647" lon="6.8717">
        <ele>2693.4</ele>
        <time>2026-03-23T12:22:32Z</time>
      </trkpt>
      <trkpt lat="44.74647" lon="6.8717">
        <ele>2693.4</ele>
        <time>2026-03-23T12:22:33Z</time>
      </trkpt>
      <trkpt lat="44.74647" lon="6.8717">
        <ele>2693.3</ele>
        <time>2026-03-23T12:22:34Z</time>
      </trkpt>
      <trkpt lat="44.74648" lon="6.87171">
        <ele>2693.3</ele>
        <time>2026-03-23T12:22:35Z</time>
      </trkpt>
      <trkpt lat="44.74648" lon="6.87171">
        <ele>2693.3</ele>
        <time>2026-03-23T12:22:36Z</time>
      </trkpt>
      <trkpt lat="44.74648" lon="6.87171">
        <ele>2693.3</ele>
        <time>2026-03-23T12:22:37Z</time>
      </trkpt>
      <trkpt lat="44.74648" lon="6.87171">
        <ele>2693.3</ele>
        <time>2026-03-23T12:22:38Z</time>
      </trkpt>
      <trkpt lat="44.74648" lon="6.87172">
        <ele>2693.3</ele>
        <time>2026-03-23T12:22:39Z</time>
      </trkpt>
      <trkpt lat="44.74648" lon="6.87172">
        <ele>2693.3</ele>
        <time>2026-03-23T12:22:40Z</time>
      </trkpt>
      <trkpt lat="44.74647" lon="6.87172">
        <ele>2693.3</ele>
        <time>2026-03-23T12:22:41Z</time>
      </trkpt>
      <trkpt lat="44.74647" lon="6.87173">
        <ele>2693.3</ele>
        <time>2026-03-23T12:22:42Z</time>
      </trkpt>
      <trkpt lat="44.74647" lon="6.87173">
        <ele>2693.2</ele>
        <time>2026-03-23T12:22:43Z</time>
      </trkpt>
      <trkpt lat="44.74647" lon="6.87173">
        <ele>2693.2</ele>
        <time>2026-03-23T12:22:44Z</time>
      </trkpt>
      <trkpt lat="44.74647" lon="6.87173">
        <ele>2693.2</ele>
        <time>2026-03-23T12:22:45Z</time>
      </trkpt>
      <trkpt lat="44.74647" lon="6.87173">
        <ele>2693.2</ele>
        <time>2026-03-23T12:22:46Z</time>
      </trkpt>
      <trkpt lat="44.74647" lon="6.87173">
        <ele>2693.2</ele>
        <time>2026-03-23T12:22:47Z</time>
      </trkpt>
      <trkpt lat="44.74647" lon="6.87173">
        <ele>2693.2</ele>
        <time>2026-03-23T12:22:48Z</time>
      </trkpt>
      <trkpt lat="44.74647" lon="6.87173">
        <ele>2693.2</ele>
        <time>2026-03-23T12:22:49Z</time>
      </trkpt>
      <trkpt lat="44.74646" lon="6.87173">
        <ele>2693.2</ele>
        <time>2026-03-23T12:22:50Z</time>
      </trkpt>
      <trkpt lat="44.74646" lon="6.87173">
        <ele>2693.2</ele>
        <time>2026-03-23T12:22:51Z</time>
      </trkpt>
      <trkpt lat="44.74646" lon="6.87173">
        <ele>2693.1</ele>
        <time>2026-03-23T12:22:52Z</time>
      </trkpt>
      <trkpt lat="44.74646" lon="6.87173">
        <ele>2693.1</ele>
        <time>2026-03-23T12:22:53Z</time>
      </trkpt>
      <trkpt lat="44.74646" lon="6.87173">
        <ele>2694</ele>
        <time>2026-03-23T12:22:54Z</time>
      </trkpt>
      <trkpt lat="44.74646" lon="6.87173">
        <ele>2694.3</ele>
        <time>2026-03-23T12:22:55Z</time>
      </trkpt>
      <trkpt lat="44.74646" lon="6.87174">
        <ele>2694.2</ele>
        <time>2026-03-23T12:22:56Z</time>
      </trkpt>
      <trkpt lat="44.74646" lon="6.87173">
        <ele>2693.1</ele>
        <time>2026-03-23T12:22:57Z</time>
      </trkpt>
      <trkpt lat="44.74646" lon="6.87173">
        <ele>2693.1</ele>
        <time>2026-03-23T12:22:58Z</time>
      </trkpt>
      <trkpt lat="44.74646" lon="6.87173">
        <ele>2693.1</ele>
        <time>2026-03-23T12:22:59Z</time>
      </trkpt>
      <trkpt lat="44.74646" lon="6.87173">
        <ele>2693.1</ele>
        <time>2026-03-23T12:23:00Z</time>
      </trkpt>
      <trkpt lat="44.74646" lon="6.87173">
        <ele>2693.9</ele>
        <time>2026-03-23T12:23:01Z</time>
      </trkpt>
      <trkpt lat="44.74645" lon="6.87173">
        <ele>2693.9</ele>
        <time>2026-03-23T12:23:02Z</time>
      </trkpt>
      <trkpt lat="44.74645" lon="6.87172">
        <ele>2693.9</ele>
        <time>2026-03-23T12:23:03Z</time>
      </trkpt>
      <trkpt lat="44.74645" lon="6.87172">
        <ele>2693.9</ele>
        <time>2026-03-23T12:23:04Z</time>
      </trkpt>
      <trkpt lat="44.74645" lon="6.87172">
        <ele>2693.9</ele>
        <time>2026-03-23T12:23:05Z</time>
      </trkpt>
      <trkpt lat="44.74645" lon="6.87172">
        <ele>2693.8</ele>
        <time>2026-03-23T12:23:06Z</time>
      </trkpt>
      <trkpt lat="44.74645" lon="6.87172">
        <ele>2693.8</ele>
        <time>2026-03-23T12:23:07Z</time>
      </trkpt>
      <trkpt lat="44.74645" lon="6.87172">
        <ele>2693.8</ele>
        <time>2026-03-23T12:23:08Z</time>
      </trkpt>
      <trkpt lat="44.74645" lon="6.87172">
        <ele>2693.8</ele>
        <time>2026-03-23T12:23:09Z</time>
      </trkpt>
      <trkpt lat="44.74645" lon="6.87172">
        <ele>2693.8</ele>
        <time>2026-03-23T12:23:10Z</time>
      </trkpt>
      <trkpt lat="44.74645" lon="6.87172">
        <ele>2693.8</ele>
        <time>2026-03-23T12:23:11Z</time>
      </trkpt>
      <trkpt lat="44.74645" lon="6.87172">
        <ele>2693.8</ele>
        <time>2026-03-23T12:23:12Z</time>
      </trkpt>
      <trkpt lat="44.74645" lon="6.87172">
        <ele>2693.8</ele>
        <time>2026-03-23T12:23:13Z</time>
      </trkpt>
      <trkpt lat="44.74645" lon="6.87172">
        <ele>2693.8</ele>
        <time>2026-03-23T12:23:14Z</time>
      </trkpt>
      <trkpt lat="44.74645" lon="6.87173">
        <ele>2693.7</ele>
        <time>2026-03-23T12:23:15Z</time>
      </trkpt>
      <trkpt lat="44.74646" lon="6.87173">
        <ele>2693.7</ele>
        <time>2026-03-23T12:23:16Z</time>
      </trkpt>
      <trkpt lat="44.74646" lon="6.87173">
        <ele>2693.7</ele>
        <time>2026-03-23T12:23:17Z</time>
      </trkpt>
      <trkpt lat="44.74646" lon="6.87173">
        <ele>2693.7</ele>
        <time>2026-03-23T12:23:18Z</time>
      </trkpt>
      <trkpt lat="44.74646" lon="6.87173">
        <ele>2693.7</ele>
        <time>2026-03-23T12:23:19Z</time>
      </trkpt>
      <trkpt lat="44.74646" lon="6.87173">
        <ele>2693.7</ele>
        <time>2026-03-23T12:23:20Z</time>
      </trkpt>
      <trkpt lat="44.74646" lon="6.87173">
        <ele>2692.8</ele>
        <time>2026-03-23T12:23:21Z</time>
      </trkpt>
      <trkpt lat="44.74646" lon="6.87173">
        <ele>2692.8</ele>
        <time>2026-03-23T12:23:22Z</time>
      </trkpt>
      <trkpt lat="44.74646" lon="6.87173">
        <ele>2692.8</ele>
        <time>2026-03-23T12:23:23Z</time>
      </trkpt>
      <trkpt lat="44.74646" lon="6.87173">
        <ele>2692.8</ele>
        <time>2026-03-23T12:23:24Z</time>
      </trkpt>
      <trkpt lat="44.74646" lon="6.87173">
        <ele>2692.8</ele>
        <time>2026-03-23T12:23:25Z</time>
      </trkpt>
      <trkpt lat="44.74646" lon="6.87173">
        <ele>2692.8</ele>
        <time>2026-03-23T12:23:26Z</time>
      </trkpt>
      <trkpt lat="44.74646" lon="6.87173">
        <ele>2692.8</ele>
        <time>2026-03-23T12:23:27Z</time>
      </trkpt>
      <trkpt lat="44.74646" lon="6.87173">
        <ele>2693.9</ele>
        <time>2026-03-23T12:23:28Z</time>
      </trkpt>
      <trkpt lat="44.74646" lon="6.87173">
        <ele>2693.9</ele>
        <time>2026-03-23T12:23:29Z</time>
      </trkpt>
      <trkpt lat="44.74647" lon="6.87173">
        <ele>2692.7</ele>
        <time>2026-03-23T12:23:30Z</time>
      </trkpt>
      <trkpt lat="44.74647" lon="6.87172">
        <ele>2692.7</ele>
        <time>2026-03-23T12:23:31Z</time>
      </trkpt>
      <trkpt lat="44.74648" lon="6.87172">
        <ele>2692.7</ele>
        <time>2026-03-23T12:23:32Z</time>
      </trkpt>
      <trkpt lat="44.74648" lon="6.87172">
        <ele>2692.7</ele>
        <time>2026-03-23T12:23:33Z</time>
      </trkpt>
      <trkpt lat="44.74648" lon="6.87172">
        <ele>2692.7</ele>
        <time>2026-03-23T12:23:34Z</time>
      </trkpt>
      <trkpt lat="44.74648" lon="6.87172">
        <ele>2692.7</ele>
        <time>2026-03-23T12:23:35Z</time>
      </trkpt>
      <trkpt lat="44.74648" lon="6.87172">
        <ele>2692.7</ele>
        <time>2026-03-23T12:23:36Z</time>
      </trkpt>
      <trkpt lat="44.74648" lon="6.87172">
        <ele>2692.7</ele>
        <time>2026-03-23T12:23:37Z</time>
      </trkpt>
      <trkpt lat="44.74648" lon="6.87172">
        <ele>2692.6</ele>
        <time>2026-03-23T12:23:38Z</time>
      </trkpt>
      <trkpt lat="44.74648" lon="6.87172">
        <ele>2692.6</ele>
        <time>2026-03-23T12:23:39Z</time>
      </trkpt>
      <trkpt lat="44.74649" lon="6.87172">
        <ele>2692.6</ele>
        <time>2026-03-23T12:23:40Z</time>
      </trkpt>
      <trkpt lat="44.74649" lon="6.87172">
        <ele>2692.6</ele>
        <time>2026-03-23T12:23:41Z</time>
      </trkpt>
      <trkpt lat="44.74649" lon="6.87172">
        <ele>2692.6</ele>
        <time>2026-03-23T12:23:42Z</time>
      </trkpt>
      <trkpt lat="44.74649" lon="6.87172">
        <ele>2692.6</ele>
        <time>2026-03-23T12:23:43Z</time>
      </trkpt>
      <trkpt lat="44.74649" lon="6.87172">
        <ele>2692.6</ele>
        <time>2026-03-23T12:23:44Z</time>
      </trkpt>
      <trkpt lat="44.74649" lon="6.87172">
        <ele>2692.6</ele>
        <time>2026-03-23T12:23:45Z</time>
      </trkpt>
      <trkpt lat="44.74649" lon="6.87172">
        <ele>2692.6</ele>
        <time>2026-03-23T12:23:46Z</time>
      </trkpt>
      <trkpt lat="44.74649" lon="6.87172">
        <ele>2692.5</ele>
        <time>2026-03-23T12:23:47Z</time>
      </trkpt>
      <trkpt lat="44.74649" lon="6.87172">
        <ele>2692.5</ele>
        <time>2026-03-23T12:23:48Z</time>
      </trkpt>
      <trkpt lat="44.74649" lon="6.87172">
        <ele>2692.5</ele>
        <time>2026-03-23T12:23:49Z</time>
      </trkpt>
      <trkpt lat="44.74648" lon="6.87172">
        <ele>2692.5</ele>
        <time>2026-03-23T12:23:50Z</time>
      </trkpt>
      <trkpt lat="44.74648" lon="6.87172">
        <ele>2692.5</ele>
        <time>2026-03-23T12:23:51Z</time>
      </trkpt>
      <trkpt lat="44.74649" lon="6.87172">
        <ele>2692.5</ele>
        <time>2026-03-23T12:23:52Z</time>
      </trkpt>
      <trkpt lat="44.74649" lon="6.87172">
        <ele>2691.7</ele>
        <time>2026-03-23T12:23:53Z</time>
      </trkpt>
      <trkpt lat="44.7465" lon="6.87172">
        <ele>2691.6</ele>
        <time>2026-03-23T12:23:54Z</time>
      </trkpt>
      <trkpt lat="44.7465" lon="6.87172">
        <ele>2691.6</ele>
        <time>2026-03-23T12:23:55Z</time>
      </trkpt>
      <trkpt lat="44.7465" lon="6.87172">
        <ele>2691.6</ele>
        <time>2026-03-23T12:23:56Z</time>
      </trkpt>
      <trkpt lat="44.74651" lon="6.87172">
        <ele>2691.6</ele>
        <time>2026-03-23T12:23:57Z</time>
      </trkpt>
      <trkpt lat="44.74652" lon="6.87173">
        <ele>2690.8</ele>
        <time>2026-03-23T12:23:58Z</time>
      </trkpt>
      <trkpt lat="44.74653" lon="6.87173">
        <ele>2690.8</ele>
        <time>2026-03-23T12:23:59Z</time>
      </trkpt>
      <trkpt lat="44.74654" lon="6.87173">
        <ele>2691.9</ele>
        <time>2026-03-23T12:24:00Z</time>
      </trkpt>
      <trkpt lat="44.74656" lon="6.87173">
        <ele>2691</ele>
        <time>2026-03-23T12:24:01Z</time>
      </trkpt>
      <trkpt lat="44.74658" lon="6.87173">
        <ele>2689.9</ele>
        <time>2026-03-23T12:24:02Z</time>
      </trkpt>
      <trkpt lat="44.74661" lon="6.87173">
        <ele>2688.9</ele>
        <time>2026-03-23T12:24:03Z</time>
      </trkpt>
      <trkpt lat="44.74664" lon="6.87173">
        <ele>2687</ele>
        <time>2026-03-23T12:24:04Z</time>
      </trkpt>
      <trkpt lat="44.74667" lon="6.87173">
        <ele>2686.1</ele>
        <time>2026-03-23T12:24:05Z</time>
      </trkpt>
      <trkpt lat="44.74671" lon="6.87172">
        <ele>2685.2</ele>
        <time>2026-03-23T12:24:06Z</time>
      </trkpt>
      <trkpt lat="44.74675" lon="6.8717">
        <ele>2683.8</ele>
        <time>2026-03-23T12:24:07Z</time>
      </trkpt>
      <trkpt lat="44.7468" lon="6.87166">
        <ele>2681</ele>
        <time>2026-03-23T12:24:08Z</time>
      </trkpt>
      <trkpt lat="44.74682" lon="6.87161">
        <ele>2679.8</ele>
        <time>2026-03-23T12:24:09Z</time>
      </trkpt>
      <trkpt lat="44.74685" lon="6.87155">
        <ele>2676.5</ele>
        <time>2026-03-23T12:24:10Z</time>
      </trkpt>
      <trkpt lat="44.74689" lon="6.87151">
        <ele>2673.7</ele>
        <time>2026-03-23T12:24:11Z</time>
      </trkpt>
      <trkpt lat="44.7469" lon="6.87147">
        <ele>2672.3</ele>
        <time>2026-03-23T12:24:12Z</time>
      </trkpt>
      <trkpt lat="44.74693" lon="6.87144">
        <ele>2671.5</ele>
        <time>2026-03-23T12:24:13Z</time>
      </trkpt>
      <trkpt lat="44.74697" lon="6.87142">
        <ele>2669.3</ele>
        <time>2026-03-23T12:24:14Z</time>
      </trkpt>
      <trkpt lat="44.74701" lon="6.87137">
        <ele>2666.3</ele>
        <time>2026-03-23T12:24:15Z</time>
      </trkpt>
      <trkpt lat="44.74704" lon="6.87134">
        <ele>2664.9</ele>
        <time>2026-03-23T12:24:16Z</time>
      </trkpt>
      <trkpt lat="44.74708" lon="6.8713">
        <ele>2662.2</ele>
        <time>2026-03-23T12:24:17Z</time>
      </trkpt>
      <trkpt lat="44.7471" lon="6.87128">
        <ele>2661.4</ele>
        <time>2026-03-23T12:24:18Z</time>
      </trkpt>
      <trkpt lat="44.74713" lon="6.87122">
        <ele>2658.9</ele>
        <time>2026-03-23T12:24:19Z</time>
      </trkpt>
      <trkpt lat="44.74717" lon="6.87113">
        <ele>2654.5</ele>
        <time>2026-03-23T12:24:20Z</time>
      </trkpt>
      <trkpt lat="44.7472" lon="6.87106">
        <ele>2652.1</ele>
        <time>2026-03-23T12:24:21Z</time>
      </trkpt>
      <trkpt lat="44.74723" lon="6.871">
        <ele>2648.2</ele>
        <time>2026-03-23T12:24:22Z</time>
      </trkpt>
      <trkpt lat="44.74723" lon="6.87093">
        <ele>2646.7</ele>
        <time>2026-03-23T12:24:23Z</time>
      </trkpt>
      <trkpt lat="44.74725" lon="6.87087">
        <ele>2644</ele>
        <time>2026-03-23T12:24:24Z</time>
      </trkpt>
      <trkpt lat="44.74726" lon="6.87083">
        <ele>2641.6</ele>
        <time>2026-03-23T12:24:25Z</time>
      </trkpt>
      <trkpt lat="44.74727" lon="6.87085">
        <ele>2643</ele>
        <time>2026-03-23T12:24:26Z</time>
      </trkpt>
      <trkpt lat="44.74728" lon="6.87084">
        <ele>2643</ele>
        <time>2026-03-23T12:24:27Z</time>
      </trkpt>
      <trkpt lat="44.74728" lon="6.87085">
        <ele>2643</ele>
        <time>2026-03-23T12:24:28Z</time>
      </trkpt>
      <trkpt lat="44.74728" lon="6.87087">
        <ele>2642.1</ele>
        <time>2026-03-23T12:24:29Z</time>
      </trkpt>
      <trkpt lat="44.74728" lon="6.87087">
        <ele>2642.1</ele>
        <time>2026-03-23T12:24:30Z</time>
      </trkpt>
      <trkpt lat="44.74728" lon="6.87087">
        <ele>2642.9</ele>
        <time>2026-03-23T12:24:31Z</time>
      </trkpt>
      <trkpt lat="44.74728" lon="6.87087">
        <ele>2642.9</ele>
        <time>2026-03-23T12:24:32Z</time>
      </trkpt>
      <trkpt lat="44.74728" lon="6.87087">
        <ele>2642.9</ele>
        <time>2026-03-23T12:24:33Z</time>
      </trkpt>
      <trkpt lat="44.74728" lon="6.87088">
        <ele>2643.4</ele>
        <time>2026-03-23T12:24:34Z</time>
      </trkpt>
      <trkpt lat="44.74728" lon="6.87089">
        <ele>2643.4</ele>
        <time>2026-03-23T12:24:35Z</time>
      </trkpt>
      <trkpt lat="44.74728" lon="6.87088">
        <ele>2643.4</ele>
        <time>2026-03-23T12:24:36Z</time>
      </trkpt>
      <trkpt lat="44.74728" lon="6.87089">
        <ele>2643.4</ele>
        <time>2026-03-23T12:24:37Z</time>
      </trkpt>
      <trkpt lat="44.74729" lon="6.87089">
        <ele>2643.4</ele>
        <time>2026-03-23T12:24:38Z</time>
      </trkpt>
      <trkpt lat="44.74729" lon="6.87089">
        <ele>2643.4</ele>
        <time>2026-03-23T12:24:39Z</time>
      </trkpt>
      <trkpt lat="44.74729" lon="6.87089">
        <ele>2643.4</ele>
        <time>2026-03-23T12:24:40Z</time>
      </trkpt>
      <trkpt lat="44.74729" lon="6.87089">
        <ele>2643.3</ele>
        <time>2026-03-23T12:24:41Z</time>
      </trkpt>
      <trkpt lat="44.74729" lon="6.87089">
        <ele>2643.3</ele>
        <time>2026-03-23T12:24:42Z</time>
      </trkpt>
      <trkpt lat="44.74729" lon="6.87088">
        <ele>2643.3</ele>
        <time>2026-03-23T12:24:43Z</time>
      </trkpt>
      <trkpt lat="44.74729" lon="6.87088">
        <ele>2643.3</ele>
        <time>2026-03-23T12:24:44Z</time>
      </trkpt>
      <trkpt lat="44.74728" lon="6.87088">
        <ele>2643.3</ele>
        <time>2026-03-23T12:24:45Z</time>
      </trkpt>
      <trkpt lat="44.74728" lon="6.87088">
        <ele>2644.1</ele>
        <time>2026-03-23T12:24:46Z</time>
      </trkpt>
      <trkpt lat="44.74728" lon="6.87088">
        <ele>2644.1</ele>
        <time>2026-03-23T12:24:47Z</time>
      </trkpt>
      <trkpt lat="44.74728" lon="6.87088">
        <ele>2643.3</ele>
        <time>2026-03-23T12:24:48Z</time>
      </trkpt>
      <trkpt lat="44.74728" lon="6.87088">
        <ele>2643.3</ele>
        <time>2026-03-23T12:24:49Z</time>
      </trkpt>
      <trkpt lat="44.74728" lon="6.87088">
        <ele>2643.2</ele>
        <time>2026-03-23T12:24:50Z</time>
      </trkpt>
      <trkpt lat="44.74728" lon="6.87088">
        <ele>2643.2</ele>
        <time>2026-03-23T12:24:51Z</time>
      </trkpt>
      <trkpt lat="44.74728" lon="6.87088">
        <ele>2643.2</ele>
        <time>2026-03-23T12:24:52Z</time>
      </trkpt>
      <trkpt lat="44.74728" lon="6.87088">
        <ele>2644.1</ele>
        <time>2026-03-23T12:24:53Z</time>
      </trkpt>
      <trkpt lat="44.74728" lon="6.87088">
        <ele>2644.1</ele>
        <time>2026-03-23T12:24:54Z</time>
      </trkpt>
      <trkpt lat="44.74728" lon="6.87088">
        <ele>2644</ele>
        <time>2026-03-23T12:24:55Z</time>
      </trkpt>
      <trkpt lat="44.74728" lon="6.87088">
        <ele>2642.7</ele>
        <time>2026-03-23T12:24:56Z</time>
      </trkpt>
      <trkpt lat="44.74728" lon="6.87088">
        <ele>2642.6</ele>
        <time>2026-03-23T12:24:57Z</time>
      </trkpt>
      <trkpt lat="44.74728" lon="6.87088">
        <ele>2644</ele>
        <time>2026-03-23T12:24:58Z</time>
      </trkpt>
      <trkpt lat="44.74728" lon="6.87088">
        <ele>2642.6</ele>
        <time>2026-03-23T12:24:59Z</time>
      </trkpt>
      <trkpt lat="44.74728" lon="6.87087">
        <ele>2642.6</ele>
        <time>2026-03-23T12:25:00Z</time>
      </trkpt>
      <trkpt lat="44.74728" lon="6.87087">
        <ele>2642.6</ele>
        <time>2026-03-23T12:25:01Z</time>
      </trkpt>
      <trkpt lat="44.74728" lon="6.87087">
        <ele>2642.6</ele>
        <time>2026-03-23T12:25:02Z</time>
      </trkpt>
      <trkpt lat="44.74728" lon="6.87087">
        <ele>2642.6</ele>
        <time>2026-03-23T12:25:03Z</time>
      </trkpt>
      <trkpt lat="44.74728" lon="6.87087">
        <ele>2642.6</ele>
        <time>2026-03-23T12:25:04Z</time>
      </trkpt>
      <trkpt lat="44.74728" lon="6.87087">
        <ele>2642.6</ele>
        <time>2026-03-23T12:25:05Z</time>
      </trkpt>
      <trkpt lat="44.74727" lon="6.87087">
        <ele>2642.5</ele>
        <time>2026-03-23T12:25:06Z</time>
      </trkpt>
      <trkpt lat="44.74727" lon="6.87087">
        <ele>2642.5</ele>
        <time>2026-03-23T12:25:07Z</time>
      </trkpt>
      <trkpt lat="44.74727" lon="6.87087">
        <ele>2642.5</ele>
        <time>2026-03-23T12:25:08Z</time>
      </trkpt>
      <trkpt lat="44.74727" lon="6.87087">
        <ele>2642.5</ele>
        <time>2026-03-23T12:25:09Z</time>
      </trkpt>
      <trkpt lat="44.74727" lon="6.87087">
        <ele>2642.5</ele>
        <time>2026-03-23T12:25:10Z</time>
      </trkpt>
      <trkpt lat="44.74727" lon="6.87087">
        <ele>2642.5</ele>
        <time>2026-03-23T12:25:11Z</time>
      </trkpt>
      <trkpt lat="44.74727" lon="6.87087">
        <ele>2642.5</ele>
        <time>2026-03-23T12:25:12Z</time>
      </trkpt>
      <trkpt lat="44.74727" lon="6.87087">
        <ele>2642.5</ele>
        <time>2026-03-23T12:25:13Z</time>
      </trkpt>
      <trkpt lat="44.74727" lon="6.87087">
        <ele>2642.5</ele>
        <time>2026-03-23T12:25:14Z</time>
      </trkpt>
      <trkpt lat="44.74727" lon="6.87087">
        <ele>2642.4</ele>
        <time>2026-03-23T12:25:15Z</time>
      </trkpt>
      <trkpt lat="44.74727" lon="6.87087">
        <ele>2642.4</ele>
        <time>2026-03-23T12:25:16Z</time>
      </trkpt>
      <trkpt lat="44.74727" lon="6.87087">
        <ele>2642.4</ele>
        <time>2026-03-23T12:25:17Z</time>
      </trkpt>
      <trkpt lat="44.74727" lon="6.87087">
        <ele>2642.4</ele>
        <time>2026-03-23T12:25:18Z</time>
      </trkpt>
      <trkpt lat="44.74727" lon="6.87087">
        <ele>2642.4</ele>
        <time>2026-03-23T12:25:19Z</time>
      </trkpt>
      <trkpt lat="44.74727" lon="6.87087">
        <ele>2642.4</ele>
        <time>2026-03-23T12:25:20Z</time>
      </trkpt>
      <trkpt lat="44.74727" lon="6.87087">
        <ele>2642.4</ele>
        <time>2026-03-23T12:25:21Z</time>
      </trkpt>
      <trkpt lat="44.74727" lon="6.87087">
        <ele>2642.4</ele>
        <time>2026-03-23T12:25:22Z</time>
      </trkpt>
      <trkpt lat="44.74727" lon="6.87087">
        <ele>2642.4</ele>
        <time>2026-03-23T12:25:23Z</time>
      </trkpt>
      <trkpt lat="44.74727" lon="6.87087">
        <ele>2642.3</ele>
        <time>2026-03-23T12:25:24Z</time>
      </trkpt>
      <trkpt lat="44.74727" lon="6.87087">
        <ele>2642.3</ele>
        <time>2026-03-23T12:25:25Z</time>
      </trkpt>
      <trkpt lat="44.74727" lon="6.87087">
        <ele>2642.3</ele>
        <time>2026-03-23T12:25:26Z</time>
      </trkpt>
      <trkpt lat="44.74727" lon="6.87087">
        <ele>2642.3</ele>
        <time>2026-03-23T12:25:27Z</time>
      </trkpt>
      <trkpt lat="44.74727" lon="6.87087">
        <ele>2642.3</ele>
        <time>2026-03-23T12:25:28Z</time>
      </trkpt>
      <trkpt lat="44.74727" lon="6.87087">
        <ele>2642.3</ele>
        <time>2026-03-23T12:25:29Z</time>
      </trkpt>
      <trkpt lat="44.74727" lon="6.87086">
        <ele>2642.3</ele>
        <time>2026-03-23T12:25:30Z</time>
      </trkpt>
      <trkpt lat="44.74727" lon="6.87086">
        <ele>2642.3</ele>
        <time>2026-03-23T12:25:31Z</time>
      </trkpt>
      <trkpt lat="44.74727" lon="6.87086">
        <ele>2642.3</ele>
        <time>2026-03-23T12:25:32Z</time>
      </trkpt>
      <trkpt lat="44.74727" lon="6.87086">
        <ele>2642.2</ele>
        <time>2026-03-23T12:25:33Z</time>
      </trkpt>
      <trkpt lat="44.74727" lon="6.87086">
        <ele>2642.2</ele>
        <time>2026-03-23T12:25:34Z</time>
      </trkpt>
      <trkpt lat="44.74727" lon="6.87086">
        <ele>2642.2</ele>
        <time>2026-03-23T12:25:35Z</time>
      </trkpt>
      <trkpt lat="44.74726" lon="6.87086">
        <ele>2642.2</ele>
        <time>2026-03-23T12:25:36Z</time>
      </trkpt>
      <trkpt lat="44.74726" lon="6.87086">
        <ele>2642.2</ele>
        <time>2026-03-23T12:25:37Z</time>
      </trkpt>
      <trkpt lat="44.74726" lon="6.87086">
        <ele>2642.2</ele>
        <time>2026-03-23T12:25:38Z</time>
      </trkpt>
      <trkpt lat="44.74726" lon="6.87086">
        <ele>2642.2</ele>
        <time>2026-03-23T12:25:39Z</time>
      </trkpt>
      <trkpt lat="44.74726" lon="6.87086">
        <ele>2642.2</ele>
        <time>2026-03-23T12:25:40Z</time>
      </trkpt>
      <trkpt lat="44.74726" lon="6.87086">
        <ele>2642.2</ele>
        <time>2026-03-23T12:25:41Z</time>
      </trkpt>
      <trkpt lat="44.74726" lon="6.87086">
        <ele>2642.1</ele>
        <time>2026-03-23T12:25:42Z</time>
      </trkpt>
      <trkpt lat="44.74726" lon="6.87086">
        <ele>2642.1</ele>
        <time>2026-03-23T12:25:43Z</time>
      </trkpt>
      <trkpt lat="44.74726" lon="6.87086">
        <ele>2642.1</ele>
        <time>2026-03-23T12:25:44Z</time>
      </trkpt>
      <trkpt lat="44.74726" lon="6.87086">
        <ele>2642.1</ele>
        <time>2026-03-23T12:25:45Z</time>
      </trkpt>
      <trkpt lat="44.74726" lon="6.87085">
        <ele>2642.1</ele>
        <time>2026-03-23T12:25:46Z</time>
      </trkpt>
      <trkpt lat="44.74726" lon="6.87085">
        <ele>2642.1</ele>
        <time>2026-03-23T12:25:47Z</time>
      </trkpt>
      <trkpt lat="44.74726" lon="6.87085">
        <ele>2642.1</ele>
        <time>2026-03-23T12:25:48Z</time>
      </trkpt>
      <trkpt lat="44.74726" lon="6.87085">
        <ele>2642.1</ele>
        <time>2026-03-23T12:25:49Z</time>
      </trkpt>
      <trkpt lat="44.74727" lon="6.87084">
        <ele>2642.1</ele>
        <time>2026-03-23T12:25:50Z</time>
      </trkpt>
      <trkpt lat="44.74727" lon="6.87083">
        <ele>2640.7</ele>
        <time>2026-03-23T12:25:51Z</time>
      </trkpt>
      <trkpt lat="44.74727" lon="6.87077">
        <ele>2639.3</ele>
        <time>2026-03-23T12:25:52Z</time>
      </trkpt>
      <trkpt lat="44.74727" lon="6.87075">
        <ele>2637.9</ele>
        <time>2026-03-23T12:25:53Z</time>
      </trkpt>
      <trkpt lat="44.74726" lon="6.87069">
        <ele>2636.5</ele>
        <time>2026-03-23T12:25:54Z</time>
      </trkpt>
      <trkpt lat="44.74725" lon="6.87064">
        <ele>2636.1</ele>
        <time>2026-03-23T12:25:55Z</time>
      </trkpt>
      <trkpt lat="44.74725" lon="6.87059">
        <ele>2634.6</ele>
        <time>2026-03-23T12:25:56Z</time>
      </trkpt>
      <trkpt lat="44.74727" lon="6.87055">
        <ele>2632.1</ele>
        <time>2026-03-23T12:25:57Z</time>
      </trkpt>
      <trkpt lat="44.7473" lon="6.87052">
        <ele>2629.8</ele>
        <time>2026-03-23T12:25:58Z</time>
      </trkpt>
      <trkpt lat="44.74733" lon="6.87048">
        <ele>2627.6</ele>
        <time>2026-03-23T12:25:59Z</time>
      </trkpt>
      <trkpt lat="44.74736" lon="6.87043">
        <ele>2625.5</ele>
        <time>2026-03-23T12:26:00Z</time>
      </trkpt>
      <trkpt lat="44.74736" lon="6.87038">
        <ele>2624.3</ele>
        <time>2026-03-23T12:26:01Z</time>
      </trkpt>
      <trkpt lat="44.74737" lon="6.87032">
        <ele>2621.8</ele>
        <time>2026-03-23T12:26:02Z</time>
      </trkpt>
      <trkpt lat="44.74739" lon="6.87027">
        <ele>2619.6</ele>
        <time>2026-03-23T12:26:03Z</time>
      </trkpt>
      <trkpt lat="44.74739" lon="6.87021">
        <ele>2618.2</ele>
        <time>2026-03-23T12:26:04Z</time>
      </trkpt>
      <trkpt lat="44.74742" lon="6.87015">
        <ele>2615.9</ele>
        <time>2026-03-23T12:26:05Z</time>
      </trkpt>
      <trkpt lat="44.74743" lon="6.87011">
        <ele>2614.5</ele>
        <time>2026-03-23T12:26:06Z</time>
      </trkpt>
      <trkpt lat="44.74746" lon="6.87006">
        <ele>2612.1</ele>
        <time>2026-03-23T12:26:07Z</time>
      </trkpt>
      <trkpt lat="44.74745" lon="6.87">
        <ele>2609.4</ele>
        <time>2026-03-23T12:26:08Z</time>
      </trkpt>
      <trkpt lat="44.74744" lon="6.86995">
        <ele>2608.1</ele>
        <time>2026-03-23T12:26:09Z</time>
      </trkpt>
      <trkpt lat="44.74745" lon="6.86991">
        <ele>2606.8</ele>
        <time>2026-03-23T12:26:10Z</time>
      </trkpt>
      <trkpt lat="44.74748" lon="6.86991">
        <ele>2605.8</ele>
        <time>2026-03-23T12:26:11Z</time>
      </trkpt>
      <trkpt lat="44.74749" lon="6.8699">
        <ele>2605.8</ele>
        <time>2026-03-23T12:26:12Z</time>
      </trkpt>
      <trkpt lat="44.74749" lon="6.8699">
        <ele>2605.8</ele>
        <time>2026-03-23T12:26:13Z</time>
      </trkpt>
      <trkpt lat="44.74749" lon="6.8699">
        <ele>2605.8</ele>
        <time>2026-03-23T12:26:14Z</time>
      </trkpt>
      <trkpt lat="44.74749" lon="6.8699">
        <ele>2605.8</ele>
        <time>2026-03-23T12:26:15Z</time>
      </trkpt>
      <trkpt lat="44.74749" lon="6.8699">
        <ele>2605.8</ele>
        <time>2026-03-23T12:26:16Z</time>
      </trkpt>
      <trkpt lat="44.74749" lon="6.8699">
        <ele>2605.8</ele>
        <time>2026-03-23T12:26:17Z</time>
      </trkpt>
      <trkpt lat="44.74749" lon="6.8699">
        <ele>2605.7</ele>
        <time>2026-03-23T12:26:18Z</time>
      </trkpt>
      <trkpt lat="44.74749" lon="6.8699">
        <ele>2605.7</ele>
        <time>2026-03-23T12:26:19Z</time>
      </trkpt>
      <trkpt lat="44.74749" lon="6.8699">
        <ele>2605.7</ele>
        <time>2026-03-23T12:26:20Z</time>
      </trkpt>
      <trkpt lat="44.74749" lon="6.86989">
        <ele>2605.7</ele>
        <time>2026-03-23T12:26:21Z</time>
      </trkpt>
      <trkpt lat="44.74749" lon="6.86989">
        <ele>2605.7</ele>
        <time>2026-03-23T12:26:22Z</time>
      </trkpt>
      <trkpt lat="44.74749" lon="6.86989">
        <ele>2605.7</ele>
        <time>2026-03-23T12:26:23Z</time>
      </trkpt>
      <trkpt lat="44.74749" lon="6.86989">
        <ele>2604.4</ele>
        <time>2026-03-23T12:26:24Z</time>
      </trkpt>
      <trkpt lat="44.74749" lon="6.86989">
        <ele>2604.4</ele>
        <time>2026-03-23T12:26:25Z</time>
      </trkpt>
      <trkpt lat="44.7475" lon="6.86989">
        <ele>2604.6</ele>
        <time>2026-03-23T12:26:26Z</time>
      </trkpt>
      <trkpt lat="44.7475" lon="6.86989">
        <ele>2603.3</ele>
        <time>2026-03-23T12:26:27Z</time>
      </trkpt>
      <trkpt lat="44.7475" lon="6.86989">
        <ele>2603.3</ele>
        <time>2026-03-23T12:26:28Z</time>
      </trkpt>
      <trkpt lat="44.7475" lon="6.86989">
        <ele>2604.6</ele>
        <time>2026-03-23T12:26:29Z</time>
      </trkpt>
      <trkpt lat="44.7475" lon="6.86987">
        <ele>2603.3</ele>
        <time>2026-03-23T12:26:30Z</time>
      </trkpt>
      <trkpt lat="44.7475" lon="6.86986">
        <ele>2604.3</ele>
        <time>2026-03-23T12:26:31Z</time>
      </trkpt>
      <trkpt lat="44.7475" lon="6.86986">
        <ele>2604.3</ele>
        <time>2026-03-23T12:26:32Z</time>
      </trkpt>
      <trkpt lat="44.74749" lon="6.86986">
        <ele>2604.3</ele>
        <time>2026-03-23T12:26:33Z</time>
      </trkpt>
      <trkpt lat="44.74749" lon="6.86987">
        <ele>2604.3</ele>
        <time>2026-03-23T12:26:34Z</time>
      </trkpt>
      <trkpt lat="44.74749" lon="6.86987">
        <ele>2604.2</ele>
        <time>2026-03-23T12:26:35Z</time>
      </trkpt>
      <trkpt lat="44.74749" lon="6.86987">
        <ele>2604.2</ele>
        <time>2026-03-23T12:26:36Z</time>
      </trkpt>
      <trkpt lat="44.74749" lon="6.86987">
        <ele>2604.2</ele>
        <time>2026-03-23T12:26:37Z</time>
      </trkpt>
      <trkpt lat="44.74749" lon="6.86987">
        <ele>2604.2</ele>
        <time>2026-03-23T12:26:38Z</time>
      </trkpt>
      <trkpt lat="44.7475" lon="6.86987">
        <ele>2603.2</ele>
        <time>2026-03-23T12:26:39Z</time>
      </trkpt>
      <trkpt lat="44.7475" lon="6.86988">
        <ele>2603.2</ele>
        <time>2026-03-23T12:26:40Z</time>
      </trkpt>
      <trkpt lat="44.74751" lon="6.86988">
        <ele>2603.2</ele>
        <time>2026-03-23T12:26:41Z</time>
      </trkpt>
      <trkpt lat="44.74751" lon="6.86989">
        <ele>2603.1</ele>
        <time>2026-03-23T12:26:42Z</time>
      </trkpt>
      <trkpt lat="44.74751" lon="6.86989">
        <ele>2604.4</ele>
        <time>2026-03-23T12:26:43Z</time>
      </trkpt>
      <trkpt lat="44.74751" lon="6.86989">
        <ele>2604.4</ele>
        <time>2026-03-23T12:26:44Z</time>
      </trkpt>
      <trkpt lat="44.74751" lon="6.86989">
        <ele>2603.1</ele>
        <time>2026-03-23T12:26:45Z</time>
      </trkpt>
      <trkpt lat="44.74751" lon="6.86988">
        <ele>2603.1</ele>
        <time>2026-03-23T12:26:46Z</time>
      </trkpt>
      <trkpt lat="44.74751" lon="6.86988">
        <ele>2603.1</ele>
        <time>2026-03-23T12:26:47Z</time>
      </trkpt>
      <trkpt lat="44.74751" lon="6.86988">
        <ele>2603.1</ele>
        <time>2026-03-23T12:26:48Z</time>
      </trkpt>
      <trkpt lat="44.74751" lon="6.86988">
        <ele>2603.1</ele>
        <time>2026-03-23T12:26:49Z</time>
      </trkpt>
      <trkpt lat="44.74751" lon="6.86988">
        <ele>2603.1</ele>
        <time>2026-03-23T12:26:50Z</time>
      </trkpt>
      <trkpt lat="44.74751" lon="6.86988">
        <ele>2603</ele>
        <time>2026-03-23T12:26:51Z</time>
      </trkpt>
      <trkpt lat="44.74751" lon="6.86988">
        <ele>2603</ele>
        <time>2026-03-23T12:26:52Z</time>
      </trkpt>
      <trkpt lat="44.7475" lon="6.86987">
        <ele>2603</ele>
        <time>2026-03-23T12:26:53Z</time>
      </trkpt>
      <trkpt lat="44.7475" lon="6.86987">
        <ele>2603</ele>
        <time>2026-03-23T12:26:54Z</time>
      </trkpt>
      <trkpt lat="44.74749" lon="6.86987">
        <ele>2604</ele>
        <time>2026-03-23T12:26:55Z</time>
      </trkpt>
      <trkpt lat="44.74748" lon="6.86985">
        <ele>2604</ele>
        <time>2026-03-23T12:26:56Z</time>
      </trkpt>
      <trkpt lat="44.74746" lon="6.86982">
        <ele>2603.6</ele>
        <time>2026-03-23T12:26:57Z</time>
      </trkpt>
      <trkpt lat="44.74746" lon="6.86981">
        <ele>2603.6</ele>
        <time>2026-03-23T12:26:58Z</time>
      </trkpt>
      <trkpt lat="44.74744" lon="6.86979">
        <ele>2602.1</ele>
        <time>2026-03-23T12:26:59Z</time>
      </trkpt>
      <trkpt lat="44.74743" lon="6.86978">
        <ele>2603.1</ele>
        <time>2026-03-23T12:27:00Z</time>
      </trkpt>
      <trkpt lat="44.74743" lon="6.86977">
        <ele>2603.1</ele>
        <time>2026-03-23T12:27:01Z</time>
      </trkpt>
      <trkpt lat="44.74742" lon="6.86977">
        <ele>2603.1</ele>
        <time>2026-03-23T12:27:02Z</time>
      </trkpt>
      <trkpt lat="44.74742" lon="6.86977">
        <ele>2603.1</ele>
        <time>2026-03-23T12:27:03Z</time>
      </trkpt>
      <trkpt lat="44.74742" lon="6.86977">
        <ele>2603.1</ele>
        <time>2026-03-23T12:27:04Z</time>
      </trkpt>
      <trkpt lat="44.74742" lon="6.86976">
        <ele>2603.1</ele>
        <time>2026-03-23T12:27:05Z</time>
      </trkpt>
      <trkpt lat="44.74741" lon="6.86974">
        <ele>2601.5</ele>
        <time>2026-03-23T12:27:06Z</time>
      </trkpt>
      <trkpt lat="44.74743" lon="6.8697">
        <ele>2599.8</ele>
        <time>2026-03-23T12:27:07Z</time>
      </trkpt>
      <trkpt lat="44.74744" lon="6.86969">
        <ele>2598.8</ele>
        <time>2026-03-23T12:27:08Z</time>
      </trkpt>
      <trkpt lat="44.74746" lon="6.86969">
        <ele>2598.8</ele>
        <time>2026-03-23T12:27:09Z</time>
      </trkpt>
      <trkpt lat="44.74747" lon="6.86969">
        <ele>2597.8</ele>
        <time>2026-03-23T12:27:10Z</time>
      </trkpt>
      <trkpt lat="44.74749" lon="6.86967">
        <ele>2596.1</ele>
        <time>2026-03-23T12:27:11Z</time>
      </trkpt>
      <trkpt lat="44.74749" lon="6.86965">
        <ele>2596.1</ele>
        <time>2026-03-23T12:27:12Z</time>
      </trkpt>
      <trkpt lat="44.7475" lon="6.8696">
        <ele>2593.4</ele>
        <time>2026-03-23T12:27:13Z</time>
      </trkpt>
      <trkpt lat="44.7475" lon="6.86958">
        <ele>2591.9</ele>
        <time>2026-03-23T12:27:14Z</time>
      </trkpt>
      <trkpt lat="44.74751" lon="6.86953">
        <ele>2590.4</ele>
        <time>2026-03-23T12:27:15Z</time>
      </trkpt>
      <trkpt lat="44.74751" lon="6.86949">
        <ele>2588.9</ele>
        <time>2026-03-23T12:27:16Z</time>
      </trkpt>
      <trkpt lat="44.74752" lon="6.86945">
        <ele>2587.3</ele>
        <time>2026-03-23T12:27:17Z</time>
      </trkpt>
      <trkpt lat="44.74752" lon="6.86939">
        <ele>2585.7</ele>
        <time>2026-03-23T12:27:18Z</time>
      </trkpt>
      <trkpt lat="44.74753" lon="6.86934">
        <ele>2583.1</ele>
        <time>2026-03-23T12:27:19Z</time>
      </trkpt>
      <trkpt lat="44.74756" lon="6.8693">
        <ele>2580.4</ele>
        <time>2026-03-23T12:27:20Z</time>
      </trkpt>
      <trkpt lat="44.74759" lon="6.86929">
        <ele>2577.7</ele>
        <time>2026-03-23T12:27:21Z</time>
      </trkpt>
      <trkpt lat="44.74759" lon="6.86925">
        <ele>2577.7</ele>
        <time>2026-03-23T12:27:22Z</time>
      </trkpt>
      <trkpt lat="44.7476" lon="6.86923">
        <ele>2575.9</ele>
        <time>2026-03-23T12:27:23Z</time>
      </trkpt>
      <trkpt lat="44.74758" lon="6.86924">
        <ele>2576.8</ele>
        <time>2026-03-23T12:27:24Z</time>
      </trkpt>
      <trkpt lat="44.74759" lon="6.86924">
        <ele>2575.8</ele>
        <time>2026-03-23T12:27:25Z</time>
      </trkpt>
      <trkpt lat="44.74759" lon="6.86924">
        <ele>2575.8</ele>
        <time>2026-03-23T12:27:26Z</time>
      </trkpt>
      <trkpt lat="44.74759" lon="6.86924">
        <ele>2575.8</ele>
        <time>2026-03-23T12:27:27Z</time>
      </trkpt>
      <trkpt lat="44.74759" lon="6.86924">
        <ele>2575.8</ele>
        <time>2026-03-23T12:27:28Z</time>
      </trkpt>
      <trkpt lat="44.7476" lon="6.86924">
        <ele>2575.8</ele>
        <time>2026-03-23T12:27:29Z</time>
      </trkpt>
      <trkpt lat="44.7476" lon="6.86923">
        <ele>2575.8</ele>
        <time>2026-03-23T12:27:30Z</time>
      </trkpt>
      <trkpt lat="44.7476" lon="6.86923">
        <ele>2575.8</ele>
        <time>2026-03-23T12:27:31Z</time>
      </trkpt>
      <trkpt lat="44.7476" lon="6.86923">
        <ele>2575.8</ele>
        <time>2026-03-23T12:27:32Z</time>
      </trkpt>
      <trkpt lat="44.74761" lon="6.86923">
        <ele>2575.7</ele>
        <time>2026-03-23T12:27:33Z</time>
      </trkpt>
      <trkpt lat="44.74761" lon="6.86923">
        <ele>2575.7</ele>
        <time>2026-03-23T12:27:34Z</time>
      </trkpt>
      <trkpt lat="44.74761" lon="6.86923">
        <ele>2575.7</ele>
        <time>2026-03-23T12:27:35Z</time>
      </trkpt>
      <trkpt lat="44.74761" lon="6.86923">
        <ele>2575.7</ele>
        <time>2026-03-23T12:27:36Z</time>
      </trkpt>
      <trkpt lat="44.74761" lon="6.86922">
        <ele>2575.7</ele>
        <time>2026-03-23T12:27:37Z</time>
      </trkpt>
      <trkpt lat="44.74762" lon="6.86922">
        <ele>2575.7</ele>
        <time>2026-03-23T12:27:38Z</time>
      </trkpt>
      <trkpt lat="44.74762" lon="6.86922">
        <ele>2574.7</ele>
        <time>2026-03-23T12:27:39Z</time>
      </trkpt>
      <trkpt lat="44.74762" lon="6.86922">
        <ele>2574.7</ele>
        <time>2026-03-23T12:27:40Z</time>
      </trkpt>
      <trkpt lat="44.74762" lon="6.86922">
        <ele>2574.7</ele>
        <time>2026-03-23T12:27:41Z</time>
      </trkpt>
      <trkpt lat="44.74763" lon="6.86922">
        <ele>2574.7</ele>
        <time>2026-03-23T12:27:42Z</time>
      </trkpt>
      <trkpt lat="44.74763" lon="6.86921">
        <ele>2574.7</ele>
        <time>2026-03-23T12:27:43Z</time>
      </trkpt>
      <trkpt lat="44.74763" lon="6.86921">
        <ele>2574.7</ele>
        <time>2026-03-23T12:27:44Z</time>
      </trkpt>
      <trkpt lat="44.74763" lon="6.86921">
        <ele>2574.7</ele>
        <time>2026-03-23T12:27:45Z</time>
      </trkpt>
      <trkpt lat="44.74764" lon="6.86921">
        <ele>2574.7</ele>
        <time>2026-03-23T12:27:46Z</time>
      </trkpt>
      <trkpt lat="44.74767" lon="6.8692">
        <ele>2571.8</ele>
        <time>2026-03-23T12:27:47Z</time>
      </trkpt>
      <trkpt lat="44.74768" lon="6.8692">
        <ele>2571.8</ele>
        <time>2026-03-23T12:27:48Z</time>
      </trkpt>
      <trkpt lat="44.74771" lon="6.86915">
        <ele>2568.9</ele>
        <time>2026-03-23T12:27:49Z</time>
      </trkpt>
      <trkpt lat="44.74772" lon="6.86913">
        <ele>2567.9</ele>
        <time>2026-03-23T12:27:50Z</time>
      </trkpt>
      <trkpt lat="44.74774" lon="6.8691">
        <ele>2564.9</ele>
        <time>2026-03-23T12:27:51Z</time>
      </trkpt>
      <trkpt lat="44.74776" lon="6.86906">
        <ele>2563.1</ele>
        <time>2026-03-23T12:27:52Z</time>
      </trkpt>
      <trkpt lat="44.74777" lon="6.86904">
        <ele>2562</ele>
        <time>2026-03-23T12:27:53Z</time>
      </trkpt>
      <trkpt lat="44.74778" lon="6.869">
        <ele>2560.1</ele>
        <time>2026-03-23T12:27:54Z</time>
      </trkpt>
      <trkpt lat="44.74779" lon="6.86896">
        <ele>2558.2</ele>
        <time>2026-03-23T12:27:55Z</time>
      </trkpt>
      <trkpt lat="44.74781" lon="6.86891">
        <ele>2555.1</ele>
        <time>2026-03-23T12:27:56Z</time>
      </trkpt>
      <trkpt lat="44.74782" lon="6.86887">
        <ele>2553</ele>
        <time>2026-03-23T12:27:57Z</time>
      </trkpt>
      <trkpt lat="44.74782" lon="6.86886">
        <ele>2550.9</ele>
        <time>2026-03-23T12:27:58Z</time>
      </trkpt>
      <trkpt lat="44.74782" lon="6.86884">
        <ele>2550.9</ele>
        <time>2026-03-23T12:27:59Z</time>
      </trkpt>
      <trkpt lat="44.74782" lon="6.86883">
        <ele>2550.9</ele>
        <time>2026-03-23T12:28:00Z</time>
      </trkpt>
      <trkpt lat="44.74783" lon="6.86883">
        <ele>2550.9</ele>
        <time>2026-03-23T12:28:01Z</time>
      </trkpt>
      <trkpt lat="44.74783" lon="6.86885">
        <ele>2550.9</ele>
        <time>2026-03-23T12:28:02Z</time>
      </trkpt>
      <trkpt lat="44.74783" lon="6.86886">
        <ele>2550.8</ele>
        <time>2026-03-23T12:28:03Z</time>
      </trkpt>
      <trkpt lat="44.74784" lon="6.86887">
        <ele>2551.9</ele>
        <time>2026-03-23T12:28:04Z</time>
      </trkpt>
      <trkpt lat="44.74784" lon="6.86888">
        <ele>2551.8</ele>
        <time>2026-03-23T12:28:05Z</time>
      </trkpt>
      <trkpt lat="44.74785" lon="6.86888">
        <ele>2551.8</ele>
        <time>2026-03-23T12:28:06Z</time>
      </trkpt>
      <trkpt lat="44.74785" lon="6.86889">
        <ele>2551.8</ele>
        <time>2026-03-23T12:28:07Z</time>
      </trkpt>
      <trkpt lat="44.74785" lon="6.86889">
        <ele>2551.8</ele>
        <time>2026-03-23T12:28:08Z</time>
      </trkpt>
      <trkpt lat="44.74785" lon="6.86888">
        <ele>2551.8</ele>
        <time>2026-03-23T12:28:09Z</time>
      </trkpt>
      <trkpt lat="44.74785" lon="6.86889">
        <ele>2551.8</ele>
        <time>2026-03-23T12:28:10Z</time>
      </trkpt>
      <trkpt lat="44.74785" lon="6.86889">
        <ele>2551.8</ele>
        <time>2026-03-23T12:28:11Z</time>
      </trkpt>
      <trkpt lat="44.74785" lon="6.86889">
        <ele>2551.8</ele>
        <time>2026-03-23T12:28:12Z</time>
      </trkpt>
      <trkpt lat="44.74786" lon="6.86889">
        <ele>2551.8</ele>
        <time>2026-03-23T12:28:13Z</time>
      </trkpt>
      <trkpt lat="44.74786" lon="6.86889">
        <ele>2551.7</ele>
        <time>2026-03-23T12:28:14Z</time>
      </trkpt>
      <trkpt lat="44.74786" lon="6.86889">
        <ele>2551.7</ele>
        <time>2026-03-23T12:28:15Z</time>
      </trkpt>
      <trkpt lat="44.74786" lon="6.86889">
        <ele>2551.7</ele>
        <time>2026-03-23T12:28:16Z</time>
      </trkpt>
      <trkpt lat="44.74786" lon="6.86889">
        <ele>2551.7</ele>
        <time>2026-03-23T12:28:17Z</time>
      </trkpt>
      <trkpt lat="44.74786" lon="6.86889">
        <ele>2551.7</ele>
        <time>2026-03-23T12:28:18Z</time>
      </trkpt>
      <trkpt lat="44.74786" lon="6.86889">
        <ele>2550.6</ele>
        <time>2026-03-23T12:28:19Z</time>
      </trkpt>
      <trkpt lat="44.74786" lon="6.86889">
        <ele>2550.6</ele>
        <time>2026-03-23T12:28:20Z</time>
      </trkpt>
      <trkpt lat="44.74786" lon="6.86889">
        <ele>2550.6</ele>
        <time>2026-03-23T12:28:21Z</time>
      </trkpt>
      <trkpt lat="44.74786" lon="6.86889">
        <ele>2550.6</ele>
        <time>2026-03-23T12:28:22Z</time>
      </trkpt>
      <trkpt lat="44.74787" lon="6.8689">
        <ele>2550.5</ele>
        <time>2026-03-23T12:28:23Z</time>
      </trkpt>
      <trkpt lat="44.74787" lon="6.8689">
        <ele>2550.5</ele>
        <time>2026-03-23T12:28:24Z</time>
      </trkpt>
      <trkpt lat="44.74787" lon="6.8689">
        <ele>2550.5</ele>
        <time>2026-03-23T12:28:25Z</time>
      </trkpt>
      <trkpt lat="44.74787" lon="6.8689">
        <ele>2550.5</ele>
        <time>2026-03-23T12:28:26Z</time>
      </trkpt>
      <trkpt lat="44.74787" lon="6.8689">
        <ele>2550.5</ele>
        <time>2026-03-23T12:28:27Z</time>
      </trkpt>
      <trkpt lat="44.74787" lon="6.8689">
        <ele>2550.5</ele>
        <time>2026-03-23T12:28:28Z</time>
      </trkpt>
      <trkpt lat="44.74787" lon="6.8689">
        <ele>2550.5</ele>
        <time>2026-03-23T12:28:29Z</time>
      </trkpt>
      <trkpt lat="44.74787" lon="6.8689">
        <ele>2550.5</ele>
        <time>2026-03-23T12:28:30Z</time>
      </trkpt>
      <trkpt lat="44.74787" lon="6.8689">
        <ele>2550.5</ele>
        <time>2026-03-23T12:28:31Z</time>
      </trkpt>
      <trkpt lat="44.74787" lon="6.8689">
        <ele>2550.4</ele>
        <time>2026-03-23T12:28:32Z</time>
      </trkpt>
      <trkpt lat="44.74787" lon="6.8689">
        <ele>2550.4</ele>
        <time>2026-03-23T12:28:33Z</time>
      </trkpt>
      <trkpt lat="44.74787" lon="6.8689">
        <ele>2550.4</ele>
        <time>2026-03-23T12:28:34Z</time>
      </trkpt>
      <trkpt lat="44.74787" lon="6.8689">
        <ele>2550.4</ele>
        <time>2026-03-23T12:28:35Z</time>
      </trkpt>
      <trkpt lat="44.74787" lon="6.8689">
        <ele>2550.4</ele>
        <time>2026-03-23T12:28:36Z</time>
      </trkpt>
      <trkpt lat="44.74787" lon="6.8689">
        <ele>2550.4</ele>
        <time>2026-03-23T12:28:37Z</time>
      </trkpt>
      <trkpt lat="44.74787" lon="6.8689">
        <ele>2550.4</ele>
        <time>2026-03-23T12:28:38Z</time>
      </trkpt>
      <trkpt lat="44.74787" lon="6.8689">
        <ele>2550.4</ele>
        <time>2026-03-23T12:28:39Z</time>
      </trkpt>
      <trkpt lat="44.74787" lon="6.8689">
        <ele>2550.4</ele>
        <time>2026-03-23T12:28:40Z</time>
      </trkpt>
      <trkpt lat="44.74787" lon="6.8689">
        <ele>2550.3</ele>
        <time>2026-03-23T12:28:41Z</time>
      </trkpt>
      <trkpt lat="44.74787" lon="6.86889">
        <ele>2550.3</ele>
        <time>2026-03-23T12:28:42Z</time>
      </trkpt>
      <trkpt lat="44.74787" lon="6.86889">
        <ele>2550.3</ele>
        <time>2026-03-23T12:28:43Z</time>
      </trkpt>
      <trkpt lat="44.74787" lon="6.86889">
        <ele>2550.3</ele>
        <time>2026-03-23T12:28:44Z</time>
      </trkpt>
      <trkpt lat="44.74787" lon="6.86889">
        <ele>2550.3</ele>
        <time>2026-03-23T12:28:45Z</time>
      </trkpt>
      <trkpt lat="44.74787" lon="6.86889">
        <ele>2550.3</ele>
        <time>2026-03-23T12:28:46Z</time>
      </trkpt>
      <trkpt lat="44.74787" lon="6.86889">
        <ele>2550.3</ele>
        <time>2026-03-23T12:28:47Z</time>
      </trkpt>
      <trkpt lat="44.74787" lon="6.86889">
        <ele>2550.3</ele>
        <time>2026-03-23T12:28:48Z</time>
      </trkpt>
      <trkpt lat="44.74787" lon="6.86889">
        <ele>2550.3</ele>
        <time>2026-03-23T12:28:49Z</time>
      </trkpt>
      <trkpt lat="44.74787" lon="6.86889">
        <ele>2550.3</ele>
        <time>2026-03-23T12:28:50Z</time>
      </trkpt>
      <trkpt lat="44.74787" lon="6.86889">
        <ele>2550.2</ele>
        <time>2026-03-23T12:28:51Z</time>
      </trkpt>
      <trkpt lat="44.74787" lon="6.86889">
        <ele>2550.2</ele>
        <time>2026-03-23T12:28:52Z</time>
      </trkpt>
      <trkpt lat="44.74787" lon="6.86889">
        <ele>2550.2</ele>
        <time>2026-03-23T12:28:53Z</time>
      </trkpt>
      <trkpt lat="44.74787" lon="6.86889">
        <ele>2550.2</ele>
        <time>2026-03-23T12:28:54Z</time>
      </trkpt>
      <trkpt lat="44.74787" lon="6.86889">
        <ele>2550.2</ele>
        <time>2026-03-23T12:28:55Z</time>
      </trkpt>
      <trkpt lat="44.74787" lon="6.86889">
        <ele>2550.2</ele>
        <time>2026-03-23T12:28:56Z</time>
      </trkpt>
      <trkpt lat="44.74787" lon="6.86889">
        <ele>2550.2</ele>
        <time>2026-03-23T12:28:57Z</time>
      </trkpt>
      <trkpt lat="44.74787" lon="6.86889">
        <ele>2550.2</ele>
        <time>2026-03-23T12:28:58Z</time>
      </trkpt>
      <trkpt lat="44.74787" lon="6.86889">
        <ele>2550.2</ele>
        <time>2026-03-23T12:28:59Z</time>
      </trkpt>
      <trkpt lat="44.74787" lon="6.86889">
        <ele>2550.1</ele>
        <time>2026-03-23T12:29:00Z</time>
      </trkpt>
      <trkpt lat="44.74787" lon="6.86889">
        <ele>2550.1</ele>
        <time>2026-03-23T12:29:01Z</time>
      </trkpt>
      <trkpt lat="44.74787" lon="6.86889">
        <ele>2550.1</ele>
        <time>2026-03-23T12:29:02Z</time>
      </trkpt>
      <trkpt lat="44.74788" lon="6.86889">
        <ele>2550.1</ele>
        <time>2026-03-23T12:29:03Z</time>
      </trkpt>
      <trkpt lat="44.74788" lon="6.86889">
        <ele>2550.1</ele>
        <time>2026-03-23T12:29:04Z</time>
      </trkpt>
      <trkpt lat="44.74788" lon="6.86889">
        <ele>2550.1</ele>
        <time>2026-03-23T12:29:05Z</time>
      </trkpt>
      <trkpt lat="44.74788" lon="6.86889">
        <ele>2550.1</ele>
        <time>2026-03-23T12:29:06Z</time>
      </trkpt>
      <trkpt lat="44.74788" lon="6.86889">
        <ele>2550.1</ele>
        <time>2026-03-23T12:29:07Z</time>
      </trkpt>
      <trkpt lat="44.74788" lon="6.86889">
        <ele>2550.1</ele>
        <time>2026-03-23T12:29:08Z</time>
      </trkpt>
      <trkpt lat="44.74788" lon="6.86889">
        <ele>2550</ele>
        <time>2026-03-23T12:29:09Z</time>
      </trkpt>
      <trkpt lat="44.74788" lon="6.86889">
        <ele>2550</ele>
        <time>2026-03-23T12:29:10Z</time>
      </trkpt>
      <trkpt lat="44.74788" lon="6.86889">
        <ele>2550</ele>
        <time>2026-03-23T12:29:11Z</time>
      </trkpt>
      <trkpt lat="44.74788" lon="6.86889">
        <ele>2550</ele>
        <time>2026-03-23T12:29:12Z</time>
      </trkpt>
      <trkpt lat="44.74788" lon="6.86889">
        <ele>2550</ele>
        <time>2026-03-23T12:29:13Z</time>
      </trkpt>
      <trkpt lat="44.74788" lon="6.86889">
        <ele>2550</ele>
        <time>2026-03-23T12:29:14Z</time>
      </trkpt>
      <trkpt lat="44.74788" lon="6.86889">
        <ele>2550</ele>
        <time>2026-03-23T12:29:15Z</time>
      </trkpt>
      <trkpt lat="44.74788" lon="6.86889">
        <ele>2550</ele>
        <time>2026-03-23T12:29:16Z</time>
      </trkpt>
      <trkpt lat="44.74788" lon="6.86889">
        <ele>2550</ele>
        <time>2026-03-23T12:29:17Z</time>
      </trkpt>
      <trkpt lat="44.74788" lon="6.86889">
        <ele>2549.9</ele>
        <time>2026-03-23T12:29:18Z</time>
      </trkpt>
      <trkpt lat="44.74788" lon="6.86889">
        <ele>2549.9</ele>
        <time>2026-03-23T12:29:19Z</time>
      </trkpt>
      <trkpt lat="44.74788" lon="6.86889">
        <ele>2549.9</ele>
        <time>2026-03-23T12:29:20Z</time>
      </trkpt>
      <trkpt lat="44.74788" lon="6.86889">
        <ele>2549.9</ele>
        <time>2026-03-23T12:29:21Z</time>
      </trkpt>
      <trkpt lat="44.74788" lon="6.86889">
        <ele>2549.9</ele>
        <time>2026-03-23T12:29:22Z</time>
      </trkpt>
      <trkpt lat="44.74788" lon="6.86889">
        <ele>2549.9</ele>
        <time>2026-03-23T12:29:23Z</time>
      </trkpt>
      <trkpt lat="44.74788" lon="6.86889">
        <ele>2549.9</ele>
        <time>2026-03-23T12:29:24Z</time>
      </trkpt>
      <trkpt lat="44.74788" lon="6.86889">
        <ele>2549.9</ele>
        <time>2026-03-23T12:29:25Z</time>
      </trkpt>
      <trkpt lat="44.74788" lon="6.86889">
        <ele>2549.9</ele>
        <time>2026-03-23T12:29:26Z</time>
      </trkpt>
      <trkpt lat="44.74788" lon="6.86889">
        <ele>2549.8</ele>
        <time>2026-03-23T12:29:27Z</time>
      </trkpt>
      <trkpt lat="44.74788" lon="6.86889">
        <ele>2549.8</ele>
        <time>2026-03-23T12:29:28Z</time>
      </trkpt>
      <trkpt lat="44.74788" lon="6.86889">
        <ele>2549.8</ele>
        <time>2026-03-23T12:29:29Z</time>
      </trkpt>
      <trkpt lat="44.74788" lon="6.86889">
        <ele>2549.8</ele>
        <time>2026-03-23T12:29:30Z</time>
      </trkpt>
      <trkpt lat="44.74788" lon="6.86889">
        <ele>2549.8</ele>
        <time>2026-03-23T12:29:31Z</time>
      </trkpt>
      <trkpt lat="44.74788" lon="6.86889">
        <ele>2549.8</ele>
        <time>2026-03-23T12:29:32Z</time>
      </trkpt>
      <trkpt lat="44.74788" lon="6.86889">
        <ele>2549.8</ele>
        <time>2026-03-23T12:29:33Z</time>
      </trkpt>
      <trkpt lat="44.74788" lon="6.86889">
        <ele>2549.8</ele>
        <time>2026-03-23T12:29:34Z</time>
      </trkpt>
      <trkpt lat="44.74788" lon="6.86889">
        <ele>2549.8</ele>
        <time>2026-03-23T12:29:35Z</time>
      </trkpt>
      <trkpt lat="44.74788" lon="6.86889">
        <ele>2549.7</ele>
        <time>2026-03-23T12:29:36Z</time>
      </trkpt>
      <trkpt lat="44.74788" lon="6.86889">
        <ele>2549.7</ele>
        <time>2026-03-23T12:29:37Z</time>
      </trkpt>
      <trkpt lat="44.74788" lon="6.86889">
        <ele>2549.7</ele>
        <time>2026-03-23T12:29:38Z</time>
      </trkpt>
      <trkpt lat="44.74788" lon="6.86889">
        <ele>2549.7</ele>
        <time>2026-03-23T12:29:39Z</time>
      </trkpt>
      <trkpt lat="44.74788" lon="6.86889">
        <ele>2549.7</ele>
        <time>2026-03-23T12:29:40Z</time>
      </trkpt>
      <trkpt lat="44.74788" lon="6.86889">
        <ele>2549.7</ele>
        <time>2026-03-23T12:29:41Z</time>
      </trkpt>
      <trkpt lat="44.74788" lon="6.86889">
        <ele>2549.7</ele>
        <time>2026-03-23T12:29:42Z</time>
      </trkpt>
      <trkpt lat="44.74788" lon="6.86889">
        <ele>2549.7</ele>
        <time>2026-03-23T12:29:43Z</time>
      </trkpt>
      <trkpt lat="44.74788" lon="6.86889">
        <ele>2549.7</ele>
        <time>2026-03-23T12:29:44Z</time>
      </trkpt>
      <trkpt lat="44.74788" lon="6.86889">
        <ele>2549.6</ele>
        <time>2026-03-23T12:29:45Z</time>
      </trkpt>
      <trkpt lat="44.74788" lon="6.86889">
        <ele>2549.6</ele>
        <time>2026-03-23T12:29:46Z</time>
      </trkpt>
      <trkpt lat="44.74788" lon="6.86889">
        <ele>2549.6</ele>
        <time>2026-03-23T12:29:47Z</time>
      </trkpt>
      <trkpt lat="44.74788" lon="6.86889">
        <ele>2549.6</ele>
        <time>2026-03-23T12:29:48Z</time>
      </trkpt>
      <trkpt lat="44.74788" lon="6.86889">
        <ele>2549.6</ele>
        <time>2026-03-23T12:29:49Z</time>
      </trkpt>
      <trkpt lat="44.74788" lon="6.86889">
        <ele>2549.6</ele>
        <time>2026-03-23T12:29:50Z</time>
      </trkpt>
      <trkpt lat="44.74788" lon="6.86889">
        <ele>2549.6</ele>
        <time>2026-03-23T12:29:51Z</time>
      </trkpt>
      <trkpt lat="44.74788" lon="6.86889">
        <ele>2549.6</ele>
        <time>2026-03-23T12:29:52Z</time>
      </trkpt>
      <trkpt lat="44.74788" lon="6.86889">
        <ele>2549.6</ele>
        <time>2026-03-23T12:29:53Z</time>
      </trkpt>
      <trkpt lat="44.74788" lon="6.86889">
        <ele>2549.5</ele>
        <time>2026-03-23T12:29:54Z</time>
      </trkpt>
      <trkpt lat="44.74788" lon="6.86889">
        <ele>2549.5</ele>
        <time>2026-03-23T12:29:55Z</time>
      </trkpt>
      <trkpt lat="44.74788" lon="6.86889">
        <ele>2549.5</ele>
        <time>2026-03-23T12:29:56Z</time>
      </trkpt>
      <trkpt lat="44.74788" lon="6.86889">
        <ele>2549.5</ele>
        <time>2026-03-23T12:29:57Z</time>
      </trkpt>
      <trkpt lat="44.74788" lon="6.86889">
        <ele>2549.5</ele>
        <time>2026-03-23T12:29:58Z</time>
      </trkpt>
      <trkpt lat="44.74788" lon="6.86889">
        <ele>2549.5</ele>
        <time>2026-03-23T12:29:59Z</time>
      </trkpt>
      <trkpt lat="44.74788" lon="6.86889">
        <ele>2549.5</ele>
        <time>2026-03-23T12:30:00Z</time>
      </trkpt>
      <trkpt lat="44.74788" lon="6.86889">
        <ele>2549.5</ele>
        <time>2026-03-23T12:30:01Z</time>
      </trkpt>
      <trkpt lat="44.74788" lon="6.86889">
        <ele>2549.5</ele>
        <time>2026-03-23T12:30:02Z</time>
      </trkpt>
      <trkpt lat="44.74788" lon="6.86889">
        <ele>2549.4</ele>
        <time>2026-03-23T12:30:03Z</time>
      </trkpt>
      <trkpt lat="44.74789" lon="6.86889">
        <ele>2549.4</ele>
        <time>2026-03-23T12:30:04Z</time>
      </trkpt>
      <trkpt lat="44.74789" lon="6.86889">
        <ele>2549.4</ele>
        <time>2026-03-23T12:30:05Z</time>
      </trkpt>
      <trkpt lat="44.74789" lon="6.86889">
        <ele>2549.4</ele>
        <time>2026-03-23T12:30:06Z</time>
      </trkpt>
      <trkpt lat="44.74789" lon="6.86889">
        <ele>2549.4</ele>
        <time>2026-03-23T12:30:07Z</time>
      </trkpt>
      <trkpt lat="44.74789" lon="6.86889">
        <ele>2549.4</ele>
        <time>2026-03-23T12:30:08Z</time>
      </trkpt>
      <trkpt lat="44.74789" lon="6.86889">
        <ele>2549.4</ele>
        <time>2026-03-23T12:30:09Z</time>
      </trkpt>
      <trkpt lat="44.74789" lon="6.86889">
        <ele>2549.4</ele>
        <time>2026-03-23T12:30:10Z</time>
      </trkpt>
      <trkpt lat="44.74789" lon="6.86889">
        <ele>2549.4</ele>
        <time>2026-03-23T12:30:11Z</time>
      </trkpt>
      <trkpt lat="44.74789" lon="6.86889">
        <ele>2549.3</ele>
        <time>2026-03-23T12:30:12Z</time>
      </trkpt>
      <trkpt lat="44.74789" lon="6.86889">
        <ele>2549.3</ele>
        <time>2026-03-23T12:30:13Z</time>
      </trkpt>
      <trkpt lat="44.74789" lon="6.86889">
        <ele>2549.3</ele>
        <time>2026-03-23T12:30:14Z</time>
      </trkpt>
      <trkpt lat="44.74789" lon="6.86889">
        <ele>2549.3</ele>
        <time>2026-03-23T12:30:15Z</time>
      </trkpt>
      <trkpt lat="44.74789" lon="6.86889">
        <ele>2549.3</ele>
        <time>2026-03-23T12:30:16Z</time>
      </trkpt>
      <trkpt lat="44.74789" lon="6.86889">
        <ele>2549.3</ele>
        <time>2026-03-23T12:30:17Z</time>
      </trkpt>
      <trkpt lat="44.74789" lon="6.86889">
        <ele>2549.3</ele>
        <time>2026-03-23T12:30:18Z</time>
      </trkpt>
      <trkpt lat="44.74789" lon="6.86889">
        <ele>2549.3</ele>
        <time>2026-03-23T12:30:19Z</time>
      </trkpt>
      <trkpt lat="44.74789" lon="6.86889">
        <ele>2549.3</ele>
        <time>2026-03-23T12:30:20Z</time>
      </trkpt>
      <trkpt lat="44.74789" lon="6.86889">
        <ele>2549.2</ele>
        <time>2026-03-23T12:30:21Z</time>
      </trkpt>
      <trkpt lat="44.74789" lon="6.86889">
        <ele>2549.2</ele>
        <time>2026-03-23T12:30:22Z</time>
      </trkpt>
      <trkpt lat="44.74789" lon="6.86889">
        <ele>2549.2</ele>
        <time>2026-03-23T12:30:23Z</time>
      </trkpt>
      <trkpt lat="44.74789" lon="6.86889">
        <ele>2549.2</ele>
        <time>2026-03-23T12:30:24Z</time>
      </trkpt>
      <trkpt lat="44.74789" lon="6.86889">
        <ele>2549.2</ele>
        <time>2026-03-23T12:30:25Z</time>
      </trkpt>
      <trkpt lat="44.74789" lon="6.86889">
        <ele>2549.2</ele>
        <time>2026-03-23T12:30:26Z</time>
      </trkpt>
      <trkpt lat="44.74789" lon="6.86889">
        <ele>2549.2</ele>
        <time>2026-03-23T12:30:27Z</time>
      </trkpt>
      <trkpt lat="44.74789" lon="6.86889">
        <ele>2549.2</ele>
        <time>2026-03-23T12:30:28Z</time>
      </trkpt>
      <trkpt lat="44.74789" lon="6.86889">
        <ele>2549.2</ele>
        <time>2026-03-23T12:30:29Z</time>
      </trkpt>
      <trkpt lat="44.74789" lon="6.86889">
        <ele>2549.1</ele>
        <time>2026-03-23T12:30:30Z</time>
      </trkpt>
      <trkpt lat="44.74789" lon="6.86889">
        <ele>2549.1</ele>
        <time>2026-03-23T12:30:31Z</time>
      </trkpt>
      <trkpt lat="44.74789" lon="6.86889">
        <ele>2549.1</ele>
        <time>2026-03-23T12:30:32Z</time>
      </trkpt>
      <trkpt lat="44.74789" lon="6.86889">
        <ele>2549.1</ele>
        <time>2026-03-23T12:30:33Z</time>
      </trkpt>
      <trkpt lat="44.74789" lon="6.86889">
        <ele>2549.1</ele>
        <time>2026-03-23T12:30:34Z</time>
      </trkpt>
      <trkpt lat="44.74789" lon="6.86889">
        <ele>2549.1</ele>
        <time>2026-03-23T12:30:35Z</time>
      </trkpt>
      <trkpt lat="44.74789" lon="6.86889">
        <ele>2549.1</ele>
        <time>2026-03-23T12:30:36Z</time>
      </trkpt>
      <trkpt lat="44.74789" lon="6.86889">
        <ele>2549.1</ele>
        <time>2026-03-23T12:30:37Z</time>
      </trkpt>
      <trkpt lat="44.74789" lon="6.86889">
        <ele>2549.1</ele>
        <time>2026-03-23T12:30:38Z</time>
      </trkpt>
      <trkpt lat="44.74789" lon="6.86889">
        <ele>2549</ele>
        <time>2026-03-23T12:30:39Z</time>
      </trkpt>
      <trkpt lat="44.74789" lon="6.86889">
        <ele>2549</ele>
        <time>2026-03-23T12:30:40Z</time>
      </trkpt>
      <trkpt lat="44.74789" lon="6.86889">
        <ele>2549</ele>
        <time>2026-03-23T12:30:41Z</time>
      </trkpt>
      <trkpt lat="44.74789" lon="6.86889">
        <ele>2549</ele>
        <time>2026-03-23T12:30:42Z</time>
      </trkpt>
      <trkpt lat="44.74789" lon="6.86889">
        <ele>2549</ele>
        <time>2026-03-23T12:30:43Z</time>
      </trkpt>
      <trkpt lat="44.74789" lon="6.86889">
        <ele>2549</ele>
        <time>2026-03-23T12:30:44Z</time>
      </trkpt>
      <trkpt lat="44.74789" lon="6.86889">
        <ele>2549</ele>
        <time>2026-03-23T12:30:45Z</time>
      </trkpt>
      <trkpt lat="44.74789" lon="6.86889">
        <ele>2547.9</ele>
        <time>2026-03-23T12:30:46Z</time>
      </trkpt>
      <trkpt lat="44.74789" lon="6.86889">
        <ele>2547.9</ele>
        <time>2026-03-23T12:30:47Z</time>
      </trkpt>
      <trkpt lat="44.74789" lon="6.86889">
        <ele>2547.9</ele>
        <time>2026-03-23T12:30:48Z</time>
      </trkpt>
      <trkpt lat="44.74789" lon="6.86889">
        <ele>2547.9</ele>
        <time>2026-03-23T12:30:49Z</time>
      </trkpt>
      <trkpt lat="44.74789" lon="6.86889">
        <ele>2547.9</ele>
        <time>2026-03-23T12:30:50Z</time>
      </trkpt>
      <trkpt lat="44.74789" lon="6.86889">
        <ele>2547.9</ele>
        <time>2026-03-23T12:30:51Z</time>
      </trkpt>
      <trkpt lat="44.74789" lon="6.86889">
        <ele>2547.9</ele>
        <time>2026-03-23T12:30:52Z</time>
      </trkpt>
      <trkpt lat="44.74789" lon="6.86889">
        <ele>2547.9</ele>
        <time>2026-03-23T12:30:53Z</time>
      </trkpt>
      <trkpt lat="44.74789" lon="6.86889">
        <ele>2547.8</ele>
        <time>2026-03-23T12:30:54Z</time>
      </trkpt>
      <trkpt lat="44.74789" lon="6.86889">
        <ele>2547.8</ele>
        <time>2026-03-23T12:30:55Z</time>
      </trkpt>
      <trkpt lat="44.74789" lon="6.86889">
        <ele>2547.8</ele>
        <time>2026-03-23T12:30:56Z</time>
      </trkpt>
      <trkpt lat="44.74789" lon="6.86889">
        <ele>2547.8</ele>
        <time>2026-03-23T12:30:57Z</time>
      </trkpt>
      <trkpt lat="44.74789" lon="6.86889">
        <ele>2547.8</ele>
        <time>2026-03-23T12:30:58Z</time>
      </trkpt>
      <trkpt lat="44.74789" lon="6.86889">
        <ele>2547.8</ele>
        <time>2026-03-23T12:30:59Z</time>
      </trkpt>
      <trkpt lat="44.74789" lon="6.86889">
        <ele>2547.8</ele>
        <time>2026-03-23T12:31:00Z</time>
      </trkpt>
      <trkpt lat="44.74789" lon="6.86889">
        <ele>2547.8</ele>
        <time>2026-03-23T12:31:01Z</time>
      </trkpt>
      <trkpt lat="44.74789" lon="6.86889">
        <ele>2547.8</ele>
        <time>2026-03-23T12:31:02Z</time>
      </trkpt>
      <trkpt lat="44.74789" lon="6.86889">
        <ele>2547.7</ele>
        <time>2026-03-23T12:31:03Z</time>
      </trkpt>
      <trkpt lat="44.7479" lon="6.86889">
        <ele>2547.7</ele>
        <time>2026-03-23T12:31:04Z</time>
      </trkpt>
      <trkpt lat="44.7479" lon="6.86889">
        <ele>2547.7</ele>
        <time>2026-03-23T12:31:05Z</time>
      </trkpt>
      <trkpt lat="44.7479" lon="6.86889">
        <ele>2547.7</ele>
        <time>2026-03-23T12:31:06Z</time>
      </trkpt>
      <trkpt lat="44.7479" lon="6.86889">
        <ele>2547.7</ele>
        <time>2026-03-23T12:31:07Z</time>
      </trkpt>
      <trkpt lat="44.7479" lon="6.86889">
        <ele>2547.7</ele>
        <time>2026-03-23T12:31:08Z</time>
      </trkpt>
      <trkpt lat="44.7479" lon="6.86889">
        <ele>2547.7</ele>
        <time>2026-03-23T12:31:09Z</time>
      </trkpt>
      <trkpt lat="44.7479" lon="6.86889">
        <ele>2547.7</ele>
        <time>2026-03-23T12:31:10Z</time>
      </trkpt>
      <trkpt lat="44.7479" lon="6.86889">
        <ele>2547.7</ele>
        <time>2026-03-23T12:31:11Z</time>
      </trkpt>
      <trkpt lat="44.7479" lon="6.86889">
        <ele>2547.6</ele>
        <time>2026-03-23T12:31:12Z</time>
      </trkpt>
      <trkpt lat="44.7479" lon="6.86889">
        <ele>2547.6</ele>
        <time>2026-03-23T12:31:13Z</time>
      </trkpt>
      <trkpt lat="44.7479" lon="6.86889">
        <ele>2547.6</ele>
        <time>2026-03-23T12:31:14Z</time>
      </trkpt>
      <trkpt lat="44.7479" lon="6.86889">
        <ele>2547.6</ele>
        <time>2026-03-23T12:31:15Z</time>
      </trkpt>
      <trkpt lat="44.7479" lon="6.86889">
        <ele>2547.6</ele>
        <time>2026-03-23T12:31:16Z</time>
      </trkpt>
      <trkpt lat="44.7479" lon="6.86889">
        <ele>2547.6</ele>
        <time>2026-03-23T12:31:17Z</time>
      </trkpt>
      <trkpt lat="44.7479" lon="6.86889">
        <ele>2547.6</ele>
        <time>2026-03-23T12:31:18Z</time>
      </trkpt>
      <trkpt lat="44.7479" lon="6.86889">
        <ele>2547.6</ele>
        <time>2026-03-23T12:31:19Z</time>
      </trkpt>
      <trkpt lat="44.7479" lon="6.86889">
        <ele>2547.6</ele>
        <time>2026-03-23T12:31:20Z</time>
      </trkpt>
      <trkpt lat="44.7479" lon="6.86889">
        <ele>2547.5</ele>
        <time>2026-03-23T12:31:21Z</time>
      </trkpt>
      <trkpt lat="44.7479" lon="6.86889">
        <ele>2547.5</ele>
        <time>2026-03-23T12:31:22Z</time>
      </trkpt>
      <trkpt lat="44.7479" lon="6.86889">
        <ele>2547.5</ele>
        <time>2026-03-23T12:31:23Z</time>
      </trkpt>
      <trkpt lat="44.7479" lon="6.86889">
        <ele>2547.5</ele>
        <time>2026-03-23T12:31:24Z</time>
      </trkpt>
      <trkpt lat="44.7479" lon="6.86889">
        <ele>2547.5</ele>
        <time>2026-03-23T12:31:25Z</time>
      </trkpt>
      <trkpt lat="44.7479" lon="6.86889">
        <ele>2547.5</ele>
        <time>2026-03-23T12:31:26Z</time>
      </trkpt>
      <trkpt lat="44.7479" lon="6.86889">
        <ele>2547.5</ele>
        <time>2026-03-23T12:31:27Z</time>
      </trkpt>
      <trkpt lat="44.7479" lon="6.86889">
        <ele>2547.5</ele>
        <time>2026-03-23T12:31:28Z</time>
      </trkpt>
      <trkpt lat="44.7479" lon="6.86889">
        <ele>2547.5</ele>
        <time>2026-03-23T12:31:29Z</time>
      </trkpt>
      <trkpt lat="44.7479" lon="6.86889">
        <ele>2547.4</ele>
        <time>2026-03-23T12:31:30Z</time>
      </trkpt>
      <trkpt lat="44.7479" lon="6.86889">
        <ele>2547.4</ele>
        <time>2026-03-23T12:31:31Z</time>
      </trkpt>
      <trkpt lat="44.7479" lon="6.86889">
        <ele>2547.4</ele>
        <time>2026-03-23T12:31:32Z</time>
      </trkpt>
      <trkpt lat="44.7479" lon="6.86889">
        <ele>2547.4</ele>
        <time>2026-03-23T12:31:33Z</time>
      </trkpt>
      <trkpt lat="44.7479" lon="6.86889">
        <ele>2547.4</ele>
        <time>2026-03-23T12:31:34Z</time>
      </trkpt>
      <trkpt lat="44.7479" lon="6.86889">
        <ele>2547.4</ele>
        <time>2026-03-23T12:31:35Z</time>
      </trkpt>
      <trkpt lat="44.7479" lon="6.86889">
        <ele>2547.4</ele>
        <time>2026-03-23T12:31:36Z</time>
      </trkpt>
      <trkpt lat="44.7479" lon="6.86889">
        <ele>2547.4</ele>
        <time>2026-03-23T12:31:37Z</time>
      </trkpt>
      <trkpt lat="44.7479" lon="6.86889">
        <ele>2547.4</ele>
        <time>2026-03-23T12:31:38Z</time>
      </trkpt>
      <trkpt lat="44.7479" lon="6.86889">
        <ele>2547.3</ele>
        <time>2026-03-23T12:31:39Z</time>
      </trkpt>
      <trkpt lat="44.7479" lon="6.86889">
        <ele>2547.3</ele>
        <time>2026-03-23T12:31:40Z</time>
      </trkpt>
      <trkpt lat="44.7479" lon="6.86889">
        <ele>2547.3</ele>
        <time>2026-03-23T12:31:41Z</time>
      </trkpt>
      <trkpt lat="44.7479" lon="6.86889">
        <ele>2547.3</ele>
        <time>2026-03-23T12:31:42Z</time>
      </trkpt>
      <trkpt lat="44.7479" lon="6.86889">
        <ele>2547.3</ele>
        <time>2026-03-23T12:31:43Z</time>
      </trkpt>
      <trkpt lat="44.7479" lon="6.86889">
        <ele>2547.3</ele>
        <time>2026-03-23T12:31:44Z</time>
      </trkpt>
      <trkpt lat="44.7479" lon="6.86889">
        <ele>2547.3</ele>
        <time>2026-03-23T12:31:45Z</time>
      </trkpt>
      <trkpt lat="44.7479" lon="6.86889">
        <ele>2547.3</ele>
        <time>2026-03-23T12:31:46Z</time>
      </trkpt>
      <trkpt lat="44.7479" lon="6.86889">
        <ele>2547.3</ele>
        <time>2026-03-23T12:31:47Z</time>
      </trkpt>
      <trkpt lat="44.7479" lon="6.86889">
        <ele>2547.2</ele>
        <time>2026-03-23T12:31:48Z</time>
      </trkpt>
      <trkpt lat="44.7479" lon="6.86889">
        <ele>2547.2</ele>
        <time>2026-03-23T12:31:49Z</time>
      </trkpt>
      <trkpt lat="44.7479" lon="6.86889">
        <ele>2547.2</ele>
        <time>2026-03-23T12:31:50Z</time>
      </trkpt>
      <trkpt lat="44.7479" lon="6.86889">
        <ele>2547.2</ele>
        <time>2026-03-23T12:31:51Z</time>
      </trkpt>
      <trkpt lat="44.7479" lon="6.86889">
        <ele>2547.2</ele>
        <time>2026-03-23T12:31:52Z</time>
      </trkpt>
      <trkpt lat="44.7479" lon="6.86889">
        <ele>2547.2</ele>
        <time>2026-03-23T12:31:53Z</time>
      </trkpt>
      <trkpt lat="44.7479" lon="6.86889">
        <ele>2547.2</ele>
        <time>2026-03-23T12:31:54Z</time>
      </trkpt>
      <trkpt lat="44.7479" lon="6.86889">
        <ele>2547.2</ele>
        <time>2026-03-23T12:31:55Z</time>
      </trkpt>
      <trkpt lat="44.7479" lon="6.86889">
        <ele>2547.2</ele>
        <time>2026-03-23T12:31:56Z</time>
      </trkpt>
      <trkpt lat="44.7479" lon="6.86889">
        <ele>2547.1</ele>
        <time>2026-03-23T12:31:57Z</time>
      </trkpt>
      <trkpt lat="44.7479" lon="6.86889">
        <ele>2547.1</ele>
        <time>2026-03-23T12:31:58Z</time>
      </trkpt>
      <trkpt lat="44.7479" lon="6.86889">
        <ele>2547.1</ele>
        <time>2026-03-23T12:31:59Z</time>
      </trkpt>
      <trkpt lat="44.7479" lon="6.86889">
        <ele>2547.1</ele>
        <time>2026-03-23T12:32:00Z</time>
      </trkpt>
      <trkpt lat="44.7479" lon="6.86889">
        <ele>2547.1</ele>
        <time>2026-03-23T12:32:01Z</time>
      </trkpt>
      <trkpt lat="44.7479" lon="6.86889">
        <ele>2547.1</ele>
        <time>2026-03-23T12:32:02Z</time>
      </trkpt>
      <trkpt lat="44.7479" lon="6.86889">
        <ele>2547.1</ele>
        <time>2026-03-23T12:32:03Z</time>
      </trkpt>
      <trkpt lat="44.7479" lon="6.86889">
        <ele>2547.1</ele>
        <time>2026-03-23T12:32:04Z</time>
      </trkpt>
      <trkpt lat="44.74791" lon="6.86889">
        <ele>2547.1</ele>
        <time>2026-03-23T12:32:05Z</time>
      </trkpt>
      <trkpt lat="44.74791" lon="6.86889">
        <ele>2547</ele>
        <time>2026-03-23T12:32:06Z</time>
      </trkpt>
      <trkpt lat="44.74791" lon="6.86889">
        <ele>2547</ele>
        <time>2026-03-23T12:32:07Z</time>
      </trkpt>
      <trkpt lat="44.74791" lon="6.86889">
        <ele>2547</ele>
        <time>2026-03-23T12:32:08Z</time>
      </trkpt>
      <trkpt lat="44.74791" lon="6.86889">
        <ele>2547</ele>
        <time>2026-03-23T12:32:09Z</time>
      </trkpt>
      <trkpt lat="44.74791" lon="6.86889">
        <ele>2547</ele>
        <time>2026-03-23T12:32:10Z</time>
      </trkpt>
      <trkpt lat="44.74791" lon="6.86889">
        <ele>2547</ele>
        <time>2026-03-23T12:32:11Z</time>
      </trkpt>
      <trkpt lat="44.74791" lon="6.86889">
        <ele>2547</ele>
        <time>2026-03-23T12:32:12Z</time>
      </trkpt>
      <trkpt lat="44.74791" lon="6.86889">
        <ele>2547</ele>
        <time>2026-03-23T12:32:13Z</time>
      </trkpt>
      <trkpt lat="44.74791" lon="6.86889">
        <ele>2547</ele>
        <time>2026-03-23T12:32:14Z</time>
      </trkpt>
      <trkpt lat="44.74791" lon="6.86889">
        <ele>2546.9</ele>
        <time>2026-03-23T12:32:15Z</time>
      </trkpt>
      <trkpt lat="44.74791" lon="6.86889">
        <ele>2546.9</ele>
        <time>2026-03-23T12:32:16Z</time>
      </trkpt>
      <trkpt lat="44.74791" lon="6.86889">
        <ele>2546.9</ele>
        <time>2026-03-23T12:32:17Z</time>
      </trkpt>
      <trkpt lat="44.74791" lon="6.86889">
        <ele>2546.9</ele>
        <time>2026-03-23T12:32:18Z</time>
      </trkpt>
      <trkpt lat="44.74791" lon="6.86889">
        <ele>2546.9</ele>
        <time>2026-03-23T12:32:19Z</time>
      </trkpt>
      <trkpt lat="44.74791" lon="6.86889">
        <ele>2546.9</ele>
        <time>2026-03-23T12:32:20Z</time>
      </trkpt>
      <trkpt lat="44.74791" lon="6.86889">
        <ele>2546.9</ele>
        <time>2026-03-23T12:32:21Z</time>
      </trkpt>
      <trkpt lat="44.74791" lon="6.86889">
        <ele>2546.9</ele>
        <time>2026-03-23T12:32:22Z</time>
      </trkpt>
      <trkpt lat="44.74791" lon="6.86889">
        <ele>2546.9</ele>
        <time>2026-03-23T12:32:23Z</time>
      </trkpt>
      <trkpt lat="44.74791" lon="6.86889">
        <ele>2546.8</ele>
        <time>2026-03-23T12:32:24Z</time>
      </trkpt>
      <trkpt lat="44.74791" lon="6.86889">
        <ele>2546.8</ele>
        <time>2026-03-23T12:32:25Z</time>
      </trkpt>
      <trkpt lat="44.74791" lon="6.86889">
        <ele>2546.8</ele>
        <time>2026-03-23T12:32:26Z</time>
      </trkpt>
      <trkpt lat="44.74791" lon="6.86889">
        <ele>2546.8</ele>
        <time>2026-03-23T12:32:27Z</time>
      </trkpt>
      <trkpt lat="44.74791" lon="6.86889">
        <ele>2546.8</ele>
        <time>2026-03-23T12:32:28Z</time>
      </trkpt>
      <trkpt lat="44.74791" lon="6.86889">
        <ele>2546.8</ele>
        <time>2026-03-23T12:32:29Z</time>
      </trkpt>
      <trkpt lat="44.74791" lon="6.86889">
        <ele>2546.8</ele>
        <time>2026-03-23T12:32:30Z</time>
      </trkpt>
      <trkpt lat="44.74791" lon="6.86889">
        <ele>2546.8</ele>
        <time>2026-03-23T12:32:31Z</time>
      </trkpt>
      <trkpt lat="44.74791" lon="6.86889">
        <ele>2546.8</ele>
        <time>2026-03-23T12:32:32Z</time>
      </trkpt>
      <trkpt lat="44.74791" lon="6.86889">
        <ele>2546.7</ele>
        <time>2026-03-23T12:32:33Z</time>
      </trkpt>
      <trkpt lat="44.74791" lon="6.86889">
        <ele>2546.7</ele>
        <time>2026-03-23T12:32:34Z</time>
      </trkpt>
      <trkpt lat="44.74791" lon="6.86889">
        <ele>2546.7</ele>
        <time>2026-03-23T12:32:35Z</time>
      </trkpt>
      <trkpt lat="44.74791" lon="6.86889">
        <ele>2546.7</ele>
        <time>2026-03-23T12:32:36Z</time>
      </trkpt>
      <trkpt lat="44.74791" lon="6.86889">
        <ele>2546.7</ele>
        <time>2026-03-23T12:32:37Z</time>
      </trkpt>
      <trkpt lat="44.74791" lon="6.86889">
        <ele>2546.7</ele>
        <time>2026-03-23T12:32:38Z</time>
      </trkpt>
      <trkpt lat="44.74791" lon="6.86889">
        <ele>2546.7</ele>
        <time>2026-03-23T12:32:39Z</time>
      </trkpt>
      <trkpt lat="44.74791" lon="6.86889">
        <ele>2546.7</ele>
        <time>2026-03-23T12:32:40Z</time>
      </trkpt>
      <trkpt lat="44.74791" lon="6.86889">
        <ele>2546.7</ele>
        <time>2026-03-23T12:32:41Z</time>
      </trkpt>
      <trkpt lat="44.74791" lon="6.86889">
        <ele>2546.6</ele>
        <time>2026-03-23T12:32:42Z</time>
      </trkpt>
      <trkpt lat="44.74791" lon="6.86889">
        <ele>2546.6</ele>
        <time>2026-03-23T12:32:43Z</time>
      </trkpt>
      <trkpt lat="44.74791" lon="6.86889">
        <ele>2546.6</ele>
        <time>2026-03-23T12:32:44Z</time>
      </trkpt>
      <trkpt lat="44.74791" lon="6.86889">
        <ele>2546.6</ele>
        <time>2026-03-23T12:32:45Z</time>
      </trkpt>
      <trkpt lat="44.74791" lon="6.86889">
        <ele>2546.6</ele>
        <time>2026-03-23T12:32:46Z</time>
      </trkpt>
      <trkpt lat="44.74791" lon="6.86889">
        <ele>2546.6</ele>
        <time>2026-03-23T12:32:47Z</time>
      </trkpt>
      <trkpt lat="44.74791" lon="6.86889">
        <ele>2546.6</ele>
        <time>2026-03-23T12:32:48Z</time>
      </trkpt>
      <trkpt lat="44.74791" lon="6.86889">
        <ele>2546.6</ele>
        <time>2026-03-23T12:32:49Z</time>
      </trkpt>
      <trkpt lat="44.74791" lon="6.86889">
        <ele>2546.6</ele>
        <time>2026-03-23T12:32:50Z</time>
      </trkpt>
      <trkpt lat="44.74791" lon="6.86889">
        <ele>2546.5</ele>
        <time>2026-03-23T12:32:51Z</time>
      </trkpt>
      <trkpt lat="44.74791" lon="6.86889">
        <ele>2546.5</ele>
        <time>2026-03-23T12:32:52Z</time>
      </trkpt>
      <trkpt lat="44.74791" lon="6.86889">
        <ele>2546.5</ele>
        <time>2026-03-23T12:32:53Z</time>
      </trkpt>
      <trkpt lat="44.74791" lon="6.86889">
        <ele>2546.5</ele>
        <time>2026-03-23T12:32:54Z</time>
      </trkpt>
      <trkpt lat="44.74791" lon="6.86889">
        <ele>2546.5</ele>
        <time>2026-03-23T12:32:55Z</time>
      </trkpt>
      <trkpt lat="44.74791" lon="6.86889">
        <ele>2546.5</ele>
        <time>2026-03-23T12:32:56Z</time>
      </trkpt>
      <trkpt lat="44.74791" lon="6.86889">
        <ele>2546.5</ele>
        <time>2026-03-23T12:32:57Z</time>
      </trkpt>
      <trkpt lat="44.74791" lon="6.86889">
        <ele>2546.5</ele>
        <time>2026-03-23T12:32:58Z</time>
      </trkpt>
      <trkpt lat="44.74791" lon="6.86889">
        <ele>2546.5</ele>
        <time>2026-03-23T12:32:59Z</time>
      </trkpt>
      <trkpt lat="44.74791" lon="6.86889">
        <ele>2546.4</ele>
        <time>2026-03-23T12:33:00Z</time>
      </trkpt>
      <trkpt lat="44.74791" lon="6.86889">
        <ele>2546.4</ele>
        <time>2026-03-23T12:33:01Z</time>
      </trkpt>
      <trkpt lat="44.74791" lon="6.86889">
        <ele>2546.4</ele>
        <time>2026-03-23T12:33:02Z</time>
      </trkpt>
      <trkpt lat="44.74791" lon="6.86889">
        <ele>2546.4</ele>
        <time>2026-03-23T12:33:03Z</time>
      </trkpt>
      <trkpt lat="44.74791" lon="6.86889">
        <ele>2546.4</ele>
        <time>2026-03-23T12:33:04Z</time>
      </trkpt>
      <trkpt lat="44.74792" lon="6.86889">
        <ele>2546.4</ele>
        <time>2026-03-23T12:33:05Z</time>
      </trkpt>
      <trkpt lat="44.74792" lon="6.86889">
        <ele>2546.4</ele>
        <time>2026-03-23T12:33:06Z</time>
      </trkpt>
      <trkpt lat="44.74792" lon="6.86889">
        <ele>2546.4</ele>
        <time>2026-03-23T12:33:07Z</time>
      </trkpt>
      <trkpt lat="44.74792" lon="6.86889">
        <ele>2546.4</ele>
        <time>2026-03-23T12:33:08Z</time>
      </trkpt>
      <trkpt lat="44.74792" lon="6.86889">
        <ele>2546.3</ele>
        <time>2026-03-23T12:33:09Z</time>
      </trkpt>
      <trkpt lat="44.74792" lon="6.86889">
        <ele>2546.3</ele>
        <time>2026-03-23T12:33:10Z</time>
      </trkpt>
      <trkpt lat="44.74792" lon="6.86889">
        <ele>2546.3</ele>
        <time>2026-03-23T12:33:11Z</time>
      </trkpt>
      <trkpt lat="44.74792" lon="6.86889">
        <ele>2546.3</ele>
        <time>2026-03-23T12:33:12Z</time>
      </trkpt>
      <trkpt lat="44.74792" lon="6.86889">
        <ele>2546.3</ele>
        <time>2026-03-23T12:33:13Z</time>
      </trkpt>
      <trkpt lat="44.74792" lon="6.86889">
        <ele>2546.3</ele>
        <time>2026-03-23T12:33:14Z</time>
      </trkpt>
      <trkpt lat="44.74792" lon="6.86889">
        <ele>2546.3</ele>
        <time>2026-03-23T12:33:15Z</time>
      </trkpt>
      <trkpt lat="44.74792" lon="6.86889">
        <ele>2546.3</ele>
        <time>2026-03-23T12:33:16Z</time>
      </trkpt>
      <trkpt lat="44.74792" lon="6.86889">
        <ele>2546.3</ele>
        <time>2026-03-23T12:33:17Z</time>
      </trkpt>
      <trkpt lat="44.74792" lon="6.86889">
        <ele>2546.3</ele>
        <time>2026-03-23T12:33:18Z</time>
      </trkpt>
      <trkpt lat="44.74792" lon="6.86889">
        <ele>2546.2</ele>
        <time>2026-03-23T12:33:19Z</time>
      </trkpt>
      <trkpt lat="44.74792" lon="6.86889">
        <ele>2546.2</ele>
        <time>2026-03-23T12:33:20Z</time>
      </trkpt>
      <trkpt lat="44.74794" lon="6.8689">
        <ele>2545.2</ele>
        <time>2026-03-23T12:33:21Z</time>
      </trkpt>
      <trkpt lat="44.74798" lon="6.86889">
        <ele>2543.1</ele>
        <time>2026-03-23T12:33:22Z</time>
      </trkpt>
      <trkpt lat="44.748" lon="6.86889">
        <ele>2543.1</ele>
        <time>2026-03-23T12:33:23Z</time>
      </trkpt>
      <trkpt lat="44.74803" lon="6.86886">
        <ele>2542</ele>
        <time>2026-03-23T12:33:24Z</time>
      </trkpt>
      <trkpt lat="44.74806" lon="6.86882">
        <ele>2538.7</ele>
        <time>2026-03-23T12:33:25Z</time>
      </trkpt>
      <trkpt lat="44.74807" lon="6.8688">
        <ele>2536.6</ele>
        <time>2026-03-23T12:33:26Z</time>
      </trkpt>
      <trkpt lat="44.74807" lon="6.86874">
        <ele>2534.5</ele>
        <time>2026-03-23T12:33:27Z</time>
      </trkpt>
      <trkpt lat="44.74809" lon="6.86869">
        <ele>2531.4</ele>
        <time>2026-03-23T12:33:28Z</time>
      </trkpt>
      <trkpt lat="44.74812" lon="6.86865">
        <ele>2528.3</ele>
        <time>2026-03-23T12:33:29Z</time>
      </trkpt>
      <trkpt lat="44.74812" lon="6.86861">
        <ele>2526.4</ele>
        <time>2026-03-23T12:33:30Z</time>
      </trkpt>
      <trkpt lat="44.74815" lon="6.86856">
        <ele>2523.5</ele>
        <time>2026-03-23T12:33:31Z</time>
      </trkpt>
      <trkpt lat="44.74816" lon="6.8685">
        <ele>2519.8</ele>
        <time>2026-03-23T12:33:32Z</time>
      </trkpt>
      <trkpt lat="44.74819" lon="6.86843">
        <ele>2515</ele>
        <time>2026-03-23T12:33:33Z</time>
      </trkpt>
      <trkpt lat="44.74824" lon="6.86839">
        <ele>2513.3</ele>
        <time>2026-03-23T12:33:34Z</time>
      </trkpt>
      <trkpt lat="44.74827" lon="6.86834">
        <ele>2508.3</ele>
        <time>2026-03-23T12:33:35Z</time>
      </trkpt>
      <trkpt lat="44.74827" lon="6.86829">
        <ele>2506.3</ele>
        <time>2026-03-23T12:33:36Z</time>
      </trkpt>
      <trkpt lat="44.7483" lon="6.86818">
        <ele>2501.8</ele>
        <time>2026-03-23T12:33:37Z</time>
      </trkpt>
      <trkpt lat="44.7483" lon="6.86809">
        <ele>2498.6</ele>
        <time>2026-03-23T12:33:38Z</time>
      </trkpt>
      <trkpt lat="44.74834" lon="6.86799">
        <ele>2493</ele>
        <time>2026-03-23T12:33:39Z</time>
      </trkpt>
      <trkpt lat="44.74837" lon="6.86792">
        <ele>2490.7</ele>
        <time>2026-03-23T12:33:40Z</time>
      </trkpt>
      <trkpt lat="44.74839" lon="6.86785">
        <ele>2486.9</ele>
        <time>2026-03-23T12:33:41Z</time>
      </trkpt>
      <trkpt lat="44.74836" lon="6.8679">
        <ele>2489.1</ele>
        <time>2026-03-23T12:33:42Z</time>
      </trkpt>
      <trkpt lat="44.74835" lon="6.86787">
        <ele>2489.8</ele>
        <time>2026-03-23T12:33:43Z</time>
      </trkpt>
      <trkpt lat="44.74834" lon="6.86788">
        <ele>2489.8</ele>
        <time>2026-03-23T12:33:44Z</time>
      </trkpt>
      <trkpt lat="44.74833" lon="6.86787">
        <ele>2489.8</ele>
        <time>2026-03-23T12:33:45Z</time>
      </trkpt>
      <trkpt lat="44.74833" lon="6.86787">
        <ele>2488.2</ele>
        <time>2026-03-23T12:33:46Z</time>
      </trkpt>
      <trkpt lat="44.74833" lon="6.86788">
        <ele>2489.8</ele>
        <time>2026-03-23T12:33:47Z</time>
      </trkpt>
      <trkpt lat="44.74833" lon="6.86788">
        <ele>2489.8</ele>
        <time>2026-03-23T12:33:48Z</time>
      </trkpt>
      <trkpt lat="44.74833" lon="6.86789">
        <ele>2489.7</ele>
        <time>2026-03-23T12:33:49Z</time>
      </trkpt>
      <trkpt lat="44.74833" lon="6.8679">
        <ele>2489.7</ele>
        <time>2026-03-23T12:33:50Z</time>
      </trkpt>
      <trkpt lat="44.74833" lon="6.8679">
        <ele>2489.7</ele>
        <time>2026-03-23T12:33:51Z</time>
      </trkpt>
      <trkpt lat="44.74833" lon="6.8679">
        <ele>2489.7</ele>
        <time>2026-03-23T12:33:52Z</time>
      </trkpt>
      <trkpt lat="44.74833" lon="6.8679">
        <ele>2489.7</ele>
        <time>2026-03-23T12:33:53Z</time>
      </trkpt>
      <trkpt lat="44.74832" lon="6.86791">
        <ele>2489.7</ele>
        <time>2026-03-23T12:33:54Z</time>
      </trkpt>
      <trkpt lat="44.74833" lon="6.8679">
        <ele>2489.7</ele>
        <time>2026-03-23T12:33:55Z</time>
      </trkpt>
      <trkpt lat="44.74832" lon="6.8679">
        <ele>2489.7</ele>
        <time>2026-03-23T12:33:56Z</time>
      </trkpt>
      <trkpt lat="44.74833" lon="6.8679">
        <ele>2489.7</ele>
        <time>2026-03-23T12:33:57Z</time>
      </trkpt>
      <trkpt lat="44.74833" lon="6.8679">
        <ele>2489.6</ele>
        <time>2026-03-23T12:33:58Z</time>
      </trkpt>
      <trkpt lat="44.74833" lon="6.8679">
        <ele>2489.6</ele>
        <time>2026-03-23T12:33:59Z</time>
      </trkpt>
      <trkpt lat="44.74833" lon="6.8679">
        <ele>2489.6</ele>
        <time>2026-03-23T12:34:00Z</time>
      </trkpt>
      <trkpt lat="44.74832" lon="6.8679">
        <ele>2489.6</ele>
        <time>2026-03-23T12:34:01Z</time>
      </trkpt>
      <trkpt lat="44.74832" lon="6.8679">
        <ele>2489.6</ele>
        <time>2026-03-23T12:34:02Z</time>
      </trkpt>
      <trkpt lat="44.74832" lon="6.8679">
        <ele>2489.6</ele>
        <time>2026-03-23T12:34:03Z</time>
      </trkpt>
      <trkpt lat="44.74833" lon="6.86789">
        <ele>2489.6</ele>
        <time>2026-03-23T12:34:04Z</time>
      </trkpt>
      <trkpt lat="44.74833" lon="6.8679">
        <ele>2489.6</ele>
        <time>2026-03-23T12:34:05Z</time>
      </trkpt>
      <trkpt lat="44.74833" lon="6.8679">
        <ele>2489.6</ele>
        <time>2026-03-23T12:34:06Z</time>
      </trkpt>
      <trkpt lat="44.74833" lon="6.86791">
        <ele>2489.5</ele>
        <time>2026-03-23T12:34:07Z</time>
      </trkpt>
      <trkpt lat="44.74833" lon="6.86791">
        <ele>2489.5</ele>
        <time>2026-03-23T12:34:08Z</time>
      </trkpt>
      <trkpt lat="44.74833" lon="6.86791">
        <ele>2489.5</ele>
        <time>2026-03-23T12:34:09Z</time>
      </trkpt>
      <trkpt lat="44.74832" lon="6.86792">
        <ele>2491.1</ele>
        <time>2026-03-23T12:34:10Z</time>
      </trkpt>
      <trkpt lat="44.74832" lon="6.86792">
        <ele>2491.1</ele>
        <time>2026-03-23T12:34:11Z</time>
      </trkpt>
      <trkpt lat="44.74832" lon="6.86792">
        <ele>2491.1</ele>
        <time>2026-03-23T12:34:12Z</time>
      </trkpt>
      <trkpt lat="44.74832" lon="6.86791">
        <ele>2489.5</ele>
        <time>2026-03-23T12:34:13Z</time>
      </trkpt>
      <trkpt lat="44.74832" lon="6.86791">
        <ele>2489.5</ele>
        <time>2026-03-23T12:34:14Z</time>
      </trkpt>
      <trkpt lat="44.74832" lon="6.86791">
        <ele>2489.5</ele>
        <time>2026-03-23T12:34:15Z</time>
      </trkpt>
      <trkpt lat="44.74832" lon="6.86791">
        <ele>2489.4</ele>
        <time>2026-03-23T12:34:16Z</time>
      </trkpt>
      <trkpt lat="44.74832" lon="6.86791">
        <ele>2489.4</ele>
        <time>2026-03-23T12:34:17Z</time>
      </trkpt>
      <trkpt lat="44.74832" lon="6.86791">
        <ele>2489.4</ele>
        <time>2026-03-23T12:34:18Z</time>
      </trkpt>
      <trkpt lat="44.74832" lon="6.86791">
        <ele>2489.4</ele>
        <time>2026-03-23T12:34:19Z</time>
      </trkpt>
      <trkpt lat="44.74832" lon="6.86791">
        <ele>2489.4</ele>
        <time>2026-03-23T12:34:20Z</time>
      </trkpt>
      <trkpt lat="44.74832" lon="6.86791">
        <ele>2489.4</ele>
        <time>2026-03-23T12:34:21Z</time>
      </trkpt>
      <trkpt lat="44.74832" lon="6.86791">
        <ele>2489.4</ele>
        <time>2026-03-23T12:34:22Z</time>
      </trkpt>
      <trkpt lat="44.74832" lon="6.86791">
        <ele>2489.4</ele>
        <time>2026-03-23T12:34:23Z</time>
      </trkpt>
      <trkpt lat="44.74832" lon="6.86791">
        <ele>2489.4</ele>
        <time>2026-03-23T12:34:24Z</time>
      </trkpt>
      <trkpt lat="44.74832" lon="6.86791">
        <ele>2489.3</ele>
        <time>2026-03-23T12:34:25Z</time>
      </trkpt>
      <trkpt lat="44.74832" lon="6.86791">
        <ele>2489.3</ele>
        <time>2026-03-23T12:34:26Z</time>
      </trkpt>
      <trkpt lat="44.74832" lon="6.86791">
        <ele>2489.3</ele>
        <time>2026-03-23T12:34:27Z</time>
      </trkpt>
      <trkpt lat="44.74832" lon="6.86791">
        <ele>2489.3</ele>
        <time>2026-03-23T12:34:28Z</time>
      </trkpt>
      <trkpt lat="44.74832" lon="6.86791">
        <ele>2489.3</ele>
        <time>2026-03-23T12:34:29Z</time>
      </trkpt>
      <trkpt lat="44.74832" lon="6.86791">
        <ele>2489.3</ele>
        <time>2026-03-23T12:34:30Z</time>
      </trkpt>
      <trkpt lat="44.74832" lon="6.86791">
        <ele>2489.3</ele>
        <time>2026-03-23T12:34:31Z</time>
      </trkpt>
      <trkpt lat="44.74832" lon="6.86791">
        <ele>2489.3</ele>
        <time>2026-03-23T12:34:32Z</time>
      </trkpt>
      <trkpt lat="44.74832" lon="6.86791">
        <ele>2489.3</ele>
        <time>2026-03-23T12:34:33Z</time>
      </trkpt>
      <trkpt lat="44.74832" lon="6.8679">
        <ele>2489.2</ele>
        <time>2026-03-23T12:34:34Z</time>
      </trkpt>
      <trkpt lat="44.74832" lon="6.8679">
        <ele>2489.2</ele>
        <time>2026-03-23T12:34:35Z</time>
      </trkpt>
      <trkpt lat="44.74832" lon="6.8679">
        <ele>2489.2</ele>
        <time>2026-03-23T12:34:36Z</time>
      </trkpt>
      <trkpt lat="44.74832" lon="6.8679">
        <ele>2489.2</ele>
        <time>2026-03-23T12:34:37Z</time>
      </trkpt>
      <trkpt lat="44.74832" lon="6.8679">
        <ele>2489.2</ele>
        <time>2026-03-23T12:34:38Z</time>
      </trkpt>
      <trkpt lat="44.74832" lon="6.8679">
        <ele>2489.2</ele>
        <time>2026-03-23T12:34:39Z</time>
      </trkpt>
      <trkpt lat="44.74832" lon="6.8679">
        <ele>2489.2</ele>
        <time>2026-03-23T12:34:40Z</time>
      </trkpt>
      <trkpt lat="44.74832" lon="6.8679">
        <ele>2489.2</ele>
        <time>2026-03-23T12:34:41Z</time>
      </trkpt>
      <trkpt lat="44.74832" lon="6.8679">
        <ele>2489.2</ele>
        <time>2026-03-23T12:34:42Z</time>
      </trkpt>
      <trkpt lat="44.74832" lon="6.8679">
        <ele>2489.1</ele>
        <time>2026-03-23T12:34:43Z</time>
      </trkpt>
      <trkpt lat="44.74832" lon="6.8679">
        <ele>2489.1</ele>
        <time>2026-03-23T12:34:44Z</time>
      </trkpt>
      <trkpt lat="44.74832" lon="6.8679">
        <ele>2489.1</ele>
        <time>2026-03-23T12:34:45Z</time>
      </trkpt>
      <trkpt lat="44.74832" lon="6.8679">
        <ele>2489.1</ele>
        <time>2026-03-23T12:34:46Z</time>
      </trkpt>
      <trkpt lat="44.74832" lon="6.8679">
        <ele>2489.1</ele>
        <time>2026-03-23T12:34:47Z</time>
      </trkpt>
      <trkpt lat="44.74832" lon="6.8679">
        <ele>2489.1</ele>
        <time>2026-03-23T12:34:48Z</time>
      </trkpt>
      <trkpt lat="44.74832" lon="6.8679">
        <ele>2489.1</ele>
        <time>2026-03-23T12:34:49Z</time>
      </trkpt>
      <trkpt lat="44.74832" lon="6.8679">
        <ele>2489.1</ele>
        <time>2026-03-23T12:34:50Z</time>
      </trkpt>
      <trkpt lat="44.74832" lon="6.8679">
        <ele>2489.1</ele>
        <time>2026-03-23T12:34:51Z</time>
      </trkpt>
      <trkpt lat="44.74832" lon="6.8679">
        <ele>2489</ele>
        <time>2026-03-23T12:34:52Z</time>
      </trkpt>
      <trkpt lat="44.74832" lon="6.8679">
        <ele>2489</ele>
        <time>2026-03-23T12:34:53Z</time>
      </trkpt>
      <trkpt lat="44.74832" lon="6.8679">
        <ele>2489</ele>
        <time>2026-03-23T12:34:54Z</time>
      </trkpt>
      <trkpt lat="44.74832" lon="6.86789">
        <ele>2489</ele>
        <time>2026-03-23T12:34:55Z</time>
      </trkpt>
      <trkpt lat="44.74832" lon="6.86789">
        <ele>2489</ele>
        <time>2026-03-23T12:34:56Z</time>
      </trkpt>
      <trkpt lat="44.74832" lon="6.86789">
        <ele>2489</ele>
        <time>2026-03-23T12:34:57Z</time>
      </trkpt>
      <trkpt lat="44.74832" lon="6.86789">
        <ele>2489</ele>
        <time>2026-03-23T12:34:58Z</time>
      </trkpt>
      <trkpt lat="44.74832" lon="6.86789">
        <ele>2489</ele>
        <time>2026-03-23T12:34:59Z</time>
      </trkpt>
      <trkpt lat="44.74832" lon="6.86789">
        <ele>2489</ele>
        <time>2026-03-23T12:35:00Z</time>
      </trkpt>
      <trkpt lat="44.74832" lon="6.86789">
        <ele>2489</ele>
        <time>2026-03-23T12:35:01Z</time>
      </trkpt>
      <trkpt lat="44.74832" lon="6.86789">
        <ele>2488.9</ele>
        <time>2026-03-23T12:35:02Z</time>
      </trkpt>
      <trkpt lat="44.74832" lon="6.86789">
        <ele>2488.9</ele>
        <time>2026-03-23T12:35:03Z</time>
      </trkpt>
      <trkpt lat="44.74832" lon="6.86789">
        <ele>2488.9</ele>
        <time>2026-03-23T12:35:04Z</time>
      </trkpt>
      <trkpt lat="44.74832" lon="6.86789">
        <ele>2488.9</ele>
        <time>2026-03-23T12:35:05Z</time>
      </trkpt>
      <trkpt lat="44.74832" lon="6.86789">
        <ele>2488.9</ele>
        <time>2026-03-23T12:35:06Z</time>
      </trkpt>
      <trkpt lat="44.74832" lon="6.86789">
        <ele>2488.9</ele>
        <time>2026-03-23T12:35:07Z</time>
      </trkpt>
      <trkpt lat="44.74832" lon="6.86789">
        <ele>2488.9</ele>
        <time>2026-03-23T12:35:08Z</time>
      </trkpt>
      <trkpt lat="44.74832" lon="6.86789">
        <ele>2488.9</ele>
        <time>2026-03-23T12:35:09Z</time>
      </trkpt>
      <trkpt lat="44.74832" lon="6.86789">
        <ele>2488.9</ele>
        <time>2026-03-23T12:35:10Z</time>
      </trkpt>
      <trkpt lat="44.74832" lon="6.86789">
        <ele>2488.8</ele>
        <time>2026-03-23T12:35:11Z</time>
      </trkpt>
      <trkpt lat="44.74832" lon="6.86789">
        <ele>2488.8</ele>
        <time>2026-03-23T12:35:12Z</time>
      </trkpt>
      <trkpt lat="44.74832" lon="6.86789">
        <ele>2489.6</ele>
        <time>2026-03-23T12:35:13Z</time>
      </trkpt>
      <trkpt lat="44.74832" lon="6.86789">
        <ele>2489.6</ele>
        <time>2026-03-23T12:35:14Z</time>
      </trkpt>
      <trkpt lat="44.74832" lon="6.86789">
        <ele>2489.6</ele>
        <time>2026-03-23T12:35:15Z</time>
      </trkpt>
      <trkpt lat="44.74832" lon="6.86788">
        <ele>2489.6</ele>
        <time>2026-03-23T12:35:16Z</time>
      </trkpt>
      <trkpt lat="44.74832" lon="6.86788">
        <ele>2489.6</ele>
        <time>2026-03-23T12:35:17Z</time>
      </trkpt>
      <trkpt lat="44.74832" lon="6.86788">
        <ele>2489.5</ele>
        <time>2026-03-23T12:35:18Z</time>
      </trkpt>
      <trkpt lat="44.74832" lon="6.86788">
        <ele>2489.5</ele>
        <time>2026-03-23T12:35:19Z</time>
      </trkpt>
      <trkpt lat="44.74832" lon="6.86788">
        <ele>2489.5</ele>
        <time>2026-03-23T12:35:20Z</time>
      </trkpt>
      <trkpt lat="44.74832" lon="6.86788">
        <ele>2489.5</ele>
        <time>2026-03-23T12:35:21Z</time>
      </trkpt>
      <trkpt lat="44.74832" lon="6.86788">
        <ele>2489.5</ele>
        <time>2026-03-23T12:35:22Z</time>
      </trkpt>
      <trkpt lat="44.74832" lon="6.86788">
        <ele>2489.5</ele>
        <time>2026-03-23T12:35:23Z</time>
      </trkpt>
      <trkpt lat="44.74832" lon="6.86788">
        <ele>2489.5</ele>
        <time>2026-03-23T12:35:24Z</time>
      </trkpt>
      <trkpt lat="44.74832" lon="6.86788">
        <ele>2489.5</ele>
        <time>2026-03-23T12:35:25Z</time>
      </trkpt>
      <trkpt lat="44.74832" lon="6.86788">
        <ele>2489.5</ele>
        <time>2026-03-23T12:35:26Z</time>
      </trkpt>
      <trkpt lat="44.74832" lon="6.86788">
        <ele>2489.4</ele>
        <time>2026-03-23T12:35:27Z</time>
      </trkpt>
      <trkpt lat="44.74832" lon="6.86788">
        <ele>2489.4</ele>
        <time>2026-03-23T12:35:28Z</time>
      </trkpt>
      <trkpt lat="44.74832" lon="6.86788">
        <ele>2489.4</ele>
        <time>2026-03-23T12:35:29Z</time>
      </trkpt>
      <trkpt lat="44.74832" lon="6.86788">
        <ele>2489.4</ele>
        <time>2026-03-23T12:35:30Z</time>
      </trkpt>
      <trkpt lat="44.74832" lon="6.86788">
        <ele>2489.4</ele>
        <time>2026-03-23T12:35:31Z</time>
      </trkpt>
      <trkpt lat="44.74832" lon="6.86788">
        <ele>2489.4</ele>
        <time>2026-03-23T12:35:32Z</time>
      </trkpt>
      <trkpt lat="44.74832" lon="6.86788">
        <ele>2489.4</ele>
        <time>2026-03-23T12:35:33Z</time>
      </trkpt>
      <trkpt lat="44.74832" lon="6.86788">
        <ele>2489.4</ele>
        <time>2026-03-23T12:35:34Z</time>
      </trkpt>
      <trkpt lat="44.74832" lon="6.86788">
        <ele>2489.4</ele>
        <time>2026-03-23T12:35:35Z</time>
      </trkpt>
      <trkpt lat="44.74832" lon="6.86788">
        <ele>2489.3</ele>
        <time>2026-03-23T12:35:36Z</time>
      </trkpt>
      <trkpt lat="44.74832" lon="6.86788">
        <ele>2489.3</ele>
        <time>2026-03-23T12:35:37Z</time>
      </trkpt>
      <trkpt lat="44.74832" lon="6.86787">
        <ele>2489.3</ele>
        <time>2026-03-23T12:35:38Z</time>
      </trkpt>
      <trkpt lat="44.74832" lon="6.86787">
        <ele>2489.3</ele>
        <time>2026-03-23T12:35:39Z</time>
      </trkpt>
      <trkpt lat="44.74832" lon="6.86787">
        <ele>2489.3</ele>
        <time>2026-03-23T12:35:40Z</time>
      </trkpt>
      <trkpt lat="44.74832" lon="6.86787">
        <ele>2489.3</ele>
        <time>2026-03-23T12:35:41Z</time>
      </trkpt>
      <trkpt lat="44.74832" lon="6.86787">
        <ele>2489.3</ele>
        <time>2026-03-23T12:35:42Z</time>
      </trkpt>
      <trkpt lat="44.74832" lon="6.86787">
        <ele>2489.3</ele>
        <time>2026-03-23T12:35:43Z</time>
      </trkpt>
      <trkpt lat="44.74832" lon="6.86787">
        <ele>2487.7</ele>
        <time>2026-03-23T12:35:44Z</time>
      </trkpt>
      <trkpt lat="44.74832" lon="6.86787">
        <ele>2487.7</ele>
        <time>2026-03-23T12:35:45Z</time>
      </trkpt>
      <trkpt lat="44.74832" lon="6.86787">
        <ele>2487.7</ele>
        <time>2026-03-23T12:35:46Z</time>
      </trkpt>
      <trkpt lat="44.74832" lon="6.86787">
        <ele>2487.7</ele>
        <time>2026-03-23T12:35:47Z</time>
      </trkpt>
      <trkpt lat="44.74832" lon="6.86787">
        <ele>2487.7</ele>
        <time>2026-03-23T12:35:48Z</time>
      </trkpt>
      <trkpt lat="44.74832" lon="6.86787">
        <ele>2487.6</ele>
        <time>2026-03-23T12:35:49Z</time>
      </trkpt>
      <trkpt lat="44.74832" lon="6.86787">
        <ele>2487.6</ele>
        <time>2026-03-23T12:35:50Z</time>
      </trkpt>
      <trkpt lat="44.74832" lon="6.86787">
        <ele>2487.6</ele>
        <time>2026-03-23T12:35:51Z</time>
      </trkpt>
      <trkpt lat="44.74832" lon="6.86787">
        <ele>2487.6</ele>
        <time>2026-03-23T12:35:52Z</time>
      </trkpt>
      <trkpt lat="44.74832" lon="6.86787">
        <ele>2487.6</ele>
        <time>2026-03-23T12:35:53Z</time>
      </trkpt>
      <trkpt lat="44.74832" lon="6.86787">
        <ele>2487.6</ele>
        <time>2026-03-23T12:35:54Z</time>
      </trkpt>
      <trkpt lat="44.74832" lon="6.86787">
        <ele>2487.6</ele>
        <time>2026-03-23T12:35:55Z</time>
      </trkpt>
      <trkpt lat="44.74832" lon="6.86787">
        <ele>2487.6</ele>
        <time>2026-03-23T12:35:56Z</time>
      </trkpt>
      <trkpt lat="44.74832" lon="6.86787">
        <ele>2487.6</ele>
        <time>2026-03-23T12:35:57Z</time>
      </trkpt>
      <trkpt lat="44.74832" lon="6.86787">
        <ele>2487.5</ele>
        <time>2026-03-23T12:35:58Z</time>
      </trkpt>
      <trkpt lat="44.74831" lon="6.86786">
        <ele>2487.5</ele>
        <time>2026-03-23T12:35:59Z</time>
      </trkpt>
      <trkpt lat="44.74831" lon="6.86786">
        <ele>2487.5</ele>
        <time>2026-03-23T12:36:00Z</time>
      </trkpt>
      <trkpt lat="44.74831" lon="6.86786">
        <ele>2487.5</ele>
        <time>2026-03-23T12:36:01Z</time>
      </trkpt>
      <trkpt lat="44.74831" lon="6.86786">
        <ele>2487.5</ele>
        <time>2026-03-23T12:36:02Z</time>
      </trkpt>
      <trkpt lat="44.74831" lon="6.86786">
        <ele>2487.5</ele>
        <time>2026-03-23T12:36:03Z</time>
      </trkpt>
      <trkpt lat="44.74831" lon="6.86786">
        <ele>2487.5</ele>
        <time>2026-03-23T12:36:04Z</time>
      </trkpt>
      <trkpt lat="44.74831" lon="6.86786">
        <ele>2487.5</ele>
        <time>2026-03-23T12:36:05Z</time>
      </trkpt>
      <trkpt lat="44.74831" lon="6.86786">
        <ele>2487.5</ele>
        <time>2026-03-23T12:36:06Z</time>
      </trkpt>
      <trkpt lat="44.74831" lon="6.86786">
        <ele>2487.4</ele>
        <time>2026-03-23T12:36:07Z</time>
      </trkpt>
      <trkpt lat="44.74831" lon="6.86786">
        <ele>2487.4</ele>
        <time>2026-03-23T12:36:08Z</time>
      </trkpt>
      <trkpt lat="44.74831" lon="6.86786">
        <ele>2487.4</ele>
        <time>2026-03-23T12:36:09Z</time>
      </trkpt>
      <trkpt lat="44.74831" lon="6.86786">
        <ele>2487.4</ele>
        <time>2026-03-23T12:36:10Z</time>
      </trkpt>
      <trkpt lat="44.74831" lon="6.86786">
        <ele>2487.4</ele>
        <time>2026-03-23T12:36:11Z</time>
      </trkpt>
      <trkpt lat="44.74831" lon="6.86786">
        <ele>2487.4</ele>
        <time>2026-03-23T12:36:12Z</time>
      </trkpt>
      <trkpt lat="44.74831" lon="6.86786">
        <ele>2487.4</ele>
        <time>2026-03-23T12:36:13Z</time>
      </trkpt>
      <trkpt lat="44.74831" lon="6.86786">
        <ele>2487.4</ele>
        <time>2026-03-23T12:36:14Z</time>
      </trkpt>
      <trkpt lat="44.74831" lon="6.86786">
        <ele>2487.4</ele>
        <time>2026-03-23T12:36:15Z</time>
      </trkpt>
      <trkpt lat="44.74831" lon="6.86786">
        <ele>2487.3</ele>
        <time>2026-03-23T12:36:16Z</time>
      </trkpt>
      <trkpt lat="44.74831" lon="6.86786">
        <ele>2487.3</ele>
        <time>2026-03-23T12:36:17Z</time>
      </trkpt>
      <trkpt lat="44.74831" lon="6.86786">
        <ele>2487.3</ele>
        <time>2026-03-23T12:36:18Z</time>
      </trkpt>
      <trkpt lat="44.74831" lon="6.86786">
        <ele>2487.3</ele>
        <time>2026-03-23T12:36:19Z</time>
      </trkpt>
      <trkpt lat="44.74831" lon="6.86785">
        <ele>2487.3</ele>
        <time>2026-03-23T12:36:20Z</time>
      </trkpt>
      <trkpt lat="44.74831" lon="6.86785">
        <ele>2487.3</ele>
        <time>2026-03-23T12:36:21Z</time>
      </trkpt>
      <trkpt lat="44.74831" lon="6.86785">
        <ele>2487.3</ele>
        <time>2026-03-23T12:36:22Z</time>
      </trkpt>
      <trkpt lat="44.74831" lon="6.86785">
        <ele>2487.3</ele>
        <time>2026-03-23T12:36:23Z</time>
      </trkpt>
      <trkpt lat="44.74831" lon="6.86785">
        <ele>2487.3</ele>
        <time>2026-03-23T12:36:24Z</time>
      </trkpt>
      <trkpt lat="44.74831" lon="6.86785">
        <ele>2487.2</ele>
        <time>2026-03-23T12:36:25Z</time>
      </trkpt>
      <trkpt lat="44.74831" lon="6.86785">
        <ele>2487.2</ele>
        <time>2026-03-23T12:36:26Z</time>
      </trkpt>
      <trkpt lat="44.74831" lon="6.86785">
        <ele>2487.2</ele>
        <time>2026-03-23T12:36:27Z</time>
      </trkpt>
      <trkpt lat="44.74833" lon="6.86778">
        <ele>2483.5</ele>
        <time>2026-03-23T12:36:28Z</time>
      </trkpt>
      <trkpt lat="44.74831" lon="6.86773">
        <ele>2482.8</ele>
        <time>2026-03-23T12:36:29Z</time>
      </trkpt>
      <trkpt lat="44.74832" lon="6.86766">
        <ele>2480.8</ele>
        <time>2026-03-23T12:36:30Z</time>
      </trkpt>
      <trkpt lat="44.7483" lon="6.8676">
        <ele>2479.1</ele>
        <time>2026-03-23T12:36:31Z</time>
      </trkpt>
      <trkpt lat="44.74828" lon="6.86753">
        <ele>2478.4</ele>
        <time>2026-03-23T12:36:32Z</time>
      </trkpt>
      <trkpt lat="44.74829" lon="6.86747">
        <ele>2475.2</ele>
        <time>2026-03-23T12:36:33Z</time>
      </trkpt>
      <trkpt lat="44.74826" lon="6.8674">
        <ele>2474.5</ele>
        <time>2026-03-23T12:36:34Z</time>
      </trkpt>
      <trkpt lat="44.74827" lon="6.86732">
        <ele>2472.1</ele>
        <time>2026-03-23T12:36:35Z</time>
      </trkpt>
      <trkpt lat="44.74826" lon="6.86725">
        <ele>2470.6</ele>
        <time>2026-03-23T12:36:36Z</time>
      </trkpt>
      <trkpt lat="44.74826" lon="6.86717">
        <ele>2468.6</ele>
        <time>2026-03-23T12:36:37Z</time>
      </trkpt>
      <trkpt lat="44.74825" lon="6.86708">
        <ele>2466.6</ele>
        <time>2026-03-23T12:36:38Z</time>
      </trkpt>
      <trkpt lat="44.74821" lon="6.86702">
        <ele>2465.9</ele>
        <time>2026-03-23T12:36:39Z</time>
      </trkpt>
      <trkpt lat="44.74818" lon="6.86696">
        <ele>2463.9</ele>
        <time>2026-03-23T12:36:40Z</time>
      </trkpt>
      <trkpt lat="44.74816" lon="6.86688">
        <ele>2462.2</ele>
        <time>2026-03-23T12:36:41Z</time>
      </trkpt>
      <trkpt lat="44.74811" lon="6.8668">
        <ele>2461.7</ele>
        <time>2026-03-23T12:36:42Z</time>
      </trkpt>
      <trkpt lat="44.74809" lon="6.86671">
        <ele>2460.5</ele>
        <time>2026-03-23T12:36:43Z</time>
      </trkpt>
      <trkpt lat="44.7481" lon="6.86661">
        <ele>2458</ele>
        <time>2026-03-23T12:36:44Z</time>
      </trkpt>
      <trkpt lat="44.74805" lon="6.86655">
        <ele>2457.6</ele>
        <time>2026-03-23T12:36:45Z</time>
      </trkpt>
      <trkpt lat="44.74801" lon="6.86649">
        <ele>2456.6</ele>
        <time>2026-03-23T12:36:46Z</time>
      </trkpt>
      <trkpt lat="44.74798" lon="6.86643">
        <ele>2455.4</ele>
        <time>2026-03-23T12:36:47Z</time>
      </trkpt>
      <trkpt lat="44.74799" lon="6.86636">
        <ele>2453.4</ele>
        <time>2026-03-23T12:36:48Z</time>
      </trkpt>
      <trkpt lat="44.74796" lon="6.86631">
        <ele>2452.8</ele>
        <time>2026-03-23T12:36:49Z</time>
      </trkpt>
      <trkpt lat="44.74796" lon="6.86624">
        <ele>2451.9</ele>
        <time>2026-03-23T12:36:50Z</time>
      </trkpt>
      <trkpt lat="44.74797" lon="6.86617">
        <ele>2450.1</ele>
        <time>2026-03-23T12:36:51Z</time>
      </trkpt>
      <trkpt lat="44.74794" lon="6.86611">
        <ele>2448.5</ele>
        <time>2026-03-23T12:36:52Z</time>
      </trkpt>
      <trkpt lat="44.74791" lon="6.86605">
        <ele>2447.7</ele>
        <time>2026-03-23T12:36:53Z</time>
      </trkpt>
      <trkpt lat="44.74791" lon="6.86599">
        <ele>2446.8</ele>
        <time>2026-03-23T12:36:54Z</time>
      </trkpt>
      <trkpt lat="44.74792" lon="6.86598">
        <ele>2446.7</ele>
        <time>2026-03-23T12:36:55Z</time>
      </trkpt>
      <trkpt lat="44.74793" lon="6.86598">
        <ele>2445.8</ele>
        <time>2026-03-23T12:36:56Z</time>
      </trkpt>
      <trkpt lat="44.74793" lon="6.86598">
        <ele>2445.8</ele>
        <time>2026-03-23T12:36:57Z</time>
      </trkpt>
      <trkpt lat="44.74793" lon="6.86598">
        <ele>2445.8</ele>
        <time>2026-03-23T12:36:58Z</time>
      </trkpt>
      <trkpt lat="44.74793" lon="6.86598">
        <ele>2445.8</ele>
        <time>2026-03-23T12:36:59Z</time>
      </trkpt>
      <trkpt lat="44.74794" lon="6.86598">
        <ele>2445.8</ele>
        <time>2026-03-23T12:37:00Z</time>
      </trkpt>
      <trkpt lat="44.74793" lon="6.86598">
        <ele>2445.8</ele>
        <time>2026-03-23T12:37:01Z</time>
      </trkpt>
      <trkpt lat="44.74793" lon="6.86597">
        <ele>2445.8</ele>
        <time>2026-03-23T12:37:02Z</time>
      </trkpt>
      <trkpt lat="44.74793" lon="6.86597">
        <ele>2445.8</ele>
        <time>2026-03-23T12:37:03Z</time>
      </trkpt>
      <trkpt lat="44.74793" lon="6.86597">
        <ele>2445.7</ele>
        <time>2026-03-23T12:37:04Z</time>
      </trkpt>
      <trkpt lat="44.74793" lon="6.86597">
        <ele>2445.7</ele>
        <time>2026-03-23T12:37:05Z</time>
      </trkpt>
      <trkpt lat="44.74793" lon="6.86597">
        <ele>2445.7</ele>
        <time>2026-03-23T12:37:06Z</time>
      </trkpt>
      <trkpt lat="44.74793" lon="6.86597">
        <ele>2445.7</ele>
        <time>2026-03-23T12:37:07Z</time>
      </trkpt>
      <trkpt lat="44.74792" lon="6.86597">
        <ele>2445.7</ele>
        <time>2026-03-23T12:37:08Z</time>
      </trkpt>
      <trkpt lat="44.74792" lon="6.86597">
        <ele>2445.7</ele>
        <time>2026-03-23T12:37:09Z</time>
      </trkpt>
      <trkpt lat="44.74792" lon="6.86597">
        <ele>2445.7</ele>
        <time>2026-03-23T12:37:10Z</time>
      </trkpt>
      <trkpt lat="44.74792" lon="6.86597">
        <ele>2445.7</ele>
        <time>2026-03-23T12:37:11Z</time>
      </trkpt>
      <trkpt lat="44.74793" lon="6.86597">
        <ele>2445.7</ele>
        <time>2026-03-23T12:37:12Z</time>
      </trkpt>
      <trkpt lat="44.74793" lon="6.86597">
        <ele>2445.6</ele>
        <time>2026-03-23T12:37:13Z</time>
      </trkpt>
      <trkpt lat="44.74793" lon="6.86597">
        <ele>2445.6</ele>
        <time>2026-03-23T12:37:14Z</time>
      </trkpt>
      <trkpt lat="44.74793" lon="6.86597">
        <ele>2445.6</ele>
        <time>2026-03-23T12:37:15Z</time>
      </trkpt>
      <trkpt lat="44.74793" lon="6.86597">
        <ele>2445.6</ele>
        <time>2026-03-23T12:37:16Z</time>
      </trkpt>
      <trkpt lat="44.74793" lon="6.86597">
        <ele>2445.6</ele>
        <time>2026-03-23T12:37:17Z</time>
      </trkpt>
      <trkpt lat="44.74793" lon="6.86596">
        <ele>2445.6</ele>
        <time>2026-03-23T12:37:18Z</time>
      </trkpt>
      <trkpt lat="44.74793" lon="6.86596">
        <ele>2445.6</ele>
        <time>2026-03-23T12:37:19Z</time>
      </trkpt>
      <trkpt lat="44.74793" lon="6.86596">
        <ele>2445.6</ele>
        <time>2026-03-23T12:37:20Z</time>
      </trkpt>
      <trkpt lat="44.74793" lon="6.86596">
        <ele>2445.6</ele>
        <time>2026-03-23T12:37:21Z</time>
      </trkpt>
      <trkpt lat="44.74793" lon="6.86596">
        <ele>2445.5</ele>
        <time>2026-03-23T12:37:22Z</time>
      </trkpt>
      <trkpt lat="44.74793" lon="6.86596">
        <ele>2445.5</ele>
        <time>2026-03-23T12:37:23Z</time>
      </trkpt>
      <trkpt lat="44.74793" lon="6.86596">
        <ele>2445.5</ele>
        <time>2026-03-23T12:37:24Z</time>
      </trkpt>
      <trkpt lat="44.74793" lon="6.86596">
        <ele>2445.5</ele>
        <time>2026-03-23T12:37:25Z</time>
      </trkpt>
      <trkpt lat="44.74793" lon="6.86596">
        <ele>2445.5</ele>
        <time>2026-03-23T12:37:26Z</time>
      </trkpt>
      <trkpt lat="44.74793" lon="6.86596">
        <ele>2445.5</ele>
        <time>2026-03-23T12:37:27Z</time>
      </trkpt>
      <trkpt lat="44.74793" lon="6.86596">
        <ele>2445.5</ele>
        <time>2026-03-23T12:37:28Z</time>
      </trkpt>
      <trkpt lat="44.74793" lon="6.86596">
        <ele>2445.5</ele>
        <time>2026-03-23T12:37:29Z</time>
      </trkpt>
      <trkpt lat="44.74793" lon="6.86595">
        <ele>2445.5</ele>
        <time>2026-03-23T12:37:30Z</time>
      </trkpt>
      <trkpt lat="44.74793" lon="6.86595">
        <ele>2445.4</ele>
        <time>2026-03-23T12:37:31Z</time>
      </trkpt>
      <trkpt lat="44.74793" lon="6.86595">
        <ele>2445.4</ele>
        <time>2026-03-23T12:37:32Z</time>
      </trkpt>
      <trkpt lat="44.74793" lon="6.86595">
        <ele>2445.4</ele>
        <time>2026-03-23T12:37:33Z</time>
      </trkpt>
      <trkpt lat="44.74793" lon="6.86595">
        <ele>2445.4</ele>
        <time>2026-03-23T12:37:34Z</time>
      </trkpt>
      <trkpt lat="44.74793" lon="6.86595">
        <ele>2445.4</ele>
        <time>2026-03-23T12:37:35Z</time>
      </trkpt>
      <trkpt lat="44.74793" lon="6.86595">
        <ele>2445.4</ele>
        <time>2026-03-23T12:37:36Z</time>
      </trkpt>
      <trkpt lat="44.74793" lon="6.86595">
        <ele>2445.4</ele>
        <time>2026-03-23T12:37:37Z</time>
      </trkpt>
      <trkpt lat="44.74793" lon="6.86595">
        <ele>2445.4</ele>
        <time>2026-03-23T12:37:38Z</time>
      </trkpt>
      <trkpt lat="44.74793" lon="6.86595">
        <ele>2445.4</ele>
        <time>2026-03-23T12:37:39Z</time>
      </trkpt>
      <trkpt lat="44.74793" lon="6.86595">
        <ele>2445.3</ele>
        <time>2026-03-23T12:37:40Z</time>
      </trkpt>
      <trkpt lat="44.74793" lon="6.86595">
        <ele>2445.3</ele>
        <time>2026-03-23T12:37:41Z</time>
      </trkpt>
      <trkpt lat="44.74793" lon="6.86595">
        <ele>2445.3</ele>
        <time>2026-03-23T12:37:42Z</time>
      </trkpt>
      <trkpt lat="44.74793" lon="6.86595">
        <ele>2445.3</ele>
        <time>2026-03-23T12:37:43Z</time>
      </trkpt>
      <trkpt lat="44.74793" lon="6.86595">
        <ele>2445.3</ele>
        <time>2026-03-23T12:37:44Z</time>
      </trkpt>
      <trkpt lat="44.74793" lon="6.86595">
        <ele>2445.3</ele>
        <time>2026-03-23T12:37:45Z</time>
      </trkpt>
      <trkpt lat="44.74793" lon="6.86595">
        <ele>2445.3</ele>
        <time>2026-03-23T12:37:46Z</time>
      </trkpt>
      <trkpt lat="44.74793" lon="6.86595">
        <ele>2445.3</ele>
        <time>2026-03-23T12:37:47Z</time>
      </trkpt>
      <trkpt lat="44.74793" lon="6.86595">
        <ele>2445.3</ele>
        <time>2026-03-23T12:37:48Z</time>
      </trkpt>
      <trkpt lat="44.74793" lon="6.86595">
        <ele>2445.2</ele>
        <time>2026-03-23T12:37:49Z</time>
      </trkpt>
      <trkpt lat="44.74793" lon="6.86595">
        <ele>2445.2</ele>
        <time>2026-03-23T12:37:50Z</time>
      </trkpt>
      <trkpt lat="44.74793" lon="6.86595">
        <ele>2445.2</ele>
        <time>2026-03-23T12:37:51Z</time>
      </trkpt>
      <trkpt lat="44.74793" lon="6.86595">
        <ele>2445.2</ele>
        <time>2026-03-23T12:37:52Z</time>
      </trkpt>
      <trkpt lat="44.74793" lon="6.86595">
        <ele>2445.2</ele>
        <time>2026-03-23T12:37:53Z</time>
      </trkpt>
      <trkpt lat="44.74793" lon="6.86595">
        <ele>2445.2</ele>
        <time>2026-03-23T12:37:54Z</time>
      </trkpt>
      <trkpt lat="44.74793" lon="6.86595">
        <ele>2445.2</ele>
        <time>2026-03-23T12:37:55Z</time>
      </trkpt>
      <trkpt lat="44.74793" lon="6.86595">
        <ele>2445.2</ele>
        <time>2026-03-23T12:37:56Z</time>
      </trkpt>
      <trkpt lat="44.74793" lon="6.86595">
        <ele>2445.2</ele>
        <time>2026-03-23T12:37:57Z</time>
      </trkpt>
      <trkpt lat="44.74793" lon="6.86595">
        <ele>2445.2</ele>
        <time>2026-03-23T12:37:58Z</time>
      </trkpt>
      <trkpt lat="44.74793" lon="6.86595">
        <ele>2445.1</ele>
        <time>2026-03-23T12:37:59Z</time>
      </trkpt>
      <trkpt lat="44.74793" lon="6.86595">
        <ele>2445.1</ele>
        <time>2026-03-23T12:38:00Z</time>
      </trkpt>
      <trkpt lat="44.74793" lon="6.86595">
        <ele>2445.1</ele>
        <time>2026-03-23T12:38:01Z</time>
      </trkpt>
      <trkpt lat="44.74793" lon="6.86595">
        <ele>2445.1</ele>
        <time>2026-03-23T12:38:02Z</time>
      </trkpt>
      <trkpt lat="44.74793" lon="6.86595">
        <ele>2445.1</ele>
        <time>2026-03-23T12:38:03Z</time>
      </trkpt>
      <trkpt lat="44.74793" lon="6.86595">
        <ele>2445.1</ele>
        <time>2026-03-23T12:38:04Z</time>
      </trkpt>
      <trkpt lat="44.74793" lon="6.86595">
        <ele>2445.1</ele>
        <time>2026-03-23T12:38:05Z</time>
      </trkpt>
      <trkpt lat="44.74793" lon="6.86595">
        <ele>2445.1</ele>
        <time>2026-03-23T12:38:06Z</time>
      </trkpt>
      <trkpt lat="44.74793" lon="6.86595">
        <ele>2445.1</ele>
        <time>2026-03-23T12:38:07Z</time>
      </trkpt>
      <trkpt lat="44.74793" lon="6.86595">
        <ele>2445</ele>
        <time>2026-03-23T12:38:08Z</time>
      </trkpt>
      <trkpt lat="44.74793" lon="6.86595">
        <ele>2445</ele>
        <time>2026-03-23T12:38:09Z</time>
      </trkpt>
      <trkpt lat="44.74793" lon="6.86595">
        <ele>2445</ele>
        <time>2026-03-23T12:38:10Z</time>
      </trkpt>
      <trkpt lat="44.74793" lon="6.86595">
        <ele>2445</ele>
        <time>2026-03-23T12:38:11Z</time>
      </trkpt>
      <trkpt lat="44.74793" lon="6.86595">
        <ele>2445</ele>
        <time>2026-03-23T12:38:12Z</time>
      </trkpt>
      <trkpt lat="44.74793" lon="6.86595">
        <ele>2445</ele>
        <time>2026-03-23T12:38:13Z</time>
      </trkpt>
      <trkpt lat="44.74793" lon="6.86595">
        <ele>2445</ele>
        <time>2026-03-23T12:38:14Z</time>
      </trkpt>
      <trkpt lat="44.74793" lon="6.86595">
        <ele>2445</ele>
        <time>2026-03-23T12:38:15Z</time>
      </trkpt>
      <trkpt lat="44.74793" lon="6.86595">
        <ele>2445</ele>
        <time>2026-03-23T12:38:16Z</time>
      </trkpt>
      <trkpt lat="44.74793" lon="6.86595">
        <ele>2444.9</ele>
        <time>2026-03-23T12:38:17Z</time>
      </trkpt>
      <trkpt lat="44.74793" lon="6.86595">
        <ele>2444.9</ele>
        <time>2026-03-23T12:38:18Z</time>
      </trkpt>
      <trkpt lat="44.74793" lon="6.86595">
        <ele>2444.9</ele>
        <time>2026-03-23T12:38:19Z</time>
      </trkpt>
      <trkpt lat="44.74793" lon="6.86595">
        <ele>2444.9</ele>
        <time>2026-03-23T12:38:20Z</time>
      </trkpt>
      <trkpt lat="44.74793" lon="6.86595">
        <ele>2444.9</ele>
        <time>2026-03-23T12:38:21Z</time>
      </trkpt>
      <trkpt lat="44.74793" lon="6.86595">
        <ele>2444.9</ele>
        <time>2026-03-23T12:38:22Z</time>
      </trkpt>
      <trkpt lat="44.74793" lon="6.86595">
        <ele>2444.9</ele>
        <time>2026-03-23T12:38:23Z</time>
      </trkpt>
      <trkpt lat="44.74793" lon="6.86595">
        <ele>2444.9</ele>
        <time>2026-03-23T12:38:24Z</time>
      </trkpt>
      <trkpt lat="44.74793" lon="6.86595">
        <ele>2444.9</ele>
        <time>2026-03-23T12:38:25Z</time>
      </trkpt>
      <trkpt lat="44.74793" lon="6.86595">
        <ele>2444.8</ele>
        <time>2026-03-23T12:38:26Z</time>
      </trkpt>
      <trkpt lat="44.74793" lon="6.86595">
        <ele>2444.8</ele>
        <time>2026-03-23T12:38:27Z</time>
      </trkpt>
      <trkpt lat="44.74793" lon="6.86595">
        <ele>2444.8</ele>
        <time>2026-03-23T12:38:28Z</time>
      </trkpt>
      <trkpt lat="44.74793" lon="6.86595">
        <ele>2444.8</ele>
        <time>2026-03-23T12:38:29Z</time>
      </trkpt>
      <trkpt lat="44.74793" lon="6.86595">
        <ele>2444.8</ele>
        <time>2026-03-23T12:38:30Z</time>
      </trkpt>
      <trkpt lat="44.74793" lon="6.86595">
        <ele>2444.8</ele>
        <time>2026-03-23T12:38:31Z</time>
      </trkpt>
      <trkpt lat="44.74793" lon="6.86595">
        <ele>2444.8</ele>
        <time>2026-03-23T12:38:32Z</time>
      </trkpt>
      <trkpt lat="44.74793" lon="6.86595">
        <ele>2444.8</ele>
        <time>2026-03-23T12:38:33Z</time>
      </trkpt>
      <trkpt lat="44.74793" lon="6.86595">
        <ele>2444.8</ele>
        <time>2026-03-23T12:38:34Z</time>
      </trkpt>
      <trkpt lat="44.74793" lon="6.86595">
        <ele>2444.7</ele>
        <time>2026-03-23T12:38:35Z</time>
      </trkpt>
      <trkpt lat="44.74793" lon="6.86595">
        <ele>2444.7</ele>
        <time>2026-03-23T12:38:36Z</time>
      </trkpt>
      <trkpt lat="44.74794" lon="6.86594">
        <ele>2444.7</ele>
        <time>2026-03-23T12:38:37Z</time>
      </trkpt>
      <trkpt lat="44.74795" lon="6.86594">
        <ele>2443.9</ele>
        <time>2026-03-23T12:38:38Z</time>
      </trkpt>
      <trkpt lat="44.74797" lon="6.8659">
        <ele>2442.9</ele>
        <time>2026-03-23T12:38:39Z</time>
      </trkpt>
      <trkpt lat="44.74797" lon="6.86587">
        <ele>2442.9</ele>
        <time>2026-03-23T12:38:40Z</time>
      </trkpt>
      <trkpt lat="44.74794" lon="6.86581">
        <ele>2441.2</ele>
        <time>2026-03-23T12:38:41Z</time>
      </trkpt>
      <trkpt lat="44.74793" lon="6.86574">
        <ele>2440.2</ele>
        <time>2026-03-23T12:38:42Z</time>
      </trkpt>
      <trkpt lat="44.74791" lon="6.86567">
        <ele>2438.3</ele>
        <time>2026-03-23T12:38:43Z</time>
      </trkpt>
      <trkpt lat="44.74785" lon="6.86562">
        <ele>2437.4</ele>
        <time>2026-03-23T12:38:44Z</time>
      </trkpt>
      <trkpt lat="44.74782" lon="6.86553">
        <ele>2435.5</ele>
        <time>2026-03-23T12:38:45Z</time>
      </trkpt>
      <trkpt lat="44.74782" lon="6.86543">
        <ele>2433.7</ele>
        <time>2026-03-23T12:38:46Z</time>
      </trkpt>
      <trkpt lat="44.74779" lon="6.86535">
        <ele>2432</ele>
        <time>2026-03-23T12:38:47Z</time>
      </trkpt>
      <trkpt lat="44.74779" lon="6.86527">
        <ele>2430</ele>
        <time>2026-03-23T12:38:48Z</time>
      </trkpt>
      <trkpt lat="44.74779" lon="6.86518">
        <ele>2428</ele>
        <time>2026-03-23T12:38:49Z</time>
      </trkpt>
      <trkpt lat="44.74778" lon="6.8651">
        <ele>2426.2</ele>
        <time>2026-03-23T12:38:50Z</time>
      </trkpt>
      <trkpt lat="44.74777" lon="6.86502">
        <ele>2424.4</ele>
        <time>2026-03-23T12:38:51Z</time>
      </trkpt>
      <trkpt lat="44.74776" lon="6.86495">
        <ele>2422.8</ele>
        <time>2026-03-23T12:38:52Z</time>
      </trkpt>
      <trkpt lat="44.74775" lon="6.86488">
        <ele>2422</ele>
        <time>2026-03-23T12:38:53Z</time>
      </trkpt>
      <trkpt lat="44.74773" lon="6.86484">
        <ele>2421.1</ele>
        <time>2026-03-23T12:38:54Z</time>
      </trkpt>
      <trkpt lat="44.74771" lon="6.8648">
        <ele>2420.2</ele>
        <time>2026-03-23T12:38:55Z</time>
      </trkpt>
      <trkpt lat="44.74769" lon="6.86474">
        <ele>2419.4</ele>
        <time>2026-03-23T12:38:56Z</time>
      </trkpt>
      <trkpt lat="44.74767" lon="6.86469">
        <ele>2417.7</ele>
        <time>2026-03-23T12:38:57Z</time>
      </trkpt>
      <trkpt lat="44.74765" lon="6.86464">
        <ele>2416.8</ele>
        <time>2026-03-23T12:38:58Z</time>
      </trkpt>
      <trkpt lat="44.74763" lon="6.86458">
        <ele>2416</ele>
        <time>2026-03-23T12:38:59Z</time>
      </trkpt>
      <trkpt lat="44.74759" lon="6.86453">
        <ele>2415.3</ele>
        <time>2026-03-23T12:39:00Z</time>
      </trkpt>
      <trkpt lat="44.74756" lon="6.86447">
        <ele>2413.7</ele>
        <time>2026-03-23T12:39:01Z</time>
      </trkpt>
      <trkpt lat="44.74752" lon="6.8644">
        <ele>2413</ele>
        <time>2026-03-23T12:39:02Z</time>
      </trkpt>
      <trkpt lat="44.74749" lon="6.86434">
        <ele>2411.4</ele>
        <time>2026-03-23T12:39:03Z</time>
      </trkpt>
      <trkpt lat="44.74748" lon="6.86426">
        <ele>2409.9</ele>
        <time>2026-03-23T12:39:04Z</time>
      </trkpt>
      <trkpt lat="44.74745" lon="6.86421">
        <ele>2409.2</ele>
        <time>2026-03-23T12:39:05Z</time>
      </trkpt>
      <trkpt lat="44.74743" lon="6.86414">
        <ele>2408.4</ele>
        <time>2026-03-23T12:39:06Z</time>
      </trkpt>
      <trkpt lat="44.7474" lon="6.86409">
        <ele>2407</ele>
        <time>2026-03-23T12:39:07Z</time>
      </trkpt>
      <trkpt lat="44.74738" lon="6.86402">
        <ele>2406.2</ele>
        <time>2026-03-23T12:39:08Z</time>
      </trkpt>
      <trkpt lat="44.74737" lon="6.86396">
        <ele>2404.5</ele>
        <time>2026-03-23T12:39:09Z</time>
      </trkpt>
      <trkpt lat="44.74734" lon="6.86391">
        <ele>2403.5</ele>
        <time>2026-03-23T12:39:10Z</time>
      </trkpt>
      <trkpt lat="44.74734" lon="6.86384">
        <ele>2401.7</ele>
        <time>2026-03-23T12:39:11Z</time>
      </trkpt>
      <trkpt lat="44.74732" lon="6.86378">
        <ele>2400.9</ele>
        <time>2026-03-23T12:39:12Z</time>
      </trkpt>
      <trkpt lat="44.7473" lon="6.86372">
        <ele>2400</ele>
        <time>2026-03-23T12:39:13Z</time>
      </trkpt>
      <trkpt lat="44.7473" lon="6.86366">
        <ele>2398.5</ele>
        <time>2026-03-23T12:39:14Z</time>
      </trkpt>
      <trkpt lat="44.74726" lon="6.86362">
        <ele>2397.5</ele>
        <time>2026-03-23T12:39:15Z</time>
      </trkpt>
      <trkpt lat="44.74724" lon="6.86358">
        <ele>2396.4</ele>
        <time>2026-03-23T12:39:16Z</time>
      </trkpt>
      <trkpt lat="44.74722" lon="6.86352">
        <ele>2395.3</ele>
        <time>2026-03-23T12:39:17Z</time>
      </trkpt>
      <trkpt lat="44.74719" lon="6.8635">
        <ele>2395</ele>
        <time>2026-03-23T12:39:18Z</time>
      </trkpt>
      <trkpt lat="44.74716" lon="6.86344">
        <ele>2392.8</ele>
        <time>2026-03-23T12:39:19Z</time>
      </trkpt>
      <trkpt lat="44.74713" lon="6.86341">
        <ele>2391.6</ele>
        <time>2026-03-23T12:39:20Z</time>
      </trkpt>
      <trkpt lat="44.74709" lon="6.86337">
        <ele>2391.3</ele>
        <time>2026-03-23T12:39:21Z</time>
      </trkpt>
      <trkpt lat="44.74708" lon="6.86332">
        <ele>2389.3</ele>
        <time>2026-03-23T12:39:22Z</time>
      </trkpt>
      <trkpt lat="44.74705" lon="6.86328">
        <ele>2388.1</ele>
        <time>2026-03-23T12:39:23Z</time>
      </trkpt>
      <trkpt lat="44.74703" lon="6.86322">
        <ele>2386.9</ele>
        <time>2026-03-23T12:39:24Z</time>
      </trkpt>
      <trkpt lat="44.74701" lon="6.86315">
        <ele>2386</ele>
        <time>2026-03-23T12:39:25Z</time>
      </trkpt>
      <trkpt lat="44.74697" lon="6.86311">
        <ele>2384.4</ele>
        <time>2026-03-23T12:39:26Z</time>
      </trkpt>
      <trkpt lat="44.74696" lon="6.86305">
        <ele>2382.4</ele>
        <time>2026-03-23T12:39:27Z</time>
      </trkpt>
      <trkpt lat="44.74692" lon="6.86303">
        <ele>2382.1</ele>
        <time>2026-03-23T12:39:28Z</time>
      </trkpt>
      <trkpt lat="44.74691" lon="6.86299">
        <ele>2380.8</ele>
        <time>2026-03-23T12:39:29Z</time>
      </trkpt>
      <trkpt lat="44.74688" lon="6.86297">
        <ele>2379.5</ele>
        <time>2026-03-23T12:39:30Z</time>
      </trkpt>
      <trkpt lat="44.74684" lon="6.86298">
        <ele>2380.3</ele>
        <time>2026-03-23T12:39:31Z</time>
      </trkpt>
      <trkpt lat="44.7468" lon="6.86297">
        <ele>2379</ele>
        <time>2026-03-23T12:39:32Z</time>
      </trkpt>
      <trkpt lat="44.74677" lon="6.86295">
        <ele>2378.8</ele>
        <time>2026-03-23T12:39:33Z</time>
      </trkpt>
      <trkpt lat="44.74675" lon="6.86293">
        <ele>2377.5</ele>
        <time>2026-03-23T12:39:34Z</time>
      </trkpt>
      <trkpt lat="44.74677" lon="6.86293">
        <ele>2377.7</ele>
        <time>2026-03-23T12:39:35Z</time>
      </trkpt>
      <trkpt lat="44.74677" lon="6.86293">
        <ele>2377.7</ele>
        <time>2026-03-23T12:39:36Z</time>
      </trkpt>
      <trkpt lat="44.74677" lon="6.86293">
        <ele>2377.7</ele>
        <time>2026-03-23T12:39:37Z</time>
      </trkpt>
      <trkpt lat="44.74677" lon="6.86293">
        <ele>2377.7</ele>
        <time>2026-03-23T12:39:38Z</time>
      </trkpt>
      <trkpt lat="44.74677" lon="6.86293">
        <ele>2377.7</ele>
        <time>2026-03-23T12:39:39Z</time>
      </trkpt>
      <trkpt lat="44.74677" lon="6.86292">
        <ele>2377.7</ele>
        <time>2026-03-23T12:39:40Z</time>
      </trkpt>
      <trkpt lat="44.74677" lon="6.86293">
        <ele>2377.7</ele>
        <time>2026-03-23T12:39:41Z</time>
      </trkpt>
      <trkpt lat="44.74677" lon="6.86293">
        <ele>2377.6</ele>
        <time>2026-03-23T12:39:42Z</time>
      </trkpt>
      <trkpt lat="44.74677" lon="6.86293">
        <ele>2377.6</ele>
        <time>2026-03-23T12:39:43Z</time>
      </trkpt>
      <trkpt lat="44.74677" lon="6.86292">
        <ele>2377.6</ele>
        <time>2026-03-23T12:39:44Z</time>
      </trkpt>
      <trkpt lat="44.74677" lon="6.86292">
        <ele>2377.6</ele>
        <time>2026-03-23T12:39:45Z</time>
      </trkpt>
      <trkpt lat="44.74677" lon="6.86292">
        <ele>2377.6</ele>
        <time>2026-03-23T12:39:46Z</time>
      </trkpt>
      <trkpt lat="44.74677" lon="6.86292">
        <ele>2377.6</ele>
        <time>2026-03-23T12:39:47Z</time>
      </trkpt>
      <trkpt lat="44.74677" lon="6.86292">
        <ele>2377.6</ele>
        <time>2026-03-23T12:39:48Z</time>
      </trkpt>
      <trkpt lat="44.74677" lon="6.86292">
        <ele>2377.6</ele>
        <time>2026-03-23T12:39:49Z</time>
      </trkpt>
      <trkpt lat="44.74677" lon="6.86292">
        <ele>2377.6</ele>
        <time>2026-03-23T12:39:50Z</time>
      </trkpt>
      <trkpt lat="44.74677" lon="6.86292">
        <ele>2377.5</ele>
        <time>2026-03-23T12:39:51Z</time>
      </trkpt>
      <trkpt lat="44.74677" lon="6.86292">
        <ele>2377.5</ele>
        <time>2026-03-23T12:39:52Z</time>
      </trkpt>
      <trkpt lat="44.74677" lon="6.86292">
        <ele>2377.5</ele>
        <time>2026-03-23T12:39:53Z</time>
      </trkpt>
      <trkpt lat="44.74677" lon="6.86292">
        <ele>2377.5</ele>
        <time>2026-03-23T12:39:54Z</time>
      </trkpt>
      <trkpt lat="44.74677" lon="6.86292">
        <ele>2377.5</ele>
        <time>2026-03-23T12:39:55Z</time>
      </trkpt>
      <trkpt lat="44.74677" lon="6.86292">
        <ele>2377.5</ele>
        <time>2026-03-23T12:39:56Z</time>
      </trkpt>
      <trkpt lat="44.74677" lon="6.86292">
        <ele>2377.5</ele>
        <time>2026-03-23T12:39:57Z</time>
      </trkpt>
      <trkpt lat="44.74677" lon="6.86292">
        <ele>2377.5</ele>
        <time>2026-03-23T12:39:58Z</time>
      </trkpt>
      <trkpt lat="44.74677" lon="6.86292">
        <ele>2377.5</ele>
        <time>2026-03-23T12:39:59Z</time>
      </trkpt>
      <trkpt lat="44.74677" lon="6.86292">
        <ele>2377.4</ele>
        <time>2026-03-23T12:40:00Z</time>
      </trkpt>
      <trkpt lat="44.74677" lon="6.86292">
        <ele>2377.4</ele>
        <time>2026-03-23T12:40:01Z</time>
      </trkpt>
      <trkpt lat="44.74677" lon="6.86292">
        <ele>2377.4</ele>
        <time>2026-03-23T12:40:02Z</time>
      </trkpt>
      <trkpt lat="44.74677" lon="6.86292">
        <ele>2377.4</ele>
        <time>2026-03-23T12:40:03Z</time>
      </trkpt>
      <trkpt lat="44.74677" lon="6.86292">
        <ele>2377.4</ele>
        <time>2026-03-23T12:40:04Z</time>
      </trkpt>
      <trkpt lat="44.74677" lon="6.86292">
        <ele>2377.4</ele>
        <time>2026-03-23T12:40:05Z</time>
      </trkpt>
      <trkpt lat="44.74677" lon="6.86292">
        <ele>2377.4</ele>
        <time>2026-03-23T12:40:06Z</time>
      </trkpt>
      <trkpt lat="44.74677" lon="6.86292">
        <ele>2377.4</ele>
        <time>2026-03-23T12:40:07Z</time>
      </trkpt>
      <trkpt lat="44.74677" lon="6.86292">
        <ele>2377.4</ele>
        <time>2026-03-23T12:40:08Z</time>
      </trkpt>
      <trkpt lat="44.74677" lon="6.86292">
        <ele>2377.3</ele>
        <time>2026-03-23T12:40:09Z</time>
      </trkpt>
      <trkpt lat="44.74677" lon="6.86292">
        <ele>2377.3</ele>
        <time>2026-03-23T12:40:10Z</time>
      </trkpt>
      <trkpt lat="44.74677" lon="6.86292">
        <ele>2377.3</ele>
        <time>2026-03-23T12:40:11Z</time>
      </trkpt>
      <trkpt lat="44.74677" lon="6.86292">
        <ele>2377.3</ele>
        <time>2026-03-23T12:40:12Z</time>
      </trkpt>
      <trkpt lat="44.74677" lon="6.86292">
        <ele>2377.3</ele>
        <time>2026-03-23T12:40:13Z</time>
      </trkpt>
      <trkpt lat="44.74677" lon="6.86292">
        <ele>2377.3</ele>
        <time>2026-03-23T12:40:14Z</time>
      </trkpt>
      <trkpt lat="44.74677" lon="6.86292">
        <ele>2377.3</ele>
        <time>2026-03-23T12:40:15Z</time>
      </trkpt>
      <trkpt lat="44.74677" lon="6.86292">
        <ele>2377.3</ele>
        <time>2026-03-23T12:40:16Z</time>
      </trkpt>
      <trkpt lat="44.74677" lon="6.86292">
        <ele>2377.3</ele>
        <time>2026-03-23T12:40:17Z</time>
      </trkpt>
      <trkpt lat="44.74677" lon="6.86292">
        <ele>2377.2</ele>
        <time>2026-03-23T12:40:18Z</time>
      </trkpt>
      <trkpt lat="44.74678" lon="6.86292">
        <ele>2377.2</ele>
        <time>2026-03-23T12:40:19Z</time>
      </trkpt>
      <trkpt lat="44.74678" lon="6.86292">
        <ele>2377.2</ele>
        <time>2026-03-23T12:40:20Z</time>
      </trkpt>
      <trkpt lat="44.74678" lon="6.86292">
        <ele>2377.2</ele>
        <time>2026-03-23T12:40:21Z</time>
      </trkpt>
      <trkpt lat="44.74678" lon="6.86292">
        <ele>2377.2</ele>
        <time>2026-03-23T12:40:22Z</time>
      </trkpt>
      <trkpt lat="44.74678" lon="6.86292">
        <ele>2377.2</ele>
        <time>2026-03-23T12:40:23Z</time>
      </trkpt>
      <trkpt lat="44.74678" lon="6.86292">
        <ele>2377.2</ele>
        <time>2026-03-23T12:40:24Z</time>
      </trkpt>
      <trkpt lat="44.74678" lon="6.86292">
        <ele>2377.2</ele>
        <time>2026-03-23T12:40:25Z</time>
      </trkpt>
      <trkpt lat="44.74678" lon="6.86292">
        <ele>2377.2</ele>
        <time>2026-03-23T12:40:26Z</time>
      </trkpt>
      <trkpt lat="44.74678" lon="6.86292">
        <ele>2377.1</ele>
        <time>2026-03-23T12:40:27Z</time>
      </trkpt>
      <trkpt lat="44.74678" lon="6.86292">
        <ele>2377.1</ele>
        <time>2026-03-23T12:40:28Z</time>
      </trkpt>
      <trkpt lat="44.74678" lon="6.86292">
        <ele>2377.1</ele>
        <time>2026-03-23T12:40:29Z</time>
      </trkpt>
      <trkpt lat="44.74678" lon="6.86292">
        <ele>2377.1</ele>
        <time>2026-03-23T12:40:30Z</time>
      </trkpt>
      <trkpt lat="44.74678" lon="6.86292">
        <ele>2377.1</ele>
        <time>2026-03-23T12:40:31Z</time>
      </trkpt>
      <trkpt lat="44.74678" lon="6.86292">
        <ele>2377.1</ele>
        <time>2026-03-23T12:40:32Z</time>
      </trkpt>
      <trkpt lat="44.74678" lon="6.86292">
        <ele>2377.1</ele>
        <time>2026-03-23T12:40:33Z</time>
      </trkpt>
      <trkpt lat="44.74678" lon="6.86292">
        <ele>2377.1</ele>
        <time>2026-03-23T12:40:34Z</time>
      </trkpt>
      <trkpt lat="44.74678" lon="6.86292">
        <ele>2377.1</ele>
        <time>2026-03-23T12:40:35Z</time>
      </trkpt>
      <trkpt lat="44.74678" lon="6.86292">
        <ele>2377</ele>
        <time>2026-03-23T12:40:36Z</time>
      </trkpt>
      <trkpt lat="44.74678" lon="6.86292">
        <ele>2377</ele>
        <time>2026-03-23T12:40:37Z</time>
      </trkpt>
      <trkpt lat="44.74678" lon="6.86292">
        <ele>2377</ele>
        <time>2026-03-23T12:40:38Z</time>
      </trkpt>
      <trkpt lat="44.74678" lon="6.86292">
        <ele>2377</ele>
        <time>2026-03-23T12:40:39Z</time>
      </trkpt>
      <trkpt lat="44.74678" lon="6.86292">
        <ele>2377</ele>
        <time>2026-03-23T12:40:40Z</time>
      </trkpt>
      <trkpt lat="44.74678" lon="6.86292">
        <ele>2377</ele>
        <time>2026-03-23T12:40:41Z</time>
      </trkpt>
      <trkpt lat="44.74678" lon="6.86292">
        <ele>2377</ele>
        <time>2026-03-23T12:40:42Z</time>
      </trkpt>
      <trkpt lat="44.74678" lon="6.86292">
        <ele>2377</ele>
        <time>2026-03-23T12:40:43Z</time>
      </trkpt>
      <trkpt lat="44.74678" lon="6.86292">
        <ele>2377</ele>
        <time>2026-03-23T12:40:44Z</time>
      </trkpt>
      <trkpt lat="44.74678" lon="6.86292">
        <ele>2376.9</ele>
        <time>2026-03-23T12:40:45Z</time>
      </trkpt>
      <trkpt lat="44.74678" lon="6.86292">
        <ele>2376.9</ele>
        <time>2026-03-23T12:40:46Z</time>
      </trkpt>
      <trkpt lat="44.74678" lon="6.86292">
        <ele>2376.9</ele>
        <time>2026-03-23T12:40:47Z</time>
      </trkpt>
      <trkpt lat="44.74678" lon="6.86292">
        <ele>2376.9</ele>
        <time>2026-03-23T12:40:48Z</time>
      </trkpt>
      <trkpt lat="44.74678" lon="6.86292">
        <ele>2376.9</ele>
        <time>2026-03-23T12:40:49Z</time>
      </trkpt>
      <trkpt lat="44.74678" lon="6.86292">
        <ele>2376.9</ele>
        <time>2026-03-23T12:40:50Z</time>
      </trkpt>
      <trkpt lat="44.74678" lon="6.86292">
        <ele>2376.9</ele>
        <time>2026-03-23T12:40:51Z</time>
      </trkpt>
      <trkpt lat="44.74678" lon="6.86292">
        <ele>2376.9</ele>
        <time>2026-03-23T12:40:52Z</time>
      </trkpt>
      <trkpt lat="44.74678" lon="6.86292">
        <ele>2376.9</ele>
        <time>2026-03-23T12:40:53Z</time>
      </trkpt>
      <trkpt lat="44.74678" lon="6.86292">
        <ele>2376.8</ele>
        <time>2026-03-23T12:40:54Z</time>
      </trkpt>
      <trkpt lat="44.74678" lon="6.86292">
        <ele>2376.8</ele>
        <time>2026-03-23T12:40:55Z</time>
      </trkpt>
      <trkpt lat="44.74678" lon="6.86292">
        <ele>2376.8</ele>
        <time>2026-03-23T12:40:56Z</time>
      </trkpt>
      <trkpt lat="44.74678" lon="6.86292">
        <ele>2376.8</ele>
        <time>2026-03-23T12:40:57Z</time>
      </trkpt>
      <trkpt lat="44.74677" lon="6.86292">
        <ele>2376.8</ele>
        <time>2026-03-23T12:40:58Z</time>
      </trkpt>
      <trkpt lat="44.74677" lon="6.86292">
        <ele>2376.8</ele>
        <time>2026-03-23T12:40:59Z</time>
      </trkpt>
      <trkpt lat="44.74677" lon="6.86292">
        <ele>2376.8</ele>
        <time>2026-03-23T12:41:00Z</time>
      </trkpt>
      <trkpt lat="44.74677" lon="6.86292">
        <ele>2376.8</ele>
        <time>2026-03-23T12:41:01Z</time>
      </trkpt>
      <trkpt lat="44.74677" lon="6.86292">
        <ele>2376.8</ele>
        <time>2026-03-23T12:41:02Z</time>
      </trkpt>
      <trkpt lat="44.74677" lon="6.86292">
        <ele>2376.7</ele>
        <time>2026-03-23T12:41:03Z</time>
      </trkpt>
      <trkpt lat="44.74677" lon="6.86292">
        <ele>2376.7</ele>
        <time>2026-03-23T12:41:04Z</time>
      </trkpt>
      <trkpt lat="44.74677" lon="6.86292">
        <ele>2376.7</ele>
        <time>2026-03-23T12:41:05Z</time>
      </trkpt>
      <trkpt lat="44.74677" lon="6.86292">
        <ele>2376.7</ele>
        <time>2026-03-23T12:41:06Z</time>
      </trkpt>
      <trkpt lat="44.74677" lon="6.86292">
        <ele>2376.7</ele>
        <time>2026-03-23T12:41:07Z</time>
      </trkpt>
      <trkpt lat="44.74677" lon="6.86292">
        <ele>2376.7</ele>
        <time>2026-03-23T12:41:08Z</time>
      </trkpt>
      <trkpt lat="44.74677" lon="6.86291">
        <ele>2376.7</ele>
        <time>2026-03-23T12:41:09Z</time>
      </trkpt>
      <trkpt lat="44.74677" lon="6.86291">
        <ele>2376.7</ele>
        <time>2026-03-23T12:41:10Z</time>
      </trkpt>
      <trkpt lat="44.74678" lon="6.8629">
        <ele>2376.7</ele>
        <time>2026-03-23T12:41:11Z</time>
      </trkpt>
      <trkpt lat="44.74678" lon="6.8629">
        <ele>2376.6</ele>
        <time>2026-03-23T12:41:12Z</time>
      </trkpt>
      <trkpt lat="44.74678" lon="6.8629">
        <ele>2376.6</ele>
        <time>2026-03-23T12:41:13Z</time>
      </trkpt>
      <trkpt lat="44.74678" lon="6.86289">
        <ele>2375.6</ele>
        <time>2026-03-23T12:41:14Z</time>
      </trkpt>
      <trkpt lat="44.74678" lon="6.86288">
        <ele>2375.6</ele>
        <time>2026-03-23T12:41:15Z</time>
      </trkpt>
      <trkpt lat="44.74678" lon="6.86287">
        <ele>2375.6</ele>
        <time>2026-03-23T12:41:16Z</time>
      </trkpt>
      <trkpt lat="44.74679" lon="6.86285">
        <ele>2374.6</ele>
        <time>2026-03-23T12:41:17Z</time>
      </trkpt>
      <trkpt lat="44.7468" lon="6.86283">
        <ele>2374.8</ele>
        <time>2026-03-23T12:41:18Z</time>
      </trkpt>
      <trkpt lat="44.74681" lon="6.86279">
        <ele>2373.8</ele>
        <time>2026-03-23T12:41:19Z</time>
      </trkpt>
      <trkpt lat="44.74682" lon="6.86278">
        <ele>2373.8</ele>
        <time>2026-03-23T12:41:20Z</time>
      </trkpt>
      <trkpt lat="44.74684" lon="6.86274">
        <ele>2373.1</ele>
        <time>2026-03-23T12:41:21Z</time>
      </trkpt>
      <trkpt lat="44.74684" lon="6.86272">
        <ele>2373.1</ele>
        <time>2026-03-23T12:41:22Z</time>
      </trkpt>
      <trkpt lat="44.74686" lon="6.86267">
        <ele>2371.5</ele>
        <time>2026-03-23T12:41:23Z</time>
      </trkpt>
      <trkpt lat="44.74687" lon="6.86265">
        <ele>2371.5</ele>
        <time>2026-03-23T12:41:24Z</time>
      </trkpt>
      <trkpt lat="44.74688" lon="6.8626">
        <ele>2370.6</ele>
        <time>2026-03-23T12:41:25Z</time>
      </trkpt>
      <trkpt lat="44.7469" lon="6.86255">
        <ele>2370</ele>
        <time>2026-03-23T12:41:26Z</time>
      </trkpt>
      <trkpt lat="44.74688" lon="6.86249">
        <ele>2367.5</ele>
        <time>2026-03-23T12:41:27Z</time>
      </trkpt>
      <trkpt lat="44.74688" lon="6.86242">
        <ele>2365.6</ele>
        <time>2026-03-23T12:41:28Z</time>
      </trkpt>
      <trkpt lat="44.7469" lon="6.86236">
        <ele>2365.2</ele>
        <time>2026-03-23T12:41:29Z</time>
      </trkpt>
      <trkpt lat="44.74688" lon="6.86231">
        <ele>2364</ele>
        <time>2026-03-23T12:41:30Z</time>
      </trkpt>
      <trkpt lat="44.74688" lon="6.86225">
        <ele>2363.2</ele>
        <time>2026-03-23T12:41:31Z</time>
      </trkpt>
      <trkpt lat="44.74687" lon="6.8622">
        <ele>2361.7</ele>
        <time>2026-03-23T12:41:32Z</time>
      </trkpt>
      <trkpt lat="44.74683" lon="6.86217">
        <ele>2361.3</ele>
        <time>2026-03-23T12:41:33Z</time>
      </trkpt>
      <trkpt lat="44.74684" lon="6.86211">
        <ele>2359.8</ele>
        <time>2026-03-23T12:41:34Z</time>
      </trkpt>
      <trkpt lat="44.74683" lon="6.86206">
        <ele>2359</ele>
        <time>2026-03-23T12:41:35Z</time>
      </trkpt>
      <trkpt lat="44.7468" lon="6.86198">
        <ele>2357.1</ele>
        <time>2026-03-23T12:41:36Z</time>
      </trkpt>
      <trkpt lat="44.74682" lon="6.86191">
        <ele>2356.3</ele>
        <time>2026-03-23T12:41:37Z</time>
      </trkpt>
      <trkpt lat="44.74682" lon="6.86185">
        <ele>2354.8</ele>
        <time>2026-03-23T12:41:38Z</time>
      </trkpt>
      <trkpt lat="44.74682" lon="6.86178">
        <ele>2353.3</ele>
        <time>2026-03-23T12:41:39Z</time>
      </trkpt>
      <trkpt lat="44.74681" lon="6.86172">
        <ele>2352.5</ele>
        <time>2026-03-23T12:41:40Z</time>
      </trkpt>
      <trkpt lat="44.7468" lon="6.86164">
        <ele>2350.7</ele>
        <time>2026-03-23T12:41:41Z</time>
      </trkpt>
      <trkpt lat="44.74679" lon="6.86158">
        <ele>2349.5</ele>
        <time>2026-03-23T12:41:42Z</time>
      </trkpt>
      <trkpt lat="44.74677" lon="6.86152">
        <ele>2348.7</ele>
        <time>2026-03-23T12:41:43Z</time>
      </trkpt>
      <trkpt lat="44.74678" lon="6.86152">
        <ele>2347.9</ele>
        <time>2026-03-23T12:41:44Z</time>
      </trkpt>
      <trkpt lat="44.74678" lon="6.86151">
        <ele>2347.9</ele>
        <time>2026-03-23T12:41:45Z</time>
      </trkpt>
      <trkpt lat="44.74678" lon="6.86151">
        <ele>2347.9</ele>
        <time>2026-03-23T12:41:46Z</time>
      </trkpt>
      <trkpt lat="44.74678" lon="6.86151">
        <ele>2347.9</ele>
        <time>2026-03-23T12:41:47Z</time>
      </trkpt>
      <trkpt lat="44.74678" lon="6.8615">
        <ele>2347.9</ele>
        <time>2026-03-23T12:41:48Z</time>
      </trkpt>
      <trkpt lat="44.74678" lon="6.86149">
        <ele>2347.9</ele>
        <time>2026-03-23T12:41:49Z</time>
      </trkpt>
      <trkpt lat="44.74677" lon="6.86148">
        <ele>2347.8</ele>
        <time>2026-03-23T12:41:50Z</time>
      </trkpt>
      <trkpt lat="44.74677" lon="6.86147">
        <ele>2347.1</ele>
        <time>2026-03-23T12:41:51Z</time>
      </trkpt>
      <trkpt lat="44.74677" lon="6.86146">
        <ele>2347.1</ele>
        <time>2026-03-23T12:41:52Z</time>
      </trkpt>
      <trkpt lat="44.74677" lon="6.86146">
        <ele>2347.1</ele>
        <time>2026-03-23T12:41:53Z</time>
      </trkpt>
      <trkpt lat="44.74677" lon="6.86145">
        <ele>2347.1</ele>
        <time>2026-03-23T12:41:54Z</time>
      </trkpt>
      <trkpt lat="44.74677" lon="6.86144">
        <ele>2347.1</ele>
        <time>2026-03-23T12:41:55Z</time>
      </trkpt>
      <trkpt lat="44.74677" lon="6.86144">
        <ele>2347.1</ele>
        <time>2026-03-23T12:41:56Z</time>
      </trkpt>
      <trkpt lat="44.74677" lon="6.86143">
        <ele>2346.4</ele>
        <time>2026-03-23T12:41:57Z</time>
      </trkpt>
      <trkpt lat="44.74677" lon="6.86142">
        <ele>2346.4</ele>
        <time>2026-03-23T12:41:58Z</time>
      </trkpt>
      <trkpt lat="44.74676" lon="6.86138">
        <ele>2345.4</ele>
        <time>2026-03-23T12:41:59Z</time>
      </trkpt>
      <trkpt lat="44.74671" lon="6.86134">
        <ele>2344.1</ele>
        <time>2026-03-23T12:42:00Z</time>
      </trkpt>
      <trkpt lat="44.74668" lon="6.86129">
        <ele>2343.2</ele>
        <time>2026-03-23T12:42:01Z</time>
      </trkpt>
      <trkpt lat="44.74665" lon="6.86122">
        <ele>2341.6</ele>
        <time>2026-03-23T12:42:02Z</time>
      </trkpt>
      <trkpt lat="44.74661" lon="6.86118">
        <ele>2341</ele>
        <time>2026-03-23T12:42:03Z</time>
      </trkpt>
      <trkpt lat="44.74658" lon="6.86113">
        <ele>2339.6</ele>
        <time>2026-03-23T12:42:04Z</time>
      </trkpt>
      <trkpt lat="44.74658" lon="6.86111">
        <ele>2339.3</ele>
        <time>2026-03-23T12:42:05Z</time>
      </trkpt>
      <trkpt lat="44.74657" lon="6.86113">
        <ele>2339.3</ele>
        <time>2026-03-23T12:42:06Z</time>
      </trkpt>
      <trkpt lat="44.74656" lon="6.86112">
        <ele>2339.3</ele>
        <time>2026-03-23T12:42:07Z</time>
      </trkpt>
      <trkpt lat="44.74656" lon="6.86112">
        <ele>2339.2</ele>
        <time>2026-03-23T12:42:08Z</time>
      </trkpt>
      <trkpt lat="44.74656" lon="6.86112">
        <ele>2339.2</ele>
        <time>2026-03-23T12:42:09Z</time>
      </trkpt>
      <trkpt lat="44.74656" lon="6.86112">
        <ele>2339.2</ele>
        <time>2026-03-23T12:42:10Z</time>
      </trkpt>
      <trkpt lat="44.74656" lon="6.86112">
        <ele>2339.2</ele>
        <time>2026-03-23T12:42:11Z</time>
      </trkpt>
      <trkpt lat="44.74655" lon="6.86111">
        <ele>2339.2</ele>
        <time>2026-03-23T12:42:12Z</time>
      </trkpt>
      <trkpt lat="44.74655" lon="6.86111">
        <ele>2339.2</ele>
        <time>2026-03-23T12:42:13Z</time>
      </trkpt>
      <trkpt lat="44.74656" lon="6.86112">
        <ele>2339.2</ele>
        <time>2026-03-23T12:42:14Z</time>
      </trkpt>
      <trkpt lat="44.74656" lon="6.86112">
        <ele>2339.2</ele>
        <time>2026-03-23T12:42:15Z</time>
      </trkpt>
      <trkpt lat="44.74657" lon="6.86113">
        <ele>2339.2</ele>
        <time>2026-03-23T12:42:16Z</time>
      </trkpt>
      <trkpt lat="44.74657" lon="6.86113">
        <ele>2339.1</ele>
        <time>2026-03-23T12:42:17Z</time>
      </trkpt>
      <trkpt lat="44.74657" lon="6.86113">
        <ele>2339.1</ele>
        <time>2026-03-23T12:42:18Z</time>
      </trkpt>
      <trkpt lat="44.74657" lon="6.86113">
        <ele>2339.1</ele>
        <time>2026-03-23T12:42:19Z</time>
      </trkpt>
      <trkpt lat="44.74657" lon="6.86113">
        <ele>2339.1</ele>
        <time>2026-03-23T12:42:20Z</time>
      </trkpt>
      <trkpt lat="44.74657" lon="6.86113">
        <ele>2339.1</ele>
        <time>2026-03-23T12:42:21Z</time>
      </trkpt>
      <trkpt lat="44.74657" lon="6.86113">
        <ele>2339.1</ele>
        <time>2026-03-23T12:42:22Z</time>
      </trkpt>
      <trkpt lat="44.74657" lon="6.86113">
        <ele>2339.1</ele>
        <time>2026-03-23T12:42:23Z</time>
      </trkpt>
      <trkpt lat="44.74657" lon="6.86113">
        <ele>2339.1</ele>
        <time>2026-03-23T12:42:24Z</time>
      </trkpt>
      <trkpt lat="44.74657" lon="6.86113">
        <ele>2339.1</ele>
        <time>2026-03-23T12:42:25Z</time>
      </trkpt>
      <trkpt lat="44.74657" lon="6.86113">
        <ele>2339</ele>
        <time>2026-03-23T12:42:26Z</time>
      </trkpt>
      <trkpt lat="44.74657" lon="6.86113">
        <ele>2339</ele>
        <time>2026-03-23T12:42:27Z</time>
      </trkpt>
      <trkpt lat="44.74657" lon="6.86113">
        <ele>2339</ele>
        <time>2026-03-23T12:42:28Z</time>
      </trkpt>
      <trkpt lat="44.74657" lon="6.86113">
        <ele>2339</ele>
        <time>2026-03-23T12:42:29Z</time>
      </trkpt>
      <trkpt lat="44.74657" lon="6.86113">
        <ele>2339</ele>
        <time>2026-03-23T12:42:30Z</time>
      </trkpt>
      <trkpt lat="44.74657" lon="6.86113">
        <ele>2339</ele>
        <time>2026-03-23T12:42:31Z</time>
      </trkpt>
      <trkpt lat="44.74657" lon="6.86113">
        <ele>2339</ele>
        <time>2026-03-23T12:42:32Z</time>
      </trkpt>
      <trkpt lat="44.74657" lon="6.86113">
        <ele>2339</ele>
        <time>2026-03-23T12:42:33Z</time>
      </trkpt>
      <trkpt lat="44.74657" lon="6.86113">
        <ele>2339</ele>
        <time>2026-03-23T12:42:34Z</time>
      </trkpt>
      <trkpt lat="44.74657" lon="6.86113">
        <ele>2338.9</ele>
        <time>2026-03-23T12:42:35Z</time>
      </trkpt>
      <trkpt lat="44.74657" lon="6.86113">
        <ele>2338.9</ele>
        <time>2026-03-23T12:42:36Z</time>
      </trkpt>
      <trkpt lat="44.74657" lon="6.86113">
        <ele>2338.9</ele>
        <time>2026-03-23T12:42:37Z</time>
      </trkpt>
      <trkpt lat="44.74657" lon="6.86113">
        <ele>2338.9</ele>
        <time>2026-03-23T12:42:38Z</time>
      </trkpt>
      <trkpt lat="44.74656" lon="6.86113">
        <ele>2338.9</ele>
        <time>2026-03-23T12:42:39Z</time>
      </trkpt>
      <trkpt lat="44.74656" lon="6.86113">
        <ele>2339.6</ele>
        <time>2026-03-23T12:42:40Z</time>
      </trkpt>
      <trkpt lat="44.74656" lon="6.86114">
        <ele>2339.6</ele>
        <time>2026-03-23T12:42:41Z</time>
      </trkpt>
      <trkpt lat="44.74656" lon="6.86113">
        <ele>2339.5</ele>
        <time>2026-03-23T12:42:42Z</time>
      </trkpt>
      <trkpt lat="44.74656" lon="6.86113">
        <ele>2338.9</ele>
        <time>2026-03-23T12:42:43Z</time>
      </trkpt>
      <trkpt lat="44.74655" lon="6.86112">
        <ele>2338.8</ele>
        <time>2026-03-23T12:42:44Z</time>
      </trkpt>
      <trkpt lat="44.74655" lon="6.86112">
        <ele>2338.8</ele>
        <time>2026-03-23T12:42:45Z</time>
      </trkpt>
      <trkpt lat="44.74655" lon="6.86112">
        <ele>2338.8</ele>
        <time>2026-03-23T12:42:46Z</time>
      </trkpt>
      <trkpt lat="44.74655" lon="6.86113">
        <ele>2338.8</ele>
        <time>2026-03-23T12:42:47Z</time>
      </trkpt>
      <trkpt lat="44.74655" lon="6.86113">
        <ele>2338.8</ele>
        <time>2026-03-23T12:42:48Z</time>
      </trkpt>
      <trkpt lat="44.74655" lon="6.86114">
        <ele>2339.5</ele>
        <time>2026-03-23T12:42:49Z</time>
      </trkpt>
      <trkpt lat="44.74655" lon="6.86114">
        <ele>2339.5</ele>
        <time>2026-03-23T12:42:50Z</time>
      </trkpt>
      <trkpt lat="44.74655" lon="6.86114">
        <ele>2339.4</ele>
        <time>2026-03-23T12:42:51Z</time>
      </trkpt>
      <trkpt lat="44.74655" lon="6.86114">
        <ele>2339.4</ele>
        <time>2026-03-23T12:42:52Z</time>
      </trkpt>
      <trkpt lat="44.74655" lon="6.86113">
        <ele>2338.4</ele>
        <time>2026-03-23T12:42:53Z</time>
      </trkpt>
      <trkpt lat="44.74654" lon="6.86113">
        <ele>2338.4</ele>
        <time>2026-03-23T12:42:54Z</time>
      </trkpt>
      <trkpt lat="44.74652" lon="6.86112">
        <ele>2338.4</ele>
        <time>2026-03-23T12:42:55Z</time>
      </trkpt>
      <trkpt lat="44.74648" lon="6.8611">
        <ele>2337.8</ele>
        <time>2026-03-23T12:42:56Z</time>
      </trkpt>
      <trkpt lat="44.74647" lon="6.86109">
        <ele>2337</ele>
        <time>2026-03-23T12:42:57Z</time>
      </trkpt>
      <trkpt lat="44.74642" lon="6.86108">
        <ele>2336.3</ele>
        <time>2026-03-23T12:42:58Z</time>
      </trkpt>
      <trkpt lat="44.74636" lon="6.86107">
        <ele>2335.6</ele>
        <time>2026-03-23T12:42:59Z</time>
      </trkpt>
      <trkpt lat="44.74631" lon="6.86104">
        <ele>2334.6</ele>
        <time>2026-03-23T12:43:00Z</time>
      </trkpt>
      <trkpt lat="44.74628" lon="6.861">
        <ele>2333.6</ele>
        <time>2026-03-23T12:43:01Z</time>
      </trkpt>
      <trkpt lat="44.74625" lon="6.86097">
        <ele>2333.4</ele>
        <time>2026-03-23T12:43:02Z</time>
      </trkpt>
      <trkpt lat="44.74622" lon="6.86092">
        <ele>2332.5</ele>
        <time>2026-03-23T12:43:03Z</time>
      </trkpt>
      <trkpt lat="44.74618" lon="6.86087">
        <ele>2330.6</ele>
        <time>2026-03-23T12:43:04Z</time>
      </trkpt>
      <trkpt lat="44.74615" lon="6.86082">
        <ele>2329.6</ele>
        <time>2026-03-23T12:43:05Z</time>
      </trkpt>
      <trkpt lat="44.74612" lon="6.86077">
        <ele>2328.5</ele>
        <time>2026-03-23T12:43:06Z</time>
      </trkpt>
      <trkpt lat="44.74609" lon="6.86072">
        <ele>2327.4</ele>
        <time>2026-03-23T12:43:07Z</time>
      </trkpt>
      <trkpt lat="44.74605" lon="6.86067">
        <ele>2326.2</ele>
        <time>2026-03-23T12:43:08Z</time>
      </trkpt>
      <trkpt lat="44.74603" lon="6.86061">
        <ele>2324.1</ele>
        <time>2026-03-23T12:43:09Z</time>
      </trkpt>
      <trkpt lat="44.74604" lon="6.86055">
        <ele>2323.3</ele>
        <time>2026-03-23T12:43:10Z</time>
      </trkpt>
      <trkpt lat="44.74602" lon="6.86048">
        <ele>2321.2</ele>
        <time>2026-03-23T12:43:11Z</time>
      </trkpt>
      <trkpt lat="44.74602" lon="6.86041">
        <ele>2320.2</ele>
        <time>2026-03-23T12:43:12Z</time>
      </trkpt>
      <trkpt lat="44.74603" lon="6.86034">
        <ele>2318.2</ele>
        <time>2026-03-23T12:43:13Z</time>
      </trkpt>
      <trkpt lat="44.74599" lon="6.86027">
        <ele>2315.7</ele>
        <time>2026-03-23T12:43:14Z</time>
      </trkpt>
      <trkpt lat="44.746" lon="6.86021">
        <ele>2314.6</ele>
        <time>2026-03-23T12:43:15Z</time>
      </trkpt>
      <trkpt lat="44.74597" lon="6.86016">
        <ele>2313.6</ele>
        <time>2026-03-23T12:43:16Z</time>
      </trkpt>
      <trkpt lat="44.74594" lon="6.86013">
        <ele>2312</ele>
        <time>2026-03-23T12:43:17Z</time>
      </trkpt>
      <trkpt lat="44.74591" lon="6.86008">
        <ele>2311</ele>
        <time>2026-03-23T12:43:18Z</time>
      </trkpt>
      <trkpt lat="44.74588" lon="6.86003">
        <ele>2309.8</ele>
        <time>2026-03-23T12:43:19Z</time>
      </trkpt>
      <trkpt lat="44.74587" lon="6.85997">
        <ele>2307.6</ele>
        <time>2026-03-23T12:43:20Z</time>
      </trkpt>
      <trkpt lat="44.74589" lon="6.85991">
        <ele>2306.8</ele>
        <time>2026-03-23T12:43:21Z</time>
      </trkpt>
      <trkpt lat="44.74587" lon="6.85988">
        <ele>2305.5</ele>
        <time>2026-03-23T12:43:22Z</time>
      </trkpt>
      <trkpt lat="44.74585" lon="6.85982">
        <ele>2304.4</ele>
        <time>2026-03-23T12:43:23Z</time>
      </trkpt>
      <trkpt lat="44.74585" lon="6.85979">
        <ele>2303.3</ele>
        <time>2026-03-23T12:43:24Z</time>
      </trkpt>
      <trkpt lat="44.74583" lon="6.85974">
        <ele>2301.9</ele>
        <time>2026-03-23T12:43:25Z</time>
      </trkpt>
      <trkpt lat="44.74582" lon="6.85968">
        <ele>2300.9</ele>
        <time>2026-03-23T12:43:26Z</time>
      </trkpt>
      <trkpt lat="44.74582" lon="6.85963">
        <ele>2298.5</ele>
        <time>2026-03-23T12:43:27Z</time>
      </trkpt>
      <trkpt lat="44.74579" lon="6.85965">
        <ele>2299.5</ele>
        <time>2026-03-23T12:43:28Z</time>
      </trkpt>
      <trkpt lat="44.74576" lon="6.85964">
        <ele>2299.2</ele>
        <time>2026-03-23T12:43:29Z</time>
      </trkpt>
      <trkpt lat="44.74575" lon="6.85964">
        <ele>2298.9</ele>
        <time>2026-03-23T12:43:30Z</time>
      </trkpt>
      <trkpt lat="44.74574" lon="6.85965">
        <ele>2298.9</ele>
        <time>2026-03-23T12:43:31Z</time>
      </trkpt>
      <trkpt lat="44.74574" lon="6.85965">
        <ele>2298.9</ele>
        <time>2026-03-23T12:43:32Z</time>
      </trkpt>
      <trkpt lat="44.74573" lon="6.85965">
        <ele>2298.8</ele>
        <time>2026-03-23T12:43:33Z</time>
      </trkpt>
      <trkpt lat="44.74573" lon="6.85965">
        <ele>2298.8</ele>
        <time>2026-03-23T12:43:34Z</time>
      </trkpt>
      <trkpt lat="44.74573" lon="6.85965">
        <ele>2298.5</ele>
        <time>2026-03-23T12:43:35Z</time>
      </trkpt>
      <trkpt lat="44.74572" lon="6.85965">
        <ele>2298.5</ele>
        <time>2026-03-23T12:43:36Z</time>
      </trkpt>
      <trkpt lat="44.74572" lon="6.85965">
        <ele>2298.5</ele>
        <time>2026-03-23T12:43:37Z</time>
      </trkpt>
      <trkpt lat="44.74572" lon="6.85964">
        <ele>2298.5</ele>
        <time>2026-03-23T12:43:38Z</time>
      </trkpt>
      <trkpt lat="44.74572" lon="6.85964">
        <ele>2298.5</ele>
        <time>2026-03-23T12:43:39Z</time>
      </trkpt>
      <trkpt lat="44.74572" lon="6.85964">
        <ele>2298.5</ele>
        <time>2026-03-23T12:43:40Z</time>
      </trkpt>
      <trkpt lat="44.74572" lon="6.85964">
        <ele>2298.4</ele>
        <time>2026-03-23T12:43:41Z</time>
      </trkpt>
      <trkpt lat="44.74571" lon="6.85964">
        <ele>2298.4</ele>
        <time>2026-03-23T12:43:42Z</time>
      </trkpt>
      <trkpt lat="44.74571" lon="6.85964">
        <ele>2298.4</ele>
        <time>2026-03-23T12:43:43Z</time>
      </trkpt>
      <trkpt lat="44.74571" lon="6.85965">
        <ele>2298.4</ele>
        <time>2026-03-23T12:43:44Z</time>
      </trkpt>
      <trkpt lat="44.74571" lon="6.85965">
        <ele>2298.4</ele>
        <time>2026-03-23T12:43:45Z</time>
      </trkpt>
      <trkpt lat="44.74571" lon="6.85965">
        <ele>2298.4</ele>
        <time>2026-03-23T12:43:46Z</time>
      </trkpt>
      <trkpt lat="44.74571" lon="6.85965">
        <ele>2298.4</ele>
        <time>2026-03-23T12:43:47Z</time>
      </trkpt>
      <trkpt lat="44.74571" lon="6.85965">
        <ele>2298.4</ele>
        <time>2026-03-23T12:43:48Z</time>
      </trkpt>
      <trkpt lat="44.74571" lon="6.85965">
        <ele>2298.4</ele>
        <time>2026-03-23T12:43:49Z</time>
      </trkpt>
      <trkpt lat="44.74571" lon="6.85965">
        <ele>2298.3</ele>
        <time>2026-03-23T12:43:50Z</time>
      </trkpt>
      <trkpt lat="44.74571" lon="6.85965">
        <ele>2298.3</ele>
        <time>2026-03-23T12:43:51Z</time>
      </trkpt>
      <trkpt lat="44.74571" lon="6.85965">
        <ele>2298.3</ele>
        <time>2026-03-23T12:43:52Z</time>
      </trkpt>
      <trkpt lat="44.74571" lon="6.85965">
        <ele>2298.3</ele>
        <time>2026-03-23T12:43:53Z</time>
      </trkpt>
      <trkpt lat="44.74571" lon="6.85965">
        <ele>2298.3</ele>
        <time>2026-03-23T12:43:54Z</time>
      </trkpt>
      <trkpt lat="44.74571" lon="6.85965">
        <ele>2298.3</ele>
        <time>2026-03-23T12:43:55Z</time>
      </trkpt>
      <trkpt lat="44.74571" lon="6.85965">
        <ele>2298.3</ele>
        <time>2026-03-23T12:43:56Z</time>
      </trkpt>
      <trkpt lat="44.74571" lon="6.85965">
        <ele>2298.3</ele>
        <time>2026-03-23T12:43:57Z</time>
      </trkpt>
      <trkpt lat="44.74571" lon="6.85965">
        <ele>2298.3</ele>
        <time>2026-03-23T12:43:58Z</time>
      </trkpt>
      <trkpt lat="44.74571" lon="6.85965">
        <ele>2298.2</ele>
        <time>2026-03-23T12:43:59Z</time>
      </trkpt>
      <trkpt lat="44.74571" lon="6.85965">
        <ele>2298.2</ele>
        <time>2026-03-23T12:44:00Z</time>
      </trkpt>
      <trkpt lat="44.74571" lon="6.85965">
        <ele>2298.2</ele>
        <time>2026-03-23T12:44:01Z</time>
      </trkpt>
      <trkpt lat="44.7457" lon="6.85965">
        <ele>2298.2</ele>
        <time>2026-03-23T12:44:02Z</time>
      </trkpt>
      <trkpt lat="44.7457" lon="6.85965">
        <ele>2298.2</ele>
        <time>2026-03-23T12:44:03Z</time>
      </trkpt>
      <trkpt lat="44.7457" lon="6.85965">
        <ele>2298.2</ele>
        <time>2026-03-23T12:44:04Z</time>
      </trkpt>
      <trkpt lat="44.7457" lon="6.85965">
        <ele>2298.2</ele>
        <time>2026-03-23T12:44:05Z</time>
      </trkpt>
      <trkpt lat="44.7457" lon="6.85965">
        <ele>2298.2</ele>
        <time>2026-03-23T12:44:06Z</time>
      </trkpt>
      <trkpt lat="44.7457" lon="6.85965">
        <ele>2298.2</ele>
        <time>2026-03-23T12:44:07Z</time>
      </trkpt>
      <trkpt lat="44.7457" lon="6.85965">
        <ele>2298.1</ele>
        <time>2026-03-23T12:44:08Z</time>
      </trkpt>
      <trkpt lat="44.7457" lon="6.85965">
        <ele>2298.1</ele>
        <time>2026-03-23T12:44:09Z</time>
      </trkpt>
      <trkpt lat="44.7457" lon="6.85965">
        <ele>2298.1</ele>
        <time>2026-03-23T12:44:10Z</time>
      </trkpt>
      <trkpt lat="44.7457" lon="6.85965">
        <ele>2298.1</ele>
        <time>2026-03-23T12:44:11Z</time>
      </trkpt>
      <trkpt lat="44.7457" lon="6.85965">
        <ele>2298.1</ele>
        <time>2026-03-23T12:44:12Z</time>
      </trkpt>
      <trkpt lat="44.7457" lon="6.85965">
        <ele>2298.1</ele>
        <time>2026-03-23T12:44:13Z</time>
      </trkpt>
      <trkpt lat="44.7457" lon="6.85964">
        <ele>2298.1</ele>
        <time>2026-03-23T12:44:14Z</time>
      </trkpt>
      <trkpt lat="44.74569" lon="6.85964">
        <ele>2297.7</ele>
        <time>2026-03-23T12:44:15Z</time>
      </trkpt>
      <trkpt lat="44.74569" lon="6.85963">
        <ele>2297.7</ele>
        <time>2026-03-23T12:44:16Z</time>
      </trkpt>
      <trkpt lat="44.74568" lon="6.85963">
        <ele>2296.6</ele>
        <time>2026-03-23T12:44:17Z</time>
      </trkpt>
      <trkpt lat="44.74568" lon="6.85962">
        <ele>2296.6</ele>
        <time>2026-03-23T12:44:18Z</time>
      </trkpt>
      <trkpt lat="44.74567" lon="6.85962">
        <ele>2296.6</ele>
        <time>2026-03-23T12:44:19Z</time>
      </trkpt>
      <trkpt lat="44.74566" lon="6.85961">
        <ele>2296.3</ele>
        <time>2026-03-23T12:44:20Z</time>
      </trkpt>
      <trkpt lat="44.74566" lon="6.85961">
        <ele>2296.2</ele>
        <time>2026-03-23T12:44:21Z</time>
      </trkpt>
      <trkpt lat="44.74565" lon="6.85961">
        <ele>2296.2</ele>
        <time>2026-03-23T12:44:22Z</time>
      </trkpt>
      <trkpt lat="44.74564" lon="6.8596">
        <ele>2296.2</ele>
        <time>2026-03-23T12:44:23Z</time>
      </trkpt>
      <trkpt lat="44.74564" lon="6.8596">
        <ele>2295.8</ele>
        <time>2026-03-23T12:44:24Z</time>
      </trkpt>
      <trkpt lat="44.74563" lon="6.85959">
        <ele>2295.8</ele>
        <time>2026-03-23T12:44:25Z</time>
      </trkpt>
      <trkpt lat="44.74563" lon="6.85959">
        <ele>2294.7</ele>
        <time>2026-03-23T12:44:26Z</time>
      </trkpt>
      <trkpt lat="44.74562" lon="6.85958">
        <ele>2294.7</ele>
        <time>2026-03-23T12:44:27Z</time>
      </trkpt>
      <trkpt lat="44.74562" lon="6.85958">
        <ele>2294.7</ele>
        <time>2026-03-23T12:44:28Z</time>
      </trkpt>
      <trkpt lat="44.74562" lon="6.85958">
        <ele>2294.7</ele>
        <time>2026-03-23T12:44:29Z</time>
      </trkpt>
      <trkpt lat="44.74562" lon="6.85957">
        <ele>2294.7</ele>
        <time>2026-03-23T12:44:30Z</time>
      </trkpt>
      <trkpt lat="44.74562" lon="6.85957">
        <ele>2294.6</ele>
        <time>2026-03-23T12:44:31Z</time>
      </trkpt>
      <trkpt lat="44.74562" lon="6.85957">
        <ele>2294.6</ele>
        <time>2026-03-23T12:44:32Z</time>
      </trkpt>
      <trkpt lat="44.74561" lon="6.85957">
        <ele>2294.6</ele>
        <time>2026-03-23T12:44:33Z</time>
      </trkpt>
      <trkpt lat="44.74561" lon="6.85956">
        <ele>2294.6</ele>
        <time>2026-03-23T12:44:34Z</time>
      </trkpt>
      <trkpt lat="44.74561" lon="6.85956">
        <ele>2294.6</ele>
        <time>2026-03-23T12:44:35Z</time>
      </trkpt>
      <trkpt lat="44.74561" lon="6.85956">
        <ele>2294.6</ele>
        <time>2026-03-23T12:44:36Z</time>
      </trkpt>
      <trkpt lat="44.74561" lon="6.85955">
        <ele>2294.6</ele>
        <time>2026-03-23T12:44:37Z</time>
      </trkpt>
      <trkpt lat="44.7456" lon="6.85955">
        <ele>2294.1</ele>
        <time>2026-03-23T12:44:38Z</time>
      </trkpt>
      <trkpt lat="44.7456" lon="6.85955">
        <ele>2294.1</ele>
        <time>2026-03-23T12:44:39Z</time>
      </trkpt>
      <trkpt lat="44.74558" lon="6.85953">
        <ele>2293</ele>
        <time>2026-03-23T12:44:40Z</time>
      </trkpt>
      <trkpt lat="44.74557" lon="6.85952">
        <ele>2292.5</ele>
        <time>2026-03-23T12:44:41Z</time>
      </trkpt>
      <trkpt lat="44.74556" lon="6.85952">
        <ele>2292.5</ele>
        <time>2026-03-23T12:44:42Z</time>
      </trkpt>
      <trkpt lat="44.74554" lon="6.85951">
        <ele>2292</ele>
        <time>2026-03-23T12:44:43Z</time>
      </trkpt>
      <trkpt lat="44.74552" lon="6.85951">
        <ele>2292</ele>
        <time>2026-03-23T12:44:44Z</time>
      </trkpt>
      <trkpt lat="44.74552" lon="6.8595">
        <ele>2292</ele>
        <time>2026-03-23T12:44:45Z</time>
      </trkpt>
      <trkpt lat="44.74552" lon="6.8595">
        <ele>2290.7</ele>
        <time>2026-03-23T12:44:46Z</time>
      </trkpt>
      <trkpt lat="44.74551" lon="6.85949">
        <ele>2290.2</ele>
        <time>2026-03-23T12:44:47Z</time>
      </trkpt>
      <trkpt lat="44.74549" lon="6.85948">
        <ele>2290.2</ele>
        <time>2026-03-23T12:44:48Z</time>
      </trkpt>
      <trkpt lat="44.74548" lon="6.85948">
        <ele>2289.7</ele>
        <time>2026-03-23T12:44:49Z</time>
      </trkpt>
      <trkpt lat="44.74547" lon="6.85947">
        <ele>2289.7</ele>
        <time>2026-03-23T12:44:50Z</time>
      </trkpt>
      <trkpt lat="44.74546" lon="6.85948">
        <ele>2289.7</ele>
        <time>2026-03-23T12:44:51Z</time>
      </trkpt>
      <trkpt lat="44.74545" lon="6.85948">
        <ele>2289.2</ele>
        <time>2026-03-23T12:44:52Z</time>
      </trkpt>
      <trkpt lat="44.74545" lon="6.85948">
        <ele>2289.2</ele>
        <time>2026-03-23T12:44:53Z</time>
      </trkpt>
      <trkpt lat="44.74544" lon="6.85948">
        <ele>2289.2</ele>
        <time>2026-03-23T12:44:54Z</time>
      </trkpt>
      <trkpt lat="44.74543" lon="6.85947">
        <ele>2289.2</ele>
        <time>2026-03-23T12:44:55Z</time>
      </trkpt>
      <trkpt lat="44.74542" lon="6.85947">
        <ele>2288.8</ele>
        <time>2026-03-23T12:44:56Z</time>
      </trkpt>
      <trkpt lat="44.74541" lon="6.85946">
        <ele>2288.8</ele>
        <time>2026-03-23T12:44:57Z</time>
      </trkpt>
      <trkpt lat="44.74539" lon="6.85946">
        <ele>2287</ele>
        <time>2026-03-23T12:44:58Z</time>
      </trkpt>
      <trkpt lat="44.74538" lon="6.85946">
        <ele>2287</ele>
        <time>2026-03-23T12:44:59Z</time>
      </trkpt>
      <trkpt lat="44.74536" lon="6.85946">
        <ele>2286.6</ele>
        <time>2026-03-23T12:45:00Z</time>
      </trkpt>
      <trkpt lat="44.74535" lon="6.85946">
        <ele>2286.6</ele>
        <time>2026-03-23T12:45:01Z</time>
      </trkpt>
      <trkpt lat="44.74534" lon="6.85946">
        <ele>2286.6</ele>
        <time>2026-03-23T12:45:02Z</time>
      </trkpt>
      <trkpt lat="44.74533" lon="6.85946">
        <ele>2287.5</ele>
        <time>2026-03-23T12:45:03Z</time>
      </trkpt>
      <trkpt lat="44.74532" lon="6.85946">
        <ele>2287.5</ele>
        <time>2026-03-23T12:45:04Z</time>
      </trkpt>
      <trkpt lat="44.74531" lon="6.85946">
        <ele>2287.5</ele>
        <time>2026-03-23T12:45:05Z</time>
      </trkpt>
      <trkpt lat="44.7453" lon="6.85947">
        <ele>2287</ele>
        <time>2026-03-23T12:45:06Z</time>
      </trkpt>
      <trkpt lat="44.74529" lon="6.85948">
        <ele>2287</ele>
        <time>2026-03-23T12:45:07Z</time>
      </trkpt>
      <trkpt lat="44.74528" lon="6.85949">
        <ele>2287</ele>
        <time>2026-03-23T12:45:08Z</time>
      </trkpt>
      <trkpt lat="44.74527" lon="6.85949">
        <ele>2286.6</ele>
        <time>2026-03-23T12:45:09Z</time>
      </trkpt>
      <trkpt lat="44.74526" lon="6.85949">
        <ele>2286.6</ele>
        <time>2026-03-23T12:45:10Z</time>
      </trkpt>
      <trkpt lat="44.74525" lon="6.85948">
        <ele>2286.6</ele>
        <time>2026-03-23T12:45:11Z</time>
      </trkpt>
      <trkpt lat="44.74523" lon="6.85947">
        <ele>2286.1</ele>
        <time>2026-03-23T12:45:12Z</time>
      </trkpt>
      <trkpt lat="44.74522" lon="6.85946">
        <ele>2284.8</ele>
        <time>2026-03-23T12:45:13Z</time>
      </trkpt>
      <trkpt lat="44.74521" lon="6.85945">
        <ele>2284.8</ele>
        <time>2026-03-23T12:45:14Z</time>
      </trkpt>
      <trkpt lat="44.7452" lon="6.85946">
        <ele>2284.4</ele>
        <time>2026-03-23T12:45:15Z</time>
      </trkpt>
      <trkpt lat="44.74519" lon="6.85946">
        <ele>2284.4</ele>
        <time>2026-03-23T12:45:16Z</time>
      </trkpt>
      <trkpt lat="44.74518" lon="6.85946">
        <ele>2284.4</ele>
        <time>2026-03-23T12:45:17Z</time>
      </trkpt>
      <trkpt lat="44.74517" lon="6.85946">
        <ele>2284</ele>
        <time>2026-03-23T12:45:18Z</time>
      </trkpt>
      <trkpt lat="44.74516" lon="6.85946">
        <ele>2285.4</ele>
        <time>2026-03-23T12:45:19Z</time>
      </trkpt>
      <trkpt lat="44.74515" lon="6.85947">
        <ele>2285.4</ele>
        <time>2026-03-23T12:45:20Z</time>
      </trkpt>
      <trkpt lat="44.74515" lon="6.85947">
        <ele>2285</ele>
        <time>2026-03-23T12:45:21Z</time>
      </trkpt>
      <trkpt lat="44.74514" lon="6.85948">
        <ele>2285</ele>
        <time>2026-03-23T12:45:22Z</time>
      </trkpt>
      <trkpt lat="44.74513" lon="6.85948">
        <ele>2285</ele>
        <time>2026-03-23T12:45:23Z</time>
      </trkpt>
      <trkpt lat="44.74512" lon="6.85947">
        <ele>2285</ele>
        <time>2026-03-23T12:45:24Z</time>
      </trkpt>
      <trkpt lat="44.74509" lon="6.85942">
        <ele>2283.2</ele>
        <time>2026-03-23T12:45:25Z</time>
      </trkpt>
      <trkpt lat="44.74509" lon="6.85941">
        <ele>2281.8</ele>
        <time>2026-03-23T12:45:26Z</time>
      </trkpt>
      <trkpt lat="44.7451" lon="6.85937">
        <ele>2280.3</ele>
        <time>2026-03-23T12:45:27Z</time>
      </trkpt>
      <trkpt lat="44.7451" lon="6.85936">
        <ele>2280.3</ele>
        <time>2026-03-23T12:45:28Z</time>
      </trkpt>
      <trkpt lat="44.7451" lon="6.85932">
        <ele>2278.9</ele>
        <time>2026-03-23T12:45:29Z</time>
      </trkpt>
      <trkpt lat="44.74512" lon="6.85924">
        <ele>2276.5</ele>
        <time>2026-03-23T12:45:30Z</time>
      </trkpt>
      <trkpt lat="44.74514" lon="6.8592">
        <ele>2275.1</ele>
        <time>2026-03-23T12:45:31Z</time>
      </trkpt>
      <trkpt lat="44.74516" lon="6.85917">
        <ele>2275.5</ele>
        <time>2026-03-23T12:45:32Z</time>
      </trkpt>
      <trkpt lat="44.74518" lon="6.85915">
        <ele>2274.5</ele>
        <time>2026-03-23T12:45:33Z</time>
      </trkpt>
      <trkpt lat="44.74518" lon="6.85913">
        <ele>2274.5</ele>
        <time>2026-03-23T12:45:34Z</time>
      </trkpt>
      <trkpt lat="44.74519" lon="6.85913">
        <ele>2274.5</ele>
        <time>2026-03-23T12:45:35Z</time>
      </trkpt>
      <trkpt lat="44.74519" lon="6.85913">
        <ele>2274.5</ele>
        <time>2026-03-23T12:45:36Z</time>
      </trkpt>
      <trkpt lat="44.74519" lon="6.85913">
        <ele>2274.4</ele>
        <time>2026-03-23T12:45:37Z</time>
      </trkpt>
      <trkpt lat="44.74519" lon="6.85912">
        <ele>2274.4</ele>
        <time>2026-03-23T12:45:38Z</time>
      </trkpt>
      <trkpt lat="44.74519" lon="6.85912">
        <ele>2274.4</ele>
        <time>2026-03-23T12:45:39Z</time>
      </trkpt>
      <trkpt lat="44.74519" lon="6.85912">
        <ele>2274.4</ele>
        <time>2026-03-23T12:45:40Z</time>
      </trkpt>
      <trkpt lat="44.74519" lon="6.85911">
        <ele>2273</ele>
        <time>2026-03-23T12:45:41Z</time>
      </trkpt>
      <trkpt lat="44.74519" lon="6.85911">
        <ele>2273</ele>
        <time>2026-03-23T12:45:42Z</time>
      </trkpt>
      <trkpt lat="44.74519" lon="6.85911">
        <ele>2273</ele>
        <time>2026-03-23T12:45:43Z</time>
      </trkpt>
      <trkpt lat="44.74519" lon="6.85911">
        <ele>2273</ele>
        <time>2026-03-23T12:45:44Z</time>
      </trkpt>
      <trkpt lat="44.74519" lon="6.85911">
        <ele>2273</ele>
        <time>2026-03-23T12:45:45Z</time>
      </trkpt>
      <trkpt lat="44.74518" lon="6.85911">
        <ele>2273</ele>
        <time>2026-03-23T12:45:46Z</time>
      </trkpt>
      <trkpt lat="44.74518" lon="6.8591">
        <ele>2273</ele>
        <time>2026-03-23T12:45:47Z</time>
      </trkpt>
      <trkpt lat="44.74518" lon="6.8591">
        <ele>2272.5</ele>
        <time>2026-03-23T12:45:48Z</time>
      </trkpt>
      <trkpt lat="44.74518" lon="6.8591">
        <ele>2272.5</ele>
        <time>2026-03-23T12:45:49Z</time>
      </trkpt>
      <trkpt lat="44.74517" lon="6.85909">
        <ele>2272.5</ele>
        <time>2026-03-23T12:45:50Z</time>
      </trkpt>
      <trkpt lat="44.74517" lon="6.85909">
        <ele>2272.5</ele>
        <time>2026-03-23T12:45:51Z</time>
      </trkpt>
      <trkpt lat="44.74517" lon="6.85909">
        <ele>2272.5</ele>
        <time>2026-03-23T12:45:52Z</time>
      </trkpt>
      <trkpt lat="44.74517" lon="6.85909">
        <ele>2272.5</ele>
        <time>2026-03-23T12:45:53Z</time>
      </trkpt>
      <trkpt lat="44.74517" lon="6.85909">
        <ele>2272.5</ele>
        <time>2026-03-23T12:45:54Z</time>
      </trkpt>
      <trkpt lat="44.74518" lon="6.85909">
        <ele>2272.5</ele>
        <time>2026-03-23T12:45:55Z</time>
      </trkpt>
      <trkpt lat="44.74517" lon="6.85909">
        <ele>2272.5</ele>
        <time>2026-03-23T12:45:56Z</time>
      </trkpt>
      <trkpt lat="44.74517" lon="6.8591">
        <ele>2272.4</ele>
        <time>2026-03-23T12:45:57Z</time>
      </trkpt>
      <trkpt lat="44.74517" lon="6.85911">
        <ele>2272.4</ele>
        <time>2026-03-23T12:45:58Z</time>
      </trkpt>
      <trkpt lat="44.74516" lon="6.85912">
        <ele>2273.8</ele>
        <time>2026-03-23T12:45:59Z</time>
      </trkpt>
      <trkpt lat="44.74516" lon="6.85911">
        <ele>2272.4</ele>
        <time>2026-03-23T12:46:00Z</time>
      </trkpt>
      <trkpt lat="44.74516" lon="6.85911">
        <ele>2272.4</ele>
        <time>2026-03-23T12:46:01Z</time>
      </trkpt>
      <trkpt lat="44.74516" lon="6.85911">
        <ele>2272.4</ele>
        <time>2026-03-23T12:46:02Z</time>
      </trkpt>
      <trkpt lat="44.74516" lon="6.85911">
        <ele>2272.4</ele>
        <time>2026-03-23T12:46:03Z</time>
      </trkpt>
      <trkpt lat="44.74516" lon="6.85911">
        <ele>2272.4</ele>
        <time>2026-03-23T12:46:04Z</time>
      </trkpt>
      <trkpt lat="44.74516" lon="6.85911">
        <ele>2272.4</ele>
        <time>2026-03-23T12:46:05Z</time>
      </trkpt>
      <trkpt lat="44.74516" lon="6.85911">
        <ele>2272.3</ele>
        <time>2026-03-23T12:46:06Z</time>
      </trkpt>
      <trkpt lat="44.74516" lon="6.85911">
        <ele>2272.3</ele>
        <time>2026-03-23T12:46:07Z</time>
      </trkpt>
      <trkpt lat="44.74516" lon="6.85911">
        <ele>2272.3</ele>
        <time>2026-03-23T12:46:08Z</time>
      </trkpt>
      <trkpt lat="44.74516" lon="6.85911">
        <ele>2272.3</ele>
        <time>2026-03-23T12:46:09Z</time>
      </trkpt>
      <trkpt lat="44.74516" lon="6.85911">
        <ele>2272.3</ele>
        <time>2026-03-23T12:46:10Z</time>
      </trkpt>
      <trkpt lat="44.74516" lon="6.85911">
        <ele>2272.3</ele>
        <time>2026-03-23T12:46:11Z</time>
      </trkpt>
      <trkpt lat="44.74516" lon="6.85911">
        <ele>2272.3</ele>
        <time>2026-03-23T12:46:12Z</time>
      </trkpt>
      <trkpt lat="44.74516" lon="6.85911">
        <ele>2272.3</ele>
        <time>2026-03-23T12:46:13Z</time>
      </trkpt>
      <trkpt lat="44.74516" lon="6.85911">
        <ele>2272.3</ele>
        <time>2026-03-23T12:46:14Z</time>
      </trkpt>
      <trkpt lat="44.74516" lon="6.85911">
        <ele>2272.2</ele>
        <time>2026-03-23T12:46:15Z</time>
      </trkpt>
      <trkpt lat="44.74516" lon="6.85911">
        <ele>2272.2</ele>
        <time>2026-03-23T12:46:16Z</time>
      </trkpt>
      <trkpt lat="44.74516" lon="6.85911">
        <ele>2272.2</ele>
        <time>2026-03-23T12:46:17Z</time>
      </trkpt>
      <trkpt lat="44.74516" lon="6.85911">
        <ele>2272.2</ele>
        <time>2026-03-23T12:46:18Z</time>
      </trkpt>
      <trkpt lat="44.74516" lon="6.85911">
        <ele>2272.2</ele>
        <time>2026-03-23T12:46:19Z</time>
      </trkpt>
      <trkpt lat="44.74516" lon="6.85911">
        <ele>2272.2</ele>
        <time>2026-03-23T12:46:20Z</time>
      </trkpt>
      <trkpt lat="44.74516" lon="6.85911">
        <ele>2272.2</ele>
        <time>2026-03-23T12:46:21Z</time>
      </trkpt>
      <trkpt lat="44.74517" lon="6.85911">
        <ele>2272.2</ele>
        <time>2026-03-23T12:46:22Z</time>
      </trkpt>
      <trkpt lat="44.74517" lon="6.85911">
        <ele>2272.2</ele>
        <time>2026-03-23T12:46:23Z</time>
      </trkpt>
      <trkpt lat="44.74517" lon="6.85911">
        <ele>2272.2</ele>
        <time>2026-03-23T12:46:24Z</time>
      </trkpt>
      <trkpt lat="44.74517" lon="6.85912">
        <ele>2272.1</ele>
        <time>2026-03-23T12:46:25Z</time>
      </trkpt>
      <trkpt lat="44.74517" lon="6.85912">
        <ele>2272.1</ele>
        <time>2026-03-23T12:46:26Z</time>
      </trkpt>
      <trkpt lat="44.74517" lon="6.85912">
        <ele>2272.1</ele>
        <time>2026-03-23T12:46:27Z</time>
      </trkpt>
      <trkpt lat="44.74517" lon="6.85912">
        <ele>2273.5</ele>
        <time>2026-03-23T12:46:28Z</time>
      </trkpt>
      <trkpt lat="44.74517" lon="6.85912">
        <ele>2273.5</ele>
        <time>2026-03-23T12:46:29Z</time>
      </trkpt>
      <trkpt lat="44.74517" lon="6.85912">
        <ele>2273.5</ele>
        <time>2026-03-23T12:46:30Z</time>
      </trkpt>
      <trkpt lat="44.74517" lon="6.85912">
        <ele>2273.5</ele>
        <time>2026-03-23T12:46:31Z</time>
      </trkpt>
      <trkpt lat="44.74517" lon="6.85912">
        <ele>2273.4</ele>
        <time>2026-03-23T12:46:32Z</time>
      </trkpt>
      <trkpt lat="44.74517" lon="6.85912">
        <ele>2273.4</ele>
        <time>2026-03-23T12:46:33Z</time>
      </trkpt>
      <trkpt lat="44.74517" lon="6.85912">
        <ele>2273.4</ele>
        <time>2026-03-23T12:46:34Z</time>
      </trkpt>
      <trkpt lat="44.74517" lon="6.85912">
        <ele>2273.4</ele>
        <time>2026-03-23T12:46:35Z</time>
      </trkpt>
      <trkpt lat="44.74517" lon="6.85912">
        <ele>2272</ele>
        <time>2026-03-23T12:46:36Z</time>
      </trkpt>
      <trkpt lat="44.74517" lon="6.85912">
        <ele>2272</ele>
        <time>2026-03-23T12:46:37Z</time>
      </trkpt>
      <trkpt lat="44.74517" lon="6.85911">
        <ele>2272</ele>
        <time>2026-03-23T12:46:38Z</time>
      </trkpt>
      <trkpt lat="44.74517" lon="6.85911">
        <ele>2272</ele>
        <time>2026-03-23T12:46:39Z</time>
      </trkpt>
      <trkpt lat="44.74517" lon="6.85911">
        <ele>2272</ele>
        <time>2026-03-23T12:46:40Z</time>
      </trkpt>
      <trkpt lat="44.74517" lon="6.85911">
        <ele>2272</ele>
        <time>2026-03-23T12:46:41Z</time>
      </trkpt>
      <trkpt lat="44.74517" lon="6.85911">
        <ele>2272</ele>
        <time>2026-03-23T12:46:42Z</time>
      </trkpt>
      <trkpt lat="44.74517" lon="6.85911">
        <ele>2271.9</ele>
        <time>2026-03-23T12:46:43Z</time>
      </trkpt>
      <trkpt lat="44.74517" lon="6.85911">
        <ele>2271.9</ele>
        <time>2026-03-23T12:46:44Z</time>
      </trkpt>
      <trkpt lat="44.74517" lon="6.85911">
        <ele>2271.9</ele>
        <time>2026-03-23T12:46:45Z</time>
      </trkpt>
      <trkpt lat="44.74517" lon="6.85911">
        <ele>2271.9</ele>
        <time>2026-03-23T12:46:46Z</time>
      </trkpt>
      <trkpt lat="44.74517" lon="6.85911">
        <ele>2271.9</ele>
        <time>2026-03-23T12:46:47Z</time>
      </trkpt>
      <trkpt lat="44.74517" lon="6.85911">
        <ele>2271.9</ele>
        <time>2026-03-23T12:46:48Z</time>
      </trkpt>
      <trkpt lat="44.74517" lon="6.85912">
        <ele>2271.9</ele>
        <time>2026-03-23T12:46:49Z</time>
      </trkpt>
      <trkpt lat="44.74517" lon="6.85912">
        <ele>2271.9</ele>
        <time>2026-03-23T12:46:50Z</time>
      </trkpt>
      <trkpt lat="44.74517" lon="6.85911">
        <ele>2271.9</ele>
        <time>2026-03-23T12:46:51Z</time>
      </trkpt>
      <trkpt lat="44.74517" lon="6.85911">
        <ele>2271.8</ele>
        <time>2026-03-23T12:46:52Z</time>
      </trkpt>
      <trkpt lat="44.74517" lon="6.85912">
        <ele>2271.8</ele>
        <time>2026-03-23T12:46:53Z</time>
      </trkpt>
      <trkpt lat="44.74517" lon="6.85911">
        <ele>2271.8</ele>
        <time>2026-03-23T12:46:54Z</time>
      </trkpt>
      <trkpt lat="44.74517" lon="6.85911">
        <ele>2271.8</ele>
        <time>2026-03-23T12:46:55Z</time>
      </trkpt>
      <trkpt lat="44.74516" lon="6.85911">
        <ele>2271.8</ele>
        <time>2026-03-23T12:46:56Z</time>
      </trkpt>
      <trkpt lat="44.74516" lon="6.85911">
        <ele>2271.8</ele>
        <time>2026-03-23T12:46:57Z</time>
      </trkpt>
      <trkpt lat="44.74516" lon="6.85911">
        <ele>2271.8</ele>
        <time>2026-03-23T12:46:58Z</time>
      </trkpt>
      <trkpt lat="44.74516" lon="6.85911">
        <ele>2271.8</ele>
        <time>2026-03-23T12:46:59Z</time>
      </trkpt>
      <trkpt lat="44.74516" lon="6.8591">
        <ele>2271.8</ele>
        <time>2026-03-23T12:47:00Z</time>
      </trkpt>
      <trkpt lat="44.74516" lon="6.8591">
        <ele>2271.7</ele>
        <time>2026-03-23T12:47:01Z</time>
      </trkpt>
      <trkpt lat="44.74516" lon="6.8591">
        <ele>2271.7</ele>
        <time>2026-03-23T12:47:02Z</time>
      </trkpt>
      <trkpt lat="44.74516" lon="6.85911">
        <ele>2271.7</ele>
        <time>2026-03-23T12:47:03Z</time>
      </trkpt>
      <trkpt lat="44.74516" lon="6.8591">
        <ele>2271.7</ele>
        <time>2026-03-23T12:47:04Z</time>
      </trkpt>
      <trkpt lat="44.74516" lon="6.8591">
        <ele>2271.7</ele>
        <time>2026-03-23T12:47:05Z</time>
      </trkpt>
      <trkpt lat="44.74516" lon="6.8591">
        <ele>2271.7</ele>
        <time>2026-03-23T12:47:06Z</time>
      </trkpt>
      <trkpt lat="44.74516" lon="6.8591">
        <ele>2271.7</ele>
        <time>2026-03-23T12:47:07Z</time>
      </trkpt>
      <trkpt lat="44.74516" lon="6.8591">
        <ele>2271.7</ele>
        <time>2026-03-23T12:47:08Z</time>
      </trkpt>
      <trkpt lat="44.74516" lon="6.8591">
        <ele>2271.7</ele>
        <time>2026-03-23T12:47:09Z</time>
      </trkpt>
      <trkpt lat="44.74516" lon="6.8591">
        <ele>2271.6</ele>
        <time>2026-03-23T12:47:10Z</time>
      </trkpt>
      <trkpt lat="44.74516" lon="6.8591">
        <ele>2271.6</ele>
        <time>2026-03-23T12:47:11Z</time>
      </trkpt>
      <trkpt lat="44.74516" lon="6.8591">
        <ele>2271.6</ele>
        <time>2026-03-23T12:47:12Z</time>
      </trkpt>
      <trkpt lat="44.74516" lon="6.8591">
        <ele>2271.6</ele>
        <time>2026-03-23T12:47:13Z</time>
      </trkpt>
      <trkpt lat="44.74516" lon="6.8591">
        <ele>2271.6</ele>
        <time>2026-03-23T12:47:14Z</time>
      </trkpt>
      <trkpt lat="44.74516" lon="6.8591">
        <ele>2271.6</ele>
        <time>2026-03-23T12:47:15Z</time>
      </trkpt>
      <trkpt lat="44.74516" lon="6.8591">
        <ele>2271.6</ele>
        <time>2026-03-23T12:47:16Z</time>
      </trkpt>
      <trkpt lat="44.74516" lon="6.8591">
        <ele>2271.6</ele>
        <time>2026-03-23T12:47:17Z</time>
      </trkpt>
      <trkpt lat="44.74516" lon="6.8591">
        <ele>2271.6</ele>
        <time>2026-03-23T12:47:18Z</time>
      </trkpt>
      <trkpt lat="44.74516" lon="6.8591">
        <ele>2271.5</ele>
        <time>2026-03-23T12:47:19Z</time>
      </trkpt>
      <trkpt lat="44.74516" lon="6.8591">
        <ele>2271.5</ele>
        <time>2026-03-23T12:47:20Z</time>
      </trkpt>
      <trkpt lat="44.74516" lon="6.8591">
        <ele>2271.5</ele>
        <time>2026-03-23T12:47:21Z</time>
      </trkpt>
      <trkpt lat="44.74516" lon="6.8591">
        <ele>2271.5</ele>
        <time>2026-03-23T12:47:22Z</time>
      </trkpt>
      <trkpt lat="44.74516" lon="6.8591">
        <ele>2271.5</ele>
        <time>2026-03-23T12:47:23Z</time>
      </trkpt>
      <trkpt lat="44.74516" lon="6.8591">
        <ele>2271.5</ele>
        <time>2026-03-23T12:47:24Z</time>
      </trkpt>
      <trkpt lat="44.74516" lon="6.8591">
        <ele>2271.5</ele>
        <time>2026-03-23T12:47:25Z</time>
      </trkpt>
      <trkpt lat="44.74516" lon="6.8591">
        <ele>2271.5</ele>
        <time>2026-03-23T12:47:26Z</time>
      </trkpt>
      <trkpt lat="44.74516" lon="6.8591">
        <ele>2271.5</ele>
        <time>2026-03-23T12:47:27Z</time>
      </trkpt>
      <trkpt lat="44.74516" lon="6.8591">
        <ele>2271.4</ele>
        <time>2026-03-23T12:47:28Z</time>
      </trkpt>
      <trkpt lat="44.74516" lon="6.8591">
        <ele>2271.4</ele>
        <time>2026-03-23T12:47:29Z</time>
      </trkpt>
      <trkpt lat="44.74516" lon="6.8591">
        <ele>2271.4</ele>
        <time>2026-03-23T12:47:30Z</time>
      </trkpt>
      <trkpt lat="44.74516" lon="6.8591">
        <ele>2271.4</ele>
        <time>2026-03-23T12:47:31Z</time>
      </trkpt>
      <trkpt lat="44.74516" lon="6.8591">
        <ele>2271.4</ele>
        <time>2026-03-23T12:47:32Z</time>
      </trkpt>
      <trkpt lat="44.74516" lon="6.8591">
        <ele>2271.4</ele>
        <time>2026-03-23T12:47:33Z</time>
      </trkpt>
      <trkpt lat="44.74516" lon="6.8591">
        <ele>2271.4</ele>
        <time>2026-03-23T12:47:34Z</time>
      </trkpt>
      <trkpt lat="44.74516" lon="6.8591">
        <ele>2271.4</ele>
        <time>2026-03-23T12:47:35Z</time>
      </trkpt>
      <trkpt lat="44.74516" lon="6.8591">
        <ele>2271.4</ele>
        <time>2026-03-23T12:47:36Z</time>
      </trkpt>
      <trkpt lat="44.74516" lon="6.8591">
        <ele>2271.3</ele>
        <time>2026-03-23T12:47:37Z</time>
      </trkpt>
      <trkpt lat="44.74516" lon="6.8591">
        <ele>2271.3</ele>
        <time>2026-03-23T12:47:38Z</time>
      </trkpt>
      <trkpt lat="44.74516" lon="6.8591">
        <ele>2271.3</ele>
        <time>2026-03-23T12:47:39Z</time>
      </trkpt>
      <trkpt lat="44.74516" lon="6.8591">
        <ele>2271.3</ele>
        <time>2026-03-23T12:47:40Z</time>
      </trkpt>
      <trkpt lat="44.74516" lon="6.8591">
        <ele>2271.3</ele>
        <time>2026-03-23T12:47:41Z</time>
      </trkpt>
      <trkpt lat="44.74516" lon="6.8591">
        <ele>2271.3</ele>
        <time>2026-03-23T12:47:42Z</time>
      </trkpt>
      <trkpt lat="44.74516" lon="6.8591">
        <ele>2271.3</ele>
        <time>2026-03-23T12:47:43Z</time>
      </trkpt>
      <trkpt lat="44.74516" lon="6.8591">
        <ele>2271.3</ele>
        <time>2026-03-23T12:47:44Z</time>
      </trkpt>
      <trkpt lat="44.74516" lon="6.8591">
        <ele>2271.3</ele>
        <time>2026-03-23T12:47:45Z</time>
      </trkpt>
      <trkpt lat="44.74516" lon="6.8591">
        <ele>2271.2</ele>
        <time>2026-03-23T12:47:46Z</time>
      </trkpt>
      <trkpt lat="44.74516" lon="6.8591">
        <ele>2271.2</ele>
        <time>2026-03-23T12:47:47Z</time>
      </trkpt>
      <trkpt lat="44.74516" lon="6.8591">
        <ele>2271.2</ele>
        <time>2026-03-23T12:47:48Z</time>
      </trkpt>
      <trkpt lat="44.74516" lon="6.85911">
        <ele>2271.2</ele>
        <time>2026-03-23T12:47:49Z</time>
      </trkpt>
      <trkpt lat="44.74516" lon="6.85911">
        <ele>2271.2</ele>
        <time>2026-03-23T12:47:50Z</time>
      </trkpt>
      <trkpt lat="44.74516" lon="6.85912">
        <ele>2272.6</ele>
        <time>2026-03-23T12:47:51Z</time>
      </trkpt>
      <trkpt lat="44.74516" lon="6.85912">
        <ele>2272.6</ele>
        <time>2026-03-23T12:47:52Z</time>
      </trkpt>
      <trkpt lat="44.74517" lon="6.85913">
        <ele>2272.5</ele>
        <time>2026-03-23T12:47:53Z</time>
      </trkpt>
      <trkpt lat="44.74517" lon="6.85913">
        <ele>2272.5</ele>
        <time>2026-03-23T12:47:54Z</time>
      </trkpt>
      <trkpt lat="44.74517" lon="6.85913">
        <ele>2272.5</ele>
        <time>2026-03-23T12:47:55Z</time>
      </trkpt>
      <trkpt lat="44.74517" lon="6.85913">
        <ele>2272.5</ele>
        <time>2026-03-23T12:47:56Z</time>
      </trkpt>
      <trkpt lat="44.74517" lon="6.85913">
        <ele>2272.5</ele>
        <time>2026-03-23T12:47:57Z</time>
      </trkpt>
      <trkpt lat="44.74517" lon="6.85913">
        <ele>2272.5</ele>
        <time>2026-03-23T12:47:58Z</time>
      </trkpt>
      <trkpt lat="44.74517" lon="6.85913">
        <ele>2272.5</ele>
        <time>2026-03-23T12:47:59Z</time>
      </trkpt>
      <trkpt lat="44.74517" lon="6.85913">
        <ele>2272.5</ele>
        <time>2026-03-23T12:48:00Z</time>
      </trkpt>
      <trkpt lat="44.74517" lon="6.85913">
        <ele>2272.5</ele>
        <time>2026-03-23T12:48:01Z</time>
      </trkpt>
      <trkpt lat="44.74517" lon="6.85913">
        <ele>2272.4</ele>
        <time>2026-03-23T12:48:02Z</time>
      </trkpt>
      <trkpt lat="44.74517" lon="6.85913">
        <ele>2272.4</ele>
        <time>2026-03-23T12:48:03Z</time>
      </trkpt>
      <trkpt lat="44.74517" lon="6.85913">
        <ele>2272.4</ele>
        <time>2026-03-23T12:48:04Z</time>
      </trkpt>
      <trkpt lat="44.74517" lon="6.85913">
        <ele>2272.4</ele>
        <time>2026-03-23T12:48:05Z</time>
      </trkpt>
      <trkpt lat="44.74517" lon="6.85913">
        <ele>2272.4</ele>
        <time>2026-03-23T12:48:06Z</time>
      </trkpt>
      <trkpt lat="44.74517" lon="6.85913">
        <ele>2272.4</ele>
        <time>2026-03-23T12:48:07Z</time>
      </trkpt>
      <trkpt lat="44.74516" lon="6.85913">
        <ele>2272.4</ele>
        <time>2026-03-23T12:48:08Z</time>
      </trkpt>
      <trkpt lat="44.74516" lon="6.85913">
        <ele>2272.4</ele>
        <time>2026-03-23T12:48:09Z</time>
      </trkpt>
      <trkpt lat="44.74516" lon="6.85913">
        <ele>2272.4</ele>
        <time>2026-03-23T12:48:10Z</time>
      </trkpt>
      <trkpt lat="44.74516" lon="6.85914">
        <ele>2272.3</ele>
        <time>2026-03-23T12:48:11Z</time>
      </trkpt>
      <trkpt lat="44.74516" lon="6.85914">
        <ele>2272.3</ele>
        <time>2026-03-23T12:48:12Z</time>
      </trkpt>
      <trkpt lat="44.74516" lon="6.85914">
        <ele>2272.3</ele>
        <time>2026-03-23T12:48:13Z</time>
      </trkpt>
      <trkpt lat="44.74516" lon="6.85914">
        <ele>2272.3</ele>
        <time>2026-03-23T12:48:14Z</time>
      </trkpt>
      <trkpt lat="44.74516" lon="6.85913">
        <ele>2272.3</ele>
        <time>2026-03-23T12:48:15Z</time>
      </trkpt>
      <trkpt lat="44.74516" lon="6.85913">
        <ele>2272.3</ele>
        <time>2026-03-23T12:48:16Z</time>
      </trkpt>
      <trkpt lat="44.74516" lon="6.85913">
        <ele>2272.3</ele>
        <time>2026-03-23T12:48:17Z</time>
      </trkpt>
      <trkpt lat="44.74516" lon="6.85913">
        <ele>2272.3</ele>
        <time>2026-03-23T12:48:18Z</time>
      </trkpt>
      <trkpt lat="44.74516" lon="6.85913">
        <ele>2272.3</ele>
        <time>2026-03-23T12:48:19Z</time>
      </trkpt>
      <trkpt lat="44.74517" lon="6.85913">
        <ele>2272.2</ele>
        <time>2026-03-23T12:48:20Z</time>
      </trkpt>
      <trkpt lat="44.74517" lon="6.85912">
        <ele>2272.2</ele>
        <time>2026-03-23T12:48:21Z</time>
      </trkpt>
      <trkpt lat="44.74517" lon="6.85911">
        <ele>2270.8</ele>
        <time>2026-03-23T12:48:22Z</time>
      </trkpt>
      <trkpt lat="44.74516" lon="6.8591">
        <ele>2270.8</ele>
        <time>2026-03-23T12:48:23Z</time>
      </trkpt>
      <trkpt lat="44.74515" lon="6.8591">
        <ele>2270.8</ele>
        <time>2026-03-23T12:48:24Z</time>
      </trkpt>
      <trkpt lat="44.74514" lon="6.8591">
        <ele>2270.4</ele>
        <time>2026-03-23T12:48:25Z</time>
      </trkpt>
      <trkpt lat="44.74512" lon="6.85911">
        <ele>2270.4</ele>
        <time>2026-03-23T12:48:26Z</time>
      </trkpt>
      <trkpt lat="44.74509" lon="6.85912">
        <ele>2270.9</ele>
        <time>2026-03-23T12:48:27Z</time>
      </trkpt>
      <trkpt lat="44.74507" lon="6.85912">
        <ele>2270.9</ele>
        <time>2026-03-23T12:48:28Z</time>
      </trkpt>
      <trkpt lat="44.74505" lon="6.85913">
        <ele>2270.3</ele>
        <time>2026-03-23T12:48:29Z</time>
      </trkpt>
      <trkpt lat="44.74504" lon="6.85913">
        <ele>2270.3</ele>
        <time>2026-03-23T12:48:30Z</time>
      </trkpt>
      <trkpt lat="44.74499" lon="6.85913">
        <ele>2269.2</ele>
        <time>2026-03-23T12:48:31Z</time>
      </trkpt>
      <trkpt lat="44.74497" lon="6.85913">
        <ele>2269.2</ele>
        <time>2026-03-23T12:48:32Z</time>
      </trkpt>
      <trkpt lat="44.74491" lon="6.85914">
        <ele>2268.2</ele>
        <time>2026-03-23T12:48:33Z</time>
      </trkpt>
      <trkpt lat="44.74485" lon="6.85915">
        <ele>2267.3</ele>
        <time>2026-03-23T12:48:34Z</time>
      </trkpt>
      <trkpt lat="44.74479" lon="6.85915">
        <ele>2266.4</ele>
        <time>2026-03-23T12:48:35Z</time>
      </trkpt>
      <trkpt lat="44.74473" lon="6.85917">
        <ele>2267.1</ele>
        <time>2026-03-23T12:48:36Z</time>
      </trkpt>
      <trkpt lat="44.7447" lon="6.85918">
        <ele>2266.7</ele>
        <time>2026-03-23T12:48:37Z</time>
      </trkpt>
      <trkpt lat="44.74467" lon="6.85918">
        <ele>2266.3</ele>
        <time>2026-03-23T12:48:38Z</time>
      </trkpt>
      <trkpt lat="44.74466" lon="6.85918">
        <ele>2266</ele>
        <time>2026-03-23T12:48:39Z</time>
      </trkpt>
      <trkpt lat="44.74465" lon="6.85918">
        <ele>2266</ele>
        <time>2026-03-23T12:48:40Z</time>
      </trkpt>
      <trkpt lat="44.74465" lon="6.85918">
        <ele>2266</ele>
        <time>2026-03-23T12:48:41Z</time>
      </trkpt>
      <trkpt lat="44.74465" lon="6.85918">
        <ele>2266</ele>
        <time>2026-03-23T12:48:42Z</time>
      </trkpt>
      <trkpt lat="44.74464" lon="6.85917">
        <ele>2266</ele>
        <time>2026-03-23T12:48:43Z</time>
      </trkpt>
      <trkpt lat="44.74464" lon="6.85917">
        <ele>2265.9</ele>
        <time>2026-03-23T12:48:44Z</time>
      </trkpt>
      <trkpt lat="44.74464" lon="6.85916">
        <ele>2264.4</ele>
        <time>2026-03-23T12:48:45Z</time>
      </trkpt>
      <trkpt lat="44.74464" lon="6.85913">
        <ele>2264.4</ele>
        <time>2026-03-23T12:48:46Z</time>
      </trkpt>
      <trkpt lat="44.74464" lon="6.85912">
        <ele>2264.4</ele>
        <time>2026-03-23T12:48:47Z</time>
      </trkpt>
      <trkpt lat="44.74464" lon="6.85911">
        <ele>2262.8</ele>
        <time>2026-03-23T12:48:48Z</time>
      </trkpt>
      <trkpt lat="44.74464" lon="6.85909">
        <ele>2262.8</ele>
        <time>2026-03-23T12:48:49Z</time>
      </trkpt>
      <trkpt lat="44.74463" lon="6.85904">
        <ele>2261.3</ele>
        <time>2026-03-23T12:48:50Z</time>
      </trkpt>
      <trkpt lat="44.74463" lon="6.85903">
        <ele>2259.3</ele>
        <time>2026-03-23T12:48:51Z</time>
      </trkpt>
      <trkpt lat="44.7446" lon="6.859">
        <ele>2259.3</ele>
        <time>2026-03-23T12:48:52Z</time>
      </trkpt>
      <trkpt lat="44.74459" lon="6.85898">
        <ele>2257.3</ele>
        <time>2026-03-23T12:48:53Z</time>
      </trkpt>
      <trkpt lat="44.74457" lon="6.85896">
        <ele>2256.9</ele>
        <time>2026-03-23T12:48:54Z</time>
      </trkpt>
      <trkpt lat="44.74454" lon="6.85892">
        <ele>2255.1</ele>
        <time>2026-03-23T12:48:55Z</time>
      </trkpt>
      <trkpt lat="44.74448" lon="6.85886">
        <ele>2252.7</ele>
        <time>2026-03-23T12:48:56Z</time>
      </trkpt>
      <trkpt lat="44.74446" lon="6.85884">
        <ele>2250.5</ele>
        <time>2026-03-23T12:48:57Z</time>
      </trkpt>
      <trkpt lat="44.74443" lon="6.85883">
        <ele>2250.2</ele>
        <time>2026-03-23T12:48:58Z</time>
      </trkpt>
      <trkpt lat="44.7444" lon="6.85881">
        <ele>2248.1</ele>
        <time>2026-03-23T12:48:59Z</time>
      </trkpt>
      <trkpt lat="44.74439" lon="6.85881">
        <ele>2248.1</ele>
        <time>2026-03-23T12:49:00Z</time>
      </trkpt>
      <trkpt lat="44.74438" lon="6.85882">
        <ele>2249.6</ele>
        <time>2026-03-23T12:49:01Z</time>
      </trkpt>
      <trkpt lat="44.74438" lon="6.85882">
        <ele>2249.6</ele>
        <time>2026-03-23T12:49:02Z</time>
      </trkpt>
      <trkpt lat="44.74436" lon="6.85881">
        <ele>2247.8</ele>
        <time>2026-03-23T12:49:03Z</time>
      </trkpt>
      <trkpt lat="44.74436" lon="6.85881">
        <ele>2247.5</ele>
        <time>2026-03-23T12:49:04Z</time>
      </trkpt>
      <trkpt lat="44.74435" lon="6.85882">
        <ele>2249.3</ele>
        <time>2026-03-23T12:49:05Z</time>
      </trkpt>
      <trkpt lat="44.74434" lon="6.85882">
        <ele>2247.5</ele>
        <time>2026-03-23T12:49:06Z</time>
      </trkpt>
      <trkpt lat="44.74434" lon="6.85882">
        <ele>2249.3</ele>
        <time>2026-03-23T12:49:07Z</time>
      </trkpt>
      <trkpt lat="44.74434" lon="6.85882">
        <ele>2249.3</ele>
        <time>2026-03-23T12:49:08Z</time>
      </trkpt>
      <trkpt lat="44.74433" lon="6.85882">
        <ele>2249.3</ele>
        <time>2026-03-23T12:49:09Z</time>
      </trkpt>
      <trkpt lat="44.74433" lon="6.85882">
        <ele>2249.3</ele>
        <time>2026-03-23T12:49:10Z</time>
      </trkpt>
      <trkpt lat="44.74433" lon="6.85881">
        <ele>2247.5</ele>
        <time>2026-03-23T12:49:11Z</time>
      </trkpt>
      <trkpt lat="44.74433" lon="6.85881">
        <ele>2247.5</ele>
        <time>2026-03-23T12:49:12Z</time>
      </trkpt>
      <trkpt lat="44.74433" lon="6.85881">
        <ele>2247.4</ele>
        <time>2026-03-23T12:49:13Z</time>
      </trkpt>
      <trkpt lat="44.74433" lon="6.85882">
        <ele>2247.2</ele>
        <time>2026-03-23T12:49:14Z</time>
      </trkpt>
      <trkpt lat="44.74433" lon="6.85882">
        <ele>2247.2</ele>
        <time>2026-03-23T12:49:15Z</time>
      </trkpt>
      <trkpt lat="44.74433" lon="6.85881">
        <ele>2247.4</ele>
        <time>2026-03-23T12:49:16Z</time>
      </trkpt>
      <trkpt lat="44.74433" lon="6.85881">
        <ele>2247.4</ele>
        <time>2026-03-23T12:49:17Z</time>
      </trkpt>
      <trkpt lat="44.74433" lon="6.85881">
        <ele>2247.4</ele>
        <time>2026-03-23T12:49:18Z</time>
      </trkpt>
      <trkpt lat="44.74433" lon="6.85881">
        <ele>2247.4</ele>
        <time>2026-03-23T12:49:19Z</time>
      </trkpt>
      <trkpt lat="44.74433" lon="6.85881">
        <ele>2247.4</ele>
        <time>2026-03-23T12:49:20Z</time>
      </trkpt>
      <trkpt lat="44.74433" lon="6.85881">
        <ele>2247.4</ele>
        <time>2026-03-23T12:49:21Z</time>
      </trkpt>
      <trkpt lat="44.74433" lon="6.85881">
        <ele>2247.3</ele>
        <time>2026-03-23T12:49:22Z</time>
      </trkpt>
      <trkpt lat="44.74433" lon="6.85881">
        <ele>2247.3</ele>
        <time>2026-03-23T12:49:23Z</time>
      </trkpt>
      <trkpt lat="44.74433" lon="6.85881">
        <ele>2247.3</ele>
        <time>2026-03-23T12:49:24Z</time>
      </trkpt>
      <trkpt lat="44.74433" lon="6.85881">
        <ele>2247.1</ele>
        <time>2026-03-23T12:49:25Z</time>
      </trkpt>
      <trkpt lat="44.74432" lon="6.85881">
        <ele>2247.1</ele>
        <time>2026-03-23T12:49:26Z</time>
      </trkpt>
      <trkpt lat="44.74432" lon="6.8588">
        <ele>2247.1</ele>
        <time>2026-03-23T12:49:27Z</time>
      </trkpt>
      <trkpt lat="44.74432" lon="6.8588">
        <ele>2247.1</ele>
        <time>2026-03-23T12:49:28Z</time>
      </trkpt>
      <trkpt lat="44.74432" lon="6.85879">
        <ele>2247.1</ele>
        <time>2026-03-23T12:49:29Z</time>
      </trkpt>
      <trkpt lat="44.74432" lon="6.85879">
        <ele>2247.1</ele>
        <time>2026-03-23T12:49:30Z</time>
      </trkpt>
      <trkpt lat="44.74432" lon="6.85879">
        <ele>2247.1</ele>
        <time>2026-03-23T12:49:31Z</time>
      </trkpt>
      <trkpt lat="44.74432" lon="6.85879">
        <ele>2247</ele>
        <time>2026-03-23T12:49:32Z</time>
      </trkpt>
      <trkpt lat="44.74432" lon="6.85879">
        <ele>2247</ele>
        <time>2026-03-23T12:49:33Z</time>
      </trkpt>
      <trkpt lat="44.74432" lon="6.85879">
        <ele>2247</ele>
        <time>2026-03-23T12:49:34Z</time>
      </trkpt>
      <trkpt lat="44.74432" lon="6.85879">
        <ele>2247</ele>
        <time>2026-03-23T12:49:35Z</time>
      </trkpt>
      <trkpt lat="44.74432" lon="6.85879">
        <ele>2247</ele>
        <time>2026-03-23T12:49:36Z</time>
      </trkpt>
      <trkpt lat="44.74432" lon="6.85879">
        <ele>2247</ele>
        <time>2026-03-23T12:49:37Z</time>
      </trkpt>
      <trkpt lat="44.74432" lon="6.85879">
        <ele>2247</ele>
        <time>2026-03-23T12:49:38Z</time>
      </trkpt>
      <trkpt lat="44.74432" lon="6.85879">
        <ele>2247</ele>
        <time>2026-03-23T12:49:39Z</time>
      </trkpt>
      <trkpt lat="44.74433" lon="6.85879">
        <ele>2247</ele>
        <time>2026-03-23T12:49:40Z</time>
      </trkpt>
      <trkpt lat="44.74433" lon="6.85879">
        <ele>2247.1</ele>
        <time>2026-03-23T12:49:41Z</time>
      </trkpt>
      <trkpt lat="44.74433" lon="6.85879">
        <ele>2247.1</ele>
        <time>2026-03-23T12:49:42Z</time>
      </trkpt>
      <trkpt lat="44.74434" lon="6.85879">
        <ele>2247.1</ele>
        <time>2026-03-23T12:49:43Z</time>
      </trkpt>
      <trkpt lat="44.74436" lon="6.85879">
        <ele>2247.3</ele>
        <time>2026-03-23T12:49:44Z</time>
      </trkpt>
      <trkpt lat="44.74437" lon="6.85879">
        <ele>2247.3</ele>
        <time>2026-03-23T12:49:45Z</time>
      </trkpt>
      <trkpt lat="44.74438" lon="6.85879">
        <ele>2247.3</ele>
        <time>2026-03-23T12:49:46Z</time>
      </trkpt>
      <trkpt lat="44.7444" lon="6.85879">
        <ele>2247.6</ele>
        <time>2026-03-23T12:49:47Z</time>
      </trkpt>
      <trkpt lat="44.74441" lon="6.85878">
        <ele>2247.6</ele>
        <time>2026-03-23T12:49:48Z</time>
      </trkpt>
      <trkpt lat="44.74442" lon="6.85878">
        <ele>2247.8</ele>
        <time>2026-03-23T12:49:49Z</time>
      </trkpt>
      <trkpt lat="44.74444" lon="6.85878">
        <ele>2247.8</ele>
        <time>2026-03-23T12:49:50Z</time>
      </trkpt>
      <trkpt lat="44.74445" lon="6.85877">
        <ele>2246.4</ele>
        <time>2026-03-23T12:49:51Z</time>
      </trkpt>
      <trkpt lat="44.74446" lon="6.85877">
        <ele>2246.4</ele>
        <time>2026-03-23T12:49:52Z</time>
      </trkpt>
      <trkpt lat="44.74447" lon="6.85876">
        <ele>2246.4</ele>
        <time>2026-03-23T12:49:53Z</time>
      </trkpt>
      <trkpt lat="44.74449" lon="6.85875">
        <ele>2246.7</ele>
        <time>2026-03-23T12:49:54Z</time>
      </trkpt>
      <trkpt lat="44.7445" lon="6.85874">
        <ele>2246.7</ele>
        <time>2026-03-23T12:49:55Z</time>
      </trkpt>
      <trkpt lat="44.74451" lon="6.85873">
        <ele>2245.4</ele>
        <time>2026-03-23T12:49:56Z</time>
      </trkpt>
      <trkpt lat="44.74454" lon="6.85871">
        <ele>2245.4</ele>
        <time>2026-03-23T12:49:57Z</time>
      </trkpt>
      <trkpt lat="44.74455" lon="6.8587">
        <ele>2245.7</ele>
        <time>2026-03-23T12:49:58Z</time>
      </trkpt>
      <trkpt lat="44.74456" lon="6.85869">
        <ele>2245.7</ele>
        <time>2026-03-23T12:49:59Z</time>
      </trkpt>
      <trkpt lat="44.74457" lon="6.85868">
        <ele>2244.4</ele>
        <time>2026-03-23T12:50:00Z</time>
      </trkpt>
      <trkpt lat="44.74457" lon="6.85868">
        <ele>2244.4</ele>
        <time>2026-03-23T12:50:01Z</time>
      </trkpt>
      <trkpt lat="44.74457" lon="6.85867">
        <ele>2244.4</ele>
        <time>2026-03-23T12:50:02Z</time>
      </trkpt>
      <trkpt lat="44.74457" lon="6.85867">
        <ele>2244.4</ele>
        <time>2026-03-23T12:50:03Z</time>
      </trkpt>
      <trkpt lat="44.74457" lon="6.85867">
        <ele>2244.3</ele>
        <time>2026-03-23T12:50:04Z</time>
      </trkpt>
      <trkpt lat="44.74457" lon="6.85867">
        <ele>2244.3</ele>
        <time>2026-03-23T12:50:05Z</time>
      </trkpt>
      <trkpt lat="44.74457" lon="6.85867">
        <ele>2244.3</ele>
        <time>2026-03-23T12:50:06Z</time>
      </trkpt>
      <trkpt lat="44.74457" lon="6.85867">
        <ele>2244.3</ele>
        <time>2026-03-23T12:50:07Z</time>
      </trkpt>
      <trkpt lat="44.74457" lon="6.85866">
        <ele>2244.3</ele>
        <time>2026-03-23T12:50:08Z</time>
      </trkpt>
      <trkpt lat="44.74457" lon="6.85866">
        <ele>2244.3</ele>
        <time>2026-03-23T12:50:09Z</time>
      </trkpt>
      <trkpt lat="44.74457" lon="6.85866">
        <ele>2244.3</ele>
        <time>2026-03-23T12:50:10Z</time>
      </trkpt>
      <trkpt lat="44.74458" lon="6.85866">
        <ele>2244.3</ele>
        <time>2026-03-23T12:50:11Z</time>
      </trkpt>
      <trkpt lat="44.74458" lon="6.85866">
        <ele>2244.3</ele>
        <time>2026-03-23T12:50:12Z</time>
      </trkpt>
      <trkpt lat="44.74458" lon="6.85866">
        <ele>2244.2</ele>
        <time>2026-03-23T12:50:13Z</time>
      </trkpt>
      <trkpt lat="44.74458" lon="6.85866">
        <ele>2244.2</ele>
        <time>2026-03-23T12:50:14Z</time>
      </trkpt>
      <trkpt lat="44.74458" lon="6.85866">
        <ele>2244.2</ele>
        <time>2026-03-23T12:50:15Z</time>
      </trkpt>
      <trkpt lat="44.74458" lon="6.85865">
        <ele>2244.2</ele>
        <time>2026-03-23T12:50:16Z</time>
      </trkpt>
      <trkpt lat="44.74459" lon="6.85865">
        <ele>2244.2</ele>
        <time>2026-03-23T12:50:17Z</time>
      </trkpt>
      <trkpt lat="44.74459" lon="6.85864">
        <ele>2242.5</ele>
        <time>2026-03-23T12:50:18Z</time>
      </trkpt>
      <trkpt lat="44.7446" lon="6.85864">
        <ele>2242.9</ele>
        <time>2026-03-23T12:50:19Z</time>
      </trkpt>
      <trkpt lat="44.74461" lon="6.85864">
        <ele>2242.8</ele>
        <time>2026-03-23T12:50:20Z</time>
      </trkpt>
      <trkpt lat="44.74461" lon="6.85863">
        <ele>2242.8</ele>
        <time>2026-03-23T12:50:21Z</time>
      </trkpt>
      <trkpt lat="44.74462" lon="6.85863">
        <ele>2242.8</ele>
        <time>2026-03-23T12:50:22Z</time>
      </trkpt>
      <trkpt lat="44.74462" lon="6.85863">
        <ele>2242.8</ele>
        <time>2026-03-23T12:50:23Z</time>
      </trkpt>
      <trkpt lat="44.74462" lon="6.85862">
        <ele>2242.8</ele>
        <time>2026-03-23T12:50:24Z</time>
      </trkpt>
      <trkpt lat="44.74463" lon="6.85862">
        <ele>2242.8</ele>
        <time>2026-03-23T12:50:25Z</time>
      </trkpt>
      <trkpt lat="44.74464" lon="6.85861">
        <ele>2243.2</ele>
        <time>2026-03-23T12:50:26Z</time>
      </trkpt>
      <trkpt lat="44.74464" lon="6.85861">
        <ele>2243.2</ele>
        <time>2026-03-23T12:50:27Z</time>
      </trkpt>
      <trkpt lat="44.74465" lon="6.85859">
        <ele>2241.4</ele>
        <time>2026-03-23T12:50:28Z</time>
      </trkpt>
      <trkpt lat="44.74464" lon="6.85856">
        <ele>2241.4</ele>
        <time>2026-03-23T12:50:29Z</time>
      </trkpt>
      <trkpt lat="44.74464" lon="6.85856">
        <ele>2239.5</ele>
        <time>2026-03-23T12:50:30Z</time>
      </trkpt>
      <trkpt lat="44.74463" lon="6.85856">
        <ele>2241.4</ele>
        <time>2026-03-23T12:50:31Z</time>
      </trkpt>
      <trkpt lat="44.74463" lon="6.85857">
        <ele>2240.9</ele>
        <time>2026-03-23T12:50:32Z</time>
      </trkpt>
      <trkpt lat="44.74462" lon="6.85857">
        <ele>2240.9</ele>
        <time>2026-03-23T12:50:33Z</time>
      </trkpt>
      <trkpt lat="44.74461" lon="6.85856">
        <ele>2239</ele>
        <time>2026-03-23T12:50:34Z</time>
      </trkpt>
      <trkpt lat="44.7446" lon="6.85855">
        <ele>2238.6</ele>
        <time>2026-03-23T12:50:35Z</time>
      </trkpt>
      <trkpt lat="44.74459" lon="6.85855">
        <ele>2238.6</ele>
        <time>2026-03-23T12:50:36Z</time>
      </trkpt>
      <trkpt lat="44.74458" lon="6.85855">
        <ele>2238.6</ele>
        <time>2026-03-23T12:50:37Z</time>
      </trkpt>
      <trkpt lat="44.74456" lon="6.85853">
        <ele>2238.2</ele>
        <time>2026-03-23T12:50:38Z</time>
      </trkpt>
      <trkpt lat="44.74455" lon="6.85852">
        <ele>2238.2</ele>
        <time>2026-03-23T12:50:39Z</time>
      </trkpt>
      <trkpt lat="44.74455" lon="6.8585">
        <ele>2236.3</ele>
        <time>2026-03-23T12:50:40Z</time>
      </trkpt>
      <trkpt lat="44.74455" lon="6.85848">
        <ele>2236.3</ele>
        <time>2026-03-23T12:50:41Z</time>
      </trkpt>
      <trkpt lat="44.74455" lon="6.85848">
        <ele>2236.3</ele>
        <time>2026-03-23T12:50:42Z</time>
      </trkpt>
      <trkpt lat="44.74455" lon="6.85848">
        <ele>2236.3</ele>
        <time>2026-03-23T12:50:43Z</time>
      </trkpt>
      <trkpt lat="44.74455" lon="6.85848">
        <ele>2236.3</ele>
        <time>2026-03-23T12:50:44Z</time>
      </trkpt>
      <trkpt lat="44.74455" lon="6.85848">
        <ele>2236.3</ele>
        <time>2026-03-23T12:50:45Z</time>
      </trkpt>
      <trkpt lat="44.74455" lon="6.85848">
        <ele>2236.3</ele>
        <time>2026-03-23T12:50:46Z</time>
      </trkpt>
      <trkpt lat="44.74455" lon="6.85847">
        <ele>2234.4</ele>
        <time>2026-03-23T12:50:47Z</time>
      </trkpt>
      <trkpt lat="44.74455" lon="6.85846">
        <ele>2234.4</ele>
        <time>2026-03-23T12:50:48Z</time>
      </trkpt>
      <trkpt lat="44.74454" lon="6.85846">
        <ele>2234.4</ele>
        <time>2026-03-23T12:50:49Z</time>
      </trkpt>
      <trkpt lat="44.74455" lon="6.85844">
        <ele>2234.3</ele>
        <time>2026-03-23T12:50:50Z</time>
      </trkpt>
      <trkpt lat="44.74453" lon="6.85842">
        <ele>2232.1</ele>
        <time>2026-03-23T12:50:51Z</time>
      </trkpt>
      <trkpt lat="44.74452" lon="6.8584">
        <ele>2232.1</ele>
        <time>2026-03-23T12:50:52Z</time>
      </trkpt>
      <trkpt lat="44.74451" lon="6.8584">
        <ele>2231.8</ele>
        <time>2026-03-23T12:50:53Z</time>
      </trkpt>
      <trkpt lat="44.7445" lon="6.8584">
        <ele>2231.8</ele>
        <time>2026-03-23T12:50:54Z</time>
      </trkpt>
      <trkpt lat="44.74449" lon="6.85839">
        <ele>2231.8</ele>
        <time>2026-03-23T12:50:55Z</time>
      </trkpt>
      <trkpt lat="44.74449" lon="6.85837">
        <ele>2229.9</ele>
        <time>2026-03-23T12:50:56Z</time>
      </trkpt>
      <trkpt lat="44.74449" lon="6.85837">
        <ele>2229.9</ele>
        <time>2026-03-23T12:50:57Z</time>
      </trkpt>
      <trkpt lat="44.74449" lon="6.85836">
        <ele>2229.9</ele>
        <time>2026-03-23T12:50:58Z</time>
      </trkpt>
      <trkpt lat="44.74449" lon="6.85836">
        <ele>2229.9</ele>
        <time>2026-03-23T12:50:59Z</time>
      </trkpt>
      <trkpt lat="44.74448" lon="6.85836">
        <ele>2229.9</ele>
        <time>2026-03-23T12:51:00Z</time>
      </trkpt>
      <trkpt lat="44.74448" lon="6.85835">
        <ele>2229.9</ele>
        <time>2026-03-23T12:51:01Z</time>
      </trkpt>
      <trkpt lat="44.74448" lon="6.85835">
        <ele>2229.9</ele>
        <time>2026-03-23T12:51:02Z</time>
      </trkpt>
      <trkpt lat="44.74448" lon="6.85835">
        <ele>2229.8</ele>
        <time>2026-03-23T12:51:03Z</time>
      </trkpt>
      <trkpt lat="44.74448" lon="6.85834">
        <ele>2228.1</ele>
        <time>2026-03-23T12:51:04Z</time>
      </trkpt>
      <trkpt lat="44.74448" lon="6.85834">
        <ele>2228.1</ele>
        <time>2026-03-23T12:51:05Z</time>
      </trkpt>
      <trkpt lat="44.74448" lon="6.85834">
        <ele>2228.1</ele>
        <time>2026-03-23T12:51:06Z</time>
      </trkpt>
      <trkpt lat="44.74448" lon="6.85833">
        <ele>2228</ele>
        <time>2026-03-23T12:51:07Z</time>
      </trkpt>
      <trkpt lat="44.74448" lon="6.85833">
        <ele>2228</ele>
        <time>2026-03-23T12:51:08Z</time>
      </trkpt>
      <trkpt lat="44.74448" lon="6.85833">
        <ele>2228</ele>
        <time>2026-03-23T12:51:09Z</time>
      </trkpt>
      <trkpt lat="44.74448" lon="6.85832">
        <ele>2227.7</ele>
        <time>2026-03-23T12:51:10Z</time>
      </trkpt>
      <trkpt lat="44.74448" lon="6.85832">
        <ele>2227.7</ele>
        <time>2026-03-23T12:51:11Z</time>
      </trkpt>
      <trkpt lat="44.74448" lon="6.85832">
        <ele>2227.7</ele>
        <time>2026-03-23T12:51:12Z</time>
      </trkpt>
      <trkpt lat="44.74448" lon="6.85831">
        <ele>2227.6</ele>
        <time>2026-03-23T12:51:13Z</time>
      </trkpt>
      <trkpt lat="44.74446" lon="6.8583">
        <ele>2227.6</ele>
        <time>2026-03-23T12:51:14Z</time>
      </trkpt>
      <trkpt lat="44.74445" lon="6.8583">
        <ele>2227.6</ele>
        <time>2026-03-23T12:51:15Z</time>
      </trkpt>
      <trkpt lat="44.74444" lon="6.85829">
        <ele>2225.6</ele>
        <time>2026-03-23T12:51:16Z</time>
      </trkpt>
      <trkpt lat="44.74444" lon="6.85827">
        <ele>2225.6</ele>
        <time>2026-03-23T12:51:17Z</time>
      </trkpt>
      <trkpt lat="44.74444" lon="6.85825">
        <ele>2224</ele>
        <time>2026-03-23T12:51:18Z</time>
      </trkpt>
      <trkpt lat="44.74445" lon="6.85821">
        <ele>2222.7</ele>
        <time>2026-03-23T12:51:19Z</time>
      </trkpt>
      <trkpt lat="44.74446" lon="6.8582">
        <ele>2222.7</ele>
        <time>2026-03-23T12:51:20Z</time>
      </trkpt>
      <trkpt lat="44.74445" lon="6.85819">
        <ele>2222.7</ele>
        <time>2026-03-23T12:51:21Z</time>
      </trkpt>
      <trkpt lat="44.74445" lon="6.85819">
        <ele>2222.3</ele>
        <time>2026-03-23T12:51:22Z</time>
      </trkpt>
      <trkpt lat="44.74444" lon="6.85818">
        <ele>2222.3</ele>
        <time>2026-03-23T12:51:23Z</time>
      </trkpt>
      <trkpt lat="44.74444" lon="6.85818">
        <ele>2222.3</ele>
        <time>2026-03-23T12:51:24Z</time>
      </trkpt>
      <trkpt lat="44.74443" lon="6.85818">
        <ele>2222.3</ele>
        <time>2026-03-23T12:51:25Z</time>
      </trkpt>
      <trkpt lat="44.74442" lon="6.85818">
        <ele>2222.3</ele>
        <time>2026-03-23T12:51:26Z</time>
      </trkpt>
      <trkpt lat="44.74442" lon="6.85818">
        <ele>2222.3</ele>
        <time>2026-03-23T12:51:27Z</time>
      </trkpt>
      <trkpt lat="44.74441" lon="6.85818">
        <ele>2222</ele>
        <time>2026-03-23T12:51:28Z</time>
      </trkpt>
      <trkpt lat="44.74441" lon="6.85818">
        <ele>2222</ele>
        <time>2026-03-23T12:51:29Z</time>
      </trkpt>
      <trkpt lat="44.7444" lon="6.85818">
        <ele>2222</ele>
        <time>2026-03-23T12:51:30Z</time>
      </trkpt>
      <trkpt lat="44.7444" lon="6.85818">
        <ele>2221.9</ele>
        <time>2026-03-23T12:51:31Z</time>
      </trkpt>
      <trkpt lat="44.7444" lon="6.85818">
        <ele>2221.9</ele>
        <time>2026-03-23T12:51:32Z</time>
      </trkpt>
      <trkpt lat="44.7444" lon="6.85818">
        <ele>2221.9</ele>
        <time>2026-03-23T12:51:33Z</time>
      </trkpt>
      <trkpt lat="44.74439" lon="6.85817">
        <ele>2220.1</ele>
        <time>2026-03-23T12:51:34Z</time>
      </trkpt>
      <trkpt lat="44.74438" lon="6.85816">
        <ele>2220</ele>
        <time>2026-03-23T12:51:35Z</time>
      </trkpt>
      <trkpt lat="44.74437" lon="6.85816">
        <ele>2220</ele>
        <time>2026-03-23T12:51:36Z</time>
      </trkpt>
      <trkpt lat="44.74437" lon="6.85816">
        <ele>2220</ele>
        <time>2026-03-23T12:51:37Z</time>
      </trkpt>
      <trkpt lat="44.74437" lon="6.85817">
        <ele>2220</ele>
        <time>2026-03-23T12:51:38Z</time>
      </trkpt>
      <trkpt lat="44.74437" lon="6.85817">
        <ele>2221.6</ele>
        <time>2026-03-23T12:51:39Z</time>
      </trkpt>
      <trkpt lat="44.74437" lon="6.85817">
        <ele>2221.6</ele>
        <time>2026-03-23T12:51:40Z</time>
      </trkpt>
      <trkpt lat="44.74437" lon="6.85817">
        <ele>2220</ele>
        <time>2026-03-23T12:51:41Z</time>
      </trkpt>
      <trkpt lat="44.74436" lon="6.85817">
        <ele>2220</ele>
        <time>2026-03-23T12:51:42Z</time>
      </trkpt>
      <trkpt lat="44.74436" lon="6.85817">
        <ele>2220</ele>
        <time>2026-03-23T12:51:43Z</time>
      </trkpt>
      <trkpt lat="44.74435" lon="6.85817">
        <ele>2219.7</ele>
        <time>2026-03-23T12:51:44Z</time>
      </trkpt>
      <trkpt lat="44.74434" lon="6.85816">
        <ele>2219.7</ele>
        <time>2026-03-23T12:51:45Z</time>
      </trkpt>
      <trkpt lat="44.74433" lon="6.85816">
        <ele>2219.7</ele>
        <time>2026-03-23T12:51:46Z</time>
      </trkpt>
      <trkpt lat="44.74432" lon="6.85816">
        <ele>2219.5</ele>
        <time>2026-03-23T12:51:47Z</time>
      </trkpt>
      <trkpt lat="44.74431" lon="6.85816">
        <ele>2219.5</ele>
        <time>2026-03-23T12:51:48Z</time>
      </trkpt>
      <trkpt lat="44.7443" lon="6.85816">
        <ele>2219.5</ele>
        <time>2026-03-23T12:51:49Z</time>
      </trkpt>
      <trkpt lat="44.74429" lon="6.85816">
        <ele>2219.4</ele>
        <time>2026-03-23T12:51:50Z</time>
      </trkpt>
      <trkpt lat="44.74428" lon="6.85816">
        <ele>2219.4</ele>
        <time>2026-03-23T12:51:51Z</time>
      </trkpt>
      <trkpt lat="44.74427" lon="6.85816">
        <ele>2219.3</ele>
        <time>2026-03-23T12:51:52Z</time>
      </trkpt>
      <trkpt lat="44.74427" lon="6.85816">
        <ele>2219.3</ele>
        <time>2026-03-23T12:51:53Z</time>
      </trkpt>
      <trkpt lat="44.74427" lon="6.85816">
        <ele>2219.3</ele>
        <time>2026-03-23T12:51:54Z</time>
      </trkpt>
      <trkpt lat="44.74427" lon="6.85816">
        <ele>2219.3</ele>
        <time>2026-03-23T12:51:55Z</time>
      </trkpt>
      <trkpt lat="44.74427" lon="6.85816">
        <ele>2219.3</ele>
        <time>2026-03-23T12:51:56Z</time>
      </trkpt>
      <trkpt lat="44.74426" lon="6.85816">
        <ele>2219.2</ele>
        <time>2026-03-23T12:51:57Z</time>
      </trkpt>
      <trkpt lat="44.74426" lon="6.85816">
        <ele>2219.2</ele>
        <time>2026-03-23T12:51:58Z</time>
      </trkpt>
      <trkpt lat="44.74426" lon="6.85816">
        <ele>2219.2</ele>
        <time>2026-03-23T12:51:59Z</time>
      </trkpt>
      <trkpt lat="44.74426" lon="6.85816">
        <ele>2219.2</ele>
        <time>2026-03-23T12:52:00Z</time>
      </trkpt>
      <trkpt lat="44.74426" lon="6.85816">
        <ele>2219.1</ele>
        <time>2026-03-23T12:52:01Z</time>
      </trkpt>
      <trkpt lat="44.74426" lon="6.85816">
        <ele>2219.1</ele>
        <time>2026-03-23T12:52:02Z</time>
      </trkpt>
      <trkpt lat="44.74426" lon="6.85816">
        <ele>2219.1</ele>
        <time>2026-03-23T12:52:03Z</time>
      </trkpt>
      <trkpt lat="44.74426" lon="6.85816">
        <ele>2219.1</ele>
        <time>2026-03-23T12:52:04Z</time>
      </trkpt>
      <trkpt lat="44.74426" lon="6.85816">
        <ele>2219.1</ele>
        <time>2026-03-23T12:52:05Z</time>
      </trkpt>
      <trkpt lat="44.74426" lon="6.85817">
        <ele>2219.1</ele>
        <time>2026-03-23T12:52:06Z</time>
      </trkpt>
      <trkpt lat="44.74425" lon="6.85817">
        <ele>2219.1</ele>
        <time>2026-03-23T12:52:07Z</time>
      </trkpt>
      <trkpt lat="44.74424" lon="6.85818">
        <ele>2220.6</ele>
        <time>2026-03-23T12:52:08Z</time>
      </trkpt>
      <trkpt lat="44.74422" lon="6.85818">
        <ele>2220.5</ele>
        <time>2026-03-23T12:52:09Z</time>
      </trkpt>
      <trkpt lat="44.74418" lon="6.85819">
        <ele>2220.4</ele>
        <time>2026-03-23T12:52:10Z</time>
      </trkpt>
      <trkpt lat="44.74417" lon="6.85819">
        <ele>2220.3</ele>
        <time>2026-03-23T12:52:11Z</time>
      </trkpt>
      <trkpt lat="44.74415" lon="6.85819">
        <ele>2220.3</ele>
        <time>2026-03-23T12:52:12Z</time>
      </trkpt>
      <trkpt lat="44.74414" lon="6.85819">
        <ele>2220.3</ele>
        <time>2026-03-23T12:52:13Z</time>
      </trkpt>
      <trkpt lat="44.74413" lon="6.85819">
        <ele>2220.3</ele>
        <time>2026-03-23T12:52:14Z</time>
      </trkpt>
      <trkpt lat="44.74412" lon="6.85819">
        <ele>2220.2</ele>
        <time>2026-03-23T12:52:15Z</time>
      </trkpt>
      <trkpt lat="44.7441" lon="6.85818">
        <ele>2220.2</ele>
        <time>2026-03-23T12:52:16Z</time>
      </trkpt>
      <trkpt lat="44.7441" lon="6.85813">
        <ele>2218.7</ele>
        <time>2026-03-23T12:52:17Z</time>
      </trkpt>
      <trkpt lat="44.7441" lon="6.85811">
        <ele>2217.2</ele>
        <time>2026-03-23T12:52:18Z</time>
      </trkpt>
      <trkpt lat="44.7441" lon="6.85807">
        <ele>2215.6</ele>
        <time>2026-03-23T12:52:19Z</time>
      </trkpt>
      <trkpt lat="44.74409" lon="6.85803">
        <ele>2214</ele>
        <time>2026-03-23T12:52:20Z</time>
      </trkpt>
      <trkpt lat="44.74406" lon="6.858">
        <ele>2212.6</ele>
        <time>2026-03-23T12:52:21Z</time>
      </trkpt>
      <trkpt lat="44.74405" lon="6.85795">
        <ele>2211.3</ele>
        <time>2026-03-23T12:52:22Z</time>
      </trkpt>
      <trkpt lat="44.74405" lon="6.85791">
        <ele>2209.9</ele>
        <time>2026-03-23T12:52:23Z</time>
      </trkpt>
      <trkpt lat="44.74405" lon="6.85788">
        <ele>2209.7</ele>
        <time>2026-03-23T12:52:24Z</time>
      </trkpt>
      <trkpt lat="44.74405" lon="6.85786">
        <ele>2208.6</ele>
        <time>2026-03-23T12:52:25Z</time>
      </trkpt>
      <trkpt lat="44.74405" lon="6.85787">
        <ele>2208.6</ele>
        <time>2026-03-23T12:52:26Z</time>
      </trkpt>
      <trkpt lat="44.74404" lon="6.85788">
        <ele>2209.8</ele>
        <time>2026-03-23T12:52:27Z</time>
      </trkpt>
      <trkpt lat="44.74404" lon="6.85788">
        <ele>2209.8</ele>
        <time>2026-03-23T12:52:28Z</time>
      </trkpt>
      <trkpt lat="44.74404" lon="6.85789">
        <ele>2209.8</ele>
        <time>2026-03-23T12:52:29Z</time>
      </trkpt>
      <trkpt lat="44.74404" lon="6.85789">
        <ele>2209.8</ele>
        <time>2026-03-23T12:52:30Z</time>
      </trkpt>
      <trkpt lat="44.74404" lon="6.85789">
        <ele>2209.8</ele>
        <time>2026-03-23T12:52:31Z</time>
      </trkpt>
      <trkpt lat="44.74404" lon="6.85789">
        <ele>2209.8</ele>
        <time>2026-03-23T12:52:32Z</time>
      </trkpt>
      <trkpt lat="44.74404" lon="6.85789">
        <ele>2209.8</ele>
        <time>2026-03-23T12:52:33Z</time>
      </trkpt>
      <trkpt lat="44.74404" lon="6.85788">
        <ele>2209.8</ele>
        <time>2026-03-23T12:52:34Z</time>
      </trkpt>
      <trkpt lat="44.74404" lon="6.85788">
        <ele>2209.8</ele>
        <time>2026-03-23T12:52:35Z</time>
      </trkpt>
      <trkpt lat="44.74404" lon="6.85788">
        <ele>2209.7</ele>
        <time>2026-03-23T12:52:36Z</time>
      </trkpt>
      <trkpt lat="44.74404" lon="6.85788">
        <ele>2209.7</ele>
        <time>2026-03-23T12:52:37Z</time>
      </trkpt>
      <trkpt lat="44.74404" lon="6.85788">
        <ele>2209.7</ele>
        <time>2026-03-23T12:52:38Z</time>
      </trkpt>
      <trkpt lat="44.74404" lon="6.85788">
        <ele>2209.7</ele>
        <time>2026-03-23T12:52:39Z</time>
      </trkpt>
      <trkpt lat="44.74404" lon="6.85788">
        <ele>2209.7</ele>
        <time>2026-03-23T12:52:40Z</time>
      </trkpt>
      <trkpt lat="44.74404" lon="6.85788">
        <ele>2209.7</ele>
        <time>2026-03-23T12:52:41Z</time>
      </trkpt>
      <trkpt lat="44.74404" lon="6.85789">
        <ele>2209.7</ele>
        <time>2026-03-23T12:52:42Z</time>
      </trkpt>
      <trkpt lat="44.74404" lon="6.85789">
        <ele>2209.7</ele>
        <time>2026-03-23T12:52:43Z</time>
      </trkpt>
      <trkpt lat="44.74404" lon="6.85789">
        <ele>2209.7</ele>
        <time>2026-03-23T12:52:44Z</time>
      </trkpt>
      <trkpt lat="44.74404" lon="6.85789">
        <ele>2209.6</ele>
        <time>2026-03-23T12:52:45Z</time>
      </trkpt>
      <trkpt lat="44.74404" lon="6.85789">
        <ele>2209.6</ele>
        <time>2026-03-23T12:52:46Z</time>
      </trkpt>
      <trkpt lat="44.74404" lon="6.85789">
        <ele>2209.6</ele>
        <time>2026-03-23T12:52:47Z</time>
      </trkpt>
      <trkpt lat="44.74404" lon="6.85788">
        <ele>2209.6</ele>
        <time>2026-03-23T12:52:48Z</time>
      </trkpt>
      <trkpt lat="44.74403" lon="6.85789">
        <ele>2209.6</ele>
        <time>2026-03-23T12:52:49Z</time>
      </trkpt>
      <trkpt lat="44.74404" lon="6.85789">
        <ele>2209.6</ele>
        <time>2026-03-23T12:52:50Z</time>
      </trkpt>
      <trkpt lat="44.74403" lon="6.85789">
        <ele>2209.6</ele>
        <time>2026-03-23T12:52:51Z</time>
      </trkpt>
      <trkpt lat="44.74403" lon="6.85789">
        <ele>2209.6</ele>
        <time>2026-03-23T12:52:52Z</time>
      </trkpt>
      <trkpt lat="44.74403" lon="6.85789">
        <ele>2209.6</ele>
        <time>2026-03-23T12:52:53Z</time>
      </trkpt>
      <trkpt lat="44.74403" lon="6.8579">
        <ele>2209.5</ele>
        <time>2026-03-23T12:52:54Z</time>
      </trkpt>
      <trkpt lat="44.74403" lon="6.8579">
        <ele>2209.5</ele>
        <time>2026-03-23T12:52:55Z</time>
      </trkpt>
      <trkpt lat="44.74403" lon="6.8579">
        <ele>2209.5</ele>
        <time>2026-03-23T12:52:56Z</time>
      </trkpt>
      <trkpt lat="44.74403" lon="6.8579">
        <ele>2209.5</ele>
        <time>2026-03-23T12:52:57Z</time>
      </trkpt>
      <trkpt lat="44.74403" lon="6.8579">
        <ele>2209.5</ele>
        <time>2026-03-23T12:52:58Z</time>
      </trkpt>
      <trkpt lat="44.74403" lon="6.8579">
        <ele>2209.5</ele>
        <time>2026-03-23T12:52:59Z</time>
      </trkpt>
      <trkpt lat="44.74403" lon="6.8579">
        <ele>2209.5</ele>
        <time>2026-03-23T12:53:00Z</time>
      </trkpt>
      <trkpt lat="44.74403" lon="6.8579">
        <ele>2209.5</ele>
        <time>2026-03-23T12:53:01Z</time>
      </trkpt>
      <trkpt lat="44.74403" lon="6.8579">
        <ele>2209.5</ele>
        <time>2026-03-23T12:53:02Z</time>
      </trkpt>
      <trkpt lat="44.74403" lon="6.8579">
        <ele>2209.4</ele>
        <time>2026-03-23T12:53:03Z</time>
      </trkpt>
      <trkpt lat="44.74403" lon="6.8579">
        <ele>2209.4</ele>
        <time>2026-03-23T12:53:04Z</time>
      </trkpt>
      <trkpt lat="44.74403" lon="6.8579">
        <ele>2209.4</ele>
        <time>2026-03-23T12:53:05Z</time>
      </trkpt>
      <trkpt lat="44.74403" lon="6.8579">
        <ele>2209.4</ele>
        <time>2026-03-23T12:53:06Z</time>
      </trkpt>
      <trkpt lat="44.74403" lon="6.8579">
        <ele>2209.4</ele>
        <time>2026-03-23T12:53:07Z</time>
      </trkpt>
      <trkpt lat="44.74403" lon="6.8579">
        <ele>2209.4</ele>
        <time>2026-03-23T12:53:08Z</time>
      </trkpt>
      <trkpt lat="44.74403" lon="6.8579">
        <ele>2209.4</ele>
        <time>2026-03-23T12:53:09Z</time>
      </trkpt>
      <trkpt lat="44.74403" lon="6.8579">
        <ele>2209.4</ele>
        <time>2026-03-23T12:53:10Z</time>
      </trkpt>
      <trkpt lat="44.74403" lon="6.8579">
        <ele>2209.4</ele>
        <time>2026-03-23T12:53:11Z</time>
      </trkpt>
      <trkpt lat="44.74403" lon="6.8579">
        <ele>2209.3</ele>
        <time>2026-03-23T12:53:12Z</time>
      </trkpt>
      <trkpt lat="44.74403" lon="6.8579">
        <ele>2209.3</ele>
        <time>2026-03-23T12:53:13Z</time>
      </trkpt>
      <trkpt lat="44.74403" lon="6.85791">
        <ele>2209.3</ele>
        <time>2026-03-23T12:53:14Z</time>
      </trkpt>
      <trkpt lat="44.74403" lon="6.85791">
        <ele>2209.3</ele>
        <time>2026-03-23T12:53:15Z</time>
      </trkpt>
      <trkpt lat="44.74403" lon="6.85791">
        <ele>2209.3</ele>
        <time>2026-03-23T12:53:16Z</time>
      </trkpt>
      <trkpt lat="44.74403" lon="6.85791">
        <ele>2209.3</ele>
        <time>2026-03-23T12:53:17Z</time>
      </trkpt>
      <trkpt lat="44.74403" lon="6.85791">
        <ele>2209.3</ele>
        <time>2026-03-23T12:53:18Z</time>
      </trkpt>
      <trkpt lat="44.74402" lon="6.85791">
        <ele>2209.3</ele>
        <time>2026-03-23T12:53:19Z</time>
      </trkpt>
      <trkpt lat="44.74402" lon="6.85791">
        <ele>2209.3</ele>
        <time>2026-03-23T12:53:20Z</time>
      </trkpt>
      <trkpt lat="44.74402" lon="6.85791">
        <ele>2209.2</ele>
        <time>2026-03-23T12:53:21Z</time>
      </trkpt>
      <trkpt lat="44.74402" lon="6.8579">
        <ele>2209.4</ele>
        <time>2026-03-23T12:53:22Z</time>
      </trkpt>
      <trkpt lat="44.74402" lon="6.8579">
        <ele>2209.4</ele>
        <time>2026-03-23T12:53:23Z</time>
      </trkpt>
      <trkpt lat="44.74402" lon="6.8579">
        <ele>2209.4</ele>
        <time>2026-03-23T12:53:24Z</time>
      </trkpt>
      <trkpt lat="44.74402" lon="6.8579">
        <ele>2209.4</ele>
        <time>2026-03-23T12:53:25Z</time>
      </trkpt>
      <trkpt lat="44.74402" lon="6.85789">
        <ele>2209.4</ele>
        <time>2026-03-23T12:53:26Z</time>
      </trkpt>
      <trkpt lat="44.74402" lon="6.85789">
        <ele>2209.3</ele>
        <time>2026-03-23T12:53:27Z</time>
      </trkpt>
      <trkpt lat="44.74402" lon="6.8579">
        <ele>2209.2</ele>
        <time>2026-03-23T12:53:28Z</time>
      </trkpt>
      <trkpt lat="44.74402" lon="6.8579">
        <ele>2209.2</ele>
        <time>2026-03-23T12:53:29Z</time>
      </trkpt>
      <trkpt lat="44.74402" lon="6.8579">
        <ele>2209.1</ele>
        <time>2026-03-23T12:53:30Z</time>
      </trkpt>
      <trkpt lat="44.74402" lon="6.8579">
        <ele>2209.1</ele>
        <time>2026-03-23T12:53:31Z</time>
      </trkpt>
      <trkpt lat="44.74402" lon="6.8579">
        <ele>2209.3</ele>
        <time>2026-03-23T12:53:32Z</time>
      </trkpt>
      <trkpt lat="44.74402" lon="6.8579">
        <ele>2209.3</ele>
        <time>2026-03-23T12:53:33Z</time>
      </trkpt>
      <trkpt lat="44.74402" lon="6.8579">
        <ele>2209.3</ele>
        <time>2026-03-23T12:53:34Z</time>
      </trkpt>
      <trkpt lat="44.74401" lon="6.8579">
        <ele>2209.3</ele>
        <time>2026-03-23T12:53:35Z</time>
      </trkpt>
      <trkpt lat="44.74401" lon="6.8579">
        <ele>2209.2</ele>
        <time>2026-03-23T12:53:36Z</time>
      </trkpt>
      <trkpt lat="44.74402" lon="6.8579">
        <ele>2209.2</ele>
        <time>2026-03-23T12:53:37Z</time>
      </trkpt>
      <trkpt lat="44.74402" lon="6.8579">
        <ele>2209.2</ele>
        <time>2026-03-23T12:53:38Z</time>
      </trkpt>
      <trkpt lat="44.74403" lon="6.8579">
        <ele>2209</ele>
        <time>2026-03-23T12:53:39Z</time>
      </trkpt>
      <trkpt lat="44.74403" lon="6.8579">
        <ele>2209</ele>
        <time>2026-03-23T12:53:40Z</time>
      </trkpt>
      <trkpt lat="44.74404" lon="6.8579">
        <ele>2209</ele>
        <time>2026-03-23T12:53:41Z</time>
      </trkpt>
      <trkpt lat="44.74404" lon="6.8579">
        <ele>2209</ele>
        <time>2026-03-23T12:53:42Z</time>
      </trkpt>
      <trkpt lat="44.74404" lon="6.8579">
        <ele>2209</ele>
        <time>2026-03-23T12:53:43Z</time>
      </trkpt>
      <trkpt lat="44.74403" lon="6.85789">
        <ele>2209</ele>
        <time>2026-03-23T12:53:44Z</time>
      </trkpt>
      <trkpt lat="44.74403" lon="6.85789">
        <ele>2209</ele>
        <time>2026-03-23T12:53:45Z</time>
      </trkpt>
      <trkpt lat="44.74403" lon="6.85789">
        <ele>2209</ele>
        <time>2026-03-23T12:53:46Z</time>
      </trkpt>
      <trkpt lat="44.74403" lon="6.85789">
        <ele>2209</ele>
        <time>2026-03-23T12:53:47Z</time>
      </trkpt>
      <trkpt lat="44.74403" lon="6.85789">
        <ele>2208.9</ele>
        <time>2026-03-23T12:53:48Z</time>
      </trkpt>
      <trkpt lat="44.74403" lon="6.85788">
        <ele>2208.9</ele>
        <time>2026-03-23T12:53:49Z</time>
      </trkpt>
      <trkpt lat="44.74403" lon="6.85788">
        <ele>2208.9</ele>
        <time>2026-03-23T12:53:50Z</time>
      </trkpt>
      <trkpt lat="44.74403" lon="6.85788">
        <ele>2208.9</ele>
        <time>2026-03-23T12:53:51Z</time>
      </trkpt>
      <trkpt lat="44.74403" lon="6.85788">
        <ele>2208.9</ele>
        <time>2026-03-23T12:53:52Z</time>
      </trkpt>
      <trkpt lat="44.74403" lon="6.85787">
        <ele>2208.9</ele>
        <time>2026-03-23T12:53:53Z</time>
      </trkpt>
      <trkpt lat="44.74403" lon="6.85787">
        <ele>2208.9</ele>
        <time>2026-03-23T12:53:54Z</time>
      </trkpt>
      <trkpt lat="44.74403" lon="6.85787">
        <ele>2208.9</ele>
        <time>2026-03-23T12:53:55Z</time>
      </trkpt>
      <trkpt lat="44.74403" lon="6.85787">
        <ele>2208.9</ele>
        <time>2026-03-23T12:53:56Z</time>
      </trkpt>
      <trkpt lat="44.74403" lon="6.85787">
        <ele>2208.8</ele>
        <time>2026-03-23T12:53:57Z</time>
      </trkpt>
      <trkpt lat="44.74403" lon="6.85787">
        <ele>2208.8</ele>
        <time>2026-03-23T12:53:58Z</time>
      </trkpt>
      <trkpt lat="44.74403" lon="6.85787">
        <ele>2208.8</ele>
        <time>2026-03-23T12:53:59Z</time>
      </trkpt>
      <trkpt lat="44.74403" lon="6.85787">
        <ele>2208.8</ele>
        <time>2026-03-23T12:54:00Z</time>
      </trkpt>
      <trkpt lat="44.74403" lon="6.85787">
        <ele>2208.8</ele>
        <time>2026-03-23T12:54:01Z</time>
      </trkpt>
      <trkpt lat="44.74403" lon="6.85787">
        <ele>2208.8</ele>
        <time>2026-03-23T12:54:02Z</time>
      </trkpt>
      <trkpt lat="44.74403" lon="6.85787">
        <ele>2208.8</ele>
        <time>2026-03-23T12:54:03Z</time>
      </trkpt>
      <trkpt lat="44.74403" lon="6.85787">
        <ele>2208.8</ele>
        <time>2026-03-23T12:54:04Z</time>
      </trkpt>
      <trkpt lat="44.74403" lon="6.85787">
        <ele>2208.8</ele>
        <time>2026-03-23T12:54:05Z</time>
      </trkpt>
      <trkpt lat="44.74403" lon="6.85787">
        <ele>2208.7</ele>
        <time>2026-03-23T12:54:06Z</time>
      </trkpt>
      <trkpt lat="44.74403" lon="6.85787">
        <ele>2208.7</ele>
        <time>2026-03-23T12:54:07Z</time>
      </trkpt>
      <trkpt lat="44.74403" lon="6.85787">
        <ele>2208.7</ele>
        <time>2026-03-23T12:54:08Z</time>
      </trkpt>
      <trkpt lat="44.74403" lon="6.85787">
        <ele>2208.7</ele>
        <time>2026-03-23T12:54:09Z</time>
      </trkpt>
      <trkpt lat="44.74403" lon="6.85787">
        <ele>2208.7</ele>
        <time>2026-03-23T12:54:10Z</time>
      </trkpt>
      <trkpt lat="44.74403" lon="6.85787">
        <ele>2208.7</ele>
        <time>2026-03-23T12:54:11Z</time>
      </trkpt>
      <trkpt lat="44.74403" lon="6.85787">
        <ele>2208.7</ele>
        <time>2026-03-23T12:54:12Z</time>
      </trkpt>
      <trkpt lat="44.74403" lon="6.85787">
        <ele>2208.7</ele>
        <time>2026-03-23T12:54:13Z</time>
      </trkpt>
      <trkpt lat="44.74403" lon="6.85787">
        <ele>2208.7</ele>
        <time>2026-03-23T12:54:14Z</time>
      </trkpt>
      <trkpt lat="44.74403" lon="6.85787">
        <ele>2208.6</ele>
        <time>2026-03-23T12:54:15Z</time>
      </trkpt>
      <trkpt lat="44.74403" lon="6.85788">
        <ele>2208.6</ele>
        <time>2026-03-23T12:54:16Z</time>
      </trkpt>
      <trkpt lat="44.74403" lon="6.85788">
        <ele>2208.6</ele>
        <time>2026-03-23T12:54:17Z</time>
      </trkpt>
      <trkpt lat="44.74403" lon="6.85788">
        <ele>2208.6</ele>
        <time>2026-03-23T12:54:18Z</time>
      </trkpt>
      <trkpt lat="44.74403" lon="6.85788">
        <ele>2208.6</ele>
        <time>2026-03-23T12:54:19Z</time>
      </trkpt>
      <trkpt lat="44.74403" lon="6.85788">
        <ele>2208.6</ele>
        <time>2026-03-23T12:54:20Z</time>
      </trkpt>
      <trkpt lat="44.74403" lon="6.85788">
        <ele>2208.6</ele>
        <time>2026-03-23T12:54:21Z</time>
      </trkpt>
      <trkpt lat="44.74403" lon="6.85788">
        <ele>2208.6</ele>
        <time>2026-03-23T12:54:22Z</time>
      </trkpt>
      <trkpt lat="44.74403" lon="6.85788">
        <ele>2208.6</ele>
        <time>2026-03-23T12:54:23Z</time>
      </trkpt>
      <trkpt lat="44.74403" lon="6.85788">
        <ele>2208.6</ele>
        <time>2026-03-23T12:54:24Z</time>
      </trkpt>
      <trkpt lat="44.74403" lon="6.85788">
        <ele>2208.5</ele>
        <time>2026-03-23T12:54:25Z</time>
      </trkpt>
      <trkpt lat="44.74403" lon="6.85788">
        <ele>2208.5</ele>
        <time>2026-03-23T12:54:26Z</time>
      </trkpt>
      <trkpt lat="44.74403" lon="6.85788">
        <ele>2208.5</ele>
        <time>2026-03-23T12:54:27Z</time>
      </trkpt>
      <trkpt lat="44.74403" lon="6.85788">
        <ele>2208.5</ele>
        <time>2026-03-23T12:54:28Z</time>
      </trkpt>
      <trkpt lat="44.74403" lon="6.85788">
        <ele>2208.5</ele>
        <time>2026-03-23T12:54:29Z</time>
      </trkpt>
      <trkpt lat="44.74403" lon="6.85788">
        <ele>2208.5</ele>
        <time>2026-03-23T12:54:30Z</time>
      </trkpt>
      <trkpt lat="44.74403" lon="6.85788">
        <ele>2208.5</ele>
        <time>2026-03-23T12:54:31Z</time>
      </trkpt>
      <trkpt lat="44.74403" lon="6.85788">
        <ele>2208.5</ele>
        <time>2026-03-23T12:54:32Z</time>
      </trkpt>
      <trkpt lat="44.74403" lon="6.85788">
        <ele>2208.5</ele>
        <time>2026-03-23T12:54:33Z</time>
      </trkpt>
      <trkpt lat="44.74403" lon="6.85788">
        <ele>2208.4</ele>
        <time>2026-03-23T12:54:34Z</time>
      </trkpt>
      <trkpt lat="44.74403" lon="6.85788">
        <ele>2208.4</ele>
        <time>2026-03-23T12:54:35Z</time>
      </trkpt>
      <trkpt lat="44.74403" lon="6.85788">
        <ele>2208.4</ele>
        <time>2026-03-23T12:54:36Z</time>
      </trkpt>
      <trkpt lat="44.74403" lon="6.85788">
        <ele>2208.4</ele>
        <time>2026-03-23T12:54:37Z</time>
      </trkpt>
      <trkpt lat="44.74403" lon="6.85788">
        <ele>2208.4</ele>
        <time>2026-03-23T12:54:38Z</time>
      </trkpt>
      <trkpt lat="44.74403" lon="6.85788">
        <ele>2208.4</ele>
        <time>2026-03-23T12:54:39Z</time>
      </trkpt>
      <trkpt lat="44.74403" lon="6.85788">
        <ele>2208.4</ele>
        <time>2026-03-23T12:54:40Z</time>
      </trkpt>
      <trkpt lat="44.74403" lon="6.85788">
        <ele>2208.4</ele>
        <time>2026-03-23T12:54:41Z</time>
      </trkpt>
      <trkpt lat="44.74403" lon="6.85788">
        <ele>2208.4</ele>
        <time>2026-03-23T12:54:42Z</time>
      </trkpt>
      <trkpt lat="44.74403" lon="6.85788">
        <ele>2208.3</ele>
        <time>2026-03-23T12:54:43Z</time>
      </trkpt>
      <trkpt lat="44.74403" lon="6.85788">
        <ele>2208.3</ele>
        <time>2026-03-23T12:54:44Z</time>
      </trkpt>
      <trkpt lat="44.74403" lon="6.85788">
        <ele>2208.3</ele>
        <time>2026-03-23T12:54:45Z</time>
      </trkpt>
      <trkpt lat="44.74403" lon="6.85788">
        <ele>2208.3</ele>
        <time>2026-03-23T12:54:46Z</time>
      </trkpt>
      <trkpt lat="44.74403" lon="6.85788">
        <ele>2208.3</ele>
        <time>2026-03-23T12:54:47Z</time>
      </trkpt>
      <trkpt lat="44.74403" lon="6.85788">
        <ele>2208.3</ele>
        <time>2026-03-23T12:54:48Z</time>
      </trkpt>
      <trkpt lat="44.74403" lon="6.85788">
        <ele>2208.3</ele>
        <time>2026-03-23T12:54:49Z</time>
      </trkpt>
      <trkpt lat="44.74403" lon="6.85788">
        <ele>2208.3</ele>
        <time>2026-03-23T12:54:50Z</time>
      </trkpt>
      <trkpt lat="44.74403" lon="6.85788">
        <ele>2208.3</ele>
        <time>2026-03-23T12:54:51Z</time>
      </trkpt>
      <trkpt lat="44.74403" lon="6.85788">
        <ele>2208.2</ele>
        <time>2026-03-23T12:54:52Z</time>
      </trkpt>
      <trkpt lat="44.74403" lon="6.85788">
        <ele>2208.2</ele>
        <time>2026-03-23T12:54:53Z</time>
      </trkpt>
      <trkpt lat="44.74403" lon="6.85788">
        <ele>2208.2</ele>
        <time>2026-03-23T12:54:54Z</time>
      </trkpt>
      <trkpt lat="44.74403" lon="6.85788">
        <ele>2208.2</ele>
        <time>2026-03-23T12:54:55Z</time>
      </trkpt>
      <trkpt lat="44.74403" lon="6.85788">
        <ele>2208.2</ele>
        <time>2026-03-23T12:54:56Z</time>
      </trkpt>
      <trkpt lat="44.74403" lon="6.85788">
        <ele>2208.2</ele>
        <time>2026-03-23T12:54:57Z</time>
      </trkpt>
      <trkpt lat="44.74403" lon="6.85788">
        <ele>2208.2</ele>
        <time>2026-03-23T12:54:58Z</time>
      </trkpt>
      <trkpt lat="44.74403" lon="6.85788">
        <ele>2208.2</ele>
        <time>2026-03-23T12:54:59Z</time>
      </trkpt>
      <trkpt lat="44.74403" lon="6.85788">
        <ele>2208.2</ele>
        <time>2026-03-23T12:55:00Z</time>
      </trkpt>
      <trkpt lat="44.74403" lon="6.85788">
        <ele>2208.1</ele>
        <time>2026-03-23T12:55:01Z</time>
      </trkpt>
      <trkpt lat="44.74403" lon="6.85788">
        <ele>2208.1</ele>
        <time>2026-03-23T12:55:02Z</time>
      </trkpt>
      <trkpt lat="44.74403" lon="6.85788">
        <ele>2208.1</ele>
        <time>2026-03-23T12:55:03Z</time>
      </trkpt>
      <trkpt lat="44.74403" lon="6.85788">
        <ele>2208.1</ele>
        <time>2026-03-23T12:55:04Z</time>
      </trkpt>
      <trkpt lat="44.74403" lon="6.85788">
        <ele>2208.1</ele>
        <time>2026-03-23T12:55:05Z</time>
      </trkpt>
      <trkpt lat="44.74403" lon="6.85788">
        <ele>2208.1</ele>
        <time>2026-03-23T12:55:06Z</time>
      </trkpt>
      <trkpt lat="44.74403" lon="6.85788">
        <ele>2208.1</ele>
        <time>2026-03-23T12:55:07Z</time>
      </trkpt>
      <trkpt lat="44.74403" lon="6.85788">
        <ele>2208.1</ele>
        <time>2026-03-23T12:55:08Z</time>
      </trkpt>
      <trkpt lat="44.74403" lon="6.85788">
        <ele>2208.1</ele>
        <time>2026-03-23T12:55:09Z</time>
      </trkpt>
      <trkpt lat="44.74403" lon="6.85788">
        <ele>2208</ele>
        <time>2026-03-23T12:55:10Z</time>
      </trkpt>
      <trkpt lat="44.74403" lon="6.85788">
        <ele>2208</ele>
        <time>2026-03-23T12:55:11Z</time>
      </trkpt>
      <trkpt lat="44.74403" lon="6.85788">
        <ele>2208</ele>
        <time>2026-03-23T12:55:12Z</time>
      </trkpt>
      <trkpt lat="44.74403" lon="6.85788">
        <ele>2208</ele>
        <time>2026-03-23T12:55:13Z</time>
      </trkpt>
      <trkpt lat="44.74403" lon="6.85788">
        <ele>2208</ele>
        <time>2026-03-23T12:55:14Z</time>
      </trkpt>
      <trkpt lat="44.74403" lon="6.85788">
        <ele>2208</ele>
        <time>2026-03-23T12:55:15Z</time>
      </trkpt>
      <trkpt lat="44.74403" lon="6.85788">
        <ele>2208</ele>
        <time>2026-03-23T12:55:16Z</time>
      </trkpt>
      <trkpt lat="44.74403" lon="6.85788">
        <ele>2208</ele>
        <time>2026-03-23T12:55:17Z</time>
      </trkpt>
      <trkpt lat="44.74403" lon="6.85788">
        <ele>2208</ele>
        <time>2026-03-23T12:55:18Z</time>
      </trkpt>
      <trkpt lat="44.74403" lon="6.85788">
        <ele>2207.9</ele>
        <time>2026-03-23T12:55:19Z</time>
      </trkpt>
      <trkpt lat="44.74403" lon="6.85788">
        <ele>2207.9</ele>
        <time>2026-03-23T12:55:20Z</time>
      </trkpt>
      <trkpt lat="44.74403" lon="6.85788">
        <ele>2207.9</ele>
        <time>2026-03-23T12:55:21Z</time>
      </trkpt>
      <trkpt lat="44.74403" lon="6.85788">
        <ele>2207.9</ele>
        <time>2026-03-23T12:55:22Z</time>
      </trkpt>
      <trkpt lat="44.74403" lon="6.85788">
        <ele>2207.9</ele>
        <time>2026-03-23T12:55:23Z</time>
      </trkpt>
      <trkpt lat="44.74403" lon="6.85788">
        <ele>2207.9</ele>
        <time>2026-03-23T12:55:24Z</time>
      </trkpt>
      <trkpt lat="44.74403" lon="6.85788">
        <ele>2207.9</ele>
        <time>2026-03-23T12:55:25Z</time>
      </trkpt>
      <trkpt lat="44.74403" lon="6.85788">
        <ele>2207.9</ele>
        <time>2026-03-23T12:55:26Z</time>
      </trkpt>
      <trkpt lat="44.74403" lon="6.85788">
        <ele>2207.9</ele>
        <time>2026-03-23T12:55:27Z</time>
      </trkpt>
      <trkpt lat="44.74403" lon="6.85788">
        <ele>2207.8</ele>
        <time>2026-03-23T12:55:28Z</time>
      </trkpt>
      <trkpt lat="44.74403" lon="6.85789">
        <ele>2207.8</ele>
        <time>2026-03-23T12:55:29Z</time>
      </trkpt>
      <trkpt lat="44.74403" lon="6.85789">
        <ele>2207.8</ele>
        <time>2026-03-23T12:55:30Z</time>
      </trkpt>
      <trkpt lat="44.74403" lon="6.85789">
        <ele>2207.8</ele>
        <time>2026-03-23T12:55:31Z</time>
      </trkpt>
      <trkpt lat="44.74403" lon="6.8579">
        <ele>2207.8</ele>
        <time>2026-03-23T12:55:32Z</time>
      </trkpt>
      <trkpt lat="44.74403" lon="6.8579">
        <ele>2207.8</ele>
        <time>2026-03-23T12:55:33Z</time>
      </trkpt>
      <trkpt lat="44.74403" lon="6.8579">
        <ele>2207.8</ele>
        <time>2026-03-23T12:55:34Z</time>
      </trkpt>
      <trkpt lat="44.74403" lon="6.8579">
        <ele>2207.8</ele>
        <time>2026-03-23T12:55:35Z</time>
      </trkpt>
      <trkpt lat="44.74403" lon="6.85791">
        <ele>2207.8</ele>
        <time>2026-03-23T12:55:36Z</time>
      </trkpt>
      <trkpt lat="44.74402" lon="6.85791">
        <ele>2207.7</ele>
        <time>2026-03-23T12:55:37Z</time>
      </trkpt>
      <trkpt lat="44.74402" lon="6.85791">
        <ele>2207.7</ele>
        <time>2026-03-23T12:55:38Z</time>
      </trkpt>
      <trkpt lat="44.74402" lon="6.85791">
        <ele>2207.7</ele>
        <time>2026-03-23T12:55:39Z</time>
      </trkpt>
      <trkpt lat="44.74402" lon="6.85791">
        <ele>2207.7</ele>
        <time>2026-03-23T12:55:40Z</time>
      </trkpt>
      <trkpt lat="44.74402" lon="6.85791">
        <ele>2207.7</ele>
        <time>2026-03-23T12:55:41Z</time>
      </trkpt>
      <trkpt lat="44.74402" lon="6.85791">
        <ele>2207.7</ele>
        <time>2026-03-23T12:55:42Z</time>
      </trkpt>
      <trkpt lat="44.74402" lon="6.85791">
        <ele>2207.7</ele>
        <time>2026-03-23T12:55:43Z</time>
      </trkpt>
      <trkpt lat="44.74402" lon="6.85791">
        <ele>2207.7</ele>
        <time>2026-03-23T12:55:44Z</time>
      </trkpt>
      <trkpt lat="44.74402" lon="6.85791">
        <ele>2207.7</ele>
        <time>2026-03-23T12:55:45Z</time>
      </trkpt>
      <trkpt lat="44.74402" lon="6.85791">
        <ele>2207.6</ele>
        <time>2026-03-23T12:55:46Z</time>
      </trkpt>
      <trkpt lat="44.74402" lon="6.85791">
        <ele>2207.8</ele>
        <time>2026-03-23T12:55:47Z</time>
      </trkpt>
      <trkpt lat="44.74402" lon="6.85791">
        <ele>2207.8</ele>
        <time>2026-03-23T12:55:48Z</time>
      </trkpt>
      <trkpt lat="44.74402" lon="6.85791">
        <ele>2207.8</ele>
        <time>2026-03-23T12:55:49Z</time>
      </trkpt>
      <trkpt lat="44.74402" lon="6.85791">
        <ele>2207.8</ele>
        <time>2026-03-23T12:55:50Z</time>
      </trkpt>
      <trkpt lat="44.74402" lon="6.85791">
        <ele>2207.8</ele>
        <time>2026-03-23T12:55:51Z</time>
      </trkpt>
      <trkpt lat="44.74402" lon="6.85791">
        <ele>2207.7</ele>
        <time>2026-03-23T12:55:52Z</time>
      </trkpt>
      <trkpt lat="44.74402" lon="6.85791">
        <ele>2207.7</ele>
        <time>2026-03-23T12:55:53Z</time>
      </trkpt>
      <trkpt lat="44.74402" lon="6.85791">
        <ele>2207.7</ele>
        <time>2026-03-23T12:55:54Z</time>
      </trkpt>
      <trkpt lat="44.74402" lon="6.85791">
        <ele>2207.7</ele>
        <time>2026-03-23T12:55:55Z</time>
      </trkpt>
      <trkpt lat="44.74402" lon="6.85791">
        <ele>2207.7</ele>
        <time>2026-03-23T12:55:56Z</time>
      </trkpt>
      <trkpt lat="44.74402" lon="6.85791">
        <ele>2207.7</ele>
        <time>2026-03-23T12:55:57Z</time>
      </trkpt>
      <trkpt lat="44.74402" lon="6.85791">
        <ele>2207.7</ele>
        <time>2026-03-23T12:55:58Z</time>
      </trkpt>
      <trkpt lat="44.74402" lon="6.85791">
        <ele>2207.7</ele>
        <time>2026-03-23T12:55:59Z</time>
      </trkpt>
      <trkpt lat="44.74402" lon="6.85791">
        <ele>2207.7</ele>
        <time>2026-03-23T12:56:00Z</time>
      </trkpt>
      <trkpt lat="44.74402" lon="6.85791">
        <ele>2207.6</ele>
        <time>2026-03-23T12:56:01Z</time>
      </trkpt>
      <trkpt lat="44.74402" lon="6.85791">
        <ele>2207.6</ele>
        <time>2026-03-23T12:56:02Z</time>
      </trkpt>
      <trkpt lat="44.74402" lon="6.85791">
        <ele>2207.6</ele>
        <time>2026-03-23T12:56:03Z</time>
      </trkpt>
      <trkpt lat="44.74402" lon="6.85791">
        <ele>2207.6</ele>
        <time>2026-03-23T12:56:04Z</time>
      </trkpt>
      <trkpt lat="44.74402" lon="6.85791">
        <ele>2207.6</ele>
        <time>2026-03-23T12:56:05Z</time>
      </trkpt>
      <trkpt lat="44.74402" lon="6.85791">
        <ele>2207.6</ele>
        <time>2026-03-23T12:56:06Z</time>
      </trkpt>
      <trkpt lat="44.74402" lon="6.85791">
        <ele>2207.6</ele>
        <time>2026-03-23T12:56:07Z</time>
      </trkpt>
      <trkpt lat="44.74402" lon="6.85791">
        <ele>2207.6</ele>
        <time>2026-03-23T12:56:08Z</time>
      </trkpt>
      <trkpt lat="44.74402" lon="6.85791">
        <ele>2207.6</ele>
        <time>2026-03-23T12:56:09Z</time>
      </trkpt>
      <trkpt lat="44.74402" lon="6.85791">
        <ele>2207.5</ele>
        <time>2026-03-23T12:56:10Z</time>
      </trkpt>
      <trkpt lat="44.74402" lon="6.85791">
        <ele>2207.5</ele>
        <time>2026-03-23T12:56:11Z</time>
      </trkpt>
      <trkpt lat="44.74402" lon="6.85791">
        <ele>2207.5</ele>
        <time>2026-03-23T12:56:12Z</time>
      </trkpt>
      <trkpt lat="44.74402" lon="6.85791">
        <ele>2207.5</ele>
        <time>2026-03-23T12:56:13Z</time>
      </trkpt>
      <trkpt lat="44.74402" lon="6.85791">
        <ele>2207.5</ele>
        <time>2026-03-23T12:56:14Z</time>
      </trkpt>
      <trkpt lat="44.74402" lon="6.85791">
        <ele>2207.5</ele>
        <time>2026-03-23T12:56:15Z</time>
      </trkpt>
      <trkpt lat="44.74402" lon="6.85791">
        <ele>2207.5</ele>
        <time>2026-03-23T12:56:16Z</time>
      </trkpt>
      <trkpt lat="44.74402" lon="6.85791">
        <ele>2207.5</ele>
        <time>2026-03-23T12:56:17Z</time>
      </trkpt>
      <trkpt lat="44.74402" lon="6.85791">
        <ele>2207.5</ele>
        <time>2026-03-23T12:56:18Z</time>
      </trkpt>
      <trkpt lat="44.74402" lon="6.85791">
        <ele>2207.4</ele>
        <time>2026-03-23T12:56:19Z</time>
      </trkpt>
      <trkpt lat="44.74402" lon="6.85791">
        <ele>2207.4</ele>
        <time>2026-03-23T12:56:20Z</time>
      </trkpt>
      <trkpt lat="44.74402" lon="6.85791">
        <ele>2207.4</ele>
        <time>2026-03-23T12:56:21Z</time>
      </trkpt>
      <trkpt lat="44.74402" lon="6.85791">
        <ele>2207.4</ele>
        <time>2026-03-23T12:56:22Z</time>
      </trkpt>
      <trkpt lat="44.74402" lon="6.85791">
        <ele>2207.4</ele>
        <time>2026-03-23T12:56:23Z</time>
      </trkpt>
      <trkpt lat="44.74402" lon="6.85791">
        <ele>2207.4</ele>
        <time>2026-03-23T12:56:24Z</time>
      </trkpt>
      <trkpt lat="44.74402" lon="6.85791">
        <ele>2207.4</ele>
        <time>2026-03-23T12:56:25Z</time>
      </trkpt>
      <trkpt lat="44.74402" lon="6.85791">
        <ele>2207.4</ele>
        <time>2026-03-23T12:56:26Z</time>
      </trkpt>
      <trkpt lat="44.74402" lon="6.85791">
        <ele>2207.4</ele>
        <time>2026-03-23T12:56:27Z</time>
      </trkpt>
      <trkpt lat="44.74402" lon="6.85791">
        <ele>2207.3</ele>
        <time>2026-03-23T12:56:28Z</time>
      </trkpt>
      <trkpt lat="44.74402" lon="6.85791">
        <ele>2207.3</ele>
        <time>2026-03-23T12:56:29Z</time>
      </trkpt>
      <trkpt lat="44.74402" lon="6.85791">
        <ele>2207.3</ele>
        <time>2026-03-23T12:56:30Z</time>
      </trkpt>
      <trkpt lat="44.74402" lon="6.85791">
        <ele>2207.3</ele>
        <time>2026-03-23T12:56:31Z</time>
      </trkpt>
      <trkpt lat="44.74402" lon="6.85791">
        <ele>2207.3</ele>
        <time>2026-03-23T12:56:32Z</time>
      </trkpt>
      <trkpt lat="44.74402" lon="6.85791">
        <ele>2207.3</ele>
        <time>2026-03-23T12:56:33Z</time>
      </trkpt>
      <trkpt lat="44.74402" lon="6.85791">
        <ele>2207.3</ele>
        <time>2026-03-23T12:56:34Z</time>
      </trkpt>
      <trkpt lat="44.74402" lon="6.85791">
        <ele>2207.3</ele>
        <time>2026-03-23T12:56:35Z</time>
      </trkpt>
      <trkpt lat="44.74402" lon="6.85791">
        <ele>2207.3</ele>
        <time>2026-03-23T12:56:36Z</time>
      </trkpt>
      <trkpt lat="44.74402" lon="6.85791">
        <ele>2207.2</ele>
        <time>2026-03-23T12:56:37Z</time>
      </trkpt>
      <trkpt lat="44.74402" lon="6.85791">
        <ele>2207.2</ele>
        <time>2026-03-23T12:56:38Z</time>
      </trkpt>
      <trkpt lat="44.74402" lon="6.85791">
        <ele>2207.2</ele>
        <time>2026-03-23T12:56:39Z</time>
      </trkpt>
      <trkpt lat="44.74402" lon="6.85791">
        <ele>2207.2</ele>
        <time>2026-03-23T12:56:40Z</time>
      </trkpt>
      <trkpt lat="44.74402" lon="6.85791">
        <ele>2207.2</ele>
        <time>2026-03-23T12:56:41Z</time>
      </trkpt>
      <trkpt lat="44.74402" lon="6.85791">
        <ele>2207.2</ele>
        <time>2026-03-23T12:56:42Z</time>
      </trkpt>
      <trkpt lat="44.74402" lon="6.85791">
        <ele>2207.2</ele>
        <time>2026-03-23T12:56:43Z</time>
      </trkpt>
      <trkpt lat="44.74402" lon="6.85791">
        <ele>2207.2</ele>
        <time>2026-03-23T12:56:44Z</time>
      </trkpt>
      <trkpt lat="44.74402" lon="6.85791">
        <ele>2207.2</ele>
        <time>2026-03-23T12:56:45Z</time>
      </trkpt>
      <trkpt lat="44.74402" lon="6.85791">
        <ele>2207.1</ele>
        <time>2026-03-23T12:56:46Z</time>
      </trkpt>
      <trkpt lat="44.74402" lon="6.85791">
        <ele>2207.1</ele>
        <time>2026-03-23T12:56:47Z</time>
      </trkpt>
      <trkpt lat="44.74402" lon="6.85791">
        <ele>2207.1</ele>
        <time>2026-03-23T12:56:48Z</time>
      </trkpt>
      <trkpt lat="44.74402" lon="6.85791">
        <ele>2207.1</ele>
        <time>2026-03-23T12:56:49Z</time>
      </trkpt>
      <trkpt lat="44.74402" lon="6.85791">
        <ele>2207.1</ele>
        <time>2026-03-23T12:56:50Z</time>
      </trkpt>
      <trkpt lat="44.74402" lon="6.85792">
        <ele>2208.4</ele>
        <time>2026-03-23T12:56:51Z</time>
      </trkpt>
      <trkpt lat="44.74402" lon="6.85792">
        <ele>2208.4</ele>
        <time>2026-03-23T12:56:52Z</time>
      </trkpt>
      <trkpt lat="44.74402" lon="6.85792">
        <ele>2208.4</ele>
        <time>2026-03-23T12:56:53Z</time>
      </trkpt>
      <trkpt lat="44.74402" lon="6.85792">
        <ele>2208.4</ele>
        <time>2026-03-23T12:56:54Z</time>
      </trkpt>
      <trkpt lat="44.74402" lon="6.85792">
        <ele>2208.4</ele>
        <time>2026-03-23T12:56:55Z</time>
      </trkpt>
      <trkpt lat="44.74402" lon="6.85792">
        <ele>2208.4</ele>
        <time>2026-03-23T12:56:56Z</time>
      </trkpt>
      <trkpt lat="44.74402" lon="6.85792">
        <ele>2208.4</ele>
        <time>2026-03-23T12:56:57Z</time>
      </trkpt>
      <trkpt lat="44.74402" lon="6.85792">
        <ele>2208.4</ele>
        <time>2026-03-23T12:56:58Z</time>
      </trkpt>
      <trkpt lat="44.74402" lon="6.85792">
        <ele>2208.3</ele>
        <time>2026-03-23T12:56:59Z</time>
      </trkpt>
      <trkpt lat="44.74402" lon="6.85792">
        <ele>2208.3</ele>
        <time>2026-03-23T12:57:00Z</time>
      </trkpt>
      <trkpt lat="44.74402" lon="6.85792">
        <ele>2208.3</ele>
        <time>2026-03-23T12:57:01Z</time>
      </trkpt>
      <trkpt lat="44.74402" lon="6.85792">
        <ele>2208.3</ele>
        <time>2026-03-23T12:57:02Z</time>
      </trkpt>
      <trkpt lat="44.74402" lon="6.85792">
        <ele>2208.3</ele>
        <time>2026-03-23T12:57:03Z</time>
      </trkpt>
      <trkpt lat="44.74402" lon="6.85792">
        <ele>2208.3</ele>
        <time>2026-03-23T12:57:04Z</time>
      </trkpt>
      <trkpt lat="44.74402" lon="6.85792">
        <ele>2208.3</ele>
        <time>2026-03-23T12:57:05Z</time>
      </trkpt>
      <trkpt lat="44.74402" lon="6.85792">
        <ele>2208.3</ele>
        <time>2026-03-23T12:57:06Z</time>
      </trkpt>
      <trkpt lat="44.74402" lon="6.85792">
        <ele>2208.3</ele>
        <time>2026-03-23T12:57:07Z</time>
      </trkpt>
      <trkpt lat="44.74402" lon="6.85792">
        <ele>2208.2</ele>
        <time>2026-03-23T12:57:08Z</time>
      </trkpt>
      <trkpt lat="44.74402" lon="6.85792">
        <ele>2208.2</ele>
        <time>2026-03-23T12:57:09Z</time>
      </trkpt>
      <trkpt lat="44.74402" lon="6.85792">
        <ele>2208.2</ele>
        <time>2026-03-23T12:57:10Z</time>
      </trkpt>
      <trkpt lat="44.74402" lon="6.85792">
        <ele>2208.2</ele>
        <time>2026-03-23T12:57:11Z</time>
      </trkpt>
      <trkpt lat="44.74402" lon="6.85792">
        <ele>2208.2</ele>
        <time>2026-03-23T12:57:12Z</time>
      </trkpt>
      <trkpt lat="44.74402" lon="6.85793">
        <ele>2208</ele>
        <time>2026-03-23T12:57:13Z</time>
      </trkpt>
      <trkpt lat="44.74402" lon="6.85793">
        <ele>2208</ele>
        <time>2026-03-23T12:57:14Z</time>
      </trkpt>
      <trkpt lat="44.74402" lon="6.85793">
        <ele>2208.2</ele>
        <time>2026-03-23T12:57:15Z</time>
      </trkpt>
      <trkpt lat="44.74402" lon="6.85794">
        <ele>2208.2</ele>
        <time>2026-03-23T12:57:16Z</time>
      </trkpt>
      <trkpt lat="44.74402" lon="6.85794">
        <ele>2208.1</ele>
        <time>2026-03-23T12:57:17Z</time>
      </trkpt>
      <trkpt lat="44.74402" lon="6.85794">
        <ele>2208.1</ele>
        <time>2026-03-23T12:57:18Z</time>
      </trkpt>
      <trkpt lat="44.74402" lon="6.85794">
        <ele>2208.1</ele>
        <time>2026-03-23T12:57:19Z</time>
      </trkpt>
      <trkpt lat="44.74401" lon="6.85794">
        <ele>2208.1</ele>
        <time>2026-03-23T12:57:20Z</time>
      </trkpt>
      <trkpt lat="44.74401" lon="6.85794">
        <ele>2208.1</ele>
        <time>2026-03-23T12:57:21Z</time>
      </trkpt>
      <trkpt lat="44.74401" lon="6.85795">
        <ele>2208.1</ele>
        <time>2026-03-23T12:57:22Z</time>
      </trkpt>
      <trkpt lat="44.74401" lon="6.85795">
        <ele>2208.1</ele>
        <time>2026-03-23T12:57:23Z</time>
      </trkpt>
      <trkpt lat="44.74401" lon="6.85795">
        <ele>2208.1</ele>
        <time>2026-03-23T12:57:24Z</time>
      </trkpt>
      <trkpt lat="44.74401" lon="6.85795">
        <ele>2208.1</ele>
        <time>2026-03-23T12:57:25Z</time>
      </trkpt>
      <trkpt lat="44.74401" lon="6.85795">
        <ele>2208</ele>
        <time>2026-03-23T12:57:26Z</time>
      </trkpt>
      <trkpt lat="44.74401" lon="6.85795">
        <ele>2208</ele>
        <time>2026-03-23T12:57:27Z</time>
      </trkpt>
      <trkpt lat="44.74401" lon="6.85795">
        <ele>2208</ele>
        <time>2026-03-23T12:57:28Z</time>
      </trkpt>
      <trkpt lat="44.74401" lon="6.85795">
        <ele>2208</ele>
        <time>2026-03-23T12:57:29Z</time>
      </trkpt>
      <trkpt lat="44.74401" lon="6.85795">
        <ele>2208</ele>
        <time>2026-03-23T12:57:30Z</time>
      </trkpt>
      <trkpt lat="44.74401" lon="6.85795">
        <ele>2208</ele>
        <time>2026-03-23T12:57:31Z</time>
      </trkpt>
      <trkpt lat="44.74401" lon="6.85795">
        <ele>2208</ele>
        <time>2026-03-23T12:57:32Z</time>
      </trkpt>
      <trkpt lat="44.74401" lon="6.85795">
        <ele>2208</ele>
        <time>2026-03-23T12:57:33Z</time>
      </trkpt>
      <trkpt lat="44.74401" lon="6.85795">
        <ele>2208</ele>
        <time>2026-03-23T12:57:34Z</time>
      </trkpt>
      <trkpt lat="44.74401" lon="6.85795">
        <ele>2207.9</ele>
        <time>2026-03-23T12:57:35Z</time>
      </trkpt>
      <trkpt lat="44.74401" lon="6.85795">
        <ele>2207.9</ele>
        <time>2026-03-23T12:57:36Z</time>
      </trkpt>
      <trkpt lat="44.74401" lon="6.85795">
        <ele>2207.9</ele>
        <time>2026-03-23T12:57:37Z</time>
      </trkpt>
      <trkpt lat="44.74401" lon="6.85795">
        <ele>2207.9</ele>
        <time>2026-03-23T12:57:38Z</time>
      </trkpt>
      <trkpt lat="44.74401" lon="6.85795">
        <ele>2207.9</ele>
        <time>2026-03-23T12:57:39Z</time>
      </trkpt>
      <trkpt lat="44.74401" lon="6.85795">
        <ele>2207.9</ele>
        <time>2026-03-23T12:57:40Z</time>
      </trkpt>
      <trkpt lat="44.74401" lon="6.85795">
        <ele>2207.9</ele>
        <time>2026-03-23T12:57:41Z</time>
      </trkpt>
      <trkpt lat="44.74401" lon="6.85795">
        <ele>2207.9</ele>
        <time>2026-03-23T12:57:42Z</time>
      </trkpt>
      <trkpt lat="44.74401" lon="6.85795">
        <ele>2207.9</ele>
        <time>2026-03-23T12:57:43Z</time>
      </trkpt>
      <trkpt lat="44.74401" lon="6.85795">
        <ele>2207.8</ele>
        <time>2026-03-23T12:57:44Z</time>
      </trkpt>
      <trkpt lat="44.74401" lon="6.85795">
        <ele>2207.8</ele>
        <time>2026-03-23T12:57:45Z</time>
      </trkpt>
      <trkpt lat="44.74401" lon="6.85795">
        <ele>2207.8</ele>
        <time>2026-03-23T12:57:46Z</time>
      </trkpt>
      <trkpt lat="44.744" lon="6.85795">
        <ele>2207.8</ele>
        <time>2026-03-23T12:57:47Z</time>
      </trkpt>
      <trkpt lat="44.744" lon="6.85794">
        <ele>2207.8</ele>
        <time>2026-03-23T12:57:48Z</time>
      </trkpt>
      <trkpt lat="44.74399" lon="6.85794">
        <ele>2207.9</ele>
        <time>2026-03-23T12:57:49Z</time>
      </trkpt>
      <trkpt lat="44.74398" lon="6.85792">
        <ele>2207.9</ele>
        <time>2026-03-23T12:57:50Z</time>
      </trkpt>
      <trkpt lat="44.74397" lon="6.85791">
        <ele>2206.6</ele>
        <time>2026-03-23T12:57:51Z</time>
      </trkpt>
      <trkpt lat="44.74394" lon="6.85788">
        <ele>2206.7</ele>
        <time>2026-03-23T12:57:52Z</time>
      </trkpt>
      <trkpt lat="44.74393" lon="6.85787">
        <ele>2205.6</ele>
        <time>2026-03-23T12:57:53Z</time>
      </trkpt>
      <trkpt lat="44.74391" lon="6.85785">
        <ele>2205.6</ele>
        <time>2026-03-23T12:57:54Z</time>
      </trkpt>
      <trkpt lat="44.7439" lon="6.85783">
        <ele>2205.6</ele>
        <time>2026-03-23T12:57:55Z</time>
      </trkpt>
      <trkpt lat="44.7439" lon="6.85783">
        <ele>2204.4</ele>
        <time>2026-03-23T12:57:56Z</time>
      </trkpt>
      <trkpt lat="44.74391" lon="6.85782">
        <ele>2204.4</ele>
        <time>2026-03-23T12:57:57Z</time>
      </trkpt>
      <trkpt lat="44.74391" lon="6.85781">
        <ele>2204.4</ele>
        <time>2026-03-23T12:57:58Z</time>
      </trkpt>
      <trkpt lat="44.7439" lon="6.85779">
        <ele>2204.4</ele>
        <time>2026-03-23T12:57:59Z</time>
      </trkpt>
      <trkpt lat="44.74389" lon="6.85773">
        <ele>2202.2</ele>
        <time>2026-03-23T12:58:00Z</time>
      </trkpt>
      <trkpt lat="44.74388" lon="6.85771">
        <ele>2202.2</ele>
        <time>2026-03-23T12:58:01Z</time>
      </trkpt>
      <trkpt lat="44.74387" lon="6.85766">
        <ele>2201</ele>
        <time>2026-03-23T12:58:02Z</time>
      </trkpt>
      <trkpt lat="44.74387" lon="6.8576">
        <ele>2198.5</ele>
        <time>2026-03-23T12:58:03Z</time>
      </trkpt>
      <trkpt lat="44.74387" lon="6.85754">
        <ele>2197.5</ele>
        <time>2026-03-23T12:58:04Z</time>
      </trkpt>
      <trkpt lat="44.74386" lon="6.85747">
        <ele>2195.1</ele>
        <time>2026-03-23T12:58:05Z</time>
      </trkpt>
      <trkpt lat="44.74384" lon="6.85742">
        <ele>2194</ele>
        <time>2026-03-23T12:58:06Z</time>
      </trkpt>
      <trkpt lat="44.74387" lon="6.85736">
        <ele>2193</ele>
        <time>2026-03-23T12:58:07Z</time>
      </trkpt>
      <trkpt lat="44.74389" lon="6.85733">
        <ele>2191.9</ele>
        <time>2026-03-23T12:58:08Z</time>
      </trkpt>
      <trkpt lat="44.74389" lon="6.85729">
        <ele>2191</ele>
        <time>2026-03-23T12:58:09Z</time>
      </trkpt>
      <trkpt lat="44.74389" lon="6.85724">
        <ele>2190.1</ele>
        <time>2026-03-23T12:58:10Z</time>
      </trkpt>
      <trkpt lat="44.7439" lon="6.85719">
        <ele>2188.9</ele>
        <time>2026-03-23T12:58:11Z</time>
      </trkpt>
      <trkpt lat="44.7439" lon="6.85713">
        <ele>2187.3</ele>
        <time>2026-03-23T12:58:12Z</time>
      </trkpt>
      <trkpt lat="44.74391" lon="6.85706">
        <ele>2186.2</ele>
        <time>2026-03-23T12:58:13Z</time>
      </trkpt>
      <trkpt lat="44.74392" lon="6.85698">
        <ele>2184.5</ele>
        <time>2026-03-23T12:58:14Z</time>
      </trkpt>
      <trkpt lat="44.74395" lon="6.85692">
        <ele>2182.7</ele>
        <time>2026-03-23T12:58:15Z</time>
      </trkpt>
      <trkpt lat="44.74397" lon="6.85684">
        <ele>2181</ele>
        <time>2026-03-23T12:58:16Z</time>
      </trkpt>
      <trkpt lat="44.74401" lon="6.85679">
        <ele>2180</ele>
        <time>2026-03-23T12:58:17Z</time>
      </trkpt>
      <trkpt lat="44.74404" lon="6.85672">
        <ele>2179</ele>
        <time>2026-03-23T12:58:18Z</time>
      </trkpt>
      <trkpt lat="44.74407" lon="6.85665">
        <ele>2177.3</ele>
        <time>2026-03-23T12:58:19Z</time>
      </trkpt>
      <trkpt lat="44.74407" lon="6.85659">
        <ele>2176.6</ele>
        <time>2026-03-23T12:58:20Z</time>
      </trkpt>
      <trkpt lat="44.7441" lon="6.85654">
        <ele>2175.7</ele>
        <time>2026-03-23T12:58:21Z</time>
      </trkpt>
      <trkpt lat="44.74413" lon="6.85653">
        <ele>2174.8</ele>
        <time>2026-03-23T12:58:22Z</time>
      </trkpt>
      <trkpt lat="44.74414" lon="6.8565">
        <ele>2173.9</ele>
        <time>2026-03-23T12:58:23Z</time>
      </trkpt>
      <trkpt lat="44.74415" lon="6.85649">
        <ele>2173.9</ele>
        <time>2026-03-23T12:58:24Z</time>
      </trkpt>
      <trkpt lat="44.74414" lon="6.85649">
        <ele>2174.1</ele>
        <time>2026-03-23T12:58:25Z</time>
      </trkpt>
      <trkpt lat="44.74414" lon="6.85649">
        <ele>2174.1</ele>
        <time>2026-03-23T12:58:26Z</time>
      </trkpt>
      <trkpt lat="44.74414" lon="6.85649">
        <ele>2174.1</ele>
        <time>2026-03-23T12:58:27Z</time>
      </trkpt>
      <trkpt lat="44.74414" lon="6.85649">
        <ele>2174.1</ele>
        <time>2026-03-23T12:58:28Z</time>
      </trkpt>
      <trkpt lat="44.74414" lon="6.85649">
        <ele>2174</ele>
        <time>2026-03-23T12:58:29Z</time>
      </trkpt>
      <trkpt lat="44.74414" lon="6.85649">
        <ele>2174</ele>
        <time>2026-03-23T12:58:30Z</time>
      </trkpt>
      <trkpt lat="44.74414" lon="6.85649">
        <ele>2174</ele>
        <time>2026-03-23T12:58:31Z</time>
      </trkpt>
      <trkpt lat="44.74414" lon="6.85649">
        <ele>2174</ele>
        <time>2026-03-23T12:58:32Z</time>
      </trkpt>
      <trkpt lat="44.74414" lon="6.8565">
        <ele>2173.8</ele>
        <time>2026-03-23T12:58:33Z</time>
      </trkpt>
      <trkpt lat="44.74414" lon="6.8565">
        <ele>2174</ele>
        <time>2026-03-23T12:58:34Z</time>
      </trkpt>
      <trkpt lat="44.74414" lon="6.8565">
        <ele>2174</ele>
        <time>2026-03-23T12:58:35Z</time>
      </trkpt>
      <trkpt lat="44.74414" lon="6.85649">
        <ele>2174</ele>
        <time>2026-03-23T12:58:36Z</time>
      </trkpt>
      <trkpt lat="44.74414" lon="6.85649">
        <ele>2174</ele>
        <time>2026-03-23T12:58:37Z</time>
      </trkpt>
      <trkpt lat="44.74414" lon="6.85649">
        <ele>2173.9</ele>
        <time>2026-03-23T12:58:38Z</time>
      </trkpt>
      <trkpt lat="44.74414" lon="6.85649">
        <ele>2173.9</ele>
        <time>2026-03-23T12:58:39Z</time>
      </trkpt>
      <trkpt lat="44.74414" lon="6.85649">
        <ele>2173.9</ele>
        <time>2026-03-23T12:58:40Z</time>
      </trkpt>
      <trkpt lat="44.74414" lon="6.85649">
        <ele>2173.9</ele>
        <time>2026-03-23T12:58:41Z</time>
      </trkpt>
      <trkpt lat="44.74414" lon="6.8565">
        <ele>2173.9</ele>
        <time>2026-03-23T12:58:42Z</time>
      </trkpt>
      <trkpt lat="44.74414" lon="6.8565">
        <ele>2173.9</ele>
        <time>2026-03-23T12:58:43Z</time>
      </trkpt>
      <trkpt lat="44.74414" lon="6.8565">
        <ele>2173.9</ele>
        <time>2026-03-23T12:58:44Z</time>
      </trkpt>
      <trkpt lat="44.74414" lon="6.8565">
        <ele>2173.9</ele>
        <time>2026-03-23T12:58:45Z</time>
      </trkpt>
      <trkpt lat="44.74414" lon="6.8565">
        <ele>2173.9</ele>
        <time>2026-03-23T12:58:46Z</time>
      </trkpt>
      <trkpt lat="44.74414" lon="6.8565">
        <ele>2173.8</ele>
        <time>2026-03-23T12:58:47Z</time>
      </trkpt>
      <trkpt lat="44.74414" lon="6.8565">
        <ele>2173.8</ele>
        <time>2026-03-23T12:58:48Z</time>
      </trkpt>
      <trkpt lat="44.74414" lon="6.85649">
        <ele>2173.8</ele>
        <time>2026-03-23T12:58:49Z</time>
      </trkpt>
      <trkpt lat="44.74413" lon="6.85649">
        <ele>2173.8</ele>
        <time>2026-03-23T12:58:50Z</time>
      </trkpt>
      <trkpt lat="44.74413" lon="6.85649">
        <ele>2173.8</ele>
        <time>2026-03-23T12:58:51Z</time>
      </trkpt>
      <trkpt lat="44.74413" lon="6.85648">
        <ele>2173.8</ele>
        <time>2026-03-23T12:58:52Z</time>
      </trkpt>
      <trkpt lat="44.74414" lon="6.85648">
        <ele>2173.8</ele>
        <time>2026-03-23T12:58:53Z</time>
      </trkpt>
      <trkpt lat="44.74414" lon="6.85648">
        <ele>2173.8</ele>
        <time>2026-03-23T12:58:54Z</time>
      </trkpt>
      <trkpt lat="44.74414" lon="6.85648">
        <ele>2173.8</ele>
        <time>2026-03-23T12:58:55Z</time>
      </trkpt>
      <trkpt lat="44.74414" lon="6.85648">
        <ele>2173.7</ele>
        <time>2026-03-23T12:58:56Z</time>
      </trkpt>
      <trkpt lat="44.74414" lon="6.85648">
        <ele>2173.7</ele>
        <time>2026-03-23T12:58:57Z</time>
      </trkpt>
      <trkpt lat="44.74414" lon="6.85648">
        <ele>2173.7</ele>
        <time>2026-03-23T12:58:58Z</time>
      </trkpt>
      <trkpt lat="44.74414" lon="6.85649">
        <ele>2173.7</ele>
        <time>2026-03-23T12:58:59Z</time>
      </trkpt>
      <trkpt lat="44.74414" lon="6.85649">
        <ele>2173.7</ele>
        <time>2026-03-23T12:59:00Z</time>
      </trkpt>
      <trkpt lat="44.74414" lon="6.85649">
        <ele>2173.7</ele>
        <time>2026-03-23T12:59:01Z</time>
      </trkpt>
      <trkpt lat="44.74414" lon="6.85649">
        <ele>2173.7</ele>
        <time>2026-03-23T12:59:02Z</time>
      </trkpt>
      <trkpt lat="44.74414" lon="6.85649">
        <ele>2173.7</ele>
        <time>2026-03-23T12:59:03Z</time>
      </trkpt>
      <trkpt lat="44.74414" lon="6.85649">
        <ele>2173.7</ele>
        <time>2026-03-23T12:59:04Z</time>
      </trkpt>
      <trkpt lat="44.74414" lon="6.85649">
        <ele>2173.6</ele>
        <time>2026-03-23T12:59:05Z</time>
      </trkpt>
      <trkpt lat="44.74414" lon="6.85649">
        <ele>2173.6</ele>
        <time>2026-03-23T12:59:06Z</time>
      </trkpt>
      <trkpt lat="44.74414" lon="6.85649">
        <ele>2173.6</ele>
        <time>2026-03-23T12:59:07Z</time>
      </trkpt>
      <trkpt lat="44.74414" lon="6.85649">
        <ele>2173.6</ele>
        <time>2026-03-23T12:59:08Z</time>
      </trkpt>
      <trkpt lat="44.74414" lon="6.85649">
        <ele>2173.6</ele>
        <time>2026-03-23T12:59:09Z</time>
      </trkpt>
      <trkpt lat="44.74414" lon="6.85649">
        <ele>2173.6</ele>
        <time>2026-03-23T12:59:10Z</time>
      </trkpt>
      <trkpt lat="44.74414" lon="6.85649">
        <ele>2173.6</ele>
        <time>2026-03-23T12:59:11Z</time>
      </trkpt>
      <trkpt lat="44.74414" lon="6.85649">
        <ele>2173.6</ele>
        <time>2026-03-23T12:59:12Z</time>
      </trkpt>
      <trkpt lat="44.74414" lon="6.85649">
        <ele>2173.6</ele>
        <time>2026-03-23T12:59:13Z</time>
      </trkpt>
      <trkpt lat="44.74414" lon="6.85649">
        <ele>2173.5</ele>
        <time>2026-03-23T12:59:14Z</time>
      </trkpt>
      <trkpt lat="44.74414" lon="6.85649">
        <ele>2173.5</ele>
        <time>2026-03-23T12:59:15Z</time>
      </trkpt>
      <trkpt lat="44.74414" lon="6.85649">
        <ele>2173.5</ele>
        <time>2026-03-23T12:59:16Z</time>
      </trkpt>
      <trkpt lat="44.74414" lon="6.85649">
        <ele>2173.5</ele>
        <time>2026-03-23T12:59:17Z</time>
      </trkpt>
      <trkpt lat="44.74414" lon="6.85649">
        <ele>2173.5</ele>
        <time>2026-03-23T12:59:18Z</time>
      </trkpt>
      <trkpt lat="44.74414" lon="6.85649">
        <ele>2173.5</ele>
        <time>2026-03-23T12:59:19Z</time>
      </trkpt>
      <trkpt lat="44.74414" lon="6.85649">
        <ele>2173.5</ele>
        <time>2026-03-23T12:59:20Z</time>
      </trkpt>
      <trkpt lat="44.74414" lon="6.85649">
        <ele>2173.5</ele>
        <time>2026-03-23T12:59:21Z</time>
      </trkpt>
      <trkpt lat="44.74414" lon="6.85649">
        <ele>2173.5</ele>
        <time>2026-03-23T12:59:22Z</time>
      </trkpt>
      <trkpt lat="44.74414" lon="6.85649">
        <ele>2173.4</ele>
        <time>2026-03-23T12:59:23Z</time>
      </trkpt>
      <trkpt lat="44.74414" lon="6.85649">
        <ele>2173.4</ele>
        <time>2026-03-23T12:59:24Z</time>
      </trkpt>
      <trkpt lat="44.74414" lon="6.85649">
        <ele>2173.4</ele>
        <time>2026-03-23T12:59:25Z</time>
      </trkpt>
      <trkpt lat="44.74414" lon="6.85649">
        <ele>2173.4</ele>
        <time>2026-03-23T12:59:26Z</time>
      </trkpt>
      <trkpt lat="44.74414" lon="6.85649">
        <ele>2173.4</ele>
        <time>2026-03-23T12:59:27Z</time>
      </trkpt>
      <trkpt lat="44.74414" lon="6.85649">
        <ele>2173.4</ele>
        <time>2026-03-23T12:59:28Z</time>
      </trkpt>
      <trkpt lat="44.74414" lon="6.85649">
        <ele>2173.4</ele>
        <time>2026-03-23T12:59:29Z</time>
      </trkpt>
      <trkpt lat="44.74414" lon="6.85649">
        <ele>2173.4</ele>
        <time>2026-03-23T12:59:30Z</time>
      </trkpt>
      <trkpt lat="44.74414" lon="6.85649">
        <ele>2173.4</ele>
        <time>2026-03-23T12:59:31Z</time>
      </trkpt>
      <trkpt lat="44.74414" lon="6.85649">
        <ele>2173.3</ele>
        <time>2026-03-23T12:59:32Z</time>
      </trkpt>
      <trkpt lat="44.74414" lon="6.85649">
        <ele>2173.3</ele>
        <time>2026-03-23T12:59:33Z</time>
      </trkpt>
      <trkpt lat="44.74414" lon="6.85649">
        <ele>2173.3</ele>
        <time>2026-03-23T12:59:34Z</time>
      </trkpt>
      <trkpt lat="44.74414" lon="6.85649">
        <ele>2173.3</ele>
        <time>2026-03-23T12:59:35Z</time>
      </trkpt>
      <trkpt lat="44.74413" lon="6.85649">
        <ele>2173.3</ele>
        <time>2026-03-23T12:59:36Z</time>
      </trkpt>
      <trkpt lat="44.74413" lon="6.85649">
        <ele>2173.3</ele>
        <time>2026-03-23T12:59:37Z</time>
      </trkpt>
      <trkpt lat="44.74413" lon="6.85649">
        <ele>2173.3</ele>
        <time>2026-03-23T12:59:38Z</time>
      </trkpt>
      <trkpt lat="44.74412" lon="6.85648">
        <ele>2173.3</ele>
        <time>2026-03-23T12:59:39Z</time>
      </trkpt>
      <trkpt lat="44.74412" lon="6.85648">
        <ele>2173.3</ele>
        <time>2026-03-23T12:59:40Z</time>
      </trkpt>
      <trkpt lat="44.74412" lon="6.85649">
        <ele>2173.2</ele>
        <time>2026-03-23T12:59:41Z</time>
      </trkpt>
      <trkpt lat="44.74412" lon="6.85649">
        <ele>2173.2</ele>
        <time>2026-03-23T12:59:42Z</time>
      </trkpt>
      <trkpt lat="44.74412" lon="6.85648">
        <ele>2173.2</ele>
        <time>2026-03-23T12:59:43Z</time>
      </trkpt>
      <trkpt lat="44.74412" lon="6.85649">
        <ele>2173.2</ele>
        <time>2026-03-23T12:59:44Z</time>
      </trkpt>
      <trkpt lat="44.74412" lon="6.85648">
        <ele>2173.2</ele>
        <time>2026-03-23T12:59:45Z</time>
      </trkpt>
      <trkpt lat="44.74411" lon="6.85648">
        <ele>2173.2</ele>
        <time>2026-03-23T12:59:46Z</time>
      </trkpt>
      <trkpt lat="44.74411" lon="6.85647">
        <ele>2173.4</ele>
        <time>2026-03-23T12:59:47Z</time>
      </trkpt>
      <trkpt lat="44.7441" lon="6.85646">
        <ele>2173.4</ele>
        <time>2026-03-23T12:59:48Z</time>
      </trkpt>
      <trkpt lat="44.7441" lon="6.85645">
        <ele>2172.7</ele>
        <time>2026-03-23T12:59:49Z</time>
      </trkpt>
      <trkpt lat="44.7441" lon="6.85645">
        <ele>2172.7</ele>
        <time>2026-03-23T12:59:50Z</time>
      </trkpt>
      <trkpt lat="44.7441" lon="6.85645">
        <ele>2172.6</ele>
        <time>2026-03-23T12:59:51Z</time>
      </trkpt>
      <trkpt lat="44.7441" lon="6.85644">
        <ele>2172.6</ele>
        <time>2026-03-23T12:59:52Z</time>
      </trkpt>
      <trkpt lat="44.7441" lon="6.85644">
        <ele>2172.6</ele>
        <time>2026-03-23T12:59:53Z</time>
      </trkpt>
      <trkpt lat="44.7441" lon="6.85644">
        <ele>2172.6</ele>
        <time>2026-03-23T12:59:54Z</time>
      </trkpt>
      <trkpt lat="44.7441" lon="6.85644">
        <ele>2172.6</ele>
        <time>2026-03-23T12:59:55Z</time>
      </trkpt>
      <trkpt lat="44.74411" lon="6.85643">
        <ele>2172.6</ele>
        <time>2026-03-23T12:59:56Z</time>
      </trkpt>
      <trkpt lat="44.74411" lon="6.85643">
        <ele>2172.6</ele>
        <time>2026-03-23T12:59:57Z</time>
      </trkpt>
      <trkpt lat="44.74411" lon="6.85643">
        <ele>2172.6</ele>
        <time>2026-03-23T12:59:58Z</time>
      </trkpt>
      <trkpt lat="44.74411" lon="6.85643">
        <ele>2172.6</ele>
        <time>2026-03-23T12:59:59Z</time>
      </trkpt>
      <trkpt lat="44.74411" lon="6.85642">
        <ele>2172.6</ele>
        <time>2026-03-23T13:00:00Z</time>
      </trkpt>
      <trkpt lat="44.74411" lon="6.85642">
        <ele>2172.5</ele>
        <time>2026-03-23T13:00:01Z</time>
      </trkpt>
      <trkpt lat="44.74411" lon="6.85642">
        <ele>2172.3</ele>
        <time>2026-03-23T13:00:02Z</time>
      </trkpt>
      <trkpt lat="44.74411" lon="6.85642">
        <ele>2172.3</ele>
        <time>2026-03-23T13:00:03Z</time>
      </trkpt>
      <trkpt lat="44.74412" lon="6.85641">
        <ele>2171.6</ele>
        <time>2026-03-23T13:00:04Z</time>
      </trkpt>
      <trkpt lat="44.74415" lon="6.85638">
        <ele>2171.4</ele>
        <time>2026-03-23T13:00:05Z</time>
      </trkpt>
      <trkpt lat="44.74416" lon="6.85637">
        <ele>2171.4</ele>
        <time>2026-03-23T13:00:06Z</time>
      </trkpt>
      <trkpt lat="44.74422" lon="6.85633">
        <ele>2170.4</ele>
        <time>2026-03-23T13:00:07Z</time>
      </trkpt>
      <trkpt lat="44.74426" lon="6.85633">
        <ele>2169.5</ele>
        <time>2026-03-23T13:00:08Z</time>
      </trkpt>
      <trkpt lat="44.7443" lon="6.85632">
        <ele>2169.3</ele>
        <time>2026-03-23T13:00:09Z</time>
      </trkpt>
      <trkpt lat="44.74428" lon="6.85628">
        <ele>2168.6</ele>
        <time>2026-03-23T13:00:10Z</time>
      </trkpt>
      <trkpt lat="44.7443" lon="6.85625">
        <ele>2168.5</ele>
        <time>2026-03-23T13:00:11Z</time>
      </trkpt>
      <trkpt lat="44.74433" lon="6.85625">
        <ele>2168.4</ele>
        <time>2026-03-23T13:00:12Z</time>
      </trkpt>
      <trkpt lat="44.74435" lon="6.85625">
        <ele>2168.4</ele>
        <time>2026-03-23T13:00:13Z</time>
      </trkpt>
      <trkpt lat="44.74436" lon="6.85625">
        <ele>2168.2</ele>
        <time>2026-03-23T13:00:14Z</time>
      </trkpt>
      <trkpt lat="44.74438" lon="6.85625">
        <ele>2168.2</ele>
        <time>2026-03-23T13:00:15Z</time>
      </trkpt>
      <trkpt lat="44.74438" lon="6.85625">
        <ele>2168.2</ele>
        <time>2026-03-23T13:00:16Z</time>
      </trkpt>
      <trkpt lat="44.74438" lon="6.85624">
        <ele>2168.2</ele>
        <time>2026-03-23T13:00:17Z</time>
      </trkpt>
      <trkpt lat="44.74438" lon="6.85623">
        <ele>2167.4</ele>
        <time>2026-03-23T13:00:18Z</time>
      </trkpt>
      <trkpt lat="44.74437" lon="6.85621">
        <ele>2167.4</ele>
        <time>2026-03-23T13:00:19Z</time>
      </trkpt>
      <trkpt lat="44.74437" lon="6.85621">
        <ele>2167.4</ele>
        <time>2026-03-23T13:00:20Z</time>
      </trkpt>
      <trkpt lat="44.74437" lon="6.85621">
        <ele>2167.4</ele>
        <time>2026-03-23T13:00:21Z</time>
      </trkpt>
      <trkpt lat="44.74437" lon="6.85621">
        <ele>2167.3</ele>
        <time>2026-03-23T13:00:22Z</time>
      </trkpt>
      <trkpt lat="44.74437" lon="6.85621">
        <ele>2167.3</ele>
        <time>2026-03-23T13:00:23Z</time>
      </trkpt>
      <trkpt lat="44.74437" lon="6.85621">
        <ele>2167.3</ele>
        <time>2026-03-23T13:00:24Z</time>
      </trkpt>
      <trkpt lat="44.74437" lon="6.8562">
        <ele>2167.3</ele>
        <time>2026-03-23T13:00:25Z</time>
      </trkpt>
      <trkpt lat="44.74437" lon="6.8562">
        <ele>2167.3</ele>
        <time>2026-03-23T13:00:26Z</time>
      </trkpt>
      <trkpt lat="44.74437" lon="6.8562">
        <ele>2167.3</ele>
        <time>2026-03-23T13:00:27Z</time>
      </trkpt>
      <trkpt lat="44.74437" lon="6.8562">
        <ele>2167.3</ele>
        <time>2026-03-23T13:00:28Z</time>
      </trkpt>
      <trkpt lat="44.74437" lon="6.8562">
        <ele>2167.3</ele>
        <time>2026-03-23T13:00:29Z</time>
      </trkpt>
      <trkpt lat="44.74437" lon="6.8562">
        <ele>2167.3</ele>
        <time>2026-03-23T13:00:30Z</time>
      </trkpt>
      <trkpt lat="44.74437" lon="6.8562">
        <ele>2167.2</ele>
        <time>2026-03-23T13:00:31Z</time>
      </trkpt>
      <trkpt lat="44.74437" lon="6.85621">
        <ele>2167.2</ele>
        <time>2026-03-23T13:00:32Z</time>
      </trkpt>
      <trkpt lat="44.74437" lon="6.8562">
        <ele>2167.2</ele>
        <time>2026-03-23T13:00:33Z</time>
      </trkpt>
      <trkpt lat="44.74437" lon="6.85619">
        <ele>2166.4</ele>
        <time>2026-03-23T13:00:34Z</time>
      </trkpt>
      <trkpt lat="44.74438" lon="6.85617">
        <ele>2166.4</ele>
        <time>2026-03-23T13:00:35Z</time>
      </trkpt>
      <trkpt lat="44.7444" lon="6.85614">
        <ele>2165.5</ele>
        <time>2026-03-23T13:00:36Z</time>
      </trkpt>
      <trkpt lat="44.74441" lon="6.85613">
        <ele>2165.5</ele>
        <time>2026-03-23T13:00:37Z</time>
      </trkpt>
      <trkpt lat="44.74443" lon="6.8561">
        <ele>2164.6</ele>
        <time>2026-03-23T13:00:38Z</time>
      </trkpt>
      <trkpt lat="44.74443" lon="6.85607">
        <ele>2163.9</ele>
        <time>2026-03-23T13:00:39Z</time>
      </trkpt>
      <trkpt lat="44.74441" lon="6.85605">
        <ele>2163.9</ele>
        <time>2026-03-23T13:00:40Z</time>
      </trkpt>
      <trkpt lat="44.74437" lon="6.85601">
        <ele>2163.2</ele>
        <time>2026-03-23T13:00:41Z</time>
      </trkpt>
      <trkpt lat="44.74435" lon="6.85599">
        <ele>2163.3</ele>
        <time>2026-03-23T13:00:42Z</time>
      </trkpt>
      <trkpt lat="44.74432" lon="6.85594">
        <ele>2161.9</ele>
        <time>2026-03-23T13:00:43Z</time>
      </trkpt>
      <trkpt lat="44.7443" lon="6.8559">
        <ele>2161.9</ele>
        <time>2026-03-23T13:00:44Z</time>
      </trkpt>
      <trkpt lat="44.74428" lon="6.85586">
        <ele>2161.2</ele>
        <time>2026-03-23T13:00:45Z</time>
      </trkpt>
      <trkpt lat="44.74427" lon="6.85582">
        <ele>2160.5</ele>
        <time>2026-03-23T13:00:46Z</time>
      </trkpt>
      <trkpt lat="44.74425" lon="6.85578">
        <ele>2159.8</ele>
        <time>2026-03-23T13:00:47Z</time>
      </trkpt>
      <trkpt lat="44.74424" lon="6.85574">
        <ele>2159</ele>
        <time>2026-03-23T13:00:48Z</time>
      </trkpt>
      <trkpt lat="44.74423" lon="6.85571">
        <ele>2158.4</ele>
        <time>2026-03-23T13:00:49Z</time>
      </trkpt>
      <trkpt lat="44.74422" lon="6.85569">
        <ele>2158.4</ele>
        <time>2026-03-23T13:00:50Z</time>
      </trkpt>
      <trkpt lat="44.74422" lon="6.85567">
        <ele>2157.7</ele>
        <time>2026-03-23T13:00:51Z</time>
      </trkpt>
      <trkpt lat="44.74421" lon="6.85566">
        <ele>2157.7</ele>
        <time>2026-03-23T13:00:52Z</time>
      </trkpt>
      <trkpt lat="44.74421" lon="6.85564">
        <ele>2157.7</ele>
        <time>2026-03-23T13:00:53Z</time>
      </trkpt>
      <trkpt lat="44.7442" lon="6.8556">
        <ele>2157.2</ele>
        <time>2026-03-23T13:00:54Z</time>
      </trkpt>
      <trkpt lat="44.7442" lon="6.85559">
        <ele>2156.6</ele>
        <time>2026-03-23T13:00:55Z</time>
      </trkpt>
      <trkpt lat="44.74419" lon="6.85555">
        <ele>2156</ele>
        <time>2026-03-23T13:00:56Z</time>
      </trkpt>
      <trkpt lat="44.74418" lon="6.85553">
        <ele>2156</ele>
        <time>2026-03-23T13:00:57Z</time>
      </trkpt>
      <trkpt lat="44.74418" lon="6.85551">
        <ele>2156</ele>
        <time>2026-03-23T13:00:58Z</time>
      </trkpt>
      <trkpt lat="44.74417" lon="6.85549">
        <ele>2155.4</ele>
        <time>2026-03-23T13:00:59Z</time>
      </trkpt>
      <trkpt lat="44.74417" lon="6.85547">
        <ele>2155.5</ele>
        <time>2026-03-23T13:01:00Z</time>
      </trkpt>
      <trkpt lat="44.74416" lon="6.85545">
        <ele>2154.6</ele>
        <time>2026-03-23T13:01:01Z</time>
      </trkpt>
      <trkpt lat="44.74415" lon="6.85541">
        <ele>2153.9</ele>
        <time>2026-03-23T13:01:02Z</time>
      </trkpt>
      <trkpt lat="44.74414" lon="6.85538">
        <ele>2153.3</ele>
        <time>2026-03-23T13:01:03Z</time>
      </trkpt>
      <trkpt lat="44.74411" lon="6.85533">
        <ele>2152.7</ele>
        <time>2026-03-23T13:01:04Z</time>
      </trkpt>
      <trkpt lat="44.7441" lon="6.85532">
        <ele>2152.7</ele>
        <time>2026-03-23T13:01:05Z</time>
      </trkpt>
      <trkpt lat="44.74408" lon="6.85529">
        <ele>2152</ele>
        <time>2026-03-23T13:01:06Z</time>
      </trkpt>
      <trkpt lat="44.74405" lon="6.85527">
        <ele>2152</ele>
        <time>2026-03-23T13:01:07Z</time>
      </trkpt>
      <trkpt lat="44.74403" lon="6.85524">
        <ele>2151.3</ele>
        <time>2026-03-23T13:01:08Z</time>
      </trkpt>
      <trkpt lat="44.744" lon="6.85522">
        <ele>2151.4</ele>
        <time>2026-03-23T13:01:09Z</time>
      </trkpt>
      <trkpt lat="44.74398" lon="6.8552">
        <ele>2150.7</ele>
        <time>2026-03-23T13:01:10Z</time>
      </trkpt>
      <trkpt lat="44.74395" lon="6.85518">
        <ele>2150.7</ele>
        <time>2026-03-23T13:01:11Z</time>
      </trkpt>
      <trkpt lat="44.74392" lon="6.85516">
        <ele>2149.9</ele>
        <time>2026-03-23T13:01:12Z</time>
      </trkpt>
      <trkpt lat="44.74389" lon="6.85514">
        <ele>2149.9</ele>
        <time>2026-03-23T13:01:13Z</time>
      </trkpt>
      <trkpt lat="44.74386" lon="6.85512">
        <ele>2149.2</ele>
        <time>2026-03-23T13:01:14Z</time>
      </trkpt>
      <trkpt lat="44.74383" lon="6.8551">
        <ele>2149.1</ele>
        <time>2026-03-23T13:01:15Z</time>
      </trkpt>
      <trkpt lat="44.7438" lon="6.85508">
        <ele>2148.4</ele>
        <time>2026-03-23T13:01:16Z</time>
      </trkpt>
      <trkpt lat="44.74375" lon="6.85506">
        <ele>2148.4</ele>
        <time>2026-03-23T13:01:17Z</time>
      </trkpt>
      <trkpt lat="44.74371" lon="6.85502">
        <ele>2147.6</ele>
        <time>2026-03-23T13:01:18Z</time>
      </trkpt>
      <trkpt lat="44.74366" lon="6.85498">
        <ele>2147.4</ele>
        <time>2026-03-23T13:01:19Z</time>
      </trkpt>
      <trkpt lat="44.74362" lon="6.85495">
        <ele>2147</ele>
        <time>2026-03-23T13:01:20Z</time>
      </trkpt>
      <trkpt lat="44.74356" lon="6.85491">
        <ele>2146.6</ele>
        <time>2026-03-23T13:01:21Z</time>
      </trkpt>
      <trkpt lat="44.7435" lon="6.85486">
        <ele>2146</ele>
        <time>2026-03-23T13:01:22Z</time>
      </trkpt>
      <trkpt lat="44.74345" lon="6.85481">
        <ele>2145.5</ele>
        <time>2026-03-23T13:01:23Z</time>
      </trkpt>
      <trkpt lat="44.7434" lon="6.85475">
        <ele>2145</ele>
        <time>2026-03-23T13:01:24Z</time>
      </trkpt>
      <trkpt lat="44.74335" lon="6.8547">
        <ele>2144.5</ele>
        <time>2026-03-23T13:01:25Z</time>
      </trkpt>
      <trkpt lat="44.74331" lon="6.85467">
        <ele>2144.1</ele>
        <time>2026-03-23T13:01:26Z</time>
      </trkpt>
      <trkpt lat="44.74327" lon="6.85464">
        <ele>2143.8</ele>
        <time>2026-03-23T13:01:27Z</time>
      </trkpt>
      <trkpt lat="44.74323" lon="6.8546">
        <ele>2143.5</ele>
        <time>2026-03-23T13:01:28Z</time>
      </trkpt>
      <trkpt lat="44.74319" lon="6.85457">
        <ele>2143.1</ele>
        <time>2026-03-23T13:01:29Z</time>
      </trkpt>
      <trkpt lat="44.74316" lon="6.85453">
        <ele>2142.8</ele>
        <time>2026-03-23T13:01:30Z</time>
      </trkpt>
      <trkpt lat="44.74312" lon="6.85448">
        <ele>2142.4</ele>
        <time>2026-03-23T13:01:31Z</time>
      </trkpt>
      <trkpt lat="44.74309" lon="6.85446">
        <ele>2142.2</ele>
        <time>2026-03-23T13:01:32Z</time>
      </trkpt>
      <trkpt lat="44.74307" lon="6.85442">
        <ele>2142</ele>
        <time>2026-03-23T13:01:33Z</time>
      </trkpt>
      <trkpt lat="44.74304" lon="6.85437">
        <ele>2141.7</ele>
        <time>2026-03-23T13:01:34Z</time>
      </trkpt>
      <trkpt lat="44.74302" lon="6.85435">
        <ele>2141.6</ele>
        <time>2026-03-23T13:01:35Z</time>
      </trkpt>
      <trkpt lat="44.74299" lon="6.85432">
        <ele>2141.3</ele>
        <time>2026-03-23T13:01:36Z</time>
      </trkpt>
      <trkpt lat="44.74298" lon="6.8543">
        <ele>2141.2</ele>
        <time>2026-03-23T13:01:37Z</time>
      </trkpt>
      <trkpt lat="44.74296" lon="6.85427">
        <ele>2141</ele>
        <time>2026-03-23T13:01:38Z</time>
      </trkpt>
      <trkpt lat="44.74293" lon="6.85424">
        <ele>2140.8</ele>
        <time>2026-03-23T13:01:39Z</time>
      </trkpt>
      <trkpt lat="44.7429" lon="6.85421">
        <ele>2140.5</ele>
        <time>2026-03-23T13:01:40Z</time>
      </trkpt>
      <trkpt lat="44.74286" lon="6.85419">
        <ele>2140.1</ele>
        <time>2026-03-23T13:01:41Z</time>
      </trkpt>
      <trkpt lat="44.74283" lon="6.85415">
        <ele>2139.8</ele>
        <time>2026-03-23T13:01:42Z</time>
      </trkpt>
      <trkpt lat="44.7428" lon="6.85412">
        <ele>2139.6</ele>
        <time>2026-03-23T13:01:43Z</time>
      </trkpt>
      <trkpt lat="44.74277" lon="6.85409">
        <ele>2139.3</ele>
        <time>2026-03-23T13:01:44Z</time>
      </trkpt>
      <trkpt lat="44.74275" lon="6.85406">
        <ele>2139.1</ele>
        <time>2026-03-23T13:01:45Z</time>
      </trkpt>
      <trkpt lat="44.74273" lon="6.85403">
        <ele>2138.8</ele>
        <time>2026-03-23T13:01:46Z</time>
      </trkpt>
      <trkpt lat="44.7427" lon="6.85401">
        <ele>2138.6</ele>
        <time>2026-03-23T13:01:47Z</time>
      </trkpt>
      <trkpt lat="44.74267" lon="6.85397">
        <ele>2138.3</ele>
        <time>2026-03-23T13:01:48Z</time>
      </trkpt>
      <trkpt lat="44.74266" lon="6.85395">
        <ele>2138.2</ele>
        <time>2026-03-23T13:01:49Z</time>
      </trkpt>
      <trkpt lat="44.74264" lon="6.85392">
        <ele>2137.9</ele>
        <time>2026-03-23T13:01:50Z</time>
      </trkpt>
      <trkpt lat="44.74262" lon="6.85389">
        <ele>2137.7</ele>
        <time>2026-03-23T13:01:51Z</time>
      </trkpt>
      <trkpt lat="44.7426" lon="6.85386">
        <ele>2137.4</ele>
        <time>2026-03-23T13:01:52Z</time>
      </trkpt>
      <trkpt lat="44.74257" lon="6.85383">
        <ele>2137.1</ele>
        <time>2026-03-23T13:01:53Z</time>
      </trkpt>
      <trkpt lat="44.74254" lon="6.8538">
        <ele>2136.8</ele>
        <time>2026-03-23T13:01:54Z</time>
      </trkpt>
      <trkpt lat="44.74251" lon="6.85376">
        <ele>2136.4</ele>
        <time>2026-03-23T13:01:55Z</time>
      </trkpt>
      <trkpt lat="44.74248" lon="6.85371">
        <ele>2135.9</ele>
        <time>2026-03-23T13:01:56Z</time>
      </trkpt>
      <trkpt lat="44.74245" lon="6.85367">
        <ele>2135.5</ele>
        <time>2026-03-23T13:01:57Z</time>
      </trkpt>
      <trkpt lat="44.74242" lon="6.85363">
        <ele>2135</ele>
        <time>2026-03-23T13:01:58Z</time>
      </trkpt>
      <trkpt lat="44.74235" lon="6.85357">
        <ele>2134.1</ele>
        <time>2026-03-23T13:01:59Z</time>
      </trkpt>
      <trkpt lat="44.74232" lon="6.85352">
        <ele>2133.5</ele>
        <time>2026-03-23T13:02:00Z</time>
      </trkpt>
      <trkpt lat="44.7423" lon="6.85345">
        <ele>2132.9</ele>
        <time>2026-03-23T13:02:01Z</time>
      </trkpt>
      <trkpt lat="44.74227" lon="6.85341">
        <ele>2132.3</ele>
        <time>2026-03-23T13:02:02Z</time>
      </trkpt>
      <trkpt lat="44.74223" lon="6.85337">
        <ele>2131.7</ele>
        <time>2026-03-23T13:02:03Z</time>
      </trkpt>
      <trkpt lat="44.7422" lon="6.85335">
        <ele>2131.4</ele>
        <time>2026-03-23T13:02:04Z</time>
      </trkpt>
      <trkpt lat="44.74217" lon="6.8533">
        <ele>2130.8</ele>
        <time>2026-03-23T13:02:05Z</time>
      </trkpt>
      <trkpt lat="44.74213" lon="6.85327">
        <ele>2130.3</ele>
        <time>2026-03-23T13:02:06Z</time>
      </trkpt>
      <trkpt lat="44.7421" lon="6.85322">
        <ele>2129.7</ele>
        <time>2026-03-23T13:02:07Z</time>
      </trkpt>
      <trkpt lat="44.74206" lon="6.85319">
        <ele>2129.2</ele>
        <time>2026-03-23T13:02:08Z</time>
      </trkpt>
      <trkpt lat="44.74202" lon="6.85314">
        <ele>2128.7</ele>
        <time>2026-03-23T13:02:09Z</time>
      </trkpt>
      <trkpt lat="44.74199" lon="6.85312">
        <ele>2128.3</ele>
        <time>2026-03-23T13:02:10Z</time>
      </trkpt>
      <trkpt lat="44.74196" lon="6.85307">
        <ele>2127.9</ele>
        <time>2026-03-23T13:02:11Z</time>
      </trkpt>
      <trkpt lat="44.74193" lon="6.85302">
        <ele>2127.5</ele>
        <time>2026-03-23T13:02:12Z</time>
      </trkpt>
      <trkpt lat="44.74188" lon="6.85298">
        <ele>2127.1</ele>
        <time>2026-03-23T13:02:13Z</time>
      </trkpt>
      <trkpt lat="44.74185" lon="6.85293">
        <ele>2126.7</ele>
        <time>2026-03-23T13:02:14Z</time>
      </trkpt>
      <trkpt lat="44.74182" lon="6.85288">
        <ele>2126.4</ele>
        <time>2026-03-23T13:02:15Z</time>
      </trkpt>
      <trkpt lat="44.74179" lon="6.85286">
        <ele>2126.2</ele>
        <time>2026-03-23T13:02:16Z</time>
      </trkpt>
      <trkpt lat="44.74177" lon="6.85282">
        <ele>2126</ele>
        <time>2026-03-23T13:02:17Z</time>
      </trkpt>
      <trkpt lat="44.74174" lon="6.85278">
        <ele>2125.8</ele>
        <time>2026-03-23T13:02:18Z</time>
      </trkpt>
      <trkpt lat="44.74173" lon="6.85277">
        <ele>2125.7</ele>
        <time>2026-03-23T13:02:19Z</time>
      </trkpt>
      <trkpt lat="44.7417" lon="6.85275">
        <ele>2125.5</ele>
        <time>2026-03-23T13:02:20Z</time>
      </trkpt>
      <trkpt lat="44.74168" lon="6.85272">
        <ele>2125.3</ele>
        <time>2026-03-23T13:02:21Z</time>
      </trkpt>
      <trkpt lat="44.74166" lon="6.8527">
        <ele>2125.2</ele>
        <time>2026-03-23T13:02:22Z</time>
      </trkpt>
      <trkpt lat="44.74164" lon="6.85267">
        <ele>2125.1</ele>
        <time>2026-03-23T13:02:23Z</time>
      </trkpt>
      <trkpt lat="44.74162" lon="6.85263">
        <ele>2125</ele>
        <time>2026-03-23T13:02:24Z</time>
      </trkpt>
      <trkpt lat="44.74162" lon="6.85262">
        <ele>2124.9</ele>
        <time>2026-03-23T13:02:25Z</time>
      </trkpt>
      <trkpt lat="44.74161" lon="6.85259">
        <ele>2124.8</ele>
        <time>2026-03-23T13:02:26Z</time>
      </trkpt>
      <trkpt lat="44.74161" lon="6.85257">
        <ele>2124.8</ele>
        <time>2026-03-23T13:02:27Z</time>
      </trkpt>
      <trkpt lat="44.74159" lon="6.85254">
        <ele>2124.6</ele>
        <time>2026-03-23T13:02:28Z</time>
      </trkpt>
      <trkpt lat="44.74158" lon="6.85252">
        <ele>2124.6</ele>
        <time>2026-03-23T13:02:29Z</time>
      </trkpt>
      <trkpt lat="44.74157" lon="6.85248">
        <ele>2124.4</ele>
        <time>2026-03-23T13:02:30Z</time>
      </trkpt>
      <trkpt lat="44.74157" lon="6.85247">
        <ele>2124.4</ele>
        <time>2026-03-23T13:02:31Z</time>
      </trkpt>
      <trkpt lat="44.74155" lon="6.85242">
        <ele>2124.2</ele>
        <time>2026-03-23T13:02:32Z</time>
      </trkpt>
      <trkpt lat="44.74155" lon="6.85241">
        <ele>2124.2</ele>
        <time>2026-03-23T13:02:33Z</time>
      </trkpt>
      <trkpt lat="44.74154" lon="6.85239">
        <ele>2124.1</ele>
        <time>2026-03-23T13:02:34Z</time>
      </trkpt>
      <trkpt lat="44.74153" lon="6.85238">
        <ele>2124</ele>
        <time>2026-03-23T13:02:35Z</time>
      </trkpt>
      <trkpt lat="44.74153" lon="6.85236">
        <ele>2124</ele>
        <time>2026-03-23T13:02:36Z</time>
      </trkpt>
      <trkpt lat="44.74152" lon="6.85234">
        <ele>2123.9</ele>
        <time>2026-03-23T13:02:37Z</time>
      </trkpt>
      <trkpt lat="44.74151" lon="6.85232">
        <ele>2123.8</ele>
        <time>2026-03-23T13:02:38Z</time>
      </trkpt>
      <trkpt lat="44.7415" lon="6.8523">
        <ele>2123.7</ele>
        <time>2026-03-23T13:02:39Z</time>
      </trkpt>
      <trkpt lat="44.74148" lon="6.85226">
        <ele>2123.6</ele>
        <time>2026-03-23T13:02:40Z</time>
      </trkpt>
      <trkpt lat="44.74147" lon="6.85225">
        <ele>2123.5</ele>
        <time>2026-03-23T13:02:41Z</time>
      </trkpt>
      <trkpt lat="44.74145" lon="6.85222">
        <ele>2123.2</ele>
        <time>2026-03-23T13:02:42Z</time>
      </trkpt>
      <trkpt lat="44.74144" lon="6.8522">
        <ele>2123</ele>
        <time>2026-03-23T13:02:43Z</time>
      </trkpt>
      <trkpt lat="44.74142" lon="6.85217">
        <ele>2122.7</ele>
        <time>2026-03-23T13:02:44Z</time>
      </trkpt>
      <trkpt lat="44.74141" lon="6.85216">
        <ele>2122.5</ele>
        <time>2026-03-23T13:02:45Z</time>
      </trkpt>
      <trkpt lat="44.74138" lon="6.85212">
        <ele>2122.2</ele>
        <time>2026-03-23T13:02:46Z</time>
      </trkpt>
      <trkpt lat="44.74137" lon="6.85211">
        <ele>2122</ele>
        <time>2026-03-23T13:02:47Z</time>
      </trkpt>
      <trkpt lat="44.74135" lon="6.85209">
        <ele>2121.7</ele>
        <time>2026-03-23T13:02:48Z</time>
      </trkpt>
      <trkpt lat="44.74132" lon="6.85206">
        <ele>2121.4</ele>
        <time>2026-03-23T13:02:49Z</time>
      </trkpt>
      <trkpt lat="44.74129" lon="6.85202">
        <ele>2121</ele>
        <time>2026-03-23T13:02:50Z</time>
      </trkpt>
      <trkpt lat="44.74126" lon="6.85199">
        <ele>2120.7</ele>
        <time>2026-03-23T13:02:51Z</time>
      </trkpt>
      <trkpt lat="44.74123" lon="6.85197">
        <ele>2120.4</ele>
        <time>2026-03-23T13:02:52Z</time>
      </trkpt>
      <trkpt lat="44.7412" lon="6.85194">
        <ele>2120.2</ele>
        <time>2026-03-23T13:02:53Z</time>
      </trkpt>
      <trkpt lat="44.74117" lon="6.85192">
        <ele>2120</ele>
        <time>2026-03-23T13:02:54Z</time>
      </trkpt>
      <trkpt lat="44.74114" lon="6.8519">
        <ele>2119.8</ele>
        <time>2026-03-23T13:02:55Z</time>
      </trkpt>
      <trkpt lat="44.74113" lon="6.85189">
        <ele>2119.7</ele>
        <time>2026-03-23T13:02:56Z</time>
      </trkpt>
      <trkpt lat="44.7411" lon="6.85187">
        <ele>2119.5</ele>
        <time>2026-03-23T13:02:57Z</time>
      </trkpt>
      <trkpt lat="44.7411" lon="6.85186">
        <ele>2119.5</ele>
        <time>2026-03-23T13:02:58Z</time>
      </trkpt>
      <trkpt lat="44.74107" lon="6.85184">
        <ele>2119.3</ele>
        <time>2026-03-23T13:02:59Z</time>
      </trkpt>
      <trkpt lat="44.74106" lon="6.85183">
        <ele>2119.3</ele>
        <time>2026-03-23T13:03:00Z</time>
      </trkpt>
      <trkpt lat="44.74104" lon="6.85182">
        <ele>2119.1</ele>
        <time>2026-03-23T13:03:01Z</time>
      </trkpt>
      <trkpt lat="44.74104" lon="6.85181">
        <ele>2119.1</ele>
        <time>2026-03-23T13:03:02Z</time>
      </trkpt>
      <trkpt lat="44.74103" lon="6.8518">
        <ele>2119</ele>
        <time>2026-03-23T13:03:03Z</time>
      </trkpt>
      <trkpt lat="44.74102" lon="6.85179">
        <ele>2119</ele>
        <time>2026-03-23T13:03:04Z</time>
      </trkpt>
      <trkpt lat="44.74101" lon="6.85178">
        <ele>2118.9</ele>
        <time>2026-03-23T13:03:05Z</time>
      </trkpt>
      <trkpt lat="44.741" lon="6.85177">
        <ele>2118.9</ele>
        <time>2026-03-23T13:03:06Z</time>
      </trkpt>
      <trkpt lat="44.74099" lon="6.85175">
        <ele>2118.8</ele>
        <time>2026-03-23T13:03:07Z</time>
      </trkpt>
      <trkpt lat="44.74098" lon="6.85174">
        <ele>2118.7</ele>
        <time>2026-03-23T13:03:08Z</time>
      </trkpt>
      <trkpt lat="44.74097" lon="6.85173">
        <ele>2118.7</ele>
        <time>2026-03-23T13:03:09Z</time>
      </trkpt>
      <trkpt lat="44.74096" lon="6.85171">
        <ele>2118.6</ele>
        <time>2026-03-23T13:03:10Z</time>
      </trkpt>
      <trkpt lat="44.74095" lon="6.85171">
        <ele>2118.5</ele>
        <time>2026-03-23T13:03:11Z</time>
      </trkpt>
      <trkpt lat="44.74094" lon="6.8517">
        <ele>2118.5</ele>
        <time>2026-03-23T13:03:12Z</time>
      </trkpt>
      <trkpt lat="44.74093" lon="6.85169">
        <ele>2118.4</ele>
        <time>2026-03-23T13:03:13Z</time>
      </trkpt>
      <trkpt lat="44.74093" lon="6.85168">
        <ele>2118.4</ele>
        <time>2026-03-23T13:03:14Z</time>
      </trkpt>
      <trkpt lat="44.74092" lon="6.85167">
        <ele>2118.3</ele>
        <time>2026-03-23T13:03:15Z</time>
      </trkpt>
      <trkpt lat="44.74091" lon="6.85166">
        <ele>2118.3</ele>
        <time>2026-03-23T13:03:16Z</time>
      </trkpt>
      <trkpt lat="44.74091" lon="6.85166">
        <ele>2118.3</ele>
        <time>2026-03-23T13:03:17Z</time>
      </trkpt>
      <trkpt lat="44.74091" lon="6.85166">
        <ele>2118.2</ele>
        <time>2026-03-23T13:03:18Z</time>
      </trkpt>
      <trkpt lat="44.74091" lon="6.85165">
        <ele>2118.2</ele>
        <time>2026-03-23T13:03:19Z</time>
      </trkpt>
      <trkpt lat="44.7409" lon="6.85165">
        <ele>2118.2</ele>
        <time>2026-03-23T13:03:20Z</time>
      </trkpt>
      <trkpt lat="44.7409" lon="6.85164">
        <ele>2118.2</ele>
        <time>2026-03-23T13:03:21Z</time>
      </trkpt>
      <trkpt lat="44.7409" lon="6.85164">
        <ele>2118.2</ele>
        <time>2026-03-23T13:03:22Z</time>
      </trkpt>
      <trkpt lat="44.7409" lon="6.85164">
        <ele>2118.2</ele>
        <time>2026-03-23T13:03:23Z</time>
      </trkpt>
      <trkpt lat="44.7409" lon="6.85164">
        <ele>2118.2</ele>
        <time>2026-03-23T13:03:24Z</time>
      </trkpt>
      <trkpt lat="44.7409" lon="6.85165">
        <ele>2118.2</ele>
        <time>2026-03-23T13:03:25Z</time>
      </trkpt>
      <trkpt lat="44.7409" lon="6.85165">
        <ele>2118.2</ele>
        <time>2026-03-23T13:03:26Z</time>
      </trkpt>
      <trkpt lat="44.7409" lon="6.85165">
        <ele>2118.1</ele>
        <time>2026-03-23T13:03:27Z</time>
      </trkpt>
      <trkpt lat="44.7409" lon="6.85165">
        <ele>2118.1</ele>
        <time>2026-03-23T13:03:28Z</time>
      </trkpt>
      <trkpt lat="44.7409" lon="6.85164">
        <ele>2118.1</ele>
        <time>2026-03-23T13:03:29Z</time>
      </trkpt>
      <trkpt lat="44.7409" lon="6.85164">
        <ele>2118.1</ele>
        <time>2026-03-23T13:03:30Z</time>
      </trkpt>
      <trkpt lat="44.74089" lon="6.85164">
        <ele>2118.1</ele>
        <time>2026-03-23T13:03:31Z</time>
      </trkpt>
      <trkpt lat="44.74089" lon="6.85164">
        <ele>2118.1</ele>
        <time>2026-03-23T13:03:32Z</time>
      </trkpt>
      <trkpt lat="44.74089" lon="6.85164">
        <ele>2118.1</ele>
        <time>2026-03-23T13:03:33Z</time>
      </trkpt>
      <trkpt lat="44.74089" lon="6.85164">
        <ele>2118.1</ele>
        <time>2026-03-23T13:03:34Z</time>
      </trkpt>
      <trkpt lat="44.74089" lon="6.85164">
        <ele>2118.1</ele>
        <time>2026-03-23T13:03:35Z</time>
      </trkpt>
      <trkpt lat="44.74089" lon="6.85164">
        <ele>2118.1</ele>
        <time>2026-03-23T13:03:36Z</time>
      </trkpt>
      <trkpt lat="44.74089" lon="6.85163">
        <ele>2118.1</ele>
        <time>2026-03-23T13:03:37Z</time>
      </trkpt>
      <trkpt lat="44.74088" lon="6.85162">
        <ele>2118</ele>
        <time>2026-03-23T13:03:38Z</time>
      </trkpt>
      <trkpt lat="44.74087" lon="6.85162">
        <ele>2118</ele>
        <time>2026-03-23T13:03:39Z</time>
      </trkpt>
      <trkpt lat="44.74087" lon="6.85162">
        <ele>2117.9</ele>
        <time>2026-03-23T13:03:40Z</time>
      </trkpt>
      <trkpt lat="44.74086" lon="6.85161">
        <ele>2117.9</ele>
        <time>2026-03-23T13:03:41Z</time>
      </trkpt>
      <trkpt lat="44.74085" lon="6.8516">
        <ele>2117.9</ele>
        <time>2026-03-23T13:03:42Z</time>
      </trkpt>
      <trkpt lat="44.74084" lon="6.8516">
        <ele>2117.8</ele>
        <time>2026-03-23T13:03:43Z</time>
      </trkpt>
      <trkpt lat="44.74083" lon="6.85159">
        <ele>2117.7</ele>
        <time>2026-03-23T13:03:44Z</time>
      </trkpt>
      <trkpt lat="44.74082" lon="6.85159">
        <ele>2117.7</ele>
        <time>2026-03-23T13:03:45Z</time>
      </trkpt>
      <trkpt lat="44.74081" lon="6.85158">
        <ele>2117.6</ele>
        <time>2026-03-23T13:03:46Z</time>
      </trkpt>
      <trkpt lat="44.7408" lon="6.85158">
        <ele>2117.6</ele>
        <time>2026-03-23T13:03:47Z</time>
      </trkpt>
      <trkpt lat="44.74079" lon="6.85158">
        <ele>2117.6</ele>
        <time>2026-03-23T13:03:48Z</time>
      </trkpt>
      <trkpt lat="44.74079" lon="6.85157">
        <ele>2117.6</ele>
        <time>2026-03-23T13:03:49Z</time>
      </trkpt>
      <trkpt lat="44.74078" lon="6.85157">
        <ele>2117.5</ele>
        <time>2026-03-23T13:03:50Z</time>
      </trkpt>
      <trkpt lat="44.74078" lon="6.85156">
        <ele>2117.5</ele>
        <time>2026-03-23T13:03:51Z</time>
      </trkpt>
      <trkpt lat="44.74077" lon="6.85156">
        <ele>2117.4</ele>
        <time>2026-03-23T13:03:52Z</time>
      </trkpt>
      <trkpt lat="44.74076" lon="6.85155">
        <ele>2117.4</ele>
        <time>2026-03-23T13:03:53Z</time>
      </trkpt>
      <trkpt lat="44.74076" lon="6.85155">
        <ele>2117.4</ele>
        <time>2026-03-23T13:03:54Z</time>
      </trkpt>
      <trkpt lat="44.74076" lon="6.85155">
        <ele>2117.4</ele>
        <time>2026-03-23T13:03:55Z</time>
      </trkpt>
      <trkpt lat="44.74075" lon="6.85154">
        <ele>2117.3</ele>
        <time>2026-03-23T13:03:56Z</time>
      </trkpt>
      <trkpt lat="44.74074" lon="6.85154">
        <ele>2117.3</ele>
        <time>2026-03-23T13:03:57Z</time>
      </trkpt>
      <trkpt lat="44.74073" lon="6.85154">
        <ele>2117.2</ele>
        <time>2026-03-23T13:03:58Z</time>
      </trkpt>
      <trkpt lat="44.74072" lon="6.85153">
        <ele>2117.2</ele>
        <time>2026-03-23T13:03:59Z</time>
      </trkpt>
      <trkpt lat="44.74072" lon="6.85152">
        <ele>2117.1</ele>
        <time>2026-03-23T13:04:00Z</time>
      </trkpt>
      <trkpt lat="44.74071" lon="6.85152">
        <ele>2117.1</ele>
        <time>2026-03-23T13:04:01Z</time>
      </trkpt>
      <trkpt lat="44.7407" lon="6.85151">
        <ele>2117.1</ele>
        <time>2026-03-23T13:04:02Z</time>
      </trkpt>
      <trkpt lat="44.74069" lon="6.85151">
        <ele>2117</ele>
        <time>2026-03-23T13:04:03Z</time>
      </trkpt>
      <trkpt lat="44.74068" lon="6.8515">
        <ele>2116.9</ele>
        <time>2026-03-23T13:04:04Z</time>
      </trkpt>
      <trkpt lat="44.74066" lon="6.85149">
        <ele>2116.8</ele>
        <time>2026-03-23T13:04:05Z</time>
      </trkpt>
      <trkpt lat="44.74064" lon="6.85149">
        <ele>2116.7</ele>
        <time>2026-03-23T13:04:06Z</time>
      </trkpt>
      <trkpt lat="44.74063" lon="6.85148">
        <ele>2116.7</ele>
        <time>2026-03-23T13:04:07Z</time>
      </trkpt>
      <trkpt lat="44.74061" lon="6.85147">
        <ele>2116.6</ele>
        <time>2026-03-23T13:04:08Z</time>
      </trkpt>
      <trkpt lat="44.7406" lon="6.85147">
        <ele>2116.5</ele>
        <time>2026-03-23T13:04:09Z</time>
      </trkpt>
      <trkpt lat="44.7406" lon="6.85146">
        <ele>2116.5</ele>
        <time>2026-03-23T13:04:10Z</time>
      </trkpt>
      <trkpt lat="44.74058" lon="6.85145">
        <ele>2116.3</ele>
        <time>2026-03-23T13:04:11Z</time>
      </trkpt>
      <trkpt lat="44.74056" lon="6.85144">
        <ele>2116.3</ele>
        <time>2026-03-23T13:04:12Z</time>
      </trkpt>
      <trkpt lat="44.74055" lon="6.85144">
        <ele>2116.2</ele>
        <time>2026-03-23T13:04:13Z</time>
      </trkpt>
      <trkpt lat="44.74053" lon="6.85143">
        <ele>2116</ele>
        <time>2026-03-23T13:04:14Z</time>
      </trkpt>
      <trkpt lat="44.74052" lon="6.85142">
        <ele>2115.9</ele>
        <time>2026-03-23T13:04:15Z</time>
      </trkpt>
      <trkpt lat="44.74051" lon="6.85142">
        <ele>2115.8</ele>
        <time>2026-03-23T13:04:16Z</time>
      </trkpt>
      <trkpt lat="44.74049" lon="6.85141">
        <ele>2115.7</ele>
        <time>2026-03-23T13:04:17Z</time>
      </trkpt>
      <trkpt lat="44.74047" lon="6.85141">
        <ele>2115.6</ele>
        <time>2026-03-23T13:04:18Z</time>
      </trkpt>
      <trkpt lat="44.74046" lon="6.8514">
        <ele>2115.5</ele>
        <time>2026-03-23T13:04:19Z</time>
      </trkpt>
      <trkpt lat="44.74045" lon="6.85139">
        <ele>2115.4</ele>
        <time>2026-03-23T13:04:20Z</time>
      </trkpt>
      <trkpt lat="44.74043" lon="6.85138">
        <ele>2115.3</ele>
        <time>2026-03-23T13:04:21Z</time>
      </trkpt>
      <trkpt lat="44.74042" lon="6.85137">
        <ele>2115.2</ele>
        <time>2026-03-23T13:04:22Z</time>
      </trkpt>
      <trkpt lat="44.74038" lon="6.85134">
        <ele>2114.8</ele>
        <time>2026-03-23T13:04:23Z</time>
      </trkpt>
      <trkpt lat="44.74037" lon="6.85133">
        <ele>2114.7</ele>
        <time>2026-03-23T13:04:24Z</time>
      </trkpt>
      <trkpt lat="44.74034" lon="6.85131">
        <ele>2114.4</ele>
        <time>2026-03-23T13:04:25Z</time>
      </trkpt>
      <trkpt lat="44.74033" lon="6.85131">
        <ele>2114.4</ele>
        <time>2026-03-23T13:04:26Z</time>
      </trkpt>
      <trkpt lat="44.7403" lon="6.85129">
        <ele>2114.1</ele>
        <time>2026-03-23T13:04:27Z</time>
      </trkpt>
      <trkpt lat="44.74029" lon="6.85128">
        <ele>2114</ele>
        <time>2026-03-23T13:04:28Z</time>
      </trkpt>
      <trkpt lat="44.74028" lon="6.85127">
        <ele>2113.8</ele>
        <time>2026-03-23T13:04:29Z</time>
      </trkpt>
      <trkpt lat="44.74026" lon="6.85126">
        <ele>2113.7</ele>
        <time>2026-03-23T13:04:30Z</time>
      </trkpt>
      <trkpt lat="44.74024" lon="6.85126">
        <ele>2113.5</ele>
        <time>2026-03-23T13:04:31Z</time>
      </trkpt>
      <trkpt lat="44.74023" lon="6.85125">
        <ele>2113.4</ele>
        <time>2026-03-23T13:04:32Z</time>
      </trkpt>
      <trkpt lat="44.74022" lon="6.85125">
        <ele>2113.3</ele>
        <time>2026-03-23T13:04:33Z</time>
      </trkpt>
      <trkpt lat="44.74021" lon="6.85125">
        <ele>2113.2</ele>
        <time>2026-03-23T13:04:34Z</time>
      </trkpt>
      <trkpt lat="44.7402" lon="6.85124">
        <ele>2113.2</ele>
        <time>2026-03-23T13:04:35Z</time>
      </trkpt>
      <trkpt lat="44.7402" lon="6.85124">
        <ele>2113.1</ele>
        <time>2026-03-23T13:04:36Z</time>
      </trkpt>
      <trkpt lat="44.7402" lon="6.85124">
        <ele>2113.1</ele>
        <time>2026-03-23T13:04:37Z</time>
      </trkpt>
      <trkpt lat="44.74019" lon="6.85123">
        <ele>2113</ele>
        <time>2026-03-23T13:04:38Z</time>
      </trkpt>
      <trkpt lat="44.74018" lon="6.85121">
        <ele>2112.8</ele>
        <time>2026-03-23T13:04:39Z</time>
      </trkpt>
      <trkpt lat="44.74017" lon="6.85119">
        <ele>2112.7</ele>
        <time>2026-03-23T13:04:40Z</time>
      </trkpt>
      <trkpt lat="44.74015" lon="6.85118">
        <ele>2112.5</ele>
        <time>2026-03-23T13:04:41Z</time>
      </trkpt>
      <trkpt lat="44.74013" lon="6.85115">
        <ele>2112.2</ele>
        <time>2026-03-23T13:04:42Z</time>
      </trkpt>
      <trkpt lat="44.74012" lon="6.85114">
        <ele>2112.1</ele>
        <time>2026-03-23T13:04:43Z</time>
      </trkpt>
      <trkpt lat="44.7401" lon="6.85111">
        <ele>2111.9</ele>
        <time>2026-03-23T13:04:44Z</time>
      </trkpt>
      <trkpt lat="44.74009" lon="6.8511">
        <ele>2111.8</ele>
        <time>2026-03-23T13:04:45Z</time>
      </trkpt>
      <trkpt lat="44.74008" lon="6.85108">
        <ele>2111.7</ele>
        <time>2026-03-23T13:04:46Z</time>
      </trkpt>
      <trkpt lat="44.74007" lon="6.85107">
        <ele>2111.6</ele>
        <time>2026-03-23T13:04:47Z</time>
      </trkpt>
      <trkpt lat="44.74006" lon="6.85105">
        <ele>2111.5</ele>
        <time>2026-03-23T13:04:48Z</time>
      </trkpt>
      <trkpt lat="44.74005" lon="6.85104">
        <ele>2111.4</ele>
        <time>2026-03-23T13:04:49Z</time>
      </trkpt>
      <trkpt lat="44.74003" lon="6.85102">
        <ele>2111.2</ele>
        <time>2026-03-23T13:04:50Z</time>
      </trkpt>
      <trkpt lat="44.74002" lon="6.85101">
        <ele>2111.2</ele>
        <time>2026-03-23T13:04:51Z</time>
      </trkpt>
      <trkpt lat="44.74002" lon="6.85101">
        <ele>2111.1</ele>
        <time>2026-03-23T13:04:52Z</time>
      </trkpt>
      <trkpt lat="44.74" lon="6.85099">
        <ele>2111</ele>
        <time>2026-03-23T13:04:53Z</time>
      </trkpt>
      <trkpt lat="44.73999" lon="6.85097">
        <ele>2110.8</ele>
        <time>2026-03-23T13:04:54Z</time>
      </trkpt>
      <trkpt lat="44.73997" lon="6.85093">
        <ele>2110.5</ele>
        <time>2026-03-23T13:04:55Z</time>
      </trkpt>
      <trkpt lat="44.73996" lon="6.85092">
        <ele>2110.4</ele>
        <time>2026-03-23T13:04:56Z</time>
      </trkpt>
      <trkpt lat="44.73993" lon="6.85089">
        <ele>2110.2</ele>
        <time>2026-03-23T13:04:57Z</time>
      </trkpt>
      <trkpt lat="44.73991" lon="6.85087">
        <ele>2109.9</ele>
        <time>2026-03-23T13:04:58Z</time>
      </trkpt>
      <trkpt lat="44.73989" lon="6.85084">
        <ele>2109.6</ele>
        <time>2026-03-23T13:04:59Z</time>
      </trkpt>
      <trkpt lat="44.73986" lon="6.85082">
        <ele>2109.4</ele>
        <time>2026-03-23T13:05:00Z</time>
      </trkpt>
      <trkpt lat="44.73983" lon="6.8508">
        <ele>2109.1</ele>
        <time>2026-03-23T13:05:01Z</time>
      </trkpt>
      <trkpt lat="44.73981" lon="6.85078">
        <ele>2108.8</ele>
        <time>2026-03-23T13:05:02Z</time>
      </trkpt>
      <trkpt lat="44.73978" lon="6.85076">
        <ele>2108.5</ele>
        <time>2026-03-23T13:05:03Z</time>
      </trkpt>
      <trkpt lat="44.73976" lon="6.85074">
        <ele>2108.2</ele>
        <time>2026-03-23T13:05:04Z</time>
      </trkpt>
      <trkpt lat="44.73973" lon="6.85071">
        <ele>2107.8</ele>
        <time>2026-03-23T13:05:05Z</time>
      </trkpt>
      <trkpt lat="44.7397" lon="6.85069">
        <ele>2107.4</ele>
        <time>2026-03-23T13:05:06Z</time>
      </trkpt>
      <trkpt lat="44.73967" lon="6.85066">
        <ele>2106.9</ele>
        <time>2026-03-23T13:05:07Z</time>
      </trkpt>
      <trkpt lat="44.73964" lon="6.85063">
        <ele>2106.5</ele>
        <time>2026-03-23T13:05:08Z</time>
      </trkpt>
      <trkpt lat="44.7396" lon="6.8506">
        <ele>2106</ele>
        <time>2026-03-23T13:05:09Z</time>
      </trkpt>
      <trkpt lat="44.73957" lon="6.85056">
        <ele>2105.5</ele>
        <time>2026-03-23T13:05:10Z</time>
      </trkpt>
      <trkpt lat="44.73952" lon="6.85051">
        <ele>2104.9</ele>
        <time>2026-03-23T13:05:11Z</time>
      </trkpt>
      <trkpt lat="44.73949" lon="6.85048">
        <ele>2104.5</ele>
        <time>2026-03-23T13:05:12Z</time>
      </trkpt>
      <trkpt lat="44.73944" lon="6.85046">
        <ele>2104</ele>
        <time>2026-03-23T13:05:13Z</time>
      </trkpt>
      <trkpt lat="44.7394" lon="6.85043">
        <ele>2103.6</ele>
        <time>2026-03-23T13:05:14Z</time>
      </trkpt>
      <trkpt lat="44.73936" lon="6.85039">
        <ele>2103.2</ele>
        <time>2026-03-23T13:05:15Z</time>
      </trkpt>
      <trkpt lat="44.73933" lon="6.85036">
        <ele>2102.9</ele>
        <time>2026-03-23T13:05:16Z</time>
      </trkpt>
      <trkpt lat="44.7393" lon="6.85033">
        <ele>2102.6</ele>
        <time>2026-03-23T13:05:17Z</time>
      </trkpt>
      <trkpt lat="44.73927" lon="6.8503">
        <ele>2102.3</ele>
        <time>2026-03-23T13:05:18Z</time>
      </trkpt>
      <trkpt lat="44.73924" lon="6.85027">
        <ele>2102</ele>
        <time>2026-03-23T13:05:19Z</time>
      </trkpt>
      <trkpt lat="44.73923" lon="6.85026">
        <ele>2101.9</ele>
        <time>2026-03-23T13:05:20Z</time>
      </trkpt>
      <trkpt lat="44.73919" lon="6.85022">
        <ele>2101.5</ele>
        <time>2026-03-23T13:05:21Z</time>
      </trkpt>
      <trkpt lat="44.73917" lon="6.85019">
        <ele>2101.3</ele>
        <time>2026-03-23T13:05:22Z</time>
      </trkpt>
      <trkpt lat="44.73913" lon="6.85017">
        <ele>2100.9</ele>
        <time>2026-03-23T13:05:23Z</time>
      </trkpt>
      <trkpt lat="44.7391" lon="6.85014">
        <ele>2100.5</ele>
        <time>2026-03-23T13:05:24Z</time>
      </trkpt>
      <trkpt lat="44.73906" lon="6.85012">
        <ele>2100.1</ele>
        <time>2026-03-23T13:05:25Z</time>
      </trkpt>
      <trkpt lat="44.73902" lon="6.85009">
        <ele>2099.7</ele>
        <time>2026-03-23T13:05:26Z</time>
      </trkpt>
      <trkpt lat="44.73898" lon="6.85006">
        <ele>2099.2</ele>
        <time>2026-03-23T13:05:27Z</time>
      </trkpt>
      <trkpt lat="44.73894" lon="6.85004">
        <ele>2098.7</ele>
        <time>2026-03-23T13:05:28Z</time>
      </trkpt>
      <trkpt lat="44.7389" lon="6.85002">
        <ele>2098.3</ele>
        <time>2026-03-23T13:05:29Z</time>
      </trkpt>
      <trkpt lat="44.73886" lon="6.85001">
        <ele>2097.9</ele>
        <time>2026-03-23T13:05:30Z</time>
      </trkpt>
      <trkpt lat="44.73882" lon="6.85003">
        <ele>2097.4</ele>
        <time>2026-03-23T13:05:31Z</time>
      </trkpt>
      <trkpt lat="44.73879" lon="6.85004">
        <ele>2097.1</ele>
        <time>2026-03-23T13:05:32Z</time>
      </trkpt>
      <trkpt lat="44.73876" lon="6.85004">
        <ele>2096.7</ele>
        <time>2026-03-23T13:05:33Z</time>
      </trkpt>
      <trkpt lat="44.73875" lon="6.85004">
        <ele>2096.6</ele>
        <time>2026-03-23T13:05:34Z</time>
      </trkpt>
      <trkpt lat="44.73874" lon="6.85003">
        <ele>2096.4</ele>
        <time>2026-03-23T13:05:35Z</time>
      </trkpt>
      <trkpt lat="44.73873" lon="6.85001">
        <ele>2096.2</ele>
        <time>2026-03-23T13:05:36Z</time>
      </trkpt>
      <trkpt lat="44.73874" lon="6.85">
        <ele>2096.1</ele>
        <time>2026-03-23T13:05:37Z</time>
      </trkpt>
      <trkpt lat="44.73873" lon="6.85">
        <ele>2096</ele>
        <time>2026-03-23T13:05:38Z</time>
      </trkpt>
      <trkpt lat="44.73873" lon="6.85">
        <ele>2096</ele>
        <time>2026-03-23T13:05:39Z</time>
      </trkpt>
      <trkpt lat="44.73873" lon="6.85001">
        <ele>2096</ele>
        <time>2026-03-23T13:05:40Z</time>
      </trkpt>
      <trkpt lat="44.73873" lon="6.85001">
        <ele>2096</ele>
        <time>2026-03-23T13:05:41Z</time>
      </trkpt>
      <trkpt lat="44.73873" lon="6.85001">
        <ele>2096</ele>
        <time>2026-03-23T13:05:42Z</time>
      </trkpt>
      <trkpt lat="44.73873" lon="6.85001">
        <ele>2096</ele>
        <time>2026-03-23T13:05:43Z</time>
      </trkpt>
      <trkpt lat="44.73873" lon="6.85001">
        <ele>2095.9</ele>
        <time>2026-03-23T13:05:44Z</time>
      </trkpt>
      <trkpt lat="44.73873" lon="6.85001">
        <ele>2095.9</ele>
        <time>2026-03-23T13:05:45Z</time>
      </trkpt>
      <trkpt lat="44.73873" lon="6.85001">
        <ele>2095.9</ele>
        <time>2026-03-23T13:05:46Z</time>
      </trkpt>
      <trkpt lat="44.73873" lon="6.85001">
        <ele>2095.9</ele>
        <time>2026-03-23T13:05:47Z</time>
      </trkpt>
      <trkpt lat="44.73873" lon="6.85001">
        <ele>2095.9</ele>
        <time>2026-03-23T13:05:48Z</time>
      </trkpt>
      <trkpt lat="44.73873" lon="6.85001">
        <ele>2095.9</ele>
        <time>2026-03-23T13:05:49Z</time>
      </trkpt>
      <trkpt lat="44.73873" lon="6.85001">
        <ele>2095.9</ele>
        <time>2026-03-23T13:05:50Z</time>
      </trkpt>
      <trkpt lat="44.73873" lon="6.85001">
        <ele>2095.9</ele>
        <time>2026-03-23T13:05:51Z</time>
      </trkpt>
      <trkpt lat="44.73873" lon="6.85001">
        <ele>2095.9</ele>
        <time>2026-03-23T13:05:52Z</time>
      </trkpt>
      <trkpt lat="44.73873" lon="6.85001">
        <ele>2095.9</ele>
        <time>2026-03-23T13:05:53Z</time>
      </trkpt>
      <trkpt lat="44.73873" lon="6.85001">
        <ele>2095.9</ele>
        <time>2026-03-23T13:05:54Z</time>
      </trkpt>
      <trkpt lat="44.73873" lon="6.85001">
        <ele>2095.9</ele>
        <time>2026-03-23T13:05:55Z</time>
      </trkpt>
      <trkpt lat="44.73873" lon="6.85001">
        <ele>2095.9</ele>
        <time>2026-03-23T13:05:56Z</time>
      </trkpt>
      <trkpt lat="44.73873" lon="6.85001">
        <ele>2095.9</ele>
        <time>2026-03-23T13:05:57Z</time>
      </trkpt>
      <trkpt lat="44.73873" lon="6.85001">
        <ele>2095.9</ele>
        <time>2026-03-23T13:05:58Z</time>
      </trkpt>
      <trkpt lat="44.73873" lon="6.85001">
        <ele>2095.9</ele>
        <time>2026-03-23T13:05:59Z</time>
      </trkpt>
      <trkpt lat="44.73873" lon="6.85001">
        <ele>2095.9</ele>
        <time>2026-03-23T13:06:00Z</time>
      </trkpt>
      <trkpt lat="44.73873" lon="6.85001">
        <ele>2095.9</ele>
        <time>2026-03-23T13:06:01Z</time>
      </trkpt>
      <trkpt lat="44.73873" lon="6.85001">
        <ele>2095.9</ele>
        <time>2026-03-23T13:06:02Z</time>
      </trkpt>
      <trkpt lat="44.73873" lon="6.85001">
        <ele>2095.9</ele>
        <time>2026-03-23T13:06:03Z</time>
      </trkpt>
      <trkpt lat="44.73873" lon="6.85001">
        <ele>2095.9</ele>
        <time>2026-03-23T13:06:04Z</time>
      </trkpt>
      <trkpt lat="44.73873" lon="6.85001">
        <ele>2095.9</ele>
        <time>2026-03-23T13:06:05Z</time>
      </trkpt>
      <trkpt lat="44.73873" lon="6.85001">
        <ele>2095.9</ele>
        <time>2026-03-23T13:06:06Z</time>
      </trkpt>
      <trkpt lat="44.73873" lon="6.85001">
        <ele>2095.9</ele>
        <time>2026-03-23T13:06:07Z</time>
      </trkpt>
      <trkpt lat="44.73872" lon="6.85001">
        <ele>2095.8</ele>
        <time>2026-03-23T13:06:08Z</time>
      </trkpt>
      <trkpt lat="44.73872" lon="6.85001">
        <ele>2095.8</ele>
        <time>2026-03-23T13:06:09Z</time>
      </trkpt>
      <trkpt lat="44.73872" lon="6.85001">
        <ele>2095.8</ele>
        <time>2026-03-23T13:06:10Z</time>
      </trkpt>
      <trkpt lat="44.73873" lon="6.85001">
        <ele>2095.8</ele>
        <time>2026-03-23T13:06:11Z</time>
      </trkpt>
      <trkpt lat="44.73873" lon="6.85001">
        <ele>2095.7</ele>
        <time>2026-03-23T13:06:12Z</time>
      </trkpt>
      <trkpt lat="44.73873" lon="6.85001">
        <ele>2095.7</ele>
        <time>2026-03-23T13:06:13Z</time>
      </trkpt>
      <trkpt lat="44.73873" lon="6.85001">
        <ele>2095.7</ele>
        <time>2026-03-23T13:06:14Z</time>
      </trkpt>
      <trkpt lat="44.73873" lon="6.85001">
        <ele>2095.7</ele>
        <time>2026-03-23T13:06:15Z</time>
      </trkpt>
      <trkpt lat="44.73873" lon="6.85">
        <ele>2095.7</ele>
        <time>2026-03-23T13:06:16Z</time>
      </trkpt>
      <trkpt lat="44.73873" lon="6.85">
        <ele>2095.7</ele>
        <time>2026-03-23T13:06:17Z</time>
      </trkpt>
      <trkpt lat="44.73873" lon="6.85">
        <ele>2095.7</ele>
        <time>2026-03-23T13:06:18Z</time>
      </trkpt>
      <trkpt lat="44.73873" lon="6.85">
        <ele>2095.7</ele>
        <time>2026-03-23T13:06:19Z</time>
      </trkpt>
      <trkpt lat="44.73873" lon="6.85">
        <ele>2095.7</ele>
        <time>2026-03-23T13:06:20Z</time>
      </trkpt>
      <trkpt lat="44.73873" lon="6.85">
        <ele>2095.7</ele>
        <time>2026-03-23T13:06:21Z</time>
      </trkpt>
      <trkpt lat="44.73873" lon="6.85">
        <ele>2095.7</ele>
        <time>2026-03-23T13:06:22Z</time>
      </trkpt>
      <trkpt lat="44.73873" lon="6.85">
        <ele>2095.6</ele>
        <time>2026-03-23T13:06:23Z</time>
      </trkpt>
      <trkpt lat="44.73873" lon="6.85">
        <ele>2095.6</ele>
        <time>2026-03-23T13:06:24Z</time>
      </trkpt>
      <trkpt lat="44.73873" lon="6.85001">
        <ele>2095.6</ele>
        <time>2026-03-23T13:06:25Z</time>
      </trkpt>
      <trkpt lat="44.73873" lon="6.85001">
        <ele>2095.6</ele>
        <time>2026-03-23T13:06:26Z</time>
      </trkpt>
      <trkpt lat="44.73873" lon="6.85">
        <ele>2095.6</ele>
        <time>2026-03-23T13:06:27Z</time>
      </trkpt>
      <trkpt lat="44.73873" lon="6.85">
        <ele>2095.5</ele>
        <time>2026-03-23T13:06:28Z</time>
      </trkpt>
      <trkpt lat="44.73873" lon="6.85">
        <ele>2095.5</ele>
        <time>2026-03-23T13:06:29Z</time>
      </trkpt>
      <trkpt lat="44.73873" lon="6.85">
        <ele>2095.5</ele>
        <time>2026-03-23T13:06:30Z</time>
      </trkpt>
      <trkpt lat="44.73872" lon="6.85">
        <ele>2095.5</ele>
        <time>2026-03-23T13:06:31Z</time>
      </trkpt>
      <trkpt lat="44.73872" lon="6.85">
        <ele>2095.5</ele>
        <time>2026-03-23T13:06:32Z</time>
      </trkpt>
      <trkpt lat="44.73872" lon="6.85">
        <ele>2095.4</ele>
        <time>2026-03-23T13:06:33Z</time>
      </trkpt>
      <trkpt lat="44.73872" lon="6.85">
        <ele>2095.4</ele>
        <time>2026-03-23T13:06:34Z</time>
      </trkpt>
      <trkpt lat="44.73872" lon="6.85">
        <ele>2095.4</ele>
        <time>2026-03-23T13:06:35Z</time>
      </trkpt>
      <trkpt lat="44.73872" lon="6.85">
        <ele>2095.4</ele>
        <time>2026-03-23T13:06:36Z</time>
      </trkpt>
      <trkpt lat="44.73872" lon="6.85">
        <ele>2095.4</ele>
        <time>2026-03-23T13:06:37Z</time>
      </trkpt>
      <trkpt lat="44.73872" lon="6.85">
        <ele>2095.4</ele>
        <time>2026-03-23T13:06:38Z</time>
      </trkpt>
      <trkpt lat="44.73872" lon="6.85">
        <ele>2095.4</ele>
        <time>2026-03-23T13:06:39Z</time>
      </trkpt>
      <trkpt lat="44.73872" lon="6.85">
        <ele>2095.4</ele>
        <time>2026-03-23T13:06:40Z</time>
      </trkpt>
      <trkpt lat="44.73872" lon="6.85">
        <ele>2095.4</ele>
        <time>2026-03-23T13:06:41Z</time>
      </trkpt>
      <trkpt lat="44.73872" lon="6.85">
        <ele>2095.4</ele>
        <time>2026-03-23T13:06:42Z</time>
      </trkpt>
      <trkpt lat="44.73872" lon="6.85">
        <ele>2095.4</ele>
        <time>2026-03-23T13:06:43Z</time>
      </trkpt>
      <trkpt lat="44.73872" lon="6.85">
        <ele>2095.4</ele>
        <time>2026-03-23T13:06:44Z</time>
      </trkpt>
      <trkpt lat="44.73872" lon="6.85">
        <ele>2095.4</ele>
        <time>2026-03-23T13:06:45Z</time>
      </trkpt>
      <trkpt lat="44.73872" lon="6.84999">
        <ele>2095.3</ele>
        <time>2026-03-23T13:06:46Z</time>
      </trkpt>
      <trkpt lat="44.73872" lon="6.84998">
        <ele>2095.2</ele>
        <time>2026-03-23T13:06:47Z</time>
      </trkpt>
      <trkpt lat="44.73871" lon="6.84998">
        <ele>2095.1</ele>
        <time>2026-03-23T13:06:48Z</time>
      </trkpt>
      <trkpt lat="44.7387" lon="6.84997">
        <ele>2095</ele>
        <time>2026-03-23T13:06:49Z</time>
      </trkpt>
      <trkpt lat="44.73868" lon="6.84998">
        <ele>2094.7</ele>
        <time>2026-03-23T13:06:50Z</time>
      </trkpt>
      <trkpt lat="44.73867" lon="6.84998">
        <ele>2094.5</ele>
        <time>2026-03-23T13:06:51Z</time>
      </trkpt>
      <trkpt lat="44.73865" lon="6.84999">
        <ele>2094.3</ele>
        <time>2026-03-23T13:06:52Z</time>
      </trkpt>
      <trkpt lat="44.73864" lon="6.84999">
        <ele>2094.1</ele>
        <time>2026-03-23T13:06:53Z</time>
      </trkpt>
      <trkpt lat="44.73862" lon="6.85">
        <ele>2093.9</ele>
        <time>2026-03-23T13:06:54Z</time>
      </trkpt>
      <trkpt lat="44.73859" lon="6.85001">
        <ele>2093.6</ele>
        <time>2026-03-23T13:06:55Z</time>
      </trkpt>
      <trkpt lat="44.73858" lon="6.85001">
        <ele>2093.5</ele>
        <time>2026-03-23T13:06:56Z</time>
      </trkpt>
      <trkpt lat="44.73855" lon="6.85003">
        <ele>2093</ele>
        <time>2026-03-23T13:06:57Z</time>
      </trkpt>
      <trkpt lat="44.73853" lon="6.85004">
        <ele>2092.8</ele>
        <time>2026-03-23T13:06:58Z</time>
      </trkpt>
      <trkpt lat="44.7385" lon="6.85007">
        <ele>2092.3</ele>
        <time>2026-03-23T13:06:59Z</time>
      </trkpt>
      <trkpt lat="44.73847" lon="6.8501">
        <ele>2091.9</ele>
        <time>2026-03-23T13:07:00Z</time>
      </trkpt>
      <trkpt lat="44.73845" lon="6.85014">
        <ele>2091.5</ele>
        <time>2026-03-23T13:07:01Z</time>
      </trkpt>
      <trkpt lat="44.73843" lon="6.8502">
        <ele>2090.9</ele>
        <time>2026-03-23T13:07:02Z</time>
      </trkpt>
      <trkpt lat="44.73842" lon="6.85026">
        <ele>2090.4</ele>
        <time>2026-03-23T13:07:03Z</time>
      </trkpt>
      <trkpt lat="44.7384" lon="6.85032">
        <ele>2089.8</ele>
        <time>2026-03-23T13:07:04Z</time>
      </trkpt>
      <trkpt lat="44.73838" lon="6.85041">
        <ele>2089</ele>
        <time>2026-03-23T13:07:05Z</time>
      </trkpt>
      <trkpt lat="44.73834" lon="6.85044">
        <ele>2088.3</ele>
        <time>2026-03-23T13:07:06Z</time>
      </trkpt>
      <trkpt lat="44.73829" lon="6.85045">
        <ele>2087.7</ele>
        <time>2026-03-23T13:07:07Z</time>
      </trkpt>
      <trkpt lat="44.73824" lon="6.85045">
        <ele>2087.2</ele>
        <time>2026-03-23T13:07:08Z</time>
      </trkpt>
      <trkpt lat="44.73819" lon="6.85043">
        <ele>2086.7</ele>
        <time>2026-03-23T13:07:09Z</time>
      </trkpt>
      <trkpt lat="44.73815" lon="6.85042">
        <ele>2086.3</ele>
        <time>2026-03-23T13:07:10Z</time>
      </trkpt>
      <trkpt lat="44.73811" lon="6.85041">
        <ele>2085.9</ele>
        <time>2026-03-23T13:07:11Z</time>
      </trkpt>
      <trkpt lat="44.73808" lon="6.85039">
        <ele>2085.7</ele>
        <time>2026-03-23T13:07:12Z</time>
      </trkpt>
      <trkpt lat="44.73806" lon="6.85039">
        <ele>2085.4</ele>
        <time>2026-03-23T13:07:13Z</time>
      </trkpt>
      <trkpt lat="44.73804" lon="6.85038">
        <ele>2085.3</ele>
        <time>2026-03-23T13:07:14Z</time>
      </trkpt>
      <trkpt lat="44.73803" lon="6.85038">
        <ele>2085.2</ele>
        <time>2026-03-23T13:07:15Z</time>
      </trkpt>
      <trkpt lat="44.73802" lon="6.85038">
        <ele>2085.1</ele>
        <time>2026-03-23T13:07:16Z</time>
      </trkpt>
      <trkpt lat="44.73802" lon="6.85038">
        <ele>2085.1</ele>
        <time>2026-03-23T13:07:17Z</time>
      </trkpt>
      <trkpt lat="44.73802" lon="6.85039">
        <ele>2085.1</ele>
        <time>2026-03-23T13:07:18Z</time>
      </trkpt>
      <trkpt lat="44.73802" lon="6.85039">
        <ele>2085.1</ele>
        <time>2026-03-23T13:07:19Z</time>
      </trkpt>
      <trkpt lat="44.73803" lon="6.85039">
        <ele>2085</ele>
        <time>2026-03-23T13:07:20Z</time>
      </trkpt>
      <trkpt lat="44.73802" lon="6.85039">
        <ele>2085</ele>
        <time>2026-03-23T13:07:21Z</time>
      </trkpt>
      <trkpt lat="44.73802" lon="6.85039">
        <ele>2085</ele>
        <time>2026-03-23T13:07:22Z</time>
      </trkpt>
      <trkpt lat="44.73802" lon="6.85039">
        <ele>2084.9</ele>
        <time>2026-03-23T13:07:23Z</time>
      </trkpt>
      <trkpt lat="44.73802" lon="6.85038">
        <ele>2084.9</ele>
        <time>2026-03-23T13:07:24Z</time>
      </trkpt>
      <trkpt lat="44.73802" lon="6.85038">
        <ele>2084.9</ele>
        <time>2026-03-23T13:07:25Z</time>
      </trkpt>
      <trkpt lat="44.73802" lon="6.85038">
        <ele>2084.9</ele>
        <time>2026-03-23T13:07:26Z</time>
      </trkpt>
      <trkpt lat="44.73802" lon="6.85039">
        <ele>2084.9</ele>
        <time>2026-03-23T13:07:27Z</time>
      </trkpt>
      <trkpt lat="44.73802" lon="6.85038">
        <ele>2084.9</ele>
        <time>2026-03-23T13:07:28Z</time>
      </trkpt>
      <trkpt lat="44.73802" lon="6.85038">
        <ele>2084.9</ele>
        <time>2026-03-23T13:07:29Z</time>
      </trkpt>
      <trkpt lat="44.73802" lon="6.85038">
        <ele>2084.9</ele>
        <time>2026-03-23T13:07:30Z</time>
      </trkpt>
      <trkpt lat="44.73802" lon="6.85038">
        <ele>2084.9</ele>
        <time>2026-03-23T13:07:31Z</time>
      </trkpt>
      <trkpt lat="44.73802" lon="6.85038">
        <ele>2084.9</ele>
        <time>2026-03-23T13:07:32Z</time>
      </trkpt>
      <trkpt lat="44.73802" lon="6.85039">
        <ele>2084.8</ele>
        <time>2026-03-23T13:07:33Z</time>
      </trkpt>
      <trkpt lat="44.73802" lon="6.85039">
        <ele>2084.8</ele>
        <time>2026-03-23T13:07:34Z</time>
      </trkpt>
      <trkpt lat="44.73802" lon="6.8504">
        <ele>2084.7</ele>
        <time>2026-03-23T13:07:35Z</time>
      </trkpt>
      <trkpt lat="44.73802" lon="6.8504">
        <ele>2084.7</ele>
        <time>2026-03-23T13:07:36Z</time>
      </trkpt>
      <trkpt lat="44.73802" lon="6.8504">
        <ele>2084.7</ele>
        <time>2026-03-23T13:07:37Z</time>
      </trkpt>
      <trkpt lat="44.73802" lon="6.8504">
        <ele>2084.7</ele>
        <time>2026-03-23T13:07:38Z</time>
      </trkpt>
      <trkpt lat="44.73802" lon="6.8504">
        <ele>2084.7</ele>
        <time>2026-03-23T13:07:39Z</time>
      </trkpt>
      <trkpt lat="44.73802" lon="6.8504">
        <ele>2084.6</ele>
        <time>2026-03-23T13:07:40Z</time>
      </trkpt>
      <trkpt lat="44.73802" lon="6.85039">
        <ele>2084.6</ele>
        <time>2026-03-23T13:07:41Z</time>
      </trkpt>
      <trkpt lat="44.73802" lon="6.85039">
        <ele>2084.6</ele>
        <time>2026-03-23T13:07:42Z</time>
      </trkpt>
      <trkpt lat="44.73802" lon="6.85039">
        <ele>2084.6</ele>
        <time>2026-03-23T13:07:43Z</time>
      </trkpt>
      <trkpt lat="44.73802" lon="6.85039">
        <ele>2084.6</ele>
        <time>2026-03-23T13:07:44Z</time>
      </trkpt>
      <trkpt lat="44.73802" lon="6.85039">
        <ele>2084.6</ele>
        <time>2026-03-23T13:07:45Z</time>
      </trkpt>
      <trkpt lat="44.73802" lon="6.85039">
        <ele>2084.6</ele>
        <time>2026-03-23T13:07:46Z</time>
      </trkpt>
      <trkpt lat="44.73802" lon="6.85039">
        <ele>2084.6</ele>
        <time>2026-03-23T13:07:47Z</time>
      </trkpt>
      <trkpt lat="44.73802" lon="6.85039">
        <ele>2084.6</ele>
        <time>2026-03-23T13:07:48Z</time>
      </trkpt>
      <trkpt lat="44.73802" lon="6.85039">
        <ele>2084.6</ele>
        <time>2026-03-23T13:07:49Z</time>
      </trkpt>
      <trkpt lat="44.73802" lon="6.85039">
        <ele>2084.6</ele>
        <time>2026-03-23T13:07:50Z</time>
      </trkpt>
      <trkpt lat="44.73802" lon="6.85039">
        <ele>2084.6</ele>
        <time>2026-03-23T13:07:51Z</time>
      </trkpt>
      <trkpt lat="44.73802" lon="6.85039">
        <ele>2084.6</ele>
        <time>2026-03-23T13:07:52Z</time>
      </trkpt>
      <trkpt lat="44.73802" lon="6.85039">
        <ele>2084.6</ele>
        <time>2026-03-23T13:07:53Z</time>
      </trkpt>
      <trkpt lat="44.73802" lon="6.85039">
        <ele>2084.6</ele>
        <time>2026-03-23T13:07:54Z</time>
      </trkpt>
      <trkpt lat="44.73802" lon="6.8504">
        <ele>2084.5</ele>
        <time>2026-03-23T13:07:55Z</time>
      </trkpt>
      <trkpt lat="44.73801" lon="6.85039">
        <ele>2084.5</ele>
        <time>2026-03-23T13:07:56Z</time>
      </trkpt>
      <trkpt lat="44.738" lon="6.85039">
        <ele>2084.4</ele>
        <time>2026-03-23T13:07:57Z</time>
      </trkpt>
      <trkpt lat="44.73798" lon="6.85037">
        <ele>2084.1</ele>
        <time>2026-03-23T13:07:58Z</time>
      </trkpt>
      <trkpt lat="44.73796" lon="6.85033">
        <ele>2083.4</ele>
        <time>2026-03-23T13:07:59Z</time>
      </trkpt>
      <trkpt lat="44.73796" lon="6.85026">
        <ele>2082</ele>
        <time>2026-03-23T13:08:00Z</time>
      </trkpt>
      <trkpt lat="44.73794" lon="6.85022">
        <ele>2080.9</ele>
        <time>2026-03-23T13:08:01Z</time>
      </trkpt>
      <trkpt lat="44.73792" lon="6.85015">
        <ele>2079.3</ele>
        <time>2026-03-23T13:08:02Z</time>
      </trkpt>
      <trkpt lat="44.7379" lon="6.85009">
        <ele>2078.7</ele>
        <time>2026-03-23T13:08:03Z</time>
      </trkpt>
      <trkpt lat="44.73788" lon="6.85001">
        <ele>2077</ele>
        <time>2026-03-23T13:08:04Z</time>
      </trkpt>
      <trkpt lat="44.73787" lon="6.84994">
        <ele>2076.3</ele>
        <time>2026-03-23T13:08:05Z</time>
      </trkpt>
      <trkpt lat="44.73785" lon="6.84986">
        <ele>2074.5</ele>
        <time>2026-03-23T13:08:06Z</time>
      </trkpt>
      <trkpt lat="44.73787" lon="6.8498">
        <ele>2073.6</ele>
        <time>2026-03-23T13:08:07Z</time>
      </trkpt>
      <trkpt lat="44.73785" lon="6.84973">
        <ele>2072.5</ele>
        <time>2026-03-23T13:08:08Z</time>
      </trkpt>
      <trkpt lat="44.73786" lon="6.84966">
        <ele>2071.1</ele>
        <time>2026-03-23T13:08:09Z</time>
      </trkpt>
      <trkpt lat="44.73788" lon="6.8496">
        <ele>2070.8</ele>
        <time>2026-03-23T13:08:10Z</time>
      </trkpt>
      <trkpt lat="44.73787" lon="6.84953">
        <ele>2069.4</ele>
        <time>2026-03-23T13:08:11Z</time>
      </trkpt>
      <trkpt lat="44.73789" lon="6.84947">
        <ele>2068.7</ele>
        <time>2026-03-23T13:08:12Z</time>
      </trkpt>
      <trkpt lat="44.73788" lon="6.84941">
        <ele>2067.2</ele>
        <time>2026-03-23T13:08:13Z</time>
      </trkpt>
      <trkpt lat="44.73784" lon="6.84934">
        <ele>2066.2</ele>
        <time>2026-03-23T13:08:14Z</time>
      </trkpt>
      <trkpt lat="44.73781" lon="6.84928">
        <ele>2064.6</ele>
        <time>2026-03-23T13:08:15Z</time>
      </trkpt>
      <trkpt lat="44.73777" lon="6.84922">
        <ele>2063.5</ele>
        <time>2026-03-23T13:08:16Z</time>
      </trkpt>
      <trkpt lat="44.73773" lon="6.84917">
        <ele>2061.9</ele>
        <time>2026-03-23T13:08:17Z</time>
      </trkpt>
      <trkpt lat="44.73769" lon="6.84909">
        <ele>2060</ele>
        <time>2026-03-23T13:08:18Z</time>
      </trkpt>
      <trkpt lat="44.73767" lon="6.849">
        <ele>2058.2</ele>
        <time>2026-03-23T13:08:19Z</time>
      </trkpt>
      <trkpt lat="44.7377" lon="6.84895">
        <ele>2058</ele>
        <time>2026-03-23T13:08:20Z</time>
      </trkpt>
      <trkpt lat="44.73771" lon="6.84889">
        <ele>2056.8</ele>
        <time>2026-03-23T13:08:21Z</time>
      </trkpt>
      <trkpt lat="44.7377" lon="6.84884">
        <ele>2056.1</ele>
        <time>2026-03-23T13:08:22Z</time>
      </trkpt>
      <trkpt lat="44.73771" lon="6.84878">
        <ele>2056.1</ele>
        <time>2026-03-23T13:08:23Z</time>
      </trkpt>
      <trkpt lat="44.73768" lon="6.84875">
        <ele>2054.4</ele>
        <time>2026-03-23T13:08:24Z</time>
      </trkpt>
      <trkpt lat="44.73766" lon="6.84869">
        <ele>2053.1</ele>
        <time>2026-03-23T13:08:25Z</time>
      </trkpt>
      <trkpt lat="44.73769" lon="6.84865">
        <ele>2053.6</ele>
        <time>2026-03-23T13:08:26Z</time>
      </trkpt>
      <trkpt lat="44.73769" lon="6.84863">
        <ele>2052.9</ele>
        <time>2026-03-23T13:08:27Z</time>
      </trkpt>
      <trkpt lat="44.73769" lon="6.8486">
        <ele>2052.9</ele>
        <time>2026-03-23T13:08:28Z</time>
      </trkpt>
      <trkpt lat="44.73766" lon="6.84858">
        <ele>2051.6</ele>
        <time>2026-03-23T13:08:29Z</time>
      </trkpt>
      <trkpt lat="44.73763" lon="6.84856">
        <ele>2050.2</ele>
        <time>2026-03-23T13:08:30Z</time>
      </trkpt>
      <trkpt lat="44.73759" lon="6.84853">
        <ele>2049.6</ele>
        <time>2026-03-23T13:08:31Z</time>
      </trkpt>
      <trkpt lat="44.73754" lon="6.84852">
        <ele>2048.4</ele>
        <time>2026-03-23T13:08:32Z</time>
      </trkpt>
      <trkpt lat="44.7375" lon="6.84847">
        <ele>2046.1</ele>
        <time>2026-03-23T13:08:33Z</time>
      </trkpt>
      <trkpt lat="44.73751" lon="6.84841">
        <ele>2045.3</ele>
        <time>2026-03-23T13:08:34Z</time>
      </trkpt>
      <trkpt lat="44.73751" lon="6.84837">
        <ele>2044.6</ele>
        <time>2026-03-23T13:08:35Z</time>
      </trkpt>
      <trkpt lat="44.73751" lon="6.84838">
        <ele>2044.6</ele>
        <time>2026-03-23T13:08:36Z</time>
      </trkpt>
      <trkpt lat="44.73751" lon="6.84837">
        <ele>2044.6</ele>
        <time>2026-03-23T13:08:37Z</time>
      </trkpt>
      <trkpt lat="44.73751" lon="6.84837">
        <ele>2044.6</ele>
        <time>2026-03-23T13:08:38Z</time>
      </trkpt>
      <trkpt lat="44.73751" lon="6.84838">
        <ele>2044.6</ele>
        <time>2026-03-23T13:08:39Z</time>
      </trkpt>
      <trkpt lat="44.73751" lon="6.84838">
        <ele>2044.6</ele>
        <time>2026-03-23T13:08:40Z</time>
      </trkpt>
      <trkpt lat="44.73751" lon="6.84838">
        <ele>2044.6</ele>
        <time>2026-03-23T13:08:41Z</time>
      </trkpt>
      <trkpt lat="44.73751" lon="6.84838">
        <ele>2044.6</ele>
        <time>2026-03-23T13:08:42Z</time>
      </trkpt>
      <trkpt lat="44.73751" lon="6.84838">
        <ele>2044.6</ele>
        <time>2026-03-23T13:08:43Z</time>
      </trkpt>
      <trkpt lat="44.73751" lon="6.84839">
        <ele>2044.6</ele>
        <time>2026-03-23T13:08:44Z</time>
      </trkpt>
      <trkpt lat="44.73752" lon="6.84839">
        <ele>2044.6</ele>
        <time>2026-03-23T13:08:45Z</time>
      </trkpt>
      <trkpt lat="44.73752" lon="6.84839">
        <ele>2044.6</ele>
        <time>2026-03-23T13:08:46Z</time>
      </trkpt>
      <trkpt lat="44.73752" lon="6.84839">
        <ele>2044.6</ele>
        <time>2026-03-23T13:08:47Z</time>
      </trkpt>
      <trkpt lat="44.73752" lon="6.84839">
        <ele>2044.6</ele>
        <time>2026-03-23T13:08:48Z</time>
      </trkpt>
      <trkpt lat="44.73752" lon="6.84839">
        <ele>2044.6</ele>
        <time>2026-03-23T13:08:49Z</time>
      </trkpt>
      <trkpt lat="44.73752" lon="6.84839">
        <ele>2044.6</ele>
        <time>2026-03-23T13:08:50Z</time>
      </trkpt>
      <trkpt lat="44.73752" lon="6.84839">
        <ele>2044.6</ele>
        <time>2026-03-23T13:08:51Z</time>
      </trkpt>
      <trkpt lat="44.73752" lon="6.84839">
        <ele>2044.6</ele>
        <time>2026-03-23T13:08:52Z</time>
      </trkpt>
      <trkpt lat="44.73752" lon="6.84839">
        <ele>2044.6</ele>
        <time>2026-03-23T13:08:53Z</time>
      </trkpt>
      <trkpt lat="44.73752" lon="6.84839">
        <ele>2044.6</ele>
        <time>2026-03-23T13:08:54Z</time>
      </trkpt>
      <trkpt lat="44.73752" lon="6.84839">
        <ele>2044.6</ele>
        <time>2026-03-23T13:08:55Z</time>
      </trkpt>
      <trkpt lat="44.73752" lon="6.84839">
        <ele>2044.6</ele>
        <time>2026-03-23T13:08:56Z</time>
      </trkpt>
      <trkpt lat="44.73752" lon="6.84839">
        <ele>2044.6</ele>
        <time>2026-03-23T13:08:57Z</time>
      </trkpt>
      <trkpt lat="44.73752" lon="6.84839">
        <ele>2044.6</ele>
        <time>2026-03-23T13:08:58Z</time>
      </trkpt>
      <trkpt lat="44.73752" lon="6.84839">
        <ele>2044.6</ele>
        <time>2026-03-23T13:08:59Z</time>
      </trkpt>
      <trkpt lat="44.73752" lon="6.84839">
        <ele>2044.6</ele>
        <time>2026-03-23T13:09:00Z</time>
      </trkpt>
      <trkpt lat="44.73752" lon="6.84839">
        <ele>2044.6</ele>
        <time>2026-03-23T13:09:01Z</time>
      </trkpt>
      <trkpt lat="44.73752" lon="6.84839">
        <ele>2044.6</ele>
        <time>2026-03-23T13:09:02Z</time>
      </trkpt>
      <trkpt lat="44.73752" lon="6.84839">
        <ele>2044.6</ele>
        <time>2026-03-23T13:09:03Z</time>
      </trkpt>
      <trkpt lat="44.73752" lon="6.84839">
        <ele>2044.6</ele>
        <time>2026-03-23T13:09:04Z</time>
      </trkpt>
      <trkpt lat="44.73752" lon="6.84839">
        <ele>2044.6</ele>
        <time>2026-03-23T13:09:05Z</time>
      </trkpt>
      <trkpt lat="44.73752" lon="6.84838">
        <ele>2044.6</ele>
        <time>2026-03-23T13:09:06Z</time>
      </trkpt>
      <trkpt lat="44.73752" lon="6.84838">
        <ele>2044.6</ele>
        <time>2026-03-23T13:09:07Z</time>
      </trkpt>
      <trkpt lat="44.73752" lon="6.84838">
        <ele>2044.6</ele>
        <time>2026-03-23T13:09:08Z</time>
      </trkpt>
      <trkpt lat="44.73752" lon="6.84838">
        <ele>2044.6</ele>
        <time>2026-03-23T13:09:09Z</time>
      </trkpt>
      <trkpt lat="44.73752" lon="6.84838">
        <ele>2044.6</ele>
        <time>2026-03-23T13:09:10Z</time>
      </trkpt>
      <trkpt lat="44.73752" lon="6.84838">
        <ele>2044.6</ele>
        <time>2026-03-23T13:09:11Z</time>
      </trkpt>
      <trkpt lat="44.73752" lon="6.84838">
        <ele>2044.6</ele>
        <time>2026-03-23T13:09:12Z</time>
      </trkpt>
      <trkpt lat="44.73752" lon="6.84838">
        <ele>2044.6</ele>
        <time>2026-03-23T13:09:13Z</time>
      </trkpt>
      <trkpt lat="44.73752" lon="6.84838">
        <ele>2044.6</ele>
        <time>2026-03-23T13:09:14Z</time>
      </trkpt>
      <trkpt lat="44.73752" lon="6.84838">
        <ele>2044.6</ele>
        <time>2026-03-23T13:09:15Z</time>
      </trkpt>
      <trkpt lat="44.73752" lon="6.84838">
        <ele>2044.6</ele>
        <time>2026-03-23T13:09:16Z</time>
      </trkpt>
      <trkpt lat="44.73752" lon="6.84838">
        <ele>2044.6</ele>
        <time>2026-03-23T13:09:17Z</time>
      </trkpt>
      <trkpt lat="44.73752" lon="6.84838">
        <ele>2044.6</ele>
        <time>2026-03-23T13:09:18Z</time>
      </trkpt>
      <trkpt lat="44.73752" lon="6.84838">
        <ele>2044.6</ele>
        <time>2026-03-23T13:09:19Z</time>
      </trkpt>
      <trkpt lat="44.73752" lon="6.84838">
        <ele>2044.6</ele>
        <time>2026-03-23T13:09:20Z</time>
      </trkpt>
      <trkpt lat="44.73752" lon="6.84838">
        <ele>2044.6</ele>
        <time>2026-03-23T13:09:21Z</time>
      </trkpt>
      <trkpt lat="44.73752" lon="6.84838">
        <ele>2044.6</ele>
        <time>2026-03-23T13:09:22Z</time>
      </trkpt>
      <trkpt lat="44.73752" lon="6.84838">
        <ele>2044.7</ele>
        <time>2026-03-23T13:09:23Z</time>
      </trkpt>
      <trkpt lat="44.73752" lon="6.84838">
        <ele>2044.7</ele>
        <time>2026-03-23T13:09:24Z</time>
      </trkpt>
      <trkpt lat="44.73752" lon="6.84838">
        <ele>2044.7</ele>
        <time>2026-03-23T13:09:25Z</time>
      </trkpt>
      <trkpt lat="44.73752" lon="6.84838">
        <ele>2044.7</ele>
        <time>2026-03-23T13:09:26Z</time>
      </trkpt>
      <trkpt lat="44.73752" lon="6.84838">
        <ele>2044.7</ele>
        <time>2026-03-23T13:09:27Z</time>
      </trkpt>
      <trkpt lat="44.73752" lon="6.84838">
        <ele>2044.7</ele>
        <time>2026-03-23T13:09:28Z</time>
      </trkpt>
      <trkpt lat="44.73752" lon="6.84838">
        <ele>2044.7</ele>
        <time>2026-03-23T13:09:29Z</time>
      </trkpt>
      <trkpt lat="44.73752" lon="6.84838">
        <ele>2044.7</ele>
        <time>2026-03-23T13:09:30Z</time>
      </trkpt>
      <trkpt lat="44.73752" lon="6.84838">
        <ele>2044.7</ele>
        <time>2026-03-23T13:09:31Z</time>
      </trkpt>
      <trkpt lat="44.73752" lon="6.84838">
        <ele>2044.7</ele>
        <time>2026-03-23T13:09:32Z</time>
      </trkpt>
      <trkpt lat="44.73752" lon="6.84838">
        <ele>2044.7</ele>
        <time>2026-03-23T13:09:33Z</time>
      </trkpt>
      <trkpt lat="44.73752" lon="6.84838">
        <ele>2044.7</ele>
        <time>2026-03-23T13:09:34Z</time>
      </trkpt>
      <trkpt lat="44.73752" lon="6.84838">
        <ele>2044.7</ele>
        <time>2026-03-23T13:09:35Z</time>
      </trkpt>
      <trkpt lat="44.73752" lon="6.84838">
        <ele>2044.7</ele>
        <time>2026-03-23T13:09:36Z</time>
      </trkpt>
      <trkpt lat="44.73752" lon="6.84838">
        <ele>2044.7</ele>
        <time>2026-03-23T13:09:37Z</time>
      </trkpt>
      <trkpt lat="44.73752" lon="6.84838">
        <ele>2044.7</ele>
        <time>2026-03-23T13:09:38Z</time>
      </trkpt>
      <trkpt lat="44.73753" lon="6.84838">
        <ele>2045.4</ele>
        <time>2026-03-23T13:09:39Z</time>
      </trkpt>
      <trkpt lat="44.73753" lon="6.84839">
        <ele>2045.4</ele>
        <time>2026-03-23T13:09:40Z</time>
      </trkpt>
      <trkpt lat="44.73753" lon="6.84839">
        <ele>2045.4</ele>
        <time>2026-03-23T13:09:41Z</time>
      </trkpt>
      <trkpt lat="44.73753" lon="6.84839">
        <ele>2045.5</ele>
        <time>2026-03-23T13:09:42Z</time>
      </trkpt>
      <trkpt lat="44.73753" lon="6.84839">
        <ele>2045.4</ele>
        <time>2026-03-23T13:09:43Z</time>
      </trkpt>
      <trkpt lat="44.73753" lon="6.84839">
        <ele>2045.5</ele>
        <time>2026-03-23T13:09:44Z</time>
      </trkpt>
      <trkpt lat="44.73753" lon="6.84839">
        <ele>2046.2</ele>
        <time>2026-03-23T13:09:45Z</time>
      </trkpt>
      <trkpt lat="44.73753" lon="6.84839">
        <ele>2046.2</ele>
        <time>2026-03-23T13:09:46Z</time>
      </trkpt>
      <trkpt lat="44.73753" lon="6.84839">
        <ele>2046.2</ele>
        <time>2026-03-23T13:09:47Z</time>
      </trkpt>
      <trkpt lat="44.73753" lon="6.84839">
        <ele>2045.4</ele>
        <time>2026-03-23T13:09:48Z</time>
      </trkpt>
      <trkpt lat="44.73753" lon="6.84839">
        <ele>2045.4</ele>
        <time>2026-03-23T13:09:49Z</time>
      </trkpt>
      <trkpt lat="44.73753" lon="6.84839">
        <ele>2046.2</ele>
        <time>2026-03-23T13:09:50Z</time>
      </trkpt>
      <trkpt lat="44.73754" lon="6.84839">
        <ele>2046.2</ele>
        <time>2026-03-23T13:09:51Z</time>
      </trkpt>
      <trkpt lat="44.73754" lon="6.84839">
        <ele>2046.2</ele>
        <time>2026-03-23T13:09:52Z</time>
      </trkpt>
      <trkpt lat="44.73754" lon="6.84839">
        <ele>2046.2</ele>
        <time>2026-03-23T13:09:53Z</time>
      </trkpt>
      <trkpt lat="44.73754" lon="6.8484">
        <ele>2046.2</ele>
        <time>2026-03-23T13:09:54Z</time>
      </trkpt>
      <trkpt lat="44.73754" lon="6.8484">
        <ele>2046.2</ele>
        <time>2026-03-23T13:09:55Z</time>
      </trkpt>
      <trkpt lat="44.73753" lon="6.84839">
        <ele>2046.2</ele>
        <time>2026-03-23T13:09:56Z</time>
      </trkpt>
      <trkpt lat="44.73753" lon="6.84839">
        <ele>2046.2</ele>
        <time>2026-03-23T13:09:57Z</time>
      </trkpt>
      <trkpt lat="44.73753" lon="6.84839">
        <ele>2046.2</ele>
        <time>2026-03-23T13:09:58Z</time>
      </trkpt>
      <trkpt lat="44.73753" lon="6.84839">
        <ele>2046.2</ele>
        <time>2026-03-23T13:09:59Z</time>
      </trkpt>
      <trkpt lat="44.73753" lon="6.84839">
        <ele>2046.2</ele>
        <time>2026-03-23T13:10:00Z</time>
      </trkpt>
      <trkpt lat="44.73753" lon="6.84839">
        <ele>2046.2</ele>
        <time>2026-03-23T13:10:01Z</time>
      </trkpt>
      <trkpt lat="44.73753" lon="6.84839">
        <ele>2045.5</ele>
        <time>2026-03-23T13:10:02Z</time>
      </trkpt>
      <trkpt lat="44.73753" lon="6.84839">
        <ele>2045.5</ele>
        <time>2026-03-23T13:10:03Z</time>
      </trkpt>
      <trkpt lat="44.73753" lon="6.84839">
        <ele>2045.5</ele>
        <time>2026-03-23T13:10:04Z</time>
      </trkpt>
      <trkpt lat="44.73753" lon="6.8484">
        <ele>2045.5</ele>
        <time>2026-03-23T13:10:05Z</time>
      </trkpt>
      <trkpt lat="44.73753" lon="6.8484">
        <ele>2045.5</ele>
        <time>2026-03-23T13:10:06Z</time>
      </trkpt>
      <trkpt lat="44.73753" lon="6.8484">
        <ele>2045.5</ele>
        <time>2026-03-23T13:10:07Z</time>
      </trkpt>
      <trkpt lat="44.73753" lon="6.8484">
        <ele>2045.5</ele>
        <time>2026-03-23T13:10:08Z</time>
      </trkpt>
      <trkpt lat="44.73753" lon="6.8484">
        <ele>2045.5</ele>
        <time>2026-03-23T13:10:09Z</time>
      </trkpt>
      <trkpt lat="44.73753" lon="6.8484">
        <ele>2045.5</ele>
        <time>2026-03-23T13:10:10Z</time>
      </trkpt>
      <trkpt lat="44.73753" lon="6.8484">
        <ele>2045.5</ele>
        <time>2026-03-23T13:10:11Z</time>
      </trkpt>
      <trkpt lat="44.73753" lon="6.8484">
        <ele>2045.5</ele>
        <time>2026-03-23T13:10:12Z</time>
      </trkpt>
      <trkpt lat="44.73753" lon="6.8484">
        <ele>2045.5</ele>
        <time>2026-03-23T13:10:13Z</time>
      </trkpt>
      <trkpt lat="44.73753" lon="6.8484">
        <ele>2045.5</ele>
        <time>2026-03-23T13:10:14Z</time>
      </trkpt>
      <trkpt lat="44.73753" lon="6.8484">
        <ele>2045.5</ele>
        <time>2026-03-23T13:10:15Z</time>
      </trkpt>
      <trkpt lat="44.73753" lon="6.8484">
        <ele>2045.5</ele>
        <time>2026-03-23T13:10:16Z</time>
      </trkpt>
      <trkpt lat="44.73753" lon="6.8484">
        <ele>2045.5</ele>
        <time>2026-03-23T13:10:17Z</time>
      </trkpt>
      <trkpt lat="44.73753" lon="6.8484">
        <ele>2045.5</ele>
        <time>2026-03-23T13:10:18Z</time>
      </trkpt>
      <trkpt lat="44.73753" lon="6.8484">
        <ele>2045.5</ele>
        <time>2026-03-23T13:10:19Z</time>
      </trkpt>
      <trkpt lat="44.73753" lon="6.8484">
        <ele>2045.5</ele>
        <time>2026-03-23T13:10:20Z</time>
      </trkpt>
      <trkpt lat="44.73753" lon="6.8484">
        <ele>2045.5</ele>
        <time>2026-03-23T13:10:21Z</time>
      </trkpt>
      <trkpt lat="44.73753" lon="6.8484">
        <ele>2046.2</ele>
        <time>2026-03-23T13:10:22Z</time>
      </trkpt>
      <trkpt lat="44.73753" lon="6.84839">
        <ele>2046.2</ele>
        <time>2026-03-23T13:10:23Z</time>
      </trkpt>
      <trkpt lat="44.73753" lon="6.84838">
        <ele>2045.5</ele>
        <time>2026-03-23T13:10:24Z</time>
      </trkpt>
      <trkpt lat="44.73753" lon="6.84837">
        <ele>2045.5</ele>
        <time>2026-03-23T13:10:25Z</time>
      </trkpt>
      <trkpt lat="44.73754" lon="6.84835">
        <ele>2045.5</ele>
        <time>2026-03-23T13:10:26Z</time>
      </trkpt>
      <trkpt lat="44.73754" lon="6.8483">
        <ele>2044.7</ele>
        <time>2026-03-23T13:10:27Z</time>
      </trkpt>
      <trkpt lat="44.73754" lon="6.84829">
        <ele>2043.9</ele>
        <time>2026-03-23T13:10:28Z</time>
      </trkpt>
      <trkpt lat="44.73753" lon="6.84825">
        <ele>2043.1</ele>
        <time>2026-03-23T13:10:29Z</time>
      </trkpt>
      <trkpt lat="44.73748" lon="6.84822">
        <ele>2041.6</ele>
        <time>2026-03-23T13:10:30Z</time>
      </trkpt>
      <trkpt lat="44.73747" lon="6.84816">
        <ele>2039</ele>
        <time>2026-03-23T13:10:31Z</time>
      </trkpt>
      <trkpt lat="44.73745" lon="6.84811">
        <ele>2038.1</ele>
        <time>2026-03-23T13:10:32Z</time>
      </trkpt>
      <trkpt lat="44.73742" lon="6.84806">
        <ele>2036.4</ele>
        <time>2026-03-23T13:10:33Z</time>
      </trkpt>
      <trkpt lat="44.7374" lon="6.848">
        <ele>2033.9</ele>
        <time>2026-03-23T13:10:34Z</time>
      </trkpt>
      <trkpt lat="44.73736" lon="6.84796">
        <ele>2033.2</ele>
        <time>2026-03-23T13:10:35Z</time>
      </trkpt>
      <trkpt lat="44.73735" lon="6.84789">
        <ele>2031.5</ele>
        <time>2026-03-23T13:10:36Z</time>
      </trkpt>
      <trkpt lat="44.73734" lon="6.84782">
        <ele>2029.1</ele>
        <time>2026-03-23T13:10:37Z</time>
      </trkpt>
      <trkpt lat="44.73729" lon="6.8478">
        <ele>2028.4</ele>
        <time>2026-03-23T13:10:38Z</time>
      </trkpt>
      <trkpt lat="44.73727" lon="6.84774">
        <ele>2025.7</ele>
        <time>2026-03-23T13:10:39Z</time>
      </trkpt>
      <trkpt lat="44.73723" lon="6.8477">
        <ele>2023.9</ele>
        <time>2026-03-23T13:10:40Z</time>
      </trkpt>
      <trkpt lat="44.73719" lon="6.84764">
        <ele>2022.2</ele>
        <time>2026-03-23T13:10:41Z</time>
      </trkpt>
      <trkpt lat="44.7372" lon="6.84758">
        <ele>2021.2</ele>
        <time>2026-03-23T13:10:42Z</time>
      </trkpt>
      <trkpt lat="44.7372" lon="6.84753">
        <ele>2019.3</ele>
        <time>2026-03-23T13:10:43Z</time>
      </trkpt>
      <trkpt lat="44.7372" lon="6.84748">
        <ele>2018.4</ele>
        <time>2026-03-23T13:10:44Z</time>
      </trkpt>
      <trkpt lat="44.73717" lon="6.84745">
        <ele>2017.7</ele>
        <time>2026-03-23T13:10:45Z</time>
      </trkpt>
      <trkpt lat="44.73715" lon="6.84743">
        <ele>2016.2</ele>
        <time>2026-03-23T13:10:46Z</time>
      </trkpt>
      <trkpt lat="44.73711" lon="6.84741">
        <ele>2015.6</ele>
        <time>2026-03-23T13:10:47Z</time>
      </trkpt>
      <trkpt lat="44.73711" lon="6.84739">
        <ele>2014.7</ele>
        <time>2026-03-23T13:10:48Z</time>
      </trkpt>
      <trkpt lat="44.7371" lon="6.84738">
        <ele>2014.7</ele>
        <time>2026-03-23T13:10:49Z</time>
      </trkpt>
      <trkpt lat="44.7371" lon="6.84738">
        <ele>2014.2</ele>
        <time>2026-03-23T13:10:50Z</time>
      </trkpt>
      <trkpt lat="44.73709" lon="6.84737">
        <ele>2014.2</ele>
        <time>2026-03-23T13:10:51Z</time>
      </trkpt>
      <trkpt lat="44.73709" lon="6.84736">
        <ele>2014.2</ele>
        <time>2026-03-23T13:10:52Z</time>
      </trkpt>
      <trkpt lat="44.73708" lon="6.84736">
        <ele>2014.2</ele>
        <time>2026-03-23T13:10:53Z</time>
      </trkpt>
      <trkpt lat="44.73709" lon="6.84734">
        <ele>2013.3</ele>
        <time>2026-03-23T13:10:54Z</time>
      </trkpt>
      <trkpt lat="44.73709" lon="6.84734">
        <ele>2013.3</ele>
        <time>2026-03-23T13:10:55Z</time>
      </trkpt>
      <trkpt lat="44.73709" lon="6.84734">
        <ele>2013.3</ele>
        <time>2026-03-23T13:10:56Z</time>
      </trkpt>
      <trkpt lat="44.73709" lon="6.84734">
        <ele>2013.3</ele>
        <time>2026-03-23T13:10:57Z</time>
      </trkpt>
      <trkpt lat="44.73709" lon="6.84732">
        <ele>2013.3</ele>
        <time>2026-03-23T13:10:58Z</time>
      </trkpt>
      <trkpt lat="44.7371" lon="6.84731">
        <ele>2012.3</ele>
        <time>2026-03-23T13:10:59Z</time>
      </trkpt>
      <trkpt lat="44.7371" lon="6.8473">
        <ele>2012.3</ele>
        <time>2026-03-23T13:11:00Z</time>
      </trkpt>
      <trkpt lat="44.7371" lon="6.8473">
        <ele>2012.3</ele>
        <time>2026-03-23T13:11:01Z</time>
      </trkpt>
      <trkpt lat="44.7371" lon="6.8473">
        <ele>2012.3</ele>
        <time>2026-03-23T13:11:02Z</time>
      </trkpt>
      <trkpt lat="44.7371" lon="6.84729">
        <ele>2012.3</ele>
        <time>2026-03-23T13:11:03Z</time>
      </trkpt>
      <trkpt lat="44.7371" lon="6.84729">
        <ele>2012.7</ele>
        <time>2026-03-23T13:11:04Z</time>
      </trkpt>
      <trkpt lat="44.73711" lon="6.84728">
        <ele>2012.7</ele>
        <time>2026-03-23T13:11:05Z</time>
      </trkpt>
      <trkpt lat="44.73711" lon="6.84728">
        <ele>2012.7</ele>
        <time>2026-03-23T13:11:06Z</time>
      </trkpt>
      <trkpt lat="44.73711" lon="6.84728">
        <ele>2012.7</ele>
        <time>2026-03-23T13:11:07Z</time>
      </trkpt>
      <trkpt lat="44.73711" lon="6.84728">
        <ele>2012.7</ele>
        <time>2026-03-23T13:11:08Z</time>
      </trkpt>
      <trkpt lat="44.73711" lon="6.84728">
        <ele>2012.7</ele>
        <time>2026-03-23T13:11:09Z</time>
      </trkpt>
      <trkpt lat="44.7371" lon="6.84727">
        <ele>2012.7</ele>
        <time>2026-03-23T13:11:10Z</time>
      </trkpt>
      <trkpt lat="44.7371" lon="6.84727">
        <ele>2012.7</ele>
        <time>2026-03-23T13:11:11Z</time>
      </trkpt>
      <trkpt lat="44.7371" lon="6.84728">
        <ele>2012.3</ele>
        <time>2026-03-23T13:11:12Z</time>
      </trkpt>
      <trkpt lat="44.73709" lon="6.84727">
        <ele>2012.3</ele>
        <time>2026-03-23T13:11:13Z</time>
      </trkpt>
      <trkpt lat="44.73709" lon="6.84727">
        <ele>2011.2</ele>
        <time>2026-03-23T13:11:14Z</time>
      </trkpt>
      <trkpt lat="44.73708" lon="6.84727">
        <ele>2011.2</ele>
        <time>2026-03-23T13:11:15Z</time>
      </trkpt>
      <trkpt lat="44.73708" lon="6.84727">
        <ele>2011.2</ele>
        <time>2026-03-23T13:11:16Z</time>
      </trkpt>
      <trkpt lat="44.73708" lon="6.84727">
        <ele>2011.2</ele>
        <time>2026-03-23T13:11:17Z</time>
      </trkpt>
      <trkpt lat="44.73707" lon="6.84725">
        <ele>2010.8</ele>
        <time>2026-03-23T13:11:18Z</time>
      </trkpt>
      <trkpt lat="44.73705" lon="6.84725">
        <ele>2010.8</ele>
        <time>2026-03-23T13:11:19Z</time>
      </trkpt>
      <trkpt lat="44.73704" lon="6.84725">
        <ele>2010.8</ele>
        <time>2026-03-23T13:11:20Z</time>
      </trkpt>
      <trkpt lat="44.73703" lon="6.84725">
        <ele>2010.3</ele>
        <time>2026-03-23T13:11:21Z</time>
      </trkpt>
      <trkpt lat="44.73703" lon="6.84725">
        <ele>2010.3</ele>
        <time>2026-03-23T13:11:22Z</time>
      </trkpt>
      <trkpt lat="44.73702" lon="6.84726">
        <ele>2010.3</ele>
        <time>2026-03-23T13:11:23Z</time>
      </trkpt>
      <trkpt lat="44.73701" lon="6.84726">
        <ele>2010.3</ele>
        <time>2026-03-23T13:11:24Z</time>
      </trkpt>
      <trkpt lat="44.737" lon="6.84726">
        <ele>2009.9</ele>
        <time>2026-03-23T13:11:25Z</time>
      </trkpt>
      <trkpt lat="44.737" lon="6.84727">
        <ele>2009.9</ele>
        <time>2026-03-23T13:11:26Z</time>
      </trkpt>
      <trkpt lat="44.73699" lon="6.84727">
        <ele>2010.9</ele>
        <time>2026-03-23T13:11:27Z</time>
      </trkpt>
      <trkpt lat="44.73697" lon="6.84728">
        <ele>2010.4</ele>
        <time>2026-03-23T13:11:28Z</time>
      </trkpt>
      <trkpt lat="44.73695" lon="6.84728">
        <ele>2010.4</ele>
        <time>2026-03-23T13:11:29Z</time>
      </trkpt>
      <trkpt lat="44.73692" lon="6.84728">
        <ele>2009.9</ele>
        <time>2026-03-23T13:11:30Z</time>
      </trkpt>
      <trkpt lat="44.73689" lon="6.84725">
        <ele>2008.4</ele>
        <time>2026-03-23T13:11:31Z</time>
      </trkpt>
      <trkpt lat="44.73687" lon="6.84722">
        <ele>2007</ele>
        <time>2026-03-23T13:11:32Z</time>
      </trkpt>
      <trkpt lat="44.73684" lon="6.8472">
        <ele>2006.6</ele>
        <time>2026-03-23T13:11:33Z</time>
      </trkpt>
      <trkpt lat="44.73682" lon="6.84718">
        <ele>2005.3</ele>
        <time>2026-03-23T13:11:34Z</time>
      </trkpt>
      <trkpt lat="44.7368" lon="6.84716">
        <ele>2005.3</ele>
        <time>2026-03-23T13:11:35Z</time>
      </trkpt>
      <trkpt lat="44.7368" lon="6.84716">
        <ele>2004.9</ele>
        <time>2026-03-23T13:11:36Z</time>
      </trkpt>
      <trkpt lat="44.73678" lon="6.84717">
        <ele>2004.9</ele>
        <time>2026-03-23T13:11:37Z</time>
      </trkpt>
      <trkpt lat="44.73676" lon="6.84719">
        <ele>2005.3</ele>
        <time>2026-03-23T13:11:38Z</time>
      </trkpt>
      <trkpt lat="44.73675" lon="6.8472">
        <ele>2005.3</ele>
        <time>2026-03-23T13:11:39Z</time>
      </trkpt>
      <trkpt lat="44.73671" lon="6.84721">
        <ele>2004.8</ele>
        <time>2026-03-23T13:11:40Z</time>
      </trkpt>
      <trkpt lat="44.7367" lon="6.84721">
        <ele>2004.3</ele>
        <time>2026-03-23T13:11:41Z</time>
      </trkpt>
      <trkpt lat="44.73666" lon="6.84721">
        <ele>2003.7</ele>
        <time>2026-03-23T13:11:42Z</time>
      </trkpt>
      <trkpt lat="44.73662" lon="6.8472">
        <ele>2003.2</ele>
        <time>2026-03-23T13:11:43Z</time>
      </trkpt>
      <trkpt lat="44.73659" lon="6.84721">
        <ele>2002.6</ele>
        <time>2026-03-23T13:11:44Z</time>
      </trkpt>
      <trkpt lat="44.73655" lon="6.84722">
        <ele>2001.5</ele>
        <time>2026-03-23T13:11:45Z</time>
      </trkpt>
      <trkpt lat="44.73652" lon="6.84724">
        <ele>2002.4</ele>
        <time>2026-03-23T13:11:46Z</time>
      </trkpt>
      <trkpt lat="44.7365" lon="6.84725">
        <ele>2001.9</ele>
        <time>2026-03-23T13:11:47Z</time>
      </trkpt>
      <trkpt lat="44.73646" lon="6.84725">
        <ele>2001.4</ele>
        <time>2026-03-23T13:11:48Z</time>
      </trkpt>
      <trkpt lat="44.73642" lon="6.84724">
        <ele>2000.3</ele>
        <time>2026-03-23T13:11:49Z</time>
      </trkpt>
      <trkpt lat="44.7364" lon="6.84719">
        <ele>1998.6</ele>
        <time>2026-03-23T13:11:50Z</time>
      </trkpt>
      <trkpt lat="44.73639" lon="6.84714">
        <ele>1997.6</ele>
        <time>2026-03-23T13:11:51Z</time>
      </trkpt>
      <trkpt lat="44.73641" lon="6.84711">
        <ele>1997.3</ele>
        <time>2026-03-23T13:11:52Z</time>
      </trkpt>
      <trkpt lat="44.73641" lon="6.8471">
        <ele>1996.4</ele>
        <time>2026-03-23T13:11:53Z</time>
      </trkpt>
      <trkpt lat="44.73641" lon="6.84707">
        <ele>1996.4</ele>
        <time>2026-03-23T13:11:54Z</time>
      </trkpt>
      <trkpt lat="44.73639" lon="6.84706">
        <ele>1995.7</ele>
        <time>2026-03-23T13:11:55Z</time>
      </trkpt>
      <trkpt lat="44.73637" lon="6.84708">
        <ele>1994.9</ele>
        <time>2026-03-23T13:11:56Z</time>
      </trkpt>
      <trkpt lat="44.73636" lon="6.84709">
        <ele>1994.9</ele>
        <time>2026-03-23T13:11:57Z</time>
      </trkpt>
      <trkpt lat="44.73635" lon="6.8471">
        <ele>1995.9</ele>
        <time>2026-03-23T13:11:58Z</time>
      </trkpt>
      <trkpt lat="44.73634" lon="6.84711">
        <ele>1995.9</ele>
        <time>2026-03-23T13:11:59Z</time>
      </trkpt>
      <trkpt lat="44.73631" lon="6.84711">
        <ele>1995.2</ele>
        <time>2026-03-23T13:12:00Z</time>
      </trkpt>
      <trkpt lat="44.7363" lon="6.84711">
        <ele>1994.5</ele>
        <time>2026-03-23T13:12:01Z</time>
      </trkpt>
      <trkpt lat="44.7363" lon="6.84706">
        <ele>1993.5</ele>
        <time>2026-03-23T13:12:02Z</time>
      </trkpt>
      <trkpt lat="44.7363" lon="6.84704">
        <ele>1992.6</ele>
        <time>2026-03-23T13:12:03Z</time>
      </trkpt>
      <trkpt lat="44.73631" lon="6.84703">
        <ele>1993.3</ele>
        <time>2026-03-23T13:12:04Z</time>
      </trkpt>
      <trkpt lat="44.73632" lon="6.84701">
        <ele>1992.4</ele>
        <time>2026-03-23T13:12:05Z</time>
      </trkpt>
      <trkpt lat="44.73632" lon="6.84697">
        <ele>1992.4</ele>
        <time>2026-03-23T13:12:06Z</time>
      </trkpt>
      <trkpt lat="44.73633" lon="6.84693">
        <ele>1990.4</ele>
        <time>2026-03-23T13:12:07Z</time>
      </trkpt>
      <trkpt lat="44.73634" lon="6.84688">
        <ele>1990.2</ele>
        <time>2026-03-23T13:12:08Z</time>
      </trkpt>
      <trkpt lat="44.73635" lon="6.84685">
        <ele>1990.2</ele>
        <time>2026-03-23T13:12:09Z</time>
      </trkpt>
      <trkpt lat="44.73637" lon="6.84683">
        <ele>1989.1</ele>
        <time>2026-03-23T13:12:10Z</time>
      </trkpt>
      <trkpt lat="44.73637" lon="6.84683">
        <ele>1989.1</ele>
        <time>2026-03-23T13:12:11Z</time>
      </trkpt>
      <trkpt lat="44.73637" lon="6.84683">
        <ele>1989.1</ele>
        <time>2026-03-23T13:12:12Z</time>
      </trkpt>
      <trkpt lat="44.73637" lon="6.84683">
        <ele>1989.1</ele>
        <time>2026-03-23T13:12:13Z</time>
      </trkpt>
      <trkpt lat="44.73637" lon="6.84683">
        <ele>1989.1</ele>
        <time>2026-03-23T13:12:14Z</time>
      </trkpt>
      <trkpt lat="44.73637" lon="6.84683">
        <ele>1989.1</ele>
        <time>2026-03-23T13:12:15Z</time>
      </trkpt>
      <trkpt lat="44.73637" lon="6.84683">
        <ele>1989.1</ele>
        <time>2026-03-23T13:12:16Z</time>
      </trkpt>
      <trkpt lat="44.73637" lon="6.84682">
        <ele>1990</ele>
        <time>2026-03-23T13:12:17Z</time>
      </trkpt>
      <trkpt lat="44.73637" lon="6.84682">
        <ele>1990</ele>
        <time>2026-03-23T13:12:18Z</time>
      </trkpt>
      <trkpt lat="44.73637" lon="6.84682">
        <ele>1990</ele>
        <time>2026-03-23T13:12:19Z</time>
      </trkpt>
      <trkpt lat="44.73637" lon="6.84682">
        <ele>1990</ele>
        <time>2026-03-23T13:12:20Z</time>
      </trkpt>
      <trkpt lat="44.73637" lon="6.84682">
        <ele>1990</ele>
        <time>2026-03-23T13:12:21Z</time>
      </trkpt>
      <trkpt lat="44.73637" lon="6.84682">
        <ele>1990</ele>
        <time>2026-03-23T13:12:22Z</time>
      </trkpt>
      <trkpt lat="44.73637" lon="6.84682">
        <ele>1990</ele>
        <time>2026-03-23T13:12:23Z</time>
      </trkpt>
      <trkpt lat="44.73637" lon="6.84681">
        <ele>1990</ele>
        <time>2026-03-23T13:12:24Z</time>
      </trkpt>
      <trkpt lat="44.73637" lon="6.84681">
        <ele>1990</ele>
        <time>2026-03-23T13:12:25Z</time>
      </trkpt>
      <trkpt lat="44.73638" lon="6.84681">
        <ele>1990</ele>
        <time>2026-03-23T13:12:26Z</time>
      </trkpt>
      <trkpt lat="44.73638" lon="6.84681">
        <ele>1990</ele>
        <time>2026-03-23T13:12:27Z</time>
      </trkpt>
      <trkpt lat="44.73638" lon="6.84681">
        <ele>1990</ele>
        <time>2026-03-23T13:12:28Z</time>
      </trkpt>
      <trkpt lat="44.73638" lon="6.84681">
        <ele>1990</ele>
        <time>2026-03-23T13:12:29Z</time>
      </trkpt>
      <trkpt lat="44.73638" lon="6.84681">
        <ele>1990</ele>
        <time>2026-03-23T13:12:30Z</time>
      </trkpt>
      <trkpt lat="44.73638" lon="6.8468">
        <ele>1990</ele>
        <time>2026-03-23T13:12:31Z</time>
      </trkpt>
      <trkpt lat="44.73638" lon="6.8468">
        <ele>1990</ele>
        <time>2026-03-23T13:12:32Z</time>
      </trkpt>
      <trkpt lat="44.73638" lon="6.84678">
        <ele>1988.9</ele>
        <time>2026-03-23T13:12:33Z</time>
      </trkpt>
      <trkpt lat="44.73639" lon="6.84677">
        <ele>1988.9</ele>
        <time>2026-03-23T13:12:34Z</time>
      </trkpt>
      <trkpt lat="44.73639" lon="6.84676">
        <ele>1988.9</ele>
        <time>2026-03-23T13:12:35Z</time>
      </trkpt>
      <trkpt lat="44.73639" lon="6.84676">
        <ele>1988.9</ele>
        <time>2026-03-23T13:12:36Z</time>
      </trkpt>
      <trkpt lat="44.73639" lon="6.84676">
        <ele>1988.9</ele>
        <time>2026-03-23T13:12:37Z</time>
      </trkpt>
      <trkpt lat="44.73639" lon="6.84676">
        <ele>1988.9</ele>
        <time>2026-03-23T13:12:38Z</time>
      </trkpt>
      <trkpt lat="44.73639" lon="6.84676">
        <ele>1988.9</ele>
        <time>2026-03-23T13:12:39Z</time>
      </trkpt>
      <trkpt lat="44.73639" lon="6.84676">
        <ele>1988.9</ele>
        <time>2026-03-23T13:12:40Z</time>
      </trkpt>
      <trkpt lat="44.73639" lon="6.84676">
        <ele>1988.9</ele>
        <time>2026-03-23T13:12:41Z</time>
      </trkpt>
      <trkpt lat="44.73639" lon="6.84677">
        <ele>1988.9</ele>
        <time>2026-03-23T13:12:42Z</time>
      </trkpt>
      <trkpt lat="44.73639" lon="6.84677">
        <ele>1988.9</ele>
        <time>2026-03-23T13:12:43Z</time>
      </trkpt>
      <trkpt lat="44.73639" lon="6.84677">
        <ele>1988.9</ele>
        <time>2026-03-23T13:12:44Z</time>
      </trkpt>
      <trkpt lat="44.73639" lon="6.84677">
        <ele>1988.9</ele>
        <time>2026-03-23T13:12:45Z</time>
      </trkpt>
      <trkpt lat="44.73639" lon="6.84677">
        <ele>1988.9</ele>
        <time>2026-03-23T13:12:46Z</time>
      </trkpt>
      <trkpt lat="44.73639" lon="6.84677">
        <ele>1988.9</ele>
        <time>2026-03-23T13:12:47Z</time>
      </trkpt>
      <trkpt lat="44.73639" lon="6.84677">
        <ele>1988.9</ele>
        <time>2026-03-23T13:12:48Z</time>
      </trkpt>
      <trkpt lat="44.73639" lon="6.84677">
        <ele>1988.9</ele>
        <time>2026-03-23T13:12:49Z</time>
      </trkpt>
      <trkpt lat="44.73639" lon="6.84677">
        <ele>1989</ele>
        <time>2026-03-23T13:12:50Z</time>
      </trkpt>
      <trkpt lat="44.73639" lon="6.84677">
        <ele>1989</ele>
        <time>2026-03-23T13:12:51Z</time>
      </trkpt>
      <trkpt lat="44.73639" lon="6.84677">
        <ele>1989</ele>
        <time>2026-03-23T13:12:52Z</time>
      </trkpt>
      <trkpt lat="44.73639" lon="6.84677">
        <ele>1989</ele>
        <time>2026-03-23T13:12:53Z</time>
      </trkpt>
      <trkpt lat="44.73639" lon="6.84677">
        <ele>1989</ele>
        <time>2026-03-23T13:12:54Z</time>
      </trkpt>
      <trkpt lat="44.73639" lon="6.84677">
        <ele>1989</ele>
        <time>2026-03-23T13:12:55Z</time>
      </trkpt>
      <trkpt lat="44.73639" lon="6.84677">
        <ele>1989</ele>
        <time>2026-03-23T13:12:56Z</time>
      </trkpt>
      <trkpt lat="44.73639" lon="6.84677">
        <ele>1989</ele>
        <time>2026-03-23T13:12:57Z</time>
      </trkpt>
      <trkpt lat="44.73639" lon="6.84677">
        <ele>1989</ele>
        <time>2026-03-23T13:12:58Z</time>
      </trkpt>
      <trkpt lat="44.73639" lon="6.84677">
        <ele>1989</ele>
        <time>2026-03-23T13:12:59Z</time>
      </trkpt>
      <trkpt lat="44.73639" lon="6.84677">
        <ele>1989</ele>
        <time>2026-03-23T13:13:00Z</time>
      </trkpt>
      <trkpt lat="44.73639" lon="6.84677">
        <ele>1989</ele>
        <time>2026-03-23T13:13:01Z</time>
      </trkpt>
      <trkpt lat="44.73639" lon="6.84677">
        <ele>1989</ele>
        <time>2026-03-23T13:13:02Z</time>
      </trkpt>
      <trkpt lat="44.73639" lon="6.84677">
        <ele>1989</ele>
        <time>2026-03-23T13:13:03Z</time>
      </trkpt>
      <trkpt lat="44.73639" lon="6.84677">
        <ele>1989</ele>
        <time>2026-03-23T13:13:04Z</time>
      </trkpt>
      <trkpt lat="44.73639" lon="6.84677">
        <ele>1989</ele>
        <time>2026-03-23T13:13:05Z</time>
      </trkpt>
      <trkpt lat="44.73639" lon="6.84677">
        <ele>1989</ele>
        <time>2026-03-23T13:13:06Z</time>
      </trkpt>
      <trkpt lat="44.73639" lon="6.84677">
        <ele>1989</ele>
        <time>2026-03-23T13:13:07Z</time>
      </trkpt>
      <trkpt lat="44.73639" lon="6.84677">
        <ele>1989</ele>
        <time>2026-03-23T13:13:08Z</time>
      </trkpt>
      <trkpt lat="44.73639" lon="6.84677">
        <ele>1989</ele>
        <time>2026-03-23T13:13:09Z</time>
      </trkpt>
      <trkpt lat="44.73639" lon="6.84677">
        <ele>1989</ele>
        <time>2026-03-23T13:13:10Z</time>
      </trkpt>
      <trkpt lat="44.73639" lon="6.84677">
        <ele>1989</ele>
        <time>2026-03-23T13:13:11Z</time>
      </trkpt>
      <trkpt lat="44.73639" lon="6.84677">
        <ele>1989</ele>
        <time>2026-03-23T13:13:12Z</time>
      </trkpt>
      <trkpt lat="44.73639" lon="6.84677">
        <ele>1989</ele>
        <time>2026-03-23T13:13:13Z</time>
      </trkpt>
      <trkpt lat="44.73639" lon="6.84677">
        <ele>1989</ele>
        <time>2026-03-23T13:13:14Z</time>
      </trkpt>
      <trkpt lat="44.73639" lon="6.84677">
        <ele>1989</ele>
        <time>2026-03-23T13:13:15Z</time>
      </trkpt>
      <trkpt lat="44.73639" lon="6.84677">
        <ele>1989</ele>
        <time>2026-03-23T13:13:16Z</time>
      </trkpt>
      <trkpt lat="44.73639" lon="6.84677">
        <ele>1989</ele>
        <time>2026-03-23T13:13:17Z</time>
      </trkpt>
      <trkpt lat="44.73639" lon="6.84677">
        <ele>1989</ele>
        <time>2026-03-23T13:13:18Z</time>
      </trkpt>
      <trkpt lat="44.73639" lon="6.84677">
        <ele>1989</ele>
        <time>2026-03-23T13:13:19Z</time>
      </trkpt>
      <trkpt lat="44.73639" lon="6.84677">
        <ele>1989</ele>
        <time>2026-03-23T13:13:20Z</time>
      </trkpt>
      <trkpt lat="44.73639" lon="6.84677">
        <ele>1989</ele>
        <time>2026-03-23T13:13:21Z</time>
      </trkpt>
      <trkpt lat="44.73639" lon="6.84677">
        <ele>1989</ele>
        <time>2026-03-23T13:13:22Z</time>
      </trkpt>
      <trkpt lat="44.73639" lon="6.84677">
        <ele>1989</ele>
        <time>2026-03-23T13:13:23Z</time>
      </trkpt>
      <trkpt lat="44.73639" lon="6.84677">
        <ele>1989</ele>
        <time>2026-03-23T13:13:24Z</time>
      </trkpt>
      <trkpt lat="44.73639" lon="6.84677">
        <ele>1989</ele>
        <time>2026-03-23T13:13:25Z</time>
      </trkpt>
      <trkpt lat="44.73639" lon="6.84677">
        <ele>1989</ele>
        <time>2026-03-23T13:13:26Z</time>
      </trkpt>
      <trkpt lat="44.73639" lon="6.84677">
        <ele>1989</ele>
        <time>2026-03-23T13:13:27Z</time>
      </trkpt>
      <trkpt lat="44.73639" lon="6.84677">
        <ele>1989</ele>
        <time>2026-03-23T13:13:28Z</time>
      </trkpt>
      <trkpt lat="44.73639" lon="6.84677">
        <ele>1989</ele>
        <time>2026-03-23T13:13:29Z</time>
      </trkpt>
      <trkpt lat="44.73639" lon="6.84677">
        <ele>1989</ele>
        <time>2026-03-23T13:13:30Z</time>
      </trkpt>
      <trkpt lat="44.73639" lon="6.84677">
        <ele>1989</ele>
        <time>2026-03-23T13:13:31Z</time>
      </trkpt>
      <trkpt lat="44.73639" lon="6.84677">
        <ele>1989</ele>
        <time>2026-03-23T13:13:32Z</time>
      </trkpt>
      <trkpt lat="44.73639" lon="6.84677">
        <ele>1989</ele>
        <time>2026-03-23T13:13:33Z</time>
      </trkpt>
      <trkpt lat="44.73639" lon="6.84677">
        <ele>1989</ele>
        <time>2026-03-23T13:13:34Z</time>
      </trkpt>
      <trkpt lat="44.73639" lon="6.84677">
        <ele>1989</ele>
        <time>2026-03-23T13:13:35Z</time>
      </trkpt>
      <trkpt lat="44.73639" lon="6.84677">
        <ele>1989</ele>
        <time>2026-03-23T13:13:36Z</time>
      </trkpt>
      <trkpt lat="44.73639" lon="6.84677">
        <ele>1989</ele>
        <time>2026-03-23T13:13:37Z</time>
      </trkpt>
      <trkpt lat="44.73639" lon="6.84677">
        <ele>1989</ele>
        <time>2026-03-23T13:13:38Z</time>
      </trkpt>
      <trkpt lat="44.73639" lon="6.84677">
        <ele>1989</ele>
        <time>2026-03-23T13:13:39Z</time>
      </trkpt>
      <trkpt lat="44.73639" lon="6.84677">
        <ele>1989</ele>
        <time>2026-03-23T13:13:40Z</time>
      </trkpt>
      <trkpt lat="44.73639" lon="6.84677">
        <ele>1989</ele>
        <time>2026-03-23T13:13:41Z</time>
      </trkpt>
      <trkpt lat="44.73639" lon="6.84677">
        <ele>1989</ele>
        <time>2026-03-23T13:13:42Z</time>
      </trkpt>
      <trkpt lat="44.73639" lon="6.84677">
        <ele>1989</ele>
        <time>2026-03-23T13:13:43Z</time>
      </trkpt>
      <trkpt lat="44.73639" lon="6.84677">
        <ele>1989</ele>
        <time>2026-03-23T13:13:44Z</time>
      </trkpt>
      <trkpt lat="44.73639" lon="6.84677">
        <ele>1989</ele>
        <time>2026-03-23T13:13:45Z</time>
      </trkpt>
      <trkpt lat="44.73639" lon="6.84677">
        <ele>1989</ele>
        <time>2026-03-23T13:13:46Z</time>
      </trkpt>
      <trkpt lat="44.73639" lon="6.84677">
        <ele>1989</ele>
        <time>2026-03-23T13:13:47Z</time>
      </trkpt>
      <trkpt lat="44.73639" lon="6.84677">
        <ele>1989</ele>
        <time>2026-03-23T13:13:48Z</time>
      </trkpt>
      <trkpt lat="44.73639" lon="6.84677">
        <ele>1989.1</ele>
        <time>2026-03-23T13:13:49Z</time>
      </trkpt>
      <trkpt lat="44.73639" lon="6.84677">
        <ele>1989.1</ele>
        <time>2026-03-23T13:13:50Z</time>
      </trkpt>
      <trkpt lat="44.73639" lon="6.84677">
        <ele>1989.1</ele>
        <time>2026-03-23T13:13:51Z</time>
      </trkpt>
      <trkpt lat="44.73639" lon="6.84677">
        <ele>1989.1</ele>
        <time>2026-03-23T13:13:52Z</time>
      </trkpt>
      <trkpt lat="44.73639" lon="6.84677">
        <ele>1989.1</ele>
        <time>2026-03-23T13:13:53Z</time>
      </trkpt>
      <trkpt lat="44.73639" lon="6.84677">
        <ele>1989.1</ele>
        <time>2026-03-23T13:13:54Z</time>
      </trkpt>
      <trkpt lat="44.73639" lon="6.84677">
        <ele>1989.1</ele>
        <time>2026-03-23T13:13:55Z</time>
      </trkpt>
      <trkpt lat="44.73639" lon="6.84677">
        <ele>1989.1</ele>
        <time>2026-03-23T13:13:56Z</time>
      </trkpt>
      <trkpt lat="44.73639" lon="6.84677">
        <ele>1989.1</ele>
        <time>2026-03-23T13:13:57Z</time>
      </trkpt>
      <trkpt lat="44.73639" lon="6.84677">
        <ele>1989.1</ele>
        <time>2026-03-23T13:13:58Z</time>
      </trkpt>
      <trkpt lat="44.73639" lon="6.84677">
        <ele>1989.1</ele>
        <time>2026-03-23T13:13:59Z</time>
      </trkpt>
      <trkpt lat="44.73639" lon="6.84677">
        <ele>1989.1</ele>
        <time>2026-03-23T13:14:00Z</time>
      </trkpt>
      <trkpt lat="44.73639" lon="6.84677">
        <ele>1989.1</ele>
        <time>2026-03-23T13:14:01Z</time>
      </trkpt>
      <trkpt lat="44.73639" lon="6.84677">
        <ele>1989.1</ele>
        <time>2026-03-23T13:14:02Z</time>
      </trkpt>
      <trkpt lat="44.73639" lon="6.84677">
        <ele>1989.1</ele>
        <time>2026-03-23T13:14:03Z</time>
      </trkpt>
      <trkpt lat="44.73639" lon="6.84677">
        <ele>1989.1</ele>
        <time>2026-03-23T13:14:04Z</time>
      </trkpt>
      <trkpt lat="44.73639" lon="6.84677">
        <ele>1989.1</ele>
        <time>2026-03-23T13:14:05Z</time>
      </trkpt>
      <trkpt lat="44.73639" lon="6.84677">
        <ele>1989.1</ele>
        <time>2026-03-23T13:14:06Z</time>
      </trkpt>
      <trkpt lat="44.73639" lon="6.84677">
        <ele>1989.1</ele>
        <time>2026-03-23T13:14:07Z</time>
      </trkpt>
      <trkpt lat="44.73639" lon="6.84677">
        <ele>1989.1</ele>
        <time>2026-03-23T13:14:08Z</time>
      </trkpt>
      <trkpt lat="44.73639" lon="6.84677">
        <ele>1989.1</ele>
        <time>2026-03-23T13:14:09Z</time>
      </trkpt>
      <trkpt lat="44.73639" lon="6.84677">
        <ele>1989.1</ele>
        <time>2026-03-23T13:14:10Z</time>
      </trkpt>
      <trkpt lat="44.73639" lon="6.84677">
        <ele>1989.1</ele>
        <time>2026-03-23T13:14:11Z</time>
      </trkpt>
      <trkpt lat="44.73639" lon="6.84677">
        <ele>1989.1</ele>
        <time>2026-03-23T13:14:12Z</time>
      </trkpt>
      <trkpt lat="44.73639" lon="6.84677">
        <ele>1989.1</ele>
        <time>2026-03-23T13:14:13Z</time>
      </trkpt>
      <trkpt lat="44.73639" lon="6.84677">
        <ele>1989.1</ele>
        <time>2026-03-23T13:14:14Z</time>
      </trkpt>
      <trkpt lat="44.73638" lon="6.84677">
        <ele>1989.1</ele>
        <time>2026-03-23T13:14:15Z</time>
      </trkpt>
      <trkpt lat="44.73638" lon="6.84677">
        <ele>1989.1</ele>
        <time>2026-03-23T13:14:16Z</time>
      </trkpt>
      <trkpt lat="44.73638" lon="6.84677">
        <ele>1989.1</ele>
        <time>2026-03-23T13:14:17Z</time>
      </trkpt>
      <trkpt lat="44.73638" lon="6.84677">
        <ele>1989.1</ele>
        <time>2026-03-23T13:14:18Z</time>
      </trkpt>
      <trkpt lat="44.73638" lon="6.84677">
        <ele>1989.1</ele>
        <time>2026-03-23T13:14:19Z</time>
      </trkpt>
      <trkpt lat="44.73638" lon="6.84677">
        <ele>1989.1</ele>
        <time>2026-03-23T13:14:20Z</time>
      </trkpt>
      <trkpt lat="44.73638" lon="6.84677">
        <ele>1989.1</ele>
        <time>2026-03-23T13:14:21Z</time>
      </trkpt>
      <trkpt lat="44.73638" lon="6.84677">
        <ele>1989.1</ele>
        <time>2026-03-23T13:14:22Z</time>
      </trkpt>
      <trkpt lat="44.73639" lon="6.84677">
        <ele>1989.1</ele>
        <time>2026-03-23T13:14:23Z</time>
      </trkpt>
      <trkpt lat="44.73639" lon="6.84676">
        <ele>1989.1</ele>
        <time>2026-03-23T13:14:24Z</time>
      </trkpt>
      <trkpt lat="44.73639" lon="6.84676">
        <ele>1989.1</ele>
        <time>2026-03-23T13:14:25Z</time>
      </trkpt>
      <trkpt lat="44.73639" lon="6.84676">
        <ele>1989.1</ele>
        <time>2026-03-23T13:14:26Z</time>
      </trkpt>
      <trkpt lat="44.7364" lon="6.84675">
        <ele>1988</ele>
        <time>2026-03-23T13:14:27Z</time>
      </trkpt>
      <trkpt lat="44.7364" lon="6.84675">
        <ele>1988.8</ele>
        <time>2026-03-23T13:14:28Z</time>
      </trkpt>
      <trkpt lat="44.7364" lon="6.84674">
        <ele>1988.8</ele>
        <time>2026-03-23T13:14:29Z</time>
      </trkpt>
      <trkpt lat="44.7364" lon="6.84674">
        <ele>1988.8</ele>
        <time>2026-03-23T13:14:30Z</time>
      </trkpt>
      <trkpt lat="44.7364" lon="6.84674">
        <ele>1988.8</ele>
        <time>2026-03-23T13:14:31Z</time>
      </trkpt>
      <trkpt lat="44.7364" lon="6.84673">
        <ele>1988.8</ele>
        <time>2026-03-23T13:14:32Z</time>
      </trkpt>
      <trkpt lat="44.7364" lon="6.84673">
        <ele>1988.8</ele>
        <time>2026-03-23T13:14:33Z</time>
      </trkpt>
      <trkpt lat="44.7364" lon="6.84673">
        <ele>1988.8</ele>
        <time>2026-03-23T13:14:34Z</time>
      </trkpt>
      <trkpt lat="44.7364" lon="6.84673">
        <ele>1988.8</ele>
        <time>2026-03-23T13:14:35Z</time>
      </trkpt>
      <trkpt lat="44.7364" lon="6.84673">
        <ele>1988.8</ele>
        <time>2026-03-23T13:14:36Z</time>
      </trkpt>
      <trkpt lat="44.73641" lon="6.84672">
        <ele>1988.9</ele>
        <time>2026-03-23T13:14:37Z</time>
      </trkpt>
      <trkpt lat="44.73641" lon="6.84672">
        <ele>1988.9</ele>
        <time>2026-03-23T13:14:38Z</time>
      </trkpt>
      <trkpt lat="44.73642" lon="6.84671">
        <ele>1987.8</ele>
        <time>2026-03-23T13:14:39Z</time>
      </trkpt>
      <trkpt lat="44.73644" lon="6.84668">
        <ele>1988.5</ele>
        <time>2026-03-23T13:14:40Z</time>
      </trkpt>
      <trkpt lat="44.73645" lon="6.84667">
        <ele>1987.4</ele>
        <time>2026-03-23T13:14:41Z</time>
      </trkpt>
      <trkpt lat="44.73647" lon="6.84664">
        <ele>1988.1</ele>
        <time>2026-03-23T13:14:42Z</time>
      </trkpt>
      <trkpt lat="44.73648" lon="6.84663">
        <ele>1987.1</ele>
        <time>2026-03-23T13:14:43Z</time>
      </trkpt>
      <trkpt lat="44.7365" lon="6.8466">
        <ele>1987.7</ele>
        <time>2026-03-23T13:14:44Z</time>
      </trkpt>
      <trkpt lat="44.73651" lon="6.84658">
        <ele>1986.7</ele>
        <time>2026-03-23T13:14:45Z</time>
      </trkpt>
      <trkpt lat="44.73653" lon="6.84655">
        <ele>1987.3</ele>
        <time>2026-03-23T13:14:46Z</time>
      </trkpt>
      <trkpt lat="44.73656" lon="6.84652">
        <ele>1986.8</ele>
        <time>2026-03-23T13:14:47Z</time>
      </trkpt>
      <trkpt lat="44.73659" lon="6.84648">
        <ele>1986.2</ele>
        <time>2026-03-23T13:14:48Z</time>
      </trkpt>
      <trkpt lat="44.73664" lon="6.84643">
        <ele>1985.6</ele>
        <time>2026-03-23T13:14:49Z</time>
      </trkpt>
      <trkpt lat="44.73668" lon="6.84638">
        <ele>1985.3</ele>
        <time>2026-03-23T13:14:50Z</time>
      </trkpt>
      <trkpt lat="44.73672" lon="6.84634">
        <ele>1984.4</ele>
        <time>2026-03-23T13:14:51Z</time>
      </trkpt>
      <trkpt lat="44.73674" lon="6.8463">
        <ele>1983.4</ele>
        <time>2026-03-23T13:14:52Z</time>
      </trkpt>
      <trkpt lat="44.73673" lon="6.84623">
        <ele>1980.5</ele>
        <time>2026-03-23T13:14:53Z</time>
      </trkpt>
      <trkpt lat="44.73675" lon="6.84617">
        <ele>1979.7</ele>
        <time>2026-03-23T13:14:54Z</time>
      </trkpt>
      <trkpt lat="44.73676" lon="6.84611">
        <ele>1977.4</ele>
        <time>2026-03-23T13:14:55Z</time>
      </trkpt>
      <trkpt lat="44.73676" lon="6.84602">
        <ele>1975</ele>
        <time>2026-03-23T13:14:56Z</time>
      </trkpt>
      <trkpt lat="44.73677" lon="6.84595">
        <ele>1974.1</ele>
        <time>2026-03-23T13:14:57Z</time>
      </trkpt>
      <trkpt lat="44.73679" lon="6.8459">
        <ele>1972.8</ele>
        <time>2026-03-23T13:14:58Z</time>
      </trkpt>
      <trkpt lat="44.73682" lon="6.84585">
        <ele>1970.4</ele>
        <time>2026-03-23T13:14:59Z</time>
      </trkpt>
      <trkpt lat="44.73683" lon="6.84579">
        <ele>1969.3</ele>
        <time>2026-03-23T13:15:00Z</time>
      </trkpt>
      <trkpt lat="44.73685" lon="6.84572">
        <ele>1966.7</ele>
        <time>2026-03-23T13:15:01Z</time>
      </trkpt>
      <trkpt lat="44.73689" lon="6.84568">
        <ele>1965.9</ele>
        <time>2026-03-23T13:15:02Z</time>
      </trkpt>
      <trkpt lat="44.73692" lon="6.84564">
        <ele>1965.5</ele>
        <time>2026-03-23T13:15:03Z</time>
      </trkpt>
      <trkpt lat="44.73696" lon="6.8456">
        <ele>1965.9</ele>
        <time>2026-03-23T13:15:04Z</time>
      </trkpt>
      <trkpt lat="44.73699" lon="6.84555">
        <ele>1964</ele>
        <time>2026-03-23T13:15:05Z</time>
      </trkpt>
      <trkpt lat="44.73701" lon="6.84551">
        <ele>1962.7</ele>
        <time>2026-03-23T13:15:06Z</time>
      </trkpt>
      <trkpt lat="44.73704" lon="6.84543">
        <ele>1961.9</ele>
        <time>2026-03-23T13:15:07Z</time>
      </trkpt>
      <trkpt lat="44.73705" lon="6.84536">
        <ele>1959.9</ele>
        <time>2026-03-23T13:15:08Z</time>
      </trkpt>
      <trkpt lat="44.73704" lon="6.84527">
        <ele>1957.7</ele>
        <time>2026-03-23T13:15:09Z</time>
      </trkpt>
      <trkpt lat="44.73708" lon="6.84521">
        <ele>1956</ele>
        <time>2026-03-23T13:15:10Z</time>
      </trkpt>
      <trkpt lat="44.73709" lon="6.84514">
        <ele>1955</ele>
        <time>2026-03-23T13:15:11Z</time>
      </trkpt>
      <trkpt lat="44.73708" lon="6.84506">
        <ele>1953</ele>
        <time>2026-03-23T13:15:12Z</time>
      </trkpt>
      <trkpt lat="44.73712" lon="6.84498">
        <ele>1951.3</ele>
        <time>2026-03-23T13:15:13Z</time>
      </trkpt>
      <trkpt lat="44.73714" lon="6.84491">
        <ele>1950.7</ele>
        <time>2026-03-23T13:15:14Z</time>
      </trkpt>
      <trkpt lat="44.73715" lon="6.84487">
        <ele>1949.7</ele>
        <time>2026-03-23T13:15:15Z</time>
      </trkpt>
      <trkpt lat="44.73715" lon="6.84479">
        <ele>1947.9</ele>
        <time>2026-03-23T13:15:16Z</time>
      </trkpt>
      <trkpt lat="44.73717" lon="6.84473">
        <ele>1946.8</ele>
        <time>2026-03-23T13:15:17Z</time>
      </trkpt>
      <trkpt lat="44.73718" lon="6.84465">
        <ele>1945</ele>
        <time>2026-03-23T13:15:18Z</time>
      </trkpt>
      <trkpt lat="44.73721" lon="6.84459">
        <ele>1944.8</ele>
        <time>2026-03-23T13:15:19Z</time>
      </trkpt>
      <trkpt lat="44.73722" lon="6.84453">
        <ele>1944.6</ele>
        <time>2026-03-23T13:15:20Z</time>
      </trkpt>
      <trkpt lat="44.73723" lon="6.84445">
        <ele>1942.3</ele>
        <time>2026-03-23T13:15:21Z</time>
      </trkpt>
      <trkpt lat="44.73724" lon="6.8444">
        <ele>1941.5</ele>
        <time>2026-03-23T13:15:22Z</time>
      </trkpt>
      <trkpt lat="44.73725" lon="6.84442">
        <ele>1941.5</ele>
        <time>2026-03-23T13:15:23Z</time>
      </trkpt>
      <trkpt lat="44.73725" lon="6.84444">
        <ele>1942.3</ele>
        <time>2026-03-23T13:15:24Z</time>
      </trkpt>
      <trkpt lat="44.73725" lon="6.84444">
        <ele>1941.5</ele>
        <time>2026-03-23T13:15:25Z</time>
      </trkpt>
      <trkpt lat="44.73725" lon="6.84444">
        <ele>1941.5</ele>
        <time>2026-03-23T13:15:26Z</time>
      </trkpt>
      <trkpt lat="44.73725" lon="6.84444">
        <ele>1943</ele>
        <time>2026-03-23T13:15:27Z</time>
      </trkpt>
      <trkpt lat="44.73725" lon="6.84445">
        <ele>1942.3</ele>
        <time>2026-03-23T13:15:28Z</time>
      </trkpt>
      <trkpt lat="44.73725" lon="6.84445">
        <ele>1942.3</ele>
        <time>2026-03-23T13:15:29Z</time>
      </trkpt>
      <trkpt lat="44.73726" lon="6.84445">
        <ele>1943</ele>
        <time>2026-03-23T13:15:30Z</time>
      </trkpt>
      <trkpt lat="44.73726" lon="6.84445">
        <ele>1943</ele>
        <time>2026-03-23T13:15:31Z</time>
      </trkpt>
      <trkpt lat="44.73726" lon="6.84445">
        <ele>1943</ele>
        <time>2026-03-23T13:15:32Z</time>
      </trkpt>
      <trkpt lat="44.73726" lon="6.84445">
        <ele>1943</ele>
        <time>2026-03-23T13:15:33Z</time>
      </trkpt>
      <trkpt lat="44.73726" lon="6.84445">
        <ele>1943</ele>
        <time>2026-03-23T13:15:34Z</time>
      </trkpt>
      <trkpt lat="44.73726" lon="6.84445">
        <ele>1943</ele>
        <time>2026-03-23T13:15:35Z</time>
      </trkpt>
      <trkpt lat="44.73726" lon="6.84445">
        <ele>1943</ele>
        <time>2026-03-23T13:15:36Z</time>
      </trkpt>
      <trkpt lat="44.73726" lon="6.84445">
        <ele>1943</ele>
        <time>2026-03-23T13:15:37Z</time>
      </trkpt>
      <trkpt lat="44.73726" lon="6.84446">
        <ele>1943</ele>
        <time>2026-03-23T13:15:38Z</time>
      </trkpt>
      <trkpt lat="44.73726" lon="6.84446">
        <ele>1943</ele>
        <time>2026-03-23T13:15:39Z</time>
      </trkpt>
      <trkpt lat="44.73726" lon="6.84446">
        <ele>1943</ele>
        <time>2026-03-23T13:15:40Z</time>
      </trkpt>
      <trkpt lat="44.73726" lon="6.84446">
        <ele>1943</ele>
        <time>2026-03-23T13:15:41Z</time>
      </trkpt>
      <trkpt lat="44.73726" lon="6.84446">
        <ele>1943</ele>
        <time>2026-03-23T13:15:42Z</time>
      </trkpt>
      <trkpt lat="44.73726" lon="6.84446">
        <ele>1943</ele>
        <time>2026-03-23T13:15:43Z</time>
      </trkpt>
      <trkpt lat="44.73726" lon="6.84446">
        <ele>1943</ele>
        <time>2026-03-23T13:15:44Z</time>
      </trkpt>
      <trkpt lat="44.73726" lon="6.84446">
        <ele>1943</ele>
        <time>2026-03-23T13:15:45Z</time>
      </trkpt>
      <trkpt lat="44.73726" lon="6.84446">
        <ele>1943</ele>
        <time>2026-03-23T13:15:46Z</time>
      </trkpt>
      <trkpt lat="44.73726" lon="6.84446">
        <ele>1943</ele>
        <time>2026-03-23T13:15:47Z</time>
      </trkpt>
      <trkpt lat="44.73726" lon="6.84446">
        <ele>1943</ele>
        <time>2026-03-23T13:15:48Z</time>
      </trkpt>
      <trkpt lat="44.73726" lon="6.84446">
        <ele>1943</ele>
        <time>2026-03-23T13:15:49Z</time>
      </trkpt>
      <trkpt lat="44.73726" lon="6.84446">
        <ele>1943</ele>
        <time>2026-03-23T13:15:50Z</time>
      </trkpt>
      <trkpt lat="44.73726" lon="6.84446">
        <ele>1943</ele>
        <time>2026-03-23T13:15:51Z</time>
      </trkpt>
      <trkpt lat="44.73726" lon="6.84446">
        <ele>1943.1</ele>
        <time>2026-03-23T13:15:52Z</time>
      </trkpt>
      <trkpt lat="44.73726" lon="6.84446">
        <ele>1943.1</ele>
        <time>2026-03-23T13:15:53Z</time>
      </trkpt>
      <trkpt lat="44.73726" lon="6.84446">
        <ele>1943.1</ele>
        <time>2026-03-23T13:15:54Z</time>
      </trkpt>
      <trkpt lat="44.73726" lon="6.84446">
        <ele>1943.1</ele>
        <time>2026-03-23T13:15:55Z</time>
      </trkpt>
      <trkpt lat="44.73726" lon="6.84446">
        <ele>1943.1</ele>
        <time>2026-03-23T13:15:56Z</time>
      </trkpt>
      <trkpt lat="44.73726" lon="6.84446">
        <ele>1943.1</ele>
        <time>2026-03-23T13:15:57Z</time>
      </trkpt>
      <trkpt lat="44.73726" lon="6.84446">
        <ele>1943.1</ele>
        <time>2026-03-23T13:15:58Z</time>
      </trkpt>
      <trkpt lat="44.73725" lon="6.84445">
        <ele>1942.4</ele>
        <time>2026-03-23T13:15:59Z</time>
      </trkpt>
      <trkpt lat="44.73725" lon="6.84445">
        <ele>1942.4</ele>
        <time>2026-03-23T13:16:00Z</time>
      </trkpt>
      <trkpt lat="44.73725" lon="6.84445">
        <ele>1942.4</ele>
        <time>2026-03-23T13:16:01Z</time>
      </trkpt>
      <trkpt lat="44.73725" lon="6.84445">
        <ele>1942.4</ele>
        <time>2026-03-23T13:16:02Z</time>
      </trkpt>
      <trkpt lat="44.73725" lon="6.84446">
        <ele>1942.4</ele>
        <time>2026-03-23T13:16:03Z</time>
      </trkpt>
      <trkpt lat="44.73725" lon="6.84446">
        <ele>1942.4</ele>
        <time>2026-03-23T13:16:04Z</time>
      </trkpt>
      <trkpt lat="44.73725" lon="6.84446">
        <ele>1942.4</ele>
        <time>2026-03-23T13:16:05Z</time>
      </trkpt>
      <trkpt lat="44.73725" lon="6.84446">
        <ele>1942.4</ele>
        <time>2026-03-23T13:16:06Z</time>
      </trkpt>
      <trkpt lat="44.73725" lon="6.84446">
        <ele>1942.4</ele>
        <time>2026-03-23T13:16:07Z</time>
      </trkpt>
      <trkpt lat="44.73725" lon="6.84445">
        <ele>1942.4</ele>
        <time>2026-03-23T13:16:08Z</time>
      </trkpt>
      <trkpt lat="44.73725" lon="6.84445">
        <ele>1942.4</ele>
        <time>2026-03-23T13:16:09Z</time>
      </trkpt>
      <trkpt lat="44.73725" lon="6.84446">
        <ele>1942.4</ele>
        <time>2026-03-23T13:16:10Z</time>
      </trkpt>
      <trkpt lat="44.73725" lon="6.84445">
        <ele>1942.4</ele>
        <time>2026-03-23T13:16:11Z</time>
      </trkpt>
      <trkpt lat="44.73725" lon="6.84445">
        <ele>1942.4</ele>
        <time>2026-03-23T13:16:12Z</time>
      </trkpt>
      <trkpt lat="44.73725" lon="6.84445">
        <ele>1942.4</ele>
        <time>2026-03-23T13:16:13Z</time>
      </trkpt>
      <trkpt lat="44.73725" lon="6.84445">
        <ele>1942.4</ele>
        <time>2026-03-23T13:16:14Z</time>
      </trkpt>
      <trkpt lat="44.73725" lon="6.84445">
        <ele>1942.4</ele>
        <time>2026-03-23T13:16:15Z</time>
      </trkpt>
      <trkpt lat="44.73725" lon="6.84445">
        <ele>1942.4</ele>
        <time>2026-03-23T13:16:16Z</time>
      </trkpt>
      <trkpt lat="44.73725" lon="6.84445">
        <ele>1942.4</ele>
        <time>2026-03-23T13:16:17Z</time>
      </trkpt>
      <trkpt lat="44.73725" lon="6.84445">
        <ele>1942.4</ele>
        <time>2026-03-23T13:16:18Z</time>
      </trkpt>
      <trkpt lat="44.73725" lon="6.84445">
        <ele>1942.4</ele>
        <time>2026-03-23T13:16:19Z</time>
      </trkpt>
      <trkpt lat="44.73724" lon="6.84446">
        <ele>1942.4</ele>
        <time>2026-03-23T13:16:20Z</time>
      </trkpt>
      <trkpt lat="44.73724" lon="6.84445">
        <ele>1942.4</ele>
        <time>2026-03-23T13:16:21Z</time>
      </trkpt>
      <trkpt lat="44.73725" lon="6.84445">
        <ele>1942.4</ele>
        <time>2026-03-23T13:16:22Z</time>
      </trkpt>
      <trkpt lat="44.73725" lon="6.84445">
        <ele>1942.4</ele>
        <time>2026-03-23T13:16:23Z</time>
      </trkpt>
      <trkpt lat="44.73725" lon="6.84444">
        <ele>1942.4</ele>
        <time>2026-03-23T13:16:24Z</time>
      </trkpt>
      <trkpt lat="44.73725" lon="6.84444">
        <ele>1941.6</ele>
        <time>2026-03-23T13:16:25Z</time>
      </trkpt>
      <trkpt lat="44.73725" lon="6.84443">
        <ele>1941.6</ele>
        <time>2026-03-23T13:16:26Z</time>
      </trkpt>
      <trkpt lat="44.73725" lon="6.84443">
        <ele>1941.6</ele>
        <time>2026-03-23T13:16:27Z</time>
      </trkpt>
      <trkpt lat="44.73725" lon="6.84442">
        <ele>1941.6</ele>
        <time>2026-03-23T13:16:28Z</time>
      </trkpt>
      <trkpt lat="44.73725" lon="6.84442">
        <ele>1941.6</ele>
        <time>2026-03-23T13:16:29Z</time>
      </trkpt>
      <trkpt lat="44.73725" lon="6.84443">
        <ele>1941.6</ele>
        <time>2026-03-23T13:16:30Z</time>
      </trkpt>
      <trkpt lat="44.73725" lon="6.84442">
        <ele>1941.6</ele>
        <time>2026-03-23T13:16:31Z</time>
      </trkpt>
      <trkpt lat="44.73725" lon="6.84443">
        <ele>1942.3</ele>
        <time>2026-03-23T13:16:32Z</time>
      </trkpt>
      <trkpt lat="44.73726" lon="6.84443">
        <ele>1942.3</ele>
        <time>2026-03-23T13:16:33Z</time>
      </trkpt>
      <trkpt lat="44.73725" lon="6.84443">
        <ele>1942.3</ele>
        <time>2026-03-23T13:16:34Z</time>
      </trkpt>
      <trkpt lat="44.73726" lon="6.84443">
        <ele>1942.3</ele>
        <time>2026-03-23T13:16:35Z</time>
      </trkpt>
      <trkpt lat="44.73726" lon="6.84443">
        <ele>1942.3</ele>
        <time>2026-03-23T13:16:36Z</time>
      </trkpt>
      <trkpt lat="44.73725" lon="6.84443">
        <ele>1942.3</ele>
        <time>2026-03-23T13:16:37Z</time>
      </trkpt>
      <trkpt lat="44.73725" lon="6.84443">
        <ele>1942.3</ele>
        <time>2026-03-23T13:16:38Z</time>
      </trkpt>
      <trkpt lat="44.73725" lon="6.84443">
        <ele>1942.3</ele>
        <time>2026-03-23T13:16:39Z</time>
      </trkpt>
      <trkpt lat="44.73725" lon="6.84443">
        <ele>1942.3</ele>
        <time>2026-03-23T13:16:40Z</time>
      </trkpt>
      <trkpt lat="44.73725" lon="6.84443">
        <ele>1942.3</ele>
        <time>2026-03-23T13:16:41Z</time>
      </trkpt>
      <trkpt lat="44.73725" lon="6.84443">
        <ele>1942.3</ele>
        <time>2026-03-23T13:16:42Z</time>
      </trkpt>
      <trkpt lat="44.73726" lon="6.84442">
        <ele>1942.3</ele>
        <time>2026-03-23T13:16:43Z</time>
      </trkpt>
      <trkpt lat="44.73727" lon="6.84441">
        <ele>1942.3</ele>
        <time>2026-03-23T13:16:44Z</time>
      </trkpt>
      <trkpt lat="44.73727" lon="6.8444">
        <ele>1942.3</ele>
        <time>2026-03-23T13:16:45Z</time>
      </trkpt>
      <trkpt lat="44.73727" lon="6.84435">
        <ele>1940.7</ele>
        <time>2026-03-23T13:16:46Z</time>
      </trkpt>
      <trkpt lat="44.73727" lon="6.84433">
        <ele>1940.7</ele>
        <time>2026-03-23T13:16:47Z</time>
      </trkpt>
      <trkpt lat="44.73726" lon="6.84428">
        <ele>1940</ele>
        <time>2026-03-23T13:16:48Z</time>
      </trkpt>
      <trkpt lat="44.73726" lon="6.84423">
        <ele>1939.2</ele>
        <time>2026-03-23T13:16:49Z</time>
      </trkpt>
      <trkpt lat="44.73729" lon="6.84418">
        <ele>1938</ele>
        <time>2026-03-23T13:16:50Z</time>
      </trkpt>
      <trkpt lat="44.7373" lon="6.84412">
        <ele>1937.1</ele>
        <time>2026-03-23T13:16:51Z</time>
      </trkpt>
      <trkpt lat="44.7373" lon="6.84408">
        <ele>1936.2</ele>
        <time>2026-03-23T13:16:52Z</time>
      </trkpt>
      <trkpt lat="44.73731" lon="6.84401">
        <ele>1935.4</ele>
        <time>2026-03-23T13:16:53Z</time>
      </trkpt>
      <trkpt lat="44.73732" lon="6.84396">
        <ele>1934.3</ele>
        <time>2026-03-23T13:16:54Z</time>
      </trkpt>
      <trkpt lat="44.73732" lon="6.8439">
        <ele>1933.5</ele>
        <time>2026-03-23T13:16:55Z</time>
      </trkpt>
      <trkpt lat="44.73728" lon="6.84381">
        <ele>1930.7</ele>
        <time>2026-03-23T13:16:56Z</time>
      </trkpt>
      <trkpt lat="44.73732" lon="6.84376">
        <ele>1931.1</ele>
        <time>2026-03-23T13:16:57Z</time>
      </trkpt>
      <trkpt lat="44.73729" lon="6.8437">
        <ele>1928.7</ele>
        <time>2026-03-23T13:16:58Z</time>
      </trkpt>
      <trkpt lat="44.73726" lon="6.84367">
        <ele>1928.1</ele>
        <time>2026-03-23T13:16:59Z</time>
      </trkpt>
      <trkpt lat="44.73725" lon="6.84366">
        <ele>1926.3</ele>
        <time>2026-03-23T13:17:00Z</time>
      </trkpt>
      <trkpt lat="44.73723" lon="6.84365">
        <ele>1926.3</ele>
        <time>2026-03-23T13:17:01Z</time>
      </trkpt>
      <trkpt lat="44.73722" lon="6.84362">
        <ele>1924.5</ele>
        <time>2026-03-23T13:17:02Z</time>
      </trkpt>
      <trkpt lat="44.73725" lon="6.84358">
        <ele>1924.2</ele>
        <time>2026-03-23T13:17:03Z</time>
      </trkpt>
      <trkpt lat="44.73727" lon="6.84358">
        <ele>1925</ele>
        <time>2026-03-23T13:17:04Z</time>
      </trkpt>
      <trkpt lat="44.73729" lon="6.84355">
        <ele>1925.7</ele>
        <time>2026-03-23T13:17:05Z</time>
      </trkpt>
      <trkpt lat="44.73733" lon="6.84355">
        <ele>1926.4</ele>
        <time>2026-03-23T13:17:06Z</time>
      </trkpt>
      <trkpt lat="44.73736" lon="6.84353">
        <ele>1926</ele>
        <time>2026-03-23T13:17:07Z</time>
      </trkpt>
      <trkpt lat="44.73739" lon="6.84348">
        <ele>1925.7</ele>
        <time>2026-03-23T13:17:08Z</time>
      </trkpt>
      <trkpt lat="44.73741" lon="6.84344">
        <ele>1925.3</ele>
        <time>2026-03-23T13:17:09Z</time>
      </trkpt>
      <trkpt lat="44.73736" lon="6.84343">
        <ele>1924.1</ele>
        <time>2026-03-23T13:17:10Z</time>
      </trkpt>
      <trkpt lat="44.73733" lon="6.8434">
        <ele>1922.5</ele>
        <time>2026-03-23T13:17:11Z</time>
      </trkpt>
      <trkpt lat="44.73732" lon="6.84339">
        <ele>1922.5</ele>
        <time>2026-03-23T13:17:12Z</time>
      </trkpt>
      <trkpt lat="44.7373" lon="6.84337">
        <ele>1921.8</ele>
        <time>2026-03-23T13:17:13Z</time>
      </trkpt>
      <trkpt lat="44.73728" lon="6.84333">
        <ele>1920.8</ele>
        <time>2026-03-23T13:17:14Z</time>
      </trkpt>
      <trkpt lat="44.73732" lon="6.84329">
        <ele>1920.3</ele>
        <time>2026-03-23T13:17:15Z</time>
      </trkpt>
      <trkpt lat="44.73734" lon="6.84329">
        <ele>1920.3</ele>
        <time>2026-03-23T13:17:16Z</time>
      </trkpt>
      <trkpt lat="44.73735" lon="6.84325">
        <ele>1919.9</ele>
        <time>2026-03-23T13:17:17Z</time>
      </trkpt>
      <trkpt lat="44.73732" lon="6.84324">
        <ele>1919.2</ele>
        <time>2026-03-23T13:17:18Z</time>
      </trkpt>
      <trkpt lat="44.73732" lon="6.84322">
        <ele>1918</ele>
        <time>2026-03-23T13:17:19Z</time>
      </trkpt>
      <trkpt lat="44.73731" lon="6.84321">
        <ele>1917.2</ele>
        <time>2026-03-23T13:17:20Z</time>
      </trkpt>
      <trkpt lat="44.73731" lon="6.8432">
        <ele>1917.2</ele>
        <time>2026-03-23T13:17:21Z</time>
      </trkpt>
      <trkpt lat="44.7373" lon="6.84319">
        <ele>1916</ele>
        <time>2026-03-23T13:17:22Z</time>
      </trkpt>
      <trkpt lat="44.73731" lon="6.84316">
        <ele>1916</ele>
        <time>2026-03-23T13:17:23Z</time>
      </trkpt>
      <trkpt lat="44.73731" lon="6.84314">
        <ele>1914.7</ele>
        <time>2026-03-23T13:17:24Z</time>
      </trkpt>
      <trkpt lat="44.73731" lon="6.84315">
        <ele>1914.7</ele>
        <time>2026-03-23T13:17:25Z</time>
      </trkpt>
      <trkpt lat="44.73731" lon="6.84315">
        <ele>1914.7</ele>
        <time>2026-03-23T13:17:26Z</time>
      </trkpt>
      <trkpt lat="44.73731" lon="6.84315">
        <ele>1914.7</ele>
        <time>2026-03-23T13:17:27Z</time>
      </trkpt>
      <trkpt lat="44.73732" lon="6.84315">
        <ele>1915.5</ele>
        <time>2026-03-23T13:17:28Z</time>
      </trkpt>
      <trkpt lat="44.73734" lon="6.84314">
        <ele>1915.5</ele>
        <time>2026-03-23T13:17:29Z</time>
      </trkpt>
      <trkpt lat="44.73737" lon="6.84312">
        <ele>1916.2</ele>
        <time>2026-03-23T13:17:30Z</time>
      </trkpt>
      <trkpt lat="44.73738" lon="6.84312">
        <ele>1916.9</ele>
        <time>2026-03-23T13:17:31Z</time>
      </trkpt>
      <trkpt lat="44.73738" lon="6.84312">
        <ele>1916.9</ele>
        <time>2026-03-23T13:17:32Z</time>
      </trkpt>
      <trkpt lat="44.73738" lon="6.84312">
        <ele>1916.9</ele>
        <time>2026-03-23T13:17:33Z</time>
      </trkpt>
      <trkpt lat="44.73738" lon="6.84312">
        <ele>1916.9</ele>
        <time>2026-03-23T13:17:34Z</time>
      </trkpt>
      <trkpt lat="44.73738" lon="6.84311">
        <ele>1916.9</ele>
        <time>2026-03-23T13:17:35Z</time>
      </trkpt>
      <trkpt lat="44.73738" lon="6.84311">
        <ele>1916.9</ele>
        <time>2026-03-23T13:17:36Z</time>
      </trkpt>
      <trkpt lat="44.73738" lon="6.84311">
        <ele>1916.9</ele>
        <time>2026-03-23T13:17:37Z</time>
      </trkpt>
      <trkpt lat="44.73738" lon="6.84312">
        <ele>1916.9</ele>
        <time>2026-03-23T13:17:38Z</time>
      </trkpt>
      <trkpt lat="44.73738" lon="6.84311">
        <ele>1916.9</ele>
        <time>2026-03-23T13:17:39Z</time>
      </trkpt>
      <trkpt lat="44.73737" lon="6.84311">
        <ele>1916.2</ele>
        <time>2026-03-23T13:17:40Z</time>
      </trkpt>
      <trkpt lat="44.73737" lon="6.84311">
        <ele>1916.2</ele>
        <time>2026-03-23T13:17:41Z</time>
      </trkpt>
      <trkpt lat="44.73737" lon="6.84311">
        <ele>1916.2</ele>
        <time>2026-03-23T13:17:42Z</time>
      </trkpt>
      <trkpt lat="44.73737" lon="6.84311">
        <ele>1915</ele>
        <time>2026-03-23T13:17:43Z</time>
      </trkpt>
      <trkpt lat="44.73737" lon="6.84311">
        <ele>1915</ele>
        <time>2026-03-23T13:17:44Z</time>
      </trkpt>
      <trkpt lat="44.73737" lon="6.8431">
        <ele>1915</ele>
        <time>2026-03-23T13:17:45Z</time>
      </trkpt>
      <trkpt lat="44.73737" lon="6.8431">
        <ele>1915</ele>
        <time>2026-03-23T13:17:46Z</time>
      </trkpt>
      <trkpt lat="44.73737" lon="6.8431">
        <ele>1915</ele>
        <time>2026-03-23T13:17:47Z</time>
      </trkpt>
      <trkpt lat="44.73737" lon="6.8431">
        <ele>1915</ele>
        <time>2026-03-23T13:17:48Z</time>
      </trkpt>
      <trkpt lat="44.73737" lon="6.8431">
        <ele>1915</ele>
        <time>2026-03-23T13:17:49Z</time>
      </trkpt>
      <trkpt lat="44.73737" lon="6.8431">
        <ele>1915</ele>
        <time>2026-03-23T13:17:50Z</time>
      </trkpt>
      <trkpt lat="44.73737" lon="6.8431">
        <ele>1915</ele>
        <time>2026-03-23T13:17:51Z</time>
      </trkpt>
      <trkpt lat="44.73737" lon="6.8431">
        <ele>1915</ele>
        <time>2026-03-23T13:17:52Z</time>
      </trkpt>
      <trkpt lat="44.73737" lon="6.8431">
        <ele>1915</ele>
        <time>2026-03-23T13:17:53Z</time>
      </trkpt>
      <trkpt lat="44.73737" lon="6.8431">
        <ele>1915</ele>
        <time>2026-03-23T13:17:54Z</time>
      </trkpt>
      <trkpt lat="44.73737" lon="6.8431">
        <ele>1915</ele>
        <time>2026-03-23T13:17:55Z</time>
      </trkpt>
      <trkpt lat="44.73737" lon="6.8431">
        <ele>1915</ele>
        <time>2026-03-23T13:17:56Z</time>
      </trkpt>
      <trkpt lat="44.73737" lon="6.8431">
        <ele>1915</ele>
        <time>2026-03-23T13:17:57Z</time>
      </trkpt>
      <trkpt lat="44.73737" lon="6.8431">
        <ele>1915</ele>
        <time>2026-03-23T13:17:58Z</time>
      </trkpt>
      <trkpt lat="44.73737" lon="6.8431">
        <ele>1915</ele>
        <time>2026-03-23T13:17:59Z</time>
      </trkpt>
      <trkpt lat="44.73737" lon="6.8431">
        <ele>1915</ele>
        <time>2026-03-23T13:18:00Z</time>
      </trkpt>
      <trkpt lat="44.73737" lon="6.8431">
        <ele>1915</ele>
        <time>2026-03-23T13:18:01Z</time>
      </trkpt>
      <trkpt lat="44.73737" lon="6.8431">
        <ele>1915</ele>
        <time>2026-03-23T13:18:02Z</time>
      </trkpt>
      <trkpt lat="44.73737" lon="6.8431">
        <ele>1915</ele>
        <time>2026-03-23T13:18:03Z</time>
      </trkpt>
      <trkpt lat="44.73737" lon="6.8431">
        <ele>1915</ele>
        <time>2026-03-23T13:18:04Z</time>
      </trkpt>
      <trkpt lat="44.73737" lon="6.8431">
        <ele>1915</ele>
        <time>2026-03-23T13:18:05Z</time>
      </trkpt>
      <trkpt lat="44.73737" lon="6.8431">
        <ele>1915</ele>
        <time>2026-03-23T13:18:06Z</time>
      </trkpt>
      <trkpt lat="44.73737" lon="6.8431">
        <ele>1915</ele>
        <time>2026-03-23T13:18:07Z</time>
      </trkpt>
      <trkpt lat="44.73737" lon="6.8431">
        <ele>1915</ele>
        <time>2026-03-23T13:18:08Z</time>
      </trkpt>
      <trkpt lat="44.73737" lon="6.8431">
        <ele>1915</ele>
        <time>2026-03-23T13:18:09Z</time>
      </trkpt>
      <trkpt lat="44.73737" lon="6.8431">
        <ele>1915</ele>
        <time>2026-03-23T13:18:10Z</time>
      </trkpt>
      <trkpt lat="44.73737" lon="6.8431">
        <ele>1915</ele>
        <time>2026-03-23T13:18:11Z</time>
      </trkpt>
      <trkpt lat="44.73737" lon="6.8431">
        <ele>1915</ele>
        <time>2026-03-23T13:18:12Z</time>
      </trkpt>
      <trkpt lat="44.73737" lon="6.8431">
        <ele>1915</ele>
        <time>2026-03-23T13:18:13Z</time>
      </trkpt>
      <trkpt lat="44.73737" lon="6.8431">
        <ele>1915</ele>
        <time>2026-03-23T13:18:14Z</time>
      </trkpt>
      <trkpt lat="44.73737" lon="6.8431">
        <ele>1915</ele>
        <time>2026-03-23T13:18:15Z</time>
      </trkpt>
      <trkpt lat="44.73737" lon="6.8431">
        <ele>1915</ele>
        <time>2026-03-23T13:18:16Z</time>
      </trkpt>
      <trkpt lat="44.73737" lon="6.8431">
        <ele>1915</ele>
        <time>2026-03-23T13:18:17Z</time>
      </trkpt>
      <trkpt lat="44.73737" lon="6.8431">
        <ele>1915</ele>
        <time>2026-03-23T13:18:18Z</time>
      </trkpt>
      <trkpt lat="44.73737" lon="6.8431">
        <ele>1915</ele>
        <time>2026-03-23T13:18:19Z</time>
      </trkpt>
      <trkpt lat="44.73737" lon="6.8431">
        <ele>1915</ele>
        <time>2026-03-23T13:18:20Z</time>
      </trkpt>
      <trkpt lat="44.73737" lon="6.8431">
        <ele>1915</ele>
        <time>2026-03-23T13:18:21Z</time>
      </trkpt>
      <trkpt lat="44.73737" lon="6.8431">
        <ele>1915</ele>
        <time>2026-03-23T13:18:22Z</time>
      </trkpt>
      <trkpt lat="44.73738" lon="6.84309">
        <ele>1915</ele>
        <time>2026-03-23T13:18:23Z</time>
      </trkpt>
      <trkpt lat="44.73738" lon="6.84308">
        <ele>1915.7</ele>
        <time>2026-03-23T13:18:24Z</time>
      </trkpt>
      <trkpt lat="44.73738" lon="6.84307">
        <ele>1915.7</ele>
        <time>2026-03-23T13:18:25Z</time>
      </trkpt>
      <trkpt lat="44.73738" lon="6.84306">
        <ele>1914.5</ele>
        <time>2026-03-23T13:18:26Z</time>
      </trkpt>
      <trkpt lat="44.73739" lon="6.84305">
        <ele>1914.5</ele>
        <time>2026-03-23T13:18:27Z</time>
      </trkpt>
      <trkpt lat="44.7374" lon="6.84304">
        <ele>1914.5</ele>
        <time>2026-03-23T13:18:28Z</time>
      </trkpt>
      <trkpt lat="44.73741" lon="6.84303">
        <ele>1914.5</ele>
        <time>2026-03-23T13:18:29Z</time>
      </trkpt>
      <trkpt lat="44.73741" lon="6.84301">
        <ele>1914</ele>
        <time>2026-03-23T13:18:30Z</time>
      </trkpt>
      <trkpt lat="44.73742" lon="6.843">
        <ele>1914</ele>
        <time>2026-03-23T13:18:31Z</time>
      </trkpt>
      <trkpt lat="44.73743" lon="6.84299">
        <ele>1914</ele>
        <time>2026-03-23T13:18:32Z</time>
      </trkpt>
      <trkpt lat="44.73743" lon="6.84298">
        <ele>1914</ele>
        <time>2026-03-23T13:18:33Z</time>
      </trkpt>
      <trkpt lat="44.73744" lon="6.84296">
        <ele>1913.4</ele>
        <time>2026-03-23T13:18:34Z</time>
      </trkpt>
      <trkpt lat="44.73744" lon="6.84295">
        <ele>1913.4</ele>
        <time>2026-03-23T13:18:35Z</time>
      </trkpt>
      <trkpt lat="44.73745" lon="6.84294">
        <ele>1912.2</ele>
        <time>2026-03-23T13:18:36Z</time>
      </trkpt>
      <trkpt lat="44.73745" lon="6.84292">
        <ele>1912.2</ele>
        <time>2026-03-23T13:18:37Z</time>
      </trkpt>
      <trkpt lat="44.73746" lon="6.84291">
        <ele>1912.2</ele>
        <time>2026-03-23T13:18:38Z</time>
      </trkpt>
      <trkpt lat="44.73746" lon="6.8429">
        <ele>1912.2</ele>
        <time>2026-03-23T13:18:39Z</time>
      </trkpt>
      <trkpt lat="44.73747" lon="6.84289">
        <ele>1911.5</ele>
        <time>2026-03-23T13:18:40Z</time>
      </trkpt>
      <trkpt lat="44.73747" lon="6.84287">
        <ele>1911.5</ele>
        <time>2026-03-23T13:18:41Z</time>
      </trkpt>
      <trkpt lat="44.73748" lon="6.84286">
        <ele>1911.5</ele>
        <time>2026-03-23T13:18:42Z</time>
      </trkpt>
      <trkpt lat="44.73748" lon="6.84284">
        <ele>1910.1</ele>
        <time>2026-03-23T13:18:43Z</time>
      </trkpt>
      <trkpt lat="44.73748" lon="6.84281">
        <ele>1910.1</ele>
        <time>2026-03-23T13:18:44Z</time>
      </trkpt>
      <trkpt lat="44.73749" lon="6.8428">
        <ele>1908.7</ele>
        <time>2026-03-23T13:18:45Z</time>
      </trkpt>
      <trkpt lat="44.73749" lon="6.84279">
        <ele>1908.7</ele>
        <time>2026-03-23T13:18:46Z</time>
      </trkpt>
      <trkpt lat="44.73749" lon="6.84277">
        <ele>1908.7</ele>
        <time>2026-03-23T13:18:47Z</time>
      </trkpt>
      <trkpt lat="44.73749" lon="6.84276">
        <ele>1907.2</ele>
        <time>2026-03-23T13:18:48Z</time>
      </trkpt>
      <trkpt lat="44.73749" lon="6.84274">
        <ele>1907.2</ele>
        <time>2026-03-23T13:18:49Z</time>
      </trkpt>
      <trkpt lat="44.73749" lon="6.84273">
        <ele>1907.2</ele>
        <time>2026-03-23T13:18:50Z</time>
      </trkpt>
      <trkpt lat="44.73749" lon="6.84272">
        <ele>1905.7</ele>
        <time>2026-03-23T13:18:51Z</time>
      </trkpt>
      <trkpt lat="44.73749" lon="6.84271">
        <ele>1905.7</ele>
        <time>2026-03-23T13:18:52Z</time>
      </trkpt>
      <trkpt lat="44.73749" lon="6.8427">
        <ele>1905.7</ele>
        <time>2026-03-23T13:18:53Z</time>
      </trkpt>
      <trkpt lat="44.73749" lon="6.84268">
        <ele>1904.3</ele>
        <time>2026-03-23T13:18:54Z</time>
      </trkpt>
      <trkpt lat="44.7375" lon="6.84266">
        <ele>1904.3</ele>
        <time>2026-03-23T13:18:55Z</time>
      </trkpt>
      <trkpt lat="44.7375" lon="6.84265">
        <ele>1904.9</ele>
        <time>2026-03-23T13:18:56Z</time>
      </trkpt>
      <trkpt lat="44.7375" lon="6.84265">
        <ele>1904.9</ele>
        <time>2026-03-23T13:18:57Z</time>
      </trkpt>
      <trkpt lat="44.73751" lon="6.84264">
        <ele>1903.5</ele>
        <time>2026-03-23T13:18:58Z</time>
      </trkpt>
      <trkpt lat="44.73751" lon="6.84262">
        <ele>1903.5</ele>
        <time>2026-03-23T13:18:59Z</time>
      </trkpt>
      <trkpt lat="44.73751" lon="6.84262">
        <ele>1903.5</ele>
        <time>2026-03-23T13:19:00Z</time>
      </trkpt>
      <trkpt lat="44.73752" lon="6.84261">
        <ele>1903.5</ele>
        <time>2026-03-23T13:19:01Z</time>
      </trkpt>
      <trkpt lat="44.73752" lon="6.84261">
        <ele>1903.5</ele>
        <time>2026-03-23T13:19:02Z</time>
      </trkpt>
      <trkpt lat="44.73753" lon="6.8426">
        <ele>1904</ele>
        <time>2026-03-23T13:19:03Z</time>
      </trkpt>
      <trkpt lat="44.73753" lon="6.8426">
        <ele>1904</ele>
        <time>2026-03-23T13:19:04Z</time>
      </trkpt>
      <trkpt lat="44.73754" lon="6.8426">
        <ele>1904</ele>
        <time>2026-03-23T13:19:05Z</time>
      </trkpt>
      <trkpt lat="44.73754" lon="6.8426">
        <ele>1904</ele>
        <time>2026-03-23T13:19:06Z</time>
      </trkpt>
      <trkpt lat="44.73754" lon="6.8426">
        <ele>1904</ele>
        <time>2026-03-23T13:19:07Z</time>
      </trkpt>
      <trkpt lat="44.73754" lon="6.8426">
        <ele>1904</ele>
        <time>2026-03-23T13:19:08Z</time>
      </trkpt>
      <trkpt lat="44.73754" lon="6.8426">
        <ele>1904</ele>
        <time>2026-03-23T13:19:09Z</time>
      </trkpt>
      <trkpt lat="44.73754" lon="6.84259">
        <ele>1902.6</ele>
        <time>2026-03-23T13:19:10Z</time>
      </trkpt>
      <trkpt lat="44.73754" lon="6.84259">
        <ele>1902.6</ele>
        <time>2026-03-23T13:19:11Z</time>
      </trkpt>
      <trkpt lat="44.73755" lon="6.84258">
        <ele>1902.6</ele>
        <time>2026-03-23T13:19:12Z</time>
      </trkpt>
      <trkpt lat="44.73755" lon="6.84258">
        <ele>1902.6</ele>
        <time>2026-03-23T13:19:13Z</time>
      </trkpt>
      <trkpt lat="44.73755" lon="6.84258">
        <ele>1902.6</ele>
        <time>2026-03-23T13:19:14Z</time>
      </trkpt>
      <trkpt lat="44.73755" lon="6.84258">
        <ele>1902.6</ele>
        <time>2026-03-23T13:19:15Z</time>
      </trkpt>
      <trkpt lat="44.73755" lon="6.84258">
        <ele>1902.6</ele>
        <time>2026-03-23T13:19:16Z</time>
      </trkpt>
      <trkpt lat="44.73755" lon="6.84258">
        <ele>1902.6</ele>
        <time>2026-03-23T13:19:17Z</time>
      </trkpt>
      <trkpt lat="44.73755" lon="6.84258">
        <ele>1902.6</ele>
        <time>2026-03-23T13:19:18Z</time>
      </trkpt>
      <trkpt lat="44.73755" lon="6.84257">
        <ele>1902.6</ele>
        <time>2026-03-23T13:19:19Z</time>
      </trkpt>
      <trkpt lat="44.73755" lon="6.84257">
        <ele>1902.6</ele>
        <time>2026-03-23T13:19:20Z</time>
      </trkpt>
      <trkpt lat="44.73755" lon="6.84256">
        <ele>1902.6</ele>
        <time>2026-03-23T13:19:21Z</time>
      </trkpt>
      <trkpt lat="44.73755" lon="6.84256">
        <ele>1902.6</ele>
        <time>2026-03-23T13:19:22Z</time>
      </trkpt>
      <trkpt lat="44.73755" lon="6.84256">
        <ele>1902.6</ele>
        <time>2026-03-23T13:19:23Z</time>
      </trkpt>
      <trkpt lat="44.73755" lon="6.84256">
        <ele>1902.6</ele>
        <time>2026-03-23T13:19:24Z</time>
      </trkpt>
      <trkpt lat="44.73755" lon="6.84256">
        <ele>1902.6</ele>
        <time>2026-03-23T13:19:25Z</time>
      </trkpt>
      <trkpt lat="44.73755" lon="6.84256">
        <ele>1902.6</ele>
        <time>2026-03-23T13:19:26Z</time>
      </trkpt>
      <trkpt lat="44.73755" lon="6.84256">
        <ele>1902.6</ele>
        <time>2026-03-23T13:19:27Z</time>
      </trkpt>
      <trkpt lat="44.73755" lon="6.84256">
        <ele>1902.6</ele>
        <time>2026-03-23T13:19:28Z</time>
      </trkpt>
      <trkpt lat="44.73755" lon="6.84256">
        <ele>1902.6</ele>
        <time>2026-03-23T13:19:29Z</time>
      </trkpt>
      <trkpt lat="44.73755" lon="6.84256">
        <ele>1902.6</ele>
        <time>2026-03-23T13:19:30Z</time>
      </trkpt>
      <trkpt lat="44.73755" lon="6.84255">
        <ele>1902.6</ele>
        <time>2026-03-23T13:19:31Z</time>
      </trkpt>
      <trkpt lat="44.73755" lon="6.84255">
        <ele>1902.7</ele>
        <time>2026-03-23T13:19:32Z</time>
      </trkpt>
      <trkpt lat="44.73755" lon="6.84255">
        <ele>1902.7</ele>
        <time>2026-03-23T13:19:33Z</time>
      </trkpt>
      <trkpt lat="44.73755" lon="6.84256">
        <ele>1902.7</ele>
        <time>2026-03-23T13:19:34Z</time>
      </trkpt>
      <trkpt lat="44.73756" lon="6.84256">
        <ele>1903.1</ele>
        <time>2026-03-23T13:19:35Z</time>
      </trkpt>
      <trkpt lat="44.73757" lon="6.84255">
        <ele>1903.1</ele>
        <time>2026-03-23T13:19:36Z</time>
      </trkpt>
      <trkpt lat="44.73758" lon="6.84255">
        <ele>1901.7</ele>
        <time>2026-03-23T13:19:37Z</time>
      </trkpt>
      <trkpt lat="44.73759" lon="6.84253">
        <ele>1902.1</ele>
        <time>2026-03-23T13:19:38Z</time>
      </trkpt>
      <trkpt lat="44.7376" lon="6.84252">
        <ele>1902.2</ele>
        <time>2026-03-23T13:19:39Z</time>
      </trkpt>
      <trkpt lat="44.73761" lon="6.8425">
        <ele>1900.7</ele>
        <time>2026-03-23T13:19:40Z</time>
      </trkpt>
      <trkpt lat="44.73762" lon="6.8425">
        <ele>1901.1</ele>
        <time>2026-03-23T13:19:41Z</time>
      </trkpt>
      <trkpt lat="44.73763" lon="6.8425">
        <ele>1901.1</ele>
        <time>2026-03-23T13:19:42Z</time>
      </trkpt>
      <trkpt lat="44.73764" lon="6.8425">
        <ele>1901.1</ele>
        <time>2026-03-23T13:19:43Z</time>
      </trkpt>
      <trkpt lat="44.73765" lon="6.8425">
        <ele>1901.5</ele>
        <time>2026-03-23T13:19:44Z</time>
      </trkpt>
      <trkpt lat="44.73766" lon="6.8425">
        <ele>1901.5</ele>
        <time>2026-03-23T13:19:45Z</time>
      </trkpt>
      <trkpt lat="44.73767" lon="6.8425">
        <ele>1901.5</ele>
        <time>2026-03-23T13:19:46Z</time>
      </trkpt>
      <trkpt lat="44.73768" lon="6.8425">
        <ele>1901.9</ele>
        <time>2026-03-23T13:19:47Z</time>
      </trkpt>
      <trkpt lat="44.73769" lon="6.8425">
        <ele>1901.9</ele>
        <time>2026-03-23T13:19:48Z</time>
      </trkpt>
      <trkpt lat="44.7377" lon="6.8425">
        <ele>1901.9</ele>
        <time>2026-03-23T13:19:49Z</time>
      </trkpt>
      <trkpt lat="44.73771" lon="6.8425">
        <ele>1902.2</ele>
        <time>2026-03-23T13:19:50Z</time>
      </trkpt>
      <trkpt lat="44.73772" lon="6.8425">
        <ele>1902.2</ele>
        <time>2026-03-23T13:19:51Z</time>
      </trkpt>
      <trkpt lat="44.73773" lon="6.84249">
        <ele>1902.2</ele>
        <time>2026-03-23T13:19:52Z</time>
      </trkpt>
      <trkpt lat="44.73774" lon="6.84248">
        <ele>1902.6</ele>
        <time>2026-03-23T13:19:53Z</time>
      </trkpt>
      <trkpt lat="44.73775" lon="6.84247">
        <ele>1902.6</ele>
        <time>2026-03-23T13:19:54Z</time>
      </trkpt>
      <trkpt lat="44.73776" lon="6.84246">
        <ele>1901.1</ele>
        <time>2026-03-23T13:19:55Z</time>
      </trkpt>
      <trkpt lat="44.73777" lon="6.84246">
        <ele>1901.5</ele>
        <time>2026-03-23T13:19:56Z</time>
      </trkpt>
      <trkpt lat="44.73778" lon="6.84245">
        <ele>1901.5</ele>
        <time>2026-03-23T13:19:57Z</time>
      </trkpt>
      <trkpt lat="44.7378" lon="6.84245">
        <ele>1901.5</ele>
        <time>2026-03-23T13:19:58Z</time>
      </trkpt>
      <trkpt lat="44.73781" lon="6.84244">
        <ele>1901.9</ele>
        <time>2026-03-23T13:19:59Z</time>
      </trkpt>
      <trkpt lat="44.73781" lon="6.84243">
        <ele>1901.9</ele>
        <time>2026-03-23T13:20:00Z</time>
      </trkpt>
      <trkpt lat="44.73782" lon="6.84242">
        <ele>1900.4</ele>
        <time>2026-03-23T13:20:01Z</time>
      </trkpt>
      <trkpt lat="44.73783" lon="6.84242">
        <ele>1900.4</ele>
        <time>2026-03-23T13:20:02Z</time>
      </trkpt>
      <trkpt lat="44.73784" lon="6.84241">
        <ele>1900.7</ele>
        <time>2026-03-23T13:20:03Z</time>
      </trkpt>
      <trkpt lat="44.73785" lon="6.84241">
        <ele>1900.7</ele>
        <time>2026-03-23T13:20:04Z</time>
      </trkpt>
      <trkpt lat="44.73785" lon="6.8424">
        <ele>1900.7</ele>
        <time>2026-03-23T13:20:05Z</time>
      </trkpt>
      <trkpt lat="44.73785" lon="6.84241">
        <ele>1900.7</ele>
        <time>2026-03-23T13:20:06Z</time>
      </trkpt>
      <trkpt lat="44.73785" lon="6.84241">
        <ele>1900.7</ele>
        <time>2026-03-23T13:20:07Z</time>
      </trkpt>
      <trkpt lat="44.73785" lon="6.84243">
        <ele>1902.2</ele>
        <time>2026-03-23T13:20:08Z</time>
      </trkpt>
      <trkpt lat="44.73784" lon="6.84244">
        <ele>1902.2</ele>
        <time>2026-03-23T13:20:09Z</time>
      </trkpt>
      <trkpt lat="44.73785" lon="6.84244">
        <ele>1902.2</ele>
        <time>2026-03-23T13:20:10Z</time>
      </trkpt>
      <trkpt lat="44.73785" lon="6.84244">
        <ele>1902.2</ele>
        <time>2026-03-23T13:20:11Z</time>
      </trkpt>
      <trkpt lat="44.73786" lon="6.84244">
        <ele>1902.2</ele>
        <time>2026-03-23T13:20:12Z</time>
      </trkpt>
      <trkpt lat="44.73787" lon="6.84244">
        <ele>1902.6</ele>
        <time>2026-03-23T13:20:13Z</time>
      </trkpt>
      <trkpt lat="44.73788" lon="6.84243">
        <ele>1902.6</ele>
        <time>2026-03-23T13:20:14Z</time>
      </trkpt>
      <trkpt lat="44.73788" lon="6.84243">
        <ele>1902.6</ele>
        <time>2026-03-23T13:20:15Z</time>
      </trkpt>
      <trkpt lat="44.73789" lon="6.84242">
        <ele>1901.1</ele>
        <time>2026-03-23T13:20:16Z</time>
      </trkpt>
      <trkpt lat="44.7379" lon="6.84241">
        <ele>1901.4</ele>
        <time>2026-03-23T13:20:17Z</time>
      </trkpt>
      <trkpt lat="44.73791" lon="6.84241">
        <ele>1901.4</ele>
        <time>2026-03-23T13:20:18Z</time>
      </trkpt>
      <trkpt lat="44.73792" lon="6.84241">
        <ele>1901.4</ele>
        <time>2026-03-23T13:20:19Z</time>
      </trkpt>
      <trkpt lat="44.73792" lon="6.8424">
        <ele>1901.4</ele>
        <time>2026-03-23T13:20:20Z</time>
      </trkpt>
      <trkpt lat="44.73793" lon="6.8424">
        <ele>1901.7</ele>
        <time>2026-03-23T13:20:21Z</time>
      </trkpt>
      <trkpt lat="44.73793" lon="6.8424">
        <ele>1901.7</ele>
        <time>2026-03-23T13:20:22Z</time>
      </trkpt>
      <trkpt lat="44.73794" lon="6.8424">
        <ele>1901.7</ele>
        <time>2026-03-23T13:20:23Z</time>
      </trkpt>
      <trkpt lat="44.73795" lon="6.84239">
        <ele>1901.7</ele>
        <time>2026-03-23T13:20:24Z</time>
      </trkpt>
      <trkpt lat="44.73795" lon="6.84239">
        <ele>1901.7</ele>
        <time>2026-03-23T13:20:25Z</time>
      </trkpt>
      <trkpt lat="44.73796" lon="6.84239">
        <ele>1902</ele>
        <time>2026-03-23T13:20:26Z</time>
      </trkpt>
      <trkpt lat="44.73797" lon="6.84238">
        <ele>1902</ele>
        <time>2026-03-23T13:20:27Z</time>
      </trkpt>
      <trkpt lat="44.73798" lon="6.84237">
        <ele>1900.5</ele>
        <time>2026-03-23T13:20:28Z</time>
      </trkpt>
      <trkpt lat="44.73799" lon="6.84237">
        <ele>1900.8</ele>
        <time>2026-03-23T13:20:29Z</time>
      </trkpt>
      <trkpt lat="44.738" lon="6.84237">
        <ele>1900.8</ele>
        <time>2026-03-23T13:20:30Z</time>
      </trkpt>
      <trkpt lat="44.73801" lon="6.84236">
        <ele>1900.8</ele>
        <time>2026-03-23T13:20:31Z</time>
      </trkpt>
      <trkpt lat="44.73802" lon="6.84235">
        <ele>1901.2</ele>
        <time>2026-03-23T13:20:32Z</time>
      </trkpt>
      <trkpt lat="44.73803" lon="6.84234">
        <ele>1901.2</ele>
        <time>2026-03-23T13:20:33Z</time>
      </trkpt>
      <trkpt lat="44.73803" lon="6.84234">
        <ele>1901.2</ele>
        <time>2026-03-23T13:20:34Z</time>
      </trkpt>
      <trkpt lat="44.73804" lon="6.84232">
        <ele>1899.6</ele>
        <time>2026-03-23T13:20:35Z</time>
      </trkpt>
      <trkpt lat="44.73805" lon="6.84231">
        <ele>1900</ele>
        <time>2026-03-23T13:20:36Z</time>
      </trkpt>
      <trkpt lat="44.73806" lon="6.8423">
        <ele>1900</ele>
        <time>2026-03-23T13:20:37Z</time>
      </trkpt>
      <trkpt lat="44.73807" lon="6.84229">
        <ele>1898.4</ele>
        <time>2026-03-23T13:20:38Z</time>
      </trkpt>
      <trkpt lat="44.73808" lon="6.84228">
        <ele>1898.8</ele>
        <time>2026-03-23T13:20:39Z</time>
      </trkpt>
      <trkpt lat="44.73809" lon="6.84227">
        <ele>1898.8</ele>
        <time>2026-03-23T13:20:40Z</time>
      </trkpt>
      <trkpt lat="44.73809" lon="6.84226">
        <ele>1898.8</ele>
        <time>2026-03-23T13:20:41Z</time>
      </trkpt>
      <trkpt lat="44.7381" lon="6.84226">
        <ele>1898.8</ele>
        <time>2026-03-23T13:20:42Z</time>
      </trkpt>
      <trkpt lat="44.73811" lon="6.84226">
        <ele>1898.8</ele>
        <time>2026-03-23T13:20:43Z</time>
      </trkpt>
      <trkpt lat="44.73811" lon="6.84225">
        <ele>1899.2</ele>
        <time>2026-03-23T13:20:44Z</time>
      </trkpt>
      <trkpt lat="44.73812" lon="6.84225">
        <ele>1897.7</ele>
        <time>2026-03-23T13:20:45Z</time>
      </trkpt>
      <trkpt lat="44.73813" lon="6.84225">
        <ele>1897.7</ele>
        <time>2026-03-23T13:20:46Z</time>
      </trkpt>
      <trkpt lat="44.73813" lon="6.84224">
        <ele>1897.7</ele>
        <time>2026-03-23T13:20:47Z</time>
      </trkpt>
      <trkpt lat="44.73814" lon="6.84224">
        <ele>1898</ele>
        <time>2026-03-23T13:20:48Z</time>
      </trkpt>
      <trkpt lat="44.73815" lon="6.84223">
        <ele>1898</ele>
        <time>2026-03-23T13:20:49Z</time>
      </trkpt>
      <trkpt lat="44.73816" lon="6.84223">
        <ele>1898.1</ele>
        <time>2026-03-23T13:20:50Z</time>
      </trkpt>
      <trkpt lat="44.73817" lon="6.84223">
        <ele>1898.4</ele>
        <time>2026-03-23T13:20:51Z</time>
      </trkpt>
      <trkpt lat="44.73818" lon="6.84222">
        <ele>1898.4</ele>
        <time>2026-03-23T13:20:52Z</time>
      </trkpt>
      <trkpt lat="44.73819" lon="6.84222">
        <ele>1898.4</ele>
        <time>2026-03-23T13:20:53Z</time>
      </trkpt>
      <trkpt lat="44.73819" lon="6.84222">
        <ele>1898.4</ele>
        <time>2026-03-23T13:20:54Z</time>
      </trkpt>
      <trkpt lat="44.7382" lon="6.84221">
        <ele>1898.7</ele>
        <time>2026-03-23T13:20:55Z</time>
      </trkpt>
      <trkpt lat="44.73821" lon="6.84221">
        <ele>1897.2</ele>
        <time>2026-03-23T13:20:56Z</time>
      </trkpt>
      <trkpt lat="44.73822" lon="6.8422">
        <ele>1897.2</ele>
        <time>2026-03-23T13:20:57Z</time>
      </trkpt>
      <trkpt lat="44.73823" lon="6.84219">
        <ele>1897.5</ele>
        <time>2026-03-23T13:20:58Z</time>
      </trkpt>
      <trkpt lat="44.73824" lon="6.84218">
        <ele>1897.5</ele>
        <time>2026-03-23T13:20:59Z</time>
      </trkpt>
      <trkpt lat="44.73824" lon="6.84217">
        <ele>1897.5</ele>
        <time>2026-03-23T13:21:00Z</time>
      </trkpt>
      <trkpt lat="44.73825" lon="6.84216">
        <ele>1896.1</ele>
        <time>2026-03-23T13:21:01Z</time>
      </trkpt>
      <trkpt lat="44.73825" lon="6.84216">
        <ele>1896.1</ele>
        <time>2026-03-23T13:21:02Z</time>
      </trkpt>
      <trkpt lat="44.73825" lon="6.84215">
        <ele>1896.1</ele>
        <time>2026-03-23T13:21:03Z</time>
      </trkpt>
      <trkpt lat="44.73825" lon="6.84216">
        <ele>1896.1</ele>
        <time>2026-03-23T13:21:04Z</time>
      </trkpt>
      <trkpt lat="44.73825" lon="6.84217">
        <ele>1897.5</ele>
        <time>2026-03-23T13:21:05Z</time>
      </trkpt>
      <trkpt lat="44.73824" lon="6.84218">
        <ele>1897.5</ele>
        <time>2026-03-23T13:21:06Z</time>
      </trkpt>
      <trkpt lat="44.73824" lon="6.84218">
        <ele>1897.5</ele>
        <time>2026-03-23T13:21:07Z</time>
      </trkpt>
      <trkpt lat="44.73824" lon="6.84219">
        <ele>1897.5</ele>
        <time>2026-03-23T13:21:08Z</time>
      </trkpt>
      <trkpt lat="44.73824" lon="6.84219">
        <ele>1897.5</ele>
        <time>2026-03-23T13:21:09Z</time>
      </trkpt>
      <trkpt lat="44.73824" lon="6.8422">
        <ele>1897.5</ele>
        <time>2026-03-23T13:21:10Z</time>
      </trkpt>
      <trkpt lat="44.73824" lon="6.8422">
        <ele>1897.5</ele>
        <time>2026-03-23T13:21:11Z</time>
      </trkpt>
      <trkpt lat="44.73824" lon="6.84221">
        <ele>1897.5</ele>
        <time>2026-03-23T13:21:12Z</time>
      </trkpt>
      <trkpt lat="44.73824" lon="6.84221">
        <ele>1897.5</ele>
        <time>2026-03-23T13:21:13Z</time>
      </trkpt>
      <trkpt lat="44.73824" lon="6.84221">
        <ele>1897.5</ele>
        <time>2026-03-23T13:21:14Z</time>
      </trkpt>
      <trkpt lat="44.73824" lon="6.84221">
        <ele>1897.6</ele>
        <time>2026-03-23T13:21:15Z</time>
      </trkpt>
      <trkpt lat="44.73824" lon="6.84221">
        <ele>1897.6</ele>
        <time>2026-03-23T13:21:16Z</time>
      </trkpt>
      <trkpt lat="44.73824" lon="6.84221">
        <ele>1897.6</ele>
        <time>2026-03-23T13:21:17Z</time>
      </trkpt>
      <trkpt lat="44.73824" lon="6.84221">
        <ele>1897.6</ele>
        <time>2026-03-23T13:21:18Z</time>
      </trkpt>
      <trkpt lat="44.73824" lon="6.84221">
        <ele>1897.6</ele>
        <time>2026-03-23T13:21:19Z</time>
      </trkpt>
      <trkpt lat="44.73824" lon="6.8422">
        <ele>1897.6</ele>
        <time>2026-03-23T13:21:20Z</time>
      </trkpt>
      <trkpt lat="44.73824" lon="6.8422">
        <ele>1897.6</ele>
        <time>2026-03-23T13:21:21Z</time>
      </trkpt>
      <trkpt lat="44.73824" lon="6.8422">
        <ele>1897.6</ele>
        <time>2026-03-23T13:21:22Z</time>
      </trkpt>
      <trkpt lat="44.73824" lon="6.8422">
        <ele>1897.6</ele>
        <time>2026-03-23T13:21:23Z</time>
      </trkpt>
      <trkpt lat="44.73824" lon="6.8422">
        <ele>1897.6</ele>
        <time>2026-03-23T13:21:24Z</time>
      </trkpt>
      <trkpt lat="44.73824" lon="6.8422">
        <ele>1897.6</ele>
        <time>2026-03-23T13:21:25Z</time>
      </trkpt>
      <trkpt lat="44.73824" lon="6.8422">
        <ele>1897.6</ele>
        <time>2026-03-23T13:21:26Z</time>
      </trkpt>
      <trkpt lat="44.73824" lon="6.8422">
        <ele>1897.6</ele>
        <time>2026-03-23T13:21:27Z</time>
      </trkpt>
      <trkpt lat="44.73824" lon="6.8422">
        <ele>1897.6</ele>
        <time>2026-03-23T13:21:28Z</time>
      </trkpt>
      <trkpt lat="44.73824" lon="6.8422">
        <ele>1897.6</ele>
        <time>2026-03-23T13:21:29Z</time>
      </trkpt>
      <trkpt lat="44.73824" lon="6.8422">
        <ele>1897.6</ele>
        <time>2026-03-23T13:21:30Z</time>
      </trkpt>
      <trkpt lat="44.73824" lon="6.8422">
        <ele>1897.6</ele>
        <time>2026-03-23T13:21:31Z</time>
      </trkpt>
      <trkpt lat="44.73824" lon="6.8422">
        <ele>1897.6</ele>
        <time>2026-03-23T13:21:32Z</time>
      </trkpt>
      <trkpt lat="44.73824" lon="6.8422">
        <ele>1897.6</ele>
        <time>2026-03-23T13:21:33Z</time>
      </trkpt>
      <trkpt lat="44.73824" lon="6.8422">
        <ele>1897.6</ele>
        <time>2026-03-23T13:21:34Z</time>
      </trkpt>
      <trkpt lat="44.73824" lon="6.8422">
        <ele>1897.6</ele>
        <time>2026-03-23T13:21:35Z</time>
      </trkpt>
      <trkpt lat="44.73824" lon="6.8422">
        <ele>1897.6</ele>
        <time>2026-03-23T13:21:36Z</time>
      </trkpt>
      <trkpt lat="44.73825" lon="6.8422">
        <ele>1897.6</ele>
        <time>2026-03-23T13:21:37Z</time>
      </trkpt>
      <trkpt lat="44.73825" lon="6.8422">
        <ele>1897.6</ele>
        <time>2026-03-23T13:21:38Z</time>
      </trkpt>
      <trkpt lat="44.73825" lon="6.8422">
        <ele>1897.6</ele>
        <time>2026-03-23T13:21:39Z</time>
      </trkpt>
      <trkpt lat="44.73825" lon="6.8422">
        <ele>1897.6</ele>
        <time>2026-03-23T13:21:40Z</time>
      </trkpt>
      <trkpt lat="44.73825" lon="6.8422">
        <ele>1897.6</ele>
        <time>2026-03-23T13:21:41Z</time>
      </trkpt>
      <trkpt lat="44.73825" lon="6.8422">
        <ele>1897.6</ele>
        <time>2026-03-23T13:21:42Z</time>
      </trkpt>
      <trkpt lat="44.73825" lon="6.8422">
        <ele>1897.6</ele>
        <time>2026-03-23T13:21:43Z</time>
      </trkpt>
      <trkpt lat="44.73825" lon="6.8422">
        <ele>1897.6</ele>
        <time>2026-03-23T13:21:44Z</time>
      </trkpt>
      <trkpt lat="44.73825" lon="6.8422">
        <ele>1897.6</ele>
        <time>2026-03-23T13:21:45Z</time>
      </trkpt>
      <trkpt lat="44.73825" lon="6.8422">
        <ele>1897.6</ele>
        <time>2026-03-23T13:21:46Z</time>
      </trkpt>
      <trkpt lat="44.73825" lon="6.8422">
        <ele>1897.6</ele>
        <time>2026-03-23T13:21:47Z</time>
      </trkpt>
      <trkpt lat="44.73825" lon="6.8422">
        <ele>1897.6</ele>
        <time>2026-03-23T13:21:48Z</time>
      </trkpt>
      <trkpt lat="44.73825" lon="6.8422">
        <ele>1897.6</ele>
        <time>2026-03-23T13:21:49Z</time>
      </trkpt>
      <trkpt lat="44.73825" lon="6.8422">
        <ele>1897.6</ele>
        <time>2026-03-23T13:21:50Z</time>
      </trkpt>
      <trkpt lat="44.73825" lon="6.8422">
        <ele>1897.6</ele>
        <time>2026-03-23T13:21:51Z</time>
      </trkpt>
      <trkpt lat="44.73825" lon="6.8422">
        <ele>1897.6</ele>
        <time>2026-03-23T13:21:52Z</time>
      </trkpt>
      <trkpt lat="44.73825" lon="6.8422">
        <ele>1897.6</ele>
        <time>2026-03-23T13:21:53Z</time>
      </trkpt>
      <trkpt lat="44.73825" lon="6.8422">
        <ele>1897.6</ele>
        <time>2026-03-23T13:21:54Z</time>
      </trkpt>
      <trkpt lat="44.73825" lon="6.8422">
        <ele>1897.6</ele>
        <time>2026-03-23T13:21:55Z</time>
      </trkpt>
      <trkpt lat="44.73825" lon="6.8422">
        <ele>1897.6</ele>
        <time>2026-03-23T13:21:56Z</time>
      </trkpt>
      <trkpt lat="44.73825" lon="6.8422">
        <ele>1897.6</ele>
        <time>2026-03-23T13:21:57Z</time>
      </trkpt>
      <trkpt lat="44.73825" lon="6.8422">
        <ele>1897.6</ele>
        <time>2026-03-23T13:21:58Z</time>
      </trkpt>
      <trkpt lat="44.73825" lon="6.8422">
        <ele>1897.6</ele>
        <time>2026-03-23T13:21:59Z</time>
      </trkpt>
      <trkpt lat="44.73825" lon="6.8422">
        <ele>1897.6</ele>
        <time>2026-03-23T13:22:00Z</time>
      </trkpt>
      <trkpt lat="44.73825" lon="6.8422">
        <ele>1897.6</ele>
        <time>2026-03-23T13:22:01Z</time>
      </trkpt>
      <trkpt lat="44.73825" lon="6.8422">
        <ele>1897.6</ele>
        <time>2026-03-23T13:22:02Z</time>
      </trkpt>
      <trkpt lat="44.73825" lon="6.8422">
        <ele>1897.6</ele>
        <time>2026-03-23T13:22:03Z</time>
      </trkpt>
      <trkpt lat="44.73825" lon="6.8422">
        <ele>1897.6</ele>
        <time>2026-03-23T13:22:04Z</time>
      </trkpt>
      <trkpt lat="44.73826" lon="6.8422">
        <ele>1897.6</ele>
        <time>2026-03-23T13:22:05Z</time>
      </trkpt>
      <trkpt lat="44.73826" lon="6.8422">
        <ele>1897.6</ele>
        <time>2026-03-23T13:22:06Z</time>
      </trkpt>
      <trkpt lat="44.73826" lon="6.8422">
        <ele>1897.6</ele>
        <time>2026-03-23T13:22:07Z</time>
      </trkpt>
      <trkpt lat="44.73826" lon="6.8422">
        <ele>1897.6</ele>
        <time>2026-03-23T13:22:08Z</time>
      </trkpt>
      <trkpt lat="44.73826" lon="6.84219">
        <ele>1897.6</ele>
        <time>2026-03-23T13:22:09Z</time>
      </trkpt>
      <trkpt lat="44.73826" lon="6.84219">
        <ele>1897.6</ele>
        <time>2026-03-23T13:22:10Z</time>
      </trkpt>
      <trkpt lat="44.73826" lon="6.84219">
        <ele>1897.6</ele>
        <time>2026-03-23T13:22:11Z</time>
      </trkpt>
      <trkpt lat="44.73826" lon="6.84219">
        <ele>1897.6</ele>
        <time>2026-03-23T13:22:12Z</time>
      </trkpt>
      <trkpt lat="44.73826" lon="6.84219">
        <ele>1897.6</ele>
        <time>2026-03-23T13:22:13Z</time>
      </trkpt>
      <trkpt lat="44.73826" lon="6.84219">
        <ele>1897.7</ele>
        <time>2026-03-23T13:22:14Z</time>
      </trkpt>
      <trkpt lat="44.73826" lon="6.84219">
        <ele>1897.7</ele>
        <time>2026-03-23T13:22:15Z</time>
      </trkpt>
      <trkpt lat="44.73826" lon="6.84219">
        <ele>1897.7</ele>
        <time>2026-03-23T13:22:16Z</time>
      </trkpt>
      <trkpt lat="44.73826" lon="6.84219">
        <ele>1897.7</ele>
        <time>2026-03-23T13:22:17Z</time>
      </trkpt>
      <trkpt lat="44.73826" lon="6.84219">
        <ele>1897.7</ele>
        <time>2026-03-23T13:22:18Z</time>
      </trkpt>
      <trkpt lat="44.73826" lon="6.84219">
        <ele>1898</ele>
        <time>2026-03-23T13:22:19Z</time>
      </trkpt>
      <trkpt lat="44.73826" lon="6.84219">
        <ele>1898</ele>
        <time>2026-03-23T13:22:20Z</time>
      </trkpt>
      <trkpt lat="44.73826" lon="6.84219">
        <ele>1898</ele>
        <time>2026-03-23T13:22:21Z</time>
      </trkpt>
      <trkpt lat="44.73826" lon="6.84219">
        <ele>1898</ele>
        <time>2026-03-23T13:22:22Z</time>
      </trkpt>
      <trkpt lat="44.73826" lon="6.84219">
        <ele>1898</ele>
        <time>2026-03-23T13:22:23Z</time>
      </trkpt>
      <trkpt lat="44.73826" lon="6.84219">
        <ele>1898</ele>
        <time>2026-03-23T13:22:24Z</time>
      </trkpt>
      <trkpt lat="44.73826" lon="6.84219">
        <ele>1898</ele>
        <time>2026-03-23T13:22:25Z</time>
      </trkpt>
      <trkpt lat="44.73826" lon="6.84219">
        <ele>1898</ele>
        <time>2026-03-23T13:22:26Z</time>
      </trkpt>
      <trkpt lat="44.73826" lon="6.84219">
        <ele>1898</ele>
        <time>2026-03-23T13:22:27Z</time>
      </trkpt>
      <trkpt lat="44.73826" lon="6.84219">
        <ele>1898</ele>
        <time>2026-03-23T13:22:28Z</time>
      </trkpt>
      <trkpt lat="44.73826" lon="6.84219">
        <ele>1898</ele>
        <time>2026-03-23T13:22:29Z</time>
      </trkpt>
      <trkpt lat="44.73826" lon="6.84219">
        <ele>1898</ele>
        <time>2026-03-23T13:22:30Z</time>
      </trkpt>
      <trkpt lat="44.73826" lon="6.84219">
        <ele>1898</ele>
        <time>2026-03-23T13:22:31Z</time>
      </trkpt>
      <trkpt lat="44.73826" lon="6.84219">
        <ele>1898</ele>
        <time>2026-03-23T13:22:32Z</time>
      </trkpt>
      <trkpt lat="44.73827" lon="6.84219">
        <ele>1898</ele>
        <time>2026-03-23T13:22:33Z</time>
      </trkpt>
      <trkpt lat="44.73827" lon="6.84219">
        <ele>1898</ele>
        <time>2026-03-23T13:22:34Z</time>
      </trkpt>
      <trkpt lat="44.73827" lon="6.84219">
        <ele>1898</ele>
        <time>2026-03-23T13:22:35Z</time>
      </trkpt>
      <trkpt lat="44.73827" lon="6.84219">
        <ele>1898</ele>
        <time>2026-03-23T13:22:36Z</time>
      </trkpt>
      <trkpt lat="44.73827" lon="6.84219">
        <ele>1898</ele>
        <time>2026-03-23T13:22:37Z</time>
      </trkpt>
      <trkpt lat="44.73827" lon="6.84219">
        <ele>1898</ele>
        <time>2026-03-23T13:22:38Z</time>
      </trkpt>
      <trkpt lat="44.73827" lon="6.84219">
        <ele>1898</ele>
        <time>2026-03-23T13:22:39Z</time>
      </trkpt>
      <trkpt lat="44.73827" lon="6.84219">
        <ele>1898</ele>
        <time>2026-03-23T13:22:40Z</time>
      </trkpt>
      <trkpt lat="44.73827" lon="6.84219">
        <ele>1898</ele>
        <time>2026-03-23T13:22:41Z</time>
      </trkpt>
      <trkpt lat="44.73827" lon="6.84219">
        <ele>1898</ele>
        <time>2026-03-23T13:22:42Z</time>
      </trkpt>
      <trkpt lat="44.73827" lon="6.84219">
        <ele>1898</ele>
        <time>2026-03-23T13:22:43Z</time>
      </trkpt>
      <trkpt lat="44.73827" lon="6.84219">
        <ele>1898</ele>
        <time>2026-03-23T13:22:44Z</time>
      </trkpt>
      <trkpt lat="44.73827" lon="6.84219">
        <ele>1898</ele>
        <time>2026-03-23T13:22:45Z</time>
      </trkpt>
      <trkpt lat="44.73827" lon="6.84219">
        <ele>1898</ele>
        <time>2026-03-23T13:22:46Z</time>
      </trkpt>
      <trkpt lat="44.73827" lon="6.84219">
        <ele>1898</ele>
        <time>2026-03-23T13:22:47Z</time>
      </trkpt>
      <trkpt lat="44.73827" lon="6.84219">
        <ele>1898</ele>
        <time>2026-03-23T13:22:48Z</time>
      </trkpt>
      <trkpt lat="44.73827" lon="6.84219">
        <ele>1898</ele>
        <time>2026-03-23T13:22:49Z</time>
      </trkpt>
      <trkpt lat="44.73827" lon="6.84219">
        <ele>1898</ele>
        <time>2026-03-23T13:22:50Z</time>
      </trkpt>
      <trkpt lat="44.73827" lon="6.84219">
        <ele>1898</ele>
        <time>2026-03-23T13:22:51Z</time>
      </trkpt>
      <trkpt lat="44.73827" lon="6.84219">
        <ele>1898</ele>
        <time>2026-03-23T13:22:52Z</time>
      </trkpt>
      <trkpt lat="44.73827" lon="6.84219">
        <ele>1898</ele>
        <time>2026-03-23T13:22:53Z</time>
      </trkpt>
      <trkpt lat="44.73827" lon="6.84219">
        <ele>1898</ele>
        <time>2026-03-23T13:22:54Z</time>
      </trkpt>
      <trkpt lat="44.73827" lon="6.84219">
        <ele>1898</ele>
        <time>2026-03-23T13:22:55Z</time>
      </trkpt>
      <trkpt lat="44.73827" lon="6.84219">
        <ele>1898</ele>
        <time>2026-03-23T13:22:56Z</time>
      </trkpt>
      <trkpt lat="44.73827" lon="6.84219">
        <ele>1898.1</ele>
        <time>2026-03-23T13:22:57Z</time>
      </trkpt>
      <trkpt lat="44.73827" lon="6.84218">
        <ele>1898.1</ele>
        <time>2026-03-23T13:22:58Z</time>
      </trkpt>
      <trkpt lat="44.73827" lon="6.84218">
        <ele>1898.1</ele>
        <time>2026-03-23T13:22:59Z</time>
      </trkpt>
      <trkpt lat="44.73827" lon="6.84218">
        <ele>1898.1</ele>
        <time>2026-03-23T13:23:00Z</time>
      </trkpt>
      <trkpt lat="44.73829" lon="6.84217">
        <ele>1898.4</ele>
        <time>2026-03-23T13:23:01Z</time>
      </trkpt>
      <trkpt lat="44.7383" lon="6.84216">
        <ele>1897</ele>
        <time>2026-03-23T13:23:02Z</time>
      </trkpt>
      <trkpt lat="44.7383" lon="6.84216">
        <ele>1897</ele>
        <time>2026-03-23T13:23:03Z</time>
      </trkpt>
      <trkpt lat="44.7383" lon="6.84216">
        <ele>1897</ele>
        <time>2026-03-23T13:23:04Z</time>
      </trkpt>
      <trkpt lat="44.7383" lon="6.84216">
        <ele>1897</ele>
        <time>2026-03-23T13:23:05Z</time>
      </trkpt>
      <trkpt lat="44.7383" lon="6.84216">
        <ele>1897</ele>
        <time>2026-03-23T13:23:06Z</time>
      </trkpt>
      <trkpt lat="44.7383" lon="6.84216">
        <ele>1897</ele>
        <time>2026-03-23T13:23:07Z</time>
      </trkpt>
      <trkpt lat="44.7383" lon="6.84216">
        <ele>1897</ele>
        <time>2026-03-23T13:23:08Z</time>
      </trkpt>
      <trkpt lat="44.73831" lon="6.84216">
        <ele>1897</ele>
        <time>2026-03-23T13:23:09Z</time>
      </trkpt>
      <trkpt lat="44.73831" lon="6.84216">
        <ele>1897</ele>
        <time>2026-03-23T13:23:10Z</time>
      </trkpt>
      <trkpt lat="44.73831" lon="6.84216">
        <ele>1897</ele>
        <time>2026-03-23T13:23:11Z</time>
      </trkpt>
      <trkpt lat="44.73831" lon="6.84216">
        <ele>1897</ele>
        <time>2026-03-23T13:23:12Z</time>
      </trkpt>
      <trkpt lat="44.73831" lon="6.84216">
        <ele>1897</ele>
        <time>2026-03-23T13:23:13Z</time>
      </trkpt>
      <trkpt lat="44.73831" lon="6.84216">
        <ele>1897</ele>
        <time>2026-03-23T13:23:14Z</time>
      </trkpt>
      <trkpt lat="44.73831" lon="6.84216">
        <ele>1897</ele>
        <time>2026-03-23T13:23:15Z</time>
      </trkpt>
      <trkpt lat="44.73831" lon="6.84216">
        <ele>1897</ele>
        <time>2026-03-23T13:23:16Z</time>
      </trkpt>
      <trkpt lat="44.73831" lon="6.84216">
        <ele>1897</ele>
        <time>2026-03-23T13:23:17Z</time>
      </trkpt>
      <trkpt lat="44.73831" lon="6.84216">
        <ele>1897</ele>
        <time>2026-03-23T13:23:18Z</time>
      </trkpt>
      <trkpt lat="44.73831" lon="6.84216">
        <ele>1897</ele>
        <time>2026-03-23T13:23:19Z</time>
      </trkpt>
      <trkpt lat="44.73831" lon="6.84216">
        <ele>1897</ele>
        <time>2026-03-23T13:23:20Z</time>
      </trkpt>
      <trkpt lat="44.73831" lon="6.84216">
        <ele>1897</ele>
        <time>2026-03-23T13:23:21Z</time>
      </trkpt>
      <trkpt lat="44.73831" lon="6.84216">
        <ele>1897</ele>
        <time>2026-03-23T13:23:22Z</time>
      </trkpt>
      <trkpt lat="44.73831" lon="6.84216">
        <ele>1897</ele>
        <time>2026-03-23T13:23:23Z</time>
      </trkpt>
      <trkpt lat="44.73831" lon="6.84216">
        <ele>1897</ele>
        <time>2026-03-23T13:23:24Z</time>
      </trkpt>
      <trkpt lat="44.73831" lon="6.84216">
        <ele>1897</ele>
        <time>2026-03-23T13:23:25Z</time>
      </trkpt>
      <trkpt lat="44.73831" lon="6.84216">
        <ele>1897</ele>
        <time>2026-03-23T13:23:26Z</time>
      </trkpt>
      <trkpt lat="44.73831" lon="6.84216">
        <ele>1897</ele>
        <time>2026-03-23T13:23:27Z</time>
      </trkpt>
      <trkpt lat="44.73831" lon="6.84216">
        <ele>1897</ele>
        <time>2026-03-23T13:23:28Z</time>
      </trkpt>
      <trkpt lat="44.73831" lon="6.84216">
        <ele>1897</ele>
        <time>2026-03-23T13:23:29Z</time>
      </trkpt>
      <trkpt lat="44.73831" lon="6.84216">
        <ele>1897</ele>
        <time>2026-03-23T13:23:30Z</time>
      </trkpt>
      <trkpt lat="44.73831" lon="6.84216">
        <ele>1897</ele>
        <time>2026-03-23T13:23:31Z</time>
      </trkpt>
      <trkpt lat="44.73831" lon="6.84216">
        <ele>1897</ele>
        <time>2026-03-23T13:23:32Z</time>
      </trkpt>
      <trkpt lat="44.73831" lon="6.84216">
        <ele>1897</ele>
        <time>2026-03-23T13:23:33Z</time>
      </trkpt>
      <trkpt lat="44.73831" lon="6.84216">
        <ele>1897</ele>
        <time>2026-03-23T13:23:34Z</time>
      </trkpt>
      <trkpt lat="44.73831" lon="6.84216">
        <ele>1897</ele>
        <time>2026-03-23T13:23:35Z</time>
      </trkpt>
      <trkpt lat="44.73831" lon="6.84216">
        <ele>1897</ele>
        <time>2026-03-23T13:23:36Z</time>
      </trkpt>
      <trkpt lat="44.73831" lon="6.84216">
        <ele>1897</ele>
        <time>2026-03-23T13:23:37Z</time>
      </trkpt>
      <trkpt lat="44.73831" lon="6.84216">
        <ele>1897</ele>
        <time>2026-03-23T13:23:38Z</time>
      </trkpt>
      <trkpt lat="44.73831" lon="6.84216">
        <ele>1897</ele>
        <time>2026-03-23T13:23:39Z</time>
      </trkpt>
      <trkpt lat="44.73831" lon="6.84216">
        <ele>1897</ele>
        <time>2026-03-23T13:23:40Z</time>
      </trkpt>
      <trkpt lat="44.73831" lon="6.84216">
        <ele>1897</ele>
        <time>2026-03-23T13:23:41Z</time>
      </trkpt>
      <trkpt lat="44.73831" lon="6.84216">
        <ele>1897</ele>
        <time>2026-03-23T13:23:42Z</time>
      </trkpt>
      <trkpt lat="44.73831" lon="6.84216">
        <ele>1897</ele>
        <time>2026-03-23T13:23:43Z</time>
      </trkpt>
      <trkpt lat="44.73831" lon="6.84215">
        <ele>1897</ele>
        <time>2026-03-23T13:23:44Z</time>
      </trkpt>
      <trkpt lat="44.73831" lon="6.84215">
        <ele>1897</ele>
        <time>2026-03-23T13:23:45Z</time>
      </trkpt>
      <trkpt lat="44.73831" lon="6.84215">
        <ele>1897</ele>
        <time>2026-03-23T13:23:46Z</time>
      </trkpt>
      <trkpt lat="44.73831" lon="6.84215">
        <ele>1897</ele>
        <time>2026-03-23T13:23:47Z</time>
      </trkpt>
      <trkpt lat="44.73831" lon="6.84215">
        <ele>1897</ele>
        <time>2026-03-23T13:23:48Z</time>
      </trkpt>
      <trkpt lat="44.73831" lon="6.84215">
        <ele>1897</ele>
        <time>2026-03-23T13:23:49Z</time>
      </trkpt>
      <trkpt lat="44.73831" lon="6.84215">
        <ele>1897</ele>
        <time>2026-03-23T13:23:50Z</time>
      </trkpt>
      <trkpt lat="44.73831" lon="6.84215">
        <ele>1897</ele>
        <time>2026-03-23T13:23:51Z</time>
      </trkpt>
      <trkpt lat="44.73831" lon="6.84215">
        <ele>1897</ele>
        <time>2026-03-23T13:23:52Z</time>
      </trkpt>
      <trkpt lat="44.73831" lon="6.84215">
        <ele>1897</ele>
        <time>2026-03-23T13:23:53Z</time>
      </trkpt>
      <trkpt lat="44.73831" lon="6.84215">
        <ele>1897</ele>
        <time>2026-03-23T13:23:54Z</time>
      </trkpt>
      <trkpt lat="44.73831" lon="6.84215">
        <ele>1897</ele>
        <time>2026-03-23T13:23:55Z</time>
      </trkpt>
      <trkpt lat="44.73831" lon="6.84215">
        <ele>1897</ele>
        <time>2026-03-23T13:23:56Z</time>
      </trkpt>
      <trkpt lat="44.73831" lon="6.84215">
        <ele>1897</ele>
        <time>2026-03-23T13:23:57Z</time>
      </trkpt>
      <trkpt lat="44.73831" lon="6.84215">
        <ele>1897</ele>
        <time>2026-03-23T13:23:58Z</time>
      </trkpt>
      <trkpt lat="44.73831" lon="6.84215">
        <ele>1897</ele>
        <time>2026-03-23T13:23:59Z</time>
      </trkpt>
      <trkpt lat="44.73831" lon="6.84215">
        <ele>1897</ele>
        <time>2026-03-23T13:24:00Z</time>
      </trkpt>
      <trkpt lat="44.73831" lon="6.84215">
        <ele>1897.1</ele>
        <time>2026-03-23T13:24:01Z</time>
      </trkpt>
      <trkpt lat="44.73831" lon="6.84215">
        <ele>1897.1</ele>
        <time>2026-03-23T13:24:02Z</time>
      </trkpt>
      <trkpt lat="44.73831" lon="6.84215">
        <ele>1897.1</ele>
        <time>2026-03-23T13:24:03Z</time>
      </trkpt>
      <trkpt lat="44.73831" lon="6.84215">
        <ele>1897.1</ele>
        <time>2026-03-23T13:24:04Z</time>
      </trkpt>
      <trkpt lat="44.73831" lon="6.84215">
        <ele>1897.1</ele>
        <time>2026-03-23T13:24:05Z</time>
      </trkpt>
      <trkpt lat="44.73831" lon="6.84215">
        <ele>1897.1</ele>
        <time>2026-03-23T13:24:06Z</time>
      </trkpt>
      <trkpt lat="44.73831" lon="6.84215">
        <ele>1897.1</ele>
        <time>2026-03-23T13:24:07Z</time>
      </trkpt>
      <trkpt lat="44.73831" lon="6.84215">
        <ele>1897.1</ele>
        <time>2026-03-23T13:24:08Z</time>
      </trkpt>
      <trkpt lat="44.73831" lon="6.84215">
        <ele>1897.1</ele>
        <time>2026-03-23T13:24:09Z</time>
      </trkpt>
      <trkpt lat="44.73831" lon="6.84215">
        <ele>1897.1</ele>
        <time>2026-03-23T13:24:10Z</time>
      </trkpt>
      <trkpt lat="44.73831" lon="6.84215">
        <ele>1897.1</ele>
        <time>2026-03-23T13:24:11Z</time>
      </trkpt>
      <trkpt lat="44.73831" lon="6.84215">
        <ele>1897.1</ele>
        <time>2026-03-23T13:24:12Z</time>
      </trkpt>
      <trkpt lat="44.73831" lon="6.84215">
        <ele>1897.1</ele>
        <time>2026-03-23T13:24:13Z</time>
      </trkpt>
      <trkpt lat="44.73831" lon="6.84215">
        <ele>1897.1</ele>
        <time>2026-03-23T13:24:14Z</time>
      </trkpt>
      <trkpt lat="44.73831" lon="6.84215">
        <ele>1897.1</ele>
        <time>2026-03-23T13:24:15Z</time>
      </trkpt>
      <trkpt lat="44.73831" lon="6.84215">
        <ele>1897.1</ele>
        <time>2026-03-23T13:24:16Z</time>
      </trkpt>
      <trkpt lat="44.73831" lon="6.84215">
        <ele>1897.1</ele>
        <time>2026-03-23T13:24:17Z</time>
      </trkpt>
      <trkpt lat="44.73831" lon="6.84215">
        <ele>1897.1</ele>
        <time>2026-03-23T13:24:18Z</time>
      </trkpt>
      <trkpt lat="44.73831" lon="6.84215">
        <ele>1897.1</ele>
        <time>2026-03-23T13:24:19Z</time>
      </trkpt>
      <trkpt lat="44.73831" lon="6.84215">
        <ele>1897.1</ele>
        <time>2026-03-23T13:24:20Z</time>
      </trkpt>
      <trkpt lat="44.73831" lon="6.84215">
        <ele>1897.1</ele>
        <time>2026-03-23T13:24:21Z</time>
      </trkpt>
      <trkpt lat="44.73831" lon="6.84215">
        <ele>1897.1</ele>
        <time>2026-03-23T13:24:22Z</time>
      </trkpt>
      <trkpt lat="44.73831" lon="6.84215">
        <ele>1897.1</ele>
        <time>2026-03-23T13:24:23Z</time>
      </trkpt>
      <trkpt lat="44.73831" lon="6.84215">
        <ele>1897.1</ele>
        <time>2026-03-23T13:24:24Z</time>
      </trkpt>
      <trkpt lat="44.73831" lon="6.84215">
        <ele>1897.1</ele>
        <time>2026-03-23T13:24:25Z</time>
      </trkpt>
      <trkpt lat="44.73831" lon="6.84215">
        <ele>1897.1</ele>
        <time>2026-03-23T13:24:26Z</time>
      </trkpt>
      <trkpt lat="44.73831" lon="6.84215">
        <ele>1897.1</ele>
        <time>2026-03-23T13:24:27Z</time>
      </trkpt>
      <trkpt lat="44.73831" lon="6.84215">
        <ele>1897.1</ele>
        <time>2026-03-23T13:24:28Z</time>
      </trkpt>
      <trkpt lat="44.73831" lon="6.84215">
        <ele>1897.1</ele>
        <time>2026-03-23T13:24:29Z</time>
      </trkpt>
      <trkpt lat="44.73831" lon="6.84215">
        <ele>1897.1</ele>
        <time>2026-03-23T13:24:30Z</time>
      </trkpt>
      <trkpt lat="44.73831" lon="6.84215">
        <ele>1897.1</ele>
        <time>2026-03-23T13:24:31Z</time>
      </trkpt>
      <trkpt lat="44.73831" lon="6.84215">
        <ele>1897.1</ele>
        <time>2026-03-23T13:24:32Z</time>
      </trkpt>
      <trkpt lat="44.73831" lon="6.84215">
        <ele>1897.1</ele>
        <time>2026-03-23T13:24:33Z</time>
      </trkpt>
      <trkpt lat="44.73831" lon="6.84215">
        <ele>1897.1</ele>
        <time>2026-03-23T13:24:34Z</time>
      </trkpt>
      <trkpt lat="44.73831" lon="6.84215">
        <ele>1897.1</ele>
        <time>2026-03-23T13:24:35Z</time>
      </trkpt>
      <trkpt lat="44.73831" lon="6.84215">
        <ele>1897.1</ele>
        <time>2026-03-23T13:24:36Z</time>
      </trkpt>
      <trkpt lat="44.73831" lon="6.84215">
        <ele>1897.1</ele>
        <time>2026-03-23T13:24:37Z</time>
      </trkpt>
      <trkpt lat="44.73831" lon="6.84215">
        <ele>1897.1</ele>
        <time>2026-03-23T13:24:38Z</time>
      </trkpt>
      <trkpt lat="44.73831" lon="6.84215">
        <ele>1897.1</ele>
        <time>2026-03-23T13:24:39Z</time>
      </trkpt>
      <trkpt lat="44.73831" lon="6.84215">
        <ele>1897.1</ele>
        <time>2026-03-23T13:24:40Z</time>
      </trkpt>
      <trkpt lat="44.73831" lon="6.84215">
        <ele>1897.1</ele>
        <time>2026-03-23T13:24:41Z</time>
      </trkpt>
      <trkpt lat="44.73831" lon="6.84215">
        <ele>1897.1</ele>
        <time>2026-03-23T13:24:42Z</time>
      </trkpt>
      <trkpt lat="44.73831" lon="6.84215">
        <ele>1897.1</ele>
        <time>2026-03-23T13:24:43Z</time>
      </trkpt>
      <trkpt lat="44.73831" lon="6.84215">
        <ele>1897.1</ele>
        <time>2026-03-23T13:24:44Z</time>
      </trkpt>
      <trkpt lat="44.73831" lon="6.84215">
        <ele>1897.1</ele>
        <time>2026-03-23T13:24:45Z</time>
      </trkpt>
      <trkpt lat="44.73831" lon="6.84215">
        <ele>1897.1</ele>
        <time>2026-03-23T13:24:46Z</time>
      </trkpt>
      <trkpt lat="44.73831" lon="6.84215">
        <ele>1897.1</ele>
        <time>2026-03-23T13:24:47Z</time>
      </trkpt>
      <trkpt lat="44.73831" lon="6.84215">
        <ele>1897.1</ele>
        <time>2026-03-23T13:24:48Z</time>
      </trkpt>
      <trkpt lat="44.73831" lon="6.84215">
        <ele>1897.1</ele>
        <time>2026-03-23T13:24:49Z</time>
      </trkpt>
      <trkpt lat="44.73831" lon="6.84215">
        <ele>1897.1</ele>
        <time>2026-03-23T13:24:50Z</time>
      </trkpt>
      <trkpt lat="44.73831" lon="6.84215">
        <ele>1897.1</ele>
        <time>2026-03-23T13:24:51Z</time>
      </trkpt>
      <trkpt lat="44.73831" lon="6.84215">
        <ele>1897.1</ele>
        <time>2026-03-23T13:24:52Z</time>
      </trkpt>
      <trkpt lat="44.73831" lon="6.84215">
        <ele>1897.1</ele>
        <time>2026-03-23T13:24:53Z</time>
      </trkpt>
      <trkpt lat="44.73831" lon="6.84215">
        <ele>1897.1</ele>
        <time>2026-03-23T13:24:54Z</time>
      </trkpt>
      <trkpt lat="44.73831" lon="6.84215">
        <ele>1897.1</ele>
        <time>2026-03-23T13:24:55Z</time>
      </trkpt>
      <trkpt lat="44.73831" lon="6.84215">
        <ele>1897.1</ele>
        <time>2026-03-23T13:24:56Z</time>
      </trkpt>
      <trkpt lat="44.73831" lon="6.84215">
        <ele>1897.1</ele>
        <time>2026-03-23T13:24:57Z</time>
      </trkpt>
      <trkpt lat="44.73831" lon="6.84215">
        <ele>1897.1</ele>
        <time>2026-03-23T13:24:58Z</time>
      </trkpt>
      <trkpt lat="44.73831" lon="6.84215">
        <ele>1897.1</ele>
        <time>2026-03-23T13:24:59Z</time>
      </trkpt>
      <trkpt lat="44.73831" lon="6.84215">
        <ele>1897.2</ele>
        <time>2026-03-23T13:25:00Z</time>
      </trkpt>
      <trkpt lat="44.73831" lon="6.84215">
        <ele>1897.2</ele>
        <time>2026-03-23T13:25:01Z</time>
      </trkpt>
      <trkpt lat="44.73831" lon="6.84215">
        <ele>1897.2</ele>
        <time>2026-03-23T13:25:02Z</time>
      </trkpt>
      <trkpt lat="44.73831" lon="6.84215">
        <ele>1897.2</ele>
        <time>2026-03-23T13:25:03Z</time>
      </trkpt>
      <trkpt lat="44.73831" lon="6.84215">
        <ele>1897.2</ele>
        <time>2026-03-23T13:25:04Z</time>
      </trkpt>
      <trkpt lat="44.73831" lon="6.84215">
        <ele>1897.2</ele>
        <time>2026-03-23T13:25:05Z</time>
      </trkpt>
      <trkpt lat="44.73831" lon="6.84215">
        <ele>1897.2</ele>
        <time>2026-03-23T13:25:06Z</time>
      </trkpt>
      <trkpt lat="44.73831" lon="6.84215">
        <ele>1897.2</ele>
        <time>2026-03-23T13:25:07Z</time>
      </trkpt>
      <trkpt lat="44.73831" lon="6.84215">
        <ele>1897.2</ele>
        <time>2026-03-23T13:25:08Z</time>
      </trkpt>
      <trkpt lat="44.73831" lon="6.84215">
        <ele>1897.2</ele>
        <time>2026-03-23T13:25:09Z</time>
      </trkpt>
      <trkpt lat="44.73831" lon="6.84215">
        <ele>1897.2</ele>
        <time>2026-03-23T13:25:10Z</time>
      </trkpt>
      <trkpt lat="44.73831" lon="6.84215">
        <ele>1897.2</ele>
        <time>2026-03-23T13:25:11Z</time>
      </trkpt>
      <trkpt lat="44.73831" lon="6.84215">
        <ele>1897.2</ele>
        <time>2026-03-23T13:25:12Z</time>
      </trkpt>
      <trkpt lat="44.73831" lon="6.84215">
        <ele>1897.2</ele>
        <time>2026-03-23T13:25:13Z</time>
      </trkpt>
      <trkpt lat="44.73831" lon="6.84215">
        <ele>1897.2</ele>
        <time>2026-03-23T13:25:14Z</time>
      </trkpt>
      <trkpt lat="44.73831" lon="6.84215">
        <ele>1897.2</ele>
        <time>2026-03-23T13:25:15Z</time>
      </trkpt>
      <trkpt lat="44.73831" lon="6.84215">
        <ele>1897.2</ele>
        <time>2026-03-23T13:25:16Z</time>
      </trkpt>
      <trkpt lat="44.73831" lon="6.84215">
        <ele>1897.2</ele>
        <time>2026-03-23T13:25:17Z</time>
      </trkpt>
      <trkpt lat="44.73831" lon="6.84215">
        <ele>1897.2</ele>
        <time>2026-03-23T13:25:18Z</time>
      </trkpt>
      <trkpt lat="44.73831" lon="6.84215">
        <ele>1897.2</ele>
        <time>2026-03-23T13:25:19Z</time>
      </trkpt>
      <trkpt lat="44.73831" lon="6.84215">
        <ele>1897.2</ele>
        <time>2026-03-23T13:25:20Z</time>
      </trkpt>
      <trkpt lat="44.73831" lon="6.84215">
        <ele>1897.2</ele>
        <time>2026-03-23T13:25:21Z</time>
      </trkpt>
      <trkpt lat="44.73831" lon="6.84215">
        <ele>1897.2</ele>
        <time>2026-03-23T13:25:22Z</time>
      </trkpt>
      <trkpt lat="44.73831" lon="6.84215">
        <ele>1897.2</ele>
        <time>2026-03-23T13:25:23Z</time>
      </trkpt>
      <trkpt lat="44.73831" lon="6.84215">
        <ele>1897.2</ele>
        <time>2026-03-23T13:25:24Z</time>
      </trkpt>
      <trkpt lat="44.73831" lon="6.84215">
        <ele>1897.2</ele>
        <time>2026-03-23T13:25:25Z</time>
      </trkpt>
      <trkpt lat="44.73832" lon="6.84215">
        <ele>1897.2</ele>
        <time>2026-03-23T13:25:26Z</time>
      </trkpt>
      <trkpt lat="44.73832" lon="6.84215">
        <ele>1897.2</ele>
        <time>2026-03-23T13:25:27Z</time>
      </trkpt>
      <trkpt lat="44.73832" lon="6.84215">
        <ele>1897.2</ele>
        <time>2026-03-23T13:25:28Z</time>
      </trkpt>
      <trkpt lat="44.73832" lon="6.84215">
        <ele>1897.2</ele>
        <time>2026-03-23T13:25:29Z</time>
      </trkpt>
      <trkpt lat="44.73832" lon="6.84215">
        <ele>1897.2</ele>
        <time>2026-03-23T13:25:30Z</time>
      </trkpt>
      <trkpt lat="44.73832" lon="6.84215">
        <ele>1897.2</ele>
        <time>2026-03-23T13:25:31Z</time>
      </trkpt>
      <trkpt lat="44.73832" lon="6.84215">
        <ele>1897.2</ele>
        <time>2026-03-23T13:25:32Z</time>
      </trkpt>
      <trkpt lat="44.73832" lon="6.84215">
        <ele>1897.2</ele>
        <time>2026-03-23T13:25:33Z</time>
      </trkpt>
      <trkpt lat="44.73832" lon="6.84215">
        <ele>1897.2</ele>
        <time>2026-03-23T13:25:34Z</time>
      </trkpt>
      <trkpt lat="44.73832" lon="6.84215">
        <ele>1897.2</ele>
        <time>2026-03-23T13:25:35Z</time>
      </trkpt>
      <trkpt lat="44.73832" lon="6.84215">
        <ele>1897.2</ele>
        <time>2026-03-23T13:25:36Z</time>
      </trkpt>
      <trkpt lat="44.73832" lon="6.84215">
        <ele>1897.2</ele>
        <time>2026-03-23T13:25:37Z</time>
      </trkpt>
      <trkpt lat="44.73832" lon="6.84215">
        <ele>1897.2</ele>
        <time>2026-03-23T13:25:38Z</time>
      </trkpt>
      <trkpt lat="44.73832" lon="6.84215">
        <ele>1897.2</ele>
        <time>2026-03-23T13:25:39Z</time>
      </trkpt>
      <trkpt lat="44.73832" lon="6.84215">
        <ele>1897.2</ele>
        <time>2026-03-23T13:25:40Z</time>
      </trkpt>
      <trkpt lat="44.73832" lon="6.84214">
        <ele>1897.2</ele>
        <time>2026-03-23T13:25:41Z</time>
      </trkpt>
      <trkpt lat="44.73832" lon="6.84214">
        <ele>1897.2</ele>
        <time>2026-03-23T13:25:42Z</time>
      </trkpt>
      <trkpt lat="44.73832" lon="6.84214">
        <ele>1897.2</ele>
        <time>2026-03-23T13:25:43Z</time>
      </trkpt>
      <trkpt lat="44.73832" lon="6.84214">
        <ele>1897.2</ele>
        <time>2026-03-23T13:25:44Z</time>
      </trkpt>
      <trkpt lat="44.73832" lon="6.84214">
        <ele>1897.2</ele>
        <time>2026-03-23T13:25:45Z</time>
      </trkpt>
      <trkpt lat="44.73832" lon="6.84214">
        <ele>1897.2</ele>
        <time>2026-03-23T13:25:46Z</time>
      </trkpt>
      <trkpt lat="44.73832" lon="6.84214">
        <ele>1897.2</ele>
        <time>2026-03-23T13:25:47Z</time>
      </trkpt>
      <trkpt lat="44.73832" lon="6.84214">
        <ele>1897.2</ele>
        <time>2026-03-23T13:25:48Z</time>
      </trkpt>
      <trkpt lat="44.73832" lon="6.84214">
        <ele>1897.2</ele>
        <time>2026-03-23T13:25:49Z</time>
      </trkpt>
      <trkpt lat="44.73832" lon="6.84214">
        <ele>1897.2</ele>
        <time>2026-03-23T13:25:50Z</time>
      </trkpt>
      <trkpt lat="44.73832" lon="6.84214">
        <ele>1897.2</ele>
        <time>2026-03-23T13:25:51Z</time>
      </trkpt>
      <trkpt lat="44.73832" lon="6.84214">
        <ele>1897.2</ele>
        <time>2026-03-23T13:25:52Z</time>
      </trkpt>
      <trkpt lat="44.73832" lon="6.84214">
        <ele>1897.2</ele>
        <time>2026-03-23T13:25:53Z</time>
      </trkpt>
      <trkpt lat="44.73832" lon="6.84214">
        <ele>1897.2</ele>
        <time>2026-03-23T13:25:54Z</time>
      </trkpt>
      <trkpt lat="44.73832" lon="6.84214">
        <ele>1897.2</ele>
        <time>2026-03-23T13:25:55Z</time>
      </trkpt>
      <trkpt lat="44.73832" lon="6.84214">
        <ele>1897.2</ele>
        <time>2026-03-23T13:25:56Z</time>
      </trkpt>
      <trkpt lat="44.73832" lon="6.84214">
        <ele>1897.2</ele>
        <time>2026-03-23T13:25:57Z</time>
      </trkpt>
      <trkpt lat="44.73832" lon="6.84214">
        <ele>1897.2</ele>
        <time>2026-03-23T13:25:58Z</time>
      </trkpt>
      <trkpt lat="44.73832" lon="6.84214">
        <ele>1897.3</ele>
        <time>2026-03-23T13:25:59Z</time>
      </trkpt>
      <trkpt lat="44.73832" lon="6.84214">
        <ele>1897.3</ele>
        <time>2026-03-23T13:26:00Z</time>
      </trkpt>
      <trkpt lat="44.73832" lon="6.84214">
        <ele>1897.3</ele>
        <time>2026-03-23T13:26:01Z</time>
      </trkpt>
      <trkpt lat="44.73832" lon="6.84214">
        <ele>1897.3</ele>
        <time>2026-03-23T13:26:02Z</time>
      </trkpt>
      <trkpt lat="44.73832" lon="6.84214">
        <ele>1897.3</ele>
        <time>2026-03-23T13:26:03Z</time>
      </trkpt>
      <trkpt lat="44.73832" lon="6.84214">
        <ele>1897.3</ele>
        <time>2026-03-23T13:26:04Z</time>
      </trkpt>
      <trkpt lat="44.73832" lon="6.84214">
        <ele>1897.3</ele>
        <time>2026-03-23T13:26:05Z</time>
      </trkpt>
      <trkpt lat="44.73832" lon="6.84214">
        <ele>1897.3</ele>
        <time>2026-03-23T13:26:06Z</time>
      </trkpt>
      <trkpt lat="44.73832" lon="6.84214">
        <ele>1897.3</ele>
        <time>2026-03-23T13:26:07Z</time>
      </trkpt>
      <trkpt lat="44.73832" lon="6.84214">
        <ele>1897.3</ele>
        <time>2026-03-23T13:26:08Z</time>
      </trkpt>
      <trkpt lat="44.73832" lon="6.84214">
        <ele>1897.3</ele>
        <time>2026-03-23T13:26:09Z</time>
      </trkpt>
      <trkpt lat="44.73832" lon="6.84214">
        <ele>1897.3</ele>
        <time>2026-03-23T13:26:10Z</time>
      </trkpt>
      <trkpt lat="44.73832" lon="6.84214">
        <ele>1897.3</ele>
        <time>2026-03-23T13:26:11Z</time>
      </trkpt>
      <trkpt lat="44.73832" lon="6.84214">
        <ele>1897.3</ele>
        <time>2026-03-23T13:26:12Z</time>
      </trkpt>
      <trkpt lat="44.73832" lon="6.84214">
        <ele>1897.3</ele>
        <time>2026-03-23T13:26:13Z</time>
      </trkpt>
      <trkpt lat="44.73832" lon="6.84214">
        <ele>1897.3</ele>
        <time>2026-03-23T13:26:14Z</time>
      </trkpt>
      <trkpt lat="44.73832" lon="6.84214">
        <ele>1897.3</ele>
        <time>2026-03-23T13:26:15Z</time>
      </trkpt>
      <trkpt lat="44.73832" lon="6.84214">
        <ele>1897.3</ele>
        <time>2026-03-23T13:26:16Z</time>
      </trkpt>
      <trkpt lat="44.73832" lon="6.84214">
        <ele>1897.3</ele>
        <time>2026-03-23T13:26:17Z</time>
      </trkpt>
      <trkpt lat="44.73832" lon="6.84214">
        <ele>1897.3</ele>
        <time>2026-03-23T13:26:18Z</time>
      </trkpt>
      <trkpt lat="44.73832" lon="6.84214">
        <ele>1897.3</ele>
        <time>2026-03-23T13:26:19Z</time>
      </trkpt>
      <trkpt lat="44.73832" lon="6.84214">
        <ele>1897.3</ele>
        <time>2026-03-23T13:26:20Z</time>
      </trkpt>
      <trkpt lat="44.73832" lon="6.84214">
        <ele>1897.3</ele>
        <time>2026-03-23T13:26:21Z</time>
      </trkpt>
      <trkpt lat="44.73832" lon="6.84214">
        <ele>1897.3</ele>
        <time>2026-03-23T13:26:22Z</time>
      </trkpt>
      <trkpt lat="44.73832" lon="6.84214">
        <ele>1897.3</ele>
        <time>2026-03-23T13:26:23Z</time>
      </trkpt>
      <trkpt lat="44.73832" lon="6.84214">
        <ele>1897.3</ele>
        <time>2026-03-23T13:26:24Z</time>
      </trkpt>
      <trkpt lat="44.73832" lon="6.84214">
        <ele>1897.3</ele>
        <time>2026-03-23T13:26:25Z</time>
      </trkpt>
      <trkpt lat="44.73832" lon="6.84214">
        <ele>1897.3</ele>
        <time>2026-03-23T13:26:26Z</time>
      </trkpt>
      <trkpt lat="44.73832" lon="6.84214">
        <ele>1897.3</ele>
        <time>2026-03-23T13:26:27Z</time>
      </trkpt>
      <trkpt lat="44.73832" lon="6.84214">
        <ele>1897.3</ele>
        <time>2026-03-23T13:26:28Z</time>
      </trkpt>
      <trkpt lat="44.73832" lon="6.84214">
        <ele>1897.3</ele>
        <time>2026-03-23T13:26:29Z</time>
      </trkpt>
      <trkpt lat="44.73832" lon="6.84214">
        <ele>1897.3</ele>
        <time>2026-03-23T13:26:30Z</time>
      </trkpt>
      <trkpt lat="44.73832" lon="6.84214">
        <ele>1897.3</ele>
        <time>2026-03-23T13:26:31Z</time>
      </trkpt>
      <trkpt lat="44.73832" lon="6.84214">
        <ele>1897.3</ele>
        <time>2026-03-23T13:26:32Z</time>
      </trkpt>
      <trkpt lat="44.73832" lon="6.84214">
        <ele>1897.3</ele>
        <time>2026-03-23T13:26:33Z</time>
      </trkpt>
      <trkpt lat="44.73832" lon="6.84214">
        <ele>1897.3</ele>
        <time>2026-03-23T13:26:34Z</time>
      </trkpt>
      <trkpt lat="44.73832" lon="6.84214">
        <ele>1897.3</ele>
        <time>2026-03-23T13:26:35Z</time>
      </trkpt>
      <trkpt lat="44.73832" lon="6.84214">
        <ele>1897.3</ele>
        <time>2026-03-23T13:26:36Z</time>
      </trkpt>
      <trkpt lat="44.73832" lon="6.84214">
        <ele>1897.3</ele>
        <time>2026-03-23T13:26:37Z</time>
      </trkpt>
      <trkpt lat="44.73832" lon="6.84214">
        <ele>1897.3</ele>
        <time>2026-03-23T13:26:38Z</time>
      </trkpt>
      <trkpt lat="44.73832" lon="6.84214">
        <ele>1897.3</ele>
        <time>2026-03-23T13:26:39Z</time>
      </trkpt>
      <trkpt lat="44.73832" lon="6.84214">
        <ele>1897.3</ele>
        <time>2026-03-23T13:26:40Z</time>
      </trkpt>
      <trkpt lat="44.73832" lon="6.84214">
        <ele>1897.3</ele>
        <time>2026-03-23T13:26:41Z</time>
      </trkpt>
      <trkpt lat="44.73832" lon="6.84214">
        <ele>1897.3</ele>
        <time>2026-03-23T13:26:42Z</time>
      </trkpt>
      <trkpt lat="44.73832" lon="6.84214">
        <ele>1897.3</ele>
        <time>2026-03-23T13:26:43Z</time>
      </trkpt>
      <trkpt lat="44.73832" lon="6.84214">
        <ele>1897.3</ele>
        <time>2026-03-23T13:26:44Z</time>
      </trkpt>
      <trkpt lat="44.73832" lon="6.84214">
        <ele>1897.3</ele>
        <time>2026-03-23T13:26:45Z</time>
      </trkpt>
      <trkpt lat="44.73832" lon="6.84214">
        <ele>1897.3</ele>
        <time>2026-03-23T13:26:46Z</time>
      </trkpt>
      <trkpt lat="44.73832" lon="6.84214">
        <ele>1897.3</ele>
        <time>2026-03-23T13:26:47Z</time>
      </trkpt>
      <trkpt lat="44.73832" lon="6.84214">
        <ele>1897.7</ele>
        <time>2026-03-23T13:26:48Z</time>
      </trkpt>
      <trkpt lat="44.73832" lon="6.84214">
        <ele>1897.7</ele>
        <time>2026-03-23T13:26:49Z</time>
      </trkpt>
      <trkpt lat="44.73832" lon="6.84214">
        <ele>1897.7</ele>
        <time>2026-03-23T13:26:50Z</time>
      </trkpt>
      <trkpt lat="44.73832" lon="6.84214">
        <ele>1897.7</ele>
        <time>2026-03-23T13:26:51Z</time>
      </trkpt>
      <trkpt lat="44.73832" lon="6.84214">
        <ele>1897.7</ele>
        <time>2026-03-23T13:26:52Z</time>
      </trkpt>
      <trkpt lat="44.73832" lon="6.84214">
        <ele>1897.7</ele>
        <time>2026-03-23T13:26:53Z</time>
      </trkpt>
      <trkpt lat="44.73832" lon="6.84214">
        <ele>1897.7</ele>
        <time>2026-03-23T13:26:54Z</time>
      </trkpt>
      <trkpt lat="44.73832" lon="6.84214">
        <ele>1897.7</ele>
        <time>2026-03-23T13:26:55Z</time>
      </trkpt>
      <trkpt lat="44.73832" lon="6.84214">
        <ele>1897.7</ele>
        <time>2026-03-23T13:26:56Z</time>
      </trkpt>
      <trkpt lat="44.73832" lon="6.84214">
        <ele>1897.7</ele>
        <time>2026-03-23T13:26:57Z</time>
      </trkpt>
      <trkpt lat="44.73832" lon="6.84214">
        <ele>1897.7</ele>
        <time>2026-03-23T13:26:58Z</time>
      </trkpt>
      <trkpt lat="44.73832" lon="6.84214">
        <ele>1897.7</ele>
        <time>2026-03-23T13:26:59Z</time>
      </trkpt>
      <trkpt lat="44.73832" lon="6.84214">
        <ele>1897.7</ele>
        <time>2026-03-23T13:27:00Z</time>
      </trkpt>
      <trkpt lat="44.73832" lon="6.84214">
        <ele>1897.7</ele>
        <time>2026-03-23T13:27:01Z</time>
      </trkpt>
      <trkpt lat="44.73832" lon="6.84214">
        <ele>1897.7</ele>
        <time>2026-03-23T13:27:02Z</time>
      </trkpt>
      <trkpt lat="44.73832" lon="6.84214">
        <ele>1897.7</ele>
        <time>2026-03-23T13:27:03Z</time>
      </trkpt>
      <trkpt lat="44.73832" lon="6.84214">
        <ele>1897.7</ele>
        <time>2026-03-23T13:27:04Z</time>
      </trkpt>
      <trkpt lat="44.73832" lon="6.84214">
        <ele>1897.7</ele>
        <time>2026-03-23T13:27:05Z</time>
      </trkpt>
      <trkpt lat="44.73832" lon="6.84214">
        <ele>1897.7</ele>
        <time>2026-03-23T13:27:06Z</time>
      </trkpt>
      <trkpt lat="44.73832" lon="6.84214">
        <ele>1897.7</ele>
        <time>2026-03-23T13:27:07Z</time>
      </trkpt>
      <trkpt lat="44.73832" lon="6.84214">
        <ele>1897.7</ele>
        <time>2026-03-23T13:27:08Z</time>
      </trkpt>
      <trkpt lat="44.73832" lon="6.84214">
        <ele>1897.7</ele>
        <time>2026-03-23T13:27:09Z</time>
      </trkpt>
      <trkpt lat="44.73832" lon="6.84214">
        <ele>1897.7</ele>
        <time>2026-03-23T13:27:10Z</time>
      </trkpt>
      <trkpt lat="44.73832" lon="6.84214">
        <ele>1897.7</ele>
        <time>2026-03-23T13:27:11Z</time>
      </trkpt>
      <trkpt lat="44.73832" lon="6.84214">
        <ele>1897.7</ele>
        <time>2026-03-23T13:27:12Z</time>
      </trkpt>
      <trkpt lat="44.73832" lon="6.84214">
        <ele>1897.7</ele>
        <time>2026-03-23T13:27:13Z</time>
      </trkpt>
      <trkpt lat="44.73832" lon="6.84214">
        <ele>1897.7</ele>
        <time>2026-03-23T13:27:14Z</time>
      </trkpt>
      <trkpt lat="44.73832" lon="6.84214">
        <ele>1897.7</ele>
        <time>2026-03-23T13:27:15Z</time>
      </trkpt>
      <trkpt lat="44.73832" lon="6.84214">
        <ele>1897.7</ele>
        <time>2026-03-23T13:27:16Z</time>
      </trkpt>
      <trkpt lat="44.73832" lon="6.84214">
        <ele>1897.7</ele>
        <time>2026-03-23T13:27:17Z</time>
      </trkpt>
      <trkpt lat="44.73832" lon="6.84214">
        <ele>1897.7</ele>
        <time>2026-03-23T13:27:18Z</time>
      </trkpt>
      <trkpt lat="44.73832" lon="6.84214">
        <ele>1897.7</ele>
        <time>2026-03-23T13:27:19Z</time>
      </trkpt>
      <trkpt lat="44.73832" lon="6.84214">
        <ele>1897.7</ele>
        <time>2026-03-23T13:27:20Z</time>
      </trkpt>
      <trkpt lat="44.73832" lon="6.84214">
        <ele>1897.7</ele>
        <time>2026-03-23T13:27:21Z</time>
      </trkpt>
      <trkpt lat="44.73832" lon="6.84214">
        <ele>1897.7</ele>
        <time>2026-03-23T13:27:22Z</time>
      </trkpt>
      <trkpt lat="44.73832" lon="6.84214">
        <ele>1897.7</ele>
        <time>2026-03-23T13:27:23Z</time>
      </trkpt>
      <trkpt lat="44.73832" lon="6.84214">
        <ele>1897.7</ele>
        <time>2026-03-23T13:27:24Z</time>
      </trkpt>
      <trkpt lat="44.73832" lon="6.84214">
        <ele>1897.7</ele>
        <time>2026-03-23T13:27:25Z</time>
      </trkpt>
      <trkpt lat="44.73832" lon="6.84214">
        <ele>1897.7</ele>
        <time>2026-03-23T13:27:26Z</time>
      </trkpt>
      <trkpt lat="44.73832" lon="6.84214">
        <ele>1897.7</ele>
        <time>2026-03-23T13:27:27Z</time>
      </trkpt>
      <trkpt lat="44.73832" lon="6.84214">
        <ele>1897.7</ele>
        <time>2026-03-23T13:27:28Z</time>
      </trkpt>
      <trkpt lat="44.73832" lon="6.84214">
        <ele>1897.8</ele>
        <time>2026-03-23T13:27:29Z</time>
      </trkpt>
      <trkpt lat="44.73832" lon="6.84214">
        <ele>1897.8</ele>
        <time>2026-03-23T13:27:30Z</time>
      </trkpt>
      <trkpt lat="44.73832" lon="6.84214">
        <ele>1897.8</ele>
        <time>2026-03-23T13:27:31Z</time>
      </trkpt>
      <trkpt lat="44.73832" lon="6.84214">
        <ele>1897.8</ele>
        <time>2026-03-23T13:27:32Z</time>
      </trkpt>
      <trkpt lat="44.73832" lon="6.84214">
        <ele>1897.8</ele>
        <time>2026-03-23T13:27:33Z</time>
      </trkpt>
      <trkpt lat="44.73832" lon="6.84214">
        <ele>1897.8</ele>
        <time>2026-03-23T13:27:34Z</time>
      </trkpt>
      <trkpt lat="44.73832" lon="6.84214">
        <ele>1897.8</ele>
        <time>2026-03-23T13:27:35Z</time>
      </trkpt>
      <trkpt lat="44.73832" lon="6.84214">
        <ele>1897.8</ele>
        <time>2026-03-23T13:27:36Z</time>
      </trkpt>
      <trkpt lat="44.73832" lon="6.84214">
        <ele>1897.8</ele>
        <time>2026-03-23T13:27:37Z</time>
      </trkpt>
      <trkpt lat="44.73832" lon="6.84214">
        <ele>1897.8</ele>
        <time>2026-03-23T13:27:38Z</time>
      </trkpt>
      <trkpt lat="44.73832" lon="6.84213">
        <ele>1897.8</ele>
        <time>2026-03-23T13:27:39Z</time>
      </trkpt>
      <trkpt lat="44.73832" lon="6.84213">
        <ele>1897.8</ele>
        <time>2026-03-23T13:27:40Z</time>
      </trkpt>
      <trkpt lat="44.73832" lon="6.84213">
        <ele>1897.8</ele>
        <time>2026-03-23T13:27:41Z</time>
      </trkpt>
      <trkpt lat="44.73833" lon="6.84213">
        <ele>1897.8</ele>
        <time>2026-03-23T13:27:42Z</time>
      </trkpt>
      <trkpt lat="44.73833" lon="6.84213">
        <ele>1897.8</ele>
        <time>2026-03-23T13:27:43Z</time>
      </trkpt>
      <trkpt lat="44.73833" lon="6.84213">
        <ele>1897.8</ele>
        <time>2026-03-23T13:27:44Z</time>
      </trkpt>
      <trkpt lat="44.73833" lon="6.84213">
        <ele>1897.8</ele>
        <time>2026-03-23T13:27:45Z</time>
      </trkpt>
      <trkpt lat="44.73833" lon="6.84213">
        <ele>1897.8</ele>
        <time>2026-03-23T13:27:46Z</time>
      </trkpt>
      <trkpt lat="44.73833" lon="6.84213">
        <ele>1897.8</ele>
        <time>2026-03-23T13:27:47Z</time>
      </trkpt>
      <trkpt lat="44.73833" lon="6.84213">
        <ele>1897.8</ele>
        <time>2026-03-23T13:27:48Z</time>
      </trkpt>
      <trkpt lat="44.73833" lon="6.84213">
        <ele>1897.8</ele>
        <time>2026-03-23T13:27:49Z</time>
      </trkpt>
      <trkpt lat="44.73833" lon="6.84213">
        <ele>1897.8</ele>
        <time>2026-03-23T13:27:50Z</time>
      </trkpt>
      <trkpt lat="44.73833" lon="6.84213">
        <ele>1897.8</ele>
        <time>2026-03-23T13:27:51Z</time>
      </trkpt>
      <trkpt lat="44.73833" lon="6.84213">
        <ele>1897.8</ele>
        <time>2026-03-23T13:27:52Z</time>
      </trkpt>
      <trkpt lat="44.73833" lon="6.84213">
        <ele>1897.8</ele>
        <time>2026-03-23T13:27:53Z</time>
      </trkpt>
      <trkpt lat="44.73833" lon="6.84213">
        <ele>1897.8</ele>
        <time>2026-03-23T13:27:54Z</time>
      </trkpt>
      <trkpt lat="44.73833" lon="6.84213">
        <ele>1897.8</ele>
        <time>2026-03-23T13:27:55Z</time>
      </trkpt>
      <trkpt lat="44.73833" lon="6.84213">
        <ele>1897.8</ele>
        <time>2026-03-23T13:27:56Z</time>
      </trkpt>
      <trkpt lat="44.73833" lon="6.84213">
        <ele>1897.8</ele>
        <time>2026-03-23T13:27:57Z</time>
      </trkpt>
      <trkpt lat="44.73833" lon="6.84213">
        <ele>1897.8</ele>
        <time>2026-03-23T13:27:58Z</time>
      </trkpt>
      <trkpt lat="44.73833" lon="6.84213">
        <ele>1897.8</ele>
        <time>2026-03-23T13:27:59Z</time>
      </trkpt>
      <trkpt lat="44.73833" lon="6.84213">
        <ele>1897.8</ele>
        <time>2026-03-23T13:28:00Z</time>
      </trkpt>
      <trkpt lat="44.73833" lon="6.84213">
        <ele>1897.8</ele>
        <time>2026-03-23T13:28:01Z</time>
      </trkpt>
      <trkpt lat="44.73833" lon="6.84213">
        <ele>1897.8</ele>
        <time>2026-03-23T13:28:02Z</time>
      </trkpt>
      <trkpt lat="44.73833" lon="6.84213">
        <ele>1897.8</ele>
        <time>2026-03-23T13:28:03Z</time>
      </trkpt>
      <trkpt lat="44.73833" lon="6.84213">
        <ele>1897.8</ele>
        <time>2026-03-23T13:28:04Z</time>
      </trkpt>
      <trkpt lat="44.73833" lon="6.84213">
        <ele>1897.8</ele>
        <time>2026-03-23T13:28:05Z</time>
      </trkpt>
      <trkpt lat="44.73833" lon="6.84213">
        <ele>1897.8</ele>
        <time>2026-03-23T13:28:06Z</time>
      </trkpt>
      <trkpt lat="44.73833" lon="6.84213">
        <ele>1897.8</ele>
        <time>2026-03-23T13:28:07Z</time>
      </trkpt>
      <trkpt lat="44.73833" lon="6.84213">
        <ele>1897.8</ele>
        <time>2026-03-23T13:28:08Z</time>
      </trkpt>
      <trkpt lat="44.73833" lon="6.84213">
        <ele>1897.8</ele>
        <time>2026-03-23T13:28:09Z</time>
      </trkpt>
      <trkpt lat="44.73833" lon="6.84213">
        <ele>1897.8</ele>
        <time>2026-03-23T13:28:10Z</time>
      </trkpt>
      <trkpt lat="44.73833" lon="6.84213">
        <ele>1897.8</ele>
        <time>2026-03-23T13:28:11Z</time>
      </trkpt>
      <trkpt lat="44.73833" lon="6.84213">
        <ele>1897.8</ele>
        <time>2026-03-23T13:28:12Z</time>
      </trkpt>
      <trkpt lat="44.73833" lon="6.84213">
        <ele>1897.8</ele>
        <time>2026-03-23T13:28:13Z</time>
      </trkpt>
      <trkpt lat="44.73833" lon="6.84213">
        <ele>1897.8</ele>
        <time>2026-03-23T13:28:14Z</time>
      </trkpt>
      <trkpt lat="44.73833" lon="6.84213">
        <ele>1897.8</ele>
        <time>2026-03-23T13:28:15Z</time>
      </trkpt>
      <trkpt lat="44.73833" lon="6.84213">
        <ele>1897.8</ele>
        <time>2026-03-23T13:28:16Z</time>
      </trkpt>
      <trkpt lat="44.73833" lon="6.84213">
        <ele>1897.8</ele>
        <time>2026-03-23T13:28:17Z</time>
      </trkpt>
      <trkpt lat="44.73833" lon="6.84213">
        <ele>1897.8</ele>
        <time>2026-03-23T13:28:18Z</time>
      </trkpt>
      <trkpt lat="44.73833" lon="6.84213">
        <ele>1897.8</ele>
        <time>2026-03-23T13:28:19Z</time>
      </trkpt>
      <trkpt lat="44.73833" lon="6.84213">
        <ele>1897.8</ele>
        <time>2026-03-23T13:28:20Z</time>
      </trkpt>
      <trkpt lat="44.73833" lon="6.84213">
        <ele>1897.8</ele>
        <time>2026-03-23T13:28:21Z</time>
      </trkpt>
      <trkpt lat="44.73833" lon="6.84213">
        <ele>1897.8</ele>
        <time>2026-03-23T13:28:22Z</time>
      </trkpt>
      <trkpt lat="44.73833" lon="6.84213">
        <ele>1897.8</ele>
        <time>2026-03-23T13:28:23Z</time>
      </trkpt>
      <trkpt lat="44.73833" lon="6.84213">
        <ele>1897.8</ele>
        <time>2026-03-23T13:28:24Z</time>
      </trkpt>
      <trkpt lat="44.73833" lon="6.84213">
        <ele>1897.8</ele>
        <time>2026-03-23T13:28:25Z</time>
      </trkpt>
      <trkpt lat="44.73833" lon="6.84213">
        <ele>1897.8</ele>
        <time>2026-03-23T13:28:26Z</time>
      </trkpt>
      <trkpt lat="44.73833" lon="6.84213">
        <ele>1897.8</ele>
        <time>2026-03-23T13:28:27Z</time>
      </trkpt>
      <trkpt lat="44.73833" lon="6.84213">
        <ele>1897.8</ele>
        <time>2026-03-23T13:28:28Z</time>
      </trkpt>
      <trkpt lat="44.73833" lon="6.84213">
        <ele>1897.9</ele>
        <time>2026-03-23T13:28:29Z</time>
      </trkpt>
      <trkpt lat="44.73833" lon="6.84213">
        <ele>1897.9</ele>
        <time>2026-03-23T13:28:30Z</time>
      </trkpt>
      <trkpt lat="44.73833" lon="6.84213">
        <ele>1897.9</ele>
        <time>2026-03-23T13:28:31Z</time>
      </trkpt>
      <trkpt lat="44.73833" lon="6.84213">
        <ele>1897.9</ele>
        <time>2026-03-23T13:28:32Z</time>
      </trkpt>
      <trkpt lat="44.73833" lon="6.84213">
        <ele>1897.9</ele>
        <time>2026-03-23T13:28:33Z</time>
      </trkpt>
      <trkpt lat="44.73833" lon="6.84213">
        <ele>1897.9</ele>
        <time>2026-03-23T13:28:34Z</time>
      </trkpt>
      <trkpt lat="44.73833" lon="6.84213">
        <ele>1897.9</ele>
        <time>2026-03-23T13:28:35Z</time>
      </trkpt>
      <trkpt lat="44.73833" lon="6.84213">
        <ele>1897.9</ele>
        <time>2026-03-23T13:28:36Z</time>
      </trkpt>
      <trkpt lat="44.73833" lon="6.84213">
        <ele>1897.9</ele>
        <time>2026-03-23T13:28:37Z</time>
      </trkpt>
      <trkpt lat="44.73833" lon="6.84213">
        <ele>1897.9</ele>
        <time>2026-03-23T13:28:38Z</time>
      </trkpt>
      <trkpt lat="44.73833" lon="6.84213">
        <ele>1897.9</ele>
        <time>2026-03-23T13:28:39Z</time>
      </trkpt>
      <trkpt lat="44.73833" lon="6.84213">
        <ele>1897.9</ele>
        <time>2026-03-23T13:28:40Z</time>
      </trkpt>
      <trkpt lat="44.73833" lon="6.84213">
        <ele>1897.9</ele>
        <time>2026-03-23T13:28:41Z</time>
      </trkpt>
      <trkpt lat="44.73833" lon="6.84213">
        <ele>1897.9</ele>
        <time>2026-03-23T13:28:42Z</time>
      </trkpt>
      <trkpt lat="44.73833" lon="6.84213">
        <ele>1897.9</ele>
        <time>2026-03-23T13:28:43Z</time>
      </trkpt>
      <trkpt lat="44.73834" lon="6.84211">
        <ele>1896.5</ele>
        <time>2026-03-23T13:28:44Z</time>
      </trkpt>
      <trkpt lat="44.73834" lon="6.84208">
        <ele>1896.5</ele>
        <time>2026-03-23T13:28:45Z</time>
      </trkpt>
      <trkpt lat="44.73834" lon="6.84203">
        <ele>1893.7</ele>
        <time>2026-03-23T13:28:46Z</time>
      </trkpt>
      <trkpt lat="44.73835" lon="6.84198">
        <ele>1892.5</ele>
        <time>2026-03-23T13:28:47Z</time>
      </trkpt>
      <trkpt lat="44.73835" lon="6.84194">
        <ele>1891</ele>
        <time>2026-03-23T13:28:48Z</time>
      </trkpt>
      <trkpt lat="44.73835" lon="6.84192">
        <ele>1890.7</ele>
        <time>2026-03-23T13:28:49Z</time>
      </trkpt>
      <trkpt lat="44.73837" lon="6.84188">
        <ele>1889.5</ele>
        <time>2026-03-23T13:28:50Z</time>
      </trkpt>
      <trkpt lat="44.73839" lon="6.84186">
        <ele>1888.2</ele>
        <time>2026-03-23T13:28:51Z</time>
      </trkpt>
      <trkpt lat="44.73839" lon="6.84185">
        <ele>1888.2</ele>
        <time>2026-03-23T13:28:52Z</time>
      </trkpt>
      <trkpt lat="44.73842" lon="6.84182">
        <ele>1887</ele>
        <time>2026-03-23T13:28:53Z</time>
      </trkpt>
      <trkpt lat="44.73843" lon="6.84181">
        <ele>1887</ele>
        <time>2026-03-23T13:28:54Z</time>
      </trkpt>
      <trkpt lat="44.73843" lon="6.84181">
        <ele>1887</ele>
        <time>2026-03-23T13:28:55Z</time>
      </trkpt>
      <trkpt lat="44.73844" lon="6.84181">
        <ele>1887</ele>
        <time>2026-03-23T13:28:56Z</time>
      </trkpt>
      <trkpt lat="44.73844" lon="6.8418">
        <ele>1887</ele>
        <time>2026-03-23T13:28:57Z</time>
      </trkpt>
      <trkpt lat="44.73844" lon="6.8418">
        <ele>1887</ele>
        <time>2026-03-23T13:28:58Z</time>
      </trkpt>
      <trkpt lat="44.73844" lon="6.8418">
        <ele>1887</ele>
        <time>2026-03-23T13:28:59Z</time>
      </trkpt>
      <trkpt lat="44.73845" lon="6.84181">
        <ele>1887.3</ele>
        <time>2026-03-23T13:29:00Z</time>
      </trkpt>
      <trkpt lat="44.73845" lon="6.8418">
        <ele>1887.3</ele>
        <time>2026-03-23T13:29:01Z</time>
      </trkpt>
      <trkpt lat="44.73845" lon="6.8418">
        <ele>1887.3</ele>
        <time>2026-03-23T13:29:02Z</time>
      </trkpt>
      <trkpt lat="44.73845" lon="6.8418">
        <ele>1887.3</ele>
        <time>2026-03-23T13:29:03Z</time>
      </trkpt>
      <trkpt lat="44.73845" lon="6.8418">
        <ele>1887.3</ele>
        <time>2026-03-23T13:29:04Z</time>
      </trkpt>
      <trkpt lat="44.73845" lon="6.84179">
        <ele>1887.3</ele>
        <time>2026-03-23T13:29:05Z</time>
      </trkpt>
      <trkpt lat="44.73845" lon="6.84179">
        <ele>1887.3</ele>
        <time>2026-03-23T13:29:06Z</time>
      </trkpt>
      <trkpt lat="44.73845" lon="6.84179">
        <ele>1887.3</ele>
        <time>2026-03-23T13:29:07Z</time>
      </trkpt>
      <trkpt lat="44.73845" lon="6.84179">
        <ele>1887.3</ele>
        <time>2026-03-23T13:29:08Z</time>
      </trkpt>
      <trkpt lat="44.73845" lon="6.84179">
        <ele>1887.3</ele>
        <time>2026-03-23T13:29:09Z</time>
      </trkpt>
      <trkpt lat="44.73845" lon="6.84179">
        <ele>1887.3</ele>
        <time>2026-03-23T13:29:10Z</time>
      </trkpt>
      <trkpt lat="44.73845" lon="6.84178">
        <ele>1887.3</ele>
        <time>2026-03-23T13:29:11Z</time>
      </trkpt>
      <trkpt lat="44.73846" lon="6.84178">
        <ele>1887.3</ele>
        <time>2026-03-23T13:29:12Z</time>
      </trkpt>
      <trkpt lat="44.73846" lon="6.84178">
        <ele>1887.3</ele>
        <time>2026-03-23T13:29:13Z</time>
      </trkpt>
      <trkpt lat="44.73846" lon="6.84178">
        <ele>1887.3</ele>
        <time>2026-03-23T13:29:14Z</time>
      </trkpt>
      <trkpt lat="44.73846" lon="6.84178">
        <ele>1885.9</ele>
        <time>2026-03-23T13:29:15Z</time>
      </trkpt>
      <trkpt lat="44.73846" lon="6.84178">
        <ele>1887.3</ele>
        <time>2026-03-23T13:29:16Z</time>
      </trkpt>
      <trkpt lat="44.73847" lon="6.84178">
        <ele>1885.9</ele>
        <time>2026-03-23T13:29:17Z</time>
      </trkpt>
      <trkpt lat="44.73847" lon="6.84178">
        <ele>1885.9</ele>
        <time>2026-03-23T13:29:18Z</time>
      </trkpt>
      <trkpt lat="44.73847" lon="6.84178">
        <ele>1885.9</ele>
        <time>2026-03-23T13:29:19Z</time>
      </trkpt>
      <trkpt lat="44.73847" lon="6.84177">
        <ele>1885.9</ele>
        <time>2026-03-23T13:29:20Z</time>
      </trkpt>
      <trkpt lat="44.73847" lon="6.84177">
        <ele>1886</ele>
        <time>2026-03-23T13:29:21Z</time>
      </trkpt>
      <trkpt lat="44.73847" lon="6.84177">
        <ele>1886</ele>
        <time>2026-03-23T13:29:22Z</time>
      </trkpt>
      <trkpt lat="44.73847" lon="6.84177">
        <ele>1886</ele>
        <time>2026-03-23T13:29:23Z</time>
      </trkpt>
      <trkpt lat="44.73847" lon="6.84177">
        <ele>1886</ele>
        <time>2026-03-23T13:29:24Z</time>
      </trkpt>
      <trkpt lat="44.73847" lon="6.84177">
        <ele>1886.2</ele>
        <time>2026-03-23T13:29:25Z</time>
      </trkpt>
      <trkpt lat="44.73847" lon="6.84177">
        <ele>1886.2</ele>
        <time>2026-03-23T13:29:26Z</time>
      </trkpt>
      <trkpt lat="44.73847" lon="6.84177">
        <ele>1886.3</ele>
        <time>2026-03-23T13:29:27Z</time>
      </trkpt>
      <trkpt lat="44.73847" lon="6.84177">
        <ele>1886.3</ele>
        <time>2026-03-23T13:29:28Z</time>
      </trkpt>
      <trkpt lat="44.73848" lon="6.84177">
        <ele>1886.3</ele>
        <time>2026-03-23T13:29:29Z</time>
      </trkpt>
      <trkpt lat="44.73848" lon="6.84177">
        <ele>1886.3</ele>
        <time>2026-03-23T13:29:30Z</time>
      </trkpt>
      <trkpt lat="44.73848" lon="6.84177">
        <ele>1886.3</ele>
        <time>2026-03-23T13:29:31Z</time>
      </trkpt>
      <trkpt lat="44.73849" lon="6.84176">
        <ele>1886.3</ele>
        <time>2026-03-23T13:29:32Z</time>
      </trkpt>
      <trkpt lat="44.7385" lon="6.84175">
        <ele>1886.3</ele>
        <time>2026-03-23T13:29:33Z</time>
      </trkpt>
      <trkpt lat="44.7385" lon="6.84175">
        <ele>1886.3</ele>
        <time>2026-03-23T13:29:34Z</time>
      </trkpt>
      <trkpt lat="44.7385" lon="6.84175">
        <ele>1886.3</ele>
        <time>2026-03-23T13:29:35Z</time>
      </trkpt>
      <trkpt lat="44.7385" lon="6.84175">
        <ele>1886.3</ele>
        <time>2026-03-23T13:29:36Z</time>
      </trkpt>
      <trkpt lat="44.7385" lon="6.84175">
        <ele>1886.3</ele>
        <time>2026-03-23T13:29:37Z</time>
      </trkpt>
      <trkpt lat="44.7385" lon="6.84175">
        <ele>1886.3</ele>
        <time>2026-03-23T13:29:38Z</time>
      </trkpt>
      <trkpt lat="44.7385" lon="6.84175">
        <ele>1886.3</ele>
        <time>2026-03-23T13:29:39Z</time>
      </trkpt>
      <trkpt lat="44.7385" lon="6.84175">
        <ele>1886.3</ele>
        <time>2026-03-23T13:29:40Z</time>
      </trkpt>
      <trkpt lat="44.7385" lon="6.84175">
        <ele>1886.3</ele>
        <time>2026-03-23T13:29:41Z</time>
      </trkpt>
      <trkpt lat="44.7385" lon="6.84175">
        <ele>1886.3</ele>
        <time>2026-03-23T13:29:42Z</time>
      </trkpt>
      <trkpt lat="44.7385" lon="6.84175">
        <ele>1886.3</ele>
        <time>2026-03-23T13:29:43Z</time>
      </trkpt>
      <trkpt lat="44.7385" lon="6.84175">
        <ele>1886.3</ele>
        <time>2026-03-23T13:29:44Z</time>
      </trkpt>
      <trkpt lat="44.7385" lon="6.84175">
        <ele>1886.3</ele>
        <time>2026-03-23T13:29:45Z</time>
      </trkpt>
      <trkpt lat="44.7385" lon="6.84175">
        <ele>1886.3</ele>
        <time>2026-03-23T13:29:46Z</time>
      </trkpt>
      <trkpt lat="44.7385" lon="6.84175">
        <ele>1886.3</ele>
        <time>2026-03-23T13:29:47Z</time>
      </trkpt>
      <trkpt lat="44.7385" lon="6.84175">
        <ele>1886.3</ele>
        <time>2026-03-23T13:29:48Z</time>
      </trkpt>
      <trkpt lat="44.7385" lon="6.84175">
        <ele>1886.3</ele>
        <time>2026-03-23T13:29:49Z</time>
      </trkpt>
      <trkpt lat="44.7385" lon="6.84175">
        <ele>1886.3</ele>
        <time>2026-03-23T13:29:50Z</time>
      </trkpt>
      <trkpt lat="44.7385" lon="6.84175">
        <ele>1886.3</ele>
        <time>2026-03-23T13:29:51Z</time>
      </trkpt>
      <trkpt lat="44.7385" lon="6.84175">
        <ele>1886.3</ele>
        <time>2026-03-23T13:29:52Z</time>
      </trkpt>
      <trkpt lat="44.7385" lon="6.84175">
        <ele>1886.3</ele>
        <time>2026-03-23T13:29:53Z</time>
      </trkpt>
      <trkpt lat="44.7385" lon="6.84175">
        <ele>1886.3</ele>
        <time>2026-03-23T13:29:54Z</time>
      </trkpt>
      <trkpt lat="44.7385" lon="6.84175">
        <ele>1886.3</ele>
        <time>2026-03-23T13:29:55Z</time>
      </trkpt>
      <trkpt lat="44.7385" lon="6.84175">
        <ele>1886.3</ele>
        <time>2026-03-23T13:29:56Z</time>
      </trkpt>
      <trkpt lat="44.7385" lon="6.84175">
        <ele>1886.3</ele>
        <time>2026-03-23T13:29:57Z</time>
      </trkpt>
      <trkpt lat="44.7385" lon="6.84175">
        <ele>1886.3</ele>
        <time>2026-03-23T13:29:58Z</time>
      </trkpt>
      <trkpt lat="44.7385" lon="6.84175">
        <ele>1886.3</ele>
        <time>2026-03-23T13:29:59Z</time>
      </trkpt>
      <trkpt lat="44.7385" lon="6.84175">
        <ele>1886.3</ele>
        <time>2026-03-23T13:30:00Z</time>
      </trkpt>
      <trkpt lat="44.7385" lon="6.84175">
        <ele>1886.3</ele>
        <time>2026-03-23T13:30:01Z</time>
      </trkpt>
      <trkpt lat="44.7385" lon="6.84175">
        <ele>1886.3</ele>
        <time>2026-03-23T13:30:02Z</time>
      </trkpt>
      <trkpt lat="44.7385" lon="6.84175">
        <ele>1886.3</ele>
        <time>2026-03-23T13:30:03Z</time>
      </trkpt>
      <trkpt lat="44.7385" lon="6.84175">
        <ele>1886.3</ele>
        <time>2026-03-23T13:30:04Z</time>
      </trkpt>
      <trkpt lat="44.7385" lon="6.84175">
        <ele>1886.3</ele>
        <time>2026-03-23T13:30:05Z</time>
      </trkpt>
      <trkpt lat="44.7385" lon="6.84175">
        <ele>1886.3</ele>
        <time>2026-03-23T13:30:06Z</time>
      </trkpt>
      <trkpt lat="44.7385" lon="6.84175">
        <ele>1886.3</ele>
        <time>2026-03-23T13:30:07Z</time>
      </trkpt>
      <trkpt lat="44.7385" lon="6.84175">
        <ele>1886.3</ele>
        <time>2026-03-23T13:30:08Z</time>
      </trkpt>
      <trkpt lat="44.7385" lon="6.84175">
        <ele>1886.3</ele>
        <time>2026-03-23T13:30:09Z</time>
      </trkpt>
      <trkpt lat="44.7385" lon="6.84175">
        <ele>1886.3</ele>
        <time>2026-03-23T13:30:10Z</time>
      </trkpt>
      <trkpt lat="44.7385" lon="6.84175">
        <ele>1886.3</ele>
        <time>2026-03-23T13:30:11Z</time>
      </trkpt>
      <trkpt lat="44.7385" lon="6.84175">
        <ele>1886.3</ele>
        <time>2026-03-23T13:30:12Z</time>
      </trkpt>
      <trkpt lat="44.7385" lon="6.84175">
        <ele>1886.3</ele>
        <time>2026-03-23T13:30:13Z</time>
      </trkpt>
      <trkpt lat="44.7385" lon="6.84175">
        <ele>1886.3</ele>
        <time>2026-03-23T13:30:14Z</time>
      </trkpt>
      <trkpt lat="44.7385" lon="6.84175">
        <ele>1886.3</ele>
        <time>2026-03-23T13:30:15Z</time>
      </trkpt>
      <trkpt lat="44.7385" lon="6.84175">
        <ele>1886.3</ele>
        <time>2026-03-23T13:30:16Z</time>
      </trkpt>
      <trkpt lat="44.7385" lon="6.84175">
        <ele>1886.3</ele>
        <time>2026-03-23T13:30:17Z</time>
      </trkpt>
      <trkpt lat="44.7385" lon="6.84175">
        <ele>1886.3</ele>
        <time>2026-03-23T13:30:18Z</time>
      </trkpt>
      <trkpt lat="44.7385" lon="6.84175">
        <ele>1886.3</ele>
        <time>2026-03-23T13:30:19Z</time>
      </trkpt>
      <trkpt lat="44.7385" lon="6.84175">
        <ele>1886.3</ele>
        <time>2026-03-23T13:30:20Z</time>
      </trkpt>
      <trkpt lat="44.7385" lon="6.84175">
        <ele>1886.3</ele>
        <time>2026-03-23T13:30:21Z</time>
      </trkpt>
      <trkpt lat="44.7385" lon="6.84175">
        <ele>1886.3</ele>
        <time>2026-03-23T13:30:22Z</time>
      </trkpt>
      <trkpt lat="44.7385" lon="6.84174">
        <ele>1886.3</ele>
        <time>2026-03-23T13:30:23Z</time>
      </trkpt>
      <trkpt lat="44.7385" lon="6.84174">
        <ele>1886.7</ele>
        <time>2026-03-23T13:30:24Z</time>
      </trkpt>
      <trkpt lat="44.73851" lon="6.84174">
        <ele>1886.7</ele>
        <time>2026-03-23T13:30:25Z</time>
      </trkpt>
      <trkpt lat="44.73852" lon="6.84174">
        <ele>1886.7</ele>
        <time>2026-03-23T13:30:26Z</time>
      </trkpt>
      <trkpt lat="44.73853" lon="6.84173">
        <ele>1885.3</ele>
        <time>2026-03-23T13:30:27Z</time>
      </trkpt>
      <trkpt lat="44.73854" lon="6.84173">
        <ele>1885.7</ele>
        <time>2026-03-23T13:30:28Z</time>
      </trkpt>
      <trkpt lat="44.73855" lon="6.84172">
        <ele>1885.7</ele>
        <time>2026-03-23T13:30:29Z</time>
      </trkpt>
      <trkpt lat="44.73856" lon="6.84171">
        <ele>1885.7</ele>
        <time>2026-03-23T13:30:30Z</time>
      </trkpt>
      <trkpt lat="44.73858" lon="6.84168">
        <ele>1884.8</ele>
        <time>2026-03-23T13:30:31Z</time>
      </trkpt>
      <trkpt lat="44.73859" lon="6.84166">
        <ele>1884.8</ele>
        <time>2026-03-23T13:30:32Z</time>
      </trkpt>
      <trkpt lat="44.73862" lon="6.84163">
        <ele>1884</ele>
        <time>2026-03-23T13:30:33Z</time>
      </trkpt>
      <trkpt lat="44.73864" lon="6.84161">
        <ele>1883.2</ele>
        <time>2026-03-23T13:30:34Z</time>
      </trkpt>
      <trkpt lat="44.73865" lon="6.8416">
        <ele>1883.2</ele>
        <time>2026-03-23T13:30:35Z</time>
      </trkpt>
      <trkpt lat="44.73859" lon="6.84156">
        <ele>1881.2</ele>
        <time>2026-03-23T13:30:36Z</time>
      </trkpt>
      <trkpt lat="44.73856" lon="6.84155">
        <ele>1880.8</ele>
        <time>2026-03-23T13:30:37Z</time>
      </trkpt>
      <trkpt lat="44.73853" lon="6.84152">
        <ele>1879.3</ele>
        <time>2026-03-23T13:30:38Z</time>
      </trkpt>
      <trkpt lat="44.73852" lon="6.84147">
        <ele>1878</ele>
        <time>2026-03-23T13:30:39Z</time>
      </trkpt>
      <trkpt lat="44.73855" lon="6.84142">
        <ele>1877.1</ele>
        <time>2026-03-23T13:30:40Z</time>
      </trkpt>
      <trkpt lat="44.73858" lon="6.84139">
        <ele>1876.3</ele>
        <time>2026-03-23T13:30:41Z</time>
      </trkpt>
      <trkpt lat="44.73861" lon="6.84136">
        <ele>1876.8</ele>
        <time>2026-03-23T13:30:42Z</time>
      </trkpt>
      <trkpt lat="44.73864" lon="6.84133">
        <ele>1876.1</ele>
        <time>2026-03-23T13:30:43Z</time>
      </trkpt>
      <trkpt lat="44.73866" lon="6.8413">
        <ele>1875.5</ele>
        <time>2026-03-23T13:30:44Z</time>
      </trkpt>
      <trkpt lat="44.73869" lon="6.84126">
        <ele>1874.9</ele>
        <time>2026-03-23T13:30:45Z</time>
      </trkpt>
      <trkpt lat="44.73871" lon="6.84123">
        <ele>1874.9</ele>
        <time>2026-03-23T13:30:46Z</time>
      </trkpt>
      <trkpt lat="44.73874" lon="6.84119">
        <ele>1874.4</ele>
        <time>2026-03-23T13:30:47Z</time>
      </trkpt>
      <trkpt lat="44.73876" lon="6.84115">
        <ele>1873.8</ele>
        <time>2026-03-23T13:30:48Z</time>
      </trkpt>
      <trkpt lat="44.73878" lon="6.8411">
        <ele>1873.2</ele>
        <time>2026-03-23T13:30:49Z</time>
      </trkpt>
      <trkpt lat="44.7388" lon="6.84107">
        <ele>1872.1</ele>
        <time>2026-03-23T13:30:50Z</time>
      </trkpt>
      <trkpt lat="44.7388" lon="6.84106">
        <ele>1872.1</ele>
        <time>2026-03-23T13:30:51Z</time>
      </trkpt>
      <trkpt lat="44.73882" lon="6.84101">
        <ele>1870.3</ele>
        <time>2026-03-23T13:30:52Z</time>
      </trkpt>
      <trkpt lat="44.73884" lon="6.84096">
        <ele>1870.7</ele>
        <time>2026-03-23T13:30:53Z</time>
      </trkpt>
      <trkpt lat="44.73886" lon="6.84093">
        <ele>1869.6</ele>
        <time>2026-03-23T13:30:54Z</time>
      </trkpt>
      <trkpt lat="44.73887" lon="6.84092">
        <ele>1870</ele>
        <time>2026-03-23T13:30:55Z</time>
      </trkpt>
      <trkpt lat="44.73889" lon="6.84091">
        <ele>1868.9</ele>
        <time>2026-03-23T13:30:56Z</time>
      </trkpt>
      <trkpt lat="44.7389" lon="6.84091">
        <ele>1868.9</ele>
        <time>2026-03-23T13:30:57Z</time>
      </trkpt>
      <trkpt lat="44.7389" lon="6.8409">
        <ele>1869.3</ele>
        <time>2026-03-23T13:30:58Z</time>
      </trkpt>
      <trkpt lat="44.73892" lon="6.84089">
        <ele>1869.3</ele>
        <time>2026-03-23T13:30:59Z</time>
      </trkpt>
      <trkpt lat="44.73893" lon="6.84087">
        <ele>1868.2</ele>
        <time>2026-03-23T13:31:00Z</time>
      </trkpt>
      <trkpt lat="44.73894" lon="6.84086">
        <ele>1868.9</ele>
        <time>2026-03-23T13:31:01Z</time>
      </trkpt>
      <trkpt lat="44.73895" lon="6.84085">
        <ele>1868.9</ele>
        <time>2026-03-23T13:31:02Z</time>
      </trkpt>
      <trkpt lat="44.73898" lon="6.84084">
        <ele>1869.3</ele>
        <time>2026-03-23T13:31:03Z</time>
      </trkpt>
      <trkpt lat="44.73899" lon="6.84084">
        <ele>1869.7</ele>
        <time>2026-03-23T13:31:04Z</time>
      </trkpt>
      <trkpt lat="44.73902" lon="6.84081">
        <ele>1868.7</ele>
        <time>2026-03-23T13:31:05Z</time>
      </trkpt>
      <trkpt lat="44.73905" lon="6.84078">
        <ele>1868.1</ele>
        <time>2026-03-23T13:31:06Z</time>
      </trkpt>
      <trkpt lat="44.73906" lon="6.84077">
        <ele>1868.4</ele>
        <time>2026-03-23T13:31:07Z</time>
      </trkpt>
      <trkpt lat="44.73909" lon="6.84073">
        <ele>1867.9</ele>
        <time>2026-03-23T13:31:08Z</time>
      </trkpt>
      <trkpt lat="44.7391" lon="6.84072">
        <ele>1867.9</ele>
        <time>2026-03-23T13:31:09Z</time>
      </trkpt>
      <trkpt lat="44.73911" lon="6.84068">
        <ele>1867.3</ele>
        <time>2026-03-23T13:31:10Z</time>
      </trkpt>
      <trkpt lat="44.73912" lon="6.84067">
        <ele>1867.3</ele>
        <time>2026-03-23T13:31:11Z</time>
      </trkpt>
      <trkpt lat="44.73912" lon="6.84066">
        <ele>1866.3</ele>
        <time>2026-03-23T13:31:12Z</time>
      </trkpt>
      <trkpt lat="44.73912" lon="6.84065">
        <ele>1866.3</ele>
        <time>2026-03-23T13:31:13Z</time>
      </trkpt>
      <trkpt lat="44.73913" lon="6.84063">
        <ele>1866.3</ele>
        <time>2026-03-23T13:31:14Z</time>
      </trkpt>
      <trkpt lat="44.73916" lon="6.84061">
        <ele>1865.6</ele>
        <time>2026-03-23T13:31:15Z</time>
      </trkpt>
      <trkpt lat="44.73918" lon="6.8406">
        <ele>1865.9</ele>
        <time>2026-03-23T13:31:16Z</time>
      </trkpt>
      <trkpt lat="44.7392" lon="6.84059">
        <ele>1865.9</ele>
        <time>2026-03-23T13:31:17Z</time>
      </trkpt>
      <trkpt lat="44.73923" lon="6.84057">
        <ele>1865.1</ele>
        <time>2026-03-23T13:31:18Z</time>
      </trkpt>
      <trkpt lat="44.73924" lon="6.84056">
        <ele>1865.4</ele>
        <time>2026-03-23T13:31:19Z</time>
      </trkpt>
      <trkpt lat="44.73925" lon="6.84055">
        <ele>1865.4</ele>
        <time>2026-03-23T13:31:20Z</time>
      </trkpt>
      <trkpt lat="44.73925" lon="6.84055">
        <ele>1865.4</ele>
        <time>2026-03-23T13:31:21Z</time>
      </trkpt>
      <trkpt lat="44.73926" lon="6.84054">
        <ele>1865.4</ele>
        <time>2026-03-23T13:31:22Z</time>
      </trkpt>
      <trkpt lat="44.73926" lon="6.84053">
        <ele>1864.2</ele>
        <time>2026-03-23T13:31:23Z</time>
      </trkpt>
      <trkpt lat="44.73927" lon="6.84052">
        <ele>1864.4</ele>
        <time>2026-03-23T13:31:24Z</time>
      </trkpt>
      <trkpt lat="44.73928" lon="6.84051">
        <ele>1864.4</ele>
        <time>2026-03-23T13:31:25Z</time>
      </trkpt>
      <trkpt lat="44.73929" lon="6.84049">
        <ele>1863.2</ele>
        <time>2026-03-23T13:31:26Z</time>
      </trkpt>
      <trkpt lat="44.7393" lon="6.84048">
        <ele>1863.4</ele>
        <time>2026-03-23T13:31:27Z</time>
      </trkpt>
      <trkpt lat="44.73931" lon="6.84047">
        <ele>1863.4</ele>
        <time>2026-03-23T13:31:28Z</time>
      </trkpt>
      <trkpt lat="44.73932" lon="6.84046">
        <ele>1863.4</ele>
        <time>2026-03-23T13:31:29Z</time>
      </trkpt>
      <trkpt lat="44.73933" lon="6.84045">
        <ele>1862.3</ele>
        <time>2026-03-23T13:31:30Z</time>
      </trkpt>
      <trkpt lat="44.73933" lon="6.84045">
        <ele>1863.6</ele>
        <time>2026-03-23T13:31:31Z</time>
      </trkpt>
      <trkpt lat="44.73933" lon="6.84047">
        <ele>1863.4</ele>
        <time>2026-03-23T13:31:32Z</time>
      </trkpt>
      <trkpt lat="44.73932" lon="6.84047">
        <ele>1863.4</ele>
        <time>2026-03-23T13:31:33Z</time>
      </trkpt>
      <trkpt lat="44.73932" lon="6.84047">
        <ele>1863.4</ele>
        <time>2026-03-23T13:31:34Z</time>
      </trkpt>
      <trkpt lat="44.73932" lon="6.84047">
        <ele>1863.4</ele>
        <time>2026-03-23T13:31:35Z</time>
      </trkpt>
      <trkpt lat="44.73932" lon="6.84047">
        <ele>1863.4</ele>
        <time>2026-03-23T13:31:36Z</time>
      </trkpt>
      <trkpt lat="44.73932" lon="6.84047">
        <ele>1863.4</ele>
        <time>2026-03-23T13:31:37Z</time>
      </trkpt>
      <trkpt lat="44.73932" lon="6.84047">
        <ele>1863.4</ele>
        <time>2026-03-23T13:31:38Z</time>
      </trkpt>
      <trkpt lat="44.73931" lon="6.84047">
        <ele>1863.4</ele>
        <time>2026-03-23T13:31:39Z</time>
      </trkpt>
      <trkpt lat="44.73931" lon="6.84047">
        <ele>1863.4</ele>
        <time>2026-03-23T13:31:40Z</time>
      </trkpt>
      <trkpt lat="44.7393" lon="6.84048">
        <ele>1863.4</ele>
        <time>2026-03-23T13:31:41Z</time>
      </trkpt>
      <trkpt lat="44.7393" lon="6.84049">
        <ele>1863.4</ele>
        <time>2026-03-23T13:31:42Z</time>
      </trkpt>
      <trkpt lat="44.7393" lon="6.84049">
        <ele>1863.4</ele>
        <time>2026-03-23T13:31:43Z</time>
      </trkpt>
      <trkpt lat="44.7393" lon="6.8405">
        <ele>1864.6</ele>
        <time>2026-03-23T13:31:44Z</time>
      </trkpt>
      <trkpt lat="44.73929" lon="6.84051">
        <ele>1864.4</ele>
        <time>2026-03-23T13:31:45Z</time>
      </trkpt>
      <trkpt lat="44.73929" lon="6.84051">
        <ele>1864.4</ele>
        <time>2026-03-23T13:31:46Z</time>
      </trkpt>
      <trkpt lat="44.73929" lon="6.84052">
        <ele>1864.4</ele>
        <time>2026-03-23T13:31:47Z</time>
      </trkpt>
      <trkpt lat="44.73928" lon="6.84052">
        <ele>1864.4</ele>
        <time>2026-03-23T13:31:48Z</time>
      </trkpt>
      <trkpt lat="44.73928" lon="6.84053">
        <ele>1864.4</ele>
        <time>2026-03-23T13:31:49Z</time>
      </trkpt>
      <trkpt lat="44.73928" lon="6.84053">
        <ele>1864.4</ele>
        <time>2026-03-23T13:31:50Z</time>
      </trkpt>
      <trkpt lat="44.73927" lon="6.84053">
        <ele>1864.5</ele>
        <time>2026-03-23T13:31:51Z</time>
      </trkpt>
      <trkpt lat="44.73926" lon="6.84054">
        <ele>1865.4</ele>
        <time>2026-03-23T13:31:52Z</time>
      </trkpt>
      <trkpt lat="44.73926" lon="6.84055">
        <ele>1865.4</ele>
        <time>2026-03-23T13:31:53Z</time>
      </trkpt>
      <trkpt lat="44.73925" lon="6.84056">
        <ele>1865.4</ele>
        <time>2026-03-23T13:31:54Z</time>
      </trkpt>
      <trkpt lat="44.73924" lon="6.84057">
        <ele>1865.4</ele>
        <time>2026-03-23T13:31:55Z</time>
      </trkpt>
      <trkpt lat="44.73923" lon="6.84058">
        <ele>1865.2</ele>
        <time>2026-03-23T13:31:56Z</time>
      </trkpt>
      <trkpt lat="44.73922" lon="6.84058">
        <ele>1866.3</ele>
        <time>2026-03-23T13:31:57Z</time>
      </trkpt>
      <trkpt lat="44.73922" lon="6.84059">
        <ele>1866.3</ele>
        <time>2026-03-23T13:31:58Z</time>
      </trkpt>
      <trkpt lat="44.73921" lon="6.84059">
        <ele>1866.3</ele>
        <time>2026-03-23T13:31:59Z</time>
      </trkpt>
      <trkpt lat="44.7392" lon="6.84059">
        <ele>1866</ele>
        <time>2026-03-23T13:32:00Z</time>
      </trkpt>
      <trkpt lat="44.73919" lon="6.8406">
        <ele>1866</ele>
        <time>2026-03-23T13:32:01Z</time>
      </trkpt>
      <trkpt lat="44.73918" lon="6.8406">
        <ele>1866</ele>
        <time>2026-03-23T13:32:02Z</time>
      </trkpt>
      <trkpt lat="44.73917" lon="6.8406">
        <ele>1865.7</ele>
        <time>2026-03-23T13:32:03Z</time>
      </trkpt>
      <trkpt lat="44.73916" lon="6.84061">
        <ele>1865.7</ele>
        <time>2026-03-23T13:32:04Z</time>
      </trkpt>
      <trkpt lat="44.73914" lon="6.84061">
        <ele>1865.3</ele>
        <time>2026-03-23T13:32:05Z</time>
      </trkpt>
      <trkpt lat="44.73913" lon="6.8406">
        <ele>1865.3</ele>
        <time>2026-03-23T13:32:06Z</time>
      </trkpt>
      <trkpt lat="44.73911" lon="6.8406">
        <ele>1864.9</ele>
        <time>2026-03-23T13:32:07Z</time>
      </trkpt>
      <trkpt lat="44.7391" lon="6.8406">
        <ele>1864.9</ele>
        <time>2026-03-23T13:32:08Z</time>
      </trkpt>
      <trkpt lat="44.73909" lon="6.8406">
        <ele>1864.9</ele>
        <time>2026-03-23T13:32:09Z</time>
      </trkpt>
      <trkpt lat="44.73908" lon="6.84059">
        <ele>1864.9</ele>
        <time>2026-03-23T13:32:10Z</time>
      </trkpt>
      <trkpt lat="44.73908" lon="6.84058">
        <ele>1864.5</ele>
        <time>2026-03-23T13:32:11Z</time>
      </trkpt>
      <trkpt lat="44.73907" lon="6.84058">
        <ele>1863.4</ele>
        <time>2026-03-23T13:32:12Z</time>
      </trkpt>
      <trkpt lat="44.73906" lon="6.84057">
        <ele>1863.4</ele>
        <time>2026-03-23T13:32:13Z</time>
      </trkpt>
      <trkpt lat="44.73905" lon="6.84056">
        <ele>1863.4</ele>
        <time>2026-03-23T13:32:14Z</time>
      </trkpt>
      <trkpt lat="44.73905" lon="6.84055">
        <ele>1863</ele>
        <time>2026-03-23T13:32:15Z</time>
      </trkpt>
      <trkpt lat="44.73905" lon="6.84055">
        <ele>1863</ele>
        <time>2026-03-23T13:32:16Z</time>
      </trkpt>
      <trkpt lat="44.73905" lon="6.84054">
        <ele>1863</ele>
        <time>2026-03-23T13:32:17Z</time>
      </trkpt>
      <trkpt lat="44.73905" lon="6.84051">
        <ele>1861.8</ele>
        <time>2026-03-23T13:32:18Z</time>
      </trkpt>
      <trkpt lat="44.73906" lon="6.8405">
        <ele>1862.2</ele>
        <time>2026-03-23T13:32:19Z</time>
      </trkpt>
      <trkpt lat="44.73908" lon="6.84049">
        <ele>1862.2</ele>
        <time>2026-03-23T13:32:20Z</time>
      </trkpt>
      <trkpt lat="44.7391" lon="6.84048">
        <ele>1861.3</ele>
        <time>2026-03-23T13:32:21Z</time>
      </trkpt>
      <trkpt lat="44.73909" lon="6.84044">
        <ele>1860.2</ele>
        <time>2026-03-23T13:32:22Z</time>
      </trkpt>
      <trkpt lat="44.73909" lon="6.84042">
        <ele>1860.2</ele>
        <time>2026-03-23T13:32:23Z</time>
      </trkpt>
      <trkpt lat="44.73907" lon="6.84038">
        <ele>1858.7</ele>
        <time>2026-03-23T13:32:24Z</time>
      </trkpt>
      <trkpt lat="44.73906" lon="6.84037">
        <ele>1858.7</ele>
        <time>2026-03-23T13:32:25Z</time>
      </trkpt>
      <trkpt lat="44.73905" lon="6.84035">
        <ele>1857.3</ele>
        <time>2026-03-23T13:32:26Z</time>
      </trkpt>
      <trkpt lat="44.73904" lon="6.84033">
        <ele>1857.3</ele>
        <time>2026-03-23T13:32:27Z</time>
      </trkpt>
      <trkpt lat="44.73905" lon="6.84031">
        <ele>1856.3</ele>
        <time>2026-03-23T13:32:28Z</time>
      </trkpt>
      <trkpt lat="44.73905" lon="6.84031">
        <ele>1856.3</ele>
        <time>2026-03-23T13:32:29Z</time>
      </trkpt>
      <trkpt lat="44.73906" lon="6.8403">
        <ele>1856.6</ele>
        <time>2026-03-23T13:32:30Z</time>
      </trkpt>
      <trkpt lat="44.73906" lon="6.84029">
        <ele>1856.6</ele>
        <time>2026-03-23T13:32:31Z</time>
      </trkpt>
      <trkpt lat="44.73907" lon="6.84029">
        <ele>1856.6</ele>
        <time>2026-03-23T13:32:32Z</time>
      </trkpt>
      <trkpt lat="44.73909" lon="6.84029">
        <ele>1857</ele>
        <time>2026-03-23T13:32:33Z</time>
      </trkpt>
      <trkpt lat="44.7391" lon="6.84029">
        <ele>1857</ele>
        <time>2026-03-23T13:32:34Z</time>
      </trkpt>
      <trkpt lat="44.73911" lon="6.84029">
        <ele>1857</ele>
        <time>2026-03-23T13:32:35Z</time>
      </trkpt>
      <trkpt lat="44.73912" lon="6.84029">
        <ele>1857.3</ele>
        <time>2026-03-23T13:32:36Z</time>
      </trkpt>
      <trkpt lat="44.73912" lon="6.84029">
        <ele>1857.3</ele>
        <time>2026-03-23T13:32:37Z</time>
      </trkpt>
      <trkpt lat="44.73913" lon="6.84029">
        <ele>1857.3</ele>
        <time>2026-03-23T13:32:38Z</time>
      </trkpt>
      <trkpt lat="44.73913" lon="6.84029">
        <ele>1857.3</ele>
        <time>2026-03-23T13:32:39Z</time>
      </trkpt>
      <trkpt lat="44.73914" lon="6.84029">
        <ele>1857.3</ele>
        <time>2026-03-23T13:32:40Z</time>
      </trkpt>
      <trkpt lat="44.73914" lon="6.84028">
        <ele>1857.3</ele>
        <time>2026-03-23T13:32:41Z</time>
      </trkpt>
      <trkpt lat="44.73914" lon="6.84028">
        <ele>1857.3</ele>
        <time>2026-03-23T13:32:42Z</time>
      </trkpt>
      <trkpt lat="44.73914" lon="6.84028">
        <ele>1857.3</ele>
        <time>2026-03-23T13:32:43Z</time>
      </trkpt>
      <trkpt lat="44.73914" lon="6.84028">
        <ele>1857.3</ele>
        <time>2026-03-23T13:32:44Z</time>
      </trkpt>
      <trkpt lat="44.73914" lon="6.84029">
        <ele>1857.3</ele>
        <time>2026-03-23T13:32:45Z</time>
      </trkpt>
      <trkpt lat="44.73914" lon="6.8403">
        <ele>1857.3</ele>
        <time>2026-03-23T13:32:46Z</time>
      </trkpt>
      <trkpt lat="44.73914" lon="6.8403">
        <ele>1857.3</ele>
        <time>2026-03-23T13:32:47Z</time>
      </trkpt>
      <trkpt lat="44.73914" lon="6.8403">
        <ele>1857.3</ele>
        <time>2026-03-23T13:32:48Z</time>
      </trkpt>
      <trkpt lat="44.73914" lon="6.84029">
        <ele>1857.3</ele>
        <time>2026-03-23T13:32:49Z</time>
      </trkpt>
      <trkpt lat="44.73914" lon="6.84028">
        <ele>1857.3</ele>
        <time>2026-03-23T13:32:50Z</time>
      </trkpt>
      <trkpt lat="44.73914" lon="6.84028">
        <ele>1857.3</ele>
        <time>2026-03-23T13:32:51Z</time>
      </trkpt>
      <trkpt lat="44.73913" lon="6.84028">
        <ele>1857.3</ele>
        <time>2026-03-23T13:32:52Z</time>
      </trkpt>
      <trkpt lat="44.73912" lon="6.84028">
        <ele>1857.3</ele>
        <time>2026-03-23T13:32:53Z</time>
      </trkpt>
      <trkpt lat="44.73911" lon="6.84027">
        <ele>1856.3</ele>
        <time>2026-03-23T13:32:54Z</time>
      </trkpt>
      <trkpt lat="44.7391" lon="6.84027">
        <ele>1855.9</ele>
        <time>2026-03-23T13:32:55Z</time>
      </trkpt>
      <trkpt lat="44.7391" lon="6.84027">
        <ele>1855.9</ele>
        <time>2026-03-23T13:32:56Z</time>
      </trkpt>
      <trkpt lat="44.73909" lon="6.84027">
        <ele>1855.9</ele>
        <time>2026-03-23T13:32:57Z</time>
      </trkpt>
      <trkpt lat="44.73908" lon="6.84026">
        <ele>1855.9</ele>
        <time>2026-03-23T13:32:58Z</time>
      </trkpt>
      <trkpt lat="44.73908" lon="6.84025">
        <ele>1855.6</ele>
        <time>2026-03-23T13:32:59Z</time>
      </trkpt>
      <trkpt lat="44.73907" lon="6.84024">
        <ele>1855.6</ele>
        <time>2026-03-23T13:33:00Z</time>
      </trkpt>
      <trkpt lat="44.73905" lon="6.84021">
        <ele>1854.6</ele>
        <time>2026-03-23T13:33:01Z</time>
      </trkpt>
      <trkpt lat="44.73903" lon="6.84016">
        <ele>1853.2</ele>
        <time>2026-03-23T13:33:02Z</time>
      </trkpt>
      <trkpt lat="44.73903" lon="6.84014">
        <ele>1852.1</ele>
        <time>2026-03-23T13:33:03Z</time>
      </trkpt>
      <trkpt lat="44.739" lon="6.84011">
        <ele>1851.8</ele>
        <time>2026-03-23T13:33:04Z</time>
      </trkpt>
      <trkpt lat="44.73899" lon="6.8401">
        <ele>1850.6</ele>
        <time>2026-03-23T13:33:05Z</time>
      </trkpt>
      <trkpt lat="44.73896" lon="6.84008">
        <ele>1850.3</ele>
        <time>2026-03-23T13:33:06Z</time>
      </trkpt>
      <trkpt lat="44.73895" lon="6.84008">
        <ele>1850.1</ele>
        <time>2026-03-23T13:33:07Z</time>
      </trkpt>
      <trkpt lat="44.73892" lon="6.84006">
        <ele>1848.5</ele>
        <time>2026-03-23T13:33:08Z</time>
      </trkpt>
      <trkpt lat="44.7389" lon="6.84004">
        <ele>1848.2</ele>
        <time>2026-03-23T13:33:09Z</time>
      </trkpt>
      <trkpt lat="44.73886" lon="6.84001">
        <ele>1846.9</ele>
        <time>2026-03-23T13:33:10Z</time>
      </trkpt>
      <trkpt lat="44.73882" lon="6.84">
        <ele>1846.7</ele>
        <time>2026-03-23T13:33:11Z</time>
      </trkpt>
      <trkpt lat="44.7388" lon="6.84">
        <ele>1846.4</ele>
        <time>2026-03-23T13:33:12Z</time>
      </trkpt>
      <trkpt lat="44.73876" lon="6.83998">
        <ele>1845.2</ele>
        <time>2026-03-23T13:33:13Z</time>
      </trkpt>
      <trkpt lat="44.73873" lon="6.83993">
        <ele>1844.1</ele>
        <time>2026-03-23T13:33:14Z</time>
      </trkpt>
      <trkpt lat="44.73868" lon="6.8399">
        <ele>1843.6</ele>
        <time>2026-03-23T13:33:15Z</time>
      </trkpt>
      <trkpt lat="44.73863" lon="6.83986">
        <ele>1842.5</ele>
        <time>2026-03-23T13:33:16Z</time>
      </trkpt>
      <trkpt lat="44.73858" lon="6.83985">
        <ele>1842</ele>
        <time>2026-03-23T13:33:17Z</time>
      </trkpt>
      <trkpt lat="44.73855" lon="6.83983">
        <ele>1840.9</ele>
        <time>2026-03-23T13:33:18Z</time>
      </trkpt>
      <trkpt lat="44.73852" lon="6.8398">
        <ele>1839.8</ele>
        <time>2026-03-23T13:33:19Z</time>
      </trkpt>
      <trkpt lat="44.73849" lon="6.83978">
        <ele>1839.6</ele>
        <time>2026-03-23T13:33:20Z</time>
      </trkpt>
      <trkpt lat="44.73845" lon="6.83977">
        <ele>1839.4</ele>
        <time>2026-03-23T13:33:21Z</time>
      </trkpt>
      <trkpt lat="44.73842" lon="6.83976">
        <ele>1838.3</ele>
        <time>2026-03-23T13:33:22Z</time>
      </trkpt>
      <trkpt lat="44.73837" lon="6.83977">
        <ele>1838.9</ele>
        <time>2026-03-23T13:33:23Z</time>
      </trkpt>
      <trkpt lat="44.73833" lon="6.83978">
        <ele>1838.7</ele>
        <time>2026-03-23T13:33:24Z</time>
      </trkpt>
      <trkpt lat="44.7383" lon="6.83979">
        <ele>1838.6</ele>
        <time>2026-03-23T13:33:25Z</time>
      </trkpt>
      <trkpt lat="44.73828" lon="6.83979">
        <ele>1838.5</ele>
        <time>2026-03-23T13:33:26Z</time>
      </trkpt>
      <trkpt lat="44.73826" lon="6.83978">
        <ele>1838.5</ele>
        <time>2026-03-23T13:33:27Z</time>
      </trkpt>
      <trkpt lat="44.73826" lon="6.83977">
        <ele>1838.4</ele>
        <time>2026-03-23T13:33:28Z</time>
      </trkpt>
      <trkpt lat="44.73825" lon="6.83976">
        <ele>1837.5</ele>
        <time>2026-03-23T13:33:29Z</time>
      </trkpt>
      <trkpt lat="44.73824" lon="6.83975">
        <ele>1837.5</ele>
        <time>2026-03-23T13:33:30Z</time>
      </trkpt>
      <trkpt lat="44.73824" lon="6.83974">
        <ele>1837.5</ele>
        <time>2026-03-23T13:33:31Z</time>
      </trkpt>
      <trkpt lat="44.73823" lon="6.83973">
        <ele>1837.6</ele>
        <time>2026-03-23T13:33:32Z</time>
      </trkpt>
      <trkpt lat="44.73822" lon="6.83972">
        <ele>1836.6</ele>
        <time>2026-03-23T13:33:33Z</time>
      </trkpt>
      <trkpt lat="44.73822" lon="6.8397">
        <ele>1836.6</ele>
        <time>2026-03-23T13:33:34Z</time>
      </trkpt>
      <trkpt lat="44.73821" lon="6.83968">
        <ele>1836.6</ele>
        <time>2026-03-23T13:33:35Z</time>
      </trkpt>
      <trkpt lat="44.73821" lon="6.83967">
        <ele>1835.7</ele>
        <time>2026-03-23T13:33:36Z</time>
      </trkpt>
      <trkpt lat="44.73821" lon="6.83965">
        <ele>1835.7</ele>
        <time>2026-03-23T13:33:37Z</time>
      </trkpt>
      <trkpt lat="44.73821" lon="6.83963">
        <ele>1834.8</ele>
        <time>2026-03-23T13:33:38Z</time>
      </trkpt>
      <trkpt lat="44.73822" lon="6.83958">
        <ele>1833.9</ele>
        <time>2026-03-23T13:33:39Z</time>
      </trkpt>
      <trkpt lat="44.73823" lon="6.83957">
        <ele>1833.9</ele>
        <time>2026-03-23T13:33:40Z</time>
      </trkpt>
      <trkpt lat="44.73823" lon="6.83951">
        <ele>1833</ele>
        <time>2026-03-23T13:33:41Z</time>
      </trkpt>
      <trkpt lat="44.73822" lon="6.83949">
        <ele>1832.2</ele>
        <time>2026-03-23T13:33:42Z</time>
      </trkpt>
      <trkpt lat="44.73819" lon="6.83945">
        <ele>1831.2</ele>
        <time>2026-03-23T13:33:43Z</time>
      </trkpt>
      <trkpt lat="44.7382" lon="6.8394">
        <ele>1830.4</ele>
        <time>2026-03-23T13:33:44Z</time>
      </trkpt>
      <trkpt lat="44.73821" lon="6.83939">
        <ele>1830.5</ele>
        <time>2026-03-23T13:33:45Z</time>
      </trkpt>
      <trkpt lat="44.73823" lon="6.83937">
        <ele>1829.7</ele>
        <time>2026-03-23T13:33:46Z</time>
      </trkpt>
      <trkpt lat="44.73824" lon="6.83937">
        <ele>1829.8</ele>
        <time>2026-03-23T13:33:47Z</time>
      </trkpt>
      <trkpt lat="44.73825" lon="6.83937">
        <ele>1829.8</ele>
        <time>2026-03-23T13:33:48Z</time>
      </trkpt>
      <trkpt lat="44.73826" lon="6.83936">
        <ele>1829.9</ele>
        <time>2026-03-23T13:33:49Z</time>
      </trkpt>
      <trkpt lat="44.73825" lon="6.83934">
        <ele>1829.8</ele>
        <time>2026-03-23T13:33:50Z</time>
      </trkpt>
      <trkpt lat="44.73825" lon="6.83933">
        <ele>1828.9</ele>
        <time>2026-03-23T13:33:51Z</time>
      </trkpt>
      <trkpt lat="44.73825" lon="6.83932">
        <ele>1828.9</ele>
        <time>2026-03-23T13:33:52Z</time>
      </trkpt>
      <trkpt lat="44.73825" lon="6.83933">
        <ele>1828.9</ele>
        <time>2026-03-23T13:33:53Z</time>
      </trkpt>
      <trkpt lat="44.73825" lon="6.83933">
        <ele>1828.9</ele>
        <time>2026-03-23T13:33:54Z</time>
      </trkpt>
      <trkpt lat="44.73825" lon="6.83933">
        <ele>1828.9</ele>
        <time>2026-03-23T13:33:55Z</time>
      </trkpt>
      <trkpt lat="44.73825" lon="6.83933">
        <ele>1828.9</ele>
        <time>2026-03-23T13:33:56Z</time>
      </trkpt>
      <trkpt lat="44.73825" lon="6.83933">
        <ele>1828.9</ele>
        <time>2026-03-23T13:33:57Z</time>
      </trkpt>
      <trkpt lat="44.73826" lon="6.83932">
        <ele>1828.9</ele>
        <time>2026-03-23T13:33:58Z</time>
      </trkpt>
      <trkpt lat="44.73826" lon="6.83932">
        <ele>1828.9</ele>
        <time>2026-03-23T13:33:59Z</time>
      </trkpt>
      <trkpt lat="44.73826" lon="6.83932">
        <ele>1829</ele>
        <time>2026-03-23T13:34:00Z</time>
      </trkpt>
      <trkpt lat="44.73826" lon="6.83932">
        <ele>1829</ele>
        <time>2026-03-23T13:34:01Z</time>
      </trkpt>
      <trkpt lat="44.73826" lon="6.83932">
        <ele>1829</ele>
        <time>2026-03-23T13:34:02Z</time>
      </trkpt>
      <trkpt lat="44.73826" lon="6.83932">
        <ele>1829</ele>
        <time>2026-03-23T13:34:03Z</time>
      </trkpt>
      <trkpt lat="44.73826" lon="6.83932">
        <ele>1829</ele>
        <time>2026-03-23T13:34:04Z</time>
      </trkpt>
      <trkpt lat="44.73826" lon="6.83932">
        <ele>1829</ele>
        <time>2026-03-23T13:34:05Z</time>
      </trkpt>
      <trkpt lat="44.73826" lon="6.83932">
        <ele>1829</ele>
        <time>2026-03-23T13:34:06Z</time>
      </trkpt>
      <trkpt lat="44.73826" lon="6.83932">
        <ele>1829</ele>
        <time>2026-03-23T13:34:07Z</time>
      </trkpt>
      <trkpt lat="44.73826" lon="6.83932">
        <ele>1829.1</ele>
        <time>2026-03-23T13:34:08Z</time>
      </trkpt>
      <trkpt lat="44.73826" lon="6.83932">
        <ele>1829.1</ele>
        <time>2026-03-23T13:34:09Z</time>
      </trkpt>
      <trkpt lat="44.73826" lon="6.83932">
        <ele>1829.1</ele>
        <time>2026-03-23T13:34:10Z</time>
      </trkpt>
      <trkpt lat="44.73826" lon="6.83932">
        <ele>1829.1</ele>
        <time>2026-03-23T13:34:11Z</time>
      </trkpt>
      <trkpt lat="44.73826" lon="6.83932">
        <ele>1829.1</ele>
        <time>2026-03-23T13:34:12Z</time>
      </trkpt>
      <trkpt lat="44.73826" lon="6.83932">
        <ele>1829.1</ele>
        <time>2026-03-23T13:34:13Z</time>
      </trkpt>
      <trkpt lat="44.73826" lon="6.83932">
        <ele>1829.1</ele>
        <time>2026-03-23T13:34:14Z</time>
      </trkpt>
      <trkpt lat="44.73826" lon="6.83932">
        <ele>1829.1</ele>
        <time>2026-03-23T13:34:15Z</time>
      </trkpt>
      <trkpt lat="44.73826" lon="6.83932">
        <ele>1829.1</ele>
        <time>2026-03-23T13:34:16Z</time>
      </trkpt>
      <trkpt lat="44.73826" lon="6.83932">
        <ele>1829.1</ele>
        <time>2026-03-23T13:34:17Z</time>
      </trkpt>
      <trkpt lat="44.73826" lon="6.83932">
        <ele>1829.1</ele>
        <time>2026-03-23T13:34:18Z</time>
      </trkpt>
      <trkpt lat="44.73826" lon="6.83932">
        <ele>1829.1</ele>
        <time>2026-03-23T13:34:19Z</time>
      </trkpt>
      <trkpt lat="44.73826" lon="6.83932">
        <ele>1829.1</ele>
        <time>2026-03-23T13:34:20Z</time>
      </trkpt>
      <trkpt lat="44.73826" lon="6.83932">
        <ele>1829.1</ele>
        <time>2026-03-23T13:34:21Z</time>
      </trkpt>
      <trkpt lat="44.73826" lon="6.83932">
        <ele>1829.1</ele>
        <time>2026-03-23T13:34:22Z</time>
      </trkpt>
      <trkpt lat="44.73826" lon="6.83932">
        <ele>1829.1</ele>
        <time>2026-03-23T13:34:23Z</time>
      </trkpt>
      <trkpt lat="44.73826" lon="6.83932">
        <ele>1829.1</ele>
        <time>2026-03-23T13:34:24Z</time>
      </trkpt>
      <trkpt lat="44.73826" lon="6.83932">
        <ele>1829.1</ele>
        <time>2026-03-23T13:34:25Z</time>
      </trkpt>
      <trkpt lat="44.73826" lon="6.83932">
        <ele>1829.1</ele>
        <time>2026-03-23T13:34:26Z</time>
      </trkpt>
      <trkpt lat="44.73826" lon="6.83932">
        <ele>1829.1</ele>
        <time>2026-03-23T13:34:27Z</time>
      </trkpt>
      <trkpt lat="44.73826" lon="6.83932">
        <ele>1829.1</ele>
        <time>2026-03-23T13:34:28Z</time>
      </trkpt>
      <trkpt lat="44.73826" lon="6.83932">
        <ele>1829.1</ele>
        <time>2026-03-23T13:34:29Z</time>
      </trkpt>
      <trkpt lat="44.73826" lon="6.83932">
        <ele>1829.1</ele>
        <time>2026-03-23T13:34:30Z</time>
      </trkpt>
      <trkpt lat="44.73826" lon="6.83932">
        <ele>1829.1</ele>
        <time>2026-03-23T13:34:31Z</time>
      </trkpt>
      <trkpt lat="44.73826" lon="6.83932">
        <ele>1829.1</ele>
        <time>2026-03-23T13:34:32Z</time>
      </trkpt>
      <trkpt lat="44.73826" lon="6.83932">
        <ele>1829.1</ele>
        <time>2026-03-23T13:34:33Z</time>
      </trkpt>
      <trkpt lat="44.73826" lon="6.83932">
        <ele>1829.1</ele>
        <time>2026-03-23T13:34:34Z</time>
      </trkpt>
      <trkpt lat="44.73826" lon="6.83932">
        <ele>1829.1</ele>
        <time>2026-03-23T13:34:35Z</time>
      </trkpt>
      <trkpt lat="44.73826" lon="6.83932">
        <ele>1829.1</ele>
        <time>2026-03-23T13:34:36Z</time>
      </trkpt>
      <trkpt lat="44.73826" lon="6.83932">
        <ele>1829.1</ele>
        <time>2026-03-23T13:34:37Z</time>
      </trkpt>
      <trkpt lat="44.73826" lon="6.83932">
        <ele>1829.1</ele>
        <time>2026-03-23T13:34:38Z</time>
      </trkpt>
      <trkpt lat="44.73826" lon="6.83932">
        <ele>1829.1</ele>
        <time>2026-03-23T13:34:39Z</time>
      </trkpt>
      <trkpt lat="44.73826" lon="6.83932">
        <ele>1829.1</ele>
        <time>2026-03-23T13:34:40Z</time>
      </trkpt>
      <trkpt lat="44.73826" lon="6.83932">
        <ele>1829.1</ele>
        <time>2026-03-23T13:34:41Z</time>
      </trkpt>
      <trkpt lat="44.73826" lon="6.83932">
        <ele>1829.1</ele>
        <time>2026-03-23T13:34:42Z</time>
      </trkpt>
      <trkpt lat="44.73826" lon="6.83932">
        <ele>1829.1</ele>
        <time>2026-03-23T13:34:43Z</time>
      </trkpt>
      <trkpt lat="44.73826" lon="6.83932">
        <ele>1829.1</ele>
        <time>2026-03-23T13:34:44Z</time>
      </trkpt>
      <trkpt lat="44.73826" lon="6.83932">
        <ele>1829.1</ele>
        <time>2026-03-23T13:34:45Z</time>
      </trkpt>
      <trkpt lat="44.73826" lon="6.83932">
        <ele>1829.1</ele>
        <time>2026-03-23T13:34:46Z</time>
      </trkpt>
      <trkpt lat="44.73826" lon="6.83932">
        <ele>1829.2</ele>
        <time>2026-03-23T13:34:47Z</time>
      </trkpt>
      <trkpt lat="44.73826" lon="6.83932">
        <ele>1829.2</ele>
        <time>2026-03-23T13:34:48Z</time>
      </trkpt>
      <trkpt lat="44.73826" lon="6.83932">
        <ele>1829.2</ele>
        <time>2026-03-23T13:34:49Z</time>
      </trkpt>
      <trkpt lat="44.73826" lon="6.83932">
        <ele>1829.2</ele>
        <time>2026-03-23T13:34:50Z</time>
      </trkpt>
      <trkpt lat="44.73826" lon="6.83932">
        <ele>1829</ele>
        <time>2026-03-23T13:34:51Z</time>
      </trkpt>
      <trkpt lat="44.73826" lon="6.83932">
        <ele>1829.2</ele>
        <time>2026-03-23T13:34:52Z</time>
      </trkpt>
      <trkpt lat="44.73826" lon="6.83932">
        <ele>1829.2</ele>
        <time>2026-03-23T13:34:53Z</time>
      </trkpt>
      <trkpt lat="44.73826" lon="6.83932">
        <ele>1829.2</ele>
        <time>2026-03-23T13:34:54Z</time>
      </trkpt>
      <trkpt lat="44.73826" lon="6.83932">
        <ele>1829</ele>
        <time>2026-03-23T13:34:55Z</time>
      </trkpt>
      <trkpt lat="44.73826" lon="6.83932">
        <ele>1829.2</ele>
        <time>2026-03-23T13:34:56Z</time>
      </trkpt>
      <trkpt lat="44.73826" lon="6.83932">
        <ele>1829.2</ele>
        <time>2026-03-23T13:34:57Z</time>
      </trkpt>
      <trkpt lat="44.73826" lon="6.83932">
        <ele>1829.2</ele>
        <time>2026-03-23T13:34:58Z</time>
      </trkpt>
      <trkpt lat="44.73826" lon="6.83931">
        <ele>1829.1</ele>
        <time>2026-03-23T13:34:59Z</time>
      </trkpt>
      <trkpt lat="44.73825" lon="6.83931">
        <ele>1829.1</ele>
        <time>2026-03-23T13:35:00Z</time>
      </trkpt>
      <trkpt lat="44.73825" lon="6.83931">
        <ele>1829.1</ele>
        <time>2026-03-23T13:35:01Z</time>
      </trkpt>
      <trkpt lat="44.73824" lon="6.83932">
        <ele>1829.1</ele>
        <time>2026-03-23T13:35:02Z</time>
      </trkpt>
      <trkpt lat="44.73824" lon="6.83931">
        <ele>1829.1</ele>
        <time>2026-03-23T13:35:03Z</time>
      </trkpt>
      <trkpt lat="44.73824" lon="6.83932">
        <ele>1829.1</ele>
        <time>2026-03-23T13:35:04Z</time>
      </trkpt>
      <trkpt lat="44.73825" lon="6.83933">
        <ele>1829.1</ele>
        <time>2026-03-23T13:35:05Z</time>
      </trkpt>
      <trkpt lat="44.73825" lon="6.83934">
        <ele>1829.9</ele>
        <time>2026-03-23T13:35:06Z</time>
      </trkpt>
      <trkpt lat="44.73825" lon="6.83934">
        <ele>1829.9</ele>
        <time>2026-03-23T13:35:07Z</time>
      </trkpt>
      <trkpt lat="44.73824" lon="6.83934">
        <ele>1829.9</ele>
        <time>2026-03-23T13:35:08Z</time>
      </trkpt>
      <trkpt lat="44.73825" lon="6.83934">
        <ele>1829.9</ele>
        <time>2026-03-23T13:35:09Z</time>
      </trkpt>
      <trkpt lat="44.73825" lon="6.83934">
        <ele>1829.9</ele>
        <time>2026-03-23T13:35:10Z</time>
      </trkpt>
      <trkpt lat="44.73824" lon="6.83935">
        <ele>1829.9</ele>
        <time>2026-03-23T13:35:11Z</time>
      </trkpt>
      <trkpt lat="44.73825" lon="6.83935">
        <ele>1829.9</ele>
        <time>2026-03-23T13:35:12Z</time>
      </trkpt>
      <trkpt lat="44.73824" lon="6.83935">
        <ele>1829.9</ele>
        <time>2026-03-23T13:35:13Z</time>
      </trkpt>
      <trkpt lat="44.73824" lon="6.83935">
        <ele>1829.9</ele>
        <time>2026-03-23T13:35:14Z</time>
      </trkpt>
      <trkpt lat="44.73824" lon="6.83935">
        <ele>1829.9</ele>
        <time>2026-03-23T13:35:15Z</time>
      </trkpt>
      <trkpt lat="44.73824" lon="6.83935">
        <ele>1829.9</ele>
        <time>2026-03-23T13:35:16Z</time>
      </trkpt>
      <trkpt lat="44.73824" lon="6.83935">
        <ele>1829.9</ele>
        <time>2026-03-23T13:35:17Z</time>
      </trkpt>
      <trkpt lat="44.73824" lon="6.83935">
        <ele>1829.9</ele>
        <time>2026-03-23T13:35:18Z</time>
      </trkpt>
      <trkpt lat="44.73824" lon="6.83935">
        <ele>1829.9</ele>
        <time>2026-03-23T13:35:19Z</time>
      </trkpt>
      <trkpt lat="44.73824" lon="6.83935">
        <ele>1829.9</ele>
        <time>2026-03-23T13:35:20Z</time>
      </trkpt>
      <trkpt lat="44.73824" lon="6.83935">
        <ele>1829.9</ele>
        <time>2026-03-23T13:35:21Z</time>
      </trkpt>
      <trkpt lat="44.73824" lon="6.83935">
        <ele>1829.9</ele>
        <time>2026-03-23T13:35:22Z</time>
      </trkpt>
      <trkpt lat="44.73824" lon="6.83935">
        <ele>1829.9</ele>
        <time>2026-03-23T13:35:23Z</time>
      </trkpt>
      <trkpt lat="44.73824" lon="6.83935">
        <ele>1829.9</ele>
        <time>2026-03-23T13:35:24Z</time>
      </trkpt>
      <trkpt lat="44.73824" lon="6.83935">
        <ele>1829.9</ele>
        <time>2026-03-23T13:35:25Z</time>
      </trkpt>
      <trkpt lat="44.73824" lon="6.83935">
        <ele>1829.9</ele>
        <time>2026-03-23T13:35:26Z</time>
      </trkpt>
      <trkpt lat="44.73824" lon="6.83935">
        <ele>1829.9</ele>
        <time>2026-03-23T13:35:27Z</time>
      </trkpt>
      <trkpt lat="44.73824" lon="6.83935">
        <ele>1829.9</ele>
        <time>2026-03-23T13:35:28Z</time>
      </trkpt>
      <trkpt lat="44.73824" lon="6.83935">
        <ele>1829.9</ele>
        <time>2026-03-23T13:35:29Z</time>
      </trkpt>
      <trkpt lat="44.73824" lon="6.83935">
        <ele>1829.9</ele>
        <time>2026-03-23T13:35:30Z</time>
      </trkpt>
      <trkpt lat="44.73824" lon="6.83935">
        <ele>1829.9</ele>
        <time>2026-03-23T13:35:31Z</time>
      </trkpt>
      <trkpt lat="44.73824" lon="6.83935">
        <ele>1829.9</ele>
        <time>2026-03-23T13:35:32Z</time>
      </trkpt>
      <trkpt lat="44.73824" lon="6.83935">
        <ele>1830</ele>
        <time>2026-03-23T13:35:33Z</time>
      </trkpt>
      <trkpt lat="44.73824" lon="6.83935">
        <ele>1830</ele>
        <time>2026-03-23T13:35:34Z</time>
      </trkpt>
      <trkpt lat="44.73824" lon="6.83935">
        <ele>1830</ele>
        <time>2026-03-23T13:35:35Z</time>
      </trkpt>
      <trkpt lat="44.73824" lon="6.83935">
        <ele>1830</ele>
        <time>2026-03-23T13:35:36Z</time>
      </trkpt>
      <trkpt lat="44.73824" lon="6.83935">
        <ele>1830</ele>
        <time>2026-03-23T13:35:37Z</time>
      </trkpt>
      <trkpt lat="44.73824" lon="6.83935">
        <ele>1830</ele>
        <time>2026-03-23T13:35:38Z</time>
      </trkpt>
      <trkpt lat="44.73824" lon="6.83935">
        <ele>1830</ele>
        <time>2026-03-23T13:35:39Z</time>
      </trkpt>
      <trkpt lat="44.73824" lon="6.83935">
        <ele>1830</ele>
        <time>2026-03-23T13:35:40Z</time>
      </trkpt>
      <trkpt lat="44.73824" lon="6.83935">
        <ele>1830</ele>
        <time>2026-03-23T13:35:41Z</time>
      </trkpt>
      <trkpt lat="44.73824" lon="6.83935">
        <ele>1830</ele>
        <time>2026-03-23T13:35:42Z</time>
      </trkpt>
      <trkpt lat="44.73824" lon="6.83935">
        <ele>1830</ele>
        <time>2026-03-23T13:35:43Z</time>
      </trkpt>
      <trkpt lat="44.73824" lon="6.83935">
        <ele>1830</ele>
        <time>2026-03-23T13:35:44Z</time>
      </trkpt>
      <trkpt lat="44.73824" lon="6.83935">
        <ele>1830</ele>
        <time>2026-03-23T13:35:45Z</time>
      </trkpt>
      <trkpt lat="44.73824" lon="6.83935">
        <ele>1830</ele>
        <time>2026-03-23T13:35:46Z</time>
      </trkpt>
      <trkpt lat="44.73824" lon="6.83935">
        <ele>1830</ele>
        <time>2026-03-23T13:35:47Z</time>
      </trkpt>
      <trkpt lat="44.73824" lon="6.83935">
        <ele>1830</ele>
        <time>2026-03-23T13:35:48Z</time>
      </trkpt>
      <trkpt lat="44.73824" lon="6.83935">
        <ele>1830</ele>
        <time>2026-03-23T13:35:49Z</time>
      </trkpt>
      <trkpt lat="44.73824" lon="6.83935">
        <ele>1830</ele>
        <time>2026-03-23T13:35:50Z</time>
      </trkpt>
      <trkpt lat="44.73824" lon="6.83935">
        <ele>1830</ele>
        <time>2026-03-23T13:35:51Z</time>
      </trkpt>
      <trkpt lat="44.73824" lon="6.83935">
        <ele>1830</ele>
        <time>2026-03-23T13:35:52Z</time>
      </trkpt>
      <trkpt lat="44.73824" lon="6.83935">
        <ele>1830</ele>
        <time>2026-03-23T13:35:53Z</time>
      </trkpt>
      <trkpt lat="44.73824" lon="6.83935">
        <ele>1830</ele>
        <time>2026-03-23T13:35:54Z</time>
      </trkpt>
      <trkpt lat="44.73824" lon="6.83935">
        <ele>1830</ele>
        <time>2026-03-23T13:35:55Z</time>
      </trkpt>
      <trkpt lat="44.73824" lon="6.83935">
        <ele>1830</ele>
        <time>2026-03-23T13:35:56Z</time>
      </trkpt>
      <trkpt lat="44.73824" lon="6.83935">
        <ele>1830</ele>
        <time>2026-03-23T13:35:57Z</time>
      </trkpt>
      <trkpt lat="44.73824" lon="6.83935">
        <ele>1830</ele>
        <time>2026-03-23T13:35:58Z</time>
      </trkpt>
      <trkpt lat="44.73824" lon="6.83935">
        <ele>1830</ele>
        <time>2026-03-23T13:35:59Z</time>
      </trkpt>
      <trkpt lat="44.73824" lon="6.83935">
        <ele>1830</ele>
        <time>2026-03-23T13:36:00Z</time>
      </trkpt>
      <trkpt lat="44.73824" lon="6.83935">
        <ele>1830</ele>
        <time>2026-03-23T13:36:01Z</time>
      </trkpt>
      <trkpt lat="44.73824" lon="6.83935">
        <ele>1830</ele>
        <time>2026-03-23T13:36:02Z</time>
      </trkpt>
      <trkpt lat="44.73824" lon="6.83935">
        <ele>1830</ele>
        <time>2026-03-23T13:36:03Z</time>
      </trkpt>
      <trkpt lat="44.73824" lon="6.83935">
        <ele>1830</ele>
        <time>2026-03-23T13:36:04Z</time>
      </trkpt>
      <trkpt lat="44.73824" lon="6.83935">
        <ele>1830</ele>
        <time>2026-03-23T13:36:05Z</time>
      </trkpt>
      <trkpt lat="44.73824" lon="6.83935">
        <ele>1830</ele>
        <time>2026-03-23T13:36:06Z</time>
      </trkpt>
      <trkpt lat="44.73824" lon="6.83935">
        <ele>1830</ele>
        <time>2026-03-23T13:36:07Z</time>
      </trkpt>
      <trkpt lat="44.73824" lon="6.83935">
        <ele>1830</ele>
        <time>2026-03-23T13:36:08Z</time>
      </trkpt>
      <trkpt lat="44.73824" lon="6.83935">
        <ele>1830</ele>
        <time>2026-03-23T13:36:09Z</time>
      </trkpt>
      <trkpt lat="44.73824" lon="6.83935">
        <ele>1830</ele>
        <time>2026-03-23T13:36:10Z</time>
      </trkpt>
      <trkpt lat="44.73824" lon="6.83935">
        <ele>1830</ele>
        <time>2026-03-23T13:36:11Z</time>
      </trkpt>
      <trkpt lat="44.73824" lon="6.83935">
        <ele>1830</ele>
        <time>2026-03-23T13:36:12Z</time>
      </trkpt>
      <trkpt lat="44.73824" lon="6.83935">
        <ele>1830</ele>
        <time>2026-03-23T13:36:13Z</time>
      </trkpt>
      <trkpt lat="44.73824" lon="6.83935">
        <ele>1830</ele>
        <time>2026-03-23T13:36:14Z</time>
      </trkpt>
      <trkpt lat="44.73824" lon="6.83935">
        <ele>1830</ele>
        <time>2026-03-23T13:36:15Z</time>
      </trkpt>
      <trkpt lat="44.73824" lon="6.83935">
        <ele>1830</ele>
        <time>2026-03-23T13:36:16Z</time>
      </trkpt>
      <trkpt lat="44.73824" lon="6.83935">
        <ele>1830</ele>
        <time>2026-03-23T13:36:17Z</time>
      </trkpt>
      <trkpt lat="44.73824" lon="6.83935">
        <ele>1830</ele>
        <time>2026-03-23T13:36:18Z</time>
      </trkpt>
      <trkpt lat="44.73824" lon="6.83935">
        <ele>1830</ele>
        <time>2026-03-23T13:36:19Z</time>
      </trkpt>
      <trkpt lat="44.73824" lon="6.83935">
        <ele>1830</ele>
        <time>2026-03-23T13:36:20Z</time>
      </trkpt>
      <trkpt lat="44.73824" lon="6.83935">
        <ele>1830</ele>
        <time>2026-03-23T13:36:21Z</time>
      </trkpt>
      <trkpt lat="44.73824" lon="6.83935">
        <ele>1830</ele>
        <time>2026-03-23T13:36:22Z</time>
      </trkpt>
      <trkpt lat="44.73824" lon="6.83935">
        <ele>1830</ele>
        <time>2026-03-23T13:36:23Z</time>
      </trkpt>
      <trkpt lat="44.73824" lon="6.83935">
        <ele>1830</ele>
        <time>2026-03-23T13:36:24Z</time>
      </trkpt>
      <trkpt lat="44.73824" lon="6.83935">
        <ele>1830</ele>
        <time>2026-03-23T13:36:25Z</time>
      </trkpt>
      <trkpt lat="44.73824" lon="6.83935">
        <ele>1830</ele>
        <time>2026-03-23T13:36:26Z</time>
      </trkpt>
      <trkpt lat="44.73824" lon="6.83935">
        <ele>1830</ele>
        <time>2026-03-23T13:36:27Z</time>
      </trkpt>
      <trkpt lat="44.73824" lon="6.83935">
        <ele>1830</ele>
        <time>2026-03-23T13:36:28Z</time>
      </trkpt>
      <trkpt lat="44.73824" lon="6.83935">
        <ele>1830</ele>
        <time>2026-03-23T13:36:29Z</time>
      </trkpt>
      <trkpt lat="44.73824" lon="6.83935">
        <ele>1830</ele>
        <time>2026-03-23T13:36:30Z</time>
      </trkpt>
      <trkpt lat="44.73824" lon="6.83935">
        <ele>1830</ele>
        <time>2026-03-23T13:36:31Z</time>
      </trkpt>
      <trkpt lat="44.73824" lon="6.83935">
        <ele>1830.1</ele>
        <time>2026-03-23T13:36:32Z</time>
      </trkpt>
      <trkpt lat="44.73824" lon="6.83935">
        <ele>1830.1</ele>
        <time>2026-03-23T13:36:33Z</time>
      </trkpt>
      <trkpt lat="44.73824" lon="6.83935">
        <ele>1830.1</ele>
        <time>2026-03-23T13:36:34Z</time>
      </trkpt>
      <trkpt lat="44.73824" lon="6.83935">
        <ele>1830.1</ele>
        <time>2026-03-23T13:36:35Z</time>
      </trkpt>
      <trkpt lat="44.73824" lon="6.83935">
        <ele>1830.1</ele>
        <time>2026-03-23T13:36:36Z</time>
      </trkpt>
      <trkpt lat="44.73824" lon="6.83935">
        <ele>1830.1</ele>
        <time>2026-03-23T13:36:37Z</time>
      </trkpt>
      <trkpt lat="44.73824" lon="6.83935">
        <ele>1830.1</ele>
        <time>2026-03-23T13:36:38Z</time>
      </trkpt>
      <trkpt lat="44.73824" lon="6.83935">
        <ele>1830.1</ele>
        <time>2026-03-23T13:36:39Z</time>
      </trkpt>
      <trkpt lat="44.73824" lon="6.83935">
        <ele>1830.1</ele>
        <time>2026-03-23T13:36:40Z</time>
      </trkpt>
      <trkpt lat="44.73824" lon="6.83935">
        <ele>1830.1</ele>
        <time>2026-03-23T13:36:41Z</time>
      </trkpt>
      <trkpt lat="44.73824" lon="6.83935">
        <ele>1830.1</ele>
        <time>2026-03-23T13:36:42Z</time>
      </trkpt>
      <trkpt lat="44.73824" lon="6.83935">
        <ele>1830.1</ele>
        <time>2026-03-23T13:36:43Z</time>
      </trkpt>
      <trkpt lat="44.73824" lon="6.83935">
        <ele>1830.1</ele>
        <time>2026-03-23T13:36:44Z</time>
      </trkpt>
      <trkpt lat="44.73824" lon="6.83935">
        <ele>1830.1</ele>
        <time>2026-03-23T13:36:45Z</time>
      </trkpt>
      <trkpt lat="44.73824" lon="6.83935">
        <ele>1830.1</ele>
        <time>2026-03-23T13:36:46Z</time>
      </trkpt>
      <trkpt lat="44.73824" lon="6.83935">
        <ele>1830.1</ele>
        <time>2026-03-23T13:36:47Z</time>
      </trkpt>
      <trkpt lat="44.73824" lon="6.83935">
        <ele>1830.1</ele>
        <time>2026-03-23T13:36:48Z</time>
      </trkpt>
      <trkpt lat="44.73824" lon="6.83935">
        <ele>1830.1</ele>
        <time>2026-03-23T13:36:49Z</time>
      </trkpt>
      <trkpt lat="44.73824" lon="6.83935">
        <ele>1830.1</ele>
        <time>2026-03-23T13:36:50Z</time>
      </trkpt>
      <trkpt lat="44.73824" lon="6.83935">
        <ele>1830.1</ele>
        <time>2026-03-23T13:36:51Z</time>
      </trkpt>
      <trkpt lat="44.73825" lon="6.83935">
        <ele>1830.1</ele>
        <time>2026-03-23T13:36:52Z</time>
      </trkpt>
      <trkpt lat="44.73825" lon="6.83935">
        <ele>1830.1</ele>
        <time>2026-03-23T13:36:53Z</time>
      </trkpt>
      <trkpt lat="44.73825" lon="6.83935">
        <ele>1830.1</ele>
        <time>2026-03-23T13:36:54Z</time>
      </trkpt>
      <trkpt lat="44.73825" lon="6.83935">
        <ele>1830.1</ele>
        <time>2026-03-23T13:36:55Z</time>
      </trkpt>
      <trkpt lat="44.73825" lon="6.83935">
        <ele>1830.1</ele>
        <time>2026-03-23T13:36:56Z</time>
      </trkpt>
      <trkpt lat="44.73825" lon="6.83935">
        <ele>1830.1</ele>
        <time>2026-03-23T13:36:57Z</time>
      </trkpt>
      <trkpt lat="44.73825" lon="6.83935">
        <ele>1830.1</ele>
        <time>2026-03-23T13:36:58Z</time>
      </trkpt>
      <trkpt lat="44.73825" lon="6.83935">
        <ele>1830.1</ele>
        <time>2026-03-23T13:36:59Z</time>
      </trkpt>
      <trkpt lat="44.73826" lon="6.83935">
        <ele>1830.1</ele>
        <time>2026-03-23T13:37:00Z</time>
      </trkpt>
      <trkpt lat="44.73826" lon="6.83934">
        <ele>1830.1</ele>
        <time>2026-03-23T13:37:01Z</time>
      </trkpt>
      <trkpt lat="44.73826" lon="6.83934">
        <ele>1830.1</ele>
        <time>2026-03-23T13:37:02Z</time>
      </trkpt>
      <trkpt lat="44.73826" lon="6.83935">
        <ele>1830.1</ele>
        <time>2026-03-23T13:37:03Z</time>
      </trkpt>
      <trkpt lat="44.73826" lon="6.83935">
        <ele>1830.1</ele>
        <time>2026-03-23T13:37:04Z</time>
      </trkpt>
      <trkpt lat="44.73826" lon="6.83935">
        <ele>1830.1</ele>
        <time>2026-03-23T13:37:05Z</time>
      </trkpt>
      <trkpt lat="44.73826" lon="6.83935">
        <ele>1830.2</ele>
        <time>2026-03-23T13:37:06Z</time>
      </trkpt>
      <trkpt lat="44.73826" lon="6.83935">
        <ele>1830.2</ele>
        <time>2026-03-23T13:37:07Z</time>
      </trkpt>
      <trkpt lat="44.73826" lon="6.83935">
        <ele>1830.2</ele>
        <time>2026-03-23T13:37:08Z</time>
      </trkpt>
      <trkpt lat="44.73826" lon="6.83935">
        <ele>1830.2</ele>
        <time>2026-03-23T13:37:09Z</time>
      </trkpt>
      <trkpt lat="44.73827" lon="6.83935">
        <ele>1830.2</ele>
        <time>2026-03-23T13:37:10Z</time>
      </trkpt>
      <trkpt lat="44.73827" lon="6.83935">
        <ele>1830.2</ele>
        <time>2026-03-23T13:37:11Z</time>
      </trkpt>
      <trkpt lat="44.73827" lon="6.83935">
        <ele>1830.2</ele>
        <time>2026-03-23T13:37:12Z</time>
      </trkpt>
      <trkpt lat="44.73827" lon="6.83935">
        <ele>1830.2</ele>
        <time>2026-03-23T13:37:13Z</time>
      </trkpt>
      <trkpt lat="44.73827" lon="6.83935">
        <ele>1830.2</ele>
        <time>2026-03-23T13:37:14Z</time>
      </trkpt>
      <trkpt lat="44.73827" lon="6.83935">
        <ele>1830.2</ele>
        <time>2026-03-23T13:37:15Z</time>
      </trkpt>
      <trkpt lat="44.73827" lon="6.83935">
        <ele>1830.2</ele>
        <time>2026-03-23T13:37:16Z</time>
      </trkpt>
      <trkpt lat="44.73827" lon="6.83935">
        <ele>1830.2</ele>
        <time>2026-03-23T13:37:17Z</time>
      </trkpt>
      <trkpt lat="44.73827" lon="6.83935">
        <ele>1830.2</ele>
        <time>2026-03-23T13:37:18Z</time>
      </trkpt>
      <trkpt lat="44.73827" lon="6.83935">
        <ele>1830.2</ele>
        <time>2026-03-23T13:37:19Z</time>
      </trkpt>
      <trkpt lat="44.73827" lon="6.83935">
        <ele>1830.2</ele>
        <time>2026-03-23T13:37:20Z</time>
      </trkpt>
      <trkpt lat="44.73827" lon="6.83935">
        <ele>1830.3</ele>
        <time>2026-03-23T13:37:21Z</time>
      </trkpt>
      <trkpt lat="44.73827" lon="6.83935">
        <ele>1830.3</ele>
        <time>2026-03-23T13:37:22Z</time>
      </trkpt>
      <trkpt lat="44.73827" lon="6.83935">
        <ele>1830.3</ele>
        <time>2026-03-23T13:37:23Z</time>
      </trkpt>
      <trkpt lat="44.73827" lon="6.83935">
        <ele>1830.3</ele>
        <time>2026-03-23T13:37:24Z</time>
      </trkpt>
      <trkpt lat="44.73827" lon="6.83935">
        <ele>1830.3</ele>
        <time>2026-03-23T13:37:25Z</time>
      </trkpt>
      <trkpt lat="44.73827" lon="6.83935">
        <ele>1830.3</ele>
        <time>2026-03-23T13:37:26Z</time>
      </trkpt>
      <trkpt lat="44.73827" lon="6.83935">
        <ele>1830.3</ele>
        <time>2026-03-23T13:37:27Z</time>
      </trkpt>
      <trkpt lat="44.73827" lon="6.83935">
        <ele>1830.3</ele>
        <time>2026-03-23T13:37:28Z</time>
      </trkpt>
      <trkpt lat="44.73827" lon="6.83935">
        <ele>1830.3</ele>
        <time>2026-03-23T13:37:29Z</time>
      </trkpt>
      <trkpt lat="44.73827" lon="6.83935">
        <ele>1830.3</ele>
        <time>2026-03-23T13:37:30Z</time>
      </trkpt>
      <trkpt lat="44.73827" lon="6.83935">
        <ele>1830.3</ele>
        <time>2026-03-23T13:37:31Z</time>
      </trkpt>
      <trkpt lat="44.73827" lon="6.83934">
        <ele>1830.3</ele>
        <time>2026-03-23T13:37:32Z</time>
      </trkpt>
      <trkpt lat="44.73827" lon="6.83935">
        <ele>1830.3</ele>
        <time>2026-03-23T13:37:33Z</time>
      </trkpt>
      <trkpt lat="44.73827" lon="6.83935">
        <ele>1830.3</ele>
        <time>2026-03-23T13:37:34Z</time>
      </trkpt>
      <trkpt lat="44.73827" lon="6.83935">
        <ele>1830.3</ele>
        <time>2026-03-23T13:37:35Z</time>
      </trkpt>
      <trkpt lat="44.73827" lon="6.83935">
        <ele>1830.3</ele>
        <time>2026-03-23T13:37:36Z</time>
      </trkpt>
      <trkpt lat="44.73827" lon="6.83935">
        <ele>1830.3</ele>
        <time>2026-03-23T13:37:37Z</time>
      </trkpt>
      <trkpt lat="44.73827" lon="6.83934">
        <ele>1830.3</ele>
        <time>2026-03-23T13:37:38Z</time>
      </trkpt>
      <trkpt lat="44.73827" lon="6.83934">
        <ele>1830.3</ele>
        <time>2026-03-23T13:37:39Z</time>
      </trkpt>
      <trkpt lat="44.73827" lon="6.83934">
        <ele>1830.3</ele>
        <time>2026-03-23T13:37:40Z</time>
      </trkpt>
      <trkpt lat="44.73827" lon="6.83934">
        <ele>1830.3</ele>
        <time>2026-03-23T13:37:41Z</time>
      </trkpt>
      <trkpt lat="44.73827" lon="6.83934">
        <ele>1830.2</ele>
        <time>2026-03-23T13:37:42Z</time>
      </trkpt>
      <trkpt lat="44.73827" lon="6.83934">
        <ele>1830.2</ele>
        <time>2026-03-23T13:37:43Z</time>
      </trkpt>
      <trkpt lat="44.73827" lon="6.83934">
        <ele>1830.2</ele>
        <time>2026-03-23T13:37:44Z</time>
      </trkpt>
      <trkpt lat="44.73827" lon="6.83934">
        <ele>1830.2</ele>
        <time>2026-03-23T13:37:45Z</time>
      </trkpt>
      <trkpt lat="44.73827" lon="6.83934">
        <ele>1830.2</ele>
        <time>2026-03-23T13:37:46Z</time>
      </trkpt>
      <trkpt lat="44.73827" lon="6.83934">
        <ele>1830.2</ele>
        <time>2026-03-23T13:37:47Z</time>
      </trkpt>
      <trkpt lat="44.73827" lon="6.83934">
        <ele>1830.2</ele>
        <time>2026-03-23T13:37:48Z</time>
      </trkpt>
      <trkpt lat="44.73827" lon="6.83934">
        <ele>1830.2</ele>
        <time>2026-03-23T13:37:49Z</time>
      </trkpt>
      <trkpt lat="44.73827" lon="6.83934">
        <ele>1830.2</ele>
        <time>2026-03-23T13:37:50Z</time>
      </trkpt>
      <trkpt lat="44.73827" lon="6.83934">
        <ele>1830.2</ele>
        <time>2026-03-23T13:37:51Z</time>
      </trkpt>
      <trkpt lat="44.73827" lon="6.83934">
        <ele>1830.2</ele>
        <time>2026-03-23T13:37:52Z</time>
      </trkpt>
      <trkpt lat="44.73827" lon="6.83934">
        <ele>1830.2</ele>
        <time>2026-03-23T13:37:53Z</time>
      </trkpt>
      <trkpt lat="44.73827" lon="6.83934">
        <ele>1830.2</ele>
        <time>2026-03-23T13:37:54Z</time>
      </trkpt>
      <trkpt lat="44.73827" lon="6.83934">
        <ele>1830.2</ele>
        <time>2026-03-23T13:37:55Z</time>
      </trkpt>
      <trkpt lat="44.73827" lon="6.83934">
        <ele>1830.2</ele>
        <time>2026-03-23T13:37:56Z</time>
      </trkpt>
      <trkpt lat="44.73827" lon="6.83934">
        <ele>1830.2</ele>
        <time>2026-03-23T13:37:57Z</time>
      </trkpt>
      <trkpt lat="44.73827" lon="6.83934">
        <ele>1830.2</ele>
        <time>2026-03-23T13:37:58Z</time>
      </trkpt>
      <trkpt lat="44.73827" lon="6.83934">
        <ele>1830.2</ele>
        <time>2026-03-23T13:37:59Z</time>
      </trkpt>
      <trkpt lat="44.73827" lon="6.83934">
        <ele>1830.2</ele>
        <time>2026-03-23T13:38:00Z</time>
      </trkpt>
      <trkpt lat="44.73827" lon="6.83934">
        <ele>1830.2</ele>
        <time>2026-03-23T13:38:01Z</time>
      </trkpt>
      <trkpt lat="44.73827" lon="6.83934">
        <ele>1830.2</ele>
        <time>2026-03-23T13:38:02Z</time>
      </trkpt>
      <trkpt lat="44.73827" lon="6.83934">
        <ele>1830.2</ele>
        <time>2026-03-23T13:38:03Z</time>
      </trkpt>
      <trkpt lat="44.73827" lon="6.83934">
        <ele>1830.2</ele>
        <time>2026-03-23T13:38:04Z</time>
      </trkpt>
      <trkpt lat="44.73827" lon="6.83934">
        <ele>1830.2</ele>
        <time>2026-03-23T13:38:05Z</time>
      </trkpt>
      <trkpt lat="44.73827" lon="6.83934">
        <ele>1830.2</ele>
        <time>2026-03-23T13:38:06Z</time>
      </trkpt>
      <trkpt lat="44.73826" lon="6.83934">
        <ele>1830.2</ele>
        <time>2026-03-23T13:38:07Z</time>
      </trkpt>
      <trkpt lat="44.73826" lon="6.83934">
        <ele>1830.2</ele>
        <time>2026-03-23T13:38:08Z</time>
      </trkpt>
      <trkpt lat="44.73825" lon="6.83934">
        <ele>1830.2</ele>
        <time>2026-03-23T13:38:09Z</time>
      </trkpt>
      <trkpt lat="44.73824" lon="6.83933">
        <ele>1830.2</ele>
        <time>2026-03-23T13:38:10Z</time>
      </trkpt>
      <trkpt lat="44.73823" lon="6.83933">
        <ele>1830.2</ele>
        <time>2026-03-23T13:38:11Z</time>
      </trkpt>
      <trkpt lat="44.73822" lon="6.83934">
        <ele>1830.1</ele>
        <time>2026-03-23T13:38:12Z</time>
      </trkpt>
      <trkpt lat="44.73821" lon="6.83934">
        <ele>1830.1</ele>
        <time>2026-03-23T13:38:13Z</time>
      </trkpt>
      <trkpt lat="44.7382" lon="6.83933">
        <ele>1830.1</ele>
        <time>2026-03-23T13:38:14Z</time>
      </trkpt>
      <trkpt lat="44.73819" lon="6.83933">
        <ele>1830.1</ele>
        <time>2026-03-23T13:38:15Z</time>
      </trkpt>
      <trkpt lat="44.73818" lon="6.83934">
        <ele>1830</ele>
        <time>2026-03-23T13:38:16Z</time>
      </trkpt>
      <trkpt lat="44.73818" lon="6.83934">
        <ele>1830</ele>
        <time>2026-03-23T13:38:17Z</time>
      </trkpt>
      <trkpt lat="44.73817" lon="6.83934">
        <ele>1830</ele>
        <time>2026-03-23T13:38:18Z</time>
      </trkpt>
      <trkpt lat="44.73816" lon="6.83934">
        <ele>1830</ele>
        <time>2026-03-23T13:38:19Z</time>
      </trkpt>
      <trkpt lat="44.73815" lon="6.83935">
        <ele>1829.9</ele>
        <time>2026-03-23T13:38:20Z</time>
      </trkpt>
      <trkpt lat="44.73815" lon="6.83935">
        <ele>1829.9</ele>
        <time>2026-03-23T13:38:21Z</time>
      </trkpt>
      <trkpt lat="44.73814" lon="6.83935">
        <ele>1829.9</ele>
        <time>2026-03-23T13:38:22Z</time>
      </trkpt>
      <trkpt lat="44.73813" lon="6.83935">
        <ele>1829.9</ele>
        <time>2026-03-23T13:38:23Z</time>
      </trkpt>
      <trkpt lat="44.73813" lon="6.83935">
        <ele>1829.9</ele>
        <time>2026-03-23T13:38:24Z</time>
      </trkpt>
      <trkpt lat="44.73813" lon="6.8393">
        <ele>1829.7</ele>
        <time>2026-03-23T13:38:25Z</time>
      </trkpt>
      <trkpt lat="44.7381" lon="6.83931">
        <ele>1829.6</ele>
        <time>2026-03-23T13:38:27Z</time>
      </trkpt>
      <trkpt lat="44.73809" lon="6.83931">
        <ele>1829.6</ele>
        <time>2026-03-23T13:38:29Z</time>
      </trkpt>
      <trkpt lat="44.73808" lon="6.83931">
        <ele>1829.5</ele>
        <time>2026-03-23T13:38:30Z</time>
      </trkpt>
      <trkpt lat="44.73807" lon="6.83932">
        <ele>1829.5</ele>
        <time>2026-03-23T13:38:31Z</time>
      </trkpt>
      <trkpt lat="44.73806" lon="6.83932">
        <ele>1829.4</ele>
        <time>2026-03-23T13:38:32Z</time>
      </trkpt>
      <trkpt lat="44.73804" lon="6.83933">
        <ele>1829.3</ele>
        <time>2026-03-23T13:38:34Z</time>
      </trkpt>
      <trkpt lat="44.73804" lon="6.83933">
        <ele>1829.3</ele>
        <time>2026-03-23T13:38:36Z</time>
      </trkpt>
      <trkpt lat="44.73803" lon="6.83933">
        <ele>1829.3</ele>
        <time>2026-03-23T13:38:37Z</time>
      </trkpt>
      <trkpt lat="44.73802" lon="6.83934">
        <ele>1829.2</ele>
        <time>2026-03-23T13:38:38Z</time>
      </trkpt>
      <trkpt lat="44.73802" lon="6.83934">
        <ele>1829.2</ele>
        <time>2026-03-23T13:38:39Z</time>
      </trkpt>
      <trkpt lat="44.73801" lon="6.83934">
        <ele>1829.2</ele>
        <time>2026-03-23T13:38:40Z</time>
      </trkpt>
      <trkpt lat="44.738" lon="6.83934">
        <ele>1829.1</ele>
        <time>2026-03-23T13:38:41Z</time>
      </trkpt>
      <trkpt lat="44.73799" lon="6.83934">
        <ele>1829.1</ele>
        <time>2026-03-23T13:38:42Z</time>
      </trkpt>
      <trkpt lat="44.73797" lon="6.83934">
        <ele>1829</ele>
        <time>2026-03-23T13:38:43Z</time>
      </trkpt>
      <trkpt lat="44.73796" lon="6.83933">
        <ele>1828.9</ele>
        <time>2026-03-23T13:38:45Z</time>
      </trkpt>
      <trkpt lat="44.73795" lon="6.83933">
        <ele>1828.9</ele>
        <time>2026-03-23T13:38:46Z</time>
      </trkpt>
      <trkpt lat="44.73794" lon="6.83933">
        <ele>1828.8</ele>
        <time>2026-03-23T13:38:47Z</time>
      </trkpt>
      <trkpt lat="44.73793" lon="6.83933">
        <ele>1828.7</ele>
        <time>2026-03-23T13:38:48Z</time>
      </trkpt>
      <trkpt lat="44.73792" lon="6.83933">
        <ele>1828.7</ele>
        <time>2026-03-23T13:38:49Z</time>
      </trkpt>
      <trkpt lat="44.7379" lon="6.83933">
        <ele>1828.6</ele>
        <time>2026-03-23T13:38:50Z</time>
      </trkpt>
      <trkpt lat="44.73788" lon="6.83932">
        <ele>1828.5</ele>
        <time>2026-03-23T13:38:52Z</time>
      </trkpt>
      <trkpt lat="44.73788" lon="6.83932">
        <ele>1828.4</ele>
        <time>2026-03-23T13:38:54Z</time>
      </trkpt>
      <trkpt lat="44.73787" lon="6.83932">
        <ele>1828.3</ele>
        <time>2026-03-23T13:38:55Z</time>
      </trkpt>
      <trkpt lat="44.73785" lon="6.83932">
        <ele>1828.3</ele>
        <time>2026-03-23T13:38:56Z</time>
      </trkpt>
      <trkpt lat="44.73785" lon="6.83931">
        <ele>1828.2</ele>
        <time>2026-03-23T13:38:57Z</time>
      </trkpt>
      <trkpt lat="44.73785" lon="6.83929">
        <ele>1828.1</ele>
        <time>2026-03-23T13:38:58Z</time>
      </trkpt>
      <trkpt lat="44.73786" lon="6.83928">
        <ele>1828.1</ele>
        <time>2026-03-23T13:38:59Z</time>
      </trkpt>
      <trkpt lat="44.73785" lon="6.83927">
        <ele>1828</ele>
        <time>2026-03-23T13:39:00Z</time>
      </trkpt>
      <trkpt lat="44.73784" lon="6.83927">
        <ele>1827.9</ele>
        <time>2026-03-23T13:39:02Z</time>
      </trkpt>
      <trkpt lat="44.73783" lon="6.83926">
        <ele>1827.8</ele>
        <time>2026-03-23T13:39:03Z</time>
      </trkpt>
      <trkpt lat="44.73783" lon="6.83926">
        <ele>1827.8</ele>
        <time>2026-03-23T13:39:04Z</time>
      </trkpt>
      <trkpt lat="44.73782" lon="6.83926">
        <ele>1827.7</ele>
        <time>2026-03-23T13:39:05Z</time>
      </trkpt>
      <trkpt lat="44.73781" lon="6.83925">
        <ele>1827.7</ele>
        <time>2026-03-23T13:39:06Z</time>
      </trkpt>
      <trkpt lat="44.7378" lon="6.83926">
        <ele>1827.6</ele>
        <time>2026-03-23T13:39:07Z</time>
      </trkpt>
      <trkpt lat="44.7378" lon="6.83928">
        <ele>1827.5</ele>
        <time>2026-03-23T13:39:08Z</time>
      </trkpt>
      <trkpt lat="44.73779" lon="6.83929">
        <ele>1827.4</ele>
        <time>2026-03-23T13:39:09Z</time>
      </trkpt>
      <trkpt lat="44.7378" lon="6.83929">
        <ele>1827.4</ele>
        <time>2026-03-23T13:39:10Z</time>
      </trkpt>
      <trkpt lat="44.7378" lon="6.83929">
        <ele>1827.4</ele>
        <time>2026-03-23T13:39:11Z</time>
      </trkpt>
      <trkpt lat="44.73779" lon="6.83928">
        <ele>1827.4</ele>
        <time>2026-03-23T13:39:12Z</time>
      </trkpt>
      <trkpt lat="44.73779" lon="6.83928">
        <ele>1827.4</ele>
        <time>2026-03-23T13:39:13Z</time>
      </trkpt>
      <trkpt lat="44.73779" lon="6.83929">
        <ele>1827.4</ele>
        <time>2026-03-23T13:39:14Z</time>
      </trkpt>
      <trkpt lat="44.73779" lon="6.83929">
        <ele>1827.3</ele>
        <time>2026-03-23T13:39:15Z</time>
      </trkpt>
      <trkpt lat="44.73779" lon="6.83929">
        <ele>1827.3</ele>
        <time>2026-03-23T13:39:16Z</time>
      </trkpt>
      <trkpt lat="44.73779" lon="6.83929">
        <ele>1827.3</ele>
        <time>2026-03-23T13:39:17Z</time>
      </trkpt>
      <trkpt lat="44.73779" lon="6.83929">
        <ele>1827.3</ele>
        <time>2026-03-23T13:39:18Z</time>
      </trkpt>
      <trkpt lat="44.73779" lon="6.83929">
        <ele>1827.3</ele>
        <time>2026-03-23T13:39:19Z</time>
      </trkpt>
      <trkpt lat="44.73779" lon="6.83929">
        <ele>1827.3</ele>
        <time>2026-03-23T13:39:20Z</time>
      </trkpt>
      <trkpt lat="44.73779" lon="6.83929">
        <ele>1827.3</ele>
        <time>2026-03-23T13:39:21Z</time>
      </trkpt>
      <trkpt lat="44.73779" lon="6.83929">
        <ele>1827.3</ele>
        <time>2026-03-23T13:39:22Z</time>
      </trkpt>
      <trkpt lat="44.73779" lon="6.83929">
        <ele>1827.3</ele>
        <time>2026-03-23T13:39:23Z</time>
      </trkpt>
      <trkpt lat="44.73779" lon="6.83929">
        <ele>1827.3</ele>
        <time>2026-03-23T13:39:24Z</time>
      </trkpt>
      <trkpt lat="44.73779" lon="6.83929">
        <ele>1827.3</ele>
        <time>2026-03-23T13:39:25Z</time>
      </trkpt>
      <trkpt lat="44.73779" lon="6.83929">
        <ele>1827.3</ele>
        <time>2026-03-23T13:39:26Z</time>
      </trkpt>
      <trkpt lat="44.73779" lon="6.83929">
        <ele>1827.3</ele>
        <time>2026-03-23T13:39:27Z</time>
      </trkpt>
      <trkpt lat="44.73779" lon="6.83929">
        <ele>1827.3</ele>
        <time>2026-03-23T13:39:28Z</time>
      </trkpt>
      <trkpt lat="44.73779" lon="6.83929">
        <ele>1827.3</ele>
        <time>2026-03-23T13:39:29Z</time>
      </trkpt>
      <trkpt lat="44.73779" lon="6.83929">
        <ele>1827.3</ele>
        <time>2026-03-23T13:39:30Z</time>
      </trkpt>
      <trkpt lat="44.73779" lon="6.83929">
        <ele>1827.3</ele>
        <time>2026-03-23T13:39:31Z</time>
      </trkpt>
      <trkpt lat="44.73779" lon="6.83929">
        <ele>1827.3</ele>
        <time>2026-03-23T13:39:32Z</time>
      </trkpt>
      <trkpt lat="44.73779" lon="6.83929">
        <ele>1827.3</ele>
        <time>2026-03-23T13:39:33Z</time>
      </trkpt>
      <trkpt lat="44.73779" lon="6.83929">
        <ele>1827.3</ele>
        <time>2026-03-23T13:39:34Z</time>
      </trkpt>
      <trkpt lat="44.73779" lon="6.83929">
        <ele>1827.3</ele>
        <time>2026-03-23T13:39:35Z</time>
      </trkpt>
      <trkpt lat="44.73779" lon="6.83929">
        <ele>1827.3</ele>
        <time>2026-03-23T13:39:36Z</time>
      </trkpt>
      <trkpt lat="44.73779" lon="6.83929">
        <ele>1827.3</ele>
        <time>2026-03-23T13:39:37Z</time>
      </trkpt>
      <trkpt lat="44.73779" lon="6.83929">
        <ele>1827.3</ele>
        <time>2026-03-23T13:39:38Z</time>
      </trkpt>
      <trkpt lat="44.73779" lon="6.83929">
        <ele>1827.3</ele>
        <time>2026-03-23T13:39:39Z</time>
      </trkpt>
      <trkpt lat="44.73779" lon="6.83929">
        <ele>1827.3</ele>
        <time>2026-03-23T13:39:40Z</time>
      </trkpt>
      <trkpt lat="44.73779" lon="6.83929">
        <ele>1827.3</ele>
        <time>2026-03-23T13:39:41Z</time>
      </trkpt>
      <trkpt lat="44.73779" lon="6.83929">
        <ele>1827.3</ele>
        <time>2026-03-23T13:39:42Z</time>
      </trkpt>
      <trkpt lat="44.73779" lon="6.83929">
        <ele>1827.3</ele>
        <time>2026-03-23T13:39:43Z</time>
      </trkpt>
      <trkpt lat="44.73779" lon="6.83929">
        <ele>1827.3</ele>
        <time>2026-03-23T13:39:44Z</time>
      </trkpt>
      <trkpt lat="44.73779" lon="6.83929">
        <ele>1827.3</ele>
        <time>2026-03-23T13:39:45Z</time>
      </trkpt>
      <trkpt lat="44.73779" lon="6.83929">
        <ele>1827.3</ele>
        <time>2026-03-23T13:39:46Z</time>
      </trkpt>
      <trkpt lat="44.73779" lon="6.83929">
        <ele>1827.3</ele>
        <time>2026-03-23T13:39:47Z</time>
      </trkpt>
      <trkpt lat="44.73779" lon="6.83929">
        <ele>1827.3</ele>
        <time>2026-03-23T13:39:48Z</time>
      </trkpt>
      <trkpt lat="44.73779" lon="6.83929">
        <ele>1827.3</ele>
        <time>2026-03-23T13:39:49Z</time>
      </trkpt>
      <trkpt lat="44.73779" lon="6.83929">
        <ele>1827.3</ele>
        <time>2026-03-23T13:39:50Z</time>
      </trkpt>
      <trkpt lat="44.73779" lon="6.83929">
        <ele>1827.3</ele>
        <time>2026-03-23T13:39:51Z</time>
      </trkpt>
      <trkpt lat="44.73779" lon="6.83929">
        <ele>1827.3</ele>
        <time>2026-03-23T13:39:52Z</time>
      </trkpt>
      <trkpt lat="44.73779" lon="6.83929">
        <ele>1827.2</ele>
        <time>2026-03-23T13:39:53Z</time>
      </trkpt>
      <trkpt lat="44.73779" lon="6.83929">
        <ele>1827.2</ele>
        <time>2026-03-23T13:39:54Z</time>
      </trkpt>
      <trkpt lat="44.73779" lon="6.83929">
        <ele>1827.2</ele>
        <time>2026-03-23T13:39:55Z</time>
      </trkpt>
      <trkpt lat="44.73779" lon="6.83929">
        <ele>1827.2</ele>
        <time>2026-03-23T13:39:56Z</time>
      </trkpt>
      <trkpt lat="44.73779" lon="6.83929">
        <ele>1827.2</ele>
        <time>2026-03-23T13:39:57Z</time>
      </trkpt>
      <trkpt lat="44.73779" lon="6.83929">
        <ele>1827.2</ele>
        <time>2026-03-23T13:39:58Z</time>
      </trkpt>
      <trkpt lat="44.73779" lon="6.83929">
        <ele>1827.2</ele>
        <time>2026-03-23T13:39:59Z</time>
      </trkpt>
      <trkpt lat="44.73779" lon="6.83929">
        <ele>1827.2</ele>
        <time>2026-03-23T13:40:00Z</time>
      </trkpt>
      <trkpt lat="44.73779" lon="6.83929">
        <ele>1827.2</ele>
        <time>2026-03-23T13:40:01Z</time>
      </trkpt>
      <trkpt lat="44.73779" lon="6.83929">
        <ele>1827.2</ele>
        <time>2026-03-23T13:40:02Z</time>
      </trkpt>
      <trkpt lat="44.73779" lon="6.83929">
        <ele>1827.2</ele>
        <time>2026-03-23T13:40:03Z</time>
      </trkpt>
      <trkpt lat="44.73779" lon="6.83929">
        <ele>1827.2</ele>
        <time>2026-03-23T13:40:04Z</time>
      </trkpt>
      <trkpt lat="44.73779" lon="6.83929">
        <ele>1827.2</ele>
        <time>2026-03-23T13:40:05Z</time>
      </trkpt>
      <trkpt lat="44.73779" lon="6.83929">
        <ele>1827.2</ele>
        <time>2026-03-23T13:40:06Z</time>
      </trkpt>
      <trkpt lat="44.73779" lon="6.83929">
        <ele>1827.2</ele>
        <time>2026-03-23T13:40:07Z</time>
      </trkpt>
      <trkpt lat="44.73779" lon="6.83929">
        <ele>1827.2</ele>
        <time>2026-03-23T13:40:08Z</time>
      </trkpt>
      <trkpt lat="44.73779" lon="6.83929">
        <ele>1827.2</ele>
        <time>2026-03-23T13:40:09Z</time>
      </trkpt>
      <trkpt lat="44.73779" lon="6.83929">
        <ele>1827.2</ele>
        <time>2026-03-23T13:40:10Z</time>
      </trkpt>
      <trkpt lat="44.73779" lon="6.83929">
        <ele>1827.2</ele>
        <time>2026-03-23T13:40:11Z</time>
      </trkpt>
      <trkpt lat="44.73779" lon="6.83929">
        <ele>1827.2</ele>
        <time>2026-03-23T13:40:12Z</time>
      </trkpt>
      <trkpt lat="44.73779" lon="6.83929">
        <ele>1827.2</ele>
        <time>2026-03-23T13:40:13Z</time>
      </trkpt>
      <trkpt lat="44.73779" lon="6.83929">
        <ele>1827.2</ele>
        <time>2026-03-23T13:40:14Z</time>
      </trkpt>
      <trkpt lat="44.73779" lon="6.83929">
        <ele>1827.2</ele>
        <time>2026-03-23T13:40:15Z</time>
      </trkpt>
      <trkpt lat="44.73779" lon="6.83929">
        <ele>1827.2</ele>
        <time>2026-03-23T13:40:16Z</time>
      </trkpt>
      <trkpt lat="44.73779" lon="6.83929">
        <ele>1827.2</ele>
        <time>2026-03-23T13:40:17Z</time>
      </trkpt>
      <trkpt lat="44.73779" lon="6.83929">
        <ele>1827.2</ele>
        <time>2026-03-23T13:40:18Z</time>
      </trkpt>
      <trkpt lat="44.73779" lon="6.83929">
        <ele>1827.2</ele>
        <time>2026-03-23T13:40:19Z</time>
      </trkpt>
      <trkpt lat="44.73779" lon="6.83929">
        <ele>1827.2</ele>
        <time>2026-03-23T13:40:20Z</time>
      </trkpt>
      <trkpt lat="44.73779" lon="6.83929">
        <ele>1827.2</ele>
        <time>2026-03-23T13:40:21Z</time>
      </trkpt>
      <trkpt lat="44.73779" lon="6.83929">
        <ele>1827.2</ele>
        <time>2026-03-23T13:40:22Z</time>
      </trkpt>
      <trkpt lat="44.73779" lon="6.83929">
        <ele>1827.2</ele>
        <time>2026-03-23T13:40:23Z</time>
      </trkpt>
      <trkpt lat="44.73779" lon="6.83929">
        <ele>1827.2</ele>
        <time>2026-03-23T13:40:24Z</time>
      </trkpt>
      <trkpt lat="44.73779" lon="6.83929">
        <ele>1827.2</ele>
        <time>2026-03-23T13:40:25Z</time>
      </trkpt>
      <trkpt lat="44.73779" lon="6.83929">
        <ele>1827.2</ele>
        <time>2026-03-23T13:40:26Z</time>
      </trkpt>
      <trkpt lat="44.73779" lon="6.83929">
        <ele>1827.2</ele>
        <time>2026-03-23T13:40:27Z</time>
      </trkpt>
      <trkpt lat="44.73779" lon="6.83929">
        <ele>1827.2</ele>
        <time>2026-03-23T13:40:28Z</time>
      </trkpt>
      <trkpt lat="44.73779" lon="6.83929">
        <ele>1827.2</ele>
        <time>2026-03-23T13:40:29Z</time>
      </trkpt>
      <trkpt lat="44.73779" lon="6.83929">
        <ele>1827.2</ele>
        <time>2026-03-23T13:40:30Z</time>
      </trkpt>
      <trkpt lat="44.73779" lon="6.83929">
        <ele>1827.2</ele>
        <time>2026-03-23T13:40:31Z</time>
      </trkpt>
      <trkpt lat="44.73779" lon="6.83929">
        <ele>1827.2</ele>
        <time>2026-03-23T13:40:32Z</time>
      </trkpt>
      <trkpt lat="44.73779" lon="6.83929">
        <ele>1827.2</ele>
        <time>2026-03-23T13:40:33Z</time>
      </trkpt>
      <trkpt lat="44.73779" lon="6.83929">
        <ele>1827.2</ele>
        <time>2026-03-23T13:40:34Z</time>
      </trkpt>
      <trkpt lat="44.73779" lon="6.83929">
        <ele>1827.2</ele>
        <time>2026-03-23T13:40:35Z</time>
      </trkpt>
      <trkpt lat="44.73779" lon="6.83929">
        <ele>1827.2</ele>
        <time>2026-03-23T13:40:36Z</time>
      </trkpt>
      <trkpt lat="44.73779" lon="6.83929">
        <ele>1827.2</ele>
        <time>2026-03-23T13:40:37Z</time>
      </trkpt>
      <trkpt lat="44.73779" lon="6.83929">
        <ele>1827.2</ele>
        <time>2026-03-23T13:40:38Z</time>
      </trkpt>
      <trkpt lat="44.73779" lon="6.83929">
        <ele>1827.2</ele>
        <time>2026-03-23T13:40:39Z</time>
      </trkpt>
      <trkpt lat="44.73779" lon="6.83929">
        <ele>1827.2</ele>
        <time>2026-03-23T13:40:40Z</time>
      </trkpt>
      <trkpt lat="44.73779" lon="6.83929">
        <ele>1827.2</ele>
        <time>2026-03-23T13:40:41Z</time>
      </trkpt>
      <trkpt lat="44.73779" lon="6.83929">
        <ele>1827.2</ele>
        <time>2026-03-23T13:40:42Z</time>
      </trkpt>
      <trkpt lat="44.73779" lon="6.83929">
        <ele>1827.2</ele>
        <time>2026-03-23T13:40:43Z</time>
      </trkpt>
      <trkpt lat="44.73779" lon="6.83929">
        <ele>1827.2</ele>
        <time>2026-03-23T13:40:44Z</time>
      </trkpt>
      <trkpt lat="44.73779" lon="6.83929">
        <ele>1827.2</ele>
        <time>2026-03-23T13:40:45Z</time>
      </trkpt>
      <trkpt lat="44.73779" lon="6.83929">
        <ele>1827.2</ele>
        <time>2026-03-23T13:40:46Z</time>
      </trkpt>
      <trkpt lat="44.73779" lon="6.83929">
        <ele>1827.2</ele>
        <time>2026-03-23T13:40:47Z</time>
      </trkpt>
      <trkpt lat="44.73779" lon="6.83929">
        <ele>1827.2</ele>
        <time>2026-03-23T13:40:48Z</time>
      </trkpt>
      <trkpt lat="44.73779" lon="6.83929">
        <ele>1827.2</ele>
        <time>2026-03-23T13:40:49Z</time>
      </trkpt>
      <trkpt lat="44.73779" lon="6.83929">
        <ele>1827.2</ele>
        <time>2026-03-23T13:40:50Z</time>
      </trkpt>
      <trkpt lat="44.73779" lon="6.83929">
        <ele>1827.2</ele>
        <time>2026-03-23T13:40:51Z</time>
      </trkpt>
      <trkpt lat="44.73779" lon="6.83929">
        <ele>1827.2</ele>
        <time>2026-03-23T13:40:52Z</time>
      </trkpt>
      <trkpt lat="44.73779" lon="6.83929">
        <ele>1827.2</ele>
        <time>2026-03-23T13:40:53Z</time>
      </trkpt>
      <trkpt lat="44.73779" lon="6.83929">
        <ele>1827.2</ele>
        <time>2026-03-23T13:40:54Z</time>
      </trkpt>
      <trkpt lat="44.73779" lon="6.83929">
        <ele>1827.2</ele>
        <time>2026-03-23T13:40:55Z</time>
      </trkpt>
      <trkpt lat="44.73779" lon="6.83929">
        <ele>1827.2</ele>
        <time>2026-03-23T13:40:56Z</time>
      </trkpt>
      <trkpt lat="44.73779" lon="6.83929">
        <ele>1827.2</ele>
        <time>2026-03-23T13:40:57Z</time>
      </trkpt>
      <trkpt lat="44.73779" lon="6.83929">
        <ele>1827.2</ele>
        <time>2026-03-23T13:40:58Z</time>
      </trkpt>
      <trkpt lat="44.73779" lon="6.83929">
        <ele>1827.2</ele>
        <time>2026-03-23T13:40:59Z</time>
      </trkpt>
      <trkpt lat="44.73779" lon="6.83929">
        <ele>1827.2</ele>
        <time>2026-03-23T13:41:00Z</time>
      </trkpt>
      <trkpt lat="44.73779" lon="6.83929">
        <ele>1827.2</ele>
        <time>2026-03-23T13:41:01Z</time>
      </trkpt>
      <trkpt lat="44.73779" lon="6.83929">
        <ele>1827.2</ele>
        <time>2026-03-23T13:41:02Z</time>
      </trkpt>
      <trkpt lat="44.73779" lon="6.83929">
        <ele>1827.2</ele>
        <time>2026-03-23T13:41:03Z</time>
      </trkpt>
      <trkpt lat="44.73779" lon="6.83929">
        <ele>1827.2</ele>
        <time>2026-03-23T13:41:04Z</time>
      </trkpt>
      <trkpt lat="44.73779" lon="6.83929">
        <ele>1827.2</ele>
        <time>2026-03-23T13:41:05Z</time>
      </trkpt>
      <trkpt lat="44.73779" lon="6.83929">
        <ele>1827.2</ele>
        <time>2026-03-23T13:41:06Z</time>
      </trkpt>
      <trkpt lat="44.73779" lon="6.83929">
        <ele>1827.2</ele>
        <time>2026-03-23T13:41:07Z</time>
      </trkpt>
      <trkpt lat="44.73779" lon="6.83929">
        <ele>1827.2</ele>
        <time>2026-03-23T13:41:08Z</time>
      </trkpt>
      <trkpt lat="44.73779" lon="6.83929">
        <ele>1827.2</ele>
        <time>2026-03-23T13:41:09Z</time>
      </trkpt>
      <trkpt lat="44.73779" lon="6.83929">
        <ele>1827.2</ele>
        <time>2026-03-23T13:41:10Z</time>
      </trkpt>
      <trkpt lat="44.73779" lon="6.83929">
        <ele>1827.2</ele>
        <time>2026-03-23T13:41:11Z</time>
      </trkpt>
      <trkpt lat="44.73779" lon="6.83929">
        <ele>1827.2</ele>
        <time>2026-03-23T13:41:12Z</time>
      </trkpt>
      <trkpt lat="44.73779" lon="6.83929">
        <ele>1827.2</ele>
        <time>2026-03-23T13:41:13Z</time>
      </trkpt>
      <trkpt lat="44.73779" lon="6.83929">
        <ele>1827.2</ele>
        <time>2026-03-23T13:41:14Z</time>
      </trkpt>
      <trkpt lat="44.73779" lon="6.83929">
        <ele>1827.2</ele>
        <time>2026-03-23T13:41:15Z</time>
      </trkpt>
      <trkpt lat="44.73779" lon="6.83929">
        <ele>1827.2</ele>
        <time>2026-03-23T13:41:16Z</time>
      </trkpt>
      <trkpt lat="44.73779" lon="6.83929">
        <ele>1827.2</ele>
        <time>2026-03-23T13:41:17Z</time>
      </trkpt>
      <trkpt lat="44.73779" lon="6.83929">
        <ele>1827.2</ele>
        <time>2026-03-23T13:41:18Z</time>
      </trkpt>
      <trkpt lat="44.73779" lon="6.83929">
        <ele>1827.2</ele>
        <time>2026-03-23T13:41:19Z</time>
      </trkpt>
      <trkpt lat="44.73779" lon="6.8393">
        <ele>1827.1</ele>
        <time>2026-03-23T13:41:20Z</time>
      </trkpt>
      <trkpt lat="44.73779" lon="6.8393">
        <ele>1827.1</ele>
        <time>2026-03-23T13:41:21Z</time>
      </trkpt>
      <trkpt lat="44.73779" lon="6.83931">
        <ele>1827</ele>
        <time>2026-03-23T13:41:22Z</time>
      </trkpt>
      <trkpt lat="44.73779" lon="6.83932">
        <ele>1827</ele>
        <time>2026-03-23T13:41:23Z</time>
      </trkpt>
      <trkpt lat="44.73779" lon="6.83932">
        <ele>1827</ele>
        <time>2026-03-23T13:41:24Z</time>
      </trkpt>
      <trkpt lat="44.73779" lon="6.83932">
        <ele>1826.9</ele>
        <time>2026-03-23T13:41:25Z</time>
      </trkpt>
      <trkpt lat="44.73779" lon="6.83932">
        <ele>1826.9</ele>
        <time>2026-03-23T13:41:26Z</time>
      </trkpt>
      <trkpt lat="44.73779" lon="6.83932">
        <ele>1826.9</ele>
        <time>2026-03-23T13:41:27Z</time>
      </trkpt>
      <trkpt lat="44.73779" lon="6.83932">
        <ele>1826.9</ele>
        <time>2026-03-23T13:41:28Z</time>
      </trkpt>
      <trkpt lat="44.73779" lon="6.83932">
        <ele>1826.9</ele>
        <time>2026-03-23T13:41:29Z</time>
      </trkpt>
      <trkpt lat="44.73779" lon="6.83932">
        <ele>1826.9</ele>
        <time>2026-03-23T13:41:30Z</time>
      </trkpt>
      <trkpt lat="44.73779" lon="6.83932">
        <ele>1826.9</ele>
        <time>2026-03-23T13:41:31Z</time>
      </trkpt>
      <trkpt lat="44.73779" lon="6.83932">
        <ele>1826.9</ele>
        <time>2026-03-23T13:41:32Z</time>
      </trkpt>
      <trkpt lat="44.73779" lon="6.83932">
        <ele>1826.9</ele>
        <time>2026-03-23T13:41:33Z</time>
      </trkpt>
      <trkpt lat="44.73779" lon="6.83932">
        <ele>1826.9</ele>
        <time>2026-03-23T13:41:34Z</time>
      </trkpt>
      <trkpt lat="44.73779" lon="6.83932">
        <ele>1826.9</ele>
        <time>2026-03-23T13:41:35Z</time>
      </trkpt>
      <trkpt lat="44.73779" lon="6.83932">
        <ele>1826.9</ele>
        <time>2026-03-23T13:41:36Z</time>
      </trkpt>
      <trkpt lat="44.73779" lon="6.83932">
        <ele>1826.9</ele>
        <time>2026-03-23T13:41:37Z</time>
      </trkpt>
      <trkpt lat="44.73779" lon="6.83932">
        <ele>1826.9</ele>
        <time>2026-03-23T13:41:38Z</time>
      </trkpt>
      <trkpt lat="44.73779" lon="6.83932">
        <ele>1826.9</ele>
        <time>2026-03-23T13:41:39Z</time>
      </trkpt>
      <trkpt lat="44.73779" lon="6.83932">
        <ele>1826.9</ele>
        <time>2026-03-23T13:41:40Z</time>
      </trkpt>
      <trkpt lat="44.73779" lon="6.83932">
        <ele>1826.9</ele>
        <time>2026-03-23T13:41:41Z</time>
      </trkpt>
      <trkpt lat="44.73779" lon="6.83932">
        <ele>1826.9</ele>
        <time>2026-03-23T13:41:42Z</time>
      </trkpt>
      <trkpt lat="44.73779" lon="6.83932">
        <ele>1826.9</ele>
        <time>2026-03-23T13:41:43Z</time>
      </trkpt>
      <trkpt lat="44.73779" lon="6.83932">
        <ele>1826.9</ele>
        <time>2026-03-23T13:41:44Z</time>
      </trkpt>
      <trkpt lat="44.73779" lon="6.83932">
        <ele>1826.9</ele>
        <time>2026-03-23T13:41:45Z</time>
      </trkpt>
      <trkpt lat="44.73779" lon="6.83932">
        <ele>1826.9</ele>
        <time>2026-03-23T13:41:46Z</time>
      </trkpt>
      <trkpt lat="44.73779" lon="6.83932">
        <ele>1826.9</ele>
        <time>2026-03-23T13:41:47Z</time>
      </trkpt>
      <trkpt lat="44.73779" lon="6.83932">
        <ele>1826.9</ele>
        <time>2026-03-23T13:41:48Z</time>
      </trkpt>
      <trkpt lat="44.73779" lon="6.83932">
        <ele>1826.9</ele>
        <time>2026-03-23T13:41:49Z</time>
      </trkpt>
      <trkpt lat="44.73779" lon="6.83932">
        <ele>1826.9</ele>
        <time>2026-03-23T13:41:50Z</time>
      </trkpt>
      <trkpt lat="44.73779" lon="6.83932">
        <ele>1826.9</ele>
        <time>2026-03-23T13:41:51Z</time>
      </trkpt>
      <trkpt lat="44.73779" lon="6.83932">
        <ele>1826.9</ele>
        <time>2026-03-23T13:41:52Z</time>
      </trkpt>
      <trkpt lat="44.73779" lon="6.83932">
        <ele>1826.9</ele>
        <time>2026-03-23T13:41:53Z</time>
      </trkpt>
      <trkpt lat="44.73779" lon="6.83932">
        <ele>1826.9</ele>
        <time>2026-03-23T13:41:54Z</time>
      </trkpt>
      <trkpt lat="44.73779" lon="6.83932">
        <ele>1826.9</ele>
        <time>2026-03-23T13:41:55Z</time>
      </trkpt>
      <trkpt lat="44.73779" lon="6.83932">
        <ele>1826.9</ele>
        <time>2026-03-23T13:41:56Z</time>
      </trkpt>
      <trkpt lat="44.73779" lon="6.83932">
        <ele>1826.9</ele>
        <time>2026-03-23T13:41:57Z</time>
      </trkpt>
      <trkpt lat="44.73779" lon="6.83932">
        <ele>1826.9</ele>
        <time>2026-03-23T13:41:58Z</time>
      </trkpt>
      <trkpt lat="44.73779" lon="6.83932">
        <ele>1826.9</ele>
        <time>2026-03-23T13:41:59Z</time>
      </trkpt>
      <trkpt lat="44.73779" lon="6.83932">
        <ele>1826.9</ele>
        <time>2026-03-23T13:42:00Z</time>
      </trkpt>
      <trkpt lat="44.73779" lon="6.83932">
        <ele>1826.9</ele>
        <time>2026-03-23T13:42:01Z</time>
      </trkpt>
      <trkpt lat="44.73779" lon="6.83932">
        <ele>1826.9</ele>
        <time>2026-03-23T13:42:02Z</time>
      </trkpt>
      <trkpt lat="44.73779" lon="6.83932">
        <ele>1826.9</ele>
        <time>2026-03-23T13:42:03Z</time>
      </trkpt>
      <trkpt lat="44.73779" lon="6.83932">
        <ele>1826.9</ele>
        <time>2026-03-23T13:42:04Z</time>
      </trkpt>
      <trkpt lat="44.73779" lon="6.83932">
        <ele>1826.9</ele>
        <time>2026-03-23T13:42:05Z</time>
      </trkpt>
      <trkpt lat="44.73779" lon="6.83932">
        <ele>1826.9</ele>
        <time>2026-03-23T13:42:06Z</time>
      </trkpt>
      <trkpt lat="44.73779" lon="6.83932">
        <ele>1826.9</ele>
        <time>2026-03-23T13:42:07Z</time>
      </trkpt>
      <trkpt lat="44.73779" lon="6.83932">
        <ele>1826.9</ele>
        <time>2026-03-23T13:42:08Z</time>
      </trkpt>
      <trkpt lat="44.73779" lon="6.83932">
        <ele>1826.9</ele>
        <time>2026-03-23T13:42:09Z</time>
      </trkpt>
      <trkpt lat="44.73779" lon="6.83932">
        <ele>1826.9</ele>
        <time>2026-03-23T13:42:10Z</time>
      </trkpt>
      <trkpt lat="44.73779" lon="6.83932">
        <ele>1826.9</ele>
        <time>2026-03-23T13:42:11Z</time>
      </trkpt>
      <trkpt lat="44.73779" lon="6.83932">
        <ele>1826.9</ele>
        <time>2026-03-23T13:42:12Z</time>
      </trkpt>
      <trkpt lat="44.73779" lon="6.83932">
        <ele>1826.9</ele>
        <time>2026-03-23T13:42:13Z</time>
      </trkpt>
      <trkpt lat="44.73779" lon="6.83932">
        <ele>1826.9</ele>
        <time>2026-03-23T13:42:14Z</time>
      </trkpt>
      <trkpt lat="44.73779" lon="6.83932">
        <ele>1826.8</ele>
        <time>2026-03-23T13:42:15Z</time>
      </trkpt>
      <trkpt lat="44.73779" lon="6.83932">
        <ele>1826.8</ele>
        <time>2026-03-23T13:42:16Z</time>
      </trkpt>
      <trkpt lat="44.73779" lon="6.83932">
        <ele>1826.8</ele>
        <time>2026-03-23T13:42:17Z</time>
      </trkpt>
      <trkpt lat="44.73779" lon="6.83932">
        <ele>1826.8</ele>
        <time>2026-03-23T13:42:18Z</time>
      </trkpt>
      <trkpt lat="44.73779" lon="6.83933">
        <ele>1826.8</ele>
        <time>2026-03-23T13:42:19Z</time>
      </trkpt>
      <trkpt lat="44.73779" lon="6.83933">
        <ele>1826.8</ele>
        <time>2026-03-23T13:42:20Z</time>
      </trkpt>
      <trkpt lat="44.73779" lon="6.83933">
        <ele>1826.8</ele>
        <time>2026-03-23T13:42:21Z</time>
      </trkpt>
      <trkpt lat="44.73779" lon="6.83933">
        <ele>1826.8</ele>
        <time>2026-03-23T13:42:22Z</time>
      </trkpt>
      <trkpt lat="44.73779" lon="6.83933">
        <ele>1826.8</ele>
        <time>2026-03-23T13:42:23Z</time>
      </trkpt>
      <trkpt lat="44.73779" lon="6.83933">
        <ele>1826.8</ele>
        <time>2026-03-23T13:42:24Z</time>
      </trkpt>
      <trkpt lat="44.73779" lon="6.83933">
        <ele>1826.8</ele>
        <time>2026-03-23T13:42:25Z</time>
      </trkpt>
      <trkpt lat="44.73779" lon="6.83933">
        <ele>1826.8</ele>
        <time>2026-03-23T13:42:26Z</time>
      </trkpt>
      <trkpt lat="44.73779" lon="6.83933">
        <ele>1826.8</ele>
        <time>2026-03-23T13:42:27Z</time>
      </trkpt>
      <trkpt lat="44.73779" lon="6.83933">
        <ele>1826.8</ele>
        <time>2026-03-23T13:42:28Z</time>
      </trkpt>
      <trkpt lat="44.73779" lon="6.83933">
        <ele>1826.8</ele>
        <time>2026-03-23T13:42:29Z</time>
      </trkpt>
      <trkpt lat="44.73779" lon="6.83933">
        <ele>1826.8</ele>
        <time>2026-03-23T13:42:30Z</time>
      </trkpt>
      <trkpt lat="44.73779" lon="6.83933">
        <ele>1826.8</ele>
        <time>2026-03-23T13:42:31Z</time>
      </trkpt>
      <trkpt lat="44.73779" lon="6.83933">
        <ele>1826.8</ele>
        <time>2026-03-23T13:42:32Z</time>
      </trkpt>
      <trkpt lat="44.73779" lon="6.83933">
        <ele>1826.8</ele>
        <time>2026-03-23T13:42:33Z</time>
      </trkpt>
      <trkpt lat="44.73779" lon="6.83933">
        <ele>1826.8</ele>
        <time>2026-03-23T13:42:34Z</time>
      </trkpt>
      <trkpt lat="44.73779" lon="6.83933">
        <ele>1826.8</ele>
        <time>2026-03-23T13:42:35Z</time>
      </trkpt>
      <trkpt lat="44.73778" lon="6.83933">
        <ele>1826.8</ele>
        <time>2026-03-23T13:42:36Z</time>
      </trkpt>
      <trkpt lat="44.73778" lon="6.83934">
        <ele>1826.7</ele>
        <time>2026-03-23T13:42:37Z</time>
      </trkpt>
      <trkpt lat="44.73778" lon="6.83936">
        <ele>1826.6</ele>
        <time>2026-03-23T13:42:38Z</time>
      </trkpt>
      <trkpt lat="44.73778" lon="6.83937">
        <ele>1826.6</ele>
        <time>2026-03-23T13:42:39Z</time>
      </trkpt>
      <trkpt lat="44.73779" lon="6.83937">
        <ele>1826.5</ele>
        <time>2026-03-23T13:42:40Z</time>
      </trkpt>
      <trkpt lat="44.73779" lon="6.83938">
        <ele>1826.5</ele>
        <time>2026-03-23T13:42:41Z</time>
      </trkpt>
      <trkpt lat="44.73779" lon="6.83938">
        <ele>1826.4</ele>
        <time>2026-03-23T13:42:42Z</time>
      </trkpt>
      <trkpt lat="44.73779" lon="6.83938">
        <ele>1826.4</ele>
        <time>2026-03-23T13:42:43Z</time>
      </trkpt>
      <trkpt lat="44.73779" lon="6.83939">
        <ele>1826.4</ele>
        <time>2026-03-23T13:42:44Z</time>
      </trkpt>
      <trkpt lat="44.73778" lon="6.83939">
        <ele>1826.3</ele>
        <time>2026-03-23T13:42:45Z</time>
      </trkpt>
      <trkpt lat="44.73778" lon="6.83939">
        <ele>1826.3</ele>
        <time>2026-03-23T13:42:46Z</time>
      </trkpt>
      <trkpt lat="44.73778" lon="6.83939">
        <ele>1826.3</ele>
        <time>2026-03-23T13:42:47Z</time>
      </trkpt>
      <trkpt lat="44.73778" lon="6.83939">
        <ele>1826.3</ele>
        <time>2026-03-23T13:42:48Z</time>
      </trkpt>
      <trkpt lat="44.73778" lon="6.8394">
        <ele>1826.3</ele>
        <time>2026-03-23T13:42:49Z</time>
      </trkpt>
      <trkpt lat="44.73777" lon="6.8394">
        <ele>1826.2</ele>
        <time>2026-03-23T13:42:50Z</time>
      </trkpt>
      <trkpt lat="44.73777" lon="6.8394">
        <ele>1826.2</ele>
        <time>2026-03-23T13:42:51Z</time>
      </trkpt>
      <trkpt lat="44.73777" lon="6.8394">
        <ele>1826.2</ele>
        <time>2026-03-23T13:42:52Z</time>
      </trkpt>
      <trkpt lat="44.73777" lon="6.8394">
        <ele>1826.2</ele>
        <time>2026-03-23T13:42:53Z</time>
      </trkpt>
      <trkpt lat="44.73777" lon="6.83941">
        <ele>1826.1</ele>
        <time>2026-03-23T13:42:54Z</time>
      </trkpt>
      <trkpt lat="44.73776" lon="6.83941">
        <ele>1826.1</ele>
        <time>2026-03-23T13:42:56Z</time>
      </trkpt>
      <trkpt lat="44.73776" lon="6.83941">
        <ele>1826.1</ele>
        <time>2026-03-23T13:42:57Z</time>
      </trkpt>
      <trkpt lat="44.73776" lon="6.83941">
        <ele>1826</ele>
        <time>2026-03-23T13:42:58Z</time>
      </trkpt>
      <trkpt lat="44.73776" lon="6.83942">
        <ele>1826</ele>
        <time>2026-03-23T13:42:59Z</time>
      </trkpt>
      <trkpt lat="44.73775" lon="6.83942">
        <ele>1826</ele>
        <time>2026-03-23T13:43:00Z</time>
      </trkpt>
      <trkpt lat="44.73775" lon="6.83942">
        <ele>1826</ele>
        <time>2026-03-23T13:43:02Z</time>
      </trkpt>
      <trkpt lat="44.73775" lon="6.83942">
        <ele>1825.9</ele>
        <time>2026-03-23T13:43:03Z</time>
      </trkpt>
      <trkpt lat="44.73775" lon="6.83942">
        <ele>1825.9</ele>
        <time>2026-03-23T13:43:04Z</time>
      </trkpt>
      <trkpt lat="44.73775" lon="6.83943">
        <ele>1825.9</ele>
        <time>2026-03-23T13:43:05Z</time>
      </trkpt>
      <trkpt lat="44.73774" lon="6.83943">
        <ele>1825.9</ele>
        <time>2026-03-23T13:43:07Z</time>
      </trkpt>
      <trkpt lat="44.73774" lon="6.83943">
        <ele>1825.8</ele>
        <time>2026-03-23T13:43:08Z</time>
      </trkpt>
      <trkpt lat="44.73774" lon="6.83943">
        <ele>1825.8</ele>
        <time>2026-03-23T13:43:09Z</time>
      </trkpt>
      <trkpt lat="44.73774" lon="6.83943">
        <ele>1825.8</ele>
        <time>2026-03-23T13:43:10Z</time>
      </trkpt>
      <trkpt lat="44.73772" lon="6.83944">
        <ele>1825.6</ele>
        <time>2026-03-23T13:43:11Z</time>
      </trkpt>
      <trkpt lat="44.7377" lon="6.83945">
        <ele>1825.5</ele>
        <time>2026-03-23T13:43:12Z</time>
      </trkpt>
      <trkpt lat="44.73768" lon="6.83945">
        <ele>1825.2</ele>
        <time>2026-03-23T13:43:13Z</time>
      </trkpt>
      <trkpt lat="44.73767" lon="6.83945">
        <ele>1825.2</ele>
        <time>2026-03-23T13:43:14Z</time>
      </trkpt>
      <trkpt lat="44.73767" lon="6.83945">
        <ele>1825.1</ele>
        <time>2026-03-23T13:43:15Z</time>
      </trkpt>
      <trkpt lat="44.73765" lon="6.83946">
        <ele>1825</ele>
        <time>2026-03-23T13:43:16Z</time>
      </trkpt>
      <trkpt lat="44.73764" lon="6.83945">
        <ele>1824.9</ele>
        <time>2026-03-23T13:43:17Z</time>
      </trkpt>
      <trkpt lat="44.73763" lon="6.83945">
        <ele>1824.8</ele>
        <time>2026-03-23T13:43:18Z</time>
      </trkpt>
      <trkpt lat="44.7376" lon="6.83944">
        <ele>1824.6</ele>
        <time>2026-03-23T13:43:19Z</time>
      </trkpt>
      <trkpt lat="44.73759" lon="6.83943">
        <ele>1824.5</ele>
        <time>2026-03-23T13:43:21Z</time>
      </trkpt>
      <trkpt lat="44.73758" lon="6.83942">
        <ele>1824.4</ele>
        <time>2026-03-23T13:43:22Z</time>
      </trkpt>
      <trkpt lat="44.73757" lon="6.83942">
        <ele>1824.3</ele>
        <time>2026-03-23T13:43:24Z</time>
      </trkpt>
      <trkpt lat="44.73756" lon="6.83942">
        <ele>1824.3</ele>
        <time>2026-03-23T13:43:25Z</time>
      </trkpt>
      <trkpt lat="44.73755" lon="6.83942">
        <ele>1824.2</ele>
        <time>2026-03-23T13:43:26Z</time>
      </trkpt>
      <trkpt lat="44.73752" lon="6.83942">
        <ele>1824</ele>
        <time>2026-03-23T13:43:27Z</time>
      </trkpt>
      <trkpt lat="44.73751" lon="6.83942">
        <ele>1823.9</ele>
        <time>2026-03-23T13:43:28Z</time>
      </trkpt>
      <trkpt lat="44.73749" lon="6.83942">
        <ele>1823.8</ele>
        <time>2026-03-23T13:43:30Z</time>
      </trkpt>
      <trkpt lat="44.73748" lon="6.83942">
        <ele>1823.8</ele>
        <time>2026-03-23T13:43:32Z</time>
      </trkpt>
      <trkpt lat="44.73747" lon="6.83943">
        <ele>1823.7</ele>
        <time>2026-03-23T13:43:33Z</time>
      </trkpt>
      <trkpt lat="44.73745" lon="6.83943">
        <ele>1823.6</ele>
        <time>2026-03-23T13:43:34Z</time>
      </trkpt>
      <trkpt lat="44.73744" lon="6.83943">
        <ele>1823.6</ele>
        <time>2026-03-23T13:43:35Z</time>
      </trkpt>
      <trkpt lat="44.73743" lon="6.83943">
        <ele>1823.5</ele>
        <time>2026-03-23T13:43:37Z</time>
      </trkpt>
      <trkpt lat="44.73742" lon="6.83943">
        <ele>1823.5</ele>
        <time>2026-03-23T13:43:38Z</time>
      </trkpt>
      <trkpt lat="44.73741" lon="6.83943">
        <ele>1823.4</ele>
        <time>2026-03-23T13:43:39Z</time>
      </trkpt>
      <trkpt lat="44.7374" lon="6.83943">
        <ele>1823.4</ele>
        <time>2026-03-23T13:43:40Z</time>
      </trkpt>
      <trkpt lat="44.7374" lon="6.83943">
        <ele>1823.4</ele>
        <time>2026-03-23T13:43:41Z</time>
      </trkpt>
      <trkpt lat="44.73739" lon="6.83943">
        <ele>1823.4</ele>
        <time>2026-03-23T13:43:42Z</time>
      </trkpt>
      <trkpt lat="44.73738" lon="6.83943">
        <ele>1823.3</ele>
        <time>2026-03-23T13:43:43Z</time>
      </trkpt>
      <trkpt lat="44.73738" lon="6.83943">
        <ele>1823.3</ele>
        <time>2026-03-23T13:43:44Z</time>
      </trkpt>
      <trkpt lat="44.73738" lon="6.83943">
        <ele>1823.3</ele>
        <time>2026-03-23T13:43:45Z</time>
      </trkpt>
      <trkpt lat="44.73739" lon="6.83943">
        <ele>1823.3</ele>
        <time>2026-03-23T13:43:46Z</time>
      </trkpt>
      <trkpt lat="44.73739" lon="6.83943">
        <ele>1823.3</ele>
        <time>2026-03-23T13:43:47Z</time>
      </trkpt>
      <trkpt lat="44.73739" lon="6.83943">
        <ele>1823.3</ele>
        <time>2026-03-23T13:43:48Z</time>
      </trkpt>
      <trkpt lat="44.73738" lon="6.83944">
        <ele>1823.2</ele>
        <time>2026-03-23T13:43:49Z</time>
      </trkpt>
      <trkpt lat="44.73736" lon="6.83944">
        <ele>1823.2</ele>
        <time>2026-03-23T13:43:51Z</time>
      </trkpt>
      <trkpt lat="44.73735" lon="6.83944">
        <ele>1823.1</ele>
        <time>2026-03-23T13:43:52Z</time>
      </trkpt>
      <trkpt lat="44.73733" lon="6.83944">
        <ele>1823.1</ele>
        <time>2026-03-23T13:43:53Z</time>
      </trkpt>
      <trkpt lat="44.73732" lon="6.83944">
        <ele>1823</ele>
        <time>2026-03-23T13:43:54Z</time>
      </trkpt>
      <trkpt lat="44.73731" lon="6.83943">
        <ele>1823</ele>
        <time>2026-03-23T13:43:55Z</time>
      </trkpt>
      <trkpt lat="44.73729" lon="6.83943">
        <ele>1822.9</ele>
        <time>2026-03-23T13:43:56Z</time>
      </trkpt>
      <trkpt lat="44.73728" lon="6.83943">
        <ele>1822.9</ele>
        <time>2026-03-23T13:43:57Z</time>
      </trkpt>
      <trkpt lat="44.73726" lon="6.83943">
        <ele>1822.8</ele>
        <time>2026-03-23T13:43:58Z</time>
      </trkpt>
      <trkpt lat="44.73725" lon="6.83943">
        <ele>1822.8</ele>
        <time>2026-03-23T13:43:59Z</time>
      </trkpt>
      <trkpt lat="44.73724" lon="6.83944">
        <ele>1822.8</ele>
        <time>2026-03-23T13:44:00Z</time>
      </trkpt>
      <trkpt lat="44.73721" lon="6.83944">
        <ele>1822.7</ele>
        <time>2026-03-23T13:44:01Z</time>
      </trkpt>
      <trkpt lat="44.73719" lon="6.83944">
        <ele>1822.6</ele>
        <time>2026-03-23T13:44:03Z</time>
      </trkpt>
      <trkpt lat="44.73718" lon="6.83944">
        <ele>1822.6</ele>
        <time>2026-03-23T13:44:04Z</time>
      </trkpt>
      <trkpt lat="44.73717" lon="6.83944">
        <ele>1822.6</ele>
        <time>2026-03-23T13:44:06Z</time>
      </trkpt>
      <trkpt lat="44.73716" lon="6.83944">
        <ele>1822.6</ele>
        <time>2026-03-23T13:44:07Z</time>
      </trkpt>
      <trkpt lat="44.73715" lon="6.83945">
        <ele>1822.5</ele>
        <time>2026-03-23T13:44:08Z</time>
      </trkpt>
      <trkpt lat="44.73714" lon="6.83945">
        <ele>1822.5</ele>
        <time>2026-03-23T13:44:09Z</time>
      </trkpt>
      <trkpt lat="44.73713" lon="6.83945">
        <ele>1822.5</ele>
        <time>2026-03-23T13:44:10Z</time>
      </trkpt>
      <trkpt lat="44.73711" lon="6.83945">
        <ele>1822.4</ele>
        <time>2026-03-23T13:44:11Z</time>
      </trkpt>
      <trkpt lat="44.7371" lon="6.83944">
        <ele>1822.4</ele>
        <time>2026-03-23T13:44:12Z</time>
      </trkpt>
      <trkpt lat="44.73708" lon="6.83944">
        <ele>1822.4</ele>
        <time>2026-03-23T13:44:13Z</time>
      </trkpt>
      <trkpt lat="44.73708" lon="6.83943">
        <ele>1822.3</ele>
        <time>2026-03-23T13:44:14Z</time>
      </trkpt>
      <trkpt lat="44.73707" lon="6.83943">
        <ele>1822.3</ele>
        <time>2026-03-23T13:44:15Z</time>
      </trkpt>
      <trkpt lat="44.73705" lon="6.83942">
        <ele>1822.2</ele>
        <time>2026-03-23T13:44:16Z</time>
      </trkpt>
      <trkpt lat="44.73704" lon="6.83942">
        <ele>1822.1</ele>
        <time>2026-03-23T13:44:17Z</time>
      </trkpt>
      <trkpt lat="44.73703" lon="6.83942">
        <ele>1822.1</ele>
        <time>2026-03-23T13:44:18Z</time>
      </trkpt>
      <trkpt lat="44.73702" lon="6.83942">
        <ele>1822</ele>
        <time>2026-03-23T13:44:19Z</time>
      </trkpt>
      <trkpt lat="44.73701" lon="6.83943">
        <ele>1822</ele>
        <time>2026-03-23T13:44:20Z</time>
      </trkpt>
      <trkpt lat="44.737" lon="6.83943">
        <ele>1821.9</ele>
        <time>2026-03-23T13:44:21Z</time>
      </trkpt>
      <trkpt lat="44.73697" lon="6.83944">
        <ele>1821.8</ele>
        <time>2026-03-23T13:44:22Z</time>
      </trkpt>
      <trkpt lat="44.73695" lon="6.83944">
        <ele>1821.7</ele>
        <time>2026-03-23T13:44:24Z</time>
      </trkpt>
      <trkpt lat="44.73694" lon="6.83945">
        <ele>1821.7</ele>
        <time>2026-03-23T13:44:26Z</time>
      </trkpt>
      <trkpt lat="44.73693" lon="6.83945">
        <ele>1821.6</ele>
        <time>2026-03-23T13:44:27Z</time>
      </trkpt>
      <trkpt lat="44.73692" lon="6.83946">
        <ele>1821.5</ele>
        <time>2026-03-23T13:44:28Z</time>
      </trkpt>
      <trkpt lat="44.73691" lon="6.83946">
        <ele>1821.5</ele>
        <time>2026-03-23T13:44:29Z</time>
      </trkpt>
      <trkpt lat="44.7369" lon="6.83946">
        <ele>1821.4</ele>
        <time>2026-03-23T13:44:30Z</time>
      </trkpt>
      <trkpt lat="44.73689" lon="6.83947">
        <ele>1821.4</ele>
        <time>2026-03-23T13:44:31Z</time>
      </trkpt>
      <trkpt lat="44.73688" lon="6.83948">
        <ele>1821.3</ele>
        <time>2026-03-23T13:44:32Z</time>
      </trkpt>
      <trkpt lat="44.73687" lon="6.83949">
        <ele>1821.2</ele>
        <time>2026-03-23T13:44:34Z</time>
      </trkpt>
      <trkpt lat="44.73686" lon="6.8395">
        <ele>1821.1</ele>
        <time>2026-03-23T13:44:35Z</time>
      </trkpt>
      <trkpt lat="44.73685" lon="6.83951">
        <ele>1821</ele>
        <time>2026-03-23T13:44:36Z</time>
      </trkpt>
      <trkpt lat="44.73684" lon="6.83951">
        <ele>1820.9</ele>
        <time>2026-03-23T13:44:37Z</time>
      </trkpt>
      <trkpt lat="44.73682" lon="6.83953">
        <ele>1820.8</ele>
        <time>2026-03-23T13:44:38Z</time>
      </trkpt>
      <trkpt lat="44.73681" lon="6.83953">
        <ele>1820.7</ele>
        <time>2026-03-23T13:44:39Z</time>
      </trkpt>
      <trkpt lat="44.73681" lon="6.83954">
        <ele>1820.6</ele>
        <time>2026-03-23T13:44:40Z</time>
      </trkpt>
      <trkpt lat="44.73679" lon="6.83954">
        <ele>1820.5</ele>
        <time>2026-03-23T13:44:41Z</time>
      </trkpt>
      <trkpt lat="44.73678" lon="6.83955">
        <ele>1820.3</ele>
        <time>2026-03-23T13:44:42Z</time>
      </trkpt>
      <trkpt lat="44.73678" lon="6.83956">
        <ele>1820.2</ele>
        <time>2026-03-23T13:44:43Z</time>
      </trkpt>
      <trkpt lat="44.73677" lon="6.83957">
        <ele>1820.1</ele>
        <time>2026-03-23T13:44:44Z</time>
      </trkpt>
      <trkpt lat="44.73676" lon="6.83958">
        <ele>1819.9</ele>
        <time>2026-03-23T13:44:45Z</time>
      </trkpt>
      <trkpt lat="44.73674" lon="6.8396">
        <ele>1819.7</ele>
        <time>2026-03-23T13:44:46Z</time>
      </trkpt>
      <trkpt lat="44.73672" lon="6.83961">
        <ele>1819.4</ele>
        <time>2026-03-23T13:44:48Z</time>
      </trkpt>
      <trkpt lat="44.73671" lon="6.83962">
        <ele>1819.2</ele>
        <time>2026-03-23T13:44:49Z</time>
      </trkpt>
      <trkpt lat="44.7367" lon="6.83963">
        <ele>1819</ele>
        <time>2026-03-23T13:44:50Z</time>
      </trkpt>
      <trkpt lat="44.73669" lon="6.83963">
        <ele>1818.8</ele>
        <time>2026-03-23T13:44:52Z</time>
      </trkpt>
      <trkpt lat="44.73668" lon="6.83963">
        <ele>1818.6</ele>
        <time>2026-03-23T13:44:53Z</time>
      </trkpt>
      <trkpt lat="44.73666" lon="6.83963">
        <ele>1818.5</ele>
        <time>2026-03-23T13:44:54Z</time>
      </trkpt>
      <trkpt lat="44.73666" lon="6.83963">
        <ele>1818.3</ele>
        <time>2026-03-23T13:44:55Z</time>
      </trkpt>
      <trkpt lat="44.73665" lon="6.83964">
        <ele>1818.2</ele>
        <time>2026-03-23T13:44:56Z</time>
      </trkpt>
      <trkpt lat="44.73664" lon="6.83965">
        <ele>1818</ele>
        <time>2026-03-23T13:44:57Z</time>
      </trkpt>
      <trkpt lat="44.73664" lon="6.83966">
        <ele>1817.8</ele>
        <time>2026-03-23T13:44:58Z</time>
      </trkpt>
      <trkpt lat="44.73663" lon="6.83967">
        <ele>1817.7</ele>
        <time>2026-03-23T13:44:59Z</time>
      </trkpt>
      <trkpt lat="44.73662" lon="6.83968">
        <ele>1817.5</ele>
        <time>2026-03-23T13:45:00Z</time>
      </trkpt>
      <trkpt lat="44.73661" lon="6.83969">
        <ele>1817.3</ele>
        <time>2026-03-23T13:45:01Z</time>
      </trkpt>
      <trkpt lat="44.7366" lon="6.8397">
        <ele>1817.2</ele>
        <time>2026-03-23T13:45:02Z</time>
      </trkpt>
      <trkpt lat="44.73659" lon="6.8397">
        <ele>1817</ele>
        <time>2026-03-23T13:45:03Z</time>
      </trkpt>
      <trkpt lat="44.73658" lon="6.83971">
        <ele>1816.9</ele>
        <time>2026-03-23T13:45:04Z</time>
      </trkpt>
      <trkpt lat="44.73657" lon="6.83972">
        <ele>1816.7</ele>
        <time>2026-03-23T13:45:05Z</time>
      </trkpt>
      <trkpt lat="44.73655" lon="6.83973">
        <ele>1816.4</ele>
        <time>2026-03-23T13:45:06Z</time>
      </trkpt>
      <trkpt lat="44.73653" lon="6.83974">
        <ele>1816.2</ele>
        <time>2026-03-23T13:45:08Z</time>
      </trkpt>
      <trkpt lat="44.73651" lon="6.83974">
        <ele>1816</ele>
        <time>2026-03-23T13:45:10Z</time>
      </trkpt>
      <trkpt lat="44.73651" lon="6.83975">
        <ele>1815.8</ele>
        <time>2026-03-23T13:45:12Z</time>
      </trkpt>
      <trkpt lat="44.73649" lon="6.83977">
        <ele>1815.6</ele>
        <time>2026-03-23T13:45:13Z</time>
      </trkpt>
      <trkpt lat="44.73648" lon="6.83977">
        <ele>1815.5</ele>
        <time>2026-03-23T13:45:15Z</time>
      </trkpt>
      <trkpt lat="44.73647" lon="6.83977">
        <ele>1815.4</ele>
        <time>2026-03-23T13:45:16Z</time>
      </trkpt>
      <trkpt lat="44.73646" lon="6.83977">
        <ele>1815.3</ele>
        <time>2026-03-23T13:45:17Z</time>
      </trkpt>
      <trkpt lat="44.73645" lon="6.83977">
        <ele>1815.2</ele>
        <time>2026-03-23T13:45:18Z</time>
      </trkpt>
      <trkpt lat="44.73645" lon="6.83978">
        <ele>1815.1</ele>
        <time>2026-03-23T13:45:19Z</time>
      </trkpt>
      <trkpt lat="44.73645" lon="6.83979">
        <ele>1815.1</ele>
        <time>2026-03-23T13:45:20Z</time>
      </trkpt>
      <trkpt lat="44.73645" lon="6.83979">
        <ele>1815</ele>
        <time>2026-03-23T13:45:21Z</time>
      </trkpt>
      <trkpt lat="44.73645" lon="6.83979">
        <ele>1815</ele>
        <time>2026-03-23T13:45:22Z</time>
      </trkpt>
      <trkpt lat="44.73645" lon="6.83979">
        <ele>1815</ele>
        <time>2026-03-23T13:45:23Z</time>
      </trkpt>
      <trkpt lat="44.73645" lon="6.83978">
        <ele>1814.9</ele>
        <time>2026-03-23T13:45:24Z</time>
      </trkpt>
      <trkpt lat="44.73645" lon="6.83978">
        <ele>1814.9</ele>
        <time>2026-03-23T13:45:25Z</time>
      </trkpt>
      <trkpt lat="44.73645" lon="6.83978">
        <ele>1814.9</ele>
        <time>2026-03-23T13:45:26Z</time>
      </trkpt>
      <trkpt lat="44.73642" lon="6.83979">
        <ele>1814.6</ele>
        <time>2026-03-23T13:45:27Z</time>
      </trkpt>
      <trkpt lat="44.73641" lon="6.8398">
        <ele>1814.5</ele>
        <time>2026-03-23T13:45:29Z</time>
      </trkpt>
      <trkpt lat="44.73639" lon="6.83979">
        <ele>1814.3</ele>
        <time>2026-03-23T13:45:30Z</time>
      </trkpt>
      <trkpt lat="44.73638" lon="6.83979">
        <ele>1814.2</ele>
        <time>2026-03-23T13:45:32Z</time>
      </trkpt>
      <trkpt lat="44.73637" lon="6.8398">
        <ele>1814.1</ele>
        <time>2026-03-23T13:45:33Z</time>
      </trkpt>
      <trkpt lat="44.73635" lon="6.83981">
        <ele>1813.9</ele>
        <time>2026-03-23T13:45:34Z</time>
      </trkpt>
      <trkpt lat="44.73633" lon="6.83982">
        <ele>1813.9</ele>
        <time>2026-03-23T13:45:36Z</time>
      </trkpt>
      <trkpt lat="44.73632" lon="6.83981">
        <ele>1813.8</ele>
        <time>2026-03-23T13:45:37Z</time>
      </trkpt>
      <trkpt lat="44.7363" lon="6.83983">
        <ele>1813.6</ele>
        <time>2026-03-23T13:45:38Z</time>
      </trkpt>
      <trkpt lat="44.73628" lon="6.83985">
        <ele>1813.4</ele>
        <time>2026-03-23T13:45:40Z</time>
      </trkpt>
      <trkpt lat="44.73627" lon="6.83985">
        <ele>1813.3</ele>
        <time>2026-03-23T13:45:41Z</time>
      </trkpt>
      <trkpt lat="44.73626" lon="6.83986">
        <ele>1813.3</ele>
        <time>2026-03-23T13:45:43Z</time>
      </trkpt>
      <trkpt lat="44.73625" lon="6.83986">
        <ele>1813.2</ele>
        <time>2026-03-23T13:45:44Z</time>
      </trkpt>
      <trkpt lat="44.73624" lon="6.83986">
        <ele>1813.1</ele>
        <time>2026-03-23T13:45:45Z</time>
      </trkpt>
      <trkpt lat="44.73623" lon="6.83987">
        <ele>1813.1</ele>
        <time>2026-03-23T13:45:46Z</time>
      </trkpt>
      <trkpt lat="44.73621" lon="6.83988">
        <ele>1812.9</ele>
        <time>2026-03-23T13:45:47Z</time>
      </trkpt>
      <trkpt lat="44.7362" lon="6.83988">
        <ele>1812.8</ele>
        <time>2026-03-23T13:45:49Z</time>
      </trkpt>
      <trkpt lat="44.73618" lon="6.83989">
        <ele>1812.6</ele>
        <time>2026-03-23T13:45:50Z</time>
      </trkpt>
      <trkpt lat="44.73617" lon="6.8399">
        <ele>1812.6</ele>
        <time>2026-03-23T13:45:52Z</time>
      </trkpt>
      <trkpt lat="44.73616" lon="6.8399">
        <ele>1812.5</ele>
        <time>2026-03-23T13:45:53Z</time>
      </trkpt>
      <trkpt lat="44.73615" lon="6.8399">
        <ele>1812.4</ele>
        <time>2026-03-23T13:45:54Z</time>
      </trkpt>
      <trkpt lat="44.73614" lon="6.8399">
        <ele>1812.4</ele>
        <time>2026-03-23T13:45:55Z</time>
      </trkpt>
      <trkpt lat="44.73612" lon="6.8399">
        <ele>1812.3</ele>
        <time>2026-03-23T13:45:56Z</time>
      </trkpt>
      <trkpt lat="44.73611" lon="6.8399">
        <ele>1812.2</ele>
        <time>2026-03-23T13:45:57Z</time>
      </trkpt>
      <trkpt lat="44.7361" lon="6.83989">
        <ele>1812.1</ele>
        <time>2026-03-23T13:45:58Z</time>
      </trkpt>
      <trkpt lat="44.73609" lon="6.83989">
        <ele>1812</ele>
        <time>2026-03-23T13:45:59Z</time>
      </trkpt>
      <trkpt lat="44.73608" lon="6.83989">
        <ele>1812</ele>
        <time>2026-03-23T13:46:00Z</time>
      </trkpt>
      <trkpt lat="44.73606" lon="6.8399">
        <ele>1811.8</ele>
        <time>2026-03-23T13:46:01Z</time>
      </trkpt>
      <trkpt lat="44.73605" lon="6.8399">
        <ele>1811.7</ele>
        <time>2026-03-23T13:46:03Z</time>
      </trkpt>
      <trkpt lat="44.73604" lon="6.8399">
        <ele>1811.6</ele>
        <time>2026-03-23T13:46:04Z</time>
      </trkpt>
      <trkpt lat="44.73603" lon="6.8399">
        <ele>1811.5</ele>
        <time>2026-03-23T13:46:05Z</time>
      </trkpt>
      <trkpt lat="44.73602" lon="6.83989">
        <ele>1811.4</ele>
        <time>2026-03-23T13:46:06Z</time>
      </trkpt>
      <trkpt lat="44.73601" lon="6.83989">
        <ele>1811.3</ele>
        <time>2026-03-23T13:46:07Z</time>
      </trkpt>
      <trkpt lat="44.73598" lon="6.8399">
        <ele>1811.1</ele>
        <time>2026-03-23T13:46:08Z</time>
      </trkpt>
      <trkpt lat="44.73598" lon="6.8399">
        <ele>1811</ele>
        <time>2026-03-23T13:46:10Z</time>
      </trkpt>
      <trkpt lat="44.73595" lon="6.83991">
        <ele>1810.8</ele>
        <time>2026-03-23T13:46:11Z</time>
      </trkpt>
      <trkpt lat="44.73594" lon="6.83992">
        <ele>1810.7</ele>
        <time>2026-03-23T13:46:13Z</time>
      </trkpt>
      <trkpt lat="44.73594" lon="6.83992">
        <ele>1810.6</ele>
        <time>2026-03-23T13:46:14Z</time>
      </trkpt>
      <trkpt lat="44.73592" lon="6.83992">
        <ele>1810.4</ele>
        <time>2026-03-23T13:46:15Z</time>
      </trkpt>
      <trkpt lat="44.73591" lon="6.83993">
        <ele>1810.3</ele>
        <time>2026-03-23T13:46:16Z</time>
      </trkpt>
      <trkpt lat="44.7359" lon="6.83993">
        <ele>1810.2</ele>
        <time>2026-03-23T13:46:17Z</time>
      </trkpt>
      <trkpt lat="44.73589" lon="6.83993">
        <ele>1810</ele>
        <time>2026-03-23T13:46:18Z</time>
      </trkpt>
      <trkpt lat="44.73587" lon="6.83993">
        <ele>1809.9</ele>
        <time>2026-03-23T13:46:19Z</time>
      </trkpt>
      <trkpt lat="44.73586" lon="6.83993">
        <ele>1809.8</ele>
        <time>2026-03-23T13:46:20Z</time>
      </trkpt>
      <trkpt lat="44.73585" lon="6.83991">
        <ele>1809.6</ele>
        <time>2026-03-23T13:46:21Z</time>
      </trkpt>
      <trkpt lat="44.73583" lon="6.83992">
        <ele>1809.4</ele>
        <time>2026-03-23T13:46:23Z</time>
      </trkpt>
      <trkpt lat="44.7358" lon="6.83993">
        <ele>1809.1</ele>
        <time>2026-03-23T13:46:25Z</time>
      </trkpt>
      <trkpt lat="44.7358" lon="6.83993">
        <ele>1809</ele>
        <time>2026-03-23T13:46:26Z</time>
      </trkpt>
      <trkpt lat="44.73577" lon="6.83993">
        <ele>1808.8</ele>
        <time>2026-03-23T13:46:27Z</time>
      </trkpt>
      <trkpt lat="44.73576" lon="6.83994">
        <ele>1808.7</ele>
        <time>2026-03-23T13:46:29Z</time>
      </trkpt>
      <trkpt lat="44.73574" lon="6.83994">
        <ele>1808.5</ele>
        <time>2026-03-23T13:46:30Z</time>
      </trkpt>
      <trkpt lat="44.73573" lon="6.83995">
        <ele>1808.3</ele>
        <time>2026-03-23T13:46:32Z</time>
      </trkpt>
      <trkpt lat="44.73572" lon="6.83995">
        <ele>1808.2</ele>
        <time>2026-03-23T13:46:33Z</time>
      </trkpt>
      <trkpt lat="44.73571" lon="6.83994">
        <ele>1808.1</ele>
        <time>2026-03-23T13:46:34Z</time>
      </trkpt>
      <trkpt lat="44.7357" lon="6.83994">
        <ele>1808</ele>
        <time>2026-03-23T13:46:35Z</time>
      </trkpt>
      <trkpt lat="44.73567" lon="6.83992">
        <ele>1807.7</ele>
        <time>2026-03-23T13:46:36Z</time>
      </trkpt>
      <trkpt lat="44.73567" lon="6.83991">
        <ele>1807.6</ele>
        <time>2026-03-23T13:46:38Z</time>
      </trkpt>
      <trkpt lat="44.73566" lon="6.83991">
        <ele>1807.5</ele>
        <time>2026-03-23T13:46:39Z</time>
      </trkpt>
      <trkpt lat="44.73565" lon="6.8399">
        <ele>1807.4</ele>
        <time>2026-03-23T13:46:40Z</time>
      </trkpt>
      <trkpt lat="44.73564" lon="6.83989">
        <ele>1807.3</ele>
        <time>2026-03-23T13:46:41Z</time>
      </trkpt>
      <trkpt lat="44.73563" lon="6.83988">
        <ele>1807.2</ele>
        <time>2026-03-23T13:46:42Z</time>
      </trkpt>
      <trkpt lat="44.73563" lon="6.83986">
        <ele>1807</ele>
        <time>2026-03-23T13:46:43Z</time>
      </trkpt>
      <trkpt lat="44.73564" lon="6.83985">
        <ele>1806.9</ele>
        <time>2026-03-23T13:46:44Z</time>
      </trkpt>
      <trkpt lat="44.73564" lon="6.83984">
        <ele>1806.8</ele>
        <time>2026-03-23T13:46:45Z</time>
      </trkpt>
      <trkpt lat="44.73564" lon="6.83982">
        <ele>1806.7</ele>
        <time>2026-03-23T13:46:46Z</time>
      </trkpt>
      <trkpt lat="44.73564" lon="6.83981">
        <ele>1806.6</ele>
        <time>2026-03-23T13:46:47Z</time>
      </trkpt>
      <trkpt lat="44.73562" lon="6.83979">
        <ele>1806.4</ele>
        <time>2026-03-23T13:46:48Z</time>
      </trkpt>
      <trkpt lat="44.73561" lon="6.83978">
        <ele>1806.3</ele>
        <time>2026-03-23T13:46:50Z</time>
      </trkpt>
      <trkpt lat="44.73562" lon="6.83977">
        <ele>1806.2</ele>
        <time>2026-03-23T13:46:51Z</time>
      </trkpt>
      <trkpt lat="44.73563" lon="6.83977">
        <ele>1806.2</ele>
        <time>2026-03-23T13:46:52Z</time>
      </trkpt>
      <trkpt lat="44.73563" lon="6.83978">
        <ele>1806.2</ele>
        <time>2026-03-23T13:46:53Z</time>
      </trkpt>
      <trkpt lat="44.73563" lon="6.83978">
        <ele>1806.1</ele>
        <time>2026-03-23T13:46:54Z</time>
      </trkpt>
      <trkpt lat="44.73563" lon="6.83978">
        <ele>1806.1</ele>
        <time>2026-03-23T13:46:55Z</time>
      </trkpt>
      <trkpt lat="44.73562" lon="6.83979">
        <ele>1806.1</ele>
        <time>2026-03-23T13:46:56Z</time>
      </trkpt>
      <trkpt lat="44.73561" lon="6.8398">
        <ele>1806</ele>
        <time>2026-03-23T13:46:57Z</time>
      </trkpt>
      <trkpt lat="44.7356" lon="6.8398">
        <ele>1805.9</ele>
        <time>2026-03-23T13:46:58Z</time>
      </trkpt>
      <trkpt lat="44.73558" lon="6.83981">
        <ele>1805.8</ele>
        <time>2026-03-23T13:46:59Z</time>
      </trkpt>
      <trkpt lat="44.73557" lon="6.83981">
        <ele>1805.7</ele>
        <time>2026-03-23T13:47:00Z</time>
      </trkpt>
      <trkpt lat="44.73554" lon="6.83982">
        <ele>1805.6</ele>
        <time>2026-03-23T13:47:01Z</time>
      </trkpt>
      <trkpt lat="44.73552" lon="6.83983">
        <ele>1805.5</ele>
        <time>2026-03-23T13:47:03Z</time>
      </trkpt>
      <trkpt lat="44.7355" lon="6.83984">
        <ele>1805.3</ele>
        <time>2026-03-23T13:47:04Z</time>
      </trkpt>
      <trkpt lat="44.73548" lon="6.83985">
        <ele>1805.2</ele>
        <time>2026-03-23T13:47:06Z</time>
      </trkpt>
      <trkpt lat="44.73546" lon="6.83986">
        <ele>1805.1</ele>
        <time>2026-03-23T13:47:07Z</time>
      </trkpt>
      <trkpt lat="44.73544" lon="6.83987">
        <ele>1805</ele>
        <time>2026-03-23T13:47:09Z</time>
      </trkpt>
      <trkpt lat="44.73543" lon="6.83987">
        <ele>1805</ele>
        <time>2026-03-23T13:47:10Z</time>
      </trkpt>
      <trkpt lat="44.73542" lon="6.83987">
        <ele>1804.9</ele>
        <time>2026-03-23T13:47:11Z</time>
      </trkpt>
      <trkpt lat="44.73541" lon="6.83987">
        <ele>1804.9</ele>
        <time>2026-03-23T13:47:12Z</time>
      </trkpt>
      <trkpt lat="44.73541" lon="6.83987">
        <ele>1804.8</ele>
        <time>2026-03-23T13:47:13Z</time>
      </trkpt>
      <trkpt lat="44.73539" lon="6.83987">
        <ele>1804.8</ele>
        <time>2026-03-23T13:47:14Z</time>
      </trkpt>
      <trkpt lat="44.73538" lon="6.83987">
        <ele>1804.7</ele>
        <time>2026-03-23T13:47:15Z</time>
      </trkpt>
      <trkpt lat="44.73537" lon="6.83987">
        <ele>1804.7</ele>
        <time>2026-03-23T13:47:16Z</time>
      </trkpt>
      <trkpt lat="44.73537" lon="6.83987">
        <ele>1804.6</ele>
        <time>2026-03-23T13:47:17Z</time>
      </trkpt>
      <trkpt lat="44.73536" lon="6.83986">
        <ele>1804.6</ele>
        <time>2026-03-23T13:47:18Z</time>
      </trkpt>
      <trkpt lat="44.73535" lon="6.83986">
        <ele>1804.6</ele>
        <time>2026-03-23T13:47:19Z</time>
      </trkpt>
      <trkpt lat="44.73534" lon="6.83986">
        <ele>1804.5</ele>
        <time>2026-03-23T13:47:20Z</time>
      </trkpt>
      <trkpt lat="44.73533" lon="6.83986">
        <ele>1804.4</ele>
        <time>2026-03-23T13:47:21Z</time>
      </trkpt>
      <trkpt lat="44.73532" lon="6.83985">
        <ele>1804.4</ele>
        <time>2026-03-23T13:47:22Z</time>
      </trkpt>
      <trkpt lat="44.73531" lon="6.83986">
        <ele>1804.3</ele>
        <time>2026-03-23T13:47:23Z</time>
      </trkpt>
      <trkpt lat="44.73529" lon="6.83986">
        <ele>1804.2</ele>
        <time>2026-03-23T13:47:24Z</time>
      </trkpt>
      <trkpt lat="44.73528" lon="6.83986">
        <ele>1804.2</ele>
        <time>2026-03-23T13:47:26Z</time>
      </trkpt>
      <trkpt lat="44.73527" lon="6.83986">
        <ele>1804.1</ele>
        <time>2026-03-23T13:47:27Z</time>
      </trkpt>
      <trkpt lat="44.73524" lon="6.83986">
        <ele>1804</ele>
        <time>2026-03-23T13:47:28Z</time>
      </trkpt>
      <trkpt lat="44.73523" lon="6.83986">
        <ele>1803.9</ele>
        <time>2026-03-23T13:47:30Z</time>
      </trkpt>
      <trkpt lat="44.73519" lon="6.83986">
        <ele>1803.8</ele>
        <time>2026-03-23T13:47:31Z</time>
      </trkpt>
      <trkpt lat="44.73518" lon="6.83986">
        <ele>1803.7</ele>
        <time>2026-03-23T13:47:33Z</time>
      </trkpt>
      <trkpt lat="44.73517" lon="6.83985">
        <ele>1803.7</ele>
        <time>2026-03-23T13:47:34Z</time>
      </trkpt>
      <trkpt lat="44.73516" lon="6.83985">
        <ele>1803.6</ele>
        <time>2026-03-23T13:47:35Z</time>
      </trkpt>
      <trkpt lat="44.73513" lon="6.83985">
        <ele>1803.5</ele>
        <time>2026-03-23T13:47:37Z</time>
      </trkpt>
      <trkpt lat="44.73512" lon="6.83985">
        <ele>1803.4</ele>
        <time>2026-03-23T13:47:39Z</time>
      </trkpt>
      <trkpt lat="44.73511" lon="6.83985">
        <ele>1803.4</ele>
        <time>2026-03-23T13:47:40Z</time>
      </trkpt>
      <trkpt lat="44.7351" lon="6.83985">
        <ele>1803.3</ele>
        <time>2026-03-23T13:47:41Z</time>
      </trkpt>
      <trkpt lat="44.73509" lon="6.83986">
        <ele>1803.3</ele>
        <time>2026-03-23T13:47:42Z</time>
      </trkpt>
      <trkpt lat="44.73506" lon="6.83986">
        <ele>1803.1</ele>
        <time>2026-03-23T13:47:43Z</time>
      </trkpt>
      <trkpt lat="44.73505" lon="6.83987">
        <ele>1803</ele>
        <time>2026-03-23T13:47:45Z</time>
      </trkpt>
      <trkpt lat="44.73504" lon="6.83987">
        <ele>1803</ele>
        <time>2026-03-23T13:47:46Z</time>
      </trkpt>
      <trkpt lat="44.73503" lon="6.83988">
        <ele>1802.9</ele>
        <time>2026-03-23T13:47:47Z</time>
      </trkpt>
      <trkpt lat="44.73502" lon="6.83988">
        <ele>1802.9</ele>
        <time>2026-03-23T13:47:48Z</time>
      </trkpt>
      <trkpt lat="44.735" lon="6.8399">
        <ele>1802.8</ele>
        <time>2026-03-23T13:47:49Z</time>
      </trkpt>
      <trkpt lat="44.73499" lon="6.8399">
        <ele>1802.7</ele>
        <time>2026-03-23T13:47:51Z</time>
      </trkpt>
      <trkpt lat="44.73498" lon="6.83991">
        <ele>1802.6</ele>
        <time>2026-03-23T13:47:52Z</time>
      </trkpt>
      <trkpt lat="44.73496" lon="6.83992">
        <ele>1802.6</ele>
        <time>2026-03-23T13:47:53Z</time>
      </trkpt>
      <trkpt lat="44.73495" lon="6.83992">
        <ele>1802.5</ele>
        <time>2026-03-23T13:47:54Z</time>
      </trkpt>
      <trkpt lat="44.73493" lon="6.83993">
        <ele>1802.4</ele>
        <time>2026-03-23T13:47:55Z</time>
      </trkpt>
      <trkpt lat="44.73491" lon="6.83994">
        <ele>1802.2</ele>
        <time>2026-03-23T13:47:56Z</time>
      </trkpt>
      <trkpt lat="44.73489" lon="6.83994">
        <ele>1802.1</ele>
        <time>2026-03-23T13:47:58Z</time>
      </trkpt>
      <trkpt lat="44.73488" lon="6.83994">
        <ele>1802.1</ele>
        <time>2026-03-23T13:47:59Z</time>
      </trkpt>
      <trkpt lat="44.73487" lon="6.83995">
        <ele>1802</ele>
        <time>2026-03-23T13:48:01Z</time>
      </trkpt>
      <trkpt lat="44.73485" lon="6.83996">
        <ele>1801.8</ele>
        <time>2026-03-23T13:48:02Z</time>
      </trkpt>
      <trkpt lat="44.73484" lon="6.83997">
        <ele>1801.8</ele>
        <time>2026-03-23T13:48:04Z</time>
      </trkpt>
      <trkpt lat="44.73483" lon="6.83997">
        <ele>1801.7</ele>
        <time>2026-03-23T13:48:05Z</time>
      </trkpt>
      <trkpt lat="44.73482" lon="6.83998">
        <ele>1801.6</ele>
        <time>2026-03-23T13:48:06Z</time>
      </trkpt>
      <trkpt lat="44.73481" lon="6.83998">
        <ele>1801.5</ele>
        <time>2026-03-23T13:48:07Z</time>
      </trkpt>
      <trkpt lat="44.73479" lon="6.84">
        <ele>1801.4</ele>
        <time>2026-03-23T13:48:08Z</time>
      </trkpt>
      <trkpt lat="44.73478" lon="6.84001">
        <ele>1801.4</ele>
        <time>2026-03-23T13:48:10Z</time>
      </trkpt>
      <trkpt lat="44.73476" lon="6.84002">
        <ele>1801.3</ele>
        <time>2026-03-23T13:48:11Z</time>
      </trkpt>
      <trkpt lat="44.73475" lon="6.84003">
        <ele>1801.3</ele>
        <time>2026-03-23T13:48:12Z</time>
      </trkpt>
      <trkpt lat="44.73474" lon="6.84004">
        <ele>1801.3</ele>
        <time>2026-03-23T13:48:14Z</time>
      </trkpt>
      <trkpt lat="44.73473" lon="6.84005">
        <ele>1801.3</ele>
        <time>2026-03-23T13:48:15Z</time>
      </trkpt>
      <trkpt lat="44.73472" lon="6.84006">
        <ele>1801.3</ele>
        <time>2026-03-23T13:48:16Z</time>
      </trkpt>
      <trkpt lat="44.73471" lon="6.84007">
        <ele>1801.3</ele>
        <time>2026-03-23T13:48:17Z</time>
      </trkpt>
      <trkpt lat="44.7347" lon="6.84008">
        <ele>1801.2</ele>
        <time>2026-03-23T13:48:18Z</time>
      </trkpt>
      <trkpt lat="44.73469" lon="6.8401">
        <ele>1801.1</ele>
        <time>2026-03-23T13:48:19Z</time>
      </trkpt>
      <trkpt lat="44.73468" lon="6.84011">
        <ele>1801</ele>
        <time>2026-03-23T13:48:21Z</time>
      </trkpt>
      <trkpt lat="44.73467" lon="6.84013">
        <ele>1800.8</ele>
        <time>2026-03-23T13:48:22Z</time>
      </trkpt>
      <trkpt lat="44.73465" lon="6.84015">
        <ele>1800.6</ele>
        <time>2026-03-23T13:48:24Z</time>
      </trkpt>
      <trkpt lat="44.73464" lon="6.84016">
        <ele>1800.5</ele>
        <time>2026-03-23T13:48:25Z</time>
      </trkpt>
      <trkpt lat="44.73464" lon="6.84016">
        <ele>1800.5</ele>
        <time>2026-03-23T13:48:26Z</time>
      </trkpt>
      <trkpt lat="44.73462" lon="6.84019">
        <ele>1800.3</ele>
        <time>2026-03-23T13:48:27Z</time>
      </trkpt>
      <trkpt lat="44.73461" lon="6.8402">
        <ele>1800.1</ele>
        <time>2026-03-23T13:48:29Z</time>
      </trkpt>
      <trkpt lat="44.7346" lon="6.84022">
        <ele>1800</ele>
        <time>2026-03-23T13:48:30Z</time>
      </trkpt>
      <trkpt lat="44.73459" lon="6.84023">
        <ele>1799.9</ele>
        <time>2026-03-23T13:48:31Z</time>
      </trkpt>
      <trkpt lat="44.73458" lon="6.84024">
        <ele>1799.8</ele>
        <time>2026-03-23T13:48:32Z</time>
      </trkpt>
      <trkpt lat="44.73459" lon="6.84024">
        <ele>1799.8</ele>
        <time>2026-03-23T13:48:33Z</time>
      </trkpt>
      <trkpt lat="44.7346" lon="6.84024">
        <ele>1799.7</ele>
        <time>2026-03-23T13:48:34Z</time>
      </trkpt>
      <trkpt lat="44.7346" lon="6.84024">
        <ele>1799.7</ele>
        <time>2026-03-23T13:48:35Z</time>
      </trkpt>
      <trkpt lat="44.73461" lon="6.84023">
        <ele>1799.6</ele>
        <time>2026-03-23T13:48:36Z</time>
      </trkpt>
      <trkpt lat="44.73461" lon="6.84023">
        <ele>1799.6</ele>
        <time>2026-03-23T13:48:38Z</time>
      </trkpt>
      <trkpt lat="44.73461" lon="6.84023">
        <ele>1799.6</ele>
        <time>2026-03-23T13:48:39Z</time>
      </trkpt>
      <trkpt lat="44.73461" lon="6.84023">
        <ele>1799.6</ele>
        <time>2026-03-23T13:48:40Z</time>
      </trkpt>
      <trkpt lat="44.73461" lon="6.84023">
        <ele>1799.6</ele>
        <time>2026-03-23T13:48:41Z</time>
      </trkpt>
      <trkpt lat="44.73461" lon="6.84023">
        <ele>1799.6</ele>
        <time>2026-03-23T13:48:42Z</time>
      </trkpt>
      <trkpt lat="44.73461" lon="6.84023">
        <ele>1799.6</ele>
        <time>2026-03-23T13:48:43Z</time>
      </trkpt>
      <trkpt lat="44.73461" lon="6.84023">
        <ele>1799.5</ele>
        <time>2026-03-23T13:48:44Z</time>
      </trkpt>
      <trkpt lat="44.73461" lon="6.84023">
        <ele>1799.5</ele>
        <time>2026-03-23T13:48:45Z</time>
      </trkpt>
      <trkpt lat="44.73461" lon="6.84023">
        <ele>1799.5</ele>
        <time>2026-03-23T13:48:46Z</time>
      </trkpt>
      <trkpt lat="44.73461" lon="6.84023">
        <ele>1799.5</ele>
        <time>2026-03-23T13:48:47Z</time>
      </trkpt>
      <trkpt lat="44.73461" lon="6.84023">
        <ele>1799.5</ele>
        <time>2026-03-23T13:48:48Z</time>
      </trkpt>
      <trkpt lat="44.73461" lon="6.84023">
        <ele>1799.5</ele>
        <time>2026-03-23T13:48:49Z</time>
      </trkpt>
      <trkpt lat="44.73461" lon="6.84023">
        <ele>1799.5</ele>
        <time>2026-03-23T13:48:50Z</time>
      </trkpt>
      <trkpt lat="44.73461" lon="6.84023">
        <ele>1799.5</ele>
        <time>2026-03-23T13:48:51Z</time>
      </trkpt>
      <trkpt lat="44.73461" lon="6.84024">
        <ele>1799.5</ele>
        <time>2026-03-23T13:48:52Z</time>
      </trkpt>
      <trkpt lat="44.7346" lon="6.84024">
        <ele>1799.5</ele>
        <time>2026-03-23T13:48:53Z</time>
      </trkpt>
      <trkpt lat="44.7346" lon="6.84024">
        <ele>1799.5</ele>
        <time>2026-03-23T13:48:54Z</time>
      </trkpt>
      <trkpt lat="44.7346" lon="6.84024">
        <ele>1799.5</ele>
        <time>2026-03-23T13:48:55Z</time>
      </trkpt>
      <trkpt lat="44.7346" lon="6.84024">
        <ele>1799.5</ele>
        <time>2026-03-23T13:48:56Z</time>
      </trkpt>
      <trkpt lat="44.7346" lon="6.84024">
        <ele>1799.4</ele>
        <time>2026-03-23T13:48:57Z</time>
      </trkpt>
      <trkpt lat="44.7346" lon="6.84024">
        <ele>1799.4</ele>
        <time>2026-03-23T13:48:58Z</time>
      </trkpt>
      <trkpt lat="44.7346" lon="6.84024">
        <ele>1799.4</ele>
        <time>2026-03-23T13:48:59Z</time>
      </trkpt>
      <trkpt lat="44.7346" lon="6.84024">
        <ele>1799.4</ele>
        <time>2026-03-23T13:49:00Z</time>
      </trkpt>
      <trkpt lat="44.7346" lon="6.84024">
        <ele>1799.4</ele>
        <time>2026-03-23T13:49:01Z</time>
      </trkpt>
      <trkpt lat="44.7346" lon="6.84025">
        <ele>1799.4</ele>
        <time>2026-03-23T13:49:02Z</time>
      </trkpt>
      <trkpt lat="44.7346" lon="6.84025">
        <ele>1799.4</ele>
        <time>2026-03-23T13:49:03Z</time>
      </trkpt>
      <trkpt lat="44.7346" lon="6.84025">
        <ele>1799.4</ele>
        <time>2026-03-23T13:49:04Z</time>
      </trkpt>
      <trkpt lat="44.7346" lon="6.84025">
        <ele>1799.4</ele>
        <time>2026-03-23T13:49:05Z</time>
      </trkpt>
      <trkpt lat="44.7346" lon="6.84025">
        <ele>1799.4</ele>
        <time>2026-03-23T13:49:06Z</time>
      </trkpt>
      <trkpt lat="44.7346" lon="6.84025">
        <ele>1799.4</ele>
        <time>2026-03-23T13:49:07Z</time>
      </trkpt>
      <trkpt lat="44.7346" lon="6.84025">
        <ele>1799.4</ele>
        <time>2026-03-23T13:49:08Z</time>
      </trkpt>
      <trkpt lat="44.7346" lon="6.84025">
        <ele>1799.3</ele>
        <time>2026-03-23T13:49:09Z</time>
      </trkpt>
      <trkpt lat="44.7346" lon="6.84025">
        <ele>1799.3</ele>
        <time>2026-03-23T13:49:10Z</time>
      </trkpt>
      <trkpt lat="44.7346" lon="6.84026">
        <ele>1799.3</ele>
        <time>2026-03-23T13:49:11Z</time>
      </trkpt>
      <trkpt lat="44.73459" lon="6.84026">
        <ele>1799.3</ele>
        <time>2026-03-23T13:49:12Z</time>
      </trkpt>
      <trkpt lat="44.73459" lon="6.84026">
        <ele>1799.3</ele>
        <time>2026-03-23T13:49:13Z</time>
      </trkpt>
      <trkpt lat="44.73459" lon="6.84026">
        <ele>1799.3</ele>
        <time>2026-03-23T13:49:14Z</time>
      </trkpt>
      <trkpt lat="44.73459" lon="6.84026">
        <ele>1799.3</ele>
        <time>2026-03-23T13:49:15Z</time>
      </trkpt>
      <trkpt lat="44.73459" lon="6.84026">
        <ele>1799.3</ele>
        <time>2026-03-23T13:49:16Z</time>
      </trkpt>
      <trkpt lat="44.73459" lon="6.84026">
        <ele>1799.3</ele>
        <time>2026-03-23T13:49:17Z</time>
      </trkpt>
      <trkpt lat="44.73459" lon="6.84026">
        <ele>1799.3</ele>
        <time>2026-03-23T13:49:18Z</time>
      </trkpt>
      <trkpt lat="44.73459" lon="6.84026">
        <ele>1799.3</ele>
        <time>2026-03-23T13:49:19Z</time>
      </trkpt>
      <trkpt lat="44.73459" lon="6.84026">
        <ele>1799.3</ele>
        <time>2026-03-23T13:49:20Z</time>
      </trkpt>
      <trkpt lat="44.73459" lon="6.84027">
        <ele>1799.3</ele>
        <time>2026-03-23T13:49:21Z</time>
      </trkpt>
      <trkpt lat="44.73459" lon="6.84027">
        <ele>1799.2</ele>
        <time>2026-03-23T13:49:22Z</time>
      </trkpt>
      <trkpt lat="44.73459" lon="6.84027">
        <ele>1799.2</ele>
        <time>2026-03-23T13:49:23Z</time>
      </trkpt>
      <trkpt lat="44.73459" lon="6.84027">
        <ele>1799.2</ele>
        <time>2026-03-23T13:49:24Z</time>
      </trkpt>
      <trkpt lat="44.73459" lon="6.84027">
        <ele>1799.2</ele>
        <time>2026-03-23T13:49:25Z</time>
      </trkpt>
      <trkpt lat="44.73459" lon="6.84027">
        <ele>1799.2</ele>
        <time>2026-03-23T13:49:26Z</time>
      </trkpt>
      <trkpt lat="44.73459" lon="6.84027">
        <ele>1799.2</ele>
        <time>2026-03-23T13:49:27Z</time>
      </trkpt>
      <trkpt lat="44.73459" lon="6.84027">
        <ele>1799.2</ele>
        <time>2026-03-23T13:49:28Z</time>
      </trkpt>
      <trkpt lat="44.73459" lon="6.84027">
        <ele>1799.2</ele>
        <time>2026-03-23T13:49:29Z</time>
      </trkpt>
      <trkpt lat="44.73456" lon="6.84029">
        <ele>1799</ele>
        <time>2026-03-23T13:49:31Z</time>
      </trkpt>
      <trkpt lat="44.73456" lon="6.84032">
        <ele>1798.8</ele>
        <time>2026-03-23T13:49:33Z</time>
      </trkpt>
      <trkpt lat="44.73455" lon="6.84035">
        <ele>1798.6</ele>
        <time>2026-03-23T13:49:34Z</time>
      </trkpt>
      <trkpt lat="44.73454" lon="6.84036">
        <ele>1798.6</ele>
        <time>2026-03-23T13:49:36Z</time>
      </trkpt>
      <trkpt lat="44.73453" lon="6.84037">
        <ele>1798.5</ele>
        <time>2026-03-23T13:49:37Z</time>
      </trkpt>
      <trkpt lat="44.73453" lon="6.84038">
        <ele>1798.4</ele>
        <time>2026-03-23T13:49:38Z</time>
      </trkpt>
      <trkpt lat="44.73453" lon="6.84039">
        <ele>1798.4</ele>
        <time>2026-03-23T13:49:39Z</time>
      </trkpt>
      <trkpt lat="44.73454" lon="6.84041">
        <ele>1798.3</ele>
        <time>2026-03-23T13:49:40Z</time>
      </trkpt>
      <trkpt lat="44.73454" lon="6.84041">
        <ele>1798.3</ele>
        <time>2026-03-23T13:49:41Z</time>
      </trkpt>
      <trkpt lat="44.73454" lon="6.84041">
        <ele>1798.2</ele>
        <time>2026-03-23T13:49:42Z</time>
      </trkpt>
      <trkpt lat="44.73454" lon="6.84041">
        <ele>1798.2</ele>
        <time>2026-03-23T13:49:43Z</time>
      </trkpt>
      <trkpt lat="44.73454" lon="6.84041">
        <ele>1798.2</ele>
        <time>2026-03-23T13:49:44Z</time>
      </trkpt>
      <trkpt lat="44.73454" lon="6.84041">
        <ele>1798.2</ele>
        <time>2026-03-23T13:49:45Z</time>
      </trkpt>
      <trkpt lat="44.73454" lon="6.84041">
        <ele>1798.2</ele>
        <time>2026-03-23T13:49:46Z</time>
      </trkpt>
      <trkpt lat="44.73453" lon="6.84041">
        <ele>1798.2</ele>
        <time>2026-03-23T13:49:47Z</time>
      </trkpt>
      <trkpt lat="44.73453" lon="6.84042">
        <ele>1798.1</ele>
        <time>2026-03-23T13:49:48Z</time>
      </trkpt>
      <trkpt lat="44.73452" lon="6.84043">
        <ele>1798</ele>
        <time>2026-03-23T13:49:49Z</time>
      </trkpt>
      <trkpt lat="44.73451" lon="6.84044">
        <ele>1797.9</ele>
        <time>2026-03-23T13:49:50Z</time>
      </trkpt>
      <trkpt lat="44.7345" lon="6.84044">
        <ele>1797.8</ele>
        <time>2026-03-23T13:49:51Z</time>
      </trkpt>
      <trkpt lat="44.73449" lon="6.84045">
        <ele>1797.8</ele>
        <time>2026-03-23T13:49:52Z</time>
      </trkpt>
      <trkpt lat="44.73448" lon="6.84044">
        <ele>1797.7</ele>
        <time>2026-03-23T13:49:53Z</time>
      </trkpt>
      <trkpt lat="44.73448" lon="6.84044">
        <ele>1797.7</ele>
        <time>2026-03-23T13:49:54Z</time>
      </trkpt>
      <trkpt lat="44.73448" lon="6.84044">
        <ele>1797.7</ele>
        <time>2026-03-23T13:49:55Z</time>
      </trkpt>
      <trkpt lat="44.73448" lon="6.84044">
        <ele>1797.7</ele>
        <time>2026-03-23T13:49:56Z</time>
      </trkpt>
      <trkpt lat="44.73448" lon="6.84044">
        <ele>1797.7</ele>
        <time>2026-03-23T13:49:57Z</time>
      </trkpt>
      <trkpt lat="44.73447" lon="6.84044">
        <ele>1797.6</ele>
        <time>2026-03-23T13:49:58Z</time>
      </trkpt>
      <trkpt lat="44.73447" lon="6.84044">
        <ele>1797.6</ele>
        <time>2026-03-23T13:49:59Z</time>
      </trkpt>
      <trkpt lat="44.73446" lon="6.84044">
        <ele>1797.6</ele>
        <time>2026-03-23T13:50:00Z</time>
      </trkpt>
      <trkpt lat="44.73446" lon="6.84045">
        <ele>1797.5</ele>
        <time>2026-03-23T13:50:01Z</time>
      </trkpt>
      <trkpt lat="44.73444" lon="6.84047">
        <ele>1797.4</ele>
        <time>2026-03-23T13:50:02Z</time>
      </trkpt>
      <trkpt lat="44.73443" lon="6.84048">
        <ele>1797.3</ele>
        <time>2026-03-23T13:50:03Z</time>
      </trkpt>
      <trkpt lat="44.7344" lon="6.8405">
        <ele>1797.1</ele>
        <time>2026-03-23T13:50:04Z</time>
      </trkpt>
      <trkpt lat="44.73439" lon="6.8405">
        <ele>1797</ele>
        <time>2026-03-23T13:50:05Z</time>
      </trkpt>
      <trkpt lat="44.73438" lon="6.84051">
        <ele>1796.9</ele>
        <time>2026-03-23T13:50:06Z</time>
      </trkpt>
      <trkpt lat="44.73437" lon="6.84051">
        <ele>1796.8</ele>
        <time>2026-03-23T13:50:07Z</time>
      </trkpt>
      <trkpt lat="44.73436" lon="6.84052">
        <ele>1796.7</ele>
        <time>2026-03-23T13:50:08Z</time>
      </trkpt>
      <trkpt lat="44.73435" lon="6.84052">
        <ele>1796.7</ele>
        <time>2026-03-23T13:50:09Z</time>
      </trkpt>
      <trkpt lat="44.73435" lon="6.84053">
        <ele>1796.6</ele>
        <time>2026-03-23T13:50:10Z</time>
      </trkpt>
      <trkpt lat="44.73434" lon="6.84054">
        <ele>1796.5</ele>
        <time>2026-03-23T13:50:11Z</time>
      </trkpt>
      <trkpt lat="44.73433" lon="6.84055">
        <ele>1796.4</ele>
        <time>2026-03-23T13:50:12Z</time>
      </trkpt>
      <trkpt lat="44.73431" lon="6.84057">
        <ele>1796.3</ele>
        <time>2026-03-23T13:50:13Z</time>
      </trkpt>
      <trkpt lat="44.7343" lon="6.84058">
        <ele>1796.2</ele>
        <time>2026-03-23T13:50:15Z</time>
      </trkpt>
      <trkpt lat="44.73429" lon="6.84059">
        <ele>1796.1</ele>
        <time>2026-03-23T13:50:16Z</time>
      </trkpt>
      <trkpt lat="44.73429" lon="6.8406">
        <ele>1796.1</ele>
        <time>2026-03-23T13:50:17Z</time>
      </trkpt>
      <trkpt lat="44.73428" lon="6.84061">
        <ele>1796</ele>
        <time>2026-03-23T13:50:18Z</time>
      </trkpt>
      <trkpt lat="44.73427" lon="6.84062">
        <ele>1795.9</ele>
        <time>2026-03-23T13:50:19Z</time>
      </trkpt>
      <trkpt lat="44.73426" lon="6.84063">
        <ele>1795.8</ele>
        <time>2026-03-23T13:50:20Z</time>
      </trkpt>
      <trkpt lat="44.73426" lon="6.84063">
        <ele>1795.8</ele>
        <time>2026-03-23T13:50:21Z</time>
      </trkpt>
      <trkpt lat="44.73425" lon="6.84064">
        <ele>1795.7</ele>
        <time>2026-03-23T13:50:22Z</time>
      </trkpt>
      <trkpt lat="44.73424" lon="6.84064">
        <ele>1795.6</ele>
        <time>2026-03-23T13:50:23Z</time>
      </trkpt>
      <trkpt lat="44.73423" lon="6.84065">
        <ele>1795.6</ele>
        <time>2026-03-23T13:50:24Z</time>
      </trkpt>
      <trkpt lat="44.73422" lon="6.84066">
        <ele>1795.5</ele>
        <time>2026-03-23T13:50:25Z</time>
      </trkpt>
      <trkpt lat="44.73422" lon="6.84067">
        <ele>1795.4</ele>
        <time>2026-03-23T13:50:26Z</time>
      </trkpt>
      <trkpt lat="44.73421" lon="6.84068">
        <ele>1795.3</ele>
        <time>2026-03-23T13:50:27Z</time>
      </trkpt>
      <trkpt lat="44.73419" lon="6.8407">
        <ele>1795.2</ele>
        <time>2026-03-23T13:50:28Z</time>
      </trkpt>
      <trkpt lat="44.73419" lon="6.84071">
        <ele>1795.1</ele>
        <time>2026-03-23T13:50:30Z</time>
      </trkpt>
      <trkpt lat="44.73418" lon="6.84073">
        <ele>1795</ele>
        <time>2026-03-23T13:50:31Z</time>
      </trkpt>
      <trkpt lat="44.73417" lon="6.84074">
        <ele>1794.9</ele>
        <time>2026-03-23T13:50:32Z</time>
      </trkpt>
      <trkpt lat="44.73417" lon="6.84075">
        <ele>1794.9</ele>
        <time>2026-03-23T13:50:33Z</time>
      </trkpt>
      <trkpt lat="44.73416" lon="6.84076">
        <ele>1794.8</ele>
        <time>2026-03-23T13:50:34Z</time>
      </trkpt>
      <trkpt lat="44.73415" lon="6.84076">
        <ele>1794.7</ele>
        <time>2026-03-23T13:50:35Z</time>
      </trkpt>
      <trkpt lat="44.73414" lon="6.84077">
        <ele>1794.7</ele>
        <time>2026-03-23T13:50:36Z</time>
      </trkpt>
      <trkpt lat="44.73412" lon="6.8408">
        <ele>1794.4</ele>
        <time>2026-03-23T13:50:37Z</time>
      </trkpt>
      <trkpt lat="44.73411" lon="6.84081">
        <ele>1794.3</ele>
        <time>2026-03-23T13:50:39Z</time>
      </trkpt>
      <trkpt lat="44.73411" lon="6.84082">
        <ele>1794.3</ele>
        <time>2026-03-23T13:50:40Z</time>
      </trkpt>
      <trkpt lat="44.7341" lon="6.84083">
        <ele>1794.2</ele>
        <time>2026-03-23T13:50:41Z</time>
      </trkpt>
      <trkpt lat="44.73409" lon="6.84084">
        <ele>1794.1</ele>
        <time>2026-03-23T13:50:42Z</time>
      </trkpt>
      <trkpt lat="44.73409" lon="6.84084">
        <ele>1794.1</ele>
        <time>2026-03-23T13:50:43Z</time>
      </trkpt>
      <trkpt lat="44.73408" lon="6.84085">
        <ele>1794</ele>
        <time>2026-03-23T13:50:44Z</time>
      </trkpt>
      <trkpt lat="44.73406" lon="6.84087">
        <ele>1793.8</ele>
        <time>2026-03-23T13:50:45Z</time>
      </trkpt>
      <trkpt lat="44.73405" lon="6.84088">
        <ele>1793.7</ele>
        <time>2026-03-23T13:50:47Z</time>
      </trkpt>
      <trkpt lat="44.73404" lon="6.84089">
        <ele>1793.6</ele>
        <time>2026-03-23T13:50:48Z</time>
      </trkpt>
      <trkpt lat="44.73403" lon="6.8409">
        <ele>1793.5</ele>
        <time>2026-03-23T13:50:49Z</time>
      </trkpt>
      <trkpt lat="44.73403" lon="6.84092">
        <ele>1793.4</ele>
        <time>2026-03-23T13:50:50Z</time>
      </trkpt>
      <trkpt lat="44.73402" lon="6.84093">
        <ele>1793.3</ele>
        <time>2026-03-23T13:50:51Z</time>
      </trkpt>
      <trkpt lat="44.73401" lon="6.84095">
        <ele>1793.2</ele>
        <time>2026-03-23T13:50:52Z</time>
      </trkpt>
      <trkpt lat="44.734" lon="6.84095">
        <ele>1793.2</ele>
        <time>2026-03-23T13:50:53Z</time>
      </trkpt>
      <trkpt lat="44.73399" lon="6.84096">
        <ele>1793.1</ele>
        <time>2026-03-23T13:50:54Z</time>
      </trkpt>
      <trkpt lat="44.73399" lon="6.84098">
        <ele>1793</ele>
        <time>2026-03-23T13:50:55Z</time>
      </trkpt>
      <trkpt lat="44.73398" lon="6.84099">
        <ele>1792.9</ele>
        <time>2026-03-23T13:50:56Z</time>
      </trkpt>
      <trkpt lat="44.73398" lon="6.841">
        <ele>1792.8</ele>
        <time>2026-03-23T13:50:57Z</time>
      </trkpt>
      <trkpt lat="44.73397" lon="6.84101">
        <ele>1792.8</ele>
        <time>2026-03-23T13:50:58Z</time>
      </trkpt>
      <trkpt lat="44.73396" lon="6.84102">
        <ele>1792.7</ele>
        <time>2026-03-23T13:50:59Z</time>
      </trkpt>
      <trkpt lat="44.73395" lon="6.84103">
        <ele>1792.6</ele>
        <time>2026-03-23T13:51:00Z</time>
      </trkpt>
      <trkpt lat="44.73394" lon="6.84104">
        <ele>1792.5</ele>
        <time>2026-03-23T13:51:01Z</time>
      </trkpt>
      <trkpt lat="44.73393" lon="6.84106">
        <ele>1792.4</ele>
        <time>2026-03-23T13:51:02Z</time>
      </trkpt>
      <trkpt lat="44.73392" lon="6.84107">
        <ele>1792.3</ele>
        <time>2026-03-23T13:51:04Z</time>
      </trkpt>
      <trkpt lat="44.73391" lon="6.84108">
        <ele>1792.2</ele>
        <time>2026-03-23T13:51:05Z</time>
      </trkpt>
      <trkpt lat="44.7339" lon="6.84109">
        <ele>1792.1</ele>
        <time>2026-03-23T13:51:06Z</time>
      </trkpt>
      <trkpt lat="44.73389" lon="6.84109">
        <ele>1792</ele>
        <time>2026-03-23T13:51:07Z</time>
      </trkpt>
      <trkpt lat="44.73388" lon="6.8411">
        <ele>1792</ele>
        <time>2026-03-23T13:51:08Z</time>
      </trkpt>
      <trkpt lat="44.73388" lon="6.84111">
        <ele>1791.9</ele>
        <time>2026-03-23T13:51:09Z</time>
      </trkpt>
      <trkpt lat="44.73387" lon="6.84112">
        <ele>1791.8</ele>
        <time>2026-03-23T13:51:10Z</time>
      </trkpt>
      <trkpt lat="44.73386" lon="6.84112">
        <ele>1791.7</ele>
        <time>2026-03-23T13:51:11Z</time>
      </trkpt>
      <trkpt lat="44.73385" lon="6.84113">
        <ele>1791.7</ele>
        <time>2026-03-23T13:51:12Z</time>
      </trkpt>
      <trkpt lat="44.73384" lon="6.84114">
        <ele>1791.6</ele>
        <time>2026-03-23T13:51:13Z</time>
      </trkpt>
      <trkpt lat="44.73383" lon="6.84114">
        <ele>1791.5</ele>
        <time>2026-03-23T13:51:14Z</time>
      </trkpt>
      <trkpt lat="44.73382" lon="6.84116">
        <ele>1791.4</ele>
        <time>2026-03-23T13:51:15Z</time>
      </trkpt>
      <trkpt lat="44.7338" lon="6.84118">
        <ele>1791.2</ele>
        <time>2026-03-23T13:51:17Z</time>
      </trkpt>
      <trkpt lat="44.73379" lon="6.84118">
        <ele>1791.1</ele>
        <time>2026-03-23T13:51:19Z</time>
      </trkpt>
      <trkpt lat="44.73378" lon="6.84119">
        <ele>1791.1</ele>
        <time>2026-03-23T13:51:20Z</time>
      </trkpt>
      <trkpt lat="44.73378" lon="6.8412">
        <ele>1791</ele>
        <time>2026-03-23T13:51:21Z</time>
      </trkpt>
      <trkpt lat="44.73377" lon="6.84121">
        <ele>1790.9</ele>
        <time>2026-03-23T13:51:22Z</time>
      </trkpt>
      <trkpt lat="44.73375" lon="6.84123">
        <ele>1790.7</ele>
        <time>2026-03-23T13:51:23Z</time>
      </trkpt>
      <trkpt lat="44.73375" lon="6.84124">
        <ele>1790.7</ele>
        <time>2026-03-23T13:51:25Z</time>
      </trkpt>
      <trkpt lat="44.73374" lon="6.84125">
        <ele>1790.6</ele>
        <time>2026-03-23T13:51:26Z</time>
      </trkpt>
      <trkpt lat="44.73372" lon="6.84126">
        <ele>1790.4</ele>
        <time>2026-03-23T13:51:27Z</time>
      </trkpt>
      <trkpt lat="44.73371" lon="6.84127">
        <ele>1790.3</ele>
        <time>2026-03-23T13:51:29Z</time>
      </trkpt>
      <trkpt lat="44.7337" lon="6.84128">
        <ele>1790.2</ele>
        <time>2026-03-23T13:51:30Z</time>
      </trkpt>
      <trkpt lat="44.73368" lon="6.84128">
        <ele>1790.1</ele>
        <time>2026-03-23T13:51:31Z</time>
      </trkpt>
      <trkpt lat="44.73368" lon="6.84129">
        <ele>1790.1</ele>
        <time>2026-03-23T13:51:32Z</time>
      </trkpt>
      <trkpt lat="44.73367" lon="6.8413">
        <ele>1790</ele>
        <time>2026-03-23T13:51:33Z</time>
      </trkpt>
      <trkpt lat="44.73365" lon="6.84131">
        <ele>1789.9</ele>
        <time>2026-03-23T13:51:34Z</time>
      </trkpt>
      <trkpt lat="44.73365" lon="6.84131">
        <ele>1789.8</ele>
        <time>2026-03-23T13:51:35Z</time>
      </trkpt>
      <trkpt lat="44.73362" lon="6.84133">
        <ele>1789.6</ele>
        <time>2026-03-23T13:51:36Z</time>
      </trkpt>
      <trkpt lat="44.73361" lon="6.84134">
        <ele>1789.5</ele>
        <time>2026-03-23T13:51:38Z</time>
      </trkpt>
      <trkpt lat="44.73359" lon="6.84136">
        <ele>1789.3</ele>
        <time>2026-03-23T13:51:39Z</time>
      </trkpt>
      <trkpt lat="44.73358" lon="6.84136">
        <ele>1789.2</ele>
        <time>2026-03-23T13:51:41Z</time>
      </trkpt>
      <trkpt lat="44.73357" lon="6.84136">
        <ele>1789.2</ele>
        <time>2026-03-23T13:51:42Z</time>
      </trkpt>
      <trkpt lat="44.73356" lon="6.84137">
        <ele>1789.1</ele>
        <time>2026-03-23T13:51:43Z</time>
      </trkpt>
      <trkpt lat="44.73355" lon="6.84137">
        <ele>1789</ele>
        <time>2026-03-23T13:51:44Z</time>
      </trkpt>
      <trkpt lat="44.73353" lon="6.84137">
        <ele>1788.8</ele>
        <time>2026-03-23T13:51:45Z</time>
      </trkpt>
      <trkpt lat="44.73352" lon="6.84137">
        <ele>1788.7</ele>
        <time>2026-03-23T13:51:47Z</time>
      </trkpt>
      <trkpt lat="44.73351" lon="6.84137">
        <ele>1788.7</ele>
        <time>2026-03-23T13:51:48Z</time>
      </trkpt>
      <trkpt lat="44.73349" lon="6.84137">
        <ele>1788.6</ele>
        <time>2026-03-23T13:51:49Z</time>
      </trkpt>
      <trkpt lat="44.73348" lon="6.84137">
        <ele>1788.5</ele>
        <time>2026-03-23T13:51:50Z</time>
      </trkpt>
      <trkpt lat="44.73347" lon="6.84138">
        <ele>1788.4</ele>
        <time>2026-03-23T13:51:51Z</time>
      </trkpt>
      <trkpt lat="44.73346" lon="6.84138">
        <ele>1788.3</ele>
        <time>2026-03-23T13:51:52Z</time>
      </trkpt>
      <trkpt lat="44.73345" lon="6.84138">
        <ele>1788.2</ele>
        <time>2026-03-23T13:51:53Z</time>
      </trkpt>
      <trkpt lat="44.73342" lon="6.84138">
        <ele>1788</ele>
        <time>2026-03-23T13:51:54Z</time>
      </trkpt>
      <trkpt lat="44.73341" lon="6.84139">
        <ele>1788</ele>
        <time>2026-03-23T13:51:56Z</time>
      </trkpt>
      <trkpt lat="44.7334" lon="6.8414">
        <ele>1787.9</ele>
        <time>2026-03-23T13:51:57Z</time>
      </trkpt>
      <trkpt lat="44.73339" lon="6.84141">
        <ele>1787.8</ele>
        <time>2026-03-23T13:51:58Z</time>
      </trkpt>
      <trkpt lat="44.73338" lon="6.84141">
        <ele>1787.7</ele>
        <time>2026-03-23T13:51:59Z</time>
      </trkpt>
      <trkpt lat="44.73337" lon="6.84142">
        <ele>1787.6</ele>
        <time>2026-03-23T13:52:00Z</time>
      </trkpt>
      <trkpt lat="44.73336" lon="6.84142">
        <ele>1787.5</ele>
        <time>2026-03-23T13:52:01Z</time>
      </trkpt>
      <trkpt lat="44.73334" lon="6.84143">
        <ele>1787.4</ele>
        <time>2026-03-23T13:52:02Z</time>
      </trkpt>
      <trkpt lat="44.73333" lon="6.84144">
        <ele>1787.3</ele>
        <time>2026-03-23T13:52:03Z</time>
      </trkpt>
      <trkpt lat="44.73332" lon="6.84145">
        <ele>1787.1</ele>
        <time>2026-03-23T13:52:04Z</time>
      </trkpt>
      <trkpt lat="44.7333" lon="6.84146">
        <ele>1787</ele>
        <time>2026-03-23T13:52:05Z</time>
      </trkpt>
      <trkpt lat="44.73329" lon="6.84147">
        <ele>1786.9</ele>
        <time>2026-03-23T13:52:06Z</time>
      </trkpt>
      <trkpt lat="44.73328" lon="6.84148">
        <ele>1786.8</ele>
        <time>2026-03-23T13:52:07Z</time>
      </trkpt>
      <trkpt lat="44.73327" lon="6.84148">
        <ele>1786.7</ele>
        <time>2026-03-23T13:52:08Z</time>
      </trkpt>
      <trkpt lat="44.73326" lon="6.84149">
        <ele>1786.6</ele>
        <time>2026-03-23T13:52:09Z</time>
      </trkpt>
      <trkpt lat="44.73325" lon="6.8415">
        <ele>1786.5</ele>
        <time>2026-03-23T13:52:10Z</time>
      </trkpt>
      <trkpt lat="44.73324" lon="6.84151">
        <ele>1786.4</ele>
        <time>2026-03-23T13:52:11Z</time>
      </trkpt>
      <trkpt lat="44.73323" lon="6.84152">
        <ele>1786.3</ele>
        <time>2026-03-23T13:52:12Z</time>
      </trkpt>
      <trkpt lat="44.73322" lon="6.84153">
        <ele>1786.3</ele>
        <time>2026-03-23T13:52:13Z</time>
      </trkpt>
      <trkpt lat="44.73321" lon="6.84154">
        <ele>1786.2</ele>
        <time>2026-03-23T13:52:14Z</time>
      </trkpt>
      <trkpt lat="44.73321" lon="6.84154">
        <ele>1786.1</ele>
        <time>2026-03-23T13:52:15Z</time>
      </trkpt>
      <trkpt lat="44.73319" lon="6.84156">
        <ele>1785.9</ele>
        <time>2026-03-23T13:52:16Z</time>
      </trkpt>
      <trkpt lat="44.73317" lon="6.84157">
        <ele>1785.8</ele>
        <time>2026-03-23T13:52:18Z</time>
      </trkpt>
      <trkpt lat="44.73316" lon="6.84158">
        <ele>1785.7</ele>
        <time>2026-03-23T13:52:20Z</time>
      </trkpt>
      <trkpt lat="44.73315" lon="6.84158">
        <ele>1785.6</ele>
        <time>2026-03-23T13:52:21Z</time>
      </trkpt>
      <trkpt lat="44.73314" lon="6.84159">
        <ele>1785.5</ele>
        <time>2026-03-23T13:52:22Z</time>
      </trkpt>
      <trkpt lat="44.73312" lon="6.84161">
        <ele>1785.2</ele>
        <time>2026-03-23T13:52:23Z</time>
      </trkpt>
      <trkpt lat="44.73311" lon="6.84162">
        <ele>1785.2</ele>
        <time>2026-03-23T13:52:25Z</time>
      </trkpt>
      <trkpt lat="44.7331" lon="6.84163">
        <ele>1785.1</ele>
        <time>2026-03-23T13:52:27Z</time>
      </trkpt>
      <trkpt lat="44.73309" lon="6.84164">
        <ele>1785</ele>
        <time>2026-03-23T13:52:28Z</time>
      </trkpt>
      <trkpt lat="44.73308" lon="6.84165">
        <ele>1784.9</ele>
        <time>2026-03-23T13:52:29Z</time>
      </trkpt>
      <trkpt lat="44.73307" lon="6.84167">
        <ele>1784.7</ele>
        <time>2026-03-23T13:52:30Z</time>
      </trkpt>
      <trkpt lat="44.73306" lon="6.84168">
        <ele>1784.6</ele>
        <time>2026-03-23T13:52:31Z</time>
      </trkpt>
      <trkpt lat="44.73305" lon="6.84169">
        <ele>1784.5</ele>
        <time>2026-03-23T13:52:33Z</time>
      </trkpt>
      <trkpt lat="44.73304" lon="6.8417">
        <ele>1784.4</ele>
        <time>2026-03-23T13:52:34Z</time>
      </trkpt>
      <trkpt lat="44.73303" lon="6.84171">
        <ele>1784.3</ele>
        <time>2026-03-23T13:52:35Z</time>
      </trkpt>
      <trkpt lat="44.73302" lon="6.84172">
        <ele>1784.2</ele>
        <time>2026-03-23T13:52:36Z</time>
      </trkpt>
      <trkpt lat="44.733" lon="6.84174">
        <ele>1784.1</ele>
        <time>2026-03-23T13:52:37Z</time>
      </trkpt>
      <trkpt lat="44.73299" lon="6.84175">
        <ele>1784</ele>
        <time>2026-03-23T13:52:39Z</time>
      </trkpt>
      <trkpt lat="44.73299" lon="6.84177">
        <ele>1783.8</ele>
        <time>2026-03-23T13:52:40Z</time>
      </trkpt>
      <trkpt lat="44.73297" lon="6.8418">
        <ele>1783.6</ele>
        <time>2026-03-23T13:52:41Z</time>
      </trkpt>
      <trkpt lat="44.73295" lon="6.84183">
        <ele>1783.4</ele>
        <time>2026-03-23T13:52:43Z</time>
      </trkpt>
      <trkpt lat="44.73294" lon="6.84184">
        <ele>1783.3</ele>
        <time>2026-03-23T13:52:45Z</time>
      </trkpt>
      <trkpt lat="44.73294" lon="6.84185">
        <ele>1783.2</ele>
        <time>2026-03-23T13:52:46Z</time>
      </trkpt>
      <trkpt lat="44.73293" lon="6.84186">
        <ele>1783.2</ele>
        <time>2026-03-23T13:52:47Z</time>
      </trkpt>
      <trkpt lat="44.73293" lon="6.84187">
        <ele>1783.1</ele>
        <time>2026-03-23T13:52:48Z</time>
      </trkpt>
      <trkpt lat="44.73292" lon="6.84188">
        <ele>1783</ele>
        <time>2026-03-23T13:52:49Z</time>
      </trkpt>
      <trkpt lat="44.73291" lon="6.8419">
        <ele>1782.9</ele>
        <time>2026-03-23T13:52:50Z</time>
      </trkpt>
      <trkpt lat="44.73291" lon="6.84191">
        <ele>1782.8</ele>
        <time>2026-03-23T13:52:51Z</time>
      </trkpt>
      <trkpt lat="44.7329" lon="6.84193">
        <ele>1782.7</ele>
        <time>2026-03-23T13:52:52Z</time>
      </trkpt>
      <trkpt lat="44.73289" lon="6.84193">
        <ele>1782.6</ele>
        <time>2026-03-23T13:52:53Z</time>
      </trkpt>
      <trkpt lat="44.73289" lon="6.84195">
        <ele>1782.5</ele>
        <time>2026-03-23T13:52:54Z</time>
      </trkpt>
      <trkpt lat="44.73289" lon="6.84196">
        <ele>1782.5</ele>
        <time>2026-03-23T13:52:55Z</time>
      </trkpt>
      <trkpt lat="44.73288" lon="6.84197">
        <ele>1782.4</ele>
        <time>2026-03-23T13:52:56Z</time>
      </trkpt>
      <trkpt lat="44.73288" lon="6.84199">
        <ele>1782.3</ele>
        <time>2026-03-23T13:52:57Z</time>
      </trkpt>
      <trkpt lat="44.73289" lon="6.84199">
        <ele>1782.3</ele>
        <time>2026-03-23T13:52:58Z</time>
      </trkpt>
      <trkpt lat="44.73289" lon="6.84199">
        <ele>1782.2</ele>
        <time>2026-03-23T13:52:59Z</time>
      </trkpt>
      <trkpt lat="44.73289" lon="6.84199">
        <ele>1782.2</ele>
        <time>2026-03-23T13:53:00Z</time>
      </trkpt>
      <trkpt lat="44.73289" lon="6.84198">
        <ele>1782.2</ele>
        <time>2026-03-23T13:53:01Z</time>
      </trkpt>
      <trkpt lat="44.73289" lon="6.84198">
        <ele>1782.2</ele>
        <time>2026-03-23T13:53:02Z</time>
      </trkpt>
      <trkpt lat="44.73289" lon="6.84198">
        <ele>1782.2</ele>
        <time>2026-03-23T13:53:03Z</time>
      </trkpt>
      <trkpt lat="44.73289" lon="6.84198">
        <ele>1782.2</ele>
        <time>2026-03-23T13:53:04Z</time>
      </trkpt>
      <trkpt lat="44.73289" lon="6.84198">
        <ele>1782.2</ele>
        <time>2026-03-23T13:53:05Z</time>
      </trkpt>
      <trkpt lat="44.73288" lon="6.84197">
        <ele>1782.2</ele>
        <time>2026-03-23T13:53:06Z</time>
      </trkpt>
      <trkpt lat="44.73288" lon="6.84198">
        <ele>1782.2</ele>
        <time>2026-03-23T13:53:08Z</time>
      </trkpt>
      <trkpt lat="44.73288" lon="6.84198">
        <ele>1782.2</ele>
        <time>2026-03-23T13:53:09Z</time>
      </trkpt>
      <trkpt lat="44.73287" lon="6.842">
        <ele>1782.2</ele>
        <time>2026-03-23T13:53:11Z</time>
      </trkpt>
      <trkpt lat="44.73286" lon="6.84202">
        <ele>1782.2</ele>
        <time>2026-03-23T13:53:12Z</time>
      </trkpt>
      <trkpt lat="44.73283" lon="6.84204">
        <ele>1782.2</ele>
        <time>2026-03-23T13:53:13Z</time>
      </trkpt>
      <trkpt lat="44.73282" lon="6.84204">
        <ele>1782.2</ele>
        <time>2026-03-23T13:53:15Z</time>
      </trkpt>
      <trkpt lat="44.73282" lon="6.84205">
        <ele>1782.2</ele>
        <time>2026-03-23T13:53:16Z</time>
      </trkpt>
      <trkpt lat="44.73281" lon="6.84205">
        <ele>1782.2</ele>
        <time>2026-03-23T13:53:17Z</time>
      </trkpt>
      <trkpt lat="44.7328" lon="6.84205">
        <ele>1782.1</ele>
        <time>2026-03-23T13:53:18Z</time>
      </trkpt>
      <trkpt lat="44.73279" lon="6.84205">
        <ele>1782</ele>
        <time>2026-03-23T13:53:19Z</time>
      </trkpt>
      <trkpt lat="44.73278" lon="6.84205">
        <ele>1781.9</ele>
        <time>2026-03-23T13:53:20Z</time>
      </trkpt>
      <trkpt lat="44.73277" lon="6.84205">
        <ele>1781.8</ele>
        <time>2026-03-23T13:53:21Z</time>
      </trkpt>
      <trkpt lat="44.73276" lon="6.84205">
        <ele>1781.7</ele>
        <time>2026-03-23T13:53:22Z</time>
      </trkpt>
      <trkpt lat="44.73275" lon="6.84205">
        <ele>1781.6</ele>
        <time>2026-03-23T13:53:23Z</time>
      </trkpt>
      <trkpt lat="44.73274" lon="6.84204">
        <ele>1781.5</ele>
        <time>2026-03-23T13:53:24Z</time>
      </trkpt>
      <trkpt lat="44.73273" lon="6.84204">
        <ele>1781.4</ele>
        <time>2026-03-23T13:53:25Z</time>
      </trkpt>
      <trkpt lat="44.73272" lon="6.84204">
        <ele>1781.3</ele>
        <time>2026-03-23T13:53:26Z</time>
      </trkpt>
      <trkpt lat="44.73271" lon="6.84204">
        <ele>1781.2</ele>
        <time>2026-03-23T13:53:27Z</time>
      </trkpt>
      <trkpt lat="44.7327" lon="6.84204">
        <ele>1781.1</ele>
        <time>2026-03-23T13:53:28Z</time>
      </trkpt>
      <trkpt lat="44.73269" lon="6.84204">
        <ele>1781</ele>
        <time>2026-03-23T13:53:29Z</time>
      </trkpt>
      <trkpt lat="44.73268" lon="6.84204">
        <ele>1780.9</ele>
        <time>2026-03-23T13:53:30Z</time>
      </trkpt>
      <trkpt lat="44.73267" lon="6.84204">
        <ele>1780.7</ele>
        <time>2026-03-23T13:53:31Z</time>
      </trkpt>
      <trkpt lat="44.73266" lon="6.84203">
        <ele>1780.7</ele>
        <time>2026-03-23T13:53:32Z</time>
      </trkpt>
      <trkpt lat="44.73264" lon="6.84203">
        <ele>1780.5</ele>
        <time>2026-03-23T13:53:33Z</time>
      </trkpt>
      <trkpt lat="44.73264" lon="6.84204">
        <ele>1780.4</ele>
        <time>2026-03-23T13:53:35Z</time>
      </trkpt>
      <trkpt lat="44.73261" lon="6.84203">
        <ele>1780.2</ele>
        <time>2026-03-23T13:53:36Z</time>
      </trkpt>
      <trkpt lat="44.7326" lon="6.84203">
        <ele>1780</ele>
        <time>2026-03-23T13:53:38Z</time>
      </trkpt>
      <trkpt lat="44.73259" lon="6.84204">
        <ele>1779.9</ele>
        <time>2026-03-23T13:53:39Z</time>
      </trkpt>
      <trkpt lat="44.73257" lon="6.84203">
        <ele>1779.7</ele>
        <time>2026-03-23T13:53:40Z</time>
      </trkpt>
      <trkpt lat="44.73255" lon="6.84203">
        <ele>1779.4</ele>
        <time>2026-03-23T13:53:42Z</time>
      </trkpt>
      <trkpt lat="44.73254" lon="6.84203">
        <ele>1779.3</ele>
        <time>2026-03-23T13:53:44Z</time>
      </trkpt>
      <trkpt lat="44.73253" lon="6.84202">
        <ele>1779.2</ele>
        <time>2026-03-23T13:53:45Z</time>
      </trkpt>
      <trkpt lat="44.73252" lon="6.84202">
        <ele>1779.1</ele>
        <time>2026-03-23T13:53:46Z</time>
      </trkpt>
      <trkpt lat="44.7325" lon="6.84202">
        <ele>1779</ele>
        <time>2026-03-23T13:53:47Z</time>
      </trkpt>
      <trkpt lat="44.73249" lon="6.84202">
        <ele>1778.9</ele>
        <time>2026-03-23T13:53:48Z</time>
      </trkpt>
      <trkpt lat="44.73248" lon="6.84201">
        <ele>1778.8</ele>
        <time>2026-03-23T13:53:49Z</time>
      </trkpt>
      <trkpt lat="44.73247" lon="6.84201">
        <ele>1778.7</ele>
        <time>2026-03-23T13:53:50Z</time>
      </trkpt>
      <trkpt lat="44.73246" lon="6.84201">
        <ele>1778.6</ele>
        <time>2026-03-23T13:53:51Z</time>
      </trkpt>
      <trkpt lat="44.73245" lon="6.84201">
        <ele>1778.5</ele>
        <time>2026-03-23T13:53:52Z</time>
      </trkpt>
      <trkpt lat="44.73244" lon="6.84202">
        <ele>1778.3</ele>
        <time>2026-03-23T13:53:53Z</time>
      </trkpt>
      <trkpt lat="44.73243" lon="6.84201">
        <ele>1778.2</ele>
        <time>2026-03-23T13:53:54Z</time>
      </trkpt>
      <trkpt lat="44.73242" lon="6.84202">
        <ele>1778.1</ele>
        <time>2026-03-23T13:53:55Z</time>
      </trkpt>
      <trkpt lat="44.73241" lon="6.84202">
        <ele>1778</ele>
        <time>2026-03-23T13:53:56Z</time>
      </trkpt>
      <trkpt lat="44.7324" lon="6.84203">
        <ele>1777.9</ele>
        <time>2026-03-23T13:53:57Z</time>
      </trkpt>
      <trkpt lat="44.73239" lon="6.84203">
        <ele>1777.7</ele>
        <time>2026-03-23T13:53:58Z</time>
      </trkpt>
      <trkpt lat="44.73238" lon="6.84203">
        <ele>1777.7</ele>
        <time>2026-03-23T13:53:59Z</time>
      </trkpt>
      <trkpt lat="44.73237" lon="6.84203">
        <ele>1777.6</ele>
        <time>2026-03-23T13:54:00Z</time>
      </trkpt>
      <trkpt lat="44.73236" lon="6.84204">
        <ele>1777.5</ele>
        <time>2026-03-23T13:54:01Z</time>
      </trkpt>
      <trkpt lat="44.73235" lon="6.84204">
        <ele>1777.4</ele>
        <time>2026-03-23T13:54:02Z</time>
      </trkpt>
      <trkpt lat="44.73233" lon="6.84205">
        <ele>1777.2</ele>
        <time>2026-03-23T13:54:03Z</time>
      </trkpt>
      <trkpt lat="44.73232" lon="6.84205">
        <ele>1777.2</ele>
        <time>2026-03-23T13:54:04Z</time>
      </trkpt>
      <trkpt lat="44.73231" lon="6.84205">
        <ele>1777.1</ele>
        <time>2026-03-23T13:54:05Z</time>
      </trkpt>
      <trkpt lat="44.73228" lon="6.84206">
        <ele>1776.8</ele>
        <time>2026-03-23T13:54:06Z</time>
      </trkpt>
      <trkpt lat="44.73227" lon="6.84207">
        <ele>1776.7</ele>
        <time>2026-03-23T13:54:08Z</time>
      </trkpt>
      <trkpt lat="44.73226" lon="6.84207">
        <ele>1776.7</ele>
        <time>2026-03-23T13:54:09Z</time>
      </trkpt>
      <trkpt lat="44.73225" lon="6.84207">
        <ele>1776.6</ele>
        <time>2026-03-23T13:54:10Z</time>
      </trkpt>
      <trkpt lat="44.73224" lon="6.84208">
        <ele>1776.5</ele>
        <time>2026-03-23T13:54:11Z</time>
      </trkpt>
      <trkpt lat="44.73224" lon="6.84208">
        <ele>1776.4</ele>
        <time>2026-03-23T13:54:12Z</time>
      </trkpt>
      <trkpt lat="44.73223" lon="6.84208">
        <ele>1776.3</ele>
        <time>2026-03-23T13:54:13Z</time>
      </trkpt>
      <trkpt lat="44.73221" lon="6.84209">
        <ele>1776.2</ele>
        <time>2026-03-23T13:54:14Z</time>
      </trkpt>
      <trkpt lat="44.73221" lon="6.84209">
        <ele>1776.2</ele>
        <time>2026-03-23T13:54:15Z</time>
      </trkpt>
      <trkpt lat="44.7322" lon="6.84209">
        <ele>1776.1</ele>
        <time>2026-03-23T13:54:16Z</time>
      </trkpt>
      <trkpt lat="44.73219" lon="6.8421">
        <ele>1776</ele>
        <time>2026-03-23T13:54:17Z</time>
      </trkpt>
      <trkpt lat="44.73218" lon="6.84211">
        <ele>1775.9</ele>
        <time>2026-03-23T13:54:18Z</time>
      </trkpt>
      <trkpt lat="44.73217" lon="6.84212">
        <ele>1775.8</ele>
        <time>2026-03-23T13:54:19Z</time>
      </trkpt>
      <trkpt lat="44.73216" lon="6.84213">
        <ele>1775.7</ele>
        <time>2026-03-23T13:54:20Z</time>
      </trkpt>
      <trkpt lat="44.73215" lon="6.84214">
        <ele>1775.6</ele>
        <time>2026-03-23T13:54:21Z</time>
      </trkpt>
      <trkpt lat="44.73214" lon="6.84215">
        <ele>1775.5</ele>
        <time>2026-03-23T13:54:22Z</time>
      </trkpt>
      <trkpt lat="44.73213" lon="6.84216">
        <ele>1775.4</ele>
        <time>2026-03-23T13:54:23Z</time>
      </trkpt>
      <trkpt lat="44.73211" lon="6.84218">
        <ele>1775.2</ele>
        <time>2026-03-23T13:54:24Z</time>
      </trkpt>
      <trkpt lat="44.73211" lon="6.84219">
        <ele>1775.1</ele>
        <time>2026-03-23T13:54:26Z</time>
      </trkpt>
      <trkpt lat="44.7321" lon="6.8422">
        <ele>1775</ele>
        <time>2026-03-23T13:54:27Z</time>
      </trkpt>
      <trkpt lat="44.73209" lon="6.84221">
        <ele>1775</ele>
        <time>2026-03-23T13:54:28Z</time>
      </trkpt>
      <trkpt lat="44.73208" lon="6.84222">
        <ele>1774.9</ele>
        <time>2026-03-23T13:54:29Z</time>
      </trkpt>
      <trkpt lat="44.73208" lon="6.84223">
        <ele>1774.8</ele>
        <time>2026-03-23T13:54:30Z</time>
      </trkpt>
      <trkpt lat="44.73207" lon="6.84224">
        <ele>1774.6</ele>
        <time>2026-03-23T13:54:31Z</time>
      </trkpt>
      <trkpt lat="44.73205" lon="6.84226">
        <ele>1774.5</ele>
        <time>2026-03-23T13:54:32Z</time>
      </trkpt>
      <trkpt lat="44.73205" lon="6.84227">
        <ele>1774.4</ele>
        <time>2026-03-23T13:54:34Z</time>
      </trkpt>
      <trkpt lat="44.73203" lon="6.84229">
        <ele>1774.1</ele>
        <time>2026-03-23T13:54:35Z</time>
      </trkpt>
      <trkpt lat="44.73201" lon="6.8423">
        <ele>1774</ele>
        <time>2026-03-23T13:54:37Z</time>
      </trkpt>
      <trkpt lat="44.732" lon="6.84231">
        <ele>1773.9</ele>
        <time>2026-03-23T13:54:38Z</time>
      </trkpt>
      <trkpt lat="44.73199" lon="6.84231">
        <ele>1773.8</ele>
        <time>2026-03-23T13:54:39Z</time>
      </trkpt>
      <trkpt lat="44.73198" lon="6.84232">
        <ele>1773.7</ele>
        <time>2026-03-23T13:54:40Z</time>
      </trkpt>
      <trkpt lat="44.73197" lon="6.84233">
        <ele>1773.5</ele>
        <time>2026-03-23T13:54:41Z</time>
      </trkpt>
      <trkpt lat="44.73196" lon="6.84234">
        <ele>1773.4</ele>
        <time>2026-03-23T13:54:43Z</time>
      </trkpt>
      <trkpt lat="44.73194" lon="6.84238">
        <ele>1773.1</ele>
        <time>2026-03-23T13:54:44Z</time>
      </trkpt>
      <trkpt lat="44.73192" lon="6.8424">
        <ele>1772.9</ele>
        <time>2026-03-23T13:54:46Z</time>
      </trkpt>
      <trkpt lat="44.73192" lon="6.84241">
        <ele>1772.8</ele>
        <time>2026-03-23T13:54:47Z</time>
      </trkpt>
      <trkpt lat="44.73191" lon="6.84242">
        <ele>1772.7</ele>
        <time>2026-03-23T13:54:49Z</time>
      </trkpt>
      <trkpt lat="44.73188" lon="6.84243">
        <ele>1772.5</ele>
        <time>2026-03-23T13:54:50Z</time>
      </trkpt>
      <trkpt lat="44.73187" lon="6.84244">
        <ele>1772.3</ele>
        <time>2026-03-23T13:54:52Z</time>
      </trkpt>
      <trkpt lat="44.73186" lon="6.84245">
        <ele>1772.2</ele>
        <time>2026-03-23T13:54:53Z</time>
      </trkpt>
      <trkpt lat="44.73185" lon="6.84246">
        <ele>1772.1</ele>
        <time>2026-03-23T13:54:54Z</time>
      </trkpt>
      <trkpt lat="44.73185" lon="6.84247">
        <ele>1772</ele>
        <time>2026-03-23T13:54:55Z</time>
      </trkpt>
      <trkpt lat="44.73184" lon="6.84248">
        <ele>1771.9</ele>
        <time>2026-03-23T13:54:56Z</time>
      </trkpt>
      <trkpt lat="44.73183" lon="6.84249">
        <ele>1771.8</ele>
        <time>2026-03-23T13:54:57Z</time>
      </trkpt>
      <trkpt lat="44.73181" lon="6.84251">
        <ele>1771.6</ele>
        <time>2026-03-23T13:54:58Z</time>
      </trkpt>
      <trkpt lat="44.7318" lon="6.84251">
        <ele>1771.5</ele>
        <time>2026-03-23T13:54:59Z</time>
      </trkpt>
      <trkpt lat="44.73179" lon="6.84252">
        <ele>1771.4</ele>
        <time>2026-03-23T13:55:01Z</time>
      </trkpt>
      <trkpt lat="44.73177" lon="6.84254">
        <ele>1771.2</ele>
        <time>2026-03-23T13:55:02Z</time>
      </trkpt>
      <trkpt lat="44.73176" lon="6.84255">
        <ele>1771.1</ele>
        <time>2026-03-23T13:55:04Z</time>
      </trkpt>
      <trkpt lat="44.73175" lon="6.84255">
        <ele>1771</ele>
        <time>2026-03-23T13:55:05Z</time>
      </trkpt>
      <trkpt lat="44.73174" lon="6.84256">
        <ele>1770.9</ele>
        <time>2026-03-23T13:55:06Z</time>
      </trkpt>
      <trkpt lat="44.73174" lon="6.84257">
        <ele>1770.8</ele>
        <time>2026-03-23T13:55:07Z</time>
      </trkpt>
      <trkpt lat="44.73173" lon="6.84257">
        <ele>1770.7</ele>
        <time>2026-03-23T13:55:08Z</time>
      </trkpt>
      <trkpt lat="44.73172" lon="6.84258">
        <ele>1770.6</ele>
        <time>2026-03-23T13:55:09Z</time>
      </trkpt>
      <trkpt lat="44.73171" lon="6.84258">
        <ele>1770.5</ele>
        <time>2026-03-23T13:55:10Z</time>
      </trkpt>
      <trkpt lat="44.73169" lon="6.84259">
        <ele>1770.3</ele>
        <time>2026-03-23T13:55:11Z</time>
      </trkpt>
      <trkpt lat="44.73168" lon="6.8426">
        <ele>1770.3</ele>
        <time>2026-03-23T13:55:13Z</time>
      </trkpt>
      <trkpt lat="44.73166" lon="6.84261">
        <ele>1770.1</ele>
        <time>2026-03-23T13:55:14Z</time>
      </trkpt>
      <trkpt lat="44.73163" lon="6.84261">
        <ele>1769.9</ele>
        <time>2026-03-23T13:55:16Z</time>
      </trkpt>
      <trkpt lat="44.73162" lon="6.84262">
        <ele>1769.8</ele>
        <time>2026-03-23T13:55:18Z</time>
      </trkpt>
      <trkpt lat="44.73161" lon="6.84262">
        <ele>1769.6</ele>
        <time>2026-03-23T13:55:19Z</time>
      </trkpt>
      <trkpt lat="44.73158" lon="6.84263">
        <ele>1769.5</ele>
        <time>2026-03-23T13:55:20Z</time>
      </trkpt>
      <trkpt lat="44.73158" lon="6.84263">
        <ele>1769.4</ele>
        <time>2026-03-23T13:55:22Z</time>
      </trkpt>
      <trkpt lat="44.73156" lon="6.84264">
        <ele>1769.3</ele>
        <time>2026-03-23T13:55:23Z</time>
      </trkpt>
      <trkpt lat="44.73155" lon="6.84264">
        <ele>1769.1</ele>
        <time>2026-03-23T13:55:24Z</time>
      </trkpt>
      <trkpt lat="44.73154" lon="6.84264">
        <ele>1769</ele>
        <time>2026-03-23T13:55:25Z</time>
      </trkpt>
      <trkpt lat="44.73153" lon="6.84265">
        <ele>1769</ele>
        <time>2026-03-23T13:55:26Z</time>
      </trkpt>
      <trkpt lat="44.73152" lon="6.84265">
        <ele>1768.9</ele>
        <time>2026-03-23T13:55:27Z</time>
      </trkpt>
      <trkpt lat="44.73151" lon="6.84265">
        <ele>1768.8</ele>
        <time>2026-03-23T13:55:28Z</time>
      </trkpt>
      <trkpt lat="44.7315" lon="6.84266">
        <ele>1768.7</ele>
        <time>2026-03-23T13:55:29Z</time>
      </trkpt>
      <trkpt lat="44.73149" lon="6.84266">
        <ele>1768.6</ele>
        <time>2026-03-23T13:55:30Z</time>
      </trkpt>
      <trkpt lat="44.73147" lon="6.84267">
        <ele>1768.4</ele>
        <time>2026-03-23T13:55:31Z</time>
      </trkpt>
      <trkpt lat="44.73145" lon="6.84267">
        <ele>1768.3</ele>
        <time>2026-03-23T13:55:33Z</time>
      </trkpt>
      <trkpt lat="44.73144" lon="6.84268">
        <ele>1768.2</ele>
        <time>2026-03-23T13:55:35Z</time>
      </trkpt>
      <trkpt lat="44.73144" lon="6.84269">
        <ele>1768.2</ele>
        <time>2026-03-23T13:55:36Z</time>
      </trkpt>
      <trkpt lat="44.73143" lon="6.8427">
        <ele>1768.1</ele>
        <time>2026-03-23T13:55:37Z</time>
      </trkpt>
      <trkpt lat="44.73142" lon="6.84271">
        <ele>1768</ele>
        <time>2026-03-23T13:55:38Z</time>
      </trkpt>
      <trkpt lat="44.7314" lon="6.84271">
        <ele>1767.8</ele>
        <time>2026-03-23T13:55:39Z</time>
      </trkpt>
      <trkpt lat="44.73139" lon="6.84272">
        <ele>1767.7</ele>
        <time>2026-03-23T13:55:41Z</time>
      </trkpt>
      <trkpt lat="44.73138" lon="6.84273">
        <ele>1767.6</ele>
        <time>2026-03-23T13:55:42Z</time>
      </trkpt>
      <trkpt lat="44.73136" lon="6.84273">
        <ele>1767.5</ele>
        <time>2026-03-23T13:55:43Z</time>
      </trkpt>
      <trkpt lat="44.73136" lon="6.84273">
        <ele>1767.5</ele>
        <time>2026-03-23T13:55:44Z</time>
      </trkpt>
      <trkpt lat="44.73135" lon="6.84274">
        <ele>1767.4</ele>
        <time>2026-03-23T13:55:45Z</time>
      </trkpt>
      <trkpt lat="44.73134" lon="6.84274">
        <ele>1767.3</ele>
        <time>2026-03-23T13:55:46Z</time>
      </trkpt>
      <trkpt lat="44.73133" lon="6.84275">
        <ele>1767.2</ele>
        <time>2026-03-23T13:55:47Z</time>
      </trkpt>
      <trkpt lat="44.73133" lon="6.84277">
        <ele>1767.1</ele>
        <time>2026-03-23T13:55:48Z</time>
      </trkpt>
      <trkpt lat="44.73132" lon="6.8428">
        <ele>1766.9</ele>
        <time>2026-03-23T13:55:49Z</time>
      </trkpt>
      <trkpt lat="44.73132" lon="6.84281">
        <ele>1766.9</ele>
        <time>2026-03-23T13:55:50Z</time>
      </trkpt>
      <trkpt lat="44.7313" lon="6.84284">
        <ele>1766.7</ele>
        <time>2026-03-23T13:55:51Z</time>
      </trkpt>
      <trkpt lat="44.73129" lon="6.84285">
        <ele>1766.5</ele>
        <time>2026-03-23T13:55:53Z</time>
      </trkpt>
      <trkpt lat="44.73127" lon="6.84289">
        <ele>1766.3</ele>
        <time>2026-03-23T13:55:54Z</time>
      </trkpt>
      <trkpt lat="44.73127" lon="6.84289">
        <ele>1766.2</ele>
        <time>2026-03-23T13:55:56Z</time>
      </trkpt>
      <trkpt lat="44.73126" lon="6.8429">
        <ele>1766.1</ele>
        <time>2026-03-23T13:55:57Z</time>
      </trkpt>
      <trkpt lat="44.73125" lon="6.84291">
        <ele>1766</ele>
        <time>2026-03-23T13:55:58Z</time>
      </trkpt>
      <trkpt lat="44.73124" lon="6.84292">
        <ele>1765.9</ele>
        <time>2026-03-23T13:55:59Z</time>
      </trkpt>
      <trkpt lat="44.73123" lon="6.84293">
        <ele>1765.8</ele>
        <time>2026-03-23T13:56:00Z</time>
      </trkpt>
      <trkpt lat="44.73122" lon="6.84294">
        <ele>1765.6</ele>
        <time>2026-03-23T13:56:01Z</time>
      </trkpt>
      <trkpt lat="44.7312" lon="6.84296">
        <ele>1765.5</ele>
        <time>2026-03-23T13:56:03Z</time>
      </trkpt>
      <trkpt lat="44.73119" lon="6.84297">
        <ele>1765.3</ele>
        <time>2026-03-23T13:56:04Z</time>
      </trkpt>
      <trkpt lat="44.73119" lon="6.84298">
        <ele>1765.2</ele>
        <time>2026-03-23T13:56:05Z</time>
      </trkpt>
      <trkpt lat="44.73118" lon="6.84299">
        <ele>1765.1</ele>
        <time>2026-03-23T13:56:06Z</time>
      </trkpt>
      <trkpt lat="44.73116" lon="6.84302">
        <ele>1764.9</ele>
        <time>2026-03-23T13:56:07Z</time>
      </trkpt>
      <trkpt lat="44.73115" lon="6.84302">
        <ele>1764.8</ele>
        <time>2026-03-23T13:56:09Z</time>
      </trkpt>
      <trkpt lat="44.73114" lon="6.84303">
        <ele>1764.7</ele>
        <time>2026-03-23T13:56:10Z</time>
      </trkpt>
      <trkpt lat="44.73113" lon="6.84306">
        <ele>1764.5</ele>
        <time>2026-03-23T13:56:11Z</time>
      </trkpt>
      <trkpt lat="44.73112" lon="6.84307">
        <ele>1764.4</ele>
        <time>2026-03-23T13:56:12Z</time>
      </trkpt>
      <trkpt lat="44.73111" lon="6.84308">
        <ele>1764.3</ele>
        <time>2026-03-23T13:56:13Z</time>
      </trkpt>
      <trkpt lat="44.7311" lon="6.84309">
        <ele>1764.2</ele>
        <time>2026-03-23T13:56:15Z</time>
      </trkpt>
      <trkpt lat="44.73109" lon="6.8431">
        <ele>1764.1</ele>
        <time>2026-03-23T13:56:16Z</time>
      </trkpt>
      <trkpt lat="44.73108" lon="6.8431">
        <ele>1764</ele>
        <time>2026-03-23T13:56:17Z</time>
      </trkpt>
      <trkpt lat="44.73107" lon="6.8431">
        <ele>1763.9</ele>
        <time>2026-03-23T13:56:18Z</time>
      </trkpt>
      <trkpt lat="44.73105" lon="6.84309">
        <ele>1763.7</ele>
        <time>2026-03-23T13:56:19Z</time>
      </trkpt>
      <trkpt lat="44.73104" lon="6.84309">
        <ele>1763.6</ele>
        <time>2026-03-23T13:56:21Z</time>
      </trkpt>
      <trkpt lat="44.73103" lon="6.84308">
        <ele>1763.5</ele>
        <time>2026-03-23T13:56:22Z</time>
      </trkpt>
      <trkpt lat="44.73102" lon="6.84308">
        <ele>1763.4</ele>
        <time>2026-03-23T13:56:23Z</time>
      </trkpt>
      <trkpt lat="44.731" lon="6.84308">
        <ele>1763.3</ele>
        <time>2026-03-23T13:56:24Z</time>
      </trkpt>
      <trkpt lat="44.731" lon="6.84309">
        <ele>1763.2</ele>
        <time>2026-03-23T13:56:25Z</time>
      </trkpt>
      <trkpt lat="44.73099" lon="6.8431">
        <ele>1763.1</ele>
        <time>2026-03-23T13:56:26Z</time>
      </trkpt>
      <trkpt lat="44.73098" lon="6.84312">
        <ele>1763</ele>
        <time>2026-03-23T13:56:27Z</time>
      </trkpt>
      <trkpt lat="44.73096" lon="6.84312">
        <ele>1762.9</ele>
        <time>2026-03-23T13:56:28Z</time>
      </trkpt>
      <trkpt lat="44.73095" lon="6.84311">
        <ele>1762.9</ele>
        <time>2026-03-23T13:56:29Z</time>
      </trkpt>
      <trkpt lat="44.73095" lon="6.84309">
        <ele>1762.8</ele>
        <time>2026-03-23T13:56:30Z</time>
      </trkpt>
      <trkpt lat="44.73095" lon="6.8431">
        <ele>1762.8</ele>
        <time>2026-03-23T13:56:31Z</time>
      </trkpt>
      <trkpt lat="44.73094" lon="6.8431">
        <ele>1762.8</ele>
        <time>2026-03-23T13:56:32Z</time>
      </trkpt>
      <trkpt lat="44.73093" lon="6.8431">
        <ele>1762.7</ele>
        <time>2026-03-23T13:56:33Z</time>
      </trkpt>
      <trkpt lat="44.73091" lon="6.84312">
        <ele>1762.6</ele>
        <time>2026-03-23T13:56:34Z</time>
      </trkpt>
      <trkpt lat="44.73089" lon="6.84312">
        <ele>1762.5</ele>
        <time>2026-03-23T13:56:36Z</time>
      </trkpt>
      <trkpt lat="44.73088" lon="6.84312">
        <ele>1762.5</ele>
        <time>2026-03-23T13:56:37Z</time>
      </trkpt>
      <trkpt lat="44.73087" lon="6.84312">
        <ele>1762.4</ele>
        <time>2026-03-23T13:56:38Z</time>
      </trkpt>
      <trkpt lat="44.73085" lon="6.84314">
        <ele>1762.3</ele>
        <time>2026-03-23T13:56:39Z</time>
      </trkpt>
      <trkpt lat="44.73084" lon="6.84315">
        <ele>1762.2</ele>
        <time>2026-03-23T13:56:41Z</time>
      </trkpt>
      <trkpt lat="44.73083" lon="6.84316">
        <ele>1762.2</ele>
        <time>2026-03-23T13:56:42Z</time>
      </trkpt>
      <trkpt lat="44.73082" lon="6.84317">
        <ele>1762.1</ele>
        <time>2026-03-23T13:56:43Z</time>
      </trkpt>
      <trkpt lat="44.73082" lon="6.84319">
        <ele>1762.1</ele>
        <time>2026-03-23T13:56:44Z</time>
      </trkpt>
      <trkpt lat="44.73081" lon="6.8432">
        <ele>1762</ele>
        <time>2026-03-23T13:56:45Z</time>
      </trkpt>
      <trkpt lat="44.7308" lon="6.84322">
        <ele>1761.9</ele>
        <time>2026-03-23T13:56:46Z</time>
      </trkpt>
      <trkpt lat="44.7308" lon="6.84323">
        <ele>1761.9</ele>
        <time>2026-03-23T13:56:48Z</time>
      </trkpt>
      <trkpt lat="44.7308" lon="6.84323">
        <ele>1761.9</ele>
        <time>2026-03-23T13:56:49Z</time>
      </trkpt>
      <trkpt lat="44.7308" lon="6.84323">
        <ele>1761.9</ele>
        <time>2026-03-23T13:56:50Z</time>
      </trkpt>
      <trkpt lat="44.7308" lon="6.84322">
        <ele>1761.8</ele>
        <time>2026-03-23T13:56:51Z</time>
      </trkpt>
      <trkpt lat="44.7308" lon="6.84323">
        <ele>1761.8</ele>
        <time>2026-03-23T13:56:53Z</time>
      </trkpt>
      <trkpt lat="44.7308" lon="6.84323">
        <ele>1761.8</ele>
        <time>2026-03-23T13:56:54Z</time>
      </trkpt>
      <trkpt lat="44.7308" lon="6.84323">
        <ele>1761.8</ele>
        <time>2026-03-23T13:56:55Z</time>
      </trkpt>
      <trkpt lat="44.7308" lon="6.84323">
        <ele>1761.8</ele>
        <time>2026-03-23T13:56:56Z</time>
      </trkpt>
      <trkpt lat="44.7308" lon="6.84323">
        <ele>1761.8</ele>
        <time>2026-03-23T13:56:57Z</time>
      </trkpt>
      <trkpt lat="44.73078" lon="6.84324">
        <ele>1761.7</ele>
        <time>2026-03-23T13:56:58Z</time>
      </trkpt>
      <trkpt lat="44.73076" lon="6.84325">
        <ele>1761.6</ele>
        <time>2026-03-23T13:57:00Z</time>
      </trkpt>
      <trkpt lat="44.73075" lon="6.84326">
        <ele>1761.5</ele>
        <time>2026-03-23T13:57:01Z</time>
      </trkpt>
      <trkpt lat="44.73073" lon="6.84326">
        <ele>1761.5</ele>
        <time>2026-03-23T13:57:02Z</time>
      </trkpt>
      <trkpt lat="44.73072" lon="6.84327">
        <ele>1761.4</ele>
        <time>2026-03-23T13:57:03Z</time>
      </trkpt>
      <trkpt lat="44.73071" lon="6.84328">
        <ele>1761.3</ele>
        <time>2026-03-23T13:57:04Z</time>
      </trkpt>
      <trkpt lat="44.73069" lon="6.8433">
        <ele>1761.2</ele>
        <time>2026-03-23T13:57:05Z</time>
      </trkpt>
      <trkpt lat="44.73069" lon="6.8433">
        <ele>1761.2</ele>
        <time>2026-03-23T13:57:06Z</time>
      </trkpt>
      <trkpt lat="44.73068" lon="6.84331">
        <ele>1761.2</ele>
        <time>2026-03-23T13:57:07Z</time>
      </trkpt>
      <trkpt lat="44.73067" lon="6.84331">
        <ele>1761.1</ele>
        <time>2026-03-23T13:57:08Z</time>
      </trkpt>
      <trkpt lat="44.73066" lon="6.84331">
        <ele>1761</ele>
        <time>2026-03-23T13:57:09Z</time>
      </trkpt>
      <trkpt lat="44.73065" lon="6.8433">
        <ele>1761</ele>
        <time>2026-03-23T13:57:10Z</time>
      </trkpt>
      <trkpt lat="44.73064" lon="6.84329">
        <ele>1760.9</ele>
        <time>2026-03-23T13:57:11Z</time>
      </trkpt>
      <trkpt lat="44.73064" lon="6.84327">
        <ele>1760.9</ele>
        <time>2026-03-23T13:57:12Z</time>
      </trkpt>
      <trkpt lat="44.73064" lon="6.84326">
        <ele>1760.8</ele>
        <time>2026-03-23T13:57:13Z</time>
      </trkpt>
      <trkpt lat="44.73065" lon="6.84325">
        <ele>1760.8</ele>
        <time>2026-03-23T13:57:14Z</time>
      </trkpt>
      <trkpt lat="44.73065" lon="6.84323">
        <ele>1760.7</ele>
        <time>2026-03-23T13:57:15Z</time>
      </trkpt>
      <trkpt lat="44.73066" lon="6.84322">
        <ele>1760.7</ele>
        <time>2026-03-23T13:57:16Z</time>
      </trkpt>
      <trkpt lat="44.73066" lon="6.84322">
        <ele>1760.6</ele>
        <time>2026-03-23T13:57:17Z</time>
      </trkpt>
      <trkpt lat="44.73066" lon="6.84321">
        <ele>1760.6</ele>
        <time>2026-03-23T13:57:18Z</time>
      </trkpt>
      <trkpt lat="44.73066" lon="6.84321">
        <ele>1760.6</ele>
        <time>2026-03-23T13:57:19Z</time>
      </trkpt>
      <trkpt lat="44.73065" lon="6.84321">
        <ele>1760.6</ele>
        <time>2026-03-23T13:57:20Z</time>
      </trkpt>
      <trkpt lat="44.73065" lon="6.84321">
        <ele>1760.6</ele>
        <time>2026-03-23T13:57:21Z</time>
      </trkpt>
      <trkpt lat="44.73065" lon="6.84321">
        <ele>1760.6</ele>
        <time>2026-03-23T13:57:22Z</time>
      </trkpt>
      <trkpt lat="44.73065" lon="6.84321">
        <ele>1760.6</ele>
        <time>2026-03-23T13:57:23Z</time>
      </trkpt>
      <trkpt lat="44.73065" lon="6.84321">
        <ele>1760.6</ele>
        <time>2026-03-23T13:57:24Z</time>
      </trkpt>
      <trkpt lat="44.73065" lon="6.84321">
        <ele>1760.6</ele>
        <time>2026-03-23T13:57:25Z</time>
      </trkpt>
      <trkpt lat="44.73065" lon="6.84321">
        <ele>1760.6</ele>
        <time>2026-03-23T13:57:26Z</time>
      </trkpt>
      <trkpt lat="44.73065" lon="6.84321">
        <ele>1760.5</ele>
        <time>2026-03-23T13:57:27Z</time>
      </trkpt>
      <trkpt lat="44.73065" lon="6.84322">
        <ele>1760.5</ele>
        <time>2026-03-23T13:57:28Z</time>
      </trkpt>
      <trkpt lat="44.73064" lon="6.84322">
        <ele>1760.5</ele>
        <time>2026-03-23T13:57:29Z</time>
      </trkpt>
      <trkpt lat="44.73065" lon="6.84322">
        <ele>1760.5</ele>
        <time>2026-03-23T13:57:30Z</time>
      </trkpt>
      <trkpt lat="44.73065" lon="6.84322">
        <ele>1760.5</ele>
        <time>2026-03-23T13:57:31Z</time>
      </trkpt>
      <trkpt lat="44.73065" lon="6.84322">
        <ele>1760.5</ele>
        <time>2026-03-23T13:57:32Z</time>
      </trkpt>
      <trkpt lat="44.73065" lon="6.84323">
        <ele>1760.5</ele>
        <time>2026-03-23T13:57:33Z</time>
      </trkpt>
      <trkpt lat="44.73065" lon="6.84324">
        <ele>1760.4</ele>
        <time>2026-03-23T13:57:34Z</time>
      </trkpt>
      <trkpt lat="44.73065" lon="6.84324">
        <ele>1760.4</ele>
        <time>2026-03-23T13:57:35Z</time>
      </trkpt>
      <trkpt lat="44.73065" lon="6.84325">
        <ele>1760.4</ele>
        <time>2026-03-23T13:57:36Z</time>
      </trkpt>
      <trkpt lat="44.73065" lon="6.84325">
        <ele>1760.4</ele>
        <time>2026-03-23T13:57:37Z</time>
      </trkpt>
      <trkpt lat="44.73065" lon="6.84325">
        <ele>1760.4</ele>
        <time>2026-03-23T13:57:38Z</time>
      </trkpt>
      <trkpt lat="44.73065" lon="6.84325">
        <ele>1760.4</ele>
        <time>2026-03-23T13:57:39Z</time>
      </trkpt>
      <trkpt lat="44.73065" lon="6.84325">
        <ele>1760.4</ele>
        <time>2026-03-23T13:57:40Z</time>
      </trkpt>
      <trkpt lat="44.73065" lon="6.84325">
        <ele>1760.4</ele>
        <time>2026-03-23T13:57:41Z</time>
      </trkpt>
      <trkpt lat="44.73065" lon="6.84325">
        <ele>1760.4</ele>
        <time>2026-03-23T13:57:42Z</time>
      </trkpt>
      <trkpt lat="44.73065" lon="6.84325">
        <ele>1760.4</ele>
        <time>2026-03-23T13:57:43Z</time>
      </trkpt>
      <trkpt lat="44.73065" lon="6.84325">
        <ele>1760.4</ele>
        <time>2026-03-23T13:57:44Z</time>
      </trkpt>
      <trkpt lat="44.73065" lon="6.84325">
        <ele>1760.4</ele>
        <time>2026-03-23T13:57:45Z</time>
      </trkpt>
      <trkpt lat="44.73065" lon="6.84325">
        <ele>1760.4</ele>
        <time>2026-03-23T13:57:46Z</time>
      </trkpt>
      <trkpt lat="44.73065" lon="6.84325">
        <ele>1760.4</ele>
        <time>2026-03-23T13:57:47Z</time>
      </trkpt>
      <trkpt lat="44.73065" lon="6.84325">
        <ele>1760.4</ele>
        <time>2026-03-23T13:57:48Z</time>
      </trkpt>
      <trkpt lat="44.73065" lon="6.84325">
        <ele>1760.4</ele>
        <time>2026-03-23T13:57:49Z</time>
      </trkpt>
      <trkpt lat="44.73065" lon="6.84325">
        <ele>1760.4</ele>
        <time>2026-03-23T13:57:50Z</time>
      </trkpt>
      <trkpt lat="44.73065" lon="6.84325">
        <ele>1760.4</ele>
        <time>2026-03-23T13:57:51Z</time>
      </trkpt>
      <trkpt lat="44.73065" lon="6.84325">
        <ele>1760.4</ele>
        <time>2026-03-23T13:57:52Z</time>
      </trkpt>
      <trkpt lat="44.73065" lon="6.84325">
        <ele>1760.4</ele>
        <time>2026-03-23T13:57:53Z</time>
      </trkpt>
      <trkpt lat="44.73065" lon="6.84325">
        <ele>1760.4</ele>
        <time>2026-03-23T13:57:54Z</time>
      </trkpt>
      <trkpt lat="44.73065" lon="6.84325">
        <ele>1760.4</ele>
        <time>2026-03-23T13:57:55Z</time>
      </trkpt>
      <trkpt lat="44.73065" lon="6.84325">
        <ele>1760.4</ele>
        <time>2026-03-23T13:57:56Z</time>
      </trkpt>
      <trkpt lat="44.73065" lon="6.84325">
        <ele>1760.4</ele>
        <time>2026-03-23T13:57:57Z</time>
      </trkpt>
      <trkpt lat="44.73065" lon="6.84325">
        <ele>1760.4</ele>
        <time>2026-03-23T13:57:58Z</time>
      </trkpt>
      <trkpt lat="44.73065" lon="6.84325">
        <ele>1760.4</ele>
        <time>2026-03-23T13:57:59Z</time>
      </trkpt>
      <trkpt lat="44.73065" lon="6.84325">
        <ele>1760.4</ele>
        <time>2026-03-23T13:58:00Z</time>
      </trkpt>
      <trkpt lat="44.73065" lon="6.84325">
        <ele>1760.4</ele>
        <time>2026-03-23T13:58:01Z</time>
      </trkpt>
      <trkpt lat="44.73065" lon="6.84325">
        <ele>1760.4</ele>
        <time>2026-03-23T13:58:02Z</time>
      </trkpt>
      <trkpt lat="44.73065" lon="6.84325">
        <ele>1760.4</ele>
        <time>2026-03-23T13:58:03Z</time>
      </trkpt>
      <trkpt lat="44.73065" lon="6.84325">
        <ele>1760.4</ele>
        <time>2026-03-23T13:58:04Z</time>
      </trkpt>
      <trkpt lat="44.73065" lon="6.84325">
        <ele>1760.4</ele>
        <time>2026-03-23T13:58:05Z</time>
      </trkpt>
      <trkpt lat="44.73065" lon="6.84325">
        <ele>1760.4</ele>
        <time>2026-03-23T13:58:06Z</time>
      </trkpt>
      <trkpt lat="44.73065" lon="6.84325">
        <ele>1760.4</ele>
        <time>2026-03-23T13:58:07Z</time>
      </trkpt>
      <trkpt lat="44.73065" lon="6.84325">
        <ele>1760.4</ele>
        <time>2026-03-23T13:58:08Z</time>
      </trkpt>
      <trkpt lat="44.73065" lon="6.84325">
        <ele>1760.4</ele>
        <time>2026-03-23T13:58:09Z</time>
      </trkpt>
      <trkpt lat="44.73065" lon="6.84325">
        <ele>1760.4</ele>
        <time>2026-03-23T13:58:10Z</time>
      </trkpt>
      <trkpt lat="44.73065" lon="6.84325">
        <ele>1760.4</ele>
        <time>2026-03-23T13:58:11Z</time>
      </trkpt>
      <trkpt lat="44.73065" lon="6.84325">
        <ele>1760.4</ele>
        <time>2026-03-23T13:58:12Z</time>
      </trkpt>
      <trkpt lat="44.73065" lon="6.84325">
        <ele>1760.4</ele>
        <time>2026-03-23T13:58:13Z</time>
      </trkpt>
      <trkpt lat="44.73065" lon="6.84325">
        <ele>1760.4</ele>
        <time>2026-03-23T13:58:14Z</time>
      </trkpt>
      <trkpt lat="44.73065" lon="6.84325">
        <ele>1760.4</ele>
        <time>2026-03-23T13:58:15Z</time>
      </trkpt>
      <trkpt lat="44.73065" lon="6.84325">
        <ele>1760.4</ele>
        <time>2026-03-23T13:58:16Z</time>
      </trkpt>
      <trkpt lat="44.73065" lon="6.84325">
        <ele>1760.4</ele>
        <time>2026-03-23T13:58:17Z</time>
      </trkpt>
      <trkpt lat="44.73065" lon="6.84325">
        <ele>1760.4</ele>
        <time>2026-03-23T13:58:18Z</time>
      </trkpt>
      <trkpt lat="44.73065" lon="6.84325">
        <ele>1760.4</ele>
        <time>2026-03-23T13:58:19Z</time>
      </trkpt>
      <trkpt lat="44.73065" lon="6.84325">
        <ele>1760.4</ele>
        <time>2026-03-23T13:58:20Z</time>
      </trkpt>
      <trkpt lat="44.73065" lon="6.84325">
        <ele>1760.4</ele>
        <time>2026-03-23T13:58:21Z</time>
      </trkpt>
      <trkpt lat="44.73065" lon="6.84325">
        <ele>1760.4</ele>
        <time>2026-03-23T13:58:22Z</time>
      </trkpt>
      <trkpt lat="44.73065" lon="6.84325">
        <ele>1760.4</ele>
        <time>2026-03-23T13:58:23Z</time>
      </trkpt>
      <trkpt lat="44.73065" lon="6.84325">
        <ele>1760.4</ele>
        <time>2026-03-23T13:58:24Z</time>
      </trkpt>
      <trkpt lat="44.73065" lon="6.84325">
        <ele>1760.4</ele>
        <time>2026-03-23T13:58:25Z</time>
      </trkpt>
      <trkpt lat="44.73065" lon="6.84325">
        <ele>1760.4</ele>
        <time>2026-03-23T13:58:26Z</time>
      </trkpt>
      <trkpt lat="44.73065" lon="6.84325">
        <ele>1760.4</ele>
        <time>2026-03-23T13:58:27Z</time>
      </trkpt>
      <trkpt lat="44.73065" lon="6.84325">
        <ele>1760.4</ele>
        <time>2026-03-23T13:58:28Z</time>
      </trkpt>
      <trkpt lat="44.73065" lon="6.84325">
        <ele>1760.4</ele>
        <time>2026-03-23T13:58:29Z</time>
      </trkpt>
      <trkpt lat="44.73065" lon="6.84325">
        <ele>1760.4</ele>
        <time>2026-03-23T13:58:30Z</time>
      </trkpt>
      <trkpt lat="44.73065" lon="6.84325">
        <ele>1760.4</ele>
        <time>2026-03-23T13:58:31Z</time>
      </trkpt>
      <trkpt lat="44.73064" lon="6.84325">
        <ele>1760.3</ele>
        <time>2026-03-23T13:58:32Z</time>
      </trkpt>
      <trkpt lat="44.73064" lon="6.84325">
        <ele>1760.3</ele>
        <time>2026-03-23T13:58:33Z</time>
      </trkpt>
      <trkpt lat="44.73064" lon="6.84325">
        <ele>1760.3</ele>
        <time>2026-03-23T13:58:34Z</time>
      </trkpt>
      <trkpt lat="44.73064" lon="6.84325">
        <ele>1760.3</ele>
        <time>2026-03-23T13:58:35Z</time>
      </trkpt>
      <trkpt lat="44.73064" lon="6.84325">
        <ele>1760.3</ele>
        <time>2026-03-23T13:58:36Z</time>
      </trkpt>
      <trkpt lat="44.73064" lon="6.84325">
        <ele>1760.3</ele>
        <time>2026-03-23T13:58:37Z</time>
      </trkpt>
      <trkpt lat="44.73064" lon="6.84325">
        <ele>1760.3</ele>
        <time>2026-03-23T13:58:38Z</time>
      </trkpt>
      <trkpt lat="44.73064" lon="6.84325">
        <ele>1760.3</ele>
        <time>2026-03-23T13:58:39Z</time>
      </trkpt>
      <trkpt lat="44.73064" lon="6.84325">
        <ele>1760.3</ele>
        <time>2026-03-23T13:58:40Z</time>
      </trkpt>
      <trkpt lat="44.73064" lon="6.84325">
        <ele>1760.3</ele>
        <time>2026-03-23T13:58:41Z</time>
      </trkpt>
      <trkpt lat="44.73065" lon="6.84325">
        <ele>1760.3</ele>
        <time>2026-03-23T13:58:42Z</time>
      </trkpt>
      <trkpt lat="44.73065" lon="6.84325">
        <ele>1760.3</ele>
        <time>2026-03-23T13:58:43Z</time>
      </trkpt>
      <trkpt lat="44.73064" lon="6.84325">
        <ele>1760.3</ele>
        <time>2026-03-23T13:58:44Z</time>
      </trkpt>
      <trkpt lat="44.73064" lon="6.84325">
        <ele>1760.3</ele>
        <time>2026-03-23T13:58:45Z</time>
      </trkpt>
      <trkpt lat="44.73064" lon="6.84325">
        <ele>1760.3</ele>
        <time>2026-03-23T13:58:46Z</time>
      </trkpt>
      <trkpt lat="44.73064" lon="6.84325">
        <ele>1760.3</ele>
        <time>2026-03-23T13:58:47Z</time>
      </trkpt>
      <trkpt lat="44.73065" lon="6.84325">
        <ele>1760.3</ele>
        <time>2026-03-23T13:58:48Z</time>
      </trkpt>
      <trkpt lat="44.73065" lon="6.84325">
        <ele>1760.3</ele>
        <time>2026-03-23T13:58:49Z</time>
      </trkpt>
      <trkpt lat="44.73065" lon="6.84325">
        <ele>1760.3</ele>
        <time>2026-03-23T13:58:50Z</time>
      </trkpt>
      <trkpt lat="44.73065" lon="6.84325">
        <ele>1760.3</ele>
        <time>2026-03-23T13:58:51Z</time>
      </trkpt>
      <trkpt lat="44.73065" lon="6.84325">
        <ele>1760.3</ele>
        <time>2026-03-23T13:58:52Z</time>
      </trkpt>
      <trkpt lat="44.73064" lon="6.84324">
        <ele>1760.3</ele>
        <time>2026-03-23T13:58:54Z</time>
      </trkpt>
      <trkpt lat="44.73064" lon="6.84324">
        <ele>1760.3</ele>
        <time>2026-03-23T13:58:55Z</time>
      </trkpt>
      <trkpt lat="44.73064" lon="6.84323">
        <ele>1760.2</ele>
        <time>2026-03-23T13:58:56Z</time>
      </trkpt>
      <trkpt lat="44.73063" lon="6.84323">
        <ele>1760.2</ele>
        <time>2026-03-23T13:58:57Z</time>
      </trkpt>
      <trkpt lat="44.73063" lon="6.84323">
        <ele>1760.2</ele>
        <time>2026-03-23T13:58:58Z</time>
      </trkpt>
      <trkpt lat="44.73063" lon="6.84323">
        <ele>1760.2</ele>
        <time>2026-03-23T13:58:59Z</time>
      </trkpt>
      <trkpt lat="44.73062" lon="6.84323">
        <ele>1760.1</ele>
        <time>2026-03-23T13:59:00Z</time>
      </trkpt>
      <trkpt lat="44.73061" lon="6.84324">
        <ele>1760.1</ele>
        <time>2026-03-23T13:59:01Z</time>
      </trkpt>
      <trkpt lat="44.73061" lon="6.84325">
        <ele>1760</ele>
        <time>2026-03-23T13:59:03Z</time>
      </trkpt>
      <trkpt lat="44.7306" lon="6.84326">
        <ele>1759.9</ele>
        <time>2026-03-23T13:59:04Z</time>
      </trkpt>
      <trkpt lat="44.7306" lon="6.84327">
        <ele>1759.7</ele>
        <time>2026-03-23T13:59:05Z</time>
      </trkpt>
      <trkpt lat="44.73063" lon="6.84317">
        <ele>1758.4</ele>
        <time>2026-03-23T13:59:07Z</time>
      </trkpt>
      <trkpt lat="44.73066" lon="6.84309">
        <ele>1757.3</ele>
        <time>2026-03-23T13:59:08Z</time>
      </trkpt>
      <trkpt lat="44.73066" lon="6.84304">
        <ele>1756.8</ele>
        <time>2026-03-23T13:59:09Z</time>
      </trkpt>
      <trkpt lat="44.73066" lon="6.84303">
        <ele>1756.6</ele>
        <time>2026-03-23T13:59:10Z</time>
      </trkpt>
      <trkpt lat="44.73066" lon="6.84301">
        <ele>1756.3</ele>
        <time>2026-03-23T13:59:11Z</time>
      </trkpt>
      <trkpt lat="44.73066" lon="6.84299">
        <ele>1756.1</ele>
        <time>2026-03-23T13:59:12Z</time>
      </trkpt>
      <trkpt lat="44.73067" lon="6.84294">
        <ele>1755.5</ele>
        <time>2026-03-23T13:59:13Z</time>
      </trkpt>
      <trkpt lat="44.73067" lon="6.84292">
        <ele>1755.3</ele>
        <time>2026-03-23T13:59:15Z</time>
      </trkpt>
      <trkpt lat="44.73068" lon="6.84291">
        <ele>1755.1</ele>
        <time>2026-03-23T13:59:16Z</time>
      </trkpt>
      <trkpt lat="44.73068" lon="6.84289">
        <ele>1754.9</ele>
        <time>2026-03-23T13:59:17Z</time>
      </trkpt>
      <trkpt lat="44.73068" lon="6.84288">
        <ele>1754.7</ele>
        <time>2026-03-23T13:59:19Z</time>
      </trkpt>
      <trkpt lat="44.73069" lon="6.84287">
        <ele>1754.6</ele>
        <time>2026-03-23T13:59:20Z</time>
      </trkpt>
      <trkpt lat="44.73069" lon="6.84285">
        <ele>1754.4</ele>
        <time>2026-03-23T13:59:21Z</time>
      </trkpt>
      <trkpt lat="44.73069" lon="6.84285">
        <ele>1754.4</ele>
        <time>2026-03-23T13:59:22Z</time>
      </trkpt>
      <trkpt lat="44.7307" lon="6.84284">
        <ele>1754.3</ele>
        <time>2026-03-23T13:59:23Z</time>
      </trkpt>
      <trkpt lat="44.7307" lon="6.84283">
        <ele>1754.2</ele>
        <time>2026-03-23T13:59:24Z</time>
      </trkpt>
      <trkpt lat="44.73071" lon="6.84282">
        <ele>1754.2</ele>
        <time>2026-03-23T13:59:25Z</time>
      </trkpt>
      <trkpt lat="44.73071" lon="6.84281">
        <ele>1754.1</ele>
        <time>2026-03-23T13:59:26Z</time>
      </trkpt>
      <trkpt lat="44.73072" lon="6.84279">
        <ele>1754</ele>
        <time>2026-03-23T13:59:27Z</time>
      </trkpt>
      <trkpt lat="44.73073" lon="6.84278">
        <ele>1753.9</ele>
        <time>2026-03-23T13:59:28Z</time>
      </trkpt>
      <trkpt lat="44.73073" lon="6.84277">
        <ele>1753.9</ele>
        <time>2026-03-23T13:59:29Z</time>
      </trkpt>
      <trkpt lat="44.73074" lon="6.84276">
        <ele>1753.8</ele>
        <time>2026-03-23T13:59:30Z</time>
      </trkpt>
      <trkpt lat="44.73074" lon="6.84275">
        <ele>1753.8</ele>
        <time>2026-03-23T13:59:31Z</time>
      </trkpt>
      <trkpt lat="44.73076" lon="6.84274">
        <ele>1753.7</ele>
        <time>2026-03-23T13:59:32Z</time>
      </trkpt>
      <trkpt lat="44.73076" lon="6.84273">
        <ele>1753.7</ele>
        <time>2026-03-23T13:59:34Z</time>
      </trkpt>
      <trkpt lat="44.73076" lon="6.84271">
        <ele>1753.6</ele>
        <time>2026-03-23T13:59:35Z</time>
      </trkpt>
      <trkpt lat="44.73073" lon="6.84269">
        <ele>1753.6</ele>
        <time>2026-03-23T13:59:36Z</time>
      </trkpt>
      <trkpt lat="44.73072" lon="6.8427">
        <ele>1753.5</ele>
        <time>2026-03-23T13:59:38Z</time>
      </trkpt>
      <trkpt lat="44.7307" lon="6.84272">
        <ele>1753.4</ele>
        <time>2026-03-23T13:59:39Z</time>
      </trkpt>
      <trkpt lat="44.73069" lon="6.84272">
        <ele>1753.4</ele>
        <time>2026-03-23T13:59:41Z</time>
      </trkpt>
      <trkpt lat="44.73067" lon="6.84274">
        <ele>1753.3</ele>
        <time>2026-03-23T13:59:42Z</time>
      </trkpt>
      <trkpt lat="44.73066" lon="6.84274">
        <ele>1753.3</ele>
        <time>2026-03-23T13:59:43Z</time>
      </trkpt>
      <trkpt lat="44.73066" lon="6.84275">
        <ele>1753.3</ele>
        <time>2026-03-23T13:59:44Z</time>
      </trkpt>
      <trkpt lat="44.73063" lon="6.84277">
        <ele>1753.2</ele>
        <time>2026-03-23T13:59:45Z</time>
      </trkpt>
      <trkpt lat="44.73062" lon="6.84277">
        <ele>1753.2</ele>
        <time>2026-03-23T13:59:47Z</time>
      </trkpt>
      <trkpt lat="44.73061" lon="6.84278">
        <ele>1753.1</ele>
        <time>2026-03-23T13:59:48Z</time>
      </trkpt>
      <trkpt lat="44.7306" lon="6.84279">
        <ele>1753.1</ele>
        <time>2026-03-23T13:59:49Z</time>
      </trkpt>
      <trkpt lat="44.73058" lon="6.8428">
        <ele>1753</ele>
        <time>2026-03-23T13:59:50Z</time>
      </trkpt>
      <trkpt lat="44.73057" lon="6.8428">
        <ele>1752.9</ele>
        <time>2026-03-23T13:59:51Z</time>
      </trkpt>
      <trkpt lat="44.73056" lon="6.8428">
        <ele>1752.9</ele>
        <time>2026-03-23T13:59:52Z</time>
      </trkpt>
      <trkpt lat="44.73054" lon="6.84282">
        <ele>1752.7</ele>
        <time>2026-03-23T13:59:53Z</time>
      </trkpt>
      <trkpt lat="44.73053" lon="6.84283">
        <ele>1752.7</ele>
        <time>2026-03-23T13:59:55Z</time>
      </trkpt>
      <trkpt lat="44.73051" lon="6.84284">
        <ele>1752.6</ele>
        <time>2026-03-23T13:59:56Z</time>
      </trkpt>
      <trkpt lat="44.7305" lon="6.84286">
        <ele>1752.6</ele>
        <time>2026-03-23T13:59:58Z</time>
      </trkpt>
      <trkpt lat="44.73049" lon="6.84287">
        <ele>1752.6</ele>
        <time>2026-03-23T13:59:59Z</time>
      </trkpt>
      <trkpt lat="44.73048" lon="6.84288">
        <ele>1752.5</ele>
        <time>2026-03-23T14:00:01Z</time>
      </trkpt>
      <trkpt lat="44.73046" lon="6.8429">
        <ele>1752.5</ele>
        <time>2026-03-23T14:00:02Z</time>
      </trkpt>
      <trkpt lat="44.73045" lon="6.84291">
        <ele>1752.5</ele>
        <time>2026-03-23T14:00:04Z</time>
      </trkpt>
      <trkpt lat="44.73045" lon="6.84293">
        <ele>1752.4</ele>
        <time>2026-03-23T14:00:06Z</time>
      </trkpt>
      <trkpt lat="44.73044" lon="6.84293">
        <ele>1752.4</ele>
        <time>2026-03-23T14:00:07Z</time>
      </trkpt>
      <trkpt lat="44.73043" lon="6.84295">
        <ele>1752.4</ele>
        <time>2026-03-23T14:00:08Z</time>
      </trkpt>
      <trkpt lat="44.73042" lon="6.84296">
        <ele>1752.4</ele>
        <time>2026-03-23T14:00:10Z</time>
      </trkpt>
      <trkpt lat="44.73041" lon="6.84297">
        <ele>1752.3</ele>
        <time>2026-03-23T14:00:11Z</time>
      </trkpt>
      <trkpt lat="44.7304" lon="6.84298">
        <ele>1752.2</ele>
        <time>2026-03-23T14:00:12Z</time>
      </trkpt>
      <trkpt lat="44.73039" lon="6.84299">
        <ele>1752.2</ele>
        <time>2026-03-23T14:00:13Z</time>
      </trkpt>
      <trkpt lat="44.73037" lon="6.843">
        <ele>1752.1</ele>
        <time>2026-03-23T14:00:14Z</time>
      </trkpt>
      <trkpt lat="44.73036" lon="6.843">
        <ele>1752.1</ele>
        <time>2026-03-23T14:00:16Z</time>
      </trkpt>
      <trkpt lat="44.73035" lon="6.843">
        <ele>1752</ele>
        <time>2026-03-23T14:00:17Z</time>
      </trkpt>
      <trkpt lat="44.73034" lon="6.84301">
        <ele>1752</ele>
        <time>2026-03-23T14:00:18Z</time>
      </trkpt>
      <trkpt lat="44.73033" lon="6.84301">
        <ele>1751.9</ele>
        <time>2026-03-23T14:00:19Z</time>
      </trkpt>
      <trkpt lat="44.73032" lon="6.84302">
        <ele>1751.9</ele>
        <time>2026-03-23T14:00:20Z</time>
      </trkpt>
      <trkpt lat="44.73031" lon="6.84302">
        <ele>1751.8</ele>
        <time>2026-03-23T14:00:21Z</time>
      </trkpt>
      <trkpt lat="44.7303" lon="6.84303">
        <ele>1751.8</ele>
        <time>2026-03-23T14:00:22Z</time>
      </trkpt>
      <trkpt lat="44.7303" lon="6.84304">
        <ele>1751.8</ele>
        <time>2026-03-23T14:00:23Z</time>
      </trkpt>
      <trkpt lat="44.73028" lon="6.84303">
        <ele>1751.7</ele>
        <time>2026-03-23T14:00:24Z</time>
      </trkpt>
      <trkpt lat="44.73028" lon="6.84302">
        <ele>1751.6</ele>
        <time>2026-03-23T14:00:25Z</time>
      </trkpt>
      <trkpt lat="44.73027" lon="6.84301">
        <ele>1751.6</ele>
        <time>2026-03-23T14:00:26Z</time>
      </trkpt>
      <trkpt lat="44.73028" lon="6.84299">
        <ele>1751.6</ele>
        <time>2026-03-23T14:00:27Z</time>
      </trkpt>
      <trkpt lat="44.73029" lon="6.84298">
        <ele>1751.5</ele>
        <time>2026-03-23T14:00:28Z</time>
      </trkpt>
      <trkpt lat="44.73029" lon="6.84298">
        <ele>1751.5</ele>
        <time>2026-03-23T14:00:29Z</time>
      </trkpt>
      <trkpt lat="44.73028" lon="6.84297">
        <ele>1751.5</ele>
        <time>2026-03-23T14:00:30Z</time>
      </trkpt>
      <trkpt lat="44.73028" lon="6.84297">
        <ele>1751.5</ele>
        <time>2026-03-23T14:00:31Z</time>
      </trkpt>
      <trkpt lat="44.73028" lon="6.84298">
        <ele>1751.5</ele>
        <time>2026-03-23T14:00:32Z</time>
      </trkpt>
      <trkpt lat="44.73027" lon="6.84299">
        <ele>1751.4</ele>
        <time>2026-03-23T14:00:33Z</time>
      </trkpt>
      <trkpt lat="44.73028" lon="6.84299">
        <ele>1751.4</ele>
        <time>2026-03-23T14:00:34Z</time>
      </trkpt>
      <trkpt lat="44.73028" lon="6.84299">
        <ele>1751.4</ele>
        <time>2026-03-23T14:00:35Z</time>
      </trkpt>
      <trkpt lat="44.73028" lon="6.84299">
        <ele>1751.4</ele>
        <time>2026-03-23T14:00:36Z</time>
      </trkpt>
      <trkpt lat="44.73028" lon="6.84299">
        <ele>1751.4</ele>
        <time>2026-03-23T14:00:37Z</time>
      </trkpt>
      <trkpt lat="44.73028" lon="6.84299">
        <ele>1751.4</ele>
        <time>2026-03-23T14:00:38Z</time>
      </trkpt>
      <trkpt lat="44.73027" lon="6.843">
        <ele>1751.4</ele>
        <time>2026-03-23T14:00:39Z</time>
      </trkpt>
      <trkpt lat="44.73024" lon="6.84302">
        <ele>1751.3</ele>
        <time>2026-03-23T14:00:41Z</time>
      </trkpt>
      <trkpt lat="44.73023" lon="6.84302">
        <ele>1751.2</ele>
        <time>2026-03-23T14:00:42Z</time>
      </trkpt>
      <trkpt lat="44.73021" lon="6.84302">
        <ele>1751.2</ele>
        <time>2026-03-23T14:00:44Z</time>
      </trkpt>
      <trkpt lat="44.73019" lon="6.84303">
        <ele>1751.1</ele>
        <time>2026-03-23T14:00:45Z</time>
      </trkpt>
      <trkpt lat="44.73018" lon="6.84304">
        <ele>1751</ele>
        <time>2026-03-23T14:00:46Z</time>
      </trkpt>
      <trkpt lat="44.73016" lon="6.84305">
        <ele>1751</ele>
        <time>2026-03-23T14:00:47Z</time>
      </trkpt>
      <trkpt lat="44.73015" lon="6.84306">
        <ele>1750.9</ele>
        <time>2026-03-23T14:00:48Z</time>
      </trkpt>
      <trkpt lat="44.73014" lon="6.84306">
        <ele>1750.9</ele>
        <time>2026-03-23T14:00:49Z</time>
      </trkpt>
      <trkpt lat="44.73013" lon="6.84307">
        <ele>1750.8</ele>
        <time>2026-03-23T14:00:50Z</time>
      </trkpt>
      <trkpt lat="44.73012" lon="6.84308">
        <ele>1750.8</ele>
        <time>2026-03-23T14:00:51Z</time>
      </trkpt>
      <trkpt lat="44.7301" lon="6.84309">
        <ele>1750.7</ele>
        <time>2026-03-23T14:00:52Z</time>
      </trkpt>
      <trkpt lat="44.73007" lon="6.8431">
        <ele>1750.6</ele>
        <time>2026-03-23T14:00:53Z</time>
      </trkpt>
      <trkpt lat="44.73007" lon="6.84311">
        <ele>1750.6</ele>
        <time>2026-03-23T14:00:54Z</time>
      </trkpt>
      <trkpt lat="44.73005" lon="6.84311">
        <ele>1750.5</ele>
        <time>2026-03-23T14:00:55Z</time>
      </trkpt>
      <trkpt lat="44.73004" lon="6.84311">
        <ele>1750.5</ele>
        <time>2026-03-23T14:00:56Z</time>
      </trkpt>
      <trkpt lat="44.73003" lon="6.84311">
        <ele>1750.5</ele>
        <time>2026-03-23T14:00:57Z</time>
      </trkpt>
      <trkpt lat="44.73002" lon="6.84311">
        <ele>1750.4</ele>
        <time>2026-03-23T14:00:58Z</time>
      </trkpt>
      <trkpt lat="44.73002" lon="6.84311">
        <ele>1750.4</ele>
        <time>2026-03-23T14:00:59Z</time>
      </trkpt>
      <trkpt lat="44.73003" lon="6.84311">
        <ele>1750.4</ele>
        <time>2026-03-23T14:01:00Z</time>
      </trkpt>
      <trkpt lat="44.73003" lon="6.84311">
        <ele>1750.4</ele>
        <time>2026-03-23T14:01:01Z</time>
      </trkpt>
      <trkpt lat="44.73004" lon="6.84311">
        <ele>1750.3</ele>
        <time>2026-03-23T14:01:02Z</time>
      </trkpt>
      <trkpt lat="44.73004" lon="6.84311">
        <ele>1750.3</ele>
        <time>2026-03-23T14:01:03Z</time>
      </trkpt>
      <trkpt lat="44.73004" lon="6.84311">
        <ele>1750.3</ele>
        <time>2026-03-23T14:01:04Z</time>
      </trkpt>
      <trkpt lat="44.73004" lon="6.84311">
        <ele>1750.3</ele>
        <time>2026-03-23T14:01:05Z</time>
      </trkpt>
      <trkpt lat="44.73004" lon="6.84311">
        <ele>1750.3</ele>
        <time>2026-03-23T14:01:06Z</time>
      </trkpt>
      <trkpt lat="44.73004" lon="6.84311">
        <ele>1750.3</ele>
        <time>2026-03-23T14:01:07Z</time>
      </trkpt>
      <trkpt lat="44.73003" lon="6.84312">
        <ele>1750.3</ele>
        <time>2026-03-23T14:01:08Z</time>
      </trkpt>
      <trkpt lat="44.73001" lon="6.84313">
        <ele>1750.2</ele>
        <time>2026-03-23T14:01:09Z</time>
      </trkpt>
      <trkpt lat="44.73" lon="6.84313">
        <ele>1750.1</ele>
        <time>2026-03-23T14:01:10Z</time>
      </trkpt>
      <trkpt lat="44.72999" lon="6.84313">
        <ele>1750.1</ele>
        <time>2026-03-23T14:01:11Z</time>
      </trkpt>
      <trkpt lat="44.72998" lon="6.84313">
        <ele>1750.1</ele>
        <time>2026-03-23T14:01:12Z</time>
      </trkpt>
      <trkpt lat="44.72997" lon="6.84313">
        <ele>1750</ele>
        <time>2026-03-23T14:01:13Z</time>
      </trkpt>
      <trkpt lat="44.72996" lon="6.84314">
        <ele>1750</ele>
        <time>2026-03-23T14:01:14Z</time>
      </trkpt>
      <trkpt lat="44.72995" lon="6.84314">
        <ele>1750</ele>
        <time>2026-03-23T14:01:15Z</time>
      </trkpt>
      <trkpt lat="44.72994" lon="6.84316">
        <ele>1750</ele>
        <time>2026-03-23T14:01:16Z</time>
      </trkpt>
      <trkpt lat="44.72993" lon="6.84317">
        <ele>1750</ele>
        <time>2026-03-23T14:01:17Z</time>
      </trkpt>
      <trkpt lat="44.72992" lon="6.84318">
        <ele>1749.9</ele>
        <time>2026-03-23T14:01:18Z</time>
      </trkpt>
      <trkpt lat="44.7299" lon="6.8432">
        <ele>1749.8</ele>
        <time>2026-03-23T14:01:19Z</time>
      </trkpt>
      <trkpt lat="44.72989" lon="6.84322">
        <ele>1749.7</ele>
        <time>2026-03-23T14:01:21Z</time>
      </trkpt>
      <trkpt lat="44.72987" lon="6.84324">
        <ele>1749.6</ele>
        <time>2026-03-23T14:01:22Z</time>
      </trkpt>
      <trkpt lat="44.72986" lon="6.84325">
        <ele>1749.5</ele>
        <time>2026-03-23T14:01:24Z</time>
      </trkpt>
      <trkpt lat="44.72985" lon="6.84328">
        <ele>1749.3</ele>
        <time>2026-03-23T14:01:25Z</time>
      </trkpt>
      <trkpt lat="44.72984" lon="6.84329">
        <ele>1749.2</ele>
        <time>2026-03-23T14:01:27Z</time>
      </trkpt>
      <trkpt lat="44.72983" lon="6.8433">
        <ele>1749.2</ele>
        <time>2026-03-23T14:01:28Z</time>
      </trkpt>
      <trkpt lat="44.72982" lon="6.84331">
        <ele>1749.1</ele>
        <time>2026-03-23T14:01:29Z</time>
      </trkpt>
      <trkpt lat="44.72981" lon="6.84331">
        <ele>1749</ele>
        <time>2026-03-23T14:01:30Z</time>
      </trkpt>
      <trkpt lat="44.72981" lon="6.84332">
        <ele>1749</ele>
        <time>2026-03-23T14:01:31Z</time>
      </trkpt>
      <trkpt lat="44.7298" lon="6.84333">
        <ele>1748.9</ele>
        <time>2026-03-23T14:01:32Z</time>
      </trkpt>
      <trkpt lat="44.72978" lon="6.84334">
        <ele>1748.8</ele>
        <time>2026-03-23T14:01:33Z</time>
      </trkpt>
      <trkpt lat="44.72977" lon="6.84334">
        <ele>1748.8</ele>
        <time>2026-03-23T14:01:35Z</time>
      </trkpt>
      <trkpt lat="44.72976" lon="6.84334">
        <ele>1748.7</ele>
        <time>2026-03-23T14:01:36Z</time>
      </trkpt>
      <trkpt lat="44.72975" lon="6.84335">
        <ele>1748.7</ele>
        <time>2026-03-23T14:01:37Z</time>
      </trkpt>
      <trkpt lat="44.72974" lon="6.84335">
        <ele>1748.6</ele>
        <time>2026-03-23T14:01:38Z</time>
      </trkpt>
      <trkpt lat="44.72973" lon="6.84336">
        <ele>1748.6</ele>
        <time>2026-03-23T14:01:39Z</time>
      </trkpt>
      <trkpt lat="44.72972" lon="6.84336">
        <ele>1748.6</ele>
        <time>2026-03-23T14:01:40Z</time>
      </trkpt>
      <trkpt lat="44.72971" lon="6.84336">
        <ele>1748.5</ele>
        <time>2026-03-23T14:01:41Z</time>
      </trkpt>
      <trkpt lat="44.7297" lon="6.84337">
        <ele>1748.5</ele>
        <time>2026-03-23T14:01:42Z</time>
      </trkpt>
      <trkpt lat="44.72969" lon="6.84337">
        <ele>1748.5</ele>
        <time>2026-03-23T14:01:43Z</time>
      </trkpt>
      <trkpt lat="44.72967" lon="6.84337">
        <ele>1748.4</ele>
        <time>2026-03-23T14:01:44Z</time>
      </trkpt>
      <trkpt lat="44.72967" lon="6.84337">
        <ele>1748.4</ele>
        <time>2026-03-23T14:01:45Z</time>
      </trkpt>
      <trkpt lat="44.72965" lon="6.84338">
        <ele>1748.4</ele>
        <time>2026-03-23T14:01:46Z</time>
      </trkpt>
      <trkpt lat="44.72964" lon="6.84339">
        <ele>1748.4</ele>
        <time>2026-03-23T14:01:47Z</time>
      </trkpt>
      <trkpt lat="44.72963" lon="6.84339">
        <ele>1748.4</ele>
        <time>2026-03-23T14:01:48Z</time>
      </trkpt>
      <trkpt lat="44.72963" lon="6.84341">
        <ele>1748.4</ele>
        <time>2026-03-23T14:01:49Z</time>
      </trkpt>
      <trkpt lat="44.72962" lon="6.84342">
        <ele>1748.3</ele>
        <time>2026-03-23T14:01:50Z</time>
      </trkpt>
      <trkpt lat="44.72961" lon="6.84343">
        <ele>1748.3</ele>
        <time>2026-03-23T14:01:51Z</time>
      </trkpt>
      <trkpt lat="44.72961" lon="6.84344">
        <ele>1748.3</ele>
        <time>2026-03-23T14:01:52Z</time>
      </trkpt>
      <trkpt lat="44.7296" lon="6.84345">
        <ele>1748.3</ele>
        <time>2026-03-23T14:01:53Z</time>
      </trkpt>
      <trkpt lat="44.72959" lon="6.84346">
        <ele>1748.3</ele>
        <time>2026-03-23T14:01:54Z</time>
      </trkpt>
      <trkpt lat="44.72959" lon="6.84348">
        <ele>1748.4</ele>
        <time>2026-03-23T14:01:55Z</time>
      </trkpt>
      <trkpt lat="44.72958" lon="6.84348">
        <ele>1748.4</ele>
        <time>2026-03-23T14:01:56Z</time>
      </trkpt>
      <trkpt lat="44.72957" lon="6.8435">
        <ele>1748.4</ele>
        <time>2026-03-23T14:01:57Z</time>
      </trkpt>
      <trkpt lat="44.72957" lon="6.84351">
        <ele>1748.4</ele>
        <time>2026-03-23T14:01:58Z</time>
      </trkpt>
      <trkpt lat="44.72955" lon="6.84353">
        <ele>1748.4</ele>
        <time>2026-03-23T14:01:59Z</time>
      </trkpt>
      <trkpt lat="44.72954" lon="6.84354">
        <ele>1748.5</ele>
        <time>2026-03-23T14:02:01Z</time>
      </trkpt>
      <trkpt lat="44.72954" lon="6.84354">
        <ele>1748.5</ele>
        <time>2026-03-23T14:02:02Z</time>
      </trkpt>
      <trkpt lat="44.72952" lon="6.84357">
        <ele>1748.5</ele>
        <time>2026-03-23T14:02:03Z</time>
      </trkpt>
      <trkpt lat="44.72951" lon="6.84358">
        <ele>1748.6</ele>
        <time>2026-03-23T14:02:05Z</time>
      </trkpt>
      <trkpt lat="44.7295" lon="6.84359">
        <ele>1748.6</ele>
        <time>2026-03-23T14:02:07Z</time>
      </trkpt>
      <trkpt lat="44.72949" lon="6.8436">
        <ele>1748.7</ele>
        <time>2026-03-23T14:02:08Z</time>
      </trkpt>
      <trkpt lat="44.72948" lon="6.84361">
        <ele>1748.7</ele>
        <time>2026-03-23T14:02:09Z</time>
      </trkpt>
      <trkpt lat="44.72947" lon="6.84362">
        <ele>1748.8</ele>
        <time>2026-03-23T14:02:10Z</time>
      </trkpt>
      <trkpt lat="44.72947" lon="6.84363">
        <ele>1748.9</ele>
        <time>2026-03-23T14:02:11Z</time>
      </trkpt>
      <trkpt lat="44.72946" lon="6.84364">
        <ele>1748.9</ele>
        <time>2026-03-23T14:02:12Z</time>
      </trkpt>
      <trkpt lat="44.72944" lon="6.84367">
        <ele>1749</ele>
        <time>2026-03-23T14:02:13Z</time>
      </trkpt>
      <trkpt lat="44.72942" lon="6.84369">
        <ele>1749.2</ele>
        <time>2026-03-23T14:02:15Z</time>
      </trkpt>
      <trkpt lat="44.72941" lon="6.84369">
        <ele>1749.2</ele>
        <time>2026-03-23T14:02:17Z</time>
      </trkpt>
      <trkpt lat="44.7294" lon="6.8437">
        <ele>1749.3</ele>
        <time>2026-03-23T14:02:18Z</time>
      </trkpt>
      <trkpt lat="44.7294" lon="6.8437">
        <ele>1749.3</ele>
        <time>2026-03-23T14:02:19Z</time>
      </trkpt>
      <trkpt lat="44.72938" lon="6.84372">
        <ele>1749.4</ele>
        <time>2026-03-23T14:02:20Z</time>
      </trkpt>
      <trkpt lat="44.72936" lon="6.84374">
        <ele>1749.6</ele>
        <time>2026-03-23T14:02:22Z</time>
      </trkpt>
      <trkpt lat="44.72935" lon="6.84375">
        <ele>1749.6</ele>
        <time>2026-03-23T14:02:24Z</time>
      </trkpt>
      <trkpt lat="44.72934" lon="6.84376">
        <ele>1749.7</ele>
        <time>2026-03-23T14:02:25Z</time>
      </trkpt>
      <trkpt lat="44.72933" lon="6.84378">
        <ele>1749.8</ele>
        <time>2026-03-23T14:02:26Z</time>
      </trkpt>
      <trkpt lat="44.72932" lon="6.84379">
        <ele>1749.8</ele>
        <time>2026-03-23T14:02:28Z</time>
      </trkpt>
      <trkpt lat="44.72931" lon="6.84379">
        <ele>1749.9</ele>
        <time>2026-03-23T14:02:29Z</time>
      </trkpt>
      <trkpt lat="44.72931" lon="6.8438">
        <ele>1749.9</ele>
        <time>2026-03-23T14:02:30Z</time>
      </trkpt>
      <trkpt lat="44.7293" lon="6.84381">
        <ele>1750</ele>
        <time>2026-03-23T14:02:31Z</time>
      </trkpt>
      <trkpt lat="44.72928" lon="6.84382">
        <ele>1750.1</ele>
        <time>2026-03-23T14:02:32Z</time>
      </trkpt>
      <trkpt lat="44.72928" lon="6.84384">
        <ele>1750.1</ele>
        <time>2026-03-23T14:02:34Z</time>
      </trkpt>
      <trkpt lat="44.72927" lon="6.84385">
        <ele>1750.2</ele>
        <time>2026-03-23T14:02:35Z</time>
      </trkpt>
      <trkpt lat="44.72926" lon="6.84386">
        <ele>1750.2</ele>
        <time>2026-03-23T14:02:36Z</time>
      </trkpt>
      <trkpt lat="44.72925" lon="6.84387">
        <ele>1750.3</ele>
        <time>2026-03-23T14:02:37Z</time>
      </trkpt>
      <trkpt lat="44.72924" lon="6.84388">
        <ele>1750.3</ele>
        <time>2026-03-23T14:02:38Z</time>
      </trkpt>
      <trkpt lat="44.72924" lon="6.84389">
        <ele>1750.4</ele>
        <time>2026-03-23T14:02:39Z</time>
      </trkpt>
      <trkpt lat="44.72923" lon="6.84389">
        <ele>1750.4</ele>
        <time>2026-03-23T14:02:40Z</time>
      </trkpt>
      <trkpt lat="44.72922" lon="6.8439">
        <ele>1750.5</ele>
        <time>2026-03-23T14:02:41Z</time>
      </trkpt>
      <trkpt lat="44.72922" lon="6.84391">
        <ele>1750.5</ele>
        <time>2026-03-23T14:02:42Z</time>
      </trkpt>
      <trkpt lat="44.7292" lon="6.84393">
        <ele>1750.6</ele>
        <time>2026-03-23T14:02:43Z</time>
      </trkpt>
      <trkpt lat="44.72919" lon="6.84394">
        <ele>1750.6</ele>
        <time>2026-03-23T14:02:45Z</time>
      </trkpt>
      <trkpt lat="44.72919" lon="6.84395">
        <ele>1750.7</ele>
        <time>2026-03-23T14:02:46Z</time>
      </trkpt>
      <trkpt lat="44.72918" lon="6.84397">
        <ele>1750.7</ele>
        <time>2026-03-23T14:02:47Z</time>
      </trkpt>
      <trkpt lat="44.72918" lon="6.84399">
        <ele>1750.8</ele>
        <time>2026-03-23T14:02:48Z</time>
      </trkpt>
      <trkpt lat="44.72917" lon="6.84399">
        <ele>1750.8</ele>
        <time>2026-03-23T14:02:49Z</time>
      </trkpt>
      <trkpt lat="44.72917" lon="6.84401">
        <ele>1750.9</ele>
        <time>2026-03-23T14:02:50Z</time>
      </trkpt>
      <trkpt lat="44.72916" lon="6.84402">
        <ele>1751</ele>
        <time>2026-03-23T14:02:51Z</time>
      </trkpt>
      <trkpt lat="44.72916" lon="6.84402">
        <ele>1751</ele>
        <time>2026-03-23T14:02:52Z</time>
      </trkpt>
      <trkpt lat="44.72915" lon="6.84404">
        <ele>1751.1</ele>
        <time>2026-03-23T14:02:53Z</time>
      </trkpt>
      <trkpt lat="44.72915" lon="6.84405">
        <ele>1751.1</ele>
        <time>2026-03-23T14:02:54Z</time>
      </trkpt>
      <trkpt lat="44.72915" lon="6.84407">
        <ele>1751.2</ele>
        <time>2026-03-23T14:02:55Z</time>
      </trkpt>
      <trkpt lat="44.72915" lon="6.84407">
        <ele>1751.3</ele>
        <time>2026-03-23T14:02:56Z</time>
      </trkpt>
      <trkpt lat="44.72915" lon="6.84408">
        <ele>1751.3</ele>
        <time>2026-03-23T14:02:57Z</time>
      </trkpt>
      <trkpt lat="44.72915" lon="6.84408">
        <ele>1751.3</ele>
        <time>2026-03-23T14:02:58Z</time>
      </trkpt>
      <trkpt lat="44.72915" lon="6.84407">
        <ele>1751.3</ele>
        <time>2026-03-23T14:02:59Z</time>
      </trkpt>
      <trkpt lat="44.72915" lon="6.84407">
        <ele>1751.3</ele>
        <time>2026-03-23T14:03:00Z</time>
      </trkpt>
      <trkpt lat="44.72915" lon="6.84407">
        <ele>1751.3</ele>
        <time>2026-03-23T14:03:01Z</time>
      </trkpt>
      <trkpt lat="44.72915" lon="6.84407">
        <ele>1751.3</ele>
        <time>2026-03-23T14:03:02Z</time>
      </trkpt>
      <trkpt lat="44.72915" lon="6.84407">
        <ele>1751.3</ele>
        <time>2026-03-23T14:03:03Z</time>
      </trkpt>
      <trkpt lat="44.72915" lon="6.84407">
        <ele>1751.3</ele>
        <time>2026-03-23T14:03:04Z</time>
      </trkpt>
      <trkpt lat="44.72915" lon="6.84407">
        <ele>1751.3</ele>
        <time>2026-03-23T14:03:05Z</time>
      </trkpt>
      <trkpt lat="44.72915" lon="6.84407">
        <ele>1751.3</ele>
        <time>2026-03-23T14:03:06Z</time>
      </trkpt>
      <trkpt lat="44.72915" lon="6.84407">
        <ele>1751.3</ele>
        <time>2026-03-23T14:03:07Z</time>
      </trkpt>
      <trkpt lat="44.72915" lon="6.84407">
        <ele>1751.3</ele>
        <time>2026-03-23T14:03:08Z</time>
      </trkpt>
      <trkpt lat="44.72915" lon="6.84407">
        <ele>1751.4</ele>
        <time>2026-03-23T14:03:09Z</time>
      </trkpt>
      <trkpt lat="44.72915" lon="6.84407">
        <ele>1751.4</ele>
        <time>2026-03-23T14:03:10Z</time>
      </trkpt>
      <trkpt lat="44.72915" lon="6.84407">
        <ele>1751.4</ele>
        <time>2026-03-23T14:03:11Z</time>
      </trkpt>
      <trkpt lat="44.72915" lon="6.84407">
        <ele>1751.4</ele>
        <time>2026-03-23T14:03:12Z</time>
      </trkpt>
      <trkpt lat="44.72915" lon="6.84407">
        <ele>1751.4</ele>
        <time>2026-03-23T14:03:13Z</time>
      </trkpt>
      <trkpt lat="44.72915" lon="6.84407">
        <ele>1751.4</ele>
        <time>2026-03-23T14:03:14Z</time>
      </trkpt>
      <trkpt lat="44.72915" lon="6.84407">
        <ele>1751.4</ele>
        <time>2026-03-23T14:03:15Z</time>
      </trkpt>
      <trkpt lat="44.72915" lon="6.84407">
        <ele>1751.4</ele>
        <time>2026-03-23T14:03:16Z</time>
      </trkpt>
      <trkpt lat="44.72915" lon="6.84407">
        <ele>1751.4</ele>
        <time>2026-03-23T14:03:17Z</time>
      </trkpt>
      <trkpt lat="44.72915" lon="6.84407">
        <ele>1751.4</ele>
        <time>2026-03-23T14:03:18Z</time>
      </trkpt>
      <trkpt lat="44.72915" lon="6.84407">
        <ele>1751.4</ele>
        <time>2026-03-23T14:03:19Z</time>
      </trkpt>
      <trkpt lat="44.72915" lon="6.84407">
        <ele>1751.4</ele>
        <time>2026-03-23T14:03:20Z</time>
      </trkpt>
      <trkpt lat="44.72915" lon="6.84407">
        <ele>1751.4</ele>
        <time>2026-03-23T14:03:21Z</time>
      </trkpt>
      <trkpt lat="44.72915" lon="6.84407">
        <ele>1751.4</ele>
        <time>2026-03-23T14:03:22Z</time>
      </trkpt>
      <trkpt lat="44.72915" lon="6.84407">
        <ele>1751.4</ele>
        <time>2026-03-23T14:03:23Z</time>
      </trkpt>
      <trkpt lat="44.72915" lon="6.84407">
        <ele>1751.4</ele>
        <time>2026-03-23T14:03:24Z</time>
      </trkpt>
      <trkpt lat="44.72915" lon="6.84407">
        <ele>1751.4</ele>
        <time>2026-03-23T14:03:25Z</time>
      </trkpt>
      <trkpt lat="44.72915" lon="6.84407">
        <ele>1751.4</ele>
        <time>2026-03-23T14:03:26Z</time>
      </trkpt>
      <trkpt lat="44.72915" lon="6.84407">
        <ele>1751.4</ele>
        <time>2026-03-23T14:03:27Z</time>
      </trkpt>
      <trkpt lat="44.72915" lon="6.84407">
        <ele>1751.4</ele>
        <time>2026-03-23T14:03:28Z</time>
      </trkpt>
      <trkpt lat="44.72915" lon="6.84407">
        <ele>1751.4</ele>
        <time>2026-03-23T14:03:29Z</time>
      </trkpt>
      <trkpt lat="44.72915" lon="6.84407">
        <ele>1751.4</ele>
        <time>2026-03-23T14:03:30Z</time>
      </trkpt>
      <trkpt lat="44.72915" lon="6.84407">
        <ele>1751.4</ele>
        <time>2026-03-23T14:03:31Z</time>
      </trkpt>
      <trkpt lat="44.72915" lon="6.84407">
        <ele>1751.4</ele>
        <time>2026-03-23T14:03:32Z</time>
      </trkpt>
      <trkpt lat="44.72915" lon="6.84407">
        <ele>1751.4</ele>
        <time>2026-03-23T14:03:33Z</time>
      </trkpt>
      <trkpt lat="44.72915" lon="6.84407">
        <ele>1751.4</ele>
        <time>2026-03-23T14:03:34Z</time>
      </trkpt>
      <trkpt lat="44.72915" lon="6.84407">
        <ele>1751.4</ele>
        <time>2026-03-23T14:03:35Z</time>
      </trkpt>
      <trkpt lat="44.72915" lon="6.84407">
        <ele>1751.4</ele>
        <time>2026-03-23T14:03:36Z</time>
      </trkpt>
      <trkpt lat="44.72915" lon="6.84407">
        <ele>1751.4</ele>
        <time>2026-03-23T14:03:37Z</time>
      </trkpt>
      <trkpt lat="44.72915" lon="6.84407">
        <ele>1751.4</ele>
        <time>2026-03-23T14:03:38Z</time>
      </trkpt>
      <trkpt lat="44.72915" lon="6.84407">
        <ele>1751.4</ele>
        <time>2026-03-23T14:03:39Z</time>
      </trkpt>
      <trkpt lat="44.72915" lon="6.84407">
        <ele>1751.4</ele>
        <time>2026-03-23T14:03:40Z</time>
      </trkpt>
      <trkpt lat="44.72915" lon="6.84407">
        <ele>1751.4</ele>
        <time>2026-03-23T14:03:41Z</time>
      </trkpt>
      <trkpt lat="44.72915" lon="6.84407">
        <ele>1751.4</ele>
        <time>2026-03-23T14:03:42Z</time>
      </trkpt>
      <trkpt lat="44.72915" lon="6.84407">
        <ele>1751.4</ele>
        <time>2026-03-23T14:03:43Z</time>
      </trkpt>
      <trkpt lat="44.72915" lon="6.84407">
        <ele>1751.4</ele>
        <time>2026-03-23T14:03:44Z</time>
      </trkpt>
      <trkpt lat="44.72915" lon="6.84407">
        <ele>1751.4</ele>
        <time>2026-03-23T14:03:45Z</time>
      </trkpt>
      <trkpt lat="44.72915" lon="6.84407">
        <ele>1751.4</ele>
        <time>2026-03-23T14:03:46Z</time>
      </trkpt>
      <trkpt lat="44.72915" lon="6.84407">
        <ele>1751.4</ele>
        <time>2026-03-23T14:03:47Z</time>
      </trkpt>
      <trkpt lat="44.72915" lon="6.84407">
        <ele>1751.4</ele>
        <time>2026-03-23T14:03:48Z</time>
      </trkpt>
      <trkpt lat="44.72915" lon="6.84407">
        <ele>1751.5</ele>
        <time>2026-03-23T14:03:49Z</time>
      </trkpt>
      <trkpt lat="44.72915" lon="6.84407">
        <ele>1751.5</ele>
        <time>2026-03-23T14:03:50Z</time>
      </trkpt>
      <trkpt lat="44.72915" lon="6.84406">
        <ele>1751.5</ele>
        <time>2026-03-23T14:03:51Z</time>
      </trkpt>
      <trkpt lat="44.72915" lon="6.84406">
        <ele>1751.5</ele>
        <time>2026-03-23T14:03:52Z</time>
      </trkpt>
      <trkpt lat="44.72915" lon="6.84407">
        <ele>1751.5</ele>
        <time>2026-03-23T14:03:53Z</time>
      </trkpt>
      <trkpt lat="44.72915" lon="6.84407">
        <ele>1751.5</ele>
        <time>2026-03-23T14:03:54Z</time>
      </trkpt>
      <trkpt lat="44.72915" lon="6.84407">
        <ele>1751.5</ele>
        <time>2026-03-23T14:03:55Z</time>
      </trkpt>
      <trkpt lat="44.72915" lon="6.84407">
        <ele>1751.5</ele>
        <time>2026-03-23T14:03:56Z</time>
      </trkpt>
      <trkpt lat="44.72914" lon="6.84407">
        <ele>1751.6</ele>
        <time>2026-03-23T14:03:57Z</time>
      </trkpt>
      <trkpt lat="44.72914" lon="6.84408">
        <ele>1751.6</ele>
        <time>2026-03-23T14:03:58Z</time>
      </trkpt>
      <trkpt lat="44.72914" lon="6.84408">
        <ele>1751.6</ele>
        <time>2026-03-23T14:03:59Z</time>
      </trkpt>
      <trkpt lat="44.72914" lon="6.84409">
        <ele>1751.6</ele>
        <time>2026-03-23T14:04:00Z</time>
      </trkpt>
      <trkpt lat="44.72914" lon="6.84409">
        <ele>1751.6</ele>
        <time>2026-03-23T14:04:01Z</time>
      </trkpt>
      <trkpt lat="44.72914" lon="6.84411">
        <ele>1751.7</ele>
        <time>2026-03-23T14:04:02Z</time>
      </trkpt>
      <trkpt lat="44.72914" lon="6.84413">
        <ele>1751.8</ele>
        <time>2026-03-23T14:04:03Z</time>
      </trkpt>
      <trkpt lat="44.72914" lon="6.84414">
        <ele>1751.9</ele>
        <time>2026-03-23T14:04:04Z</time>
      </trkpt>
      <trkpt lat="44.72914" lon="6.84416">
        <ele>1752</ele>
        <time>2026-03-23T14:04:05Z</time>
      </trkpt>
      <trkpt lat="44.72913" lon="6.84418">
        <ele>1752.1</ele>
        <time>2026-03-23T14:04:06Z</time>
      </trkpt>
      <trkpt lat="44.72913" lon="6.8442">
        <ele>1752.2</ele>
        <time>2026-03-23T14:04:07Z</time>
      </trkpt>
      <trkpt lat="44.72913" lon="6.84421">
        <ele>1752.3</ele>
        <time>2026-03-23T14:04:09Z</time>
      </trkpt>
      <trkpt lat="44.72913" lon="6.84422">
        <ele>1752.3</ele>
        <time>2026-03-23T14:04:10Z</time>
      </trkpt>
      <trkpt lat="44.72913" lon="6.84423">
        <ele>1752.3</ele>
        <time>2026-03-23T14:04:11Z</time>
      </trkpt>
      <trkpt lat="44.72913" lon="6.84424">
        <ele>1752.4</ele>
        <time>2026-03-23T14:04:12Z</time>
      </trkpt>
      <trkpt lat="44.72913" lon="6.84423">
        <ele>1752.4</ele>
        <time>2026-03-23T14:04:13Z</time>
      </trkpt>
      <trkpt lat="44.72913" lon="6.84422">
        <ele>1752.5</ele>
        <time>2026-03-23T14:04:14Z</time>
      </trkpt>
      <trkpt lat="44.72913" lon="6.84423">
        <ele>1752.5</ele>
        <time>2026-03-23T14:04:16Z</time>
      </trkpt>
      <trkpt lat="44.72913" lon="6.84423">
        <ele>1752.5</ele>
        <time>2026-03-23T14:04:17Z</time>
      </trkpt>
      <trkpt lat="44.72913" lon="6.84423">
        <ele>1752.5</ele>
        <time>2026-03-23T14:04:18Z</time>
      </trkpt>
      <trkpt lat="44.72913" lon="6.84423">
        <ele>1752.5</ele>
        <time>2026-03-23T14:04:19Z</time>
      </trkpt>
      <trkpt lat="44.72913" lon="6.84423">
        <ele>1752.5</ele>
        <time>2026-03-23T14:04:20Z</time>
      </trkpt>
      <trkpt lat="44.72912" lon="6.84424">
        <ele>1752.5</ele>
        <time>2026-03-23T14:04:21Z</time>
      </trkpt>
      <trkpt lat="44.72912" lon="6.84424">
        <ele>1752.6</ele>
        <time>2026-03-23T14:04:22Z</time>
      </trkpt>
      <trkpt lat="44.72911" lon="6.84424">
        <ele>1752.6</ele>
        <time>2026-03-23T14:04:23Z</time>
      </trkpt>
      <trkpt lat="44.72911" lon="6.84424">
        <ele>1752.6</ele>
        <time>2026-03-23T14:04:24Z</time>
      </trkpt>
      <trkpt lat="44.72911" lon="6.84424">
        <ele>1752.7</ele>
        <time>2026-03-23T14:04:25Z</time>
      </trkpt>
      <trkpt lat="44.7291" lon="6.84424">
        <ele>1752.7</ele>
        <time>2026-03-23T14:04:26Z</time>
      </trkpt>
      <trkpt lat="44.7291" lon="6.84424">
        <ele>1752.7</ele>
        <time>2026-03-23T14:04:27Z</time>
      </trkpt>
      <trkpt lat="44.7291" lon="6.84424">
        <ele>1752.7</ele>
        <time>2026-03-23T14:04:28Z</time>
      </trkpt>
      <trkpt lat="44.7291" lon="6.84424">
        <ele>1752.7</ele>
        <time>2026-03-23T14:04:29Z</time>
      </trkpt>
      <trkpt lat="44.7291" lon="6.84424">
        <ele>1752.7</ele>
        <time>2026-03-23T14:04:30Z</time>
      </trkpt>
      <trkpt lat="44.7291" lon="6.84424">
        <ele>1752.8</ele>
        <time>2026-03-23T14:04:31Z</time>
      </trkpt>
      <trkpt lat="44.72909" lon="6.84424">
        <ele>1752.8</ele>
        <time>2026-03-23T14:04:32Z</time>
      </trkpt>
      <trkpt lat="44.72909" lon="6.84425">
        <ele>1752.8</ele>
        <time>2026-03-23T14:04:33Z</time>
      </trkpt>
      <trkpt lat="44.72909" lon="6.84425">
        <ele>1752.8</ele>
        <time>2026-03-23T14:04:34Z</time>
      </trkpt>
      <trkpt lat="44.72909" lon="6.84426">
        <ele>1752.8</ele>
        <time>2026-03-23T14:04:35Z</time>
      </trkpt>
      <trkpt lat="44.72909" lon="6.84426">
        <ele>1752.8</ele>
        <time>2026-03-23T14:04:36Z</time>
      </trkpt>
      <trkpt lat="44.72909" lon="6.84426">
        <ele>1752.8</ele>
        <time>2026-03-23T14:04:37Z</time>
      </trkpt>
      <trkpt lat="44.72909" lon="6.84426">
        <ele>1752.9</ele>
        <time>2026-03-23T14:04:38Z</time>
      </trkpt>
      <trkpt lat="44.72909" lon="6.84426">
        <ele>1752.9</ele>
        <time>2026-03-23T14:04:39Z</time>
      </trkpt>
      <trkpt lat="44.72909" lon="6.84426">
        <ele>1752.9</ele>
        <time>2026-03-23T14:04:40Z</time>
      </trkpt>
      <trkpt lat="44.72909" lon="6.84426">
        <ele>1752.9</ele>
        <time>2026-03-23T14:04:41Z</time>
      </trkpt>
      <trkpt lat="44.72909" lon="6.84427">
        <ele>1752.9</ele>
        <time>2026-03-23T14:04:42Z</time>
      </trkpt>
      <trkpt lat="44.72909" lon="6.84427">
        <ele>1752.9</ele>
        <time>2026-03-23T14:04:43Z</time>
      </trkpt>
    </trkseg>
  </trk>
</gpx>